<?xml version="1.0" encoding="UTF-8" standalone="no" ?>
<gpx xmlns="http://www.topografix.com/GPX/1/1" xmlns:xsi="http://www.w3.org/2001/XMLSchema-instance" xsi:schemaLocation="http://www.topografix.com/GPX/1/1 http://www.topografix.com/GPX/1/1/gpx.xsd" version="1.1" creator="VisuGPX - https://www.visugpx.com">
  <metadata>
    <name>Pointe du Lac sans Fond</name>
  </metadata>
  <trk>
    <name><![CDATA[Pointe du Lac sans Fond]]></name>
    <trkseg>
      <trkpt lat="45.62978" lon="6.84691">
        <ele>1857.5</ele>
        <time>2021-03-26T07:54:51Z</time>
      </trkpt>
      <trkpt lat="45.62978" lon="6.84693">
        <ele>1857.5</ele>
        <time>2021-03-26T07:54:52Z</time>
      </trkpt>
      <trkpt lat="45.62977" lon="6.84694">
        <ele>1857.5</ele>
        <time>2021-03-26T07:54:53Z</time>
      </trkpt>
      <trkpt lat="45.62977" lon="6.84696">
        <ele>1857.5</ele>
        <time>2021-03-26T07:54:54Z</time>
      </trkpt>
      <trkpt lat="45.62976" lon="6.84697">
        <ele>1857.5</ele>
        <time>2021-03-26T07:54:55Z</time>
      </trkpt>
      <trkpt lat="45.62976" lon="6.84697">
        <ele>1857.5</ele>
        <time>2021-03-26T07:54:56Z</time>
      </trkpt>
      <trkpt lat="45.62976" lon="6.84697">
        <ele>1857.5</ele>
        <time>2021-03-26T07:54:57Z</time>
      </trkpt>
      <trkpt lat="45.62976" lon="6.84697">
        <ele>1857.5</ele>
        <time>2021-03-26T07:54:58Z</time>
      </trkpt>
      <trkpt lat="45.62976" lon="6.84697">
        <ele>1857.5</ele>
        <time>2021-03-26T07:54:59Z</time>
      </trkpt>
      <trkpt lat="45.62976" lon="6.84697">
        <ele>1857.5</ele>
        <time>2021-03-26T07:55:00Z</time>
      </trkpt>
      <trkpt lat="45.62976" lon="6.84697">
        <ele>1857.5</ele>
        <time>2021-03-26T07:55:01Z</time>
      </trkpt>
      <trkpt lat="45.62981" lon="6.84696">
        <ele>1857.5</ele>
        <time>2021-03-26T07:56:04Z</time>
      </trkpt>
      <trkpt lat="45.62982" lon="6.84696">
        <ele>1857.5</ele>
        <time>2021-03-26T07:56:05Z</time>
      </trkpt>
      <trkpt lat="45.62982" lon="6.84695">
        <ele>1857.5</ele>
        <time>2021-03-26T07:56:06Z</time>
      </trkpt>
      <trkpt lat="45.62982" lon="6.84696">
        <ele>1857.5</ele>
        <time>2021-03-26T07:56:07Z</time>
      </trkpt>
      <trkpt lat="45.62983" lon="6.84695">
        <ele>1857.5</ele>
        <time>2021-03-26T07:56:08Z</time>
      </trkpt>
      <trkpt lat="45.62983" lon="6.84695">
        <ele>1857.5</ele>
        <time>2021-03-26T07:56:09Z</time>
      </trkpt>
      <trkpt lat="45.62984" lon="6.84695">
        <ele>1857.5</ele>
        <time>2021-03-26T07:56:10Z</time>
      </trkpt>
      <trkpt lat="45.62984" lon="6.84694">
        <ele>1857.5</ele>
        <time>2021-03-26T07:56:11Z</time>
      </trkpt>
      <trkpt lat="45.62985" lon="6.84694">
        <ele>1857.5</ele>
        <time>2021-03-26T07:56:12Z</time>
      </trkpt>
      <trkpt lat="45.62985" lon="6.84693">
        <ele>1857.5</ele>
        <time>2021-03-26T07:56:13Z</time>
      </trkpt>
      <trkpt lat="45.62985" lon="6.84693">
        <ele>1857.5</ele>
        <time>2021-03-26T07:56:14Z</time>
      </trkpt>
      <trkpt lat="45.62985" lon="6.84693">
        <ele>1857.5</ele>
        <time>2021-03-26T07:56:15Z</time>
      </trkpt>
      <trkpt lat="45.62985" lon="6.84693">
        <ele>1857.5</ele>
        <time>2021-03-26T07:56:16Z</time>
      </trkpt>
      <trkpt lat="45.62985" lon="6.84693">
        <ele>1857.5</ele>
        <time>2021-03-26T07:56:17Z</time>
      </trkpt>
      <trkpt lat="45.62985" lon="6.84693">
        <ele>1857.5</ele>
        <time>2021-03-26T07:56:18Z</time>
      </trkpt>
      <trkpt lat="45.62985" lon="6.84693">
        <ele>1857.5</ele>
        <time>2021-03-26T07:56:19Z</time>
      </trkpt>
      <trkpt lat="45.62985" lon="6.84693">
        <ele>1857.5</ele>
        <time>2021-03-26T07:56:20Z</time>
      </trkpt>
      <trkpt lat="45.62985" lon="6.84693">
        <ele>1857.5</ele>
        <time>2021-03-26T07:56:21Z</time>
      </trkpt>
      <trkpt lat="45.62985" lon="6.84693">
        <ele>1857.5</ele>
        <time>2021-03-26T07:56:22Z</time>
      </trkpt>
      <trkpt lat="45.62985" lon="6.84693">
        <ele>1857.5</ele>
        <time>2021-03-26T07:56:23Z</time>
      </trkpt>
      <trkpt lat="45.62989" lon="6.84691">
        <ele>1857.5</ele>
        <time>2021-03-26T07:56:33Z</time>
      </trkpt>
      <trkpt lat="45.62989" lon="6.84691">
        <ele>1857.5</ele>
        <time>2021-03-26T07:56:34Z</time>
      </trkpt>
      <trkpt lat="45.6299" lon="6.84691">
        <ele>1857.5</ele>
        <time>2021-03-26T07:56:35Z</time>
      </trkpt>
      <trkpt lat="45.62991" lon="6.8469">
        <ele>1857.5</ele>
        <time>2021-03-26T07:56:36Z</time>
      </trkpt>
      <trkpt lat="45.62991" lon="6.8469">
        <ele>1857.5</ele>
        <time>2021-03-26T07:56:37Z</time>
      </trkpt>
      <trkpt lat="45.62992" lon="6.8469">
        <ele>1857.5</ele>
        <time>2021-03-26T07:56:38Z</time>
      </trkpt>
      <trkpt lat="45.62993" lon="6.84689">
        <ele>1857.5</ele>
        <time>2021-03-26T07:56:39Z</time>
      </trkpt>
      <trkpt lat="45.62994" lon="6.84687">
        <ele>1857.5</ele>
        <time>2021-03-26T07:56:40Z</time>
      </trkpt>
      <trkpt lat="45.62994" lon="6.84686">
        <ele>1857.4</ele>
        <time>2021-03-26T07:56:41Z</time>
      </trkpt>
      <trkpt lat="45.62995" lon="6.84683">
        <ele>1857.4</ele>
        <time>2021-03-26T07:56:42Z</time>
      </trkpt>
      <trkpt lat="45.62996" lon="6.84682">
        <ele>1857.4</ele>
        <time>2021-03-26T07:56:43Z</time>
      </trkpt>
      <trkpt lat="45.62996" lon="6.84681">
        <ele>1857.4</ele>
        <time>2021-03-26T07:56:44Z</time>
      </trkpt>
      <trkpt lat="45.62997" lon="6.84679">
        <ele>1857.4</ele>
        <time>2021-03-26T07:56:45Z</time>
      </trkpt>
      <trkpt lat="45.62998" lon="6.84678">
        <ele>1857.4</ele>
        <time>2021-03-26T07:56:46Z</time>
      </trkpt>
      <trkpt lat="45.62999" lon="6.84677">
        <ele>1857.4</ele>
        <time>2021-03-26T07:56:47Z</time>
      </trkpt>
      <trkpt lat="45.62999" lon="6.84676">
        <ele>1857.4</ele>
        <time>2021-03-26T07:56:48Z</time>
      </trkpt>
      <trkpt lat="45.62999" lon="6.84676">
        <ele>1857.4</ele>
        <time>2021-03-26T07:56:49Z</time>
      </trkpt>
      <trkpt lat="45.63" lon="6.84675">
        <ele>1857.4</ele>
        <time>2021-03-26T07:56:50Z</time>
      </trkpt>
      <trkpt lat="45.63001" lon="6.84674">
        <ele>1857.3</ele>
        <time>2021-03-26T07:56:51Z</time>
      </trkpt>
      <trkpt lat="45.63001" lon="6.84674">
        <ele>1857.3</ele>
        <time>2021-03-26T07:56:52Z</time>
      </trkpt>
      <trkpt lat="45.63002" lon="6.84673">
        <ele>1857.4</ele>
        <time>2021-03-26T07:56:53Z</time>
      </trkpt>
      <trkpt lat="45.63003" lon="6.84673">
        <ele>1857.4</ele>
        <time>2021-03-26T07:56:54Z</time>
      </trkpt>
      <trkpt lat="45.63004" lon="6.84672">
        <ele>1857.5</ele>
        <time>2021-03-26T07:56:55Z</time>
      </trkpt>
      <trkpt lat="45.63005" lon="6.84671">
        <ele>1857.6</ele>
        <time>2021-03-26T07:56:56Z</time>
      </trkpt>
      <trkpt lat="45.63006" lon="6.8467">
        <ele>1857.6</ele>
        <time>2021-03-26T07:56:57Z</time>
      </trkpt>
      <trkpt lat="45.63007" lon="6.84669">
        <ele>1857.7</ele>
        <time>2021-03-26T07:56:58Z</time>
      </trkpt>
      <trkpt lat="45.63007" lon="6.84668">
        <ele>1857.7</ele>
        <time>2021-03-26T07:56:59Z</time>
      </trkpt>
      <trkpt lat="45.63008" lon="6.84667">
        <ele>1857.8</ele>
        <time>2021-03-26T07:57:00Z</time>
      </trkpt>
      <trkpt lat="45.63008" lon="6.84667">
        <ele>1857.8</ele>
        <time>2021-03-26T07:57:01Z</time>
      </trkpt>
      <trkpt lat="45.63009" lon="6.84666">
        <ele>1857.8</ele>
        <time>2021-03-26T07:57:02Z</time>
      </trkpt>
      <trkpt lat="45.6301" lon="6.84666">
        <ele>1857.9</ele>
        <time>2021-03-26T07:57:03Z</time>
      </trkpt>
      <trkpt lat="45.6301" lon="6.84665">
        <ele>1857.9</ele>
        <time>2021-03-26T07:57:04Z</time>
      </trkpt>
      <trkpt lat="45.63011" lon="6.84665">
        <ele>1857.9</ele>
        <time>2021-03-26T07:57:05Z</time>
      </trkpt>
      <trkpt lat="45.63011" lon="6.84664">
        <ele>1858</ele>
        <time>2021-03-26T07:57:06Z</time>
      </trkpt>
      <trkpt lat="45.63012" lon="6.84664">
        <ele>1858</ele>
        <time>2021-03-26T07:57:07Z</time>
      </trkpt>
      <trkpt lat="45.63012" lon="6.84663">
        <ele>1858</ele>
        <time>2021-03-26T07:57:08Z</time>
      </trkpt>
      <trkpt lat="45.63013" lon="6.84663">
        <ele>1858.1</ele>
        <time>2021-03-26T07:57:09Z</time>
      </trkpt>
      <trkpt lat="45.63014" lon="6.84663">
        <ele>1858.1</ele>
        <time>2021-03-26T07:57:10Z</time>
      </trkpt>
      <trkpt lat="45.63015" lon="6.84662">
        <ele>1858.2</ele>
        <time>2021-03-26T07:57:11Z</time>
      </trkpt>
      <trkpt lat="45.63015" lon="6.84662">
        <ele>1858.2</ele>
        <time>2021-03-26T07:57:12Z</time>
      </trkpt>
      <trkpt lat="45.63016" lon="6.84662">
        <ele>1858.2</ele>
        <time>2021-03-26T07:57:13Z</time>
      </trkpt>
      <trkpt lat="45.63017" lon="6.84662">
        <ele>1858.3</ele>
        <time>2021-03-26T07:57:14Z</time>
      </trkpt>
      <trkpt lat="45.63018" lon="6.84662">
        <ele>1858.3</ele>
        <time>2021-03-26T07:57:15Z</time>
      </trkpt>
      <trkpt lat="45.63018" lon="6.84662">
        <ele>1858.4</ele>
        <time>2021-03-26T07:57:16Z</time>
      </trkpt>
      <trkpt lat="45.63019" lon="6.84662">
        <ele>1858.4</ele>
        <time>2021-03-26T07:57:17Z</time>
      </trkpt>
      <trkpt lat="45.63019" lon="6.84662">
        <ele>1858.4</ele>
        <time>2021-03-26T07:57:18Z</time>
      </trkpt>
      <trkpt lat="45.63019" lon="6.84662">
        <ele>1858.4</ele>
        <time>2021-03-26T07:57:19Z</time>
      </trkpt>
      <trkpt lat="45.6302" lon="6.84662">
        <ele>1858.4</ele>
        <time>2021-03-26T07:57:20Z</time>
      </trkpt>
      <trkpt lat="45.6302" lon="6.84662">
        <ele>1858.4</ele>
        <time>2021-03-26T07:57:21Z</time>
      </trkpt>
      <trkpt lat="45.6302" lon="6.84663">
        <ele>1858.5</ele>
        <time>2021-03-26T07:57:22Z</time>
      </trkpt>
      <trkpt lat="45.63021" lon="6.84663">
        <ele>1858.5</ele>
        <time>2021-03-26T07:57:23Z</time>
      </trkpt>
      <trkpt lat="45.63021" lon="6.84663">
        <ele>1858.5</ele>
        <time>2021-03-26T07:57:24Z</time>
      </trkpt>
      <trkpt lat="45.63022" lon="6.84664">
        <ele>1858.5</ele>
        <time>2021-03-26T07:57:25Z</time>
      </trkpt>
      <trkpt lat="45.63022" lon="6.84664">
        <ele>1858.6</ele>
        <time>2021-03-26T07:57:26Z</time>
      </trkpt>
      <trkpt lat="45.63022" lon="6.84664">
        <ele>1858.6</ele>
        <time>2021-03-26T07:57:27Z</time>
      </trkpt>
      <trkpt lat="45.63027" lon="6.84665">
        <ele>1858.8</ele>
        <time>2021-03-26T08:00:40Z</time>
      </trkpt>
      <trkpt lat="45.63027" lon="6.84667">
        <ele>1858.9</ele>
        <time>2021-03-26T08:00:41Z</time>
      </trkpt>
      <trkpt lat="45.63028" lon="6.84668">
        <ele>1858.9</ele>
        <time>2021-03-26T08:00:42Z</time>
      </trkpt>
      <trkpt lat="45.6303" lon="6.8467">
        <ele>1859</ele>
        <time>2021-03-26T08:00:43Z</time>
      </trkpt>
      <trkpt lat="45.63031" lon="6.84671">
        <ele>1859.1</ele>
        <time>2021-03-26T08:00:44Z</time>
      </trkpt>
      <trkpt lat="45.63032" lon="6.84672">
        <ele>1859.1</ele>
        <time>2021-03-26T08:00:45Z</time>
      </trkpt>
      <trkpt lat="45.63033" lon="6.84674">
        <ele>1859.2</ele>
        <time>2021-03-26T08:00:46Z</time>
      </trkpt>
      <trkpt lat="45.63034" lon="6.84674">
        <ele>1859.3</ele>
        <time>2021-03-26T08:00:47Z</time>
      </trkpt>
      <trkpt lat="45.63035" lon="6.84675">
        <ele>1859.3</ele>
        <time>2021-03-26T08:00:48Z</time>
      </trkpt>
      <trkpt lat="45.63037" lon="6.84677">
        <ele>1859.4</ele>
        <time>2021-03-26T08:00:49Z</time>
      </trkpt>
      <trkpt lat="45.63038" lon="6.84677">
        <ele>1859.5</ele>
        <time>2021-03-26T08:00:50Z</time>
      </trkpt>
      <trkpt lat="45.63038" lon="6.84678">
        <ele>1859.5</ele>
        <time>2021-03-26T08:00:51Z</time>
      </trkpt>
      <trkpt lat="45.63039" lon="6.84679">
        <ele>1859.5</ele>
        <time>2021-03-26T08:00:52Z</time>
      </trkpt>
      <trkpt lat="45.6304" lon="6.8468">
        <ele>1859.6</ele>
        <time>2021-03-26T08:00:53Z</time>
      </trkpt>
      <trkpt lat="45.63041" lon="6.84681">
        <ele>1859.7</ele>
        <time>2021-03-26T08:00:54Z</time>
      </trkpt>
      <trkpt lat="45.63042" lon="6.84682">
        <ele>1859.7</ele>
        <time>2021-03-26T08:00:55Z</time>
      </trkpt>
      <trkpt lat="45.63043" lon="6.84683">
        <ele>1859.8</ele>
        <time>2021-03-26T08:00:56Z</time>
      </trkpt>
      <trkpt lat="45.63043" lon="6.84684">
        <ele>1859.8</ele>
        <time>2021-03-26T08:00:57Z</time>
      </trkpt>
      <trkpt lat="45.63044" lon="6.84685">
        <ele>1859.9</ele>
        <time>2021-03-26T08:00:58Z</time>
      </trkpt>
      <trkpt lat="45.63046" lon="6.84686">
        <ele>1859.9</ele>
        <time>2021-03-26T08:00:59Z</time>
      </trkpt>
      <trkpt lat="45.63047" lon="6.84688">
        <ele>1860</ele>
        <time>2021-03-26T08:01:00Z</time>
      </trkpt>
      <trkpt lat="45.63048" lon="6.84689">
        <ele>1860.1</ele>
        <time>2021-03-26T08:01:01Z</time>
      </trkpt>
      <trkpt lat="45.63048" lon="6.84691">
        <ele>1860.1</ele>
        <time>2021-03-26T08:01:02Z</time>
      </trkpt>
      <trkpt lat="45.63049" lon="6.84692">
        <ele>1860.2</ele>
        <time>2021-03-26T08:01:03Z</time>
      </trkpt>
      <trkpt lat="45.6305" lon="6.84693">
        <ele>1860.2</ele>
        <time>2021-03-26T08:01:04Z</time>
      </trkpt>
      <trkpt lat="45.63051" lon="6.84694">
        <ele>1860.2</ele>
        <time>2021-03-26T08:01:05Z</time>
      </trkpt>
      <trkpt lat="45.63052" lon="6.84695">
        <ele>1860.3</ele>
        <time>2021-03-26T08:01:06Z</time>
      </trkpt>
      <trkpt lat="45.63053" lon="6.84696">
        <ele>1860.4</ele>
        <time>2021-03-26T08:01:07Z</time>
      </trkpt>
      <trkpt lat="45.63054" lon="6.84698">
        <ele>1860.4</ele>
        <time>2021-03-26T08:01:08Z</time>
      </trkpt>
      <trkpt lat="45.63055" lon="6.84699">
        <ele>1860.5</ele>
        <time>2021-03-26T08:01:09Z</time>
      </trkpt>
      <trkpt lat="45.63056" lon="6.847">
        <ele>1860.5</ele>
        <time>2021-03-26T08:01:10Z</time>
      </trkpt>
      <trkpt lat="45.63057" lon="6.84701">
        <ele>1860.6</ele>
        <time>2021-03-26T08:01:11Z</time>
      </trkpt>
      <trkpt lat="45.63058" lon="6.84702">
        <ele>1860.6</ele>
        <time>2021-03-26T08:01:12Z</time>
      </trkpt>
      <trkpt lat="45.63059" lon="6.84703">
        <ele>1860.7</ele>
        <time>2021-03-26T08:01:13Z</time>
      </trkpt>
      <trkpt lat="45.6306" lon="6.84704">
        <ele>1860.7</ele>
        <time>2021-03-26T08:01:14Z</time>
      </trkpt>
      <trkpt lat="45.6306" lon="6.84704">
        <ele>1860.8</ele>
        <time>2021-03-26T08:01:15Z</time>
      </trkpt>
      <trkpt lat="45.63062" lon="6.84705">
        <ele>1860.8</ele>
        <time>2021-03-26T08:01:16Z</time>
      </trkpt>
      <trkpt lat="45.63063" lon="6.84706">
        <ele>1860.9</ele>
        <time>2021-03-26T08:01:17Z</time>
      </trkpt>
      <trkpt lat="45.63063" lon="6.84707">
        <ele>1860.9</ele>
        <time>2021-03-26T08:01:18Z</time>
      </trkpt>
      <trkpt lat="45.63065" lon="6.84708">
        <ele>1861</ele>
        <time>2021-03-26T08:01:19Z</time>
      </trkpt>
      <trkpt lat="45.63065" lon="6.84708">
        <ele>1861</ele>
        <time>2021-03-26T08:01:20Z</time>
      </trkpt>
      <trkpt lat="45.63066" lon="6.84709">
        <ele>1861.1</ele>
        <time>2021-03-26T08:01:21Z</time>
      </trkpt>
      <trkpt lat="45.63067" lon="6.84709">
        <ele>1861.1</ele>
        <time>2021-03-26T08:01:22Z</time>
      </trkpt>
      <trkpt lat="45.63068" lon="6.8471">
        <ele>1861.2</ele>
        <time>2021-03-26T08:01:23Z</time>
      </trkpt>
      <trkpt lat="45.63069" lon="6.8471">
        <ele>1861.2</ele>
        <time>2021-03-26T08:01:24Z</time>
      </trkpt>
      <trkpt lat="45.6307" lon="6.84711">
        <ele>1861.3</ele>
        <time>2021-03-26T08:01:25Z</time>
      </trkpt>
      <trkpt lat="45.63072" lon="6.84712">
        <ele>1861.4</ele>
        <time>2021-03-26T08:01:26Z</time>
      </trkpt>
      <trkpt lat="45.63073" lon="6.84712">
        <ele>1861.4</ele>
        <time>2021-03-26T08:01:27Z</time>
      </trkpt>
      <trkpt lat="45.63074" lon="6.84713">
        <ele>1861.5</ele>
        <time>2021-03-26T08:01:28Z</time>
      </trkpt>
      <trkpt lat="45.63075" lon="6.84714">
        <ele>1861.5</ele>
        <time>2021-03-26T08:01:29Z</time>
      </trkpt>
      <trkpt lat="45.63076" lon="6.84714">
        <ele>1861.6</ele>
        <time>2021-03-26T08:01:30Z</time>
      </trkpt>
      <trkpt lat="45.63077" lon="6.84715">
        <ele>1861.6</ele>
        <time>2021-03-26T08:01:31Z</time>
      </trkpt>
      <trkpt lat="45.63078" lon="6.84715">
        <ele>1861.7</ele>
        <time>2021-03-26T08:01:32Z</time>
      </trkpt>
      <trkpt lat="45.63079" lon="6.84716">
        <ele>1861.7</ele>
        <time>2021-03-26T08:01:33Z</time>
      </trkpt>
      <trkpt lat="45.6308" lon="6.84717">
        <ele>1861.8</ele>
        <time>2021-03-26T08:01:34Z</time>
      </trkpt>
      <trkpt lat="45.63081" lon="6.84717">
        <ele>1861.8</ele>
        <time>2021-03-26T08:01:35Z</time>
      </trkpt>
      <trkpt lat="45.63082" lon="6.84717">
        <ele>1861.9</ele>
        <time>2021-03-26T08:01:36Z</time>
      </trkpt>
      <trkpt lat="45.63083" lon="6.84718">
        <ele>1861.9</ele>
        <time>2021-03-26T08:01:37Z</time>
      </trkpt>
      <trkpt lat="45.63084" lon="6.84718">
        <ele>1862</ele>
        <time>2021-03-26T08:01:38Z</time>
      </trkpt>
      <trkpt lat="45.63085" lon="6.84719">
        <ele>1862</ele>
        <time>2021-03-26T08:01:39Z</time>
      </trkpt>
      <trkpt lat="45.63086" lon="6.84719">
        <ele>1862.1</ele>
        <time>2021-03-26T08:01:40Z</time>
      </trkpt>
      <trkpt lat="45.63087" lon="6.8472">
        <ele>1862.1</ele>
        <time>2021-03-26T08:01:41Z</time>
      </trkpt>
      <trkpt lat="45.63088" lon="6.84721">
        <ele>1862.2</ele>
        <time>2021-03-26T08:01:42Z</time>
      </trkpt>
      <trkpt lat="45.63089" lon="6.84721">
        <ele>1862.2</ele>
        <time>2021-03-26T08:01:43Z</time>
      </trkpt>
      <trkpt lat="45.63091" lon="6.84722">
        <ele>1862.3</ele>
        <time>2021-03-26T08:01:44Z</time>
      </trkpt>
      <trkpt lat="45.63092" lon="6.84723">
        <ele>1862.4</ele>
        <time>2021-03-26T08:01:45Z</time>
      </trkpt>
      <trkpt lat="45.63093" lon="6.84723">
        <ele>1862.4</ele>
        <time>2021-03-26T08:01:46Z</time>
      </trkpt>
      <trkpt lat="45.63094" lon="6.84724">
        <ele>1862.5</ele>
        <time>2021-03-26T08:01:47Z</time>
      </trkpt>
      <trkpt lat="45.63095" lon="6.84724">
        <ele>1862.5</ele>
        <time>2021-03-26T08:01:48Z</time>
      </trkpt>
      <trkpt lat="45.63096" lon="6.84725">
        <ele>1862.6</ele>
        <time>2021-03-26T08:01:49Z</time>
      </trkpt>
      <trkpt lat="45.63097" lon="6.84725">
        <ele>1862.7</ele>
        <time>2021-03-26T08:01:50Z</time>
      </trkpt>
      <trkpt lat="45.63098" lon="6.84726">
        <ele>1862.7</ele>
        <time>2021-03-26T08:01:51Z</time>
      </trkpt>
      <trkpt lat="45.63099" lon="6.84726">
        <ele>1862.8</ele>
        <time>2021-03-26T08:01:52Z</time>
      </trkpt>
      <trkpt lat="45.63101" lon="6.84728">
        <ele>1862.9</ele>
        <time>2021-03-26T08:01:53Z</time>
      </trkpt>
      <trkpt lat="45.63102" lon="6.84728">
        <ele>1862.9</ele>
        <time>2021-03-26T08:01:54Z</time>
      </trkpt>
      <trkpt lat="45.63103" lon="6.84729">
        <ele>1862.9</ele>
        <time>2021-03-26T08:01:55Z</time>
      </trkpt>
      <trkpt lat="45.63104" lon="6.8473">
        <ele>1863</ele>
        <time>2021-03-26T08:01:56Z</time>
      </trkpt>
      <trkpt lat="45.63105" lon="6.84731">
        <ele>1863.1</ele>
        <time>2021-03-26T08:01:57Z</time>
      </trkpt>
      <trkpt lat="45.63107" lon="6.84732">
        <ele>1863.2</ele>
        <time>2021-03-26T08:01:58Z</time>
      </trkpt>
      <trkpt lat="45.63108" lon="6.84733">
        <ele>1863.2</ele>
        <time>2021-03-26T08:01:59Z</time>
      </trkpt>
      <trkpt lat="45.63109" lon="6.84733">
        <ele>1863.3</ele>
        <time>2021-03-26T08:02:00Z</time>
      </trkpt>
      <trkpt lat="45.6311" lon="6.84734">
        <ele>1863.3</ele>
        <time>2021-03-26T08:02:01Z</time>
      </trkpt>
      <trkpt lat="45.63111" lon="6.84735">
        <ele>1863.4</ele>
        <time>2021-03-26T08:02:02Z</time>
      </trkpt>
      <trkpt lat="45.63112" lon="6.84736">
        <ele>1863.4</ele>
        <time>2021-03-26T08:02:03Z</time>
      </trkpt>
      <trkpt lat="45.63112" lon="6.84737">
        <ele>1863.5</ele>
        <time>2021-03-26T08:02:04Z</time>
      </trkpt>
      <trkpt lat="45.63113" lon="6.84737">
        <ele>1863.5</ele>
        <time>2021-03-26T08:02:05Z</time>
      </trkpt>
      <trkpt lat="45.63114" lon="6.84738">
        <ele>1863.6</ele>
        <time>2021-03-26T08:02:06Z</time>
      </trkpt>
      <trkpt lat="45.63114" lon="6.84738">
        <ele>1863.6</ele>
        <time>2021-03-26T08:02:07Z</time>
      </trkpt>
      <trkpt lat="45.63114" lon="6.84738">
        <ele>1863.6</ele>
        <time>2021-03-26T08:02:08Z</time>
      </trkpt>
      <trkpt lat="45.63115" lon="6.84739">
        <ele>1863.6</ele>
        <time>2021-03-26T08:02:09Z</time>
      </trkpt>
      <trkpt lat="45.63115" lon="6.84739">
        <ele>1863.7</ele>
        <time>2021-03-26T08:02:10Z</time>
      </trkpt>
      <trkpt lat="45.63115" lon="6.8474">
        <ele>1863.7</ele>
        <time>2021-03-26T08:02:11Z</time>
      </trkpt>
      <trkpt lat="45.63116" lon="6.8474">
        <ele>1863.7</ele>
        <time>2021-03-26T08:02:12Z</time>
      </trkpt>
      <trkpt lat="45.63116" lon="6.84741">
        <ele>1863.7</ele>
        <time>2021-03-26T08:02:13Z</time>
      </trkpt>
      <trkpt lat="45.63116" lon="6.84742">
        <ele>1863.7</ele>
        <time>2021-03-26T08:02:14Z</time>
      </trkpt>
      <trkpt lat="45.63116" lon="6.84742">
        <ele>1863.8</ele>
        <time>2021-03-26T08:02:15Z</time>
      </trkpt>
      <trkpt lat="45.63117" lon="6.84743">
        <ele>1863.8</ele>
        <time>2021-03-26T08:02:16Z</time>
      </trkpt>
      <trkpt lat="45.63118" lon="6.84744">
        <ele>1863.9</ele>
        <time>2021-03-26T08:02:17Z</time>
      </trkpt>
      <trkpt lat="45.63119" lon="6.84746">
        <ele>1863.9</ele>
        <time>2021-03-26T08:02:18Z</time>
      </trkpt>
      <trkpt lat="45.6312" lon="6.84748">
        <ele>1864.1</ele>
        <time>2021-03-26T08:02:19Z</time>
      </trkpt>
      <trkpt lat="45.63121" lon="6.84749">
        <ele>1864.1</ele>
        <time>2021-03-26T08:02:20Z</time>
      </trkpt>
      <trkpt lat="45.63121" lon="6.8475">
        <ele>1864.1</ele>
        <time>2021-03-26T08:02:21Z</time>
      </trkpt>
      <trkpt lat="45.63122" lon="6.84752">
        <ele>1864.2</ele>
        <time>2021-03-26T08:02:22Z</time>
      </trkpt>
      <trkpt lat="45.63122" lon="6.84753">
        <ele>1864.2</ele>
        <time>2021-03-26T08:02:23Z</time>
      </trkpt>
      <trkpt lat="45.63123" lon="6.84754">
        <ele>1864.3</ele>
        <time>2021-03-26T08:02:24Z</time>
      </trkpt>
      <trkpt lat="45.63125" lon="6.84757">
        <ele>1864.4</ele>
        <time>2021-03-26T08:02:25Z</time>
      </trkpt>
      <trkpt lat="45.63125" lon="6.84758">
        <ele>1864.5</ele>
        <time>2021-03-26T08:02:26Z</time>
      </trkpt>
      <trkpt lat="45.63126" lon="6.84758">
        <ele>1864.5</ele>
        <time>2021-03-26T08:02:27Z</time>
      </trkpt>
      <trkpt lat="45.63127" lon="6.8476">
        <ele>1864.6</ele>
        <time>2021-03-26T08:02:28Z</time>
      </trkpt>
      <trkpt lat="45.63128" lon="6.84761">
        <ele>1864.6</ele>
        <time>2021-03-26T08:02:29Z</time>
      </trkpt>
      <trkpt lat="45.63129" lon="6.84763">
        <ele>1864.7</ele>
        <time>2021-03-26T08:02:30Z</time>
      </trkpt>
      <trkpt lat="45.6313" lon="6.84764">
        <ele>1864.8</ele>
        <time>2021-03-26T08:02:31Z</time>
      </trkpt>
      <trkpt lat="45.63132" lon="6.84766">
        <ele>1864.9</ele>
        <time>2021-03-26T08:02:32Z</time>
      </trkpt>
      <trkpt lat="45.63132" lon="6.84767">
        <ele>1864.9</ele>
        <time>2021-03-26T08:02:33Z</time>
      </trkpt>
      <trkpt lat="45.63133" lon="6.84767">
        <ele>1864.9</ele>
        <time>2021-03-26T08:02:34Z</time>
      </trkpt>
      <trkpt lat="45.63135" lon="6.84769">
        <ele>1865.1</ele>
        <time>2021-03-26T08:02:35Z</time>
      </trkpt>
      <trkpt lat="45.63136" lon="6.84769">
        <ele>1865.1</ele>
        <time>2021-03-26T08:02:36Z</time>
      </trkpt>
      <trkpt lat="45.63136" lon="6.8477">
        <ele>1865.1</ele>
        <time>2021-03-26T08:02:37Z</time>
      </trkpt>
      <trkpt lat="45.63138" lon="6.84771">
        <ele>1865.2</ele>
        <time>2021-03-26T08:02:38Z</time>
      </trkpt>
      <trkpt lat="45.63139" lon="6.84772">
        <ele>1865.2</ele>
        <time>2021-03-26T08:02:39Z</time>
      </trkpt>
      <trkpt lat="45.6314" lon="6.84774">
        <ele>1865.3</ele>
        <time>2021-03-26T08:02:40Z</time>
      </trkpt>
      <trkpt lat="45.63141" lon="6.84775">
        <ele>1865.4</ele>
        <time>2021-03-26T08:02:41Z</time>
      </trkpt>
      <trkpt lat="45.63142" lon="6.84775">
        <ele>1865.4</ele>
        <time>2021-03-26T08:02:42Z</time>
      </trkpt>
      <trkpt lat="45.63143" lon="6.84777">
        <ele>1865.5</ele>
        <time>2021-03-26T08:02:43Z</time>
      </trkpt>
      <trkpt lat="45.63144" lon="6.84778">
        <ele>1865.6</ele>
        <time>2021-03-26T08:02:44Z</time>
      </trkpt>
      <trkpt lat="45.63145" lon="6.84778">
        <ele>1865.6</ele>
        <time>2021-03-26T08:02:45Z</time>
      </trkpt>
      <trkpt lat="45.63147" lon="6.84779">
        <ele>1865.7</ele>
        <time>2021-03-26T08:02:46Z</time>
      </trkpt>
      <trkpt lat="45.63148" lon="6.84779">
        <ele>1865.7</ele>
        <time>2021-03-26T08:02:47Z</time>
      </trkpt>
      <trkpt lat="45.63149" lon="6.8478">
        <ele>1865.8</ele>
        <time>2021-03-26T08:02:48Z</time>
      </trkpt>
      <trkpt lat="45.63151" lon="6.8478">
        <ele>1865.9</ele>
        <time>2021-03-26T08:02:49Z</time>
      </trkpt>
      <trkpt lat="45.63152" lon="6.84781">
        <ele>1865.9</ele>
        <time>2021-03-26T08:02:50Z</time>
      </trkpt>
      <trkpt lat="45.63153" lon="6.84781">
        <ele>1865.9</ele>
        <time>2021-03-26T08:02:51Z</time>
      </trkpt>
      <trkpt lat="45.63154" lon="6.84781">
        <ele>1866</ele>
        <time>2021-03-26T08:02:52Z</time>
      </trkpt>
      <trkpt lat="45.63155" lon="6.84781">
        <ele>1866.1</ele>
        <time>2021-03-26T08:02:53Z</time>
      </trkpt>
      <trkpt lat="45.63156" lon="6.84782">
        <ele>1866.1</ele>
        <time>2021-03-26T08:02:54Z</time>
      </trkpt>
      <trkpt lat="45.63158" lon="6.84783">
        <ele>1866.2</ele>
        <time>2021-03-26T08:02:55Z</time>
      </trkpt>
      <trkpt lat="45.63159" lon="6.84784">
        <ele>1866.2</ele>
        <time>2021-03-26T08:02:56Z</time>
      </trkpt>
      <trkpt lat="45.63159" lon="6.84785">
        <ele>1866.3</ele>
        <time>2021-03-26T08:02:57Z</time>
      </trkpt>
      <trkpt lat="45.6316" lon="6.84786">
        <ele>1866.3</ele>
        <time>2021-03-26T08:02:58Z</time>
      </trkpt>
      <trkpt lat="45.63161" lon="6.84788">
        <ele>1866.4</ele>
        <time>2021-03-26T08:02:59Z</time>
      </trkpt>
      <trkpt lat="45.63162" lon="6.8479">
        <ele>1866.5</ele>
        <time>2021-03-26T08:03:00Z</time>
      </trkpt>
      <trkpt lat="45.63163" lon="6.84791">
        <ele>1866.5</ele>
        <time>2021-03-26T08:03:01Z</time>
      </trkpt>
      <trkpt lat="45.63164" lon="6.84792">
        <ele>1866.6</ele>
        <time>2021-03-26T08:03:02Z</time>
      </trkpt>
      <trkpt lat="45.63165" lon="6.84793">
        <ele>1866.7</ele>
        <time>2021-03-26T08:03:03Z</time>
      </trkpt>
      <trkpt lat="45.63167" lon="6.84794">
        <ele>1866.8</ele>
        <time>2021-03-26T08:03:04Z</time>
      </trkpt>
      <trkpt lat="45.63168" lon="6.84795">
        <ele>1866.8</ele>
        <time>2021-03-26T08:03:05Z</time>
      </trkpt>
      <trkpt lat="45.63169" lon="6.84795">
        <ele>1866.9</ele>
        <time>2021-03-26T08:03:06Z</time>
      </trkpt>
      <trkpt lat="45.63171" lon="6.84796">
        <ele>1867</ele>
        <time>2021-03-26T08:03:07Z</time>
      </trkpt>
      <trkpt lat="45.63172" lon="6.84797">
        <ele>1867</ele>
        <time>2021-03-26T08:03:08Z</time>
      </trkpt>
      <trkpt lat="45.63173" lon="6.84797">
        <ele>1867</ele>
        <time>2021-03-26T08:03:09Z</time>
      </trkpt>
      <trkpt lat="45.63175" lon="6.84799">
        <ele>1867.2</ele>
        <time>2021-03-26T08:03:10Z</time>
      </trkpt>
      <trkpt lat="45.63175" lon="6.84799">
        <ele>1867.2</ele>
        <time>2021-03-26T08:03:11Z</time>
      </trkpt>
      <trkpt lat="45.63176" lon="6.848">
        <ele>1867.2</ele>
        <time>2021-03-26T08:03:12Z</time>
      </trkpt>
      <trkpt lat="45.63177" lon="6.84801">
        <ele>1867.3</ele>
        <time>2021-03-26T08:03:13Z</time>
      </trkpt>
      <trkpt lat="45.63178" lon="6.84802">
        <ele>1867.4</ele>
        <time>2021-03-26T08:03:14Z</time>
      </trkpt>
      <trkpt lat="45.63179" lon="6.84803">
        <ele>1867.4</ele>
        <time>2021-03-26T08:03:15Z</time>
      </trkpt>
      <trkpt lat="45.63181" lon="6.84805">
        <ele>1867.6</ele>
        <time>2021-03-26T08:03:16Z</time>
      </trkpt>
      <trkpt lat="45.63181" lon="6.84806">
        <ele>1867.6</ele>
        <time>2021-03-26T08:03:17Z</time>
      </trkpt>
      <trkpt lat="45.63182" lon="6.84806">
        <ele>1867.6</ele>
        <time>2021-03-26T08:03:18Z</time>
      </trkpt>
      <trkpt lat="45.63184" lon="6.84807">
        <ele>1867.8</ele>
        <time>2021-03-26T08:03:19Z</time>
      </trkpt>
      <trkpt lat="45.63185" lon="6.84808">
        <ele>1867.8</ele>
        <time>2021-03-26T08:03:20Z</time>
      </trkpt>
      <trkpt lat="45.63185" lon="6.84809">
        <ele>1867.9</ele>
        <time>2021-03-26T08:03:21Z</time>
      </trkpt>
      <trkpt lat="45.63187" lon="6.8481">
        <ele>1868</ele>
        <time>2021-03-26T08:03:22Z</time>
      </trkpt>
      <trkpt lat="45.63188" lon="6.84811">
        <ele>1868</ele>
        <time>2021-03-26T08:03:23Z</time>
      </trkpt>
      <trkpt lat="45.63188" lon="6.84812">
        <ele>1868.1</ele>
        <time>2021-03-26T08:03:24Z</time>
      </trkpt>
      <trkpt lat="45.63189" lon="6.84813">
        <ele>1868.1</ele>
        <time>2021-03-26T08:03:25Z</time>
      </trkpt>
      <trkpt lat="45.6319" lon="6.84814">
        <ele>1868.2</ele>
        <time>2021-03-26T08:03:26Z</time>
      </trkpt>
      <trkpt lat="45.63191" lon="6.84815">
        <ele>1868.2</ele>
        <time>2021-03-26T08:03:27Z</time>
      </trkpt>
      <trkpt lat="45.63192" lon="6.84816">
        <ele>1868.3</ele>
        <time>2021-03-26T08:03:28Z</time>
      </trkpt>
      <trkpt lat="45.63192" lon="6.84817">
        <ele>1868.3</ele>
        <time>2021-03-26T08:03:29Z</time>
      </trkpt>
      <trkpt lat="45.63193" lon="6.84818">
        <ele>1868.4</ele>
        <time>2021-03-26T08:03:30Z</time>
      </trkpt>
      <trkpt lat="45.63195" lon="6.8482">
        <ele>1868.5</ele>
        <time>2021-03-26T08:03:31Z</time>
      </trkpt>
      <trkpt lat="45.63195" lon="6.84821">
        <ele>1868.6</ele>
        <time>2021-03-26T08:03:32Z</time>
      </trkpt>
      <trkpt lat="45.63196" lon="6.84822">
        <ele>1868.6</ele>
        <time>2021-03-26T08:03:33Z</time>
      </trkpt>
      <trkpt lat="45.63197" lon="6.84824">
        <ele>1868.7</ele>
        <time>2021-03-26T08:03:34Z</time>
      </trkpt>
      <trkpt lat="45.63198" lon="6.84825">
        <ele>1868.8</ele>
        <time>2021-03-26T08:03:35Z</time>
      </trkpt>
      <trkpt lat="45.63199" lon="6.84826">
        <ele>1868.9</ele>
        <time>2021-03-26T08:03:36Z</time>
      </trkpt>
      <trkpt lat="45.632" lon="6.84828">
        <ele>1869</ele>
        <time>2021-03-26T08:03:37Z</time>
      </trkpt>
      <trkpt lat="45.63201" lon="6.8483">
        <ele>1869.1</ele>
        <time>2021-03-26T08:03:38Z</time>
      </trkpt>
      <trkpt lat="45.63202" lon="6.84831">
        <ele>1869.2</ele>
        <time>2021-03-26T08:03:39Z</time>
      </trkpt>
      <trkpt lat="45.63202" lon="6.84832">
        <ele>1869.2</ele>
        <time>2021-03-26T08:03:40Z</time>
      </trkpt>
      <trkpt lat="45.63203" lon="6.84833">
        <ele>1869.3</ele>
        <time>2021-03-26T08:03:41Z</time>
      </trkpt>
      <trkpt lat="45.63204" lon="6.84834">
        <ele>1869.3</ele>
        <time>2021-03-26T08:03:42Z</time>
      </trkpt>
      <trkpt lat="45.63205" lon="6.84835">
        <ele>1869.4</ele>
        <time>2021-03-26T08:03:43Z</time>
      </trkpt>
      <trkpt lat="45.63206" lon="6.84837">
        <ele>1869.5</ele>
        <time>2021-03-26T08:03:44Z</time>
      </trkpt>
      <trkpt lat="45.63206" lon="6.84838">
        <ele>1869.5</ele>
        <time>2021-03-26T08:03:45Z</time>
      </trkpt>
      <trkpt lat="45.63207" lon="6.84839">
        <ele>1869.6</ele>
        <time>2021-03-26T08:03:46Z</time>
      </trkpt>
      <trkpt lat="45.63208" lon="6.8484">
        <ele>1869.7</ele>
        <time>2021-03-26T08:03:47Z</time>
      </trkpt>
      <trkpt lat="45.63209" lon="6.84842">
        <ele>1869.8</ele>
        <time>2021-03-26T08:03:48Z</time>
      </trkpt>
      <trkpt lat="45.6321" lon="6.84843">
        <ele>1869.8</ele>
        <time>2021-03-26T08:03:49Z</time>
      </trkpt>
      <trkpt lat="45.6321" lon="6.84844">
        <ele>1869.9</ele>
        <time>2021-03-26T08:03:50Z</time>
      </trkpt>
      <trkpt lat="45.63211" lon="6.84845">
        <ele>1869.9</ele>
        <time>2021-03-26T08:03:51Z</time>
      </trkpt>
      <trkpt lat="45.63212" lon="6.84846">
        <ele>1870</ele>
        <time>2021-03-26T08:03:52Z</time>
      </trkpt>
      <trkpt lat="45.63214" lon="6.84848">
        <ele>1870.1</ele>
        <time>2021-03-26T08:03:53Z</time>
      </trkpt>
      <trkpt lat="45.63214" lon="6.84849">
        <ele>1870.2</ele>
        <time>2021-03-26T08:03:54Z</time>
      </trkpt>
      <trkpt lat="45.63215" lon="6.8485">
        <ele>1870.2</ele>
        <time>2021-03-26T08:03:55Z</time>
      </trkpt>
      <trkpt lat="45.63216" lon="6.84853">
        <ele>1870.3</ele>
        <time>2021-03-26T08:03:56Z</time>
      </trkpt>
      <trkpt lat="45.63217" lon="6.84854">
        <ele>1870.4</ele>
        <time>2021-03-26T08:03:57Z</time>
      </trkpt>
      <trkpt lat="45.63217" lon="6.84855">
        <ele>1870.4</ele>
        <time>2021-03-26T08:03:58Z</time>
      </trkpt>
      <trkpt lat="45.63219" lon="6.84857">
        <ele>1870.6</ele>
        <time>2021-03-26T08:03:59Z</time>
      </trkpt>
      <trkpt lat="45.63219" lon="6.84858">
        <ele>1870.6</ele>
        <time>2021-03-26T08:04:00Z</time>
      </trkpt>
      <trkpt lat="45.6322" lon="6.84858">
        <ele>1870.6</ele>
        <time>2021-03-26T08:04:01Z</time>
      </trkpt>
      <trkpt lat="45.63221" lon="6.8486">
        <ele>1870.7</ele>
        <time>2021-03-26T08:04:02Z</time>
      </trkpt>
      <trkpt lat="45.63222" lon="6.84861">
        <ele>1870.8</ele>
        <time>2021-03-26T08:04:03Z</time>
      </trkpt>
      <trkpt lat="45.63222" lon="6.84862">
        <ele>1870.8</ele>
        <time>2021-03-26T08:04:04Z</time>
      </trkpt>
      <trkpt lat="45.63223" lon="6.84863">
        <ele>1870.9</ele>
        <time>2021-03-26T08:04:05Z</time>
      </trkpt>
      <trkpt lat="45.63224" lon="6.84864">
        <ele>1870.9</ele>
        <time>2021-03-26T08:04:06Z</time>
      </trkpt>
      <trkpt lat="45.63225" lon="6.84865">
        <ele>1871</ele>
        <time>2021-03-26T08:04:07Z</time>
      </trkpt>
      <trkpt lat="45.63226" lon="6.84867">
        <ele>1871.1</ele>
        <time>2021-03-26T08:04:08Z</time>
      </trkpt>
      <trkpt lat="45.63227" lon="6.84868">
        <ele>1871.2</ele>
        <time>2021-03-26T08:04:09Z</time>
      </trkpt>
      <trkpt lat="45.63228" lon="6.84869">
        <ele>1871.2</ele>
        <time>2021-03-26T08:04:10Z</time>
      </trkpt>
      <trkpt lat="45.63229" lon="6.84872">
        <ele>1871.3</ele>
        <time>2021-03-26T08:04:11Z</time>
      </trkpt>
      <trkpt lat="45.6323" lon="6.84873">
        <ele>1871.4</ele>
        <time>2021-03-26T08:04:12Z</time>
      </trkpt>
      <trkpt lat="45.6323" lon="6.84874">
        <ele>1871.4</ele>
        <time>2021-03-26T08:04:13Z</time>
      </trkpt>
      <trkpt lat="45.63232" lon="6.84876">
        <ele>1871.5</ele>
        <time>2021-03-26T08:04:14Z</time>
      </trkpt>
      <trkpt lat="45.63233" lon="6.84877">
        <ele>1871.6</ele>
        <time>2021-03-26T08:04:15Z</time>
      </trkpt>
      <trkpt lat="45.63234" lon="6.84877">
        <ele>1871.6</ele>
        <time>2021-03-26T08:04:16Z</time>
      </trkpt>
      <trkpt lat="45.63235" lon="6.84879">
        <ele>1871.7</ele>
        <time>2021-03-26T08:04:17Z</time>
      </trkpt>
      <trkpt lat="45.63236" lon="6.8488">
        <ele>1871.8</ele>
        <time>2021-03-26T08:04:18Z</time>
      </trkpt>
      <trkpt lat="45.63237" lon="6.84881">
        <ele>1871.8</ele>
        <time>2021-03-26T08:04:19Z</time>
      </trkpt>
      <trkpt lat="45.63238" lon="6.84882">
        <ele>1871.9</ele>
        <time>2021-03-26T08:04:20Z</time>
      </trkpt>
      <trkpt lat="45.63239" lon="6.84883">
        <ele>1872</ele>
        <time>2021-03-26T08:04:21Z</time>
      </trkpt>
      <trkpt lat="45.63241" lon="6.84885">
        <ele>1872.1</ele>
        <time>2021-03-26T08:04:22Z</time>
      </trkpt>
      <trkpt lat="45.63241" lon="6.84885">
        <ele>1872.1</ele>
        <time>2021-03-26T08:04:23Z</time>
      </trkpt>
      <trkpt lat="45.63242" lon="6.84886">
        <ele>1872.1</ele>
        <time>2021-03-26T08:04:24Z</time>
      </trkpt>
      <trkpt lat="45.63244" lon="6.84888">
        <ele>1872.2</ele>
        <time>2021-03-26T08:04:25Z</time>
      </trkpt>
      <trkpt lat="45.63244" lon="6.84889">
        <ele>1872.3</ele>
        <time>2021-03-26T08:04:26Z</time>
      </trkpt>
      <trkpt lat="45.63245" lon="6.84889">
        <ele>1872.3</ele>
        <time>2021-03-26T08:04:27Z</time>
      </trkpt>
      <trkpt lat="45.63247" lon="6.84891">
        <ele>1872.4</ele>
        <time>2021-03-26T08:04:28Z</time>
      </trkpt>
      <trkpt lat="45.63248" lon="6.84891">
        <ele>1872.5</ele>
        <time>2021-03-26T08:04:29Z</time>
      </trkpt>
      <trkpt lat="45.63248" lon="6.84892">
        <ele>1872.5</ele>
        <time>2021-03-26T08:04:30Z</time>
      </trkpt>
      <trkpt lat="45.63251" lon="6.84893">
        <ele>1872.6</ele>
        <time>2021-03-26T08:04:31Z</time>
      </trkpt>
      <trkpt lat="45.63251" lon="6.84893">
        <ele>1872.7</ele>
        <time>2021-03-26T08:04:32Z</time>
      </trkpt>
      <trkpt lat="45.63252" lon="6.84894">
        <ele>1872.7</ele>
        <time>2021-03-26T08:04:33Z</time>
      </trkpt>
      <trkpt lat="45.63253" lon="6.84895">
        <ele>1872.8</ele>
        <time>2021-03-26T08:04:34Z</time>
      </trkpt>
      <trkpt lat="45.63255" lon="6.84896">
        <ele>1872.9</ele>
        <time>2021-03-26T08:04:35Z</time>
      </trkpt>
      <trkpt lat="45.63257" lon="6.84897">
        <ele>1873</ele>
        <time>2021-03-26T08:04:36Z</time>
      </trkpt>
      <trkpt lat="45.63258" lon="6.84897">
        <ele>1873.1</ele>
        <time>2021-03-26T08:04:37Z</time>
      </trkpt>
      <trkpt lat="45.63258" lon="6.84897">
        <ele>1873.1</ele>
        <time>2021-03-26T08:04:38Z</time>
      </trkpt>
      <trkpt lat="45.6326" lon="6.84899">
        <ele>1873.2</ele>
        <time>2021-03-26T08:04:39Z</time>
      </trkpt>
      <trkpt lat="45.63261" lon="6.84899">
        <ele>1873.3</ele>
        <time>2021-03-26T08:04:40Z</time>
      </trkpt>
      <trkpt lat="45.63262" lon="6.849">
        <ele>1873.3</ele>
        <time>2021-03-26T08:04:41Z</time>
      </trkpt>
      <trkpt lat="45.63263" lon="6.849">
        <ele>1873.4</ele>
        <time>2021-03-26T08:04:42Z</time>
      </trkpt>
      <trkpt lat="45.63264" lon="6.84901">
        <ele>1873.5</ele>
        <time>2021-03-26T08:04:43Z</time>
      </trkpt>
      <trkpt lat="45.63266" lon="6.84901">
        <ele>1873.6</ele>
        <time>2021-03-26T08:04:44Z</time>
      </trkpt>
      <trkpt lat="45.63268" lon="6.84902">
        <ele>1873.6</ele>
        <time>2021-03-26T08:04:45Z</time>
      </trkpt>
      <trkpt lat="45.63269" lon="6.84902">
        <ele>1873.7</ele>
        <time>2021-03-26T08:04:46Z</time>
      </trkpt>
      <trkpt lat="45.6327" lon="6.84902">
        <ele>1873.8</ele>
        <time>2021-03-26T08:04:47Z</time>
      </trkpt>
      <trkpt lat="45.63272" lon="6.84902">
        <ele>1873.9</ele>
        <time>2021-03-26T08:04:48Z</time>
      </trkpt>
      <trkpt lat="45.63273" lon="6.84902">
        <ele>1873.9</ele>
        <time>2021-03-26T08:04:49Z</time>
      </trkpt>
      <trkpt lat="45.63274" lon="6.84902">
        <ele>1874</ele>
        <time>2021-03-26T08:04:50Z</time>
      </trkpt>
      <trkpt lat="45.63275" lon="6.84904">
        <ele>1874.1</ele>
        <time>2021-03-26T08:04:51Z</time>
      </trkpt>
      <trkpt lat="45.63276" lon="6.84905">
        <ele>1874.1</ele>
        <time>2021-03-26T08:04:52Z</time>
      </trkpt>
      <trkpt lat="45.63276" lon="6.84905">
        <ele>1874.1</ele>
        <time>2021-03-26T08:04:53Z</time>
      </trkpt>
      <trkpt lat="45.63276" lon="6.84905">
        <ele>1874.1</ele>
        <time>2021-03-26T08:04:54Z</time>
      </trkpt>
      <trkpt lat="45.63276" lon="6.84905">
        <ele>1874.1</ele>
        <time>2021-03-26T08:04:55Z</time>
      </trkpt>
      <trkpt lat="45.63276" lon="6.84905">
        <ele>1874.1</ele>
        <time>2021-03-26T08:04:56Z</time>
      </trkpt>
      <trkpt lat="45.63276" lon="6.84906">
        <ele>1874.2</ele>
        <time>2021-03-26T08:04:57Z</time>
      </trkpt>
      <trkpt lat="45.63277" lon="6.84906">
        <ele>1874.2</ele>
        <time>2021-03-26T08:04:58Z</time>
      </trkpt>
      <trkpt lat="45.63278" lon="6.84906">
        <ele>1874.3</ele>
        <time>2021-03-26T08:04:59Z</time>
      </trkpt>
      <trkpt lat="45.63279" lon="6.84906">
        <ele>1874.3</ele>
        <time>2021-03-26T08:05:00Z</time>
      </trkpt>
      <trkpt lat="45.6328" lon="6.84907">
        <ele>1874.4</ele>
        <time>2021-03-26T08:05:01Z</time>
      </trkpt>
      <trkpt lat="45.63281" lon="6.84907">
        <ele>1874.4</ele>
        <time>2021-03-26T08:05:02Z</time>
      </trkpt>
      <trkpt lat="45.63282" lon="6.84908">
        <ele>1874.5</ele>
        <time>2021-03-26T08:05:03Z</time>
      </trkpt>
      <trkpt lat="45.63283" lon="6.84908">
        <ele>1874.6</ele>
        <time>2021-03-26T08:05:04Z</time>
      </trkpt>
      <trkpt lat="45.63285" lon="6.84907">
        <ele>1874.6</ele>
        <time>2021-03-26T08:05:05Z</time>
      </trkpt>
      <trkpt lat="45.63286" lon="6.84907">
        <ele>1874.7</ele>
        <time>2021-03-26T08:05:06Z</time>
      </trkpt>
      <trkpt lat="45.63288" lon="6.84906">
        <ele>1874.8</ele>
        <time>2021-03-26T08:05:07Z</time>
      </trkpt>
      <trkpt lat="45.63289" lon="6.84905">
        <ele>1874.9</ele>
        <time>2021-03-26T08:05:08Z</time>
      </trkpt>
      <trkpt lat="45.63291" lon="6.84904">
        <ele>1875</ele>
        <time>2021-03-26T08:05:09Z</time>
      </trkpt>
      <trkpt lat="45.63292" lon="6.84904">
        <ele>1875.1</ele>
        <time>2021-03-26T08:05:10Z</time>
      </trkpt>
      <trkpt lat="45.63294" lon="6.84904">
        <ele>1875.1</ele>
        <time>2021-03-26T08:05:11Z</time>
      </trkpt>
      <trkpt lat="45.63294" lon="6.84904">
        <ele>1875.2</ele>
        <time>2021-03-26T08:05:12Z</time>
      </trkpt>
      <trkpt lat="45.63296" lon="6.84904">
        <ele>1875.2</ele>
        <time>2021-03-26T08:05:13Z</time>
      </trkpt>
      <trkpt lat="45.63296" lon="6.84904">
        <ele>1875.3</ele>
        <time>2021-03-26T08:05:14Z</time>
      </trkpt>
      <trkpt lat="45.63297" lon="6.84905">
        <ele>1875.3</ele>
        <time>2021-03-26T08:05:15Z</time>
      </trkpt>
      <trkpt lat="45.63298" lon="6.84905">
        <ele>1875.3</ele>
        <time>2021-03-26T08:05:16Z</time>
      </trkpt>
      <trkpt lat="45.63299" lon="6.84905">
        <ele>1875.4</ele>
        <time>2021-03-26T08:05:17Z</time>
      </trkpt>
      <trkpt lat="45.63299" lon="6.84905">
        <ele>1875.4</ele>
        <time>2021-03-26T08:05:18Z</time>
      </trkpt>
      <trkpt lat="45.633" lon="6.84906">
        <ele>1875.5</ele>
        <time>2021-03-26T08:05:19Z</time>
      </trkpt>
      <trkpt lat="45.63301" lon="6.84906">
        <ele>1875.5</ele>
        <time>2021-03-26T08:05:20Z</time>
      </trkpt>
      <trkpt lat="45.63301" lon="6.84906">
        <ele>1875.5</ele>
        <time>2021-03-26T08:05:21Z</time>
      </trkpt>
      <trkpt lat="45.63302" lon="6.84907">
        <ele>1875.6</ele>
        <time>2021-03-26T08:05:22Z</time>
      </trkpt>
      <trkpt lat="45.63303" lon="6.84907">
        <ele>1875.6</ele>
        <time>2021-03-26T08:05:23Z</time>
      </trkpt>
      <trkpt lat="45.63304" lon="6.84907">
        <ele>1875.7</ele>
        <time>2021-03-26T08:06:10Z</time>
      </trkpt>
      <trkpt lat="45.63304" lon="6.84907">
        <ele>1875.7</ele>
        <time>2021-03-26T08:06:11Z</time>
      </trkpt>
      <trkpt lat="45.63305" lon="6.84908">
        <ele>1875.7</ele>
        <time>2021-03-26T08:06:12Z</time>
      </trkpt>
      <trkpt lat="45.63307" lon="6.84908">
        <ele>1875.9</ele>
        <time>2021-03-26T08:06:13Z</time>
      </trkpt>
      <trkpt lat="45.63308" lon="6.84908">
        <ele>1875.9</ele>
        <time>2021-03-26T08:06:14Z</time>
      </trkpt>
      <trkpt lat="45.63309" lon="6.84908">
        <ele>1875.9</ele>
        <time>2021-03-26T08:06:15Z</time>
      </trkpt>
      <trkpt lat="45.6331" lon="6.84908">
        <ele>1876</ele>
        <time>2021-03-26T08:06:16Z</time>
      </trkpt>
      <trkpt lat="45.63312" lon="6.84908">
        <ele>1876.1</ele>
        <time>2021-03-26T08:06:17Z</time>
      </trkpt>
      <trkpt lat="45.63313" lon="6.84907">
        <ele>1876.2</ele>
        <time>2021-03-26T08:06:18Z</time>
      </trkpt>
      <trkpt lat="45.63315" lon="6.84907">
        <ele>1876.3</ele>
        <time>2021-03-26T08:06:19Z</time>
      </trkpt>
      <trkpt lat="45.63317" lon="6.84906">
        <ele>1876.4</ele>
        <time>2021-03-26T08:06:20Z</time>
      </trkpt>
      <trkpt lat="45.63318" lon="6.84906">
        <ele>1876.5</ele>
        <time>2021-03-26T08:06:21Z</time>
      </trkpt>
      <trkpt lat="45.63319" lon="6.84905">
        <ele>1876.5</ele>
        <time>2021-03-26T08:06:22Z</time>
      </trkpt>
      <trkpt lat="45.6332" lon="6.84905">
        <ele>1876.6</ele>
        <time>2021-03-26T08:06:23Z</time>
      </trkpt>
      <trkpt lat="45.63322" lon="6.84904">
        <ele>1876.7</ele>
        <time>2021-03-26T08:06:24Z</time>
      </trkpt>
      <trkpt lat="45.63324" lon="6.84904">
        <ele>1876.8</ele>
        <time>2021-03-26T08:06:25Z</time>
      </trkpt>
      <trkpt lat="45.63325" lon="6.84903">
        <ele>1876.8</ele>
        <time>2021-03-26T08:06:26Z</time>
      </trkpt>
      <trkpt lat="45.63325" lon="6.84903">
        <ele>1876.9</ele>
        <time>2021-03-26T08:06:27Z</time>
      </trkpt>
      <trkpt lat="45.63327" lon="6.84902">
        <ele>1877</ele>
        <time>2021-03-26T08:06:28Z</time>
      </trkpt>
      <trkpt lat="45.63328" lon="6.84901">
        <ele>1877</ele>
        <time>2021-03-26T08:06:29Z</time>
      </trkpt>
      <trkpt lat="45.63329" lon="6.84901">
        <ele>1877.1</ele>
        <time>2021-03-26T08:06:30Z</time>
      </trkpt>
      <trkpt lat="45.63331" lon="6.849">
        <ele>1877.2</ele>
        <time>2021-03-26T08:06:31Z</time>
      </trkpt>
      <trkpt lat="45.63333" lon="6.84899">
        <ele>1877.3</ele>
        <time>2021-03-26T08:06:32Z</time>
      </trkpt>
      <trkpt lat="45.63334" lon="6.84899">
        <ele>1877.3</ele>
        <time>2021-03-26T08:06:33Z</time>
      </trkpt>
      <trkpt lat="45.63334" lon="6.84899">
        <ele>1877.4</ele>
        <time>2021-03-26T08:06:34Z</time>
      </trkpt>
      <trkpt lat="45.63336" lon="6.84898">
        <ele>1877.5</ele>
        <time>2021-03-26T08:06:35Z</time>
      </trkpt>
      <trkpt lat="45.63337" lon="6.84898">
        <ele>1877.5</ele>
        <time>2021-03-26T08:06:36Z</time>
      </trkpt>
      <trkpt lat="45.63339" lon="6.84898">
        <ele>1877.6</ele>
        <time>2021-03-26T08:06:37Z</time>
      </trkpt>
      <trkpt lat="45.6334" lon="6.84898">
        <ele>1877.7</ele>
        <time>2021-03-26T08:06:38Z</time>
      </trkpt>
      <trkpt lat="45.63341" lon="6.84898">
        <ele>1877.7</ele>
        <time>2021-03-26T08:06:39Z</time>
      </trkpt>
      <trkpt lat="45.63342" lon="6.84899">
        <ele>1877.8</ele>
        <time>2021-03-26T08:06:40Z</time>
      </trkpt>
      <trkpt lat="45.63344" lon="6.84899">
        <ele>1877.9</ele>
        <time>2021-03-26T08:06:41Z</time>
      </trkpt>
      <trkpt lat="45.63345" lon="6.849">
        <ele>1877.9</ele>
        <time>2021-03-26T08:06:42Z</time>
      </trkpt>
      <trkpt lat="45.63347" lon="6.849">
        <ele>1878</ele>
        <time>2021-03-26T08:06:43Z</time>
      </trkpt>
      <trkpt lat="45.63348" lon="6.84901">
        <ele>1878.1</ele>
        <time>2021-03-26T08:06:44Z</time>
      </trkpt>
      <trkpt lat="45.63349" lon="6.84901">
        <ele>1878.2</ele>
        <time>2021-03-26T08:06:45Z</time>
      </trkpt>
      <trkpt lat="45.63351" lon="6.84901">
        <ele>1878.2</ele>
        <time>2021-03-26T08:06:46Z</time>
      </trkpt>
      <trkpt lat="45.63352" lon="6.84901">
        <ele>1878.3</ele>
        <time>2021-03-26T08:06:47Z</time>
      </trkpt>
      <trkpt lat="45.63354" lon="6.84902">
        <ele>1878.4</ele>
        <time>2021-03-26T08:06:48Z</time>
      </trkpt>
      <trkpt lat="45.63355" lon="6.84903">
        <ele>1878.5</ele>
        <time>2021-03-26T08:06:49Z</time>
      </trkpt>
      <trkpt lat="45.63357" lon="6.84903">
        <ele>1878.6</ele>
        <time>2021-03-26T08:06:50Z</time>
      </trkpt>
      <trkpt lat="45.63358" lon="6.84904">
        <ele>1878.6</ele>
        <time>2021-03-26T08:06:51Z</time>
      </trkpt>
      <trkpt lat="45.63359" lon="6.84904">
        <ele>1878.7</ele>
        <time>2021-03-26T08:06:52Z</time>
      </trkpt>
      <trkpt lat="45.63361" lon="6.84904">
        <ele>1878.8</ele>
        <time>2021-03-26T08:06:53Z</time>
      </trkpt>
      <trkpt lat="45.63362" lon="6.84905">
        <ele>1878.8</ele>
        <time>2021-03-26T08:06:54Z</time>
      </trkpt>
      <trkpt lat="45.63363" lon="6.84905">
        <ele>1878.9</ele>
        <time>2021-03-26T08:06:55Z</time>
      </trkpt>
      <trkpt lat="45.63364" lon="6.84905">
        <ele>1879</ele>
        <time>2021-03-26T08:06:56Z</time>
      </trkpt>
      <trkpt lat="45.63365" lon="6.84906">
        <ele>1879</ele>
        <time>2021-03-26T08:06:57Z</time>
      </trkpt>
      <trkpt lat="45.63367" lon="6.84906">
        <ele>1879.1</ele>
        <time>2021-03-26T08:06:58Z</time>
      </trkpt>
      <trkpt lat="45.63368" lon="6.84907">
        <ele>1879.1</ele>
        <time>2021-03-26T08:06:59Z</time>
      </trkpt>
      <trkpt lat="45.63369" lon="6.84907">
        <ele>1879.2</ele>
        <time>2021-03-26T08:07:00Z</time>
      </trkpt>
      <trkpt lat="45.6337" lon="6.84908">
        <ele>1879.3</ele>
        <time>2021-03-26T08:07:01Z</time>
      </trkpt>
      <trkpt lat="45.63371" lon="6.84908">
        <ele>1879.3</ele>
        <time>2021-03-26T08:07:02Z</time>
      </trkpt>
      <trkpt lat="45.63372" lon="6.84909">
        <ele>1879.4</ele>
        <time>2021-03-26T08:07:03Z</time>
      </trkpt>
      <trkpt lat="45.63373" lon="6.84909">
        <ele>1879.5</ele>
        <time>2021-03-26T08:07:04Z</time>
      </trkpt>
      <trkpt lat="45.63374" lon="6.8491">
        <ele>1879.5</ele>
        <time>2021-03-26T08:07:05Z</time>
      </trkpt>
      <trkpt lat="45.63375" lon="6.8491">
        <ele>1879.6</ele>
        <time>2021-03-26T08:07:06Z</time>
      </trkpt>
      <trkpt lat="45.63377" lon="6.84911">
        <ele>1879.7</ele>
        <time>2021-03-26T08:07:07Z</time>
      </trkpt>
      <trkpt lat="45.63378" lon="6.84911">
        <ele>1879.7</ele>
        <time>2021-03-26T08:07:08Z</time>
      </trkpt>
      <trkpt lat="45.6338" lon="6.8491">
        <ele>1879.8</ele>
        <time>2021-03-26T08:07:09Z</time>
      </trkpt>
      <trkpt lat="45.63381" lon="6.8491">
        <ele>1879.9</ele>
        <time>2021-03-26T08:07:10Z</time>
      </trkpt>
      <trkpt lat="45.63382" lon="6.8491">
        <ele>1879.9</ele>
        <time>2021-03-26T08:07:11Z</time>
      </trkpt>
      <trkpt lat="45.63383" lon="6.84909">
        <ele>1880</ele>
        <time>2021-03-26T08:07:12Z</time>
      </trkpt>
      <trkpt lat="45.63384" lon="6.84909">
        <ele>1880</ele>
        <time>2021-03-26T08:07:13Z</time>
      </trkpt>
      <trkpt lat="45.63385" lon="6.84909">
        <ele>1880.1</ele>
        <time>2021-03-26T08:07:14Z</time>
      </trkpt>
      <trkpt lat="45.63387" lon="6.84909">
        <ele>1880.2</ele>
        <time>2021-03-26T08:07:15Z</time>
      </trkpt>
      <trkpt lat="45.63388" lon="6.84909">
        <ele>1880.2</ele>
        <time>2021-03-26T08:07:16Z</time>
      </trkpt>
      <trkpt lat="45.63389" lon="6.84909">
        <ele>1880.3</ele>
        <time>2021-03-26T08:07:17Z</time>
      </trkpt>
      <trkpt lat="45.6339" lon="6.84909">
        <ele>1880.4</ele>
        <time>2021-03-26T08:07:18Z</time>
      </trkpt>
      <trkpt lat="45.63391" lon="6.84909">
        <ele>1880.4</ele>
        <time>2021-03-26T08:07:19Z</time>
      </trkpt>
      <trkpt lat="45.63392" lon="6.84909">
        <ele>1880.5</ele>
        <time>2021-03-26T08:07:20Z</time>
      </trkpt>
      <trkpt lat="45.63394" lon="6.84909">
        <ele>1880.6</ele>
        <time>2021-03-26T08:07:21Z</time>
      </trkpt>
      <trkpt lat="45.63394" lon="6.84909">
        <ele>1880.6</ele>
        <time>2021-03-26T08:07:22Z</time>
      </trkpt>
      <trkpt lat="45.63394" lon="6.84909">
        <ele>1880.6</ele>
        <time>2021-03-26T08:07:23Z</time>
      </trkpt>
      <trkpt lat="45.63395" lon="6.84909">
        <ele>1880.6</ele>
        <time>2021-03-26T08:07:24Z</time>
      </trkpt>
      <trkpt lat="45.63395" lon="6.84909">
        <ele>1880.6</ele>
        <time>2021-03-26T08:07:25Z</time>
      </trkpt>
      <trkpt lat="45.63395" lon="6.84909">
        <ele>1880.7</ele>
        <time>2021-03-26T08:07:26Z</time>
      </trkpt>
      <trkpt lat="45.63396" lon="6.84909">
        <ele>1880.7</ele>
        <time>2021-03-26T08:07:27Z</time>
      </trkpt>
      <trkpt lat="45.63397" lon="6.84909">
        <ele>1880.8</ele>
        <time>2021-03-26T08:07:28Z</time>
      </trkpt>
      <trkpt lat="45.63398" lon="6.84909">
        <ele>1880.8</ele>
        <time>2021-03-26T08:07:29Z</time>
      </trkpt>
      <trkpt lat="45.63399" lon="6.84909">
        <ele>1880.9</ele>
        <time>2021-03-26T08:07:30Z</time>
      </trkpt>
      <trkpt lat="45.63401" lon="6.8491">
        <ele>1881</ele>
        <time>2021-03-26T08:07:31Z</time>
      </trkpt>
      <trkpt lat="45.63402" lon="6.8491">
        <ele>1881</ele>
        <time>2021-03-26T08:07:32Z</time>
      </trkpt>
      <trkpt lat="45.63404" lon="6.8491">
        <ele>1881.2</ele>
        <time>2021-03-26T08:07:33Z</time>
      </trkpt>
      <trkpt lat="45.63405" lon="6.84911">
        <ele>1881.2</ele>
        <time>2021-03-26T08:07:34Z</time>
      </trkpt>
      <trkpt lat="45.63406" lon="6.84911">
        <ele>1881.3</ele>
        <time>2021-03-26T08:07:35Z</time>
      </trkpt>
      <trkpt lat="45.63408" lon="6.84911">
        <ele>1881.4</ele>
        <time>2021-03-26T08:07:36Z</time>
      </trkpt>
      <trkpt lat="45.63409" lon="6.84911">
        <ele>1881.4</ele>
        <time>2021-03-26T08:07:37Z</time>
      </trkpt>
      <trkpt lat="45.6341" lon="6.84911">
        <ele>1881.5</ele>
        <time>2021-03-26T08:07:38Z</time>
      </trkpt>
      <trkpt lat="45.63412" lon="6.84912">
        <ele>1881.6</ele>
        <time>2021-03-26T08:07:39Z</time>
      </trkpt>
      <trkpt lat="45.63413" lon="6.84912">
        <ele>1881.6</ele>
        <time>2021-03-26T08:07:40Z</time>
      </trkpt>
      <trkpt lat="45.63414" lon="6.84912">
        <ele>1881.7</ele>
        <time>2021-03-26T08:07:41Z</time>
      </trkpt>
      <trkpt lat="45.63415" lon="6.84912">
        <ele>1881.7</ele>
        <time>2021-03-26T08:07:42Z</time>
      </trkpt>
      <trkpt lat="45.63416" lon="6.84912">
        <ele>1881.8</ele>
        <time>2021-03-26T08:07:43Z</time>
      </trkpt>
      <trkpt lat="45.63417" lon="6.84912">
        <ele>1881.9</ele>
        <time>2021-03-26T08:07:44Z</time>
      </trkpt>
      <trkpt lat="45.63418" lon="6.84912">
        <ele>1881.9</ele>
        <time>2021-03-26T08:07:45Z</time>
      </trkpt>
      <trkpt lat="45.63419" lon="6.84912">
        <ele>1882</ele>
        <time>2021-03-26T08:07:46Z</time>
      </trkpt>
      <trkpt lat="45.6342" lon="6.84912">
        <ele>1882</ele>
        <time>2021-03-26T08:07:47Z</time>
      </trkpt>
      <trkpt lat="45.63421" lon="6.84912">
        <ele>1882.1</ele>
        <time>2021-03-26T08:07:48Z</time>
      </trkpt>
      <trkpt lat="45.63422" lon="6.84912">
        <ele>1882.1</ele>
        <time>2021-03-26T08:07:49Z</time>
      </trkpt>
      <trkpt lat="45.63424" lon="6.84913">
        <ele>1882.2</ele>
        <time>2021-03-26T08:07:50Z</time>
      </trkpt>
      <trkpt lat="45.63426" lon="6.84913">
        <ele>1882.3</ele>
        <time>2021-03-26T08:07:51Z</time>
      </trkpt>
      <trkpt lat="45.63426" lon="6.84914">
        <ele>1882.4</ele>
        <time>2021-03-26T08:07:52Z</time>
      </trkpt>
      <trkpt lat="45.63427" lon="6.84914">
        <ele>1882.4</ele>
        <time>2021-03-26T08:07:53Z</time>
      </trkpt>
      <trkpt lat="45.63428" lon="6.84914">
        <ele>1882.5</ele>
        <time>2021-03-26T08:07:54Z</time>
      </trkpt>
      <trkpt lat="45.63429" lon="6.84914">
        <ele>1882.5</ele>
        <time>2021-03-26T08:07:55Z</time>
      </trkpt>
      <trkpt lat="45.6343" lon="6.84914">
        <ele>1882.6</ele>
        <time>2021-03-26T08:07:56Z</time>
      </trkpt>
      <trkpt lat="45.63432" lon="6.84915">
        <ele>1882.7</ele>
        <time>2021-03-26T08:07:57Z</time>
      </trkpt>
      <trkpt lat="45.63433" lon="6.84915">
        <ele>1882.7</ele>
        <time>2021-03-26T08:07:58Z</time>
      </trkpt>
      <trkpt lat="45.63434" lon="6.84916">
        <ele>1882.8</ele>
        <time>2021-03-26T08:07:59Z</time>
      </trkpt>
      <trkpt lat="45.63435" lon="6.84918">
        <ele>1882.9</ele>
        <time>2021-03-26T08:08:00Z</time>
      </trkpt>
      <trkpt lat="45.63436" lon="6.84918">
        <ele>1883</ele>
        <time>2021-03-26T08:08:01Z</time>
      </trkpt>
      <trkpt lat="45.63437" lon="6.84919">
        <ele>1883</ele>
        <time>2021-03-26T08:08:02Z</time>
      </trkpt>
      <trkpt lat="45.63438" lon="6.8492">
        <ele>1883.1</ele>
        <time>2021-03-26T08:08:03Z</time>
      </trkpt>
      <trkpt lat="45.63438" lon="6.8492">
        <ele>1883.1</ele>
        <time>2021-03-26T08:08:04Z</time>
      </trkpt>
      <trkpt lat="45.63439" lon="6.84921">
        <ele>1883.2</ele>
        <time>2021-03-26T08:08:05Z</time>
      </trkpt>
      <trkpt lat="45.6344" lon="6.84922">
        <ele>1883.2</ele>
        <time>2021-03-26T08:08:06Z</time>
      </trkpt>
      <trkpt lat="45.63441" lon="6.84923">
        <ele>1883.3</ele>
        <time>2021-03-26T08:08:07Z</time>
      </trkpt>
      <trkpt lat="45.63442" lon="6.84924">
        <ele>1883.4</ele>
        <time>2021-03-26T08:08:08Z</time>
      </trkpt>
      <trkpt lat="45.63443" lon="6.84925">
        <ele>1883.4</ele>
        <time>2021-03-26T08:08:09Z</time>
      </trkpt>
      <trkpt lat="45.63445" lon="6.84926">
        <ele>1883.5</ele>
        <time>2021-03-26T08:08:10Z</time>
      </trkpt>
      <trkpt lat="45.63446" lon="6.84927">
        <ele>1883.6</ele>
        <time>2021-03-26T08:08:11Z</time>
      </trkpt>
      <trkpt lat="45.63447" lon="6.84927">
        <ele>1883.7</ele>
        <time>2021-03-26T08:08:12Z</time>
      </trkpt>
      <trkpt lat="45.63449" lon="6.84929">
        <ele>1883.8</ele>
        <time>2021-03-26T08:08:13Z</time>
      </trkpt>
      <trkpt lat="45.6345" lon="6.84929">
        <ele>1883.9</ele>
        <time>2021-03-26T08:08:14Z</time>
      </trkpt>
      <trkpt lat="45.63451" lon="6.8493">
        <ele>1883.9</ele>
        <time>2021-03-26T08:08:15Z</time>
      </trkpt>
      <trkpt lat="45.63453" lon="6.84931">
        <ele>1884.1</ele>
        <time>2021-03-26T08:08:16Z</time>
      </trkpt>
      <trkpt lat="45.63454" lon="6.84932">
        <ele>1884.1</ele>
        <time>2021-03-26T08:08:17Z</time>
      </trkpt>
      <trkpt lat="45.63455" lon="6.84933">
        <ele>1884.2</ele>
        <time>2021-03-26T08:08:18Z</time>
      </trkpt>
      <trkpt lat="45.63457" lon="6.84934">
        <ele>1884.3</ele>
        <time>2021-03-26T08:08:19Z</time>
      </trkpt>
      <trkpt lat="45.63457" lon="6.84935">
        <ele>1884.3</ele>
        <time>2021-03-26T08:08:20Z</time>
      </trkpt>
      <trkpt lat="45.63458" lon="6.84935">
        <ele>1884.4</ele>
        <time>2021-03-26T08:08:21Z</time>
      </trkpt>
      <trkpt lat="45.63459" lon="6.84936">
        <ele>1884.5</ele>
        <time>2021-03-26T08:08:22Z</time>
      </trkpt>
      <trkpt lat="45.6346" lon="6.84937">
        <ele>1884.5</ele>
        <time>2021-03-26T08:08:23Z</time>
      </trkpt>
      <trkpt lat="45.6346" lon="6.84938">
        <ele>1884.6</ele>
        <time>2021-03-26T08:08:24Z</time>
      </trkpt>
      <trkpt lat="45.6346" lon="6.84938">
        <ele>1884.6</ele>
        <time>2021-03-26T08:08:25Z</time>
      </trkpt>
      <trkpt lat="45.6346" lon="6.84938">
        <ele>1884.6</ele>
        <time>2021-03-26T08:08:26Z</time>
      </trkpt>
      <trkpt lat="45.6346" lon="6.84938">
        <ele>1884.6</ele>
        <time>2021-03-26T08:08:27Z</time>
      </trkpt>
      <trkpt lat="45.6346" lon="6.84938">
        <ele>1884.6</ele>
        <time>2021-03-26T08:08:28Z</time>
      </trkpt>
      <trkpt lat="45.6346" lon="6.84938">
        <ele>1884.6</ele>
        <time>2021-03-26T08:08:29Z</time>
      </trkpt>
      <trkpt lat="45.6346" lon="6.84938">
        <ele>1884.6</ele>
        <time>2021-03-26T08:08:30Z</time>
      </trkpt>
      <trkpt lat="45.6346" lon="6.84938">
        <ele>1884.6</ele>
        <time>2021-03-26T08:08:31Z</time>
      </trkpt>
      <trkpt lat="45.6346" lon="6.84938">
        <ele>1884.6</ele>
        <time>2021-03-26T08:08:32Z</time>
      </trkpt>
      <trkpt lat="45.6346" lon="6.84938">
        <ele>1884.6</ele>
        <time>2021-03-26T08:08:33Z</time>
      </trkpt>
      <trkpt lat="45.6346" lon="6.84938">
        <ele>1884.6</ele>
        <time>2021-03-26T08:08:34Z</time>
      </trkpt>
      <trkpt lat="45.63465" lon="6.84944">
        <ele>1884.9</ele>
        <time>2021-03-26T08:09:56Z</time>
      </trkpt>
      <trkpt lat="45.63464" lon="6.84945">
        <ele>1885</ele>
        <time>2021-03-26T08:09:57Z</time>
      </trkpt>
      <trkpt lat="45.63465" lon="6.84946">
        <ele>1885</ele>
        <time>2021-03-26T08:09:58Z</time>
      </trkpt>
      <trkpt lat="45.63465" lon="6.84947">
        <ele>1885.1</ele>
        <time>2021-03-26T08:09:59Z</time>
      </trkpt>
      <trkpt lat="45.63466" lon="6.84949">
        <ele>1885.2</ele>
        <time>2021-03-26T08:10:00Z</time>
      </trkpt>
      <trkpt lat="45.63466" lon="6.8495">
        <ele>1885.2</ele>
        <time>2021-03-26T08:10:01Z</time>
      </trkpt>
      <trkpt lat="45.63466" lon="6.8495">
        <ele>1885.2</ele>
        <time>2021-03-26T08:10:02Z</time>
      </trkpt>
      <trkpt lat="45.63467" lon="6.84951">
        <ele>1885.3</ele>
        <time>2021-03-26T08:10:03Z</time>
      </trkpt>
      <trkpt lat="45.63468" lon="6.84952">
        <ele>1885.3</ele>
        <time>2021-03-26T08:10:04Z</time>
      </trkpt>
      <trkpt lat="45.63468" lon="6.84953">
        <ele>1885.4</ele>
        <time>2021-03-26T08:10:05Z</time>
      </trkpt>
      <trkpt lat="45.63469" lon="6.84954">
        <ele>1885.4</ele>
        <time>2021-03-26T08:10:06Z</time>
      </trkpt>
      <trkpt lat="45.6347" lon="6.84956">
        <ele>1885.5</ele>
        <time>2021-03-26T08:10:07Z</time>
      </trkpt>
      <trkpt lat="45.63471" lon="6.84957">
        <ele>1885.6</ele>
        <time>2021-03-26T08:10:08Z</time>
      </trkpt>
      <trkpt lat="45.63471" lon="6.84957">
        <ele>1885.6</ele>
        <time>2021-03-26T08:10:09Z</time>
      </trkpt>
      <trkpt lat="45.63471" lon="6.84958">
        <ele>1885.7</ele>
        <time>2021-03-26T08:10:10Z</time>
      </trkpt>
      <trkpt lat="45.63472" lon="6.8496">
        <ele>1885.7</ele>
        <time>2021-03-26T08:10:11Z</time>
      </trkpt>
      <trkpt lat="45.63473" lon="6.84962">
        <ele>1885.8</ele>
        <time>2021-03-26T08:10:12Z</time>
      </trkpt>
      <trkpt lat="45.63473" lon="6.84964">
        <ele>1885.9</ele>
        <time>2021-03-26T08:10:13Z</time>
      </trkpt>
      <trkpt lat="45.63474" lon="6.84966">
        <ele>1886</ele>
        <time>2021-03-26T08:10:14Z</time>
      </trkpt>
      <trkpt lat="45.63475" lon="6.84967">
        <ele>1886.1</ele>
        <time>2021-03-26T08:10:15Z</time>
      </trkpt>
      <trkpt lat="45.63476" lon="6.84969">
        <ele>1886.2</ele>
        <time>2021-03-26T08:10:16Z</time>
      </trkpt>
      <trkpt lat="45.63477" lon="6.84971">
        <ele>1886.2</ele>
        <time>2021-03-26T08:10:17Z</time>
      </trkpt>
      <trkpt lat="45.63477" lon="6.84974">
        <ele>1886.3</ele>
        <time>2021-03-26T08:10:18Z</time>
      </trkpt>
      <trkpt lat="45.63478" lon="6.84976">
        <ele>1886.4</ele>
        <time>2021-03-26T08:10:19Z</time>
      </trkpt>
      <trkpt lat="45.63478" lon="6.84978">
        <ele>1886.5</ele>
        <time>2021-03-26T08:10:20Z</time>
      </trkpt>
      <trkpt lat="45.63479" lon="6.8498">
        <ele>1886.6</ele>
        <time>2021-03-26T08:10:21Z</time>
      </trkpt>
      <trkpt lat="45.6348" lon="6.84982">
        <ele>1886.7</ele>
        <time>2021-03-26T08:10:22Z</time>
      </trkpt>
      <trkpt lat="45.63481" lon="6.84984">
        <ele>1886.8</ele>
        <time>2021-03-26T08:10:23Z</time>
      </trkpt>
      <trkpt lat="45.63482" lon="6.84986">
        <ele>1886.9</ele>
        <time>2021-03-26T08:10:24Z</time>
      </trkpt>
      <trkpt lat="45.63483" lon="6.84987">
        <ele>1886.9</ele>
        <time>2021-03-26T08:10:25Z</time>
      </trkpt>
      <trkpt lat="45.63484" lon="6.84989">
        <ele>1887</ele>
        <time>2021-03-26T08:10:26Z</time>
      </trkpt>
      <trkpt lat="45.63485" lon="6.84991">
        <ele>1887.1</ele>
        <time>2021-03-26T08:10:27Z</time>
      </trkpt>
      <trkpt lat="45.63486" lon="6.84993">
        <ele>1887.2</ele>
        <time>2021-03-26T08:10:28Z</time>
      </trkpt>
      <trkpt lat="45.63487" lon="6.84994">
        <ele>1887.3</ele>
        <time>2021-03-26T08:10:29Z</time>
      </trkpt>
      <trkpt lat="45.63488" lon="6.84996">
        <ele>1887.3</ele>
        <time>2021-03-26T08:10:30Z</time>
      </trkpt>
      <trkpt lat="45.63489" lon="6.84997">
        <ele>1887.4</ele>
        <time>2021-03-26T08:10:31Z</time>
      </trkpt>
      <trkpt lat="45.63491" lon="6.85">
        <ele>1887.5</ele>
        <time>2021-03-26T08:10:32Z</time>
      </trkpt>
      <trkpt lat="45.63492" lon="6.85">
        <ele>1887.6</ele>
        <time>2021-03-26T08:10:33Z</time>
      </trkpt>
      <trkpt lat="45.63492" lon="6.85001">
        <ele>1887.6</ele>
        <time>2021-03-26T08:10:34Z</time>
      </trkpt>
      <trkpt lat="45.63494" lon="6.85003">
        <ele>1887.7</ele>
        <time>2021-03-26T08:10:35Z</time>
      </trkpt>
      <trkpt lat="45.63495" lon="6.85004">
        <ele>1887.8</ele>
        <time>2021-03-26T08:10:36Z</time>
      </trkpt>
      <trkpt lat="45.63496" lon="6.85005">
        <ele>1887.9</ele>
        <time>2021-03-26T08:10:37Z</time>
      </trkpt>
      <trkpt lat="45.63498" lon="6.85006">
        <ele>1887.9</ele>
        <time>2021-03-26T08:10:38Z</time>
      </trkpt>
      <trkpt lat="45.635" lon="6.85007">
        <ele>1888</ele>
        <time>2021-03-26T08:10:39Z</time>
      </trkpt>
      <trkpt lat="45.63501" lon="6.85008">
        <ele>1888.1</ele>
        <time>2021-03-26T08:10:40Z</time>
      </trkpt>
      <trkpt lat="45.63503" lon="6.85009">
        <ele>1888.2</ele>
        <time>2021-03-26T08:10:41Z</time>
      </trkpt>
      <trkpt lat="45.63504" lon="6.8501">
        <ele>1888.3</ele>
        <time>2021-03-26T08:10:42Z</time>
      </trkpt>
      <trkpt lat="45.63505" lon="6.85011">
        <ele>1888.3</ele>
        <time>2021-03-26T08:10:43Z</time>
      </trkpt>
      <trkpt lat="45.63507" lon="6.85012">
        <ele>1888.4</ele>
        <time>2021-03-26T08:10:44Z</time>
      </trkpt>
      <trkpt lat="45.63509" lon="6.85013">
        <ele>1888.5</ele>
        <time>2021-03-26T08:10:45Z</time>
      </trkpt>
      <trkpt lat="45.6351" lon="6.85013">
        <ele>1888.6</ele>
        <time>2021-03-26T08:10:46Z</time>
      </trkpt>
      <trkpt lat="45.63511" lon="6.85014">
        <ele>1888.6</ele>
        <time>2021-03-26T08:10:47Z</time>
      </trkpt>
      <trkpt lat="45.63512" lon="6.85014">
        <ele>1888.7</ele>
        <time>2021-03-26T08:10:48Z</time>
      </trkpt>
      <trkpt lat="45.63514" lon="6.85014">
        <ele>1888.7</ele>
        <time>2021-03-26T08:10:49Z</time>
      </trkpt>
      <trkpt lat="45.63516" lon="6.85015">
        <ele>1888.8</ele>
        <time>2021-03-26T08:10:50Z</time>
      </trkpt>
      <trkpt lat="45.63517" lon="6.85015">
        <ele>1888.9</ele>
        <time>2021-03-26T08:10:51Z</time>
      </trkpt>
      <trkpt lat="45.63518" lon="6.85016">
        <ele>1888.9</ele>
        <time>2021-03-26T08:10:52Z</time>
      </trkpt>
      <trkpt lat="45.63519" lon="6.85016">
        <ele>1889</ele>
        <time>2021-03-26T08:10:53Z</time>
      </trkpt>
      <trkpt lat="45.6352" lon="6.85016">
        <ele>1889</ele>
        <time>2021-03-26T08:10:54Z</time>
      </trkpt>
      <trkpt lat="45.63522" lon="6.85016">
        <ele>1889.1</ele>
        <time>2021-03-26T08:10:55Z</time>
      </trkpt>
      <trkpt lat="45.63523" lon="6.85017">
        <ele>1889.2</ele>
        <time>2021-03-26T08:10:56Z</time>
      </trkpt>
      <trkpt lat="45.63525" lon="6.85017">
        <ele>1889.2</ele>
        <time>2021-03-26T08:10:57Z</time>
      </trkpt>
      <trkpt lat="45.63526" lon="6.85018">
        <ele>1889.3</ele>
        <time>2021-03-26T08:10:58Z</time>
      </trkpt>
      <trkpt lat="45.63528" lon="6.85018">
        <ele>1889.4</ele>
        <time>2021-03-26T08:10:59Z</time>
      </trkpt>
      <trkpt lat="45.6353" lon="6.85019">
        <ele>1889.5</ele>
        <time>2021-03-26T08:11:00Z</time>
      </trkpt>
      <trkpt lat="45.63532" lon="6.8502">
        <ele>1889.5</ele>
        <time>2021-03-26T08:11:01Z</time>
      </trkpt>
      <trkpt lat="45.63533" lon="6.8502">
        <ele>1889.6</ele>
        <time>2021-03-26T08:11:02Z</time>
      </trkpt>
      <trkpt lat="45.63534" lon="6.8502">
        <ele>1889.6</ele>
        <time>2021-03-26T08:11:03Z</time>
      </trkpt>
      <trkpt lat="45.63535" lon="6.85021">
        <ele>1889.7</ele>
        <time>2021-03-26T08:11:04Z</time>
      </trkpt>
      <trkpt lat="45.63536" lon="6.85021">
        <ele>1889.7</ele>
        <time>2021-03-26T08:11:05Z</time>
      </trkpt>
      <trkpt lat="45.63537" lon="6.85022">
        <ele>1889.8</ele>
        <time>2021-03-26T08:11:06Z</time>
      </trkpt>
      <trkpt lat="45.63538" lon="6.85022">
        <ele>1889.8</ele>
        <time>2021-03-26T08:11:07Z</time>
      </trkpt>
      <trkpt lat="45.6354" lon="6.85023">
        <ele>1889.9</ele>
        <time>2021-03-26T08:11:08Z</time>
      </trkpt>
      <trkpt lat="45.63542" lon="6.85023">
        <ele>1890</ele>
        <time>2021-03-26T08:11:09Z</time>
      </trkpt>
      <trkpt lat="45.63542" lon="6.85023">
        <ele>1890</ele>
        <time>2021-03-26T08:11:10Z</time>
      </trkpt>
      <trkpt lat="45.63543" lon="6.85024">
        <ele>1890.1</ele>
        <time>2021-03-26T08:11:11Z</time>
      </trkpt>
      <trkpt lat="45.63545" lon="6.85024">
        <ele>1890.1</ele>
        <time>2021-03-26T08:11:12Z</time>
      </trkpt>
      <trkpt lat="45.63546" lon="6.85025">
        <ele>1890.2</ele>
        <time>2021-03-26T08:11:13Z</time>
      </trkpt>
      <trkpt lat="45.63548" lon="6.85025">
        <ele>1890.3</ele>
        <time>2021-03-26T08:11:14Z</time>
      </trkpt>
      <trkpt lat="45.63549" lon="6.85026">
        <ele>1890.3</ele>
        <time>2021-03-26T08:11:15Z</time>
      </trkpt>
      <trkpt lat="45.6355" lon="6.85027">
        <ele>1890.4</ele>
        <time>2021-03-26T08:11:16Z</time>
      </trkpt>
      <trkpt lat="45.63552" lon="6.85028">
        <ele>1890.5</ele>
        <time>2021-03-26T08:11:17Z</time>
      </trkpt>
      <trkpt lat="45.63554" lon="6.85029">
        <ele>1890.5</ele>
        <time>2021-03-26T08:11:18Z</time>
      </trkpt>
      <trkpt lat="45.63554" lon="6.85029">
        <ele>1890.6</ele>
        <time>2021-03-26T08:11:19Z</time>
      </trkpt>
      <trkpt lat="45.63555" lon="6.8503">
        <ele>1890.6</ele>
        <time>2021-03-26T08:11:20Z</time>
      </trkpt>
      <trkpt lat="45.63557" lon="6.85031">
        <ele>1890.7</ele>
        <time>2021-03-26T08:11:21Z</time>
      </trkpt>
      <trkpt lat="45.63558" lon="6.85032">
        <ele>1890.8</ele>
        <time>2021-03-26T08:11:22Z</time>
      </trkpt>
      <trkpt lat="45.63559" lon="6.85032">
        <ele>1890.8</ele>
        <time>2021-03-26T08:11:23Z</time>
      </trkpt>
      <trkpt lat="45.63561" lon="6.85033">
        <ele>1890.9</ele>
        <time>2021-03-26T08:11:24Z</time>
      </trkpt>
      <trkpt lat="45.63562" lon="6.85034">
        <ele>1891</ele>
        <time>2021-03-26T08:11:25Z</time>
      </trkpt>
      <trkpt lat="45.63563" lon="6.85035">
        <ele>1891</ele>
        <time>2021-03-26T08:11:26Z</time>
      </trkpt>
      <trkpt lat="45.63565" lon="6.85035">
        <ele>1891.1</ele>
        <time>2021-03-26T08:11:27Z</time>
      </trkpt>
      <trkpt lat="45.63566" lon="6.85036">
        <ele>1891.2</ele>
        <time>2021-03-26T08:11:28Z</time>
      </trkpt>
      <trkpt lat="45.63568" lon="6.85037">
        <ele>1891.3</ele>
        <time>2021-03-26T08:11:29Z</time>
      </trkpt>
      <trkpt lat="45.63569" lon="6.85037">
        <ele>1891.3</ele>
        <time>2021-03-26T08:11:30Z</time>
      </trkpt>
      <trkpt lat="45.6357" lon="6.85037">
        <ele>1891.4</ele>
        <time>2021-03-26T08:11:31Z</time>
      </trkpt>
      <trkpt lat="45.63571" lon="6.85038">
        <ele>1891.4</ele>
        <time>2021-03-26T08:11:32Z</time>
      </trkpt>
      <trkpt lat="45.63572" lon="6.85038">
        <ele>1891.5</ele>
        <time>2021-03-26T08:11:33Z</time>
      </trkpt>
      <trkpt lat="45.63573" lon="6.85038">
        <ele>1891.5</ele>
        <time>2021-03-26T08:11:34Z</time>
      </trkpt>
      <trkpt lat="45.63575" lon="6.85039">
        <ele>1891.6</ele>
        <time>2021-03-26T08:11:35Z</time>
      </trkpt>
      <trkpt lat="45.63576" lon="6.85039">
        <ele>1891.7</ele>
        <time>2021-03-26T08:11:36Z</time>
      </trkpt>
      <trkpt lat="45.63578" lon="6.8504">
        <ele>1891.7</ele>
        <time>2021-03-26T08:11:37Z</time>
      </trkpt>
      <trkpt lat="45.63579" lon="6.85041">
        <ele>1891.8</ele>
        <time>2021-03-26T08:11:38Z</time>
      </trkpt>
      <trkpt lat="45.63581" lon="6.85041">
        <ele>1891.9</ele>
        <time>2021-03-26T08:11:39Z</time>
      </trkpt>
      <trkpt lat="45.63582" lon="6.85041">
        <ele>1892</ele>
        <time>2021-03-26T08:11:40Z</time>
      </trkpt>
      <trkpt lat="45.63584" lon="6.85041">
        <ele>1892.1</ele>
        <time>2021-03-26T08:11:41Z</time>
      </trkpt>
      <trkpt lat="45.63586" lon="6.8504">
        <ele>1892.1</ele>
        <time>2021-03-26T08:11:42Z</time>
      </trkpt>
      <trkpt lat="45.63587" lon="6.8504">
        <ele>1892.2</ele>
        <time>2021-03-26T08:11:43Z</time>
      </trkpt>
      <trkpt lat="45.63589" lon="6.85039">
        <ele>1892.3</ele>
        <time>2021-03-26T08:11:44Z</time>
      </trkpt>
      <trkpt lat="45.63591" lon="6.85038">
        <ele>1892.4</ele>
        <time>2021-03-26T08:11:45Z</time>
      </trkpt>
      <trkpt lat="45.63592" lon="6.85038">
        <ele>1892.4</ele>
        <time>2021-03-26T08:11:46Z</time>
      </trkpt>
      <trkpt lat="45.63593" lon="6.85037">
        <ele>1892.5</ele>
        <time>2021-03-26T08:11:47Z</time>
      </trkpt>
      <trkpt lat="45.63594" lon="6.85036">
        <ele>1892.5</ele>
        <time>2021-03-26T08:11:48Z</time>
      </trkpt>
      <trkpt lat="45.63595" lon="6.85035">
        <ele>1892.6</ele>
        <time>2021-03-26T08:11:49Z</time>
      </trkpt>
      <trkpt lat="45.63596" lon="6.85035">
        <ele>1892.6</ele>
        <time>2021-03-26T08:11:50Z</time>
      </trkpt>
      <trkpt lat="45.63598" lon="6.85034">
        <ele>1892.7</ele>
        <time>2021-03-26T08:11:51Z</time>
      </trkpt>
      <trkpt lat="45.636" lon="6.85032">
        <ele>1892.8</ele>
        <time>2021-03-26T08:11:52Z</time>
      </trkpt>
      <trkpt lat="45.63601" lon="6.85031">
        <ele>1892.8</ele>
        <time>2021-03-26T08:11:53Z</time>
      </trkpt>
      <trkpt lat="45.63602" lon="6.8503">
        <ele>1892.9</ele>
        <time>2021-03-26T08:11:54Z</time>
      </trkpt>
      <trkpt lat="45.63603" lon="6.85029">
        <ele>1892.9</ele>
        <time>2021-03-26T08:11:55Z</time>
      </trkpt>
      <trkpt lat="45.63605" lon="6.85027">
        <ele>1893</ele>
        <time>2021-03-26T08:11:56Z</time>
      </trkpt>
      <trkpt lat="45.63606" lon="6.85026">
        <ele>1893</ele>
        <time>2021-03-26T08:11:57Z</time>
      </trkpt>
      <trkpt lat="45.63608" lon="6.85024">
        <ele>1893.1</ele>
        <time>2021-03-26T08:11:58Z</time>
      </trkpt>
      <trkpt lat="45.63608" lon="6.85024">
        <ele>1893.2</ele>
        <time>2021-03-26T08:11:59Z</time>
      </trkpt>
      <trkpt lat="45.63609" lon="6.85023">
        <ele>1893.2</ele>
        <time>2021-03-26T08:12:00Z</time>
      </trkpt>
      <trkpt lat="45.63611" lon="6.85021">
        <ele>1893.3</ele>
        <time>2021-03-26T08:12:01Z</time>
      </trkpt>
      <trkpt lat="45.63611" lon="6.8502">
        <ele>1893.3</ele>
        <time>2021-03-26T08:12:02Z</time>
      </trkpt>
      <trkpt lat="45.63612" lon="6.8502">
        <ele>1893.3</ele>
        <time>2021-03-26T08:12:03Z</time>
      </trkpt>
      <trkpt lat="45.63613" lon="6.85018">
        <ele>1893.4</ele>
        <time>2021-03-26T08:12:04Z</time>
      </trkpt>
      <trkpt lat="45.63614" lon="6.85017">
        <ele>1893.4</ele>
        <time>2021-03-26T08:12:05Z</time>
      </trkpt>
      <trkpt lat="45.63615" lon="6.85016">
        <ele>1893.4</ele>
        <time>2021-03-26T08:12:06Z</time>
      </trkpt>
      <trkpt lat="45.63616" lon="6.85014">
        <ele>1893.5</ele>
        <time>2021-03-26T08:12:07Z</time>
      </trkpt>
      <trkpt lat="45.63618" lon="6.85014">
        <ele>1893.5</ele>
        <time>2021-03-26T08:12:08Z</time>
      </trkpt>
      <trkpt lat="45.63619" lon="6.85012">
        <ele>1893.6</ele>
        <time>2021-03-26T08:12:09Z</time>
      </trkpt>
      <trkpt lat="45.63621" lon="6.85011">
        <ele>1893.6</ele>
        <time>2021-03-26T08:12:10Z</time>
      </trkpt>
      <trkpt lat="45.63622" lon="6.8501">
        <ele>1893.7</ele>
        <time>2021-03-26T08:12:11Z</time>
      </trkpt>
      <trkpt lat="45.63623" lon="6.85009">
        <ele>1893.7</ele>
        <time>2021-03-26T08:12:12Z</time>
      </trkpt>
      <trkpt lat="45.63624" lon="6.85007">
        <ele>1893.8</ele>
        <time>2021-03-26T08:12:13Z</time>
      </trkpt>
      <trkpt lat="45.63625" lon="6.85006">
        <ele>1893.8</ele>
        <time>2021-03-26T08:12:14Z</time>
      </trkpt>
      <trkpt lat="45.63626" lon="6.85005">
        <ele>1893.9</ele>
        <time>2021-03-26T08:12:15Z</time>
      </trkpt>
      <trkpt lat="45.63628" lon="6.85004">
        <ele>1893.9</ele>
        <time>2021-03-26T08:12:16Z</time>
      </trkpt>
      <trkpt lat="45.63629" lon="6.85003">
        <ele>1894</ele>
        <time>2021-03-26T08:12:17Z</time>
      </trkpt>
      <trkpt lat="45.63631" lon="6.85001">
        <ele>1894</ele>
        <time>2021-03-26T08:12:18Z</time>
      </trkpt>
      <trkpt lat="45.63632" lon="6.85">
        <ele>1894.1</ele>
        <time>2021-03-26T08:12:19Z</time>
      </trkpt>
      <trkpt lat="45.63632" lon="6.84999">
        <ele>1894.1</ele>
        <time>2021-03-26T08:12:20Z</time>
      </trkpt>
      <trkpt lat="45.63634" lon="6.84998">
        <ele>1894.2</ele>
        <time>2021-03-26T08:12:21Z</time>
      </trkpt>
      <trkpt lat="45.63635" lon="6.84997">
        <ele>1894.2</ele>
        <time>2021-03-26T08:12:22Z</time>
      </trkpt>
      <trkpt lat="45.63637" lon="6.84995">
        <ele>1894.3</ele>
        <time>2021-03-26T08:12:23Z</time>
      </trkpt>
      <trkpt lat="45.63638" lon="6.84994">
        <ele>1894.3</ele>
        <time>2021-03-26T08:12:24Z</time>
      </trkpt>
      <trkpt lat="45.63638" lon="6.84994">
        <ele>1894.3</ele>
        <time>2021-03-26T08:12:25Z</time>
      </trkpt>
      <trkpt lat="45.6364" lon="6.84992">
        <ele>1894.4</ele>
        <time>2021-03-26T08:12:26Z</time>
      </trkpt>
      <trkpt lat="45.63641" lon="6.84991">
        <ele>1894.4</ele>
        <time>2021-03-26T08:12:27Z</time>
      </trkpt>
      <trkpt lat="45.63642" lon="6.84991">
        <ele>1894.5</ele>
        <time>2021-03-26T08:12:28Z</time>
      </trkpt>
      <trkpt lat="45.63644" lon="6.84989">
        <ele>1894.5</ele>
        <time>2021-03-26T08:12:29Z</time>
      </trkpt>
      <trkpt lat="45.63645" lon="6.84988">
        <ele>1894.6</ele>
        <time>2021-03-26T08:12:30Z</time>
      </trkpt>
      <trkpt lat="45.63646" lon="6.84988">
        <ele>1894.6</ele>
        <time>2021-03-26T08:12:31Z</time>
      </trkpt>
      <trkpt lat="45.63648" lon="6.84986">
        <ele>1894.7</ele>
        <time>2021-03-26T08:12:32Z</time>
      </trkpt>
      <trkpt lat="45.63649" lon="6.84986">
        <ele>1894.7</ele>
        <time>2021-03-26T08:12:33Z</time>
      </trkpt>
      <trkpt lat="45.6365" lon="6.84985">
        <ele>1894.8</ele>
        <time>2021-03-26T08:12:34Z</time>
      </trkpt>
      <trkpt lat="45.63652" lon="6.84984">
        <ele>1894.8</ele>
        <time>2021-03-26T08:12:35Z</time>
      </trkpt>
      <trkpt lat="45.63652" lon="6.84983">
        <ele>1894.9</ele>
        <time>2021-03-26T08:12:36Z</time>
      </trkpt>
      <trkpt lat="45.63653" lon="6.84982">
        <ele>1894.9</ele>
        <time>2021-03-26T08:12:37Z</time>
      </trkpt>
      <trkpt lat="45.63654" lon="6.84981">
        <ele>1895</ele>
        <time>2021-03-26T08:12:38Z</time>
      </trkpt>
      <trkpt lat="45.63656" lon="6.8498">
        <ele>1895</ele>
        <time>2021-03-26T08:12:39Z</time>
      </trkpt>
      <trkpt lat="45.63657" lon="6.84979">
        <ele>1895.1</ele>
        <time>2021-03-26T08:12:40Z</time>
      </trkpt>
      <trkpt lat="45.63658" lon="6.84978">
        <ele>1895.1</ele>
        <time>2021-03-26T08:12:41Z</time>
      </trkpt>
      <trkpt lat="45.6366" lon="6.84977">
        <ele>1895.2</ele>
        <time>2021-03-26T08:12:42Z</time>
      </trkpt>
      <trkpt lat="45.63661" lon="6.84976">
        <ele>1895.2</ele>
        <time>2021-03-26T08:12:43Z</time>
      </trkpt>
      <trkpt lat="45.63662" lon="6.84975">
        <ele>1895.3</ele>
        <time>2021-03-26T08:12:44Z</time>
      </trkpt>
      <trkpt lat="45.63664" lon="6.84974">
        <ele>1895.3</ele>
        <time>2021-03-26T08:12:45Z</time>
      </trkpt>
      <trkpt lat="45.63664" lon="6.84973">
        <ele>1895.4</ele>
        <time>2021-03-26T08:12:46Z</time>
      </trkpt>
      <trkpt lat="45.63665" lon="6.84972">
        <ele>1895.4</ele>
        <time>2021-03-26T08:12:47Z</time>
      </trkpt>
      <trkpt lat="45.63667" lon="6.84971">
        <ele>1895.5</ele>
        <time>2021-03-26T08:12:48Z</time>
      </trkpt>
      <trkpt lat="45.63668" lon="6.8497">
        <ele>1895.5</ele>
        <time>2021-03-26T08:12:49Z</time>
      </trkpt>
      <trkpt lat="45.63668" lon="6.84969">
        <ele>1895.6</ele>
        <time>2021-03-26T08:12:50Z</time>
      </trkpt>
      <trkpt lat="45.6367" lon="6.84968">
        <ele>1895.6</ele>
        <time>2021-03-26T08:12:51Z</time>
      </trkpt>
      <trkpt lat="45.63671" lon="6.84967">
        <ele>1895.7</ele>
        <time>2021-03-26T08:12:52Z</time>
      </trkpt>
      <trkpt lat="45.63672" lon="6.84966">
        <ele>1895.7</ele>
        <time>2021-03-26T08:12:53Z</time>
      </trkpt>
      <trkpt lat="45.63673" lon="6.84964">
        <ele>1895.8</ele>
        <time>2021-03-26T08:12:54Z</time>
      </trkpt>
      <trkpt lat="45.63674" lon="6.84963">
        <ele>1895.8</ele>
        <time>2021-03-26T08:12:55Z</time>
      </trkpt>
      <trkpt lat="45.63675" lon="6.84962">
        <ele>1895.9</ele>
        <time>2021-03-26T08:12:56Z</time>
      </trkpt>
      <trkpt lat="45.63676" lon="6.84961">
        <ele>1895.9</ele>
        <time>2021-03-26T08:12:57Z</time>
      </trkpt>
      <trkpt lat="45.63677" lon="6.8496">
        <ele>1896</ele>
        <time>2021-03-26T08:12:58Z</time>
      </trkpt>
      <trkpt lat="45.63678" lon="6.84959">
        <ele>1896</ele>
        <time>2021-03-26T08:12:59Z</time>
      </trkpt>
      <trkpt lat="45.63679" lon="6.84957">
        <ele>1896.1</ele>
        <time>2021-03-26T08:13:00Z</time>
      </trkpt>
      <trkpt lat="45.6368" lon="6.84956">
        <ele>1896.1</ele>
        <time>2021-03-26T08:13:01Z</time>
      </trkpt>
      <trkpt lat="45.63681" lon="6.84956">
        <ele>1896.1</ele>
        <time>2021-03-26T08:13:02Z</time>
      </trkpt>
      <trkpt lat="45.63682" lon="6.84954">
        <ele>1896.2</ele>
        <time>2021-03-26T08:13:03Z</time>
      </trkpt>
      <trkpt lat="45.63683" lon="6.84953">
        <ele>1896.3</ele>
        <time>2021-03-26T08:13:04Z</time>
      </trkpt>
      <trkpt lat="45.63684" lon="6.84952">
        <ele>1896.3</ele>
        <time>2021-03-26T08:13:05Z</time>
      </trkpt>
      <trkpt lat="45.63685" lon="6.8495">
        <ele>1896.4</ele>
        <time>2021-03-26T08:13:06Z</time>
      </trkpt>
      <trkpt lat="45.63686" lon="6.84949">
        <ele>1896.4</ele>
        <time>2021-03-26T08:13:07Z</time>
      </trkpt>
      <trkpt lat="45.63687" lon="6.84949">
        <ele>1896.4</ele>
        <time>2021-03-26T08:13:08Z</time>
      </trkpt>
      <trkpt lat="45.63688" lon="6.84947">
        <ele>1896.5</ele>
        <time>2021-03-26T08:13:09Z</time>
      </trkpt>
      <trkpt lat="45.63689" lon="6.84946">
        <ele>1896.6</ele>
        <time>2021-03-26T08:13:10Z</time>
      </trkpt>
      <trkpt lat="45.6369" lon="6.84945">
        <ele>1896.6</ele>
        <time>2021-03-26T08:13:11Z</time>
      </trkpt>
      <trkpt lat="45.63691" lon="6.84944">
        <ele>1896.7</ele>
        <time>2021-03-26T08:13:12Z</time>
      </trkpt>
      <trkpt lat="45.63692" lon="6.84943">
        <ele>1896.7</ele>
        <time>2021-03-26T08:13:13Z</time>
      </trkpt>
      <trkpt lat="45.63693" lon="6.84941">
        <ele>1896.8</ele>
        <time>2021-03-26T08:13:14Z</time>
      </trkpt>
      <trkpt lat="45.63695" lon="6.8494">
        <ele>1896.9</ele>
        <time>2021-03-26T08:13:15Z</time>
      </trkpt>
      <trkpt lat="45.63696" lon="6.84938">
        <ele>1897</ele>
        <time>2021-03-26T08:13:16Z</time>
      </trkpt>
      <trkpt lat="45.63697" lon="6.84937">
        <ele>1897</ele>
        <time>2021-03-26T08:13:17Z</time>
      </trkpt>
      <trkpt lat="45.63698" lon="6.84937">
        <ele>1897.1</ele>
        <time>2021-03-26T08:13:18Z</time>
      </trkpt>
      <trkpt lat="45.63699" lon="6.84935">
        <ele>1897.1</ele>
        <time>2021-03-26T08:13:19Z</time>
      </trkpt>
      <trkpt lat="45.637" lon="6.84935">
        <ele>1897.2</ele>
        <time>2021-03-26T08:13:20Z</time>
      </trkpt>
      <trkpt lat="45.63701" lon="6.84934">
        <ele>1897.2</ele>
        <time>2021-03-26T08:13:21Z</time>
      </trkpt>
      <trkpt lat="45.63702" lon="6.84933">
        <ele>1897.3</ele>
        <time>2021-03-26T08:13:22Z</time>
      </trkpt>
      <trkpt lat="45.63703" lon="6.84932">
        <ele>1897.4</ele>
        <time>2021-03-26T08:13:23Z</time>
      </trkpt>
      <trkpt lat="45.63704" lon="6.84931">
        <ele>1897.4</ele>
        <time>2021-03-26T08:13:24Z</time>
      </trkpt>
      <trkpt lat="45.63705" lon="6.8493">
        <ele>1897.5</ele>
        <time>2021-03-26T08:13:25Z</time>
      </trkpt>
      <trkpt lat="45.63706" lon="6.84929">
        <ele>1897.6</ele>
        <time>2021-03-26T08:13:26Z</time>
      </trkpt>
      <trkpt lat="45.63708" lon="6.84927">
        <ele>1897.6</ele>
        <time>2021-03-26T08:13:27Z</time>
      </trkpt>
      <trkpt lat="45.63709" lon="6.84926">
        <ele>1897.7</ele>
        <time>2021-03-26T08:13:28Z</time>
      </trkpt>
      <trkpt lat="45.63709" lon="6.84925">
        <ele>1897.7</ele>
        <time>2021-03-26T08:13:29Z</time>
      </trkpt>
      <trkpt lat="45.63711" lon="6.84923">
        <ele>1897.8</ele>
        <time>2021-03-26T08:13:30Z</time>
      </trkpt>
      <trkpt lat="45.63712" lon="6.84923">
        <ele>1897.9</ele>
        <time>2021-03-26T08:13:31Z</time>
      </trkpt>
      <trkpt lat="45.63713" lon="6.84922">
        <ele>1897.9</ele>
        <time>2021-03-26T08:13:32Z</time>
      </trkpt>
      <trkpt lat="45.63713" lon="6.84921">
        <ele>1898</ele>
        <time>2021-03-26T08:13:33Z</time>
      </trkpt>
      <trkpt lat="45.63714" lon="6.8492">
        <ele>1898</ele>
        <time>2021-03-26T08:13:34Z</time>
      </trkpt>
      <trkpt lat="45.63715" lon="6.84919">
        <ele>1898.1</ele>
        <time>2021-03-26T08:13:35Z</time>
      </trkpt>
      <trkpt lat="45.63715" lon="6.84917">
        <ele>1898.1</ele>
        <time>2021-03-26T08:13:36Z</time>
      </trkpt>
      <trkpt lat="45.63716" lon="6.84916">
        <ele>1898.2</ele>
        <time>2021-03-26T08:13:37Z</time>
      </trkpt>
      <trkpt lat="45.63716" lon="6.84915">
        <ele>1898.2</ele>
        <time>2021-03-26T08:13:38Z</time>
      </trkpt>
      <trkpt lat="45.63718" lon="6.84912">
        <ele>1898.3</ele>
        <time>2021-03-26T08:13:39Z</time>
      </trkpt>
      <trkpt lat="45.63718" lon="6.84912">
        <ele>1898.4</ele>
        <time>2021-03-26T08:13:40Z</time>
      </trkpt>
      <trkpt lat="45.63719" lon="6.84911">
        <ele>1898.4</ele>
        <time>2021-03-26T08:13:41Z</time>
      </trkpt>
      <trkpt lat="45.6372" lon="6.84909">
        <ele>1898.5</ele>
        <time>2021-03-26T08:13:42Z</time>
      </trkpt>
      <trkpt lat="45.63721" lon="6.84907">
        <ele>1898.6</ele>
        <time>2021-03-26T08:13:43Z</time>
      </trkpt>
      <trkpt lat="45.63722" lon="6.84906">
        <ele>1898.6</ele>
        <time>2021-03-26T08:13:44Z</time>
      </trkpt>
      <trkpt lat="45.63722" lon="6.84904">
        <ele>1898.7</ele>
        <time>2021-03-26T08:13:45Z</time>
      </trkpt>
      <trkpt lat="45.63723" lon="6.84902">
        <ele>1898.8</ele>
        <time>2021-03-26T08:13:46Z</time>
      </trkpt>
      <trkpt lat="45.63724" lon="6.849">
        <ele>1898.9</ele>
        <time>2021-03-26T08:13:47Z</time>
      </trkpt>
      <trkpt lat="45.63725" lon="6.84898">
        <ele>1899</ele>
        <time>2021-03-26T08:13:48Z</time>
      </trkpt>
      <trkpt lat="45.63726" lon="6.84897">
        <ele>1899</ele>
        <time>2021-03-26T08:13:49Z</time>
      </trkpt>
      <trkpt lat="45.63726" lon="6.84896">
        <ele>1899.1</ele>
        <time>2021-03-26T08:13:50Z</time>
      </trkpt>
      <trkpt lat="45.63727" lon="6.84894">
        <ele>1899.1</ele>
        <time>2021-03-26T08:13:51Z</time>
      </trkpt>
      <trkpt lat="45.63727" lon="6.84893">
        <ele>1899.2</ele>
        <time>2021-03-26T08:13:52Z</time>
      </trkpt>
      <trkpt lat="45.63728" lon="6.84892">
        <ele>1899.2</ele>
        <time>2021-03-26T08:13:53Z</time>
      </trkpt>
      <trkpt lat="45.63729" lon="6.84891">
        <ele>1899.3</ele>
        <time>2021-03-26T08:13:54Z</time>
      </trkpt>
      <trkpt lat="45.63729" lon="6.84889">
        <ele>1899.3</ele>
        <time>2021-03-26T08:13:55Z</time>
      </trkpt>
      <trkpt lat="45.6373" lon="6.84888">
        <ele>1899.4</ele>
        <time>2021-03-26T08:13:56Z</time>
      </trkpt>
      <trkpt lat="45.63731" lon="6.84887">
        <ele>1899.4</ele>
        <time>2021-03-26T08:13:57Z</time>
      </trkpt>
      <trkpt lat="45.63732" lon="6.84886">
        <ele>1899.5</ele>
        <time>2021-03-26T08:13:58Z</time>
      </trkpt>
      <trkpt lat="45.63733" lon="6.84886">
        <ele>1899.5</ele>
        <time>2021-03-26T08:13:59Z</time>
      </trkpt>
      <trkpt lat="45.63734" lon="6.84885">
        <ele>1899.6</ele>
        <time>2021-03-26T08:14:00Z</time>
      </trkpt>
      <trkpt lat="45.63734" lon="6.84884">
        <ele>1899.6</ele>
        <time>2021-03-26T08:14:01Z</time>
      </trkpt>
      <trkpt lat="45.63735" lon="6.84883">
        <ele>1899.7</ele>
        <time>2021-03-26T08:14:02Z</time>
      </trkpt>
      <trkpt lat="45.63736" lon="6.84881">
        <ele>1899.8</ele>
        <time>2021-03-26T08:14:03Z</time>
      </trkpt>
      <trkpt lat="45.63737" lon="6.8488">
        <ele>1899.8</ele>
        <time>2021-03-26T08:14:04Z</time>
      </trkpt>
      <trkpt lat="45.63737" lon="6.84879">
        <ele>1899.9</ele>
        <time>2021-03-26T08:14:05Z</time>
      </trkpt>
      <trkpt lat="45.63738" lon="6.84878">
        <ele>1899.9</ele>
        <time>2021-03-26T08:14:06Z</time>
      </trkpt>
      <trkpt lat="45.63739" lon="6.84877">
        <ele>1900</ele>
        <time>2021-03-26T08:14:07Z</time>
      </trkpt>
      <trkpt lat="45.6374" lon="6.84876">
        <ele>1900</ele>
        <time>2021-03-26T08:14:08Z</time>
      </trkpt>
      <trkpt lat="45.63741" lon="6.84873">
        <ele>1900.1</ele>
        <time>2021-03-26T08:14:09Z</time>
      </trkpt>
      <trkpt lat="45.63741" lon="6.84872">
        <ele>1900.2</ele>
        <time>2021-03-26T08:14:10Z</time>
      </trkpt>
      <trkpt lat="45.63742" lon="6.84871">
        <ele>1900.2</ele>
        <time>2021-03-26T08:14:11Z</time>
      </trkpt>
      <trkpt lat="45.63743" lon="6.8487">
        <ele>1900.3</ele>
        <time>2021-03-26T08:14:12Z</time>
      </trkpt>
      <trkpt lat="45.63743" lon="6.84869">
        <ele>1900.3</ele>
        <time>2021-03-26T08:14:13Z</time>
      </trkpt>
      <trkpt lat="45.63744" lon="6.84867">
        <ele>1900.4</ele>
        <time>2021-03-26T08:14:14Z</time>
      </trkpt>
      <trkpt lat="45.63745" lon="6.84865">
        <ele>1900.5</ele>
        <time>2021-03-26T08:14:15Z</time>
      </trkpt>
      <trkpt lat="45.63745" lon="6.84864">
        <ele>1900.5</ele>
        <time>2021-03-26T08:14:16Z</time>
      </trkpt>
      <trkpt lat="45.63746" lon="6.84862">
        <ele>1900.5</ele>
        <time>2021-03-26T08:14:17Z</time>
      </trkpt>
      <trkpt lat="45.63747" lon="6.8486">
        <ele>1900.6</ele>
        <time>2021-03-26T08:14:18Z</time>
      </trkpt>
      <trkpt lat="45.63747" lon="6.84859">
        <ele>1900.7</ele>
        <time>2021-03-26T08:14:19Z</time>
      </trkpt>
      <trkpt lat="45.63748" lon="6.84858">
        <ele>1900.7</ele>
        <time>2021-03-26T08:14:20Z</time>
      </trkpt>
      <trkpt lat="45.63749" lon="6.84855">
        <ele>1900.8</ele>
        <time>2021-03-26T08:14:21Z</time>
      </trkpt>
      <trkpt lat="45.63749" lon="6.84854">
        <ele>1900.8</ele>
        <time>2021-03-26T08:14:22Z</time>
      </trkpt>
      <trkpt lat="45.63749" lon="6.84853">
        <ele>1900.9</ele>
        <time>2021-03-26T08:14:23Z</time>
      </trkpt>
      <trkpt lat="45.6375" lon="6.84851">
        <ele>1900.9</ele>
        <time>2021-03-26T08:14:24Z</time>
      </trkpt>
      <trkpt lat="45.63751" lon="6.84849">
        <ele>1901</ele>
        <time>2021-03-26T08:14:25Z</time>
      </trkpt>
      <trkpt lat="45.63751" lon="6.84848">
        <ele>1901.1</ele>
        <time>2021-03-26T08:14:26Z</time>
      </trkpt>
      <trkpt lat="45.63752" lon="6.84846">
        <ele>1901.2</ele>
        <time>2021-03-26T08:14:27Z</time>
      </trkpt>
      <trkpt lat="45.63753" lon="6.84844">
        <ele>1901.3</ele>
        <time>2021-03-26T08:14:28Z</time>
      </trkpt>
      <trkpt lat="45.63753" lon="6.84842">
        <ele>1901.3</ele>
        <time>2021-03-26T08:14:29Z</time>
      </trkpt>
      <trkpt lat="45.63754" lon="6.8484">
        <ele>1901.4</ele>
        <time>2021-03-26T08:14:30Z</time>
      </trkpt>
      <trkpt lat="45.63755" lon="6.84838">
        <ele>1901.5</ele>
        <time>2021-03-26T08:14:31Z</time>
      </trkpt>
      <trkpt lat="45.63755" lon="6.84836">
        <ele>1901.6</ele>
        <time>2021-03-26T08:14:32Z</time>
      </trkpt>
      <trkpt lat="45.63755" lon="6.84834">
        <ele>1901.7</ele>
        <time>2021-03-26T08:14:33Z</time>
      </trkpt>
      <trkpt lat="45.63756" lon="6.84833">
        <ele>1901.7</ele>
        <time>2021-03-26T08:14:34Z</time>
      </trkpt>
      <trkpt lat="45.63756" lon="6.84831">
        <ele>1901.8</ele>
        <time>2021-03-26T08:14:35Z</time>
      </trkpt>
      <trkpt lat="45.63756" lon="6.84829">
        <ele>1901.9</ele>
        <time>2021-03-26T08:14:36Z</time>
      </trkpt>
      <trkpt lat="45.63757" lon="6.84826">
        <ele>1902</ele>
        <time>2021-03-26T08:14:37Z</time>
      </trkpt>
      <trkpt lat="45.63757" lon="6.84825">
        <ele>1902</ele>
        <time>2021-03-26T08:14:38Z</time>
      </trkpt>
      <trkpt lat="45.63757" lon="6.84824">
        <ele>1902.1</ele>
        <time>2021-03-26T08:14:39Z</time>
      </trkpt>
      <trkpt lat="45.63758" lon="6.84823">
        <ele>1902.2</ele>
        <time>2021-03-26T08:14:40Z</time>
      </trkpt>
      <trkpt lat="45.63758" lon="6.84821">
        <ele>1902.2</ele>
        <time>2021-03-26T08:14:41Z</time>
      </trkpt>
      <trkpt lat="45.63758" lon="6.8482">
        <ele>1902.3</ele>
        <time>2021-03-26T08:14:42Z</time>
      </trkpt>
      <trkpt lat="45.63758" lon="6.84818">
        <ele>1902.3</ele>
        <time>2021-03-26T08:14:43Z</time>
      </trkpt>
      <trkpt lat="45.63758" lon="6.84817">
        <ele>1902.4</ele>
        <time>2021-03-26T08:14:44Z</time>
      </trkpt>
      <trkpt lat="45.63758" lon="6.84815">
        <ele>1902.5</ele>
        <time>2021-03-26T08:14:45Z</time>
      </trkpt>
      <trkpt lat="45.63759" lon="6.84812">
        <ele>1902.6</ele>
        <time>2021-03-26T08:14:46Z</time>
      </trkpt>
      <trkpt lat="45.63759" lon="6.84811">
        <ele>1902.6</ele>
        <time>2021-03-26T08:14:47Z</time>
      </trkpt>
      <trkpt lat="45.63759" lon="6.8481">
        <ele>1902.7</ele>
        <time>2021-03-26T08:14:48Z</time>
      </trkpt>
      <trkpt lat="45.63759" lon="6.84807">
        <ele>1902.8</ele>
        <time>2021-03-26T08:14:49Z</time>
      </trkpt>
      <trkpt lat="45.63759" lon="6.84806">
        <ele>1902.9</ele>
        <time>2021-03-26T08:14:50Z</time>
      </trkpt>
      <trkpt lat="45.63759" lon="6.84805">
        <ele>1902.9</ele>
        <time>2021-03-26T08:14:51Z</time>
      </trkpt>
      <trkpt lat="45.63759" lon="6.84803">
        <ele>1903</ele>
        <time>2021-03-26T08:14:52Z</time>
      </trkpt>
      <trkpt lat="45.63759" lon="6.84802">
        <ele>1903</ele>
        <time>2021-03-26T08:14:53Z</time>
      </trkpt>
      <trkpt lat="45.6376" lon="6.848">
        <ele>1903.1</ele>
        <time>2021-03-26T08:14:54Z</time>
      </trkpt>
      <trkpt lat="45.6376" lon="6.84797">
        <ele>1903.2</ele>
        <time>2021-03-26T08:14:55Z</time>
      </trkpt>
      <trkpt lat="45.6376" lon="6.84796">
        <ele>1903.3</ele>
        <time>2021-03-26T08:14:56Z</time>
      </trkpt>
      <trkpt lat="45.6376" lon="6.84795">
        <ele>1903.3</ele>
        <time>2021-03-26T08:14:57Z</time>
      </trkpt>
      <trkpt lat="45.6376" lon="6.84793">
        <ele>1903.4</ele>
        <time>2021-03-26T08:14:58Z</time>
      </trkpt>
      <trkpt lat="45.6376" lon="6.84791">
        <ele>1903.5</ele>
        <time>2021-03-26T08:14:59Z</time>
      </trkpt>
      <trkpt lat="45.63761" lon="6.84788">
        <ele>1903.6</ele>
        <time>2021-03-26T08:15:00Z</time>
      </trkpt>
      <trkpt lat="45.63761" lon="6.84786">
        <ele>1903.7</ele>
        <time>2021-03-26T08:15:01Z</time>
      </trkpt>
      <trkpt lat="45.63761" lon="6.84785">
        <ele>1903.7</ele>
        <time>2021-03-26T08:15:02Z</time>
      </trkpt>
      <trkpt lat="45.63761" lon="6.84784">
        <ele>1903.8</ele>
        <time>2021-03-26T08:15:03Z</time>
      </trkpt>
      <trkpt lat="45.63761" lon="6.84782">
        <ele>1903.8</ele>
        <time>2021-03-26T08:15:04Z</time>
      </trkpt>
      <trkpt lat="45.63762" lon="6.84781">
        <ele>1903.9</ele>
        <time>2021-03-26T08:15:05Z</time>
      </trkpt>
      <trkpt lat="45.63762" lon="6.8478">
        <ele>1904</ele>
        <time>2021-03-26T08:15:06Z</time>
      </trkpt>
      <trkpt lat="45.63762" lon="6.84778">
        <ele>1904</ele>
        <time>2021-03-26T08:15:07Z</time>
      </trkpt>
      <trkpt lat="45.63762" lon="6.84777">
        <ele>1904.1</ele>
        <time>2021-03-26T08:15:08Z</time>
      </trkpt>
      <trkpt lat="45.63763" lon="6.84775">
        <ele>1904.2</ele>
        <time>2021-03-26T08:15:09Z</time>
      </trkpt>
      <trkpt lat="45.63763" lon="6.84773">
        <ele>1904.2</ele>
        <time>2021-03-26T08:15:10Z</time>
      </trkpt>
      <trkpt lat="45.63763" lon="6.84772">
        <ele>1904.3</ele>
        <time>2021-03-26T08:15:11Z</time>
      </trkpt>
      <trkpt lat="45.63763" lon="6.84769">
        <ele>1904.4</ele>
        <time>2021-03-26T08:15:12Z</time>
      </trkpt>
      <trkpt lat="45.63763" lon="6.84767">
        <ele>1904.5</ele>
        <time>2021-03-26T08:15:13Z</time>
      </trkpt>
      <trkpt lat="45.63763" lon="6.84766">
        <ele>1904.5</ele>
        <time>2021-03-26T08:15:14Z</time>
      </trkpt>
      <trkpt lat="45.63764" lon="6.84763">
        <ele>1904.6</ele>
        <time>2021-03-26T08:15:15Z</time>
      </trkpt>
      <trkpt lat="45.63764" lon="6.84762">
        <ele>1904.7</ele>
        <time>2021-03-26T08:15:16Z</time>
      </trkpt>
      <trkpt lat="45.63764" lon="6.84761">
        <ele>1904.7</ele>
        <time>2021-03-26T08:15:17Z</time>
      </trkpt>
      <trkpt lat="45.63764" lon="6.84759">
        <ele>1904.8</ele>
        <time>2021-03-26T08:15:18Z</time>
      </trkpt>
      <trkpt lat="45.63764" lon="6.84757">
        <ele>1904.9</ele>
        <time>2021-03-26T08:15:19Z</time>
      </trkpt>
      <trkpt lat="45.63764" lon="6.84756">
        <ele>1904.9</ele>
        <time>2021-03-26T08:15:20Z</time>
      </trkpt>
      <trkpt lat="45.63764" lon="6.84755">
        <ele>1905</ele>
        <time>2021-03-26T08:15:21Z</time>
      </trkpt>
      <trkpt lat="45.63765" lon="6.84753">
        <ele>1905.1</ele>
        <time>2021-03-26T08:15:22Z</time>
      </trkpt>
      <trkpt lat="45.63765" lon="6.84751">
        <ele>1905.1</ele>
        <time>2021-03-26T08:15:23Z</time>
      </trkpt>
      <trkpt lat="45.63765" lon="6.84749">
        <ele>1905.2</ele>
        <time>2021-03-26T08:15:24Z</time>
      </trkpt>
      <trkpt lat="45.63765" lon="6.84748">
        <ele>1905.3</ele>
        <time>2021-03-26T08:15:25Z</time>
      </trkpt>
      <trkpt lat="45.63765" lon="6.84746">
        <ele>1905.3</ele>
        <time>2021-03-26T08:15:26Z</time>
      </trkpt>
      <trkpt lat="45.63765" lon="6.84744">
        <ele>1905.4</ele>
        <time>2021-03-26T08:15:27Z</time>
      </trkpt>
      <trkpt lat="45.63765" lon="6.84743">
        <ele>1905.5</ele>
        <time>2021-03-26T08:15:28Z</time>
      </trkpt>
      <trkpt lat="45.63765" lon="6.84741">
        <ele>1905.5</ele>
        <time>2021-03-26T08:15:29Z</time>
      </trkpt>
      <trkpt lat="45.63765" lon="6.84738">
        <ele>1905.6</ele>
        <time>2021-03-26T08:15:30Z</time>
      </trkpt>
      <trkpt lat="45.63766" lon="6.84737">
        <ele>1905.7</ele>
        <time>2021-03-26T08:15:31Z</time>
      </trkpt>
      <trkpt lat="45.63766" lon="6.84736">
        <ele>1905.7</ele>
        <time>2021-03-26T08:15:32Z</time>
      </trkpt>
      <trkpt lat="45.63766" lon="6.84734">
        <ele>1905.8</ele>
        <time>2021-03-26T08:15:33Z</time>
      </trkpt>
      <trkpt lat="45.63766" lon="6.84733">
        <ele>1905.9</ele>
        <time>2021-03-26T08:15:34Z</time>
      </trkpt>
      <trkpt lat="45.63767" lon="6.84731">
        <ele>1905.9</ele>
        <time>2021-03-26T08:15:35Z</time>
      </trkpt>
      <trkpt lat="45.63767" lon="6.84728">
        <ele>1906</ele>
        <time>2021-03-26T08:15:36Z</time>
      </trkpt>
      <trkpt lat="45.63767" lon="6.84727">
        <ele>1906.1</ele>
        <time>2021-03-26T08:15:37Z</time>
      </trkpt>
      <trkpt lat="45.63767" lon="6.84726">
        <ele>1906.1</ele>
        <time>2021-03-26T08:15:38Z</time>
      </trkpt>
      <trkpt lat="45.63768" lon="6.84724">
        <ele>1906.2</ele>
        <time>2021-03-26T08:15:39Z</time>
      </trkpt>
      <trkpt lat="45.63768" lon="6.84722">
        <ele>1906.3</ele>
        <time>2021-03-26T08:15:40Z</time>
      </trkpt>
      <trkpt lat="45.63769" lon="6.8472">
        <ele>1906.4</ele>
        <time>2021-03-26T08:15:41Z</time>
      </trkpt>
      <trkpt lat="45.6377" lon="6.84718">
        <ele>1906.4</ele>
        <time>2021-03-26T08:15:42Z</time>
      </trkpt>
      <trkpt lat="45.6377" lon="6.84717">
        <ele>1906.5</ele>
        <time>2021-03-26T08:15:43Z</time>
      </trkpt>
      <trkpt lat="45.63771" lon="6.84714">
        <ele>1906.6</ele>
        <time>2021-03-26T08:15:44Z</time>
      </trkpt>
      <trkpt lat="45.63771" lon="6.84713">
        <ele>1906.6</ele>
        <time>2021-03-26T08:15:45Z</time>
      </trkpt>
      <trkpt lat="45.63772" lon="6.84712">
        <ele>1906.7</ele>
        <time>2021-03-26T08:15:46Z</time>
      </trkpt>
      <trkpt lat="45.63772" lon="6.84711">
        <ele>1906.7</ele>
        <time>2021-03-26T08:15:47Z</time>
      </trkpt>
      <trkpt lat="45.63772" lon="6.84709">
        <ele>1906.8</ele>
        <time>2021-03-26T08:15:48Z</time>
      </trkpt>
      <trkpt lat="45.63773" lon="6.84708">
        <ele>1906.8</ele>
        <time>2021-03-26T08:15:49Z</time>
      </trkpt>
      <trkpt lat="45.63775" lon="6.84706">
        <ele>1906.9</ele>
        <time>2021-03-26T08:15:50Z</time>
      </trkpt>
      <trkpt lat="45.63775" lon="6.84705">
        <ele>1907</ele>
        <time>2021-03-26T08:15:51Z</time>
      </trkpt>
      <trkpt lat="45.63776" lon="6.84705">
        <ele>1907</ele>
        <time>2021-03-26T08:15:52Z</time>
      </trkpt>
      <trkpt lat="45.63777" lon="6.84703">
        <ele>1907.1</ele>
        <time>2021-03-26T08:15:53Z</time>
      </trkpt>
      <trkpt lat="45.63778" lon="6.84702">
        <ele>1907.1</ele>
        <time>2021-03-26T08:15:54Z</time>
      </trkpt>
      <trkpt lat="45.6378" lon="6.84701">
        <ele>1907.2</ele>
        <time>2021-03-26T08:15:55Z</time>
      </trkpt>
      <trkpt lat="45.63781" lon="6.84699">
        <ele>1907.2</ele>
        <time>2021-03-26T08:15:56Z</time>
      </trkpt>
      <trkpt lat="45.63782" lon="6.84697">
        <ele>1907.3</ele>
        <time>2021-03-26T08:15:57Z</time>
      </trkpt>
      <trkpt lat="45.63783" lon="6.84696">
        <ele>1907.4</ele>
        <time>2021-03-26T08:15:58Z</time>
      </trkpt>
      <trkpt lat="45.63784" lon="6.84696">
        <ele>1907.4</ele>
        <time>2021-03-26T08:15:59Z</time>
      </trkpt>
      <trkpt lat="45.63785" lon="6.84694">
        <ele>1907.5</ele>
        <time>2021-03-26T08:16:00Z</time>
      </trkpt>
      <trkpt lat="45.63785" lon="6.84693">
        <ele>1907.5</ele>
        <time>2021-03-26T08:16:01Z</time>
      </trkpt>
      <trkpt lat="45.63786" lon="6.84692">
        <ele>1907.5</ele>
        <time>2021-03-26T08:16:02Z</time>
      </trkpt>
      <trkpt lat="45.63786" lon="6.84692">
        <ele>1907.6</ele>
        <time>2021-03-26T08:16:03Z</time>
      </trkpt>
      <trkpt lat="45.63787" lon="6.84691">
        <ele>1907.6</ele>
        <time>2021-03-26T08:16:04Z</time>
      </trkpt>
      <trkpt lat="45.63788" lon="6.8469">
        <ele>1907.7</ele>
        <time>2021-03-26T08:16:05Z</time>
      </trkpt>
      <trkpt lat="45.63789" lon="6.8469">
        <ele>1907.7</ele>
        <time>2021-03-26T08:16:06Z</time>
      </trkpt>
      <trkpt lat="45.6379" lon="6.8469">
        <ele>1907.7</ele>
        <time>2021-03-26T08:16:07Z</time>
      </trkpt>
      <trkpt lat="45.63791" lon="6.8469">
        <ele>1907.8</ele>
        <time>2021-03-26T08:16:08Z</time>
      </trkpt>
      <trkpt lat="45.63793" lon="6.84689">
        <ele>1907.8</ele>
        <time>2021-03-26T08:16:09Z</time>
      </trkpt>
      <trkpt lat="45.63794" lon="6.84689">
        <ele>1907.9</ele>
        <time>2021-03-26T08:16:10Z</time>
      </trkpt>
      <trkpt lat="45.63794" lon="6.84689">
        <ele>1907.9</ele>
        <time>2021-03-26T08:16:11Z</time>
      </trkpt>
      <trkpt lat="45.63794" lon="6.84689">
        <ele>1907.9</ele>
        <time>2021-03-26T08:16:12Z</time>
      </trkpt>
      <trkpt lat="45.63794" lon="6.84689">
        <ele>1907.9</ele>
        <time>2021-03-26T08:16:13Z</time>
      </trkpt>
      <trkpt lat="45.63795" lon="6.84688">
        <ele>1907.9</ele>
        <time>2021-03-26T08:16:14Z</time>
      </trkpt>
      <trkpt lat="45.63795" lon="6.84688">
        <ele>1907.9</ele>
        <time>2021-03-26T08:16:15Z</time>
      </trkpt>
      <trkpt lat="45.63796" lon="6.84687">
        <ele>1908</ele>
        <time>2021-03-26T08:16:16Z</time>
      </trkpt>
      <trkpt lat="45.63796" lon="6.84686">
        <ele>1908</ele>
        <time>2021-03-26T08:16:17Z</time>
      </trkpt>
      <trkpt lat="45.63797" lon="6.84686">
        <ele>1908</ele>
        <time>2021-03-26T08:16:18Z</time>
      </trkpt>
      <trkpt lat="45.63798" lon="6.84684">
        <ele>1908.1</ele>
        <time>2021-03-26T08:16:19Z</time>
      </trkpt>
      <trkpt lat="45.63798" lon="6.84683">
        <ele>1908.1</ele>
        <time>2021-03-26T08:16:20Z</time>
      </trkpt>
      <trkpt lat="45.63799" lon="6.84682">
        <ele>1908.2</ele>
        <time>2021-03-26T08:16:21Z</time>
      </trkpt>
      <trkpt lat="45.63799" lon="6.84682">
        <ele>1908.2</ele>
        <time>2021-03-26T08:16:22Z</time>
      </trkpt>
      <trkpt lat="45.63799" lon="6.84682">
        <ele>1908.2</ele>
        <time>2021-03-26T08:16:23Z</time>
      </trkpt>
      <trkpt lat="45.63799" lon="6.84682">
        <ele>1908.2</ele>
        <time>2021-03-26T08:16:24Z</time>
      </trkpt>
      <trkpt lat="45.63799" lon="6.84682">
        <ele>1908.2</ele>
        <time>2021-03-26T08:16:25Z</time>
      </trkpt>
      <trkpt lat="45.63799" lon="6.84681">
        <ele>1908.2</ele>
        <time>2021-03-26T08:16:26Z</time>
      </trkpt>
      <trkpt lat="45.638" lon="6.8468">
        <ele>1908.3</ele>
        <time>2021-03-26T08:16:27Z</time>
      </trkpt>
      <trkpt lat="45.63801" lon="6.84679">
        <ele>1908.3</ele>
        <time>2021-03-26T08:16:28Z</time>
      </trkpt>
      <trkpt lat="45.63803" lon="6.84678">
        <ele>1908.4</ele>
        <time>2021-03-26T08:16:29Z</time>
      </trkpt>
      <trkpt lat="45.63804" lon="6.84678">
        <ele>1908.5</ele>
        <time>2021-03-26T08:16:30Z</time>
      </trkpt>
      <trkpt lat="45.63805" lon="6.84677">
        <ele>1908.5</ele>
        <time>2021-03-26T08:16:31Z</time>
      </trkpt>
      <trkpt lat="45.63807" lon="6.84676">
        <ele>1908.6</ele>
        <time>2021-03-26T08:16:32Z</time>
      </trkpt>
      <trkpt lat="45.63807" lon="6.84676">
        <ele>1908.7</ele>
        <time>2021-03-26T08:16:33Z</time>
      </trkpt>
      <trkpt lat="45.63808" lon="6.84675">
        <ele>1908.7</ele>
        <time>2021-03-26T08:16:34Z</time>
      </trkpt>
      <trkpt lat="45.63809" lon="6.84675">
        <ele>1908.8</ele>
        <time>2021-03-26T08:16:35Z</time>
      </trkpt>
      <trkpt lat="45.6381" lon="6.84674">
        <ele>1908.8</ele>
        <time>2021-03-26T08:16:36Z</time>
      </trkpt>
      <trkpt lat="45.63811" lon="6.84673">
        <ele>1908.9</ele>
        <time>2021-03-26T08:16:37Z</time>
      </trkpt>
      <trkpt lat="45.63812" lon="6.84672">
        <ele>1908.9</ele>
        <time>2021-03-26T08:16:38Z</time>
      </trkpt>
      <trkpt lat="45.63813" lon="6.84672">
        <ele>1909</ele>
        <time>2021-03-26T08:16:39Z</time>
      </trkpt>
      <trkpt lat="45.63814" lon="6.84671">
        <ele>1909.1</ele>
        <time>2021-03-26T08:16:40Z</time>
      </trkpt>
      <trkpt lat="45.63815" lon="6.8467">
        <ele>1909.1</ele>
        <time>2021-03-26T08:16:41Z</time>
      </trkpt>
      <trkpt lat="45.63817" lon="6.8467">
        <ele>1909.2</ele>
        <time>2021-03-26T08:16:42Z</time>
      </trkpt>
      <trkpt lat="45.63818" lon="6.84669">
        <ele>1909.3</ele>
        <time>2021-03-26T08:16:43Z</time>
      </trkpt>
      <trkpt lat="45.63819" lon="6.84669">
        <ele>1909.3</ele>
        <time>2021-03-26T08:16:44Z</time>
      </trkpt>
      <trkpt lat="45.6382" lon="6.84668">
        <ele>1909.4</ele>
        <time>2021-03-26T08:16:45Z</time>
      </trkpt>
      <trkpt lat="45.63821" lon="6.84668">
        <ele>1909.4</ele>
        <time>2021-03-26T08:16:46Z</time>
      </trkpt>
      <trkpt lat="45.63822" lon="6.84668">
        <ele>1909.5</ele>
        <time>2021-03-26T08:16:47Z</time>
      </trkpt>
      <trkpt lat="45.63823" lon="6.84668">
        <ele>1909.6</ele>
        <time>2021-03-26T08:16:48Z</time>
      </trkpt>
      <trkpt lat="45.63824" lon="6.84668">
        <ele>1909.6</ele>
        <time>2021-03-26T08:16:49Z</time>
      </trkpt>
      <trkpt lat="45.63825" lon="6.84668">
        <ele>1909.7</ele>
        <time>2021-03-26T08:16:50Z</time>
      </trkpt>
      <trkpt lat="45.63826" lon="6.84668">
        <ele>1909.7</ele>
        <time>2021-03-26T08:16:51Z</time>
      </trkpt>
      <trkpt lat="45.63827" lon="6.84668">
        <ele>1909.8</ele>
        <time>2021-03-26T08:16:52Z</time>
      </trkpt>
      <trkpt lat="45.63828" lon="6.84668">
        <ele>1909.8</ele>
        <time>2021-03-26T08:16:53Z</time>
      </trkpt>
      <trkpt lat="45.63828" lon="6.84668">
        <ele>1909.9</ele>
        <time>2021-03-26T08:16:54Z</time>
      </trkpt>
      <trkpt lat="45.63829" lon="6.84668">
        <ele>1909.9</ele>
        <time>2021-03-26T08:16:55Z</time>
      </trkpt>
      <trkpt lat="45.6383" lon="6.84667">
        <ele>1910</ele>
        <time>2021-03-26T08:16:56Z</time>
      </trkpt>
      <trkpt lat="45.63831" lon="6.84667">
        <ele>1910</ele>
        <time>2021-03-26T08:16:57Z</time>
      </trkpt>
      <trkpt lat="45.63832" lon="6.84667">
        <ele>1910.1</ele>
        <time>2021-03-26T08:16:58Z</time>
      </trkpt>
      <trkpt lat="45.63833" lon="6.84667">
        <ele>1910.1</ele>
        <time>2021-03-26T08:16:59Z</time>
      </trkpt>
      <trkpt lat="45.63834" lon="6.84667">
        <ele>1910.1</ele>
        <time>2021-03-26T08:17:00Z</time>
      </trkpt>
      <trkpt lat="45.63835" lon="6.84667">
        <ele>1910.2</ele>
        <time>2021-03-26T08:17:01Z</time>
      </trkpt>
      <trkpt lat="45.63836" lon="6.84667">
        <ele>1910.3</ele>
        <time>2021-03-26T08:17:02Z</time>
      </trkpt>
      <trkpt lat="45.63837" lon="6.84667">
        <ele>1910.3</ele>
        <time>2021-03-26T08:17:03Z</time>
      </trkpt>
      <trkpt lat="45.63838" lon="6.84668">
        <ele>1910.4</ele>
        <time>2021-03-26T08:17:04Z</time>
      </trkpt>
      <trkpt lat="45.6384" lon="6.84668">
        <ele>1910.4</ele>
        <time>2021-03-26T08:17:05Z</time>
      </trkpt>
      <trkpt lat="45.63841" lon="6.84668">
        <ele>1910.4</ele>
        <time>2021-03-26T08:17:06Z</time>
      </trkpt>
      <trkpt lat="45.63842" lon="6.84669">
        <ele>1910.3</ele>
        <time>2021-03-26T08:17:07Z</time>
      </trkpt>
      <trkpt lat="45.63843" lon="6.84669">
        <ele>1910.3</ele>
        <time>2021-03-26T08:17:08Z</time>
      </trkpt>
      <trkpt lat="45.63844" lon="6.84669">
        <ele>1910.3</ele>
        <time>2021-03-26T08:17:09Z</time>
      </trkpt>
      <trkpt lat="45.63846" lon="6.84669">
        <ele>1910.3</ele>
        <time>2021-03-26T08:17:10Z</time>
      </trkpt>
      <trkpt lat="45.63847" lon="6.84669">
        <ele>1910.3</ele>
        <time>2021-03-26T08:17:11Z</time>
      </trkpt>
      <trkpt lat="45.63848" lon="6.84668">
        <ele>1910.3</ele>
        <time>2021-03-26T08:17:12Z</time>
      </trkpt>
      <trkpt lat="45.63849" lon="6.84668">
        <ele>1910.2</ele>
        <time>2021-03-26T08:17:13Z</time>
      </trkpt>
      <trkpt lat="45.6385" lon="6.84668">
        <ele>1910.3</ele>
        <time>2021-03-26T08:17:14Z</time>
      </trkpt>
      <trkpt lat="45.63851" lon="6.84668">
        <ele>1910.3</ele>
        <time>2021-03-26T08:17:15Z</time>
      </trkpt>
      <trkpt lat="45.63852" lon="6.84668">
        <ele>1910.3</ele>
        <time>2021-03-26T08:17:16Z</time>
      </trkpt>
      <trkpt lat="45.63853" lon="6.84668">
        <ele>1910.4</ele>
        <time>2021-03-26T08:17:17Z</time>
      </trkpt>
      <trkpt lat="45.63854" lon="6.84668">
        <ele>1910.4</ele>
        <time>2021-03-26T08:17:18Z</time>
      </trkpt>
      <trkpt lat="45.63855" lon="6.84668">
        <ele>1910.5</ele>
        <time>2021-03-26T08:17:19Z</time>
      </trkpt>
      <trkpt lat="45.63856" lon="6.84667">
        <ele>1910.5</ele>
        <time>2021-03-26T08:17:20Z</time>
      </trkpt>
      <trkpt lat="45.63857" lon="6.84667">
        <ele>1910.6</ele>
        <time>2021-03-26T08:17:21Z</time>
      </trkpt>
      <trkpt lat="45.63858" lon="6.84667">
        <ele>1910.6</ele>
        <time>2021-03-26T08:17:22Z</time>
      </trkpt>
      <trkpt lat="45.63859" lon="6.84667">
        <ele>1910.7</ele>
        <time>2021-03-26T08:17:23Z</time>
      </trkpt>
      <trkpt lat="45.6386" lon="6.84666">
        <ele>1910.7</ele>
        <time>2021-03-26T08:17:24Z</time>
      </trkpt>
      <trkpt lat="45.63861" lon="6.84666">
        <ele>1910.8</ele>
        <time>2021-03-26T08:17:25Z</time>
      </trkpt>
      <trkpt lat="45.63863" lon="6.84665">
        <ele>1910.8</ele>
        <time>2021-03-26T08:17:26Z</time>
      </trkpt>
      <trkpt lat="45.63864" lon="6.84665">
        <ele>1910.9</ele>
        <time>2021-03-26T08:17:27Z</time>
      </trkpt>
      <trkpt lat="45.63865" lon="6.84665">
        <ele>1910.9</ele>
        <time>2021-03-26T08:17:28Z</time>
      </trkpt>
      <trkpt lat="45.63866" lon="6.84664">
        <ele>1911</ele>
        <time>2021-03-26T08:17:29Z</time>
      </trkpt>
      <trkpt lat="45.63867" lon="6.84664">
        <ele>1911</ele>
        <time>2021-03-26T08:17:30Z</time>
      </trkpt>
      <trkpt lat="45.63868" lon="6.84664">
        <ele>1911.1</ele>
        <time>2021-03-26T08:17:31Z</time>
      </trkpt>
      <trkpt lat="45.63869" lon="6.84663">
        <ele>1911.1</ele>
        <time>2021-03-26T08:17:32Z</time>
      </trkpt>
      <trkpt lat="45.6387" lon="6.84663">
        <ele>1911.2</ele>
        <time>2021-03-26T08:17:33Z</time>
      </trkpt>
      <trkpt lat="45.63872" lon="6.84662">
        <ele>1911.2</ele>
        <time>2021-03-26T08:17:34Z</time>
      </trkpt>
      <trkpt lat="45.63873" lon="6.84662">
        <ele>1911.3</ele>
        <time>2021-03-26T08:17:35Z</time>
      </trkpt>
      <trkpt lat="45.63874" lon="6.84662">
        <ele>1911.3</ele>
        <time>2021-03-26T08:17:36Z</time>
      </trkpt>
      <trkpt lat="45.63875" lon="6.84661">
        <ele>1911.4</ele>
        <time>2021-03-26T08:17:37Z</time>
      </trkpt>
      <trkpt lat="45.63876" lon="6.84661">
        <ele>1911.4</ele>
        <time>2021-03-26T08:17:38Z</time>
      </trkpt>
      <trkpt lat="45.63877" lon="6.8466">
        <ele>1911.4</ele>
        <time>2021-03-26T08:17:39Z</time>
      </trkpt>
      <trkpt lat="45.63878" lon="6.8466">
        <ele>1911.5</ele>
        <time>2021-03-26T08:17:40Z</time>
      </trkpt>
      <trkpt lat="45.63879" lon="6.8466">
        <ele>1911.5</ele>
        <time>2021-03-26T08:17:41Z</time>
      </trkpt>
      <trkpt lat="45.6388" lon="6.84659">
        <ele>1911.6</ele>
        <time>2021-03-26T08:17:42Z</time>
      </trkpt>
      <trkpt lat="45.63882" lon="6.84659">
        <ele>1911.6</ele>
        <time>2021-03-26T08:17:43Z</time>
      </trkpt>
      <trkpt lat="45.63883" lon="6.84658">
        <ele>1911.7</ele>
        <time>2021-03-26T08:17:44Z</time>
      </trkpt>
      <trkpt lat="45.63884" lon="6.84658">
        <ele>1911.7</ele>
        <time>2021-03-26T08:17:45Z</time>
      </trkpt>
      <trkpt lat="45.63885" lon="6.84657">
        <ele>1911.8</ele>
        <time>2021-03-26T08:17:46Z</time>
      </trkpt>
      <trkpt lat="45.63886" lon="6.84656">
        <ele>1911.8</ele>
        <time>2021-03-26T08:17:47Z</time>
      </trkpt>
      <trkpt lat="45.63888" lon="6.84655">
        <ele>1911.9</ele>
        <time>2021-03-26T08:17:48Z</time>
      </trkpt>
      <trkpt lat="45.63888" lon="6.84655">
        <ele>1911.9</ele>
        <time>2021-03-26T08:17:49Z</time>
      </trkpt>
      <trkpt lat="45.63889" lon="6.84654">
        <ele>1912</ele>
        <time>2021-03-26T08:17:50Z</time>
      </trkpt>
      <trkpt lat="45.6389" lon="6.84653">
        <ele>1912</ele>
        <time>2021-03-26T08:17:51Z</time>
      </trkpt>
      <trkpt lat="45.63891" lon="6.84653">
        <ele>1912.1</ele>
        <time>2021-03-26T08:17:52Z</time>
      </trkpt>
      <trkpt lat="45.63892" lon="6.84652">
        <ele>1912.1</ele>
        <time>2021-03-26T08:17:53Z</time>
      </trkpt>
      <trkpt lat="45.63893" lon="6.84651">
        <ele>1912.1</ele>
        <time>2021-03-26T08:17:54Z</time>
      </trkpt>
      <trkpt lat="45.63894" lon="6.84651">
        <ele>1912.2</ele>
        <time>2021-03-26T08:17:55Z</time>
      </trkpt>
      <trkpt lat="45.63894" lon="6.8465">
        <ele>1912.2</ele>
        <time>2021-03-26T08:17:56Z</time>
      </trkpt>
      <trkpt lat="45.63895" lon="6.8465">
        <ele>1912.2</ele>
        <time>2021-03-26T08:17:57Z</time>
      </trkpt>
      <trkpt lat="45.63896" lon="6.8465">
        <ele>1912.3</ele>
        <time>2021-03-26T08:17:58Z</time>
      </trkpt>
      <trkpt lat="45.63897" lon="6.84649">
        <ele>1912.3</ele>
        <time>2021-03-26T08:17:59Z</time>
      </trkpt>
      <trkpt lat="45.63898" lon="6.84649">
        <ele>1912.3</ele>
        <time>2021-03-26T08:18:00Z</time>
      </trkpt>
      <trkpt lat="45.63899" lon="6.84649">
        <ele>1912.4</ele>
        <time>2021-03-26T08:18:01Z</time>
      </trkpt>
      <trkpt lat="45.63899" lon="6.84649">
        <ele>1912.4</ele>
        <time>2021-03-26T08:18:02Z</time>
      </trkpt>
      <trkpt lat="45.639" lon="6.84648">
        <ele>1912.4</ele>
        <time>2021-03-26T08:18:03Z</time>
      </trkpt>
      <trkpt lat="45.63902" lon="6.84648">
        <ele>1912.5</ele>
        <time>2021-03-26T08:18:04Z</time>
      </trkpt>
      <trkpt lat="45.63904" lon="6.84647">
        <ele>1912.5</ele>
        <time>2021-03-26T08:18:05Z</time>
      </trkpt>
      <trkpt lat="45.63904" lon="6.84647">
        <ele>1912.6</ele>
        <time>2021-03-26T08:18:06Z</time>
      </trkpt>
      <trkpt lat="45.63905" lon="6.84647">
        <ele>1912.6</ele>
        <time>2021-03-26T08:18:07Z</time>
      </trkpt>
      <trkpt lat="45.63907" lon="6.84646">
        <ele>1912.7</ele>
        <time>2021-03-26T08:18:08Z</time>
      </trkpt>
      <trkpt lat="45.63908" lon="6.84646">
        <ele>1912.7</ele>
        <time>2021-03-26T08:18:09Z</time>
      </trkpt>
      <trkpt lat="45.63909" lon="6.84645">
        <ele>1912.7</ele>
        <time>2021-03-26T08:18:10Z</time>
      </trkpt>
      <trkpt lat="45.6391" lon="6.84645">
        <ele>1912.8</ele>
        <time>2021-03-26T08:18:11Z</time>
      </trkpt>
      <trkpt lat="45.63912" lon="6.84644">
        <ele>1912.8</ele>
        <time>2021-03-26T08:18:12Z</time>
      </trkpt>
      <trkpt lat="45.63913" lon="6.84644">
        <ele>1912.9</ele>
        <time>2021-03-26T08:18:13Z</time>
      </trkpt>
      <trkpt lat="45.63914" lon="6.84644">
        <ele>1912.9</ele>
        <time>2021-03-26T08:18:14Z</time>
      </trkpt>
      <trkpt lat="45.63915" lon="6.84644">
        <ele>1913</ele>
        <time>2021-03-26T08:18:15Z</time>
      </trkpt>
      <trkpt lat="45.63916" lon="6.84644">
        <ele>1913</ele>
        <time>2021-03-26T08:18:16Z</time>
      </trkpt>
      <trkpt lat="45.63917" lon="6.84643">
        <ele>1913</ele>
        <time>2021-03-26T08:18:17Z</time>
      </trkpt>
      <trkpt lat="45.63918" lon="6.84643">
        <ele>1913.1</ele>
        <time>2021-03-26T08:18:18Z</time>
      </trkpt>
      <trkpt lat="45.63919" lon="6.84643">
        <ele>1913.1</ele>
        <time>2021-03-26T08:18:19Z</time>
      </trkpt>
      <trkpt lat="45.6392" lon="6.84643">
        <ele>1913.1</ele>
        <time>2021-03-26T08:18:20Z</time>
      </trkpt>
      <trkpt lat="45.63921" lon="6.84643">
        <ele>1913.2</ele>
        <time>2021-03-26T08:18:21Z</time>
      </trkpt>
      <trkpt lat="45.63922" lon="6.84642">
        <ele>1913.2</ele>
        <time>2021-03-26T08:18:22Z</time>
      </trkpt>
      <trkpt lat="45.63924" lon="6.84642">
        <ele>1913.2</ele>
        <time>2021-03-26T08:18:23Z</time>
      </trkpt>
      <trkpt lat="45.63925" lon="6.84642">
        <ele>1913.3</ele>
        <time>2021-03-26T08:18:24Z</time>
      </trkpt>
      <trkpt lat="45.63926" lon="6.84641">
        <ele>1913.3</ele>
        <time>2021-03-26T08:18:25Z</time>
      </trkpt>
      <trkpt lat="45.63927" lon="6.84641">
        <ele>1913.3</ele>
        <time>2021-03-26T08:18:26Z</time>
      </trkpt>
      <trkpt lat="45.63928" lon="6.8464">
        <ele>1913.4</ele>
        <time>2021-03-26T08:18:27Z</time>
      </trkpt>
      <trkpt lat="45.63929" lon="6.8464">
        <ele>1913.4</ele>
        <time>2021-03-26T08:18:28Z</time>
      </trkpt>
      <trkpt lat="45.6393" lon="6.84639">
        <ele>1913.4</ele>
        <time>2021-03-26T08:18:29Z</time>
      </trkpt>
      <trkpt lat="45.63931" lon="6.84638">
        <ele>1913.5</ele>
        <time>2021-03-26T08:18:30Z</time>
      </trkpt>
      <trkpt lat="45.63932" lon="6.84638">
        <ele>1913.5</ele>
        <time>2021-03-26T08:18:31Z</time>
      </trkpt>
      <trkpt lat="45.63933" lon="6.84637">
        <ele>1913.6</ele>
        <time>2021-03-26T08:18:32Z</time>
      </trkpt>
      <trkpt lat="45.63934" lon="6.84636">
        <ele>1913.6</ele>
        <time>2021-03-26T08:18:33Z</time>
      </trkpt>
      <trkpt lat="45.63935" lon="6.84635">
        <ele>1913.6</ele>
        <time>2021-03-26T08:18:34Z</time>
      </trkpt>
      <trkpt lat="45.63936" lon="6.84634">
        <ele>1913.7</ele>
        <time>2021-03-26T08:18:35Z</time>
      </trkpt>
      <trkpt lat="45.63936" lon="6.84633">
        <ele>1913.7</ele>
        <time>2021-03-26T08:18:36Z</time>
      </trkpt>
      <trkpt lat="45.63937" lon="6.84631">
        <ele>1913.7</ele>
        <time>2021-03-26T08:18:37Z</time>
      </trkpt>
      <trkpt lat="45.63938" lon="6.8463">
        <ele>1913.8</ele>
        <time>2021-03-26T08:18:38Z</time>
      </trkpt>
      <trkpt lat="45.63939" lon="6.84628">
        <ele>1913.8</ele>
        <time>2021-03-26T08:18:39Z</time>
      </trkpt>
      <trkpt lat="45.6394" lon="6.84628">
        <ele>1913.9</ele>
        <time>2021-03-26T08:18:40Z</time>
      </trkpt>
      <trkpt lat="45.63941" lon="6.84627">
        <ele>1913.9</ele>
        <time>2021-03-26T08:18:41Z</time>
      </trkpt>
      <trkpt lat="45.63942" lon="6.84626">
        <ele>1913.9</ele>
        <time>2021-03-26T08:18:42Z</time>
      </trkpt>
      <trkpt lat="45.63943" lon="6.84625">
        <ele>1914</ele>
        <time>2021-03-26T08:18:43Z</time>
      </trkpt>
      <trkpt lat="45.63943" lon="6.84623">
        <ele>1914</ele>
        <time>2021-03-26T08:18:44Z</time>
      </trkpt>
      <trkpt lat="45.63944" lon="6.84622">
        <ele>1914</ele>
        <time>2021-03-26T08:18:45Z</time>
      </trkpt>
      <trkpt lat="45.63945" lon="6.84621">
        <ele>1914.1</ele>
        <time>2021-03-26T08:18:46Z</time>
      </trkpt>
      <trkpt lat="45.63946" lon="6.8462">
        <ele>1914.1</ele>
        <time>2021-03-26T08:18:47Z</time>
      </trkpt>
      <trkpt lat="45.63947" lon="6.84619">
        <ele>1914.2</ele>
        <time>2021-03-26T08:18:48Z</time>
      </trkpt>
      <trkpt lat="45.63948" lon="6.84618">
        <ele>1914.2</ele>
        <time>2021-03-26T08:18:49Z</time>
      </trkpt>
      <trkpt lat="45.63948" lon="6.84617">
        <ele>1914.2</ele>
        <time>2021-03-26T08:18:50Z</time>
      </trkpt>
      <trkpt lat="45.63949" lon="6.84616">
        <ele>1914.3</ele>
        <time>2021-03-26T08:18:51Z</time>
      </trkpt>
      <trkpt lat="45.63949" lon="6.84615">
        <ele>1914.3</ele>
        <time>2021-03-26T08:18:52Z</time>
      </trkpt>
      <trkpt lat="45.6395" lon="6.84614">
        <ele>1914.3</ele>
        <time>2021-03-26T08:18:53Z</time>
      </trkpt>
      <trkpt lat="45.63952" lon="6.84612">
        <ele>1914.4</ele>
        <time>2021-03-26T08:18:54Z</time>
      </trkpt>
      <trkpt lat="45.63953" lon="6.84611">
        <ele>1914.4</ele>
        <time>2021-03-26T08:18:55Z</time>
      </trkpt>
      <trkpt lat="45.63953" lon="6.8461">
        <ele>1914.5</ele>
        <time>2021-03-26T08:18:56Z</time>
      </trkpt>
      <trkpt lat="45.63955" lon="6.84608">
        <ele>1914.5</ele>
        <time>2021-03-26T08:18:57Z</time>
      </trkpt>
      <trkpt lat="45.63956" lon="6.84608">
        <ele>1914.6</ele>
        <time>2021-03-26T08:18:58Z</time>
      </trkpt>
      <trkpt lat="45.63957" lon="6.84607">
        <ele>1914.6</ele>
        <time>2021-03-26T08:18:59Z</time>
      </trkpt>
      <trkpt lat="45.63957" lon="6.84606">
        <ele>1914.6</ele>
        <time>2021-03-26T08:19:00Z</time>
      </trkpt>
      <trkpt lat="45.63958" lon="6.84605">
        <ele>1914.7</ele>
        <time>2021-03-26T08:19:01Z</time>
      </trkpt>
      <trkpt lat="45.63959" lon="6.84604">
        <ele>1914.7</ele>
        <time>2021-03-26T08:19:02Z</time>
      </trkpt>
      <trkpt lat="45.6396" lon="6.84603">
        <ele>1914.8</ele>
        <time>2021-03-26T08:19:03Z</time>
      </trkpt>
      <trkpt lat="45.63961" lon="6.84602">
        <ele>1914.8</ele>
        <time>2021-03-26T08:19:04Z</time>
      </trkpt>
      <trkpt lat="45.63962" lon="6.84601">
        <ele>1914.9</ele>
        <time>2021-03-26T08:19:05Z</time>
      </trkpt>
      <trkpt lat="45.63963" lon="6.846">
        <ele>1914.9</ele>
        <time>2021-03-26T08:19:06Z</time>
      </trkpt>
      <trkpt lat="45.63964" lon="6.84599">
        <ele>1914.9</ele>
        <time>2021-03-26T08:19:07Z</time>
      </trkpt>
      <trkpt lat="45.63965" lon="6.84598">
        <ele>1915</ele>
        <time>2021-03-26T08:19:08Z</time>
      </trkpt>
      <trkpt lat="45.63966" lon="6.84597">
        <ele>1915</ele>
        <time>2021-03-26T08:19:09Z</time>
      </trkpt>
      <trkpt lat="45.63967" lon="6.84596">
        <ele>1915.1</ele>
        <time>2021-03-26T08:19:10Z</time>
      </trkpt>
      <trkpt lat="45.63967" lon="6.84594">
        <ele>1915.1</ele>
        <time>2021-03-26T08:19:11Z</time>
      </trkpt>
      <trkpt lat="45.63968" lon="6.84593">
        <ele>1915.2</ele>
        <time>2021-03-26T08:19:12Z</time>
      </trkpt>
      <trkpt lat="45.63969" lon="6.84592">
        <ele>1915.2</ele>
        <time>2021-03-26T08:19:13Z</time>
      </trkpt>
      <trkpt lat="45.6397" lon="6.8459">
        <ele>1915.3</ele>
        <time>2021-03-26T08:19:14Z</time>
      </trkpt>
      <trkpt lat="45.63971" lon="6.84588">
        <ele>1915.4</ele>
        <time>2021-03-26T08:19:15Z</time>
      </trkpt>
      <trkpt lat="45.63972" lon="6.84588">
        <ele>1915.4</ele>
        <time>2021-03-26T08:19:16Z</time>
      </trkpt>
      <trkpt lat="45.63973" lon="6.84587">
        <ele>1915.4</ele>
        <time>2021-03-26T08:19:17Z</time>
      </trkpt>
      <trkpt lat="45.63974" lon="6.84586">
        <ele>1915.5</ele>
        <time>2021-03-26T08:19:18Z</time>
      </trkpt>
      <trkpt lat="45.63975" lon="6.84585">
        <ele>1915.6</ele>
        <time>2021-03-26T08:19:19Z</time>
      </trkpt>
      <trkpt lat="45.63976" lon="6.84585">
        <ele>1915.6</ele>
        <time>2021-03-26T08:19:20Z</time>
      </trkpt>
      <trkpt lat="45.63977" lon="6.84584">
        <ele>1915.7</ele>
        <time>2021-03-26T08:19:21Z</time>
      </trkpt>
      <trkpt lat="45.63978" lon="6.84583">
        <ele>1915.7</ele>
        <time>2021-03-26T08:19:22Z</time>
      </trkpt>
      <trkpt lat="45.63979" lon="6.84583">
        <ele>1915.8</ele>
        <time>2021-03-26T08:19:23Z</time>
      </trkpt>
      <trkpt lat="45.6398" lon="6.84582">
        <ele>1915.8</ele>
        <time>2021-03-26T08:19:24Z</time>
      </trkpt>
      <trkpt lat="45.63981" lon="6.84581">
        <ele>1915.9</ele>
        <time>2021-03-26T08:19:25Z</time>
      </trkpt>
      <trkpt lat="45.63982" lon="6.8458">
        <ele>1916</ele>
        <time>2021-03-26T08:19:26Z</time>
      </trkpt>
      <trkpt lat="45.63983" lon="6.84579">
        <ele>1916</ele>
        <time>2021-03-26T08:19:27Z</time>
      </trkpt>
      <trkpt lat="45.63984" lon="6.84578">
        <ele>1916.1</ele>
        <time>2021-03-26T08:19:28Z</time>
      </trkpt>
      <trkpt lat="45.63985" lon="6.84577">
        <ele>1916.1</ele>
        <time>2021-03-26T08:19:29Z</time>
      </trkpt>
      <trkpt lat="45.63987" lon="6.84575">
        <ele>1916.2</ele>
        <time>2021-03-26T08:19:30Z</time>
      </trkpt>
      <trkpt lat="45.63987" lon="6.84574">
        <ele>1916.3</ele>
        <time>2021-03-26T08:19:31Z</time>
      </trkpt>
      <trkpt lat="45.63988" lon="6.84574">
        <ele>1916.3</ele>
        <time>2021-03-26T08:19:32Z</time>
      </trkpt>
      <trkpt lat="45.63989" lon="6.84572">
        <ele>1916.4</ele>
        <time>2021-03-26T08:19:33Z</time>
      </trkpt>
      <trkpt lat="45.6399" lon="6.84571">
        <ele>1916.4</ele>
        <time>2021-03-26T08:19:34Z</time>
      </trkpt>
      <trkpt lat="45.6399" lon="6.8457">
        <ele>1916.5</ele>
        <time>2021-03-26T08:19:35Z</time>
      </trkpt>
      <trkpt lat="45.63991" lon="6.84569">
        <ele>1916.5</ele>
        <time>2021-03-26T08:19:36Z</time>
      </trkpt>
      <trkpt lat="45.63992" lon="6.84568">
        <ele>1916.6</ele>
        <time>2021-03-26T08:19:37Z</time>
      </trkpt>
      <trkpt lat="45.63993" lon="6.84567">
        <ele>1916.6</ele>
        <time>2021-03-26T08:19:38Z</time>
      </trkpt>
      <trkpt lat="45.63994" lon="6.84566">
        <ele>1916.7</ele>
        <time>2021-03-26T08:19:39Z</time>
      </trkpt>
      <trkpt lat="45.63995" lon="6.84565">
        <ele>1916.7</ele>
        <time>2021-03-26T08:19:40Z</time>
      </trkpt>
      <trkpt lat="45.63995" lon="6.84564">
        <ele>1916.8</ele>
        <time>2021-03-26T08:19:41Z</time>
      </trkpt>
      <trkpt lat="45.63996" lon="6.84564">
        <ele>1916.8</ele>
        <time>2021-03-26T08:19:42Z</time>
      </trkpt>
      <trkpt lat="45.63997" lon="6.84563">
        <ele>1916.8</ele>
        <time>2021-03-26T08:19:43Z</time>
      </trkpt>
      <trkpt lat="45.63998" lon="6.84562">
        <ele>1916.9</ele>
        <time>2021-03-26T08:19:44Z</time>
      </trkpt>
      <trkpt lat="45.63999" lon="6.84561">
        <ele>1916.9</ele>
        <time>2021-03-26T08:19:45Z</time>
      </trkpt>
      <trkpt lat="45.63999" lon="6.8456">
        <ele>1917</ele>
        <time>2021-03-26T08:19:46Z</time>
      </trkpt>
      <trkpt lat="45.64" lon="6.8456">
        <ele>1917</ele>
        <time>2021-03-26T08:19:47Z</time>
      </trkpt>
      <trkpt lat="45.64001" lon="6.84559">
        <ele>1917</ele>
        <time>2021-03-26T08:19:48Z</time>
      </trkpt>
      <trkpt lat="45.64002" lon="6.84558">
        <ele>1917.1</ele>
        <time>2021-03-26T08:19:49Z</time>
      </trkpt>
      <trkpt lat="45.64002" lon="6.84558">
        <ele>1917.1</ele>
        <time>2021-03-26T08:19:50Z</time>
      </trkpt>
      <trkpt lat="45.64003" lon="6.84557">
        <ele>1917.1</ele>
        <time>2021-03-26T08:19:51Z</time>
      </trkpt>
      <trkpt lat="45.64004" lon="6.84556">
        <ele>1917.2</ele>
        <time>2021-03-26T08:19:52Z</time>
      </trkpt>
      <trkpt lat="45.64005" lon="6.84556">
        <ele>1917.2</ele>
        <time>2021-03-26T08:19:53Z</time>
      </trkpt>
      <trkpt lat="45.64006" lon="6.84555">
        <ele>1917.3</ele>
        <time>2021-03-26T08:19:54Z</time>
      </trkpt>
      <trkpt lat="45.64007" lon="6.84554">
        <ele>1917.3</ele>
        <time>2021-03-26T08:19:55Z</time>
      </trkpt>
      <trkpt lat="45.64007" lon="6.84554">
        <ele>1917.3</ele>
        <time>2021-03-26T08:19:56Z</time>
      </trkpt>
      <trkpt lat="45.64008" lon="6.84553">
        <ele>1917.4</ele>
        <time>2021-03-26T08:19:57Z</time>
      </trkpt>
      <trkpt lat="45.64009" lon="6.84552">
        <ele>1917.4</ele>
        <time>2021-03-26T08:19:58Z</time>
      </trkpt>
      <trkpt lat="45.6401" lon="6.84551">
        <ele>1917.5</ele>
        <time>2021-03-26T08:19:59Z</time>
      </trkpt>
      <trkpt lat="45.64011" lon="6.84551">
        <ele>1917.5</ele>
        <time>2021-03-26T08:20:00Z</time>
      </trkpt>
      <trkpt lat="45.64011" lon="6.8455">
        <ele>1917.5</ele>
        <time>2021-03-26T08:20:01Z</time>
      </trkpt>
      <trkpt lat="45.64012" lon="6.84549">
        <ele>1917.6</ele>
        <time>2021-03-26T08:20:02Z</time>
      </trkpt>
      <trkpt lat="45.64013" lon="6.84548">
        <ele>1917.6</ele>
        <time>2021-03-26T08:20:03Z</time>
      </trkpt>
      <trkpt lat="45.64013" lon="6.84547">
        <ele>1917.6</ele>
        <time>2021-03-26T08:20:04Z</time>
      </trkpt>
      <trkpt lat="45.64014" lon="6.84546">
        <ele>1917.7</ele>
        <time>2021-03-26T08:20:05Z</time>
      </trkpt>
      <trkpt lat="45.64014" lon="6.84545">
        <ele>1917.7</ele>
        <time>2021-03-26T08:20:06Z</time>
      </trkpt>
      <trkpt lat="45.64015" lon="6.84544">
        <ele>1917.7</ele>
        <time>2021-03-26T08:20:07Z</time>
      </trkpt>
      <trkpt lat="45.64015" lon="6.84544">
        <ele>1917.8</ele>
        <time>2021-03-26T08:20:08Z</time>
      </trkpt>
      <trkpt lat="45.64016" lon="6.84543">
        <ele>1917.8</ele>
        <time>2021-03-26T08:20:09Z</time>
      </trkpt>
      <trkpt lat="45.64016" lon="6.84542">
        <ele>1917.8</ele>
        <time>2021-03-26T08:20:10Z</time>
      </trkpt>
      <trkpt lat="45.64017" lon="6.84542">
        <ele>1917.9</ele>
        <time>2021-03-26T08:20:11Z</time>
      </trkpt>
      <trkpt lat="45.64018" lon="6.84541">
        <ele>1917.9</ele>
        <time>2021-03-26T08:20:12Z</time>
      </trkpt>
      <trkpt lat="45.64019" lon="6.8454">
        <ele>1917.9</ele>
        <time>2021-03-26T08:20:13Z</time>
      </trkpt>
      <trkpt lat="45.6402" lon="6.8454">
        <ele>1918</ele>
        <time>2021-03-26T08:20:14Z</time>
      </trkpt>
      <trkpt lat="45.64021" lon="6.84539">
        <ele>1918</ele>
        <time>2021-03-26T08:20:15Z</time>
      </trkpt>
      <trkpt lat="45.64022" lon="6.84538">
        <ele>1918.1</ele>
        <time>2021-03-26T08:20:16Z</time>
      </trkpt>
      <trkpt lat="45.64023" lon="6.84538">
        <ele>1918.1</ele>
        <time>2021-03-26T08:20:17Z</time>
      </trkpt>
      <trkpt lat="45.64024" lon="6.84537">
        <ele>1918.2</ele>
        <time>2021-03-26T08:20:18Z</time>
      </trkpt>
      <trkpt lat="45.64025" lon="6.84537">
        <ele>1918.2</ele>
        <time>2021-03-26T08:20:19Z</time>
      </trkpt>
      <trkpt lat="45.64026" lon="6.84536">
        <ele>1918.3</ele>
        <time>2021-03-26T08:20:20Z</time>
      </trkpt>
      <trkpt lat="45.64026" lon="6.84535">
        <ele>1918.3</ele>
        <time>2021-03-26T08:20:21Z</time>
      </trkpt>
      <trkpt lat="45.64027" lon="6.84534">
        <ele>1918.3</ele>
        <time>2021-03-26T08:20:22Z</time>
      </trkpt>
      <trkpt lat="45.64028" lon="6.84534">
        <ele>1918.4</ele>
        <time>2021-03-26T08:20:23Z</time>
      </trkpt>
      <trkpt lat="45.64029" lon="6.84533">
        <ele>1918.4</ele>
        <time>2021-03-26T08:20:24Z</time>
      </trkpt>
      <trkpt lat="45.6403" lon="6.84533">
        <ele>1918.5</ele>
        <time>2021-03-26T08:20:25Z</time>
      </trkpt>
      <trkpt lat="45.64031" lon="6.84532">
        <ele>1918.5</ele>
        <time>2021-03-26T08:20:26Z</time>
      </trkpt>
      <trkpt lat="45.64032" lon="6.84532">
        <ele>1918.5</ele>
        <time>2021-03-26T08:20:27Z</time>
      </trkpt>
      <trkpt lat="45.64033" lon="6.84532">
        <ele>1918.6</ele>
        <time>2021-03-26T08:20:28Z</time>
      </trkpt>
      <trkpt lat="45.64034" lon="6.84531">
        <ele>1918.6</ele>
        <time>2021-03-26T08:20:29Z</time>
      </trkpt>
      <trkpt lat="45.64035" lon="6.84531">
        <ele>1918.6</ele>
        <time>2021-03-26T08:20:30Z</time>
      </trkpt>
      <trkpt lat="45.64035" lon="6.84531">
        <ele>1918.7</ele>
        <time>2021-03-26T08:20:31Z</time>
      </trkpt>
      <trkpt lat="45.64036" lon="6.8453">
        <ele>1918.7</ele>
        <time>2021-03-26T08:20:32Z</time>
      </trkpt>
      <trkpt lat="45.64037" lon="6.8453">
        <ele>1918.7</ele>
        <time>2021-03-26T08:20:33Z</time>
      </trkpt>
      <trkpt lat="45.64038" lon="6.8453">
        <ele>1918.8</ele>
        <time>2021-03-26T08:20:34Z</time>
      </trkpt>
      <trkpt lat="45.64039" lon="6.84529">
        <ele>1918.8</ele>
        <time>2021-03-26T08:20:35Z</time>
      </trkpt>
      <trkpt lat="45.6404" lon="6.84529">
        <ele>1918.8</ele>
        <time>2021-03-26T08:20:36Z</time>
      </trkpt>
      <trkpt lat="45.64041" lon="6.84529">
        <ele>1918.9</ele>
        <time>2021-03-26T08:20:37Z</time>
      </trkpt>
      <trkpt lat="45.64042" lon="6.84528">
        <ele>1918.9</ele>
        <time>2021-03-26T08:20:38Z</time>
      </trkpt>
      <trkpt lat="45.64043" lon="6.84528">
        <ele>1918.9</ele>
        <time>2021-03-26T08:20:39Z</time>
      </trkpt>
      <trkpt lat="45.64044" lon="6.84527">
        <ele>1919</ele>
        <time>2021-03-26T08:20:40Z</time>
      </trkpt>
      <trkpt lat="45.64044" lon="6.84527">
        <ele>1919</ele>
        <time>2021-03-26T08:20:41Z</time>
      </trkpt>
      <trkpt lat="45.64045" lon="6.84527">
        <ele>1919</ele>
        <time>2021-03-26T08:20:42Z</time>
      </trkpt>
      <trkpt lat="45.64046" lon="6.84527">
        <ele>1919.1</ele>
        <time>2021-03-26T08:20:43Z</time>
      </trkpt>
      <trkpt lat="45.64047" lon="6.84526">
        <ele>1919.1</ele>
        <time>2021-03-26T08:20:44Z</time>
      </trkpt>
      <trkpt lat="45.64048" lon="6.84526">
        <ele>1919.2</ele>
        <time>2021-03-26T08:20:45Z</time>
      </trkpt>
      <trkpt lat="45.64049" lon="6.84525">
        <ele>1919.2</ele>
        <time>2021-03-26T08:20:46Z</time>
      </trkpt>
      <trkpt lat="45.6405" lon="6.84525">
        <ele>1919.3</ele>
        <time>2021-03-26T08:20:47Z</time>
      </trkpt>
      <trkpt lat="45.64051" lon="6.84525">
        <ele>1919.3</ele>
        <time>2021-03-26T08:20:48Z</time>
      </trkpt>
      <trkpt lat="45.64052" lon="6.84524">
        <ele>1919.4</ele>
        <time>2021-03-26T08:20:49Z</time>
      </trkpt>
      <trkpt lat="45.64053" lon="6.84523">
        <ele>1919.4</ele>
        <time>2021-03-26T08:20:50Z</time>
      </trkpt>
      <trkpt lat="45.64054" lon="6.84523">
        <ele>1919.4</ele>
        <time>2021-03-26T08:20:51Z</time>
      </trkpt>
      <trkpt lat="45.64055" lon="6.84522">
        <ele>1919.5</ele>
        <time>2021-03-26T08:20:52Z</time>
      </trkpt>
      <trkpt lat="45.64056" lon="6.84521">
        <ele>1919.5</ele>
        <time>2021-03-26T08:20:53Z</time>
      </trkpt>
      <trkpt lat="45.64057" lon="6.84521">
        <ele>1919.6</ele>
        <time>2021-03-26T08:20:54Z</time>
      </trkpt>
      <trkpt lat="45.64058" lon="6.8452">
        <ele>1919.6</ele>
        <time>2021-03-26T08:20:55Z</time>
      </trkpt>
      <trkpt lat="45.64059" lon="6.84519">
        <ele>1919.7</ele>
        <time>2021-03-26T08:20:56Z</time>
      </trkpt>
      <trkpt lat="45.64061" lon="6.84518">
        <ele>1919.8</ele>
        <time>2021-03-26T08:20:57Z</time>
      </trkpt>
      <trkpt lat="45.64062" lon="6.84518">
        <ele>1919.8</ele>
        <time>2021-03-26T08:20:58Z</time>
      </trkpt>
      <trkpt lat="45.64063" lon="6.84518">
        <ele>1919.8</ele>
        <time>2021-03-26T08:20:59Z</time>
      </trkpt>
      <trkpt lat="45.64064" lon="6.84517">
        <ele>1919.9</ele>
        <time>2021-03-26T08:21:00Z</time>
      </trkpt>
      <trkpt lat="45.64065" lon="6.84517">
        <ele>1919.9</ele>
        <time>2021-03-26T08:21:01Z</time>
      </trkpt>
      <trkpt lat="45.64065" lon="6.84516">
        <ele>1920</ele>
        <time>2021-03-26T08:21:02Z</time>
      </trkpt>
      <trkpt lat="45.64066" lon="6.84515">
        <ele>1920</ele>
        <time>2021-03-26T08:21:03Z</time>
      </trkpt>
      <trkpt lat="45.64067" lon="6.84514">
        <ele>1920.1</ele>
        <time>2021-03-26T08:21:04Z</time>
      </trkpt>
      <trkpt lat="45.64068" lon="6.84513">
        <ele>1920.1</ele>
        <time>2021-03-26T08:21:05Z</time>
      </trkpt>
      <trkpt lat="45.64069" lon="6.84512">
        <ele>1920.2</ele>
        <time>2021-03-26T08:21:06Z</time>
      </trkpt>
      <trkpt lat="45.64069" lon="6.84511">
        <ele>1920.2</ele>
        <time>2021-03-26T08:21:07Z</time>
      </trkpt>
      <trkpt lat="45.6407" lon="6.84511">
        <ele>1920.2</ele>
        <time>2021-03-26T08:21:08Z</time>
      </trkpt>
      <trkpt lat="45.64071" lon="6.8451">
        <ele>1920.3</ele>
        <time>2021-03-26T08:21:09Z</time>
      </trkpt>
      <trkpt lat="45.64071" lon="6.8451">
        <ele>1920.3</ele>
        <time>2021-03-26T08:21:10Z</time>
      </trkpt>
      <trkpt lat="45.64072" lon="6.84509">
        <ele>1920.4</ele>
        <time>2021-03-26T08:21:11Z</time>
      </trkpt>
      <trkpt lat="45.64073" lon="6.84508">
        <ele>1920.4</ele>
        <time>2021-03-26T08:21:12Z</time>
      </trkpt>
      <trkpt lat="45.64074" lon="6.84507">
        <ele>1920.4</ele>
        <time>2021-03-26T08:21:13Z</time>
      </trkpt>
      <trkpt lat="45.64075" lon="6.84507">
        <ele>1920.5</ele>
        <time>2021-03-26T08:21:14Z</time>
      </trkpt>
      <trkpt lat="45.64076" lon="6.84506">
        <ele>1920.5</ele>
        <time>2021-03-26T08:21:15Z</time>
      </trkpt>
      <trkpt lat="45.64077" lon="6.84505">
        <ele>1920.6</ele>
        <time>2021-03-26T08:21:16Z</time>
      </trkpt>
      <trkpt lat="45.64078" lon="6.84504">
        <ele>1920.7</ele>
        <time>2021-03-26T08:21:17Z</time>
      </trkpt>
      <trkpt lat="45.64079" lon="6.84503">
        <ele>1920.7</ele>
        <time>2021-03-26T08:21:18Z</time>
      </trkpt>
      <trkpt lat="45.6408" lon="6.84502">
        <ele>1920.8</ele>
        <time>2021-03-26T08:21:19Z</time>
      </trkpt>
      <trkpt lat="45.64081" lon="6.84501">
        <ele>1920.9</ele>
        <time>2021-03-26T08:21:20Z</time>
      </trkpt>
      <trkpt lat="45.64081" lon="6.845">
        <ele>1920.9</ele>
        <time>2021-03-26T08:21:21Z</time>
      </trkpt>
      <trkpt lat="45.64082" lon="6.84499">
        <ele>1921</ele>
        <time>2021-03-26T08:21:22Z</time>
      </trkpt>
      <trkpt lat="45.64083" lon="6.84498">
        <ele>1921</ele>
        <time>2021-03-26T08:21:23Z</time>
      </trkpt>
      <trkpt lat="45.64084" lon="6.84497">
        <ele>1921.1</ele>
        <time>2021-03-26T08:21:24Z</time>
      </trkpt>
      <trkpt lat="45.64085" lon="6.84496">
        <ele>1921.1</ele>
        <time>2021-03-26T08:21:25Z</time>
      </trkpt>
      <trkpt lat="45.64086" lon="6.84495">
        <ele>1921.2</ele>
        <time>2021-03-26T08:21:26Z</time>
      </trkpt>
      <trkpt lat="45.64087" lon="6.84494">
        <ele>1921.3</ele>
        <time>2021-03-26T08:21:27Z</time>
      </trkpt>
      <trkpt lat="45.64088" lon="6.84493">
        <ele>1921.3</ele>
        <time>2021-03-26T08:21:28Z</time>
      </trkpt>
      <trkpt lat="45.64089" lon="6.84492">
        <ele>1921.4</ele>
        <time>2021-03-26T08:21:29Z</time>
      </trkpt>
      <trkpt lat="45.6409" lon="6.84491">
        <ele>1921.5</ele>
        <time>2021-03-26T08:21:30Z</time>
      </trkpt>
      <trkpt lat="45.64091" lon="6.8449">
        <ele>1921.5</ele>
        <time>2021-03-26T08:21:31Z</time>
      </trkpt>
      <trkpt lat="45.64092" lon="6.84489">
        <ele>1921.6</ele>
        <time>2021-03-26T08:21:32Z</time>
      </trkpt>
      <trkpt lat="45.64093" lon="6.84488">
        <ele>1921.7</ele>
        <time>2021-03-26T08:21:33Z</time>
      </trkpt>
      <trkpt lat="45.64094" lon="6.84488">
        <ele>1921.7</ele>
        <time>2021-03-26T08:21:34Z</time>
      </trkpt>
      <trkpt lat="45.64095" lon="6.84487">
        <ele>1921.8</ele>
        <time>2021-03-26T08:21:35Z</time>
      </trkpt>
      <trkpt lat="45.64096" lon="6.84486">
        <ele>1921.8</ele>
        <time>2021-03-26T08:21:36Z</time>
      </trkpt>
      <trkpt lat="45.64097" lon="6.84485">
        <ele>1921.9</ele>
        <time>2021-03-26T08:21:37Z</time>
      </trkpt>
      <trkpt lat="45.64098" lon="6.84484">
        <ele>1922</ele>
        <time>2021-03-26T08:21:38Z</time>
      </trkpt>
      <trkpt lat="45.64099" lon="6.84483">
        <ele>1922</ele>
        <time>2021-03-26T08:21:39Z</time>
      </trkpt>
      <trkpt lat="45.64099" lon="6.84482">
        <ele>1922.1</ele>
        <time>2021-03-26T08:21:40Z</time>
      </trkpt>
      <trkpt lat="45.641" lon="6.84481">
        <ele>1922.1</ele>
        <time>2021-03-26T08:21:41Z</time>
      </trkpt>
      <trkpt lat="45.64101" lon="6.84481">
        <ele>1922.2</ele>
        <time>2021-03-26T08:21:42Z</time>
      </trkpt>
      <trkpt lat="45.64102" lon="6.8448">
        <ele>1922.3</ele>
        <time>2021-03-26T08:21:43Z</time>
      </trkpt>
      <trkpt lat="45.64103" lon="6.84479">
        <ele>1922.3</ele>
        <time>2021-03-26T08:21:44Z</time>
      </trkpt>
      <trkpt lat="45.64104" lon="6.84478">
        <ele>1922.4</ele>
        <time>2021-03-26T08:21:45Z</time>
      </trkpt>
      <trkpt lat="45.64105" lon="6.84478">
        <ele>1922.4</ele>
        <time>2021-03-26T08:21:46Z</time>
      </trkpt>
      <trkpt lat="45.64106" lon="6.84477">
        <ele>1922.5</ele>
        <time>2021-03-26T08:21:47Z</time>
      </trkpt>
      <trkpt lat="45.64107" lon="6.84476">
        <ele>1922.5</ele>
        <time>2021-03-26T08:21:48Z</time>
      </trkpt>
      <trkpt lat="45.64107" lon="6.84475">
        <ele>1922.6</ele>
        <time>2021-03-26T08:21:49Z</time>
      </trkpt>
      <trkpt lat="45.64108" lon="6.84474">
        <ele>1922.6</ele>
        <time>2021-03-26T08:21:50Z</time>
      </trkpt>
      <trkpt lat="45.64109" lon="6.84473">
        <ele>1922.7</ele>
        <time>2021-03-26T08:21:51Z</time>
      </trkpt>
      <trkpt lat="45.6411" lon="6.84472">
        <ele>1922.8</ele>
        <time>2021-03-26T08:21:52Z</time>
      </trkpt>
      <trkpt lat="45.64111" lon="6.84471">
        <ele>1922.8</ele>
        <time>2021-03-26T08:21:53Z</time>
      </trkpt>
      <trkpt lat="45.64111" lon="6.8447">
        <ele>1922.9</ele>
        <time>2021-03-26T08:21:54Z</time>
      </trkpt>
      <trkpt lat="45.64112" lon="6.84469">
        <ele>1922.9</ele>
        <time>2021-03-26T08:21:55Z</time>
      </trkpt>
      <trkpt lat="45.64113" lon="6.84468">
        <ele>1923</ele>
        <time>2021-03-26T08:21:56Z</time>
      </trkpt>
      <trkpt lat="45.64114" lon="6.84467">
        <ele>1923.1</ele>
        <time>2021-03-26T08:21:57Z</time>
      </trkpt>
      <trkpt lat="45.64115" lon="6.84466">
        <ele>1923.1</ele>
        <time>2021-03-26T08:21:58Z</time>
      </trkpt>
      <trkpt lat="45.64115" lon="6.84465">
        <ele>1923.2</ele>
        <time>2021-03-26T08:21:59Z</time>
      </trkpt>
      <trkpt lat="45.64116" lon="6.84465">
        <ele>1923.2</ele>
        <time>2021-03-26T08:22:00Z</time>
      </trkpt>
      <trkpt lat="45.64117" lon="6.84464">
        <ele>1923.3</ele>
        <time>2021-03-26T08:22:01Z</time>
      </trkpt>
      <trkpt lat="45.64118" lon="6.84463">
        <ele>1923.4</ele>
        <time>2021-03-26T08:22:02Z</time>
      </trkpt>
      <trkpt lat="45.64119" lon="6.84462">
        <ele>1923.4</ele>
        <time>2021-03-26T08:22:03Z</time>
      </trkpt>
      <trkpt lat="45.6412" lon="6.84461">
        <ele>1923.5</ele>
        <time>2021-03-26T08:22:04Z</time>
      </trkpt>
      <trkpt lat="45.64121" lon="6.8446">
        <ele>1923.6</ele>
        <time>2021-03-26T08:22:05Z</time>
      </trkpt>
      <trkpt lat="45.64122" lon="6.8446">
        <ele>1923.6</ele>
        <time>2021-03-26T08:22:06Z</time>
      </trkpt>
      <trkpt lat="45.64123" lon="6.84459">
        <ele>1923.7</ele>
        <time>2021-03-26T08:22:07Z</time>
      </trkpt>
      <trkpt lat="45.64123" lon="6.84458">
        <ele>1923.7</ele>
        <time>2021-03-26T08:22:08Z</time>
      </trkpt>
      <trkpt lat="45.64124" lon="6.84458">
        <ele>1923.8</ele>
        <time>2021-03-26T08:22:09Z</time>
      </trkpt>
      <trkpt lat="45.64125" lon="6.84457">
        <ele>1923.8</ele>
        <time>2021-03-26T08:22:10Z</time>
      </trkpt>
      <trkpt lat="45.64126" lon="6.84456">
        <ele>1923.9</ele>
        <time>2021-03-26T08:22:11Z</time>
      </trkpt>
      <trkpt lat="45.64127" lon="6.84456">
        <ele>1924</ele>
        <time>2021-03-26T08:22:12Z</time>
      </trkpt>
      <trkpt lat="45.64129" lon="6.84455">
        <ele>1924</ele>
        <time>2021-03-26T08:22:13Z</time>
      </trkpt>
      <trkpt lat="45.6413" lon="6.84455">
        <ele>1924.1</ele>
        <time>2021-03-26T08:22:14Z</time>
      </trkpt>
      <trkpt lat="45.64131" lon="6.84454">
        <ele>1924.2</ele>
        <time>2021-03-26T08:22:15Z</time>
      </trkpt>
      <trkpt lat="45.64132" lon="6.84453">
        <ele>1924.3</ele>
        <time>2021-03-26T08:22:16Z</time>
      </trkpt>
      <trkpt lat="45.64133" lon="6.84452">
        <ele>1924.3</ele>
        <time>2021-03-26T08:22:17Z</time>
      </trkpt>
      <trkpt lat="45.64134" lon="6.84451">
        <ele>1924.4</ele>
        <time>2021-03-26T08:22:18Z</time>
      </trkpt>
      <trkpt lat="45.64135" lon="6.84451">
        <ele>1924.5</ele>
        <time>2021-03-26T08:22:19Z</time>
      </trkpt>
      <trkpt lat="45.64136" lon="6.8445">
        <ele>1924.5</ele>
        <time>2021-03-26T08:22:20Z</time>
      </trkpt>
      <trkpt lat="45.64137" lon="6.84449">
        <ele>1924.6</ele>
        <time>2021-03-26T08:22:21Z</time>
      </trkpt>
      <trkpt lat="45.64138" lon="6.84449">
        <ele>1924.6</ele>
        <time>2021-03-26T08:22:22Z</time>
      </trkpt>
      <trkpt lat="45.64139" lon="6.84448">
        <ele>1924.7</ele>
        <time>2021-03-26T08:22:23Z</time>
      </trkpt>
      <trkpt lat="45.6414" lon="6.84448">
        <ele>1924.8</ele>
        <time>2021-03-26T08:22:24Z</time>
      </trkpt>
      <trkpt lat="45.6414" lon="6.84447">
        <ele>1924.8</ele>
        <time>2021-03-26T08:22:25Z</time>
      </trkpt>
      <trkpt lat="45.64141" lon="6.84446">
        <ele>1924.9</ele>
        <time>2021-03-26T08:22:26Z</time>
      </trkpt>
      <trkpt lat="45.64142" lon="6.84446">
        <ele>1924.9</ele>
        <time>2021-03-26T08:22:27Z</time>
      </trkpt>
      <trkpt lat="45.64143" lon="6.84445">
        <ele>1925</ele>
        <time>2021-03-26T08:22:28Z</time>
      </trkpt>
      <trkpt lat="45.64144" lon="6.84444">
        <ele>1925</ele>
        <time>2021-03-26T08:22:29Z</time>
      </trkpt>
      <trkpt lat="45.64145" lon="6.84443">
        <ele>1925.1</ele>
        <time>2021-03-26T08:22:30Z</time>
      </trkpt>
      <trkpt lat="45.64146" lon="6.84442">
        <ele>1925.2</ele>
        <time>2021-03-26T08:22:31Z</time>
      </trkpt>
      <trkpt lat="45.64147" lon="6.84441">
        <ele>1925.2</ele>
        <time>2021-03-26T08:22:32Z</time>
      </trkpt>
      <trkpt lat="45.64147" lon="6.84441">
        <ele>1925.3</ele>
        <time>2021-03-26T08:22:33Z</time>
      </trkpt>
      <trkpt lat="45.64148" lon="6.8444">
        <ele>1925.3</ele>
        <time>2021-03-26T08:22:34Z</time>
      </trkpt>
      <trkpt lat="45.64149" lon="6.84439">
        <ele>1925.4</ele>
        <time>2021-03-26T08:22:35Z</time>
      </trkpt>
      <trkpt lat="45.6415" lon="6.84438">
        <ele>1925.5</ele>
        <time>2021-03-26T08:22:36Z</time>
      </trkpt>
      <trkpt lat="45.64151" lon="6.84437">
        <ele>1925.6</ele>
        <time>2021-03-26T08:22:37Z</time>
      </trkpt>
      <trkpt lat="45.64151" lon="6.84435">
        <ele>1925.6</ele>
        <time>2021-03-26T08:22:38Z</time>
      </trkpt>
      <trkpt lat="45.64152" lon="6.84434">
        <ele>1925.7</ele>
        <time>2021-03-26T08:22:39Z</time>
      </trkpt>
      <trkpt lat="45.64153" lon="6.84434">
        <ele>1925.7</ele>
        <time>2021-03-26T08:22:40Z</time>
      </trkpt>
      <trkpt lat="45.64154" lon="6.84433">
        <ele>1925.8</ele>
        <time>2021-03-26T08:22:41Z</time>
      </trkpt>
      <trkpt lat="45.64154" lon="6.84433">
        <ele>1925.8</ele>
        <time>2021-03-26T08:22:42Z</time>
      </trkpt>
      <trkpt lat="45.64155" lon="6.84432">
        <ele>1925.9</ele>
        <time>2021-03-26T08:22:43Z</time>
      </trkpt>
      <trkpt lat="45.64156" lon="6.84432">
        <ele>1925.9</ele>
        <time>2021-03-26T08:22:44Z</time>
      </trkpt>
      <trkpt lat="45.64157" lon="6.84432">
        <ele>1926</ele>
        <time>2021-03-26T08:22:45Z</time>
      </trkpt>
      <trkpt lat="45.64158" lon="6.84431">
        <ele>1926</ele>
        <time>2021-03-26T08:22:46Z</time>
      </trkpt>
      <trkpt lat="45.64159" lon="6.84431">
        <ele>1926.1</ele>
        <time>2021-03-26T08:22:47Z</time>
      </trkpt>
      <trkpt lat="45.6416" lon="6.84431">
        <ele>1926.2</ele>
        <time>2021-03-26T08:22:48Z</time>
      </trkpt>
      <trkpt lat="45.64161" lon="6.84431">
        <ele>1926.2</ele>
        <time>2021-03-26T08:22:49Z</time>
      </trkpt>
      <trkpt lat="45.64162" lon="6.8443">
        <ele>1926.2</ele>
        <time>2021-03-26T08:22:50Z</time>
      </trkpt>
      <trkpt lat="45.64162" lon="6.8443">
        <ele>1926.3</ele>
        <time>2021-03-26T08:22:51Z</time>
      </trkpt>
      <trkpt lat="45.64163" lon="6.84429">
        <ele>1926.3</ele>
        <time>2021-03-26T08:22:52Z</time>
      </trkpt>
      <trkpt lat="45.64164" lon="6.84429">
        <ele>1926.4</ele>
        <time>2021-03-26T08:22:53Z</time>
      </trkpt>
      <trkpt lat="45.64165" lon="6.84428">
        <ele>1926.4</ele>
        <time>2021-03-26T08:22:54Z</time>
      </trkpt>
      <trkpt lat="45.64166" lon="6.84428">
        <ele>1926.5</ele>
        <time>2021-03-26T08:22:55Z</time>
      </trkpt>
      <trkpt lat="45.64166" lon="6.84428">
        <ele>1926.5</ele>
        <time>2021-03-26T08:22:56Z</time>
      </trkpt>
      <trkpt lat="45.64167" lon="6.84428">
        <ele>1926.6</ele>
        <time>2021-03-26T08:22:57Z</time>
      </trkpt>
      <trkpt lat="45.64168" lon="6.84428">
        <ele>1926.6</ele>
        <time>2021-03-26T08:22:58Z</time>
      </trkpt>
      <trkpt lat="45.6417" lon="6.84428">
        <ele>1926.7</ele>
        <time>2021-03-26T08:22:59Z</time>
      </trkpt>
      <trkpt lat="45.6417" lon="6.84429">
        <ele>1926.7</ele>
        <time>2021-03-26T08:23:00Z</time>
      </trkpt>
      <trkpt lat="45.64171" lon="6.84429">
        <ele>1926.8</ele>
        <time>2021-03-26T08:23:01Z</time>
      </trkpt>
      <trkpt lat="45.64172" lon="6.84429">
        <ele>1926.8</ele>
        <time>2021-03-26T08:23:02Z</time>
      </trkpt>
      <trkpt lat="45.64173" lon="6.8443">
        <ele>1926.9</ele>
        <time>2021-03-26T08:23:03Z</time>
      </trkpt>
      <trkpt lat="45.64174" lon="6.84431">
        <ele>1926.9</ele>
        <time>2021-03-26T08:23:04Z</time>
      </trkpt>
      <trkpt lat="45.64175" lon="6.84432">
        <ele>1927</ele>
        <time>2021-03-26T08:23:05Z</time>
      </trkpt>
      <trkpt lat="45.64176" lon="6.84433">
        <ele>1927.1</ele>
        <time>2021-03-26T08:23:06Z</time>
      </trkpt>
      <trkpt lat="45.64177" lon="6.84433">
        <ele>1927.1</ele>
        <time>2021-03-26T08:23:07Z</time>
      </trkpt>
      <trkpt lat="45.64178" lon="6.84434">
        <ele>1927.2</ele>
        <time>2021-03-26T08:23:08Z</time>
      </trkpt>
      <trkpt lat="45.64178" lon="6.84435">
        <ele>1927.2</ele>
        <time>2021-03-26T08:23:09Z</time>
      </trkpt>
      <trkpt lat="45.64179" lon="6.84435">
        <ele>1927.3</ele>
        <time>2021-03-26T08:23:10Z</time>
      </trkpt>
      <trkpt lat="45.6418" lon="6.84436">
        <ele>1927.3</ele>
        <time>2021-03-26T08:23:11Z</time>
      </trkpt>
      <trkpt lat="45.64181" lon="6.84437">
        <ele>1927.3</ele>
        <time>2021-03-26T08:23:12Z</time>
      </trkpt>
      <trkpt lat="45.64182" lon="6.84437">
        <ele>1927.4</ele>
        <time>2021-03-26T08:23:13Z</time>
      </trkpt>
      <trkpt lat="45.64183" lon="6.84438">
        <ele>1927.4</ele>
        <time>2021-03-26T08:23:14Z</time>
      </trkpt>
      <trkpt lat="45.64183" lon="6.84438">
        <ele>1927.4</ele>
        <time>2021-03-26T08:23:15Z</time>
      </trkpt>
      <trkpt lat="45.64184" lon="6.84439">
        <ele>1927.5</ele>
        <time>2021-03-26T08:23:16Z</time>
      </trkpt>
      <trkpt lat="45.64184" lon="6.8444">
        <ele>1927.5</ele>
        <time>2021-03-26T08:23:17Z</time>
      </trkpt>
      <trkpt lat="45.64184" lon="6.8444">
        <ele>1927.5</ele>
        <time>2021-03-26T08:23:18Z</time>
      </trkpt>
      <trkpt lat="45.64184" lon="6.8444">
        <ele>1927.5</ele>
        <time>2021-03-26T08:23:19Z</time>
      </trkpt>
      <trkpt lat="45.64184" lon="6.8444">
        <ele>1927.5</ele>
        <time>2021-03-26T08:23:20Z</time>
      </trkpt>
      <trkpt lat="45.64184" lon="6.8444">
        <ele>1927.5</ele>
        <time>2021-03-26T08:23:21Z</time>
      </trkpt>
      <trkpt lat="45.64184" lon="6.8444">
        <ele>1927.5</ele>
        <time>2021-03-26T08:23:22Z</time>
      </trkpt>
      <trkpt lat="45.64184" lon="6.8444">
        <ele>1927.5</ele>
        <time>2021-03-26T08:23:23Z</time>
      </trkpt>
      <trkpt lat="45.64184" lon="6.8444">
        <ele>1927.5</ele>
        <time>2021-03-26T08:23:24Z</time>
      </trkpt>
      <trkpt lat="45.64184" lon="6.8444">
        <ele>1927.5</ele>
        <time>2021-03-26T08:23:25Z</time>
      </trkpt>
      <trkpt lat="45.64184" lon="6.8444">
        <ele>1927.5</ele>
        <time>2021-03-26T08:23:26Z</time>
      </trkpt>
      <trkpt lat="45.64189" lon="6.84448">
        <ele>1927.8</ele>
        <time>2021-03-26T08:26:10Z</time>
      </trkpt>
      <trkpt lat="45.64189" lon="6.8445">
        <ele>1927.8</ele>
        <time>2021-03-26T08:26:11Z</time>
      </trkpt>
      <trkpt lat="45.6419" lon="6.84451">
        <ele>1927.9</ele>
        <time>2021-03-26T08:26:12Z</time>
      </trkpt>
      <trkpt lat="45.6419" lon="6.84451">
        <ele>1927.9</ele>
        <time>2021-03-26T08:26:13Z</time>
      </trkpt>
      <trkpt lat="45.6419" lon="6.84452">
        <ele>1927.9</ele>
        <time>2021-03-26T08:26:14Z</time>
      </trkpt>
      <trkpt lat="45.64191" lon="6.84454">
        <ele>1928</ele>
        <time>2021-03-26T08:26:15Z</time>
      </trkpt>
      <trkpt lat="45.64191" lon="6.84455">
        <ele>1928</ele>
        <time>2021-03-26T08:26:16Z</time>
      </trkpt>
      <trkpt lat="45.64192" lon="6.84456">
        <ele>1928.1</ele>
        <time>2021-03-26T08:26:17Z</time>
      </trkpt>
      <trkpt lat="45.64193" lon="6.84457">
        <ele>1928.1</ele>
        <time>2021-03-26T08:26:18Z</time>
      </trkpt>
      <trkpt lat="45.64193" lon="6.84458">
        <ele>1928.1</ele>
        <time>2021-03-26T08:26:19Z</time>
      </trkpt>
      <trkpt lat="45.64193" lon="6.84459">
        <ele>1928.2</ele>
        <time>2021-03-26T08:26:20Z</time>
      </trkpt>
      <trkpt lat="45.64194" lon="6.8446">
        <ele>1928.2</ele>
        <time>2021-03-26T08:26:21Z</time>
      </trkpt>
      <trkpt lat="45.64195" lon="6.84462">
        <ele>1928.3</ele>
        <time>2021-03-26T08:26:22Z</time>
      </trkpt>
      <trkpt lat="45.64196" lon="6.84463">
        <ele>1928.3</ele>
        <time>2021-03-26T08:26:23Z</time>
      </trkpt>
      <trkpt lat="45.64197" lon="6.84463">
        <ele>1928.4</ele>
        <time>2021-03-26T08:26:24Z</time>
      </trkpt>
      <trkpt lat="45.64197" lon="6.84464">
        <ele>1928.4</ele>
        <time>2021-03-26T08:26:25Z</time>
      </trkpt>
      <trkpt lat="45.64198" lon="6.84465">
        <ele>1928.4</ele>
        <time>2021-03-26T08:26:26Z</time>
      </trkpt>
      <trkpt lat="45.64198" lon="6.84465">
        <ele>1928.4</ele>
        <time>2021-03-26T08:26:27Z</time>
      </trkpt>
      <trkpt lat="45.64199" lon="6.84465">
        <ele>1928.5</ele>
        <time>2021-03-26T08:26:28Z</time>
      </trkpt>
      <trkpt lat="45.64199" lon="6.84466">
        <ele>1928.5</ele>
        <time>2021-03-26T08:26:29Z</time>
      </trkpt>
      <trkpt lat="45.642" lon="6.84467">
        <ele>1928.5</ele>
        <time>2021-03-26T08:26:30Z</time>
      </trkpt>
      <trkpt lat="45.642" lon="6.84468">
        <ele>1928.6</ele>
        <time>2021-03-26T08:26:31Z</time>
      </trkpt>
      <trkpt lat="45.642" lon="6.84469">
        <ele>1928.6</ele>
        <time>2021-03-26T08:26:32Z</time>
      </trkpt>
      <trkpt lat="45.642" lon="6.84469">
        <ele>1928.6</ele>
        <time>2021-03-26T08:26:33Z</time>
      </trkpt>
      <trkpt lat="45.642" lon="6.84469">
        <ele>1928.6</ele>
        <time>2021-03-26T08:26:34Z</time>
      </trkpt>
      <trkpt lat="45.642" lon="6.8447">
        <ele>1928.6</ele>
        <time>2021-03-26T08:26:35Z</time>
      </trkpt>
      <trkpt lat="45.642" lon="6.8447">
        <ele>1928.6</ele>
        <time>2021-03-26T08:26:36Z</time>
      </trkpt>
      <trkpt lat="45.642" lon="6.84471">
        <ele>1928.7</ele>
        <time>2021-03-26T08:26:37Z</time>
      </trkpt>
      <trkpt lat="45.642" lon="6.84472">
        <ele>1928.7</ele>
        <time>2021-03-26T08:26:38Z</time>
      </trkpt>
      <trkpt lat="45.642" lon="6.84474">
        <ele>1928.7</ele>
        <time>2021-03-26T08:26:39Z</time>
      </trkpt>
      <trkpt lat="45.64201" lon="6.84475">
        <ele>1928.8</ele>
        <time>2021-03-26T08:26:40Z</time>
      </trkpt>
      <trkpt lat="45.64201" lon="6.84477">
        <ele>1928.8</ele>
        <time>2021-03-26T08:26:41Z</time>
      </trkpt>
      <trkpt lat="45.64201" lon="6.84478">
        <ele>1928.9</ele>
        <time>2021-03-26T08:26:42Z</time>
      </trkpt>
      <trkpt lat="45.64201" lon="6.84479">
        <ele>1928.9</ele>
        <time>2021-03-26T08:26:43Z</time>
      </trkpt>
      <trkpt lat="45.64201" lon="6.84481">
        <ele>1929</ele>
        <time>2021-03-26T08:26:44Z</time>
      </trkpt>
      <trkpt lat="45.64201" lon="6.84482">
        <ele>1929</ele>
        <time>2021-03-26T08:26:45Z</time>
      </trkpt>
      <trkpt lat="45.64201" lon="6.84484">
        <ele>1929.1</ele>
        <time>2021-03-26T08:26:46Z</time>
      </trkpt>
      <trkpt lat="45.64201" lon="6.84485">
        <ele>1929.1</ele>
        <time>2021-03-26T08:26:47Z</time>
      </trkpt>
      <trkpt lat="45.64201" lon="6.84487">
        <ele>1929.1</ele>
        <time>2021-03-26T08:26:48Z</time>
      </trkpt>
      <trkpt lat="45.64201" lon="6.84488">
        <ele>1929.2</ele>
        <time>2021-03-26T08:26:49Z</time>
      </trkpt>
      <trkpt lat="45.64201" lon="6.84489">
        <ele>1929.2</ele>
        <time>2021-03-26T08:26:50Z</time>
      </trkpt>
      <trkpt lat="45.64201" lon="6.8449">
        <ele>1929.2</ele>
        <time>2021-03-26T08:26:51Z</time>
      </trkpt>
      <trkpt lat="45.64201" lon="6.84492">
        <ele>1929.3</ele>
        <time>2021-03-26T08:26:52Z</time>
      </trkpt>
      <trkpt lat="45.64201" lon="6.84493">
        <ele>1929.3</ele>
        <time>2021-03-26T08:26:53Z</time>
      </trkpt>
      <trkpt lat="45.64202" lon="6.84495">
        <ele>1929.4</ele>
        <time>2021-03-26T08:26:54Z</time>
      </trkpt>
      <trkpt lat="45.64202" lon="6.84496">
        <ele>1929.4</ele>
        <time>2021-03-26T08:26:55Z</time>
      </trkpt>
      <trkpt lat="45.64202" lon="6.84497">
        <ele>1929.5</ele>
        <time>2021-03-26T08:26:56Z</time>
      </trkpt>
      <trkpt lat="45.64202" lon="6.84498">
        <ele>1929.5</ele>
        <time>2021-03-26T08:26:57Z</time>
      </trkpt>
      <trkpt lat="45.64203" lon="6.84499">
        <ele>1929.5</ele>
        <time>2021-03-26T08:26:58Z</time>
      </trkpt>
      <trkpt lat="45.64203" lon="6.845">
        <ele>1929.6</ele>
        <time>2021-03-26T08:26:59Z</time>
      </trkpt>
      <trkpt lat="45.64204" lon="6.84502">
        <ele>1929.6</ele>
        <time>2021-03-26T08:27:00Z</time>
      </trkpt>
      <trkpt lat="45.64204" lon="6.84504">
        <ele>1929.7</ele>
        <time>2021-03-26T08:27:01Z</time>
      </trkpt>
      <trkpt lat="45.64205" lon="6.84505">
        <ele>1929.7</ele>
        <time>2021-03-26T08:27:02Z</time>
      </trkpt>
      <trkpt lat="45.64205" lon="6.84506">
        <ele>1929.7</ele>
        <time>2021-03-26T08:27:03Z</time>
      </trkpt>
      <trkpt lat="45.64205" lon="6.84506">
        <ele>1929.8</ele>
        <time>2021-03-26T08:27:04Z</time>
      </trkpt>
      <trkpt lat="45.64206" lon="6.84509">
        <ele>1929.8</ele>
        <time>2021-03-26T08:27:05Z</time>
      </trkpt>
      <trkpt lat="45.64206" lon="6.84509">
        <ele>1929.9</ele>
        <time>2021-03-26T08:27:06Z</time>
      </trkpt>
      <trkpt lat="45.64206" lon="6.8451">
        <ele>1929.9</ele>
        <time>2021-03-26T08:27:07Z</time>
      </trkpt>
      <trkpt lat="45.64206" lon="6.84511">
        <ele>1929.9</ele>
        <time>2021-03-26T08:27:08Z</time>
      </trkpt>
      <trkpt lat="45.64207" lon="6.84513">
        <ele>1930</ele>
        <time>2021-03-26T08:27:09Z</time>
      </trkpt>
      <trkpt lat="45.64207" lon="6.84514">
        <ele>1930</ele>
        <time>2021-03-26T08:27:10Z</time>
      </trkpt>
      <trkpt lat="45.64207" lon="6.84516">
        <ele>1930</ele>
        <time>2021-03-26T08:27:11Z</time>
      </trkpt>
      <trkpt lat="45.64208" lon="6.84517">
        <ele>1930.1</ele>
        <time>2021-03-26T08:27:12Z</time>
      </trkpt>
      <trkpt lat="45.64208" lon="6.84518">
        <ele>1930.1</ele>
        <time>2021-03-26T08:27:13Z</time>
      </trkpt>
      <trkpt lat="45.64209" lon="6.84519">
        <ele>1930.1</ele>
        <time>2021-03-26T08:27:14Z</time>
      </trkpt>
      <trkpt lat="45.64209" lon="6.8452">
        <ele>1930.2</ele>
        <time>2021-03-26T08:27:15Z</time>
      </trkpt>
      <trkpt lat="45.64209" lon="6.84521">
        <ele>1930.2</ele>
        <time>2021-03-26T08:27:16Z</time>
      </trkpt>
      <trkpt lat="45.6421" lon="6.84523">
        <ele>1930.2</ele>
        <time>2021-03-26T08:27:17Z</time>
      </trkpt>
      <trkpt lat="45.6421" lon="6.84524">
        <ele>1930.3</ele>
        <time>2021-03-26T08:27:18Z</time>
      </trkpt>
      <trkpt lat="45.64211" lon="6.84525">
        <ele>1930.3</ele>
        <time>2021-03-26T08:27:19Z</time>
      </trkpt>
      <trkpt lat="45.64211" lon="6.84526">
        <ele>1930.3</ele>
        <time>2021-03-26T08:27:20Z</time>
      </trkpt>
      <trkpt lat="45.64212" lon="6.84527">
        <ele>1930.4</ele>
        <time>2021-03-26T08:27:21Z</time>
      </trkpt>
      <trkpt lat="45.64212" lon="6.84528">
        <ele>1930.4</ele>
        <time>2021-03-26T08:27:22Z</time>
      </trkpt>
      <trkpt lat="45.64213" lon="6.84529">
        <ele>1930.4</ele>
        <time>2021-03-26T08:27:23Z</time>
      </trkpt>
      <trkpt lat="45.64214" lon="6.8453">
        <ele>1930.5</ele>
        <time>2021-03-26T08:27:24Z</time>
      </trkpt>
      <trkpt lat="45.64215" lon="6.84531">
        <ele>1930.5</ele>
        <time>2021-03-26T08:27:25Z</time>
      </trkpt>
      <trkpt lat="45.64215" lon="6.84533">
        <ele>1930.5</ele>
        <time>2021-03-26T08:27:26Z</time>
      </trkpt>
      <trkpt lat="45.64216" lon="6.84534">
        <ele>1930.6</ele>
        <time>2021-03-26T08:27:27Z</time>
      </trkpt>
      <trkpt lat="45.64217" lon="6.84535">
        <ele>1930.6</ele>
        <time>2021-03-26T08:27:28Z</time>
      </trkpt>
      <trkpt lat="45.64217" lon="6.84537">
        <ele>1930.7</ele>
        <time>2021-03-26T08:27:29Z</time>
      </trkpt>
      <trkpt lat="45.64218" lon="6.84538">
        <ele>1930.7</ele>
        <time>2021-03-26T08:27:30Z</time>
      </trkpt>
      <trkpt lat="45.64219" lon="6.84541">
        <ele>1930.8</ele>
        <time>2021-03-26T08:27:31Z</time>
      </trkpt>
      <trkpt lat="45.6422" lon="6.84542">
        <ele>1930.8</ele>
        <time>2021-03-26T08:27:32Z</time>
      </trkpt>
      <trkpt lat="45.6422" lon="6.84543">
        <ele>1930.8</ele>
        <time>2021-03-26T08:27:33Z</time>
      </trkpt>
      <trkpt lat="45.64221" lon="6.84545">
        <ele>1930.9</ele>
        <time>2021-03-26T08:27:34Z</time>
      </trkpt>
      <trkpt lat="45.64222" lon="6.84546">
        <ele>1930.9</ele>
        <time>2021-03-26T08:27:35Z</time>
      </trkpt>
      <trkpt lat="45.64222" lon="6.84547">
        <ele>1930.9</ele>
        <time>2021-03-26T08:27:36Z</time>
      </trkpt>
      <trkpt lat="45.64223" lon="6.84549">
        <ele>1931</ele>
        <time>2021-03-26T08:27:37Z</time>
      </trkpt>
      <trkpt lat="45.64224" lon="6.8455">
        <ele>1931</ele>
        <time>2021-03-26T08:27:38Z</time>
      </trkpt>
      <trkpt lat="45.64224" lon="6.84552">
        <ele>1931</ele>
        <time>2021-03-26T08:27:39Z</time>
      </trkpt>
      <trkpt lat="45.64225" lon="6.84553">
        <ele>1931</ele>
        <time>2021-03-26T08:27:40Z</time>
      </trkpt>
      <trkpt lat="45.64225" lon="6.84554">
        <ele>1931.1</ele>
        <time>2021-03-26T08:27:41Z</time>
      </trkpt>
      <trkpt lat="45.64226" lon="6.84555">
        <ele>1931.1</ele>
        <time>2021-03-26T08:27:42Z</time>
      </trkpt>
      <trkpt lat="45.64226" lon="6.84556">
        <ele>1931.1</ele>
        <time>2021-03-26T08:27:43Z</time>
      </trkpt>
      <trkpt lat="45.64227" lon="6.84557">
        <ele>1931.1</ele>
        <time>2021-03-26T08:27:44Z</time>
      </trkpt>
      <trkpt lat="45.64227" lon="6.84558">
        <ele>1931.1</ele>
        <time>2021-03-26T08:27:45Z</time>
      </trkpt>
      <trkpt lat="45.64228" lon="6.84558">
        <ele>1931.2</ele>
        <time>2021-03-26T08:27:46Z</time>
      </trkpt>
      <trkpt lat="45.64229" lon="6.8456">
        <ele>1931.2</ele>
        <time>2021-03-26T08:27:47Z</time>
      </trkpt>
      <trkpt lat="45.64229" lon="6.84561">
        <ele>1931.2</ele>
        <time>2021-03-26T08:27:48Z</time>
      </trkpt>
      <trkpt lat="45.6423" lon="6.84562">
        <ele>1931.2</ele>
        <time>2021-03-26T08:27:49Z</time>
      </trkpt>
      <trkpt lat="45.64231" lon="6.84563">
        <ele>1931.3</ele>
        <time>2021-03-26T08:27:50Z</time>
      </trkpt>
      <trkpt lat="45.64231" lon="6.84564">
        <ele>1931.3</ele>
        <time>2021-03-26T08:27:51Z</time>
      </trkpt>
      <trkpt lat="45.64232" lon="6.84566">
        <ele>1931.3</ele>
        <time>2021-03-26T08:27:52Z</time>
      </trkpt>
      <trkpt lat="45.64233" lon="6.84567">
        <ele>1931.3</ele>
        <time>2021-03-26T08:27:53Z</time>
      </trkpt>
      <trkpt lat="45.64233" lon="6.84568">
        <ele>1931.3</ele>
        <time>2021-03-26T08:27:54Z</time>
      </trkpt>
      <trkpt lat="45.64234" lon="6.84569">
        <ele>1931.4</ele>
        <time>2021-03-26T08:27:55Z</time>
      </trkpt>
      <trkpt lat="45.64235" lon="6.8457">
        <ele>1931.4</ele>
        <time>2021-03-26T08:27:56Z</time>
      </trkpt>
      <trkpt lat="45.64236" lon="6.84572">
        <ele>1931.4</ele>
        <time>2021-03-26T08:27:57Z</time>
      </trkpt>
      <trkpt lat="45.64236" lon="6.84573">
        <ele>1931.4</ele>
        <time>2021-03-26T08:27:58Z</time>
      </trkpt>
      <trkpt lat="45.64237" lon="6.84574">
        <ele>1931.4</ele>
        <time>2021-03-26T08:27:59Z</time>
      </trkpt>
      <trkpt lat="45.64238" lon="6.84575">
        <ele>1931.5</ele>
        <time>2021-03-26T08:28:00Z</time>
      </trkpt>
      <trkpt lat="45.64239" lon="6.84576">
        <ele>1931.5</ele>
        <time>2021-03-26T08:28:01Z</time>
      </trkpt>
      <trkpt lat="45.6424" lon="6.84577">
        <ele>1931.5</ele>
        <time>2021-03-26T08:28:02Z</time>
      </trkpt>
      <trkpt lat="45.64241" lon="6.84578">
        <ele>1931.5</ele>
        <time>2021-03-26T08:28:03Z</time>
      </trkpt>
      <trkpt lat="45.64241" lon="6.84579">
        <ele>1931.5</ele>
        <time>2021-03-26T08:28:04Z</time>
      </trkpt>
      <trkpt lat="45.64241" lon="6.8458">
        <ele>1931.5</ele>
        <time>2021-03-26T08:28:05Z</time>
      </trkpt>
      <trkpt lat="45.64243" lon="6.84581">
        <ele>1931.6</ele>
        <time>2021-03-26T08:28:06Z</time>
      </trkpt>
      <trkpt lat="45.64244" lon="6.84581">
        <ele>1931.6</ele>
        <time>2021-03-26T08:28:07Z</time>
      </trkpt>
      <trkpt lat="45.64244" lon="6.84582">
        <ele>1931.6</ele>
        <time>2021-03-26T08:28:08Z</time>
      </trkpt>
      <trkpt lat="45.64246" lon="6.84583">
        <ele>1931.6</ele>
        <time>2021-03-26T08:28:09Z</time>
      </trkpt>
      <trkpt lat="45.64246" lon="6.84583">
        <ele>1931.6</ele>
        <time>2021-03-26T08:28:10Z</time>
      </trkpt>
      <trkpt lat="45.64247" lon="6.84584">
        <ele>1931.6</ele>
        <time>2021-03-26T08:28:11Z</time>
      </trkpt>
      <trkpt lat="45.64249" lon="6.84586">
        <ele>1931.7</ele>
        <time>2021-03-26T08:28:12Z</time>
      </trkpt>
      <trkpt lat="45.64249" lon="6.84587">
        <ele>1931.7</ele>
        <time>2021-03-26T08:28:13Z</time>
      </trkpt>
      <trkpt lat="45.6425" lon="6.84588">
        <ele>1931.7</ele>
        <time>2021-03-26T08:28:14Z</time>
      </trkpt>
      <trkpt lat="45.64251" lon="6.84589">
        <ele>1931.7</ele>
        <time>2021-03-26T08:28:15Z</time>
      </trkpt>
      <trkpt lat="45.64251" lon="6.8459">
        <ele>1931.7</ele>
        <time>2021-03-26T08:28:16Z</time>
      </trkpt>
      <trkpt lat="45.64252" lon="6.84591">
        <ele>1931.8</ele>
        <time>2021-03-26T08:28:17Z</time>
      </trkpt>
      <trkpt lat="45.64253" lon="6.84592">
        <ele>1931.8</ele>
        <time>2021-03-26T08:28:18Z</time>
      </trkpt>
      <trkpt lat="45.64253" lon="6.84593">
        <ele>1931.8</ele>
        <time>2021-03-26T08:28:19Z</time>
      </trkpt>
      <trkpt lat="45.64254" lon="6.84594">
        <ele>1931.8</ele>
        <time>2021-03-26T08:28:20Z</time>
      </trkpt>
      <trkpt lat="45.64255" lon="6.84595">
        <ele>1931.8</ele>
        <time>2021-03-26T08:28:21Z</time>
      </trkpt>
      <trkpt lat="45.64255" lon="6.84596">
        <ele>1931.8</ele>
        <time>2021-03-26T08:28:22Z</time>
      </trkpt>
      <trkpt lat="45.64256" lon="6.84597">
        <ele>1931.8</ele>
        <time>2021-03-26T08:28:23Z</time>
      </trkpt>
      <trkpt lat="45.64257" lon="6.84598">
        <ele>1931.9</ele>
        <time>2021-03-26T08:28:24Z</time>
      </trkpt>
      <trkpt lat="45.64257" lon="6.84599">
        <ele>1931.9</ele>
        <time>2021-03-26T08:28:25Z</time>
      </trkpt>
      <trkpt lat="45.64258" lon="6.846">
        <ele>1931.9</ele>
        <time>2021-03-26T08:28:26Z</time>
      </trkpt>
      <trkpt lat="45.64258" lon="6.84601">
        <ele>1931.9</ele>
        <time>2021-03-26T08:28:27Z</time>
      </trkpt>
      <trkpt lat="45.64259" lon="6.84602">
        <ele>1931.9</ele>
        <time>2021-03-26T08:28:28Z</time>
      </trkpt>
      <trkpt lat="45.6426" lon="6.84604">
        <ele>1932</ele>
        <time>2021-03-26T08:28:29Z</time>
      </trkpt>
      <trkpt lat="45.6426" lon="6.84605">
        <ele>1932</ele>
        <time>2021-03-26T08:28:30Z</time>
      </trkpt>
      <trkpt lat="45.64261" lon="6.84606">
        <ele>1932</ele>
        <time>2021-03-26T08:28:31Z</time>
      </trkpt>
      <trkpt lat="45.64262" lon="6.84607">
        <ele>1932</ele>
        <time>2021-03-26T08:28:32Z</time>
      </trkpt>
      <trkpt lat="45.64263" lon="6.84609">
        <ele>1932.1</ele>
        <time>2021-03-26T08:28:33Z</time>
      </trkpt>
      <trkpt lat="45.64263" lon="6.8461">
        <ele>1932.1</ele>
        <time>2021-03-26T08:28:34Z</time>
      </trkpt>
      <trkpt lat="45.64264" lon="6.84611">
        <ele>1932.1</ele>
        <time>2021-03-26T08:28:35Z</time>
      </trkpt>
      <trkpt lat="45.64265" lon="6.84612">
        <ele>1932.1</ele>
        <time>2021-03-26T08:28:36Z</time>
      </trkpt>
      <trkpt lat="45.64266" lon="6.84613">
        <ele>1932.2</ele>
        <time>2021-03-26T08:28:37Z</time>
      </trkpt>
      <trkpt lat="45.64266" lon="6.84614">
        <ele>1932.2</ele>
        <time>2021-03-26T08:28:38Z</time>
      </trkpt>
      <trkpt lat="45.64267" lon="6.84615">
        <ele>1932.2</ele>
        <time>2021-03-26T08:28:39Z</time>
      </trkpt>
      <trkpt lat="45.64268" lon="6.84616">
        <ele>1932.3</ele>
        <time>2021-03-26T08:28:40Z</time>
      </trkpt>
      <trkpt lat="45.64268" lon="6.84617">
        <ele>1932.3</ele>
        <time>2021-03-26T08:28:41Z</time>
      </trkpt>
      <trkpt lat="45.64269" lon="6.84618">
        <ele>1932.3</ele>
        <time>2021-03-26T08:28:42Z</time>
      </trkpt>
      <trkpt lat="45.6427" lon="6.84619">
        <ele>1932.3</ele>
        <time>2021-03-26T08:28:43Z</time>
      </trkpt>
      <trkpt lat="45.64271" lon="6.84621">
        <ele>1932.4</ele>
        <time>2021-03-26T08:28:44Z</time>
      </trkpt>
      <trkpt lat="45.64271" lon="6.84622">
        <ele>1932.4</ele>
        <time>2021-03-26T08:28:45Z</time>
      </trkpt>
      <trkpt lat="45.64272" lon="6.84623">
        <ele>1932.4</ele>
        <time>2021-03-26T08:28:46Z</time>
      </trkpt>
      <trkpt lat="45.64273" lon="6.84624">
        <ele>1932.5</ele>
        <time>2021-03-26T08:28:47Z</time>
      </trkpt>
      <trkpt lat="45.64274" lon="6.84625">
        <ele>1932.5</ele>
        <time>2021-03-26T08:28:48Z</time>
      </trkpt>
      <trkpt lat="45.64274" lon="6.84626">
        <ele>1932.5</ele>
        <time>2021-03-26T08:28:49Z</time>
      </trkpt>
      <trkpt lat="45.64275" lon="6.84627">
        <ele>1932.6</ele>
        <time>2021-03-26T08:28:50Z</time>
      </trkpt>
      <trkpt lat="45.64276" lon="6.84628">
        <ele>1932.6</ele>
        <time>2021-03-26T08:28:51Z</time>
      </trkpt>
      <trkpt lat="45.64276" lon="6.84629">
        <ele>1932.6</ele>
        <time>2021-03-26T08:28:52Z</time>
      </trkpt>
      <trkpt lat="45.64277" lon="6.84631">
        <ele>1932.6</ele>
        <time>2021-03-26T08:28:53Z</time>
      </trkpt>
      <trkpt lat="45.64278" lon="6.84632">
        <ele>1932.7</ele>
        <time>2021-03-26T08:28:54Z</time>
      </trkpt>
      <trkpt lat="45.64278" lon="6.84633">
        <ele>1932.7</ele>
        <time>2021-03-26T08:28:55Z</time>
      </trkpt>
      <trkpt lat="45.64279" lon="6.84634">
        <ele>1932.7</ele>
        <time>2021-03-26T08:28:56Z</time>
      </trkpt>
      <trkpt lat="45.64279" lon="6.84635">
        <ele>1932.8</ele>
        <time>2021-03-26T08:28:57Z</time>
      </trkpt>
      <trkpt lat="45.6428" lon="6.84636">
        <ele>1932.8</ele>
        <time>2021-03-26T08:28:58Z</time>
      </trkpt>
      <trkpt lat="45.64281" lon="6.84637">
        <ele>1932.8</ele>
        <time>2021-03-26T08:28:59Z</time>
      </trkpt>
      <trkpt lat="45.64282" lon="6.84637">
        <ele>1932.8</ele>
        <time>2021-03-26T08:29:00Z</time>
      </trkpt>
      <trkpt lat="45.64282" lon="6.84638">
        <ele>1932.9</ele>
        <time>2021-03-26T08:29:01Z</time>
      </trkpt>
      <trkpt lat="45.64282" lon="6.84639">
        <ele>1932.9</ele>
        <time>2021-03-26T08:29:02Z</time>
      </trkpt>
      <trkpt lat="45.64283" lon="6.84641">
        <ele>1932.9</ele>
        <time>2021-03-26T08:29:03Z</time>
      </trkpt>
      <trkpt lat="45.64283" lon="6.84642">
        <ele>1933</ele>
        <time>2021-03-26T08:29:04Z</time>
      </trkpt>
      <trkpt lat="45.64284" lon="6.84643">
        <ele>1933</ele>
        <time>2021-03-26T08:29:05Z</time>
      </trkpt>
      <trkpt lat="45.64285" lon="6.84645">
        <ele>1933</ele>
        <time>2021-03-26T08:29:06Z</time>
      </trkpt>
      <trkpt lat="45.64285" lon="6.84645">
        <ele>1933.1</ele>
        <time>2021-03-26T08:29:07Z</time>
      </trkpt>
      <trkpt lat="45.64286" lon="6.84647">
        <ele>1933.1</ele>
        <time>2021-03-26T08:29:08Z</time>
      </trkpt>
      <trkpt lat="45.64287" lon="6.84648">
        <ele>1933.2</ele>
        <time>2021-03-26T08:29:09Z</time>
      </trkpt>
      <trkpt lat="45.64288" lon="6.84649">
        <ele>1933.2</ele>
        <time>2021-03-26T08:29:10Z</time>
      </trkpt>
      <trkpt lat="45.64288" lon="6.8465">
        <ele>1933.2</ele>
        <time>2021-03-26T08:29:11Z</time>
      </trkpt>
      <trkpt lat="45.64289" lon="6.84652">
        <ele>1933.3</ele>
        <time>2021-03-26T08:29:12Z</time>
      </trkpt>
      <trkpt lat="45.6429" lon="6.84653">
        <ele>1933.3</ele>
        <time>2021-03-26T08:29:13Z</time>
      </trkpt>
      <trkpt lat="45.6429" lon="6.84654">
        <ele>1933.4</ele>
        <time>2021-03-26T08:29:14Z</time>
      </trkpt>
      <trkpt lat="45.64291" lon="6.84655">
        <ele>1933.4</ele>
        <time>2021-03-26T08:29:15Z</time>
      </trkpt>
      <trkpt lat="45.64292" lon="6.84656">
        <ele>1933.5</ele>
        <time>2021-03-26T08:29:16Z</time>
      </trkpt>
      <trkpt lat="45.64292" lon="6.84658">
        <ele>1933.5</ele>
        <time>2021-03-26T08:29:17Z</time>
      </trkpt>
      <trkpt lat="45.64293" lon="6.84659">
        <ele>1933.5</ele>
        <time>2021-03-26T08:29:18Z</time>
      </trkpt>
      <trkpt lat="45.64294" lon="6.8466">
        <ele>1933.6</ele>
        <time>2021-03-26T08:29:19Z</time>
      </trkpt>
      <trkpt lat="45.64294" lon="6.84661">
        <ele>1933.6</ele>
        <time>2021-03-26T08:29:20Z</time>
      </trkpt>
      <trkpt lat="45.64295" lon="6.84663">
        <ele>1933.7</ele>
        <time>2021-03-26T08:29:21Z</time>
      </trkpt>
      <trkpt lat="45.64296" lon="6.84664">
        <ele>1933.7</ele>
        <time>2021-03-26T08:29:22Z</time>
      </trkpt>
      <trkpt lat="45.64296" lon="6.84665">
        <ele>1933.8</ele>
        <time>2021-03-26T08:29:23Z</time>
      </trkpt>
      <trkpt lat="45.64297" lon="6.84666">
        <ele>1933.8</ele>
        <time>2021-03-26T08:29:24Z</time>
      </trkpt>
      <trkpt lat="45.64298" lon="6.84667">
        <ele>1933.9</ele>
        <time>2021-03-26T08:29:25Z</time>
      </trkpt>
      <trkpt lat="45.64298" lon="6.84668">
        <ele>1933.9</ele>
        <time>2021-03-26T08:29:26Z</time>
      </trkpt>
      <trkpt lat="45.64299" lon="6.8467">
        <ele>1934</ele>
        <time>2021-03-26T08:29:27Z</time>
      </trkpt>
      <trkpt lat="45.643" lon="6.84671">
        <ele>1934</ele>
        <time>2021-03-26T08:29:28Z</time>
      </trkpt>
      <trkpt lat="45.643" lon="6.84672">
        <ele>1934.1</ele>
        <time>2021-03-26T08:29:29Z</time>
      </trkpt>
      <trkpt lat="45.64301" lon="6.84673">
        <ele>1934.1</ele>
        <time>2021-03-26T08:29:30Z</time>
      </trkpt>
      <trkpt lat="45.64302" lon="6.84675">
        <ele>1934.2</ele>
        <time>2021-03-26T08:29:31Z</time>
      </trkpt>
      <trkpt lat="45.64303" lon="6.84676">
        <ele>1934.2</ele>
        <time>2021-03-26T08:29:32Z</time>
      </trkpt>
      <trkpt lat="45.64304" lon="6.84677">
        <ele>1934.3</ele>
        <time>2021-03-26T08:29:33Z</time>
      </trkpt>
      <trkpt lat="45.64304" lon="6.84678">
        <ele>1934.3</ele>
        <time>2021-03-26T08:29:34Z</time>
      </trkpt>
      <trkpt lat="45.64305" lon="6.84679">
        <ele>1934.4</ele>
        <time>2021-03-26T08:29:35Z</time>
      </trkpt>
      <trkpt lat="45.64306" lon="6.84681">
        <ele>1934.5</ele>
        <time>2021-03-26T08:29:36Z</time>
      </trkpt>
      <trkpt lat="45.64307" lon="6.84682">
        <ele>1934.5</ele>
        <time>2021-03-26T08:29:37Z</time>
      </trkpt>
      <trkpt lat="45.64307" lon="6.84683">
        <ele>1934.6</ele>
        <time>2021-03-26T08:29:38Z</time>
      </trkpt>
      <trkpt lat="45.64308" lon="6.84684">
        <ele>1934.6</ele>
        <time>2021-03-26T08:29:39Z</time>
      </trkpt>
      <trkpt lat="45.64309" lon="6.84685">
        <ele>1934.7</ele>
        <time>2021-03-26T08:29:40Z</time>
      </trkpt>
      <trkpt lat="45.64309" lon="6.84687">
        <ele>1934.7</ele>
        <time>2021-03-26T08:29:41Z</time>
      </trkpt>
      <trkpt lat="45.6431" lon="6.84688">
        <ele>1934.8</ele>
        <time>2021-03-26T08:29:42Z</time>
      </trkpt>
      <trkpt lat="45.64311" lon="6.84689">
        <ele>1934.8</ele>
        <time>2021-03-26T08:29:43Z</time>
      </trkpt>
      <trkpt lat="45.64311" lon="6.84691">
        <ele>1934.9</ele>
        <time>2021-03-26T08:29:44Z</time>
      </trkpt>
      <trkpt lat="45.64312" lon="6.84692">
        <ele>1934.9</ele>
        <time>2021-03-26T08:29:45Z</time>
      </trkpt>
      <trkpt lat="45.64312" lon="6.84693">
        <ele>1935</ele>
        <time>2021-03-26T08:29:46Z</time>
      </trkpt>
      <trkpt lat="45.64313" lon="6.84694">
        <ele>1935.1</ele>
        <time>2021-03-26T08:29:47Z</time>
      </trkpt>
      <trkpt lat="45.64314" lon="6.84695">
        <ele>1935.1</ele>
        <time>2021-03-26T08:29:48Z</time>
      </trkpt>
      <trkpt lat="45.64315" lon="6.84697">
        <ele>1935.2</ele>
        <time>2021-03-26T08:29:49Z</time>
      </trkpt>
      <trkpt lat="45.64315" lon="6.84698">
        <ele>1935.2</ele>
        <time>2021-03-26T08:29:50Z</time>
      </trkpt>
      <trkpt lat="45.64316" lon="6.84699">
        <ele>1935.3</ele>
        <time>2021-03-26T08:29:51Z</time>
      </trkpt>
      <trkpt lat="45.64317" lon="6.847">
        <ele>1935.3</ele>
        <time>2021-03-26T08:29:52Z</time>
      </trkpt>
      <trkpt lat="45.64318" lon="6.84701">
        <ele>1935.4</ele>
        <time>2021-03-26T08:29:53Z</time>
      </trkpt>
      <trkpt lat="45.64319" lon="6.84702">
        <ele>1935.5</ele>
        <time>2021-03-26T08:29:54Z</time>
      </trkpt>
      <trkpt lat="45.64319" lon="6.84702">
        <ele>1935.5</ele>
        <time>2021-03-26T08:29:55Z</time>
      </trkpt>
      <trkpt lat="45.6432" lon="6.84703">
        <ele>1935.6</ele>
        <time>2021-03-26T08:29:56Z</time>
      </trkpt>
      <trkpt lat="45.64321" lon="6.84704">
        <ele>1935.6</ele>
        <time>2021-03-26T08:29:57Z</time>
      </trkpt>
      <trkpt lat="45.64322" lon="6.84705">
        <ele>1935.7</ele>
        <time>2021-03-26T08:29:58Z</time>
      </trkpt>
      <trkpt lat="45.64323" lon="6.84706">
        <ele>1935.7</ele>
        <time>2021-03-26T08:29:59Z</time>
      </trkpt>
      <trkpt lat="45.64324" lon="6.84707">
        <ele>1935.8</ele>
        <time>2021-03-26T08:30:00Z</time>
      </trkpt>
      <trkpt lat="45.64324" lon="6.84708">
        <ele>1935.9</ele>
        <time>2021-03-26T08:30:01Z</time>
      </trkpt>
      <trkpt lat="45.64325" lon="6.84709">
        <ele>1935.9</ele>
        <time>2021-03-26T08:30:02Z</time>
      </trkpt>
      <trkpt lat="45.64326" lon="6.8471">
        <ele>1936</ele>
        <time>2021-03-26T08:30:03Z</time>
      </trkpt>
      <trkpt lat="45.64326" lon="6.84711">
        <ele>1936</ele>
        <time>2021-03-26T08:30:04Z</time>
      </trkpt>
      <trkpt lat="45.64327" lon="6.84712">
        <ele>1936.1</ele>
        <time>2021-03-26T08:30:05Z</time>
      </trkpt>
      <trkpt lat="45.64328" lon="6.84713">
        <ele>1936.1</ele>
        <time>2021-03-26T08:30:06Z</time>
      </trkpt>
      <trkpt lat="45.64329" lon="6.84714">
        <ele>1936.2</ele>
        <time>2021-03-26T08:30:07Z</time>
      </trkpt>
      <trkpt lat="45.6433" lon="6.84714">
        <ele>1936.3</ele>
        <time>2021-03-26T08:30:08Z</time>
      </trkpt>
      <trkpt lat="45.64331" lon="6.84715">
        <ele>1936.3</ele>
        <time>2021-03-26T08:30:09Z</time>
      </trkpt>
      <trkpt lat="45.64331" lon="6.84716">
        <ele>1936.4</ele>
        <time>2021-03-26T08:30:10Z</time>
      </trkpt>
      <trkpt lat="45.64332" lon="6.84717">
        <ele>1936.4</ele>
        <time>2021-03-26T08:30:11Z</time>
      </trkpt>
      <trkpt lat="45.64332" lon="6.84718">
        <ele>1936.5</ele>
        <time>2021-03-26T08:30:12Z</time>
      </trkpt>
      <trkpt lat="45.64333" lon="6.8472">
        <ele>1936.6</ele>
        <time>2021-03-26T08:30:13Z</time>
      </trkpt>
      <trkpt lat="45.64334" lon="6.84721">
        <ele>1936.6</ele>
        <time>2021-03-26T08:30:14Z</time>
      </trkpt>
      <trkpt lat="45.64335" lon="6.84721">
        <ele>1936.7</ele>
        <time>2021-03-26T08:30:15Z</time>
      </trkpt>
      <trkpt lat="45.64336" lon="6.84722">
        <ele>1936.7</ele>
        <time>2021-03-26T08:30:16Z</time>
      </trkpt>
      <trkpt lat="45.64336" lon="6.84723">
        <ele>1936.8</ele>
        <time>2021-03-26T08:30:17Z</time>
      </trkpt>
      <trkpt lat="45.64337" lon="6.84724">
        <ele>1936.9</ele>
        <time>2021-03-26T08:30:18Z</time>
      </trkpt>
      <trkpt lat="45.64338" lon="6.84725">
        <ele>1936.9</ele>
        <time>2021-03-26T08:30:19Z</time>
      </trkpt>
      <trkpt lat="45.64339" lon="6.84726">
        <ele>1937</ele>
        <time>2021-03-26T08:30:20Z</time>
      </trkpt>
      <trkpt lat="45.6434" lon="6.84727">
        <ele>1937.1</ele>
        <time>2021-03-26T08:30:21Z</time>
      </trkpt>
      <trkpt lat="45.6434" lon="6.84728">
        <ele>1937.1</ele>
        <time>2021-03-26T08:30:22Z</time>
      </trkpt>
      <trkpt lat="45.64341" lon="6.84729">
        <ele>1937.2</ele>
        <time>2021-03-26T08:30:23Z</time>
      </trkpt>
      <trkpt lat="45.64342" lon="6.84729">
        <ele>1937.3</ele>
        <time>2021-03-26T08:30:24Z</time>
      </trkpt>
      <trkpt lat="45.64343" lon="6.8473">
        <ele>1937.3</ele>
        <time>2021-03-26T08:30:25Z</time>
      </trkpt>
      <trkpt lat="45.64344" lon="6.84731">
        <ele>1937.4</ele>
        <time>2021-03-26T08:30:26Z</time>
      </trkpt>
      <trkpt lat="45.64345" lon="6.84732">
        <ele>1937.5</ele>
        <time>2021-03-26T08:30:27Z</time>
      </trkpt>
      <trkpt lat="45.64345" lon="6.84733">
        <ele>1937.5</ele>
        <time>2021-03-26T08:30:28Z</time>
      </trkpt>
      <trkpt lat="45.64346" lon="6.84734">
        <ele>1937.6</ele>
        <time>2021-03-26T08:30:29Z</time>
      </trkpt>
      <trkpt lat="45.64347" lon="6.84734">
        <ele>1937.6</ele>
        <time>2021-03-26T08:30:30Z</time>
      </trkpt>
      <trkpt lat="45.64348" lon="6.84735">
        <ele>1937.7</ele>
        <time>2021-03-26T08:30:31Z</time>
      </trkpt>
      <trkpt lat="45.64349" lon="6.84736">
        <ele>1937.8</ele>
        <time>2021-03-26T08:30:32Z</time>
      </trkpt>
      <trkpt lat="45.6435" lon="6.84737">
        <ele>1937.8</ele>
        <time>2021-03-26T08:30:33Z</time>
      </trkpt>
      <trkpt lat="45.64351" lon="6.84738">
        <ele>1937.9</ele>
        <time>2021-03-26T08:30:34Z</time>
      </trkpt>
      <trkpt lat="45.64352" lon="6.84738">
        <ele>1938</ele>
        <time>2021-03-26T08:30:35Z</time>
      </trkpt>
      <trkpt lat="45.64353" lon="6.84739">
        <ele>1938.1</ele>
        <time>2021-03-26T08:30:36Z</time>
      </trkpt>
      <trkpt lat="45.64354" lon="6.8474">
        <ele>1938.1</ele>
        <time>2021-03-26T08:30:37Z</time>
      </trkpt>
      <trkpt lat="45.64355" lon="6.84741">
        <ele>1938.2</ele>
        <time>2021-03-26T08:30:38Z</time>
      </trkpt>
      <trkpt lat="45.64356" lon="6.84742">
        <ele>1938.3</ele>
        <time>2021-03-26T08:30:39Z</time>
      </trkpt>
      <trkpt lat="45.64357" lon="6.84743">
        <ele>1938.4</ele>
        <time>2021-03-26T08:30:40Z</time>
      </trkpt>
      <trkpt lat="45.64357" lon="6.84743">
        <ele>1938.4</ele>
        <time>2021-03-26T08:30:41Z</time>
      </trkpt>
      <trkpt lat="45.64358" lon="6.84744">
        <ele>1938.5</ele>
        <time>2021-03-26T08:30:42Z</time>
      </trkpt>
      <trkpt lat="45.64359" lon="6.84745">
        <ele>1938.6</ele>
        <time>2021-03-26T08:30:43Z</time>
      </trkpt>
      <trkpt lat="45.6436" lon="6.84746">
        <ele>1938.6</ele>
        <time>2021-03-26T08:30:44Z</time>
      </trkpt>
      <trkpt lat="45.64361" lon="6.84747">
        <ele>1938.7</ele>
        <time>2021-03-26T08:30:45Z</time>
      </trkpt>
      <trkpt lat="45.64362" lon="6.84748">
        <ele>1938.8</ele>
        <time>2021-03-26T08:30:46Z</time>
      </trkpt>
      <trkpt lat="45.64363" lon="6.84748">
        <ele>1938.8</ele>
        <time>2021-03-26T08:30:47Z</time>
      </trkpt>
      <trkpt lat="45.64364" lon="6.84749">
        <ele>1938.9</ele>
        <time>2021-03-26T08:30:48Z</time>
      </trkpt>
      <trkpt lat="45.64364" lon="6.8475">
        <ele>1939</ele>
        <time>2021-03-26T08:30:49Z</time>
      </trkpt>
      <trkpt lat="45.64365" lon="6.84751">
        <ele>1939</ele>
        <time>2021-03-26T08:30:50Z</time>
      </trkpt>
      <trkpt lat="45.64366" lon="6.84752">
        <ele>1939.1</ele>
        <time>2021-03-26T08:30:51Z</time>
      </trkpt>
      <trkpt lat="45.64367" lon="6.84753">
        <ele>1939.2</ele>
        <time>2021-03-26T08:30:52Z</time>
      </trkpt>
      <trkpt lat="45.64368" lon="6.84753">
        <ele>1939.2</ele>
        <time>2021-03-26T08:30:53Z</time>
      </trkpt>
      <trkpt lat="45.64369" lon="6.84754">
        <ele>1939.3</ele>
        <time>2021-03-26T08:30:54Z</time>
      </trkpt>
      <trkpt lat="45.64369" lon="6.84755">
        <ele>1939.4</ele>
        <time>2021-03-26T08:30:55Z</time>
      </trkpt>
      <trkpt lat="45.6437" lon="6.84756">
        <ele>1939.4</ele>
        <time>2021-03-26T08:30:56Z</time>
      </trkpt>
      <trkpt lat="45.64371" lon="6.84756">
        <ele>1939.5</ele>
        <time>2021-03-26T08:30:57Z</time>
      </trkpt>
      <trkpt lat="45.64372" lon="6.84757">
        <ele>1939.5</ele>
        <time>2021-03-26T08:30:58Z</time>
      </trkpt>
      <trkpt lat="45.64373" lon="6.84758">
        <ele>1939.6</ele>
        <time>2021-03-26T08:30:59Z</time>
      </trkpt>
      <trkpt lat="45.64374" lon="6.84758">
        <ele>1939.7</ele>
        <time>2021-03-26T08:31:00Z</time>
      </trkpt>
      <trkpt lat="45.64375" lon="6.84759">
        <ele>1939.8</ele>
        <time>2021-03-26T08:31:01Z</time>
      </trkpt>
      <trkpt lat="45.64376" lon="6.84759">
        <ele>1939.8</ele>
        <time>2021-03-26T08:31:02Z</time>
      </trkpt>
      <trkpt lat="45.64377" lon="6.8476">
        <ele>1939.9</ele>
        <time>2021-03-26T08:31:03Z</time>
      </trkpt>
      <trkpt lat="45.64378" lon="6.8476">
        <ele>1940</ele>
        <time>2021-03-26T08:31:04Z</time>
      </trkpt>
      <trkpt lat="45.6438" lon="6.8476">
        <ele>1940</ele>
        <time>2021-03-26T08:31:05Z</time>
      </trkpt>
      <trkpt lat="45.64381" lon="6.84761">
        <ele>1940.1</ele>
        <time>2021-03-26T08:31:06Z</time>
      </trkpt>
      <trkpt lat="45.64382" lon="6.84761">
        <ele>1940.2</ele>
        <time>2021-03-26T08:31:07Z</time>
      </trkpt>
      <trkpt lat="45.64383" lon="6.84761">
        <ele>1940.2</ele>
        <time>2021-03-26T08:31:08Z</time>
      </trkpt>
      <trkpt lat="45.64384" lon="6.84761">
        <ele>1940.3</ele>
        <time>2021-03-26T08:31:09Z</time>
      </trkpt>
      <trkpt lat="45.64385" lon="6.84762">
        <ele>1940.3</ele>
        <time>2021-03-26T08:31:10Z</time>
      </trkpt>
      <trkpt lat="45.64386" lon="6.84762">
        <ele>1940.4</ele>
        <time>2021-03-26T08:31:11Z</time>
      </trkpt>
      <trkpt lat="45.64387" lon="6.84763">
        <ele>1940.4</ele>
        <time>2021-03-26T08:31:12Z</time>
      </trkpt>
      <trkpt lat="45.64388" lon="6.84763">
        <ele>1940.5</ele>
        <time>2021-03-26T08:31:13Z</time>
      </trkpt>
      <trkpt lat="45.64389" lon="6.84763">
        <ele>1940.5</ele>
        <time>2021-03-26T08:31:14Z</time>
      </trkpt>
      <trkpt lat="45.6439" lon="6.84764">
        <ele>1940.6</ele>
        <time>2021-03-26T08:31:15Z</time>
      </trkpt>
      <trkpt lat="45.64391" lon="6.84764">
        <ele>1940.6</ele>
        <time>2021-03-26T08:31:16Z</time>
      </trkpt>
      <trkpt lat="45.64392" lon="6.84765">
        <ele>1940.7</ele>
        <time>2021-03-26T08:31:17Z</time>
      </trkpt>
      <trkpt lat="45.64393" lon="6.84765">
        <ele>1940.8</ele>
        <time>2021-03-26T08:31:18Z</time>
      </trkpt>
      <trkpt lat="45.64394" lon="6.84765">
        <ele>1940.8</ele>
        <time>2021-03-26T08:31:19Z</time>
      </trkpt>
      <trkpt lat="45.64395" lon="6.84766">
        <ele>1940.9</ele>
        <time>2021-03-26T08:31:20Z</time>
      </trkpt>
      <trkpt lat="45.64396" lon="6.84766">
        <ele>1940.9</ele>
        <time>2021-03-26T08:31:21Z</time>
      </trkpt>
      <trkpt lat="45.64397" lon="6.84766">
        <ele>1941</ele>
        <time>2021-03-26T08:31:22Z</time>
      </trkpt>
      <trkpt lat="45.64398" lon="6.84767">
        <ele>1941</ele>
        <time>2021-03-26T08:31:23Z</time>
      </trkpt>
      <trkpt lat="45.64399" lon="6.84767">
        <ele>1941</ele>
        <time>2021-03-26T08:31:24Z</time>
      </trkpt>
      <trkpt lat="45.644" lon="6.84768">
        <ele>1941.1</ele>
        <time>2021-03-26T08:31:25Z</time>
      </trkpt>
      <trkpt lat="45.64401" lon="6.84768">
        <ele>1941.1</ele>
        <time>2021-03-26T08:31:26Z</time>
      </trkpt>
      <trkpt lat="45.64402" lon="6.84769">
        <ele>1941.2</ele>
        <time>2021-03-26T08:31:27Z</time>
      </trkpt>
      <trkpt lat="45.64403" lon="6.8477">
        <ele>1941.2</ele>
        <time>2021-03-26T08:31:28Z</time>
      </trkpt>
      <trkpt lat="45.64404" lon="6.8477">
        <ele>1941.3</ele>
        <time>2021-03-26T08:31:29Z</time>
      </trkpt>
      <trkpt lat="45.64405" lon="6.84771">
        <ele>1941.3</ele>
        <time>2021-03-26T08:31:30Z</time>
      </trkpt>
      <trkpt lat="45.64406" lon="6.84772">
        <ele>1941.4</ele>
        <time>2021-03-26T08:31:31Z</time>
      </trkpt>
      <trkpt lat="45.64407" lon="6.84772">
        <ele>1941.4</ele>
        <time>2021-03-26T08:31:32Z</time>
      </trkpt>
      <trkpt lat="45.64408" lon="6.84773">
        <ele>1941.5</ele>
        <time>2021-03-26T08:31:33Z</time>
      </trkpt>
      <trkpt lat="45.64409" lon="6.84773">
        <ele>1941.5</ele>
        <time>2021-03-26T08:31:34Z</time>
      </trkpt>
      <trkpt lat="45.6441" lon="6.84774">
        <ele>1941.6</ele>
        <time>2021-03-26T08:31:35Z</time>
      </trkpt>
      <trkpt lat="45.64411" lon="6.84774">
        <ele>1941.6</ele>
        <time>2021-03-26T08:31:36Z</time>
      </trkpt>
      <trkpt lat="45.64413" lon="6.84775">
        <ele>1941.7</ele>
        <time>2021-03-26T08:31:37Z</time>
      </trkpt>
      <trkpt lat="45.64414" lon="6.84775">
        <ele>1941.7</ele>
        <time>2021-03-26T08:31:38Z</time>
      </trkpt>
      <trkpt lat="45.64415" lon="6.84776">
        <ele>1941.8</ele>
        <time>2021-03-26T08:31:39Z</time>
      </trkpt>
      <trkpt lat="45.64417" lon="6.84777">
        <ele>1941.8</ele>
        <time>2021-03-26T08:31:40Z</time>
      </trkpt>
      <trkpt lat="45.64418" lon="6.84777">
        <ele>1941.9</ele>
        <time>2021-03-26T08:31:41Z</time>
      </trkpt>
      <trkpt lat="45.64418" lon="6.84778">
        <ele>1941.9</ele>
        <time>2021-03-26T08:31:42Z</time>
      </trkpt>
      <trkpt lat="45.64419" lon="6.84778">
        <ele>1942</ele>
        <time>2021-03-26T08:31:43Z</time>
      </trkpt>
      <trkpt lat="45.6442" lon="6.84779">
        <ele>1942</ele>
        <time>2021-03-26T08:31:44Z</time>
      </trkpt>
      <trkpt lat="45.64421" lon="6.8478">
        <ele>1942</ele>
        <time>2021-03-26T08:31:45Z</time>
      </trkpt>
      <trkpt lat="45.64422" lon="6.8478">
        <ele>1942.1</ele>
        <time>2021-03-26T08:31:46Z</time>
      </trkpt>
      <trkpt lat="45.64423" lon="6.84781">
        <ele>1942.1</ele>
        <time>2021-03-26T08:31:47Z</time>
      </trkpt>
      <trkpt lat="45.64424" lon="6.84782">
        <ele>1942.2</ele>
        <time>2021-03-26T08:31:48Z</time>
      </trkpt>
      <trkpt lat="45.64425" lon="6.84783">
        <ele>1942.2</ele>
        <time>2021-03-26T08:31:49Z</time>
      </trkpt>
      <trkpt lat="45.64426" lon="6.84784">
        <ele>1942.3</ele>
        <time>2021-03-26T08:31:50Z</time>
      </trkpt>
      <trkpt lat="45.64426" lon="6.84785">
        <ele>1942.3</ele>
        <time>2021-03-26T08:31:51Z</time>
      </trkpt>
      <trkpt lat="45.64427" lon="6.84786">
        <ele>1942.4</ele>
        <time>2021-03-26T08:31:52Z</time>
      </trkpt>
      <trkpt lat="45.64428" lon="6.84787">
        <ele>1942.5</ele>
        <time>2021-03-26T08:31:53Z</time>
      </trkpt>
      <trkpt lat="45.64429" lon="6.84788">
        <ele>1942.5</ele>
        <time>2021-03-26T08:31:54Z</time>
      </trkpt>
      <trkpt lat="45.6443" lon="6.84789">
        <ele>1942.6</ele>
        <time>2021-03-26T08:31:55Z</time>
      </trkpt>
      <trkpt lat="45.64431" lon="6.8479">
        <ele>1942.6</ele>
        <time>2021-03-26T08:31:56Z</time>
      </trkpt>
      <trkpt lat="45.64432" lon="6.8479">
        <ele>1942.6</ele>
        <time>2021-03-26T08:31:57Z</time>
      </trkpt>
      <trkpt lat="45.64433" lon="6.84791">
        <ele>1942.7</ele>
        <time>2021-03-26T08:31:58Z</time>
      </trkpt>
      <trkpt lat="45.64433" lon="6.84792">
        <ele>1942.7</ele>
        <time>2021-03-26T08:31:59Z</time>
      </trkpt>
      <trkpt lat="45.64434" lon="6.84793">
        <ele>1942.8</ele>
        <time>2021-03-26T08:32:00Z</time>
      </trkpt>
      <trkpt lat="45.64435" lon="6.84794">
        <ele>1942.8</ele>
        <time>2021-03-26T08:32:01Z</time>
      </trkpt>
      <trkpt lat="45.64436" lon="6.84794">
        <ele>1942.9</ele>
        <time>2021-03-26T08:32:02Z</time>
      </trkpt>
      <trkpt lat="45.64437" lon="6.84795">
        <ele>1942.9</ele>
        <time>2021-03-26T08:32:03Z</time>
      </trkpt>
      <trkpt lat="45.64438" lon="6.84796">
        <ele>1943</ele>
        <time>2021-03-26T08:32:04Z</time>
      </trkpt>
      <trkpt lat="45.64438" lon="6.84797">
        <ele>1943</ele>
        <time>2021-03-26T08:32:05Z</time>
      </trkpt>
      <trkpt lat="45.64439" lon="6.84798">
        <ele>1943.1</ele>
        <time>2021-03-26T08:32:06Z</time>
      </trkpt>
      <trkpt lat="45.6444" lon="6.84799">
        <ele>1943.1</ele>
        <time>2021-03-26T08:32:07Z</time>
      </trkpt>
      <trkpt lat="45.64441" lon="6.848">
        <ele>1943.2</ele>
        <time>2021-03-26T08:32:08Z</time>
      </trkpt>
      <trkpt lat="45.64442" lon="6.84801">
        <ele>1943.2</ele>
        <time>2021-03-26T08:32:09Z</time>
      </trkpt>
      <trkpt lat="45.64443" lon="6.84802">
        <ele>1943.3</ele>
        <time>2021-03-26T08:32:10Z</time>
      </trkpt>
      <trkpt lat="45.64443" lon="6.84803">
        <ele>1943.3</ele>
        <time>2021-03-26T08:32:11Z</time>
      </trkpt>
      <trkpt lat="45.64444" lon="6.84805">
        <ele>1943.4</ele>
        <time>2021-03-26T08:32:12Z</time>
      </trkpt>
      <trkpt lat="45.64445" lon="6.84805">
        <ele>1943.4</ele>
        <time>2021-03-26T08:32:13Z</time>
      </trkpt>
      <trkpt lat="45.64445" lon="6.84807">
        <ele>1943.5</ele>
        <time>2021-03-26T08:32:14Z</time>
      </trkpt>
      <trkpt lat="45.64446" lon="6.84808">
        <ele>1943.5</ele>
        <time>2021-03-26T08:32:15Z</time>
      </trkpt>
      <trkpt lat="45.64446" lon="6.84809">
        <ele>1943.5</ele>
        <time>2021-03-26T08:32:16Z</time>
      </trkpt>
      <trkpt lat="45.64447" lon="6.8481">
        <ele>1943.6</ele>
        <time>2021-03-26T08:32:17Z</time>
      </trkpt>
      <trkpt lat="45.64448" lon="6.84811">
        <ele>1943.6</ele>
        <time>2021-03-26T08:32:18Z</time>
      </trkpt>
      <trkpt lat="45.64448" lon="6.84811">
        <ele>1943.7</ele>
        <time>2021-03-26T08:32:19Z</time>
      </trkpt>
      <trkpt lat="45.64449" lon="6.84812">
        <ele>1943.7</ele>
        <time>2021-03-26T08:32:20Z</time>
      </trkpt>
      <trkpt lat="45.6445" lon="6.84813">
        <ele>1943.8</ele>
        <time>2021-03-26T08:32:21Z</time>
      </trkpt>
      <trkpt lat="45.64451" lon="6.84814">
        <ele>1943.8</ele>
        <time>2021-03-26T08:32:22Z</time>
      </trkpt>
      <trkpt lat="45.64452" lon="6.84815">
        <ele>1943.9</ele>
        <time>2021-03-26T08:32:23Z</time>
      </trkpt>
      <trkpt lat="45.64452" lon="6.84816">
        <ele>1943.9</ele>
        <time>2021-03-26T08:32:24Z</time>
      </trkpt>
      <trkpt lat="45.64453" lon="6.84817">
        <ele>1944</ele>
        <time>2021-03-26T08:32:25Z</time>
      </trkpt>
      <trkpt lat="45.64454" lon="6.84819">
        <ele>1944</ele>
        <time>2021-03-26T08:32:26Z</time>
      </trkpt>
      <trkpt lat="45.64454" lon="6.8482">
        <ele>1944.1</ele>
        <time>2021-03-26T08:32:27Z</time>
      </trkpt>
      <trkpt lat="45.64455" lon="6.84821">
        <ele>1944.1</ele>
        <time>2021-03-26T08:32:28Z</time>
      </trkpt>
      <trkpt lat="45.64456" lon="6.84822">
        <ele>1944.2</ele>
        <time>2021-03-26T08:32:29Z</time>
      </trkpt>
      <trkpt lat="45.64457" lon="6.84823">
        <ele>1944.2</ele>
        <time>2021-03-26T08:32:30Z</time>
      </trkpt>
      <trkpt lat="45.64457" lon="6.84825">
        <ele>1944.3</ele>
        <time>2021-03-26T08:32:31Z</time>
      </trkpt>
      <trkpt lat="45.64458" lon="6.84826">
        <ele>1944.3</ele>
        <time>2021-03-26T08:32:32Z</time>
      </trkpt>
      <trkpt lat="45.64459" lon="6.84827">
        <ele>1944.4</ele>
        <time>2021-03-26T08:32:33Z</time>
      </trkpt>
      <trkpt lat="45.6446" lon="6.84829">
        <ele>1944.4</ele>
        <time>2021-03-26T08:32:34Z</time>
      </trkpt>
      <trkpt lat="45.64461" lon="6.8483">
        <ele>1944.5</ele>
        <time>2021-03-26T08:32:35Z</time>
      </trkpt>
      <trkpt lat="45.64462" lon="6.84831">
        <ele>1944.5</ele>
        <time>2021-03-26T08:32:36Z</time>
      </trkpt>
      <trkpt lat="45.64463" lon="6.84833">
        <ele>1944.6</ele>
        <time>2021-03-26T08:32:37Z</time>
      </trkpt>
      <trkpt lat="45.64464" lon="6.84834">
        <ele>1944.6</ele>
        <time>2021-03-26T08:32:38Z</time>
      </trkpt>
      <trkpt lat="45.64464" lon="6.84834">
        <ele>1944.7</ele>
        <time>2021-03-26T08:32:39Z</time>
      </trkpt>
      <trkpt lat="45.64465" lon="6.84836">
        <ele>1944.7</ele>
        <time>2021-03-26T08:32:40Z</time>
      </trkpt>
      <trkpt lat="45.64466" lon="6.84837">
        <ele>1944.8</ele>
        <time>2021-03-26T08:32:41Z</time>
      </trkpt>
      <trkpt lat="45.64467" lon="6.84838">
        <ele>1944.8</ele>
        <time>2021-03-26T08:32:42Z</time>
      </trkpt>
      <trkpt lat="45.64467" lon="6.8484">
        <ele>1944.9</ele>
        <time>2021-03-26T08:32:43Z</time>
      </trkpt>
      <trkpt lat="45.64468" lon="6.84841">
        <ele>1944.9</ele>
        <time>2021-03-26T08:32:44Z</time>
      </trkpt>
      <trkpt lat="45.64469" lon="6.84842">
        <ele>1945</ele>
        <time>2021-03-26T08:32:45Z</time>
      </trkpt>
      <trkpt lat="45.64469" lon="6.84844">
        <ele>1945</ele>
        <time>2021-03-26T08:32:46Z</time>
      </trkpt>
      <trkpt lat="45.6447" lon="6.84845">
        <ele>1945.1</ele>
        <time>2021-03-26T08:32:47Z</time>
      </trkpt>
      <trkpt lat="45.64471" lon="6.84846">
        <ele>1945.1</ele>
        <time>2021-03-26T08:32:48Z</time>
      </trkpt>
      <trkpt lat="45.64471" lon="6.84847">
        <ele>1945.1</ele>
        <time>2021-03-26T08:32:49Z</time>
      </trkpt>
      <trkpt lat="45.64472" lon="6.84848">
        <ele>1945.2</ele>
        <time>2021-03-26T08:32:50Z</time>
      </trkpt>
      <trkpt lat="45.64472" lon="6.84849">
        <ele>1945.2</ele>
        <time>2021-03-26T08:32:51Z</time>
      </trkpt>
      <trkpt lat="45.64473" lon="6.84851">
        <ele>1945.3</ele>
        <time>2021-03-26T08:32:52Z</time>
      </trkpt>
      <trkpt lat="45.64474" lon="6.84852">
        <ele>1945.3</ele>
        <time>2021-03-26T08:32:53Z</time>
      </trkpt>
      <trkpt lat="45.64475" lon="6.84853">
        <ele>1945.4</ele>
        <time>2021-03-26T08:32:54Z</time>
      </trkpt>
      <trkpt lat="45.64476" lon="6.84855">
        <ele>1945.4</ele>
        <time>2021-03-26T08:32:55Z</time>
      </trkpt>
      <trkpt lat="45.64476" lon="6.84856">
        <ele>1945.5</ele>
        <time>2021-03-26T08:32:56Z</time>
      </trkpt>
      <trkpt lat="45.64477" lon="6.84857">
        <ele>1945.5</ele>
        <time>2021-03-26T08:32:57Z</time>
      </trkpt>
      <trkpt lat="45.64478" lon="6.84858">
        <ele>1945.6</ele>
        <time>2021-03-26T08:32:58Z</time>
      </trkpt>
      <trkpt lat="45.64478" lon="6.84859">
        <ele>1945.6</ele>
        <time>2021-03-26T08:32:59Z</time>
      </trkpt>
      <trkpt lat="45.64479" lon="6.8486">
        <ele>1945.7</ele>
        <time>2021-03-26T08:33:00Z</time>
      </trkpt>
      <trkpt lat="45.6448" lon="6.84862">
        <ele>1945.7</ele>
        <time>2021-03-26T08:33:01Z</time>
      </trkpt>
      <trkpt lat="45.6448" lon="6.84863">
        <ele>1945.8</ele>
        <time>2021-03-26T08:33:02Z</time>
      </trkpt>
      <trkpt lat="45.64481" lon="6.84864">
        <ele>1945.8</ele>
        <time>2021-03-26T08:33:03Z</time>
      </trkpt>
      <trkpt lat="45.64481" lon="6.84865">
        <ele>1945.8</ele>
        <time>2021-03-26T08:33:04Z</time>
      </trkpt>
      <trkpt lat="45.64482" lon="6.84867">
        <ele>1945.9</ele>
        <time>2021-03-26T08:33:05Z</time>
      </trkpt>
      <trkpt lat="45.64482" lon="6.84868">
        <ele>1945.9</ele>
        <time>2021-03-26T08:33:06Z</time>
      </trkpt>
      <trkpt lat="45.64483" lon="6.84869">
        <ele>1946</ele>
        <time>2021-03-26T08:33:07Z</time>
      </trkpt>
      <trkpt lat="45.64484" lon="6.84871">
        <ele>1946</ele>
        <time>2021-03-26T08:33:08Z</time>
      </trkpt>
      <trkpt lat="45.64484" lon="6.84872">
        <ele>1946.1</ele>
        <time>2021-03-26T08:33:09Z</time>
      </trkpt>
      <trkpt lat="45.64485" lon="6.84873">
        <ele>1946.2</ele>
        <time>2021-03-26T08:33:10Z</time>
      </trkpt>
      <trkpt lat="45.64486" lon="6.84874">
        <ele>1946.2</ele>
        <time>2021-03-26T08:33:11Z</time>
      </trkpt>
      <trkpt lat="45.64486" lon="6.84876">
        <ele>1946.3</ele>
        <time>2021-03-26T08:33:12Z</time>
      </trkpt>
      <trkpt lat="45.64487" lon="6.84877">
        <ele>1946.3</ele>
        <time>2021-03-26T08:33:13Z</time>
      </trkpt>
      <trkpt lat="45.64487" lon="6.84878">
        <ele>1946.3</ele>
        <time>2021-03-26T08:33:14Z</time>
      </trkpt>
      <trkpt lat="45.64488" lon="6.8488">
        <ele>1946.4</ele>
        <time>2021-03-26T08:33:15Z</time>
      </trkpt>
      <trkpt lat="45.64488" lon="6.84881">
        <ele>1946.5</ele>
        <time>2021-03-26T08:33:16Z</time>
      </trkpt>
      <trkpt lat="45.64489" lon="6.84882">
        <ele>1946.5</ele>
        <time>2021-03-26T08:33:17Z</time>
      </trkpt>
      <trkpt lat="45.64489" lon="6.84884">
        <ele>1946.6</ele>
        <time>2021-03-26T08:33:18Z</time>
      </trkpt>
      <trkpt lat="45.6449" lon="6.84885">
        <ele>1946.6</ele>
        <time>2021-03-26T08:33:19Z</time>
      </trkpt>
      <trkpt lat="45.64491" lon="6.84886">
        <ele>1946.7</ele>
        <time>2021-03-26T08:33:20Z</time>
      </trkpt>
      <trkpt lat="45.64491" lon="6.84887">
        <ele>1946.7</ele>
        <time>2021-03-26T08:33:21Z</time>
      </trkpt>
      <trkpt lat="45.64492" lon="6.84889">
        <ele>1946.8</ele>
        <time>2021-03-26T08:33:22Z</time>
      </trkpt>
      <trkpt lat="45.64493" lon="6.8489">
        <ele>1946.8</ele>
        <time>2021-03-26T08:33:23Z</time>
      </trkpt>
      <trkpt lat="45.64493" lon="6.84891">
        <ele>1946.9</ele>
        <time>2021-03-26T08:33:24Z</time>
      </trkpt>
      <trkpt lat="45.64494" lon="6.84893">
        <ele>1947</ele>
        <time>2021-03-26T08:33:25Z</time>
      </trkpt>
      <trkpt lat="45.64495" lon="6.84894">
        <ele>1947</ele>
        <time>2021-03-26T08:33:26Z</time>
      </trkpt>
      <trkpt lat="45.64496" lon="6.84895">
        <ele>1947.1</ele>
        <time>2021-03-26T08:33:27Z</time>
      </trkpt>
      <trkpt lat="45.64497" lon="6.84896">
        <ele>1947.2</ele>
        <time>2021-03-26T08:33:28Z</time>
      </trkpt>
      <trkpt lat="45.64497" lon="6.84897">
        <ele>1947.2</ele>
        <time>2021-03-26T08:33:29Z</time>
      </trkpt>
      <trkpt lat="45.64498" lon="6.84899">
        <ele>1947.3</ele>
        <time>2021-03-26T08:33:30Z</time>
      </trkpt>
      <trkpt lat="45.64499" lon="6.849">
        <ele>1947.3</ele>
        <time>2021-03-26T08:33:31Z</time>
      </trkpt>
      <trkpt lat="45.64499" lon="6.84901">
        <ele>1947.4</ele>
        <time>2021-03-26T08:33:32Z</time>
      </trkpt>
      <trkpt lat="45.645" lon="6.84902">
        <ele>1947.4</ele>
        <time>2021-03-26T08:33:33Z</time>
      </trkpt>
      <trkpt lat="45.64501" lon="6.84902">
        <ele>1947.5</ele>
        <time>2021-03-26T08:33:34Z</time>
      </trkpt>
      <trkpt lat="45.64502" lon="6.84903">
        <ele>1947.5</ele>
        <time>2021-03-26T08:33:35Z</time>
      </trkpt>
      <trkpt lat="45.64503" lon="6.84904">
        <ele>1947.6</ele>
        <time>2021-03-26T08:33:36Z</time>
      </trkpt>
      <trkpt lat="45.64503" lon="6.84905">
        <ele>1947.6</ele>
        <time>2021-03-26T08:33:37Z</time>
      </trkpt>
      <trkpt lat="45.64504" lon="6.84906">
        <ele>1947.7</ele>
        <time>2021-03-26T08:33:38Z</time>
      </trkpt>
      <trkpt lat="45.64505" lon="6.84908">
        <ele>1947.8</ele>
        <time>2021-03-26T08:33:39Z</time>
      </trkpt>
      <trkpt lat="45.64506" lon="6.84909">
        <ele>1947.8</ele>
        <time>2021-03-26T08:33:40Z</time>
      </trkpt>
      <trkpt lat="45.64507" lon="6.8491">
        <ele>1947.9</ele>
        <time>2021-03-26T08:33:41Z</time>
      </trkpt>
      <trkpt lat="45.64508" lon="6.84911">
        <ele>1947.9</ele>
        <time>2021-03-26T08:33:42Z</time>
      </trkpt>
      <trkpt lat="45.64508" lon="6.84912">
        <ele>1948</ele>
        <time>2021-03-26T08:33:43Z</time>
      </trkpt>
      <trkpt lat="45.64509" lon="6.84913">
        <ele>1948</ele>
        <time>2021-03-26T08:33:44Z</time>
      </trkpt>
      <trkpt lat="45.6451" lon="6.84914">
        <ele>1948.1</ele>
        <time>2021-03-26T08:33:45Z</time>
      </trkpt>
      <trkpt lat="45.64511" lon="6.84915">
        <ele>1948.1</ele>
        <time>2021-03-26T08:33:46Z</time>
      </trkpt>
      <trkpt lat="45.64512" lon="6.84916">
        <ele>1948.2</ele>
        <time>2021-03-26T08:33:47Z</time>
      </trkpt>
      <trkpt lat="45.64513" lon="6.84917">
        <ele>1948.2</ele>
        <time>2021-03-26T08:33:48Z</time>
      </trkpt>
      <trkpt lat="45.64513" lon="6.84918">
        <ele>1948.3</ele>
        <time>2021-03-26T08:33:49Z</time>
      </trkpt>
      <trkpt lat="45.64514" lon="6.84919">
        <ele>1948.3</ele>
        <time>2021-03-26T08:33:50Z</time>
      </trkpt>
      <trkpt lat="45.64515" lon="6.8492">
        <ele>1948.4</ele>
        <time>2021-03-26T08:33:51Z</time>
      </trkpt>
      <trkpt lat="45.64516" lon="6.8492">
        <ele>1948.4</ele>
        <time>2021-03-26T08:33:52Z</time>
      </trkpt>
      <trkpt lat="45.64517" lon="6.84922">
        <ele>1948.5</ele>
        <time>2021-03-26T08:33:53Z</time>
      </trkpt>
      <trkpt lat="45.64518" lon="6.84923">
        <ele>1948.5</ele>
        <time>2021-03-26T08:33:54Z</time>
      </trkpt>
      <trkpt lat="45.64518" lon="6.84924">
        <ele>1948.6</ele>
        <time>2021-03-26T08:33:55Z</time>
      </trkpt>
      <trkpt lat="45.64519" lon="6.84925">
        <ele>1948.6</ele>
        <time>2021-03-26T08:33:56Z</time>
      </trkpt>
      <trkpt lat="45.6452" lon="6.84925">
        <ele>1948.7</ele>
        <time>2021-03-26T08:33:57Z</time>
      </trkpt>
      <trkpt lat="45.64521" lon="6.84926">
        <ele>1948.7</ele>
        <time>2021-03-26T08:33:58Z</time>
      </trkpt>
      <trkpt lat="45.64522" lon="6.84927">
        <ele>1948.8</ele>
        <time>2021-03-26T08:33:59Z</time>
      </trkpt>
      <trkpt lat="45.64523" lon="6.84928">
        <ele>1948.8</ele>
        <time>2021-03-26T08:34:00Z</time>
      </trkpt>
      <trkpt lat="45.64524" lon="6.84928">
        <ele>1948.8</ele>
        <time>2021-03-26T08:34:01Z</time>
      </trkpt>
      <trkpt lat="45.64524" lon="6.84929">
        <ele>1948.9</ele>
        <time>2021-03-26T08:34:02Z</time>
      </trkpt>
      <trkpt lat="45.64525" lon="6.8493">
        <ele>1948.9</ele>
        <time>2021-03-26T08:34:03Z</time>
      </trkpt>
      <trkpt lat="45.64526" lon="6.8493">
        <ele>1949</ele>
        <time>2021-03-26T08:34:04Z</time>
      </trkpt>
      <trkpt lat="45.64527" lon="6.84931">
        <ele>1949</ele>
        <time>2021-03-26T08:34:05Z</time>
      </trkpt>
      <trkpt lat="45.64528" lon="6.84932">
        <ele>1949</ele>
        <time>2021-03-26T08:34:06Z</time>
      </trkpt>
      <trkpt lat="45.64529" lon="6.84933">
        <ele>1949.1</ele>
        <time>2021-03-26T08:34:07Z</time>
      </trkpt>
      <trkpt lat="45.6453" lon="6.84934">
        <ele>1949.1</ele>
        <time>2021-03-26T08:34:08Z</time>
      </trkpt>
      <trkpt lat="45.64531" lon="6.84936">
        <ele>1949.2</ele>
        <time>2021-03-26T08:34:09Z</time>
      </trkpt>
      <trkpt lat="45.64532" lon="6.84937">
        <ele>1949.3</ele>
        <time>2021-03-26T08:34:10Z</time>
      </trkpt>
      <trkpt lat="45.64533" lon="6.84937">
        <ele>1949.3</ele>
        <time>2021-03-26T08:34:11Z</time>
      </trkpt>
      <trkpt lat="45.64534" lon="6.84938">
        <ele>1949.4</ele>
        <time>2021-03-26T08:34:12Z</time>
      </trkpt>
      <trkpt lat="45.64535" lon="6.84939">
        <ele>1949.4</ele>
        <time>2021-03-26T08:34:13Z</time>
      </trkpt>
      <trkpt lat="45.64536" lon="6.8494">
        <ele>1949.5</ele>
        <time>2021-03-26T08:34:14Z</time>
      </trkpt>
      <trkpt lat="45.64537" lon="6.84941">
        <ele>1949.5</ele>
        <time>2021-03-26T08:34:15Z</time>
      </trkpt>
      <trkpt lat="45.64538" lon="6.84943">
        <ele>1949.6</ele>
        <time>2021-03-26T08:34:16Z</time>
      </trkpt>
      <trkpt lat="45.64538" lon="6.84944">
        <ele>1949.6</ele>
        <time>2021-03-26T08:34:17Z</time>
      </trkpt>
      <trkpt lat="45.64539" lon="6.84945">
        <ele>1949.7</ele>
        <time>2021-03-26T08:34:18Z</time>
      </trkpt>
      <trkpt lat="45.6454" lon="6.84946">
        <ele>1949.7</ele>
        <time>2021-03-26T08:34:19Z</time>
      </trkpt>
      <trkpt lat="45.64541" lon="6.84947">
        <ele>1949.8</ele>
        <time>2021-03-26T08:34:20Z</time>
      </trkpt>
      <trkpt lat="45.64541" lon="6.84948">
        <ele>1949.8</ele>
        <time>2021-03-26T08:34:21Z</time>
      </trkpt>
      <trkpt lat="45.64542" lon="6.84949">
        <ele>1949.9</ele>
        <time>2021-03-26T08:34:22Z</time>
      </trkpt>
      <trkpt lat="45.64543" lon="6.84951">
        <ele>1949.9</ele>
        <time>2021-03-26T08:34:23Z</time>
      </trkpt>
      <trkpt lat="45.64543" lon="6.84952">
        <ele>1950</ele>
        <time>2021-03-26T08:34:24Z</time>
      </trkpt>
      <trkpt lat="45.64544" lon="6.84953">
        <ele>1950</ele>
        <time>2021-03-26T08:34:25Z</time>
      </trkpt>
      <trkpt lat="45.64544" lon="6.84955">
        <ele>1950.1</ele>
        <time>2021-03-26T08:34:26Z</time>
      </trkpt>
      <trkpt lat="45.64545" lon="6.84956">
        <ele>1950.1</ele>
        <time>2021-03-26T08:34:27Z</time>
      </trkpt>
      <trkpt lat="45.64546" lon="6.84957">
        <ele>1950.2</ele>
        <time>2021-03-26T08:34:28Z</time>
      </trkpt>
      <trkpt lat="45.64546" lon="6.84958">
        <ele>1950.3</ele>
        <time>2021-03-26T08:34:29Z</time>
      </trkpt>
      <trkpt lat="45.64547" lon="6.84959">
        <ele>1950.3</ele>
        <time>2021-03-26T08:34:30Z</time>
      </trkpt>
      <trkpt lat="45.64547" lon="6.8496">
        <ele>1950.4</ele>
        <time>2021-03-26T08:34:31Z</time>
      </trkpt>
      <trkpt lat="45.64548" lon="6.84961">
        <ele>1950.4</ele>
        <time>2021-03-26T08:34:32Z</time>
      </trkpt>
      <trkpt lat="45.64548" lon="6.84962">
        <ele>1950.5</ele>
        <time>2021-03-26T08:34:33Z</time>
      </trkpt>
      <trkpt lat="45.64549" lon="6.84963">
        <ele>1950.5</ele>
        <time>2021-03-26T08:34:34Z</time>
      </trkpt>
      <trkpt lat="45.64549" lon="6.84964">
        <ele>1950.5</ele>
        <time>2021-03-26T08:34:35Z</time>
      </trkpt>
      <trkpt lat="45.6455" lon="6.84965">
        <ele>1950.6</ele>
        <time>2021-03-26T08:34:36Z</time>
      </trkpt>
      <trkpt lat="45.64551" lon="6.84966">
        <ele>1950.7</ele>
        <time>2021-03-26T08:34:37Z</time>
      </trkpt>
      <trkpt lat="45.64551" lon="6.84967">
        <ele>1950.7</ele>
        <time>2021-03-26T08:34:38Z</time>
      </trkpt>
      <trkpt lat="45.64552" lon="6.84968">
        <ele>1950.8</ele>
        <time>2021-03-26T08:34:39Z</time>
      </trkpt>
      <trkpt lat="45.64553" lon="6.84968">
        <ele>1950.8</ele>
        <time>2021-03-26T08:34:40Z</time>
      </trkpt>
      <trkpt lat="45.64553" lon="6.84969">
        <ele>1950.9</ele>
        <time>2021-03-26T08:34:41Z</time>
      </trkpt>
      <trkpt lat="45.64554" lon="6.84969">
        <ele>1950.9</ele>
        <time>2021-03-26T08:34:42Z</time>
      </trkpt>
      <trkpt lat="45.64554" lon="6.8497">
        <ele>1950.9</ele>
        <time>2021-03-26T08:34:43Z</time>
      </trkpt>
      <trkpt lat="45.64555" lon="6.84971">
        <ele>1951</ele>
        <time>2021-03-26T08:34:44Z</time>
      </trkpt>
      <trkpt lat="45.64555" lon="6.84972">
        <ele>1951</ele>
        <time>2021-03-26T08:34:45Z</time>
      </trkpt>
      <trkpt lat="45.64556" lon="6.84973">
        <ele>1951.1</ele>
        <time>2021-03-26T08:34:46Z</time>
      </trkpt>
      <trkpt lat="45.64556" lon="6.84975">
        <ele>1951.2</ele>
        <time>2021-03-26T08:34:47Z</time>
      </trkpt>
      <trkpt lat="45.64557" lon="6.84976">
        <ele>1951.2</ele>
        <time>2021-03-26T08:34:48Z</time>
      </trkpt>
      <trkpt lat="45.64557" lon="6.84978">
        <ele>1951.3</ele>
        <time>2021-03-26T08:34:49Z</time>
      </trkpt>
      <trkpt lat="45.64558" lon="6.84979">
        <ele>1951.4</ele>
        <time>2021-03-26T08:34:50Z</time>
      </trkpt>
      <trkpt lat="45.64558" lon="6.8498">
        <ele>1951.4</ele>
        <time>2021-03-26T08:34:51Z</time>
      </trkpt>
      <trkpt lat="45.64559" lon="6.84982">
        <ele>1951.5</ele>
        <time>2021-03-26T08:34:52Z</time>
      </trkpt>
      <trkpt lat="45.64559" lon="6.84983">
        <ele>1951.5</ele>
        <time>2021-03-26T08:34:53Z</time>
      </trkpt>
      <trkpt lat="45.6456" lon="6.84985">
        <ele>1951.6</ele>
        <time>2021-03-26T08:34:54Z</time>
      </trkpt>
      <trkpt lat="45.64561" lon="6.84986">
        <ele>1951.6</ele>
        <time>2021-03-26T08:34:55Z</time>
      </trkpt>
      <trkpt lat="45.64561" lon="6.84987">
        <ele>1951.7</ele>
        <time>2021-03-26T08:34:56Z</time>
      </trkpt>
      <trkpt lat="45.64561" lon="6.84987">
        <ele>1951.7</ele>
        <time>2021-03-26T08:34:57Z</time>
      </trkpt>
      <trkpt lat="45.64562" lon="6.84989">
        <ele>1951.8</ele>
        <time>2021-03-26T08:34:58Z</time>
      </trkpt>
      <trkpt lat="45.64562" lon="6.8499">
        <ele>1951.8</ele>
        <time>2021-03-26T08:34:59Z</time>
      </trkpt>
      <trkpt lat="45.64562" lon="6.84992">
        <ele>1951.9</ele>
        <time>2021-03-26T08:35:00Z</time>
      </trkpt>
      <trkpt lat="45.64563" lon="6.84993">
        <ele>1951.9</ele>
        <time>2021-03-26T08:35:01Z</time>
      </trkpt>
      <trkpt lat="45.64563" lon="6.84994">
        <ele>1952</ele>
        <time>2021-03-26T08:35:02Z</time>
      </trkpt>
      <trkpt lat="45.64563" lon="6.84996">
        <ele>1952</ele>
        <time>2021-03-26T08:35:03Z</time>
      </trkpt>
      <trkpt lat="45.64564" lon="6.84997">
        <ele>1952.1</ele>
        <time>2021-03-26T08:35:04Z</time>
      </trkpt>
      <trkpt lat="45.64565" lon="6.84999">
        <ele>1952.1</ele>
        <time>2021-03-26T08:35:05Z</time>
      </trkpt>
      <trkpt lat="45.64565" lon="6.85">
        <ele>1952.1</ele>
        <time>2021-03-26T08:35:06Z</time>
      </trkpt>
      <trkpt lat="45.64566" lon="6.85001">
        <ele>1952.2</ele>
        <time>2021-03-26T08:35:07Z</time>
      </trkpt>
      <trkpt lat="45.64567" lon="6.85002">
        <ele>1952.2</ele>
        <time>2021-03-26T08:35:08Z</time>
      </trkpt>
      <trkpt lat="45.64568" lon="6.85004">
        <ele>1952.3</ele>
        <time>2021-03-26T08:35:09Z</time>
      </trkpt>
      <trkpt lat="45.64569" lon="6.85006">
        <ele>1952.4</ele>
        <time>2021-03-26T08:35:10Z</time>
      </trkpt>
      <trkpt lat="45.6457" lon="6.85007">
        <ele>1952.4</ele>
        <time>2021-03-26T08:35:11Z</time>
      </trkpt>
      <trkpt lat="45.6457" lon="6.85008">
        <ele>1952.4</ele>
        <time>2021-03-26T08:35:12Z</time>
      </trkpt>
      <trkpt lat="45.64571" lon="6.85009">
        <ele>1952.4</ele>
        <time>2021-03-26T08:35:13Z</time>
      </trkpt>
      <trkpt lat="45.64572" lon="6.8501">
        <ele>1952.5</ele>
        <time>2021-03-26T08:35:14Z</time>
      </trkpt>
      <trkpt lat="45.64573" lon="6.85011">
        <ele>1952.5</ele>
        <time>2021-03-26T08:35:15Z</time>
      </trkpt>
      <trkpt lat="45.64573" lon="6.85012">
        <ele>1952.6</ele>
        <time>2021-03-26T08:35:16Z</time>
      </trkpt>
      <trkpt lat="45.64574" lon="6.85013">
        <ele>1952.6</ele>
        <time>2021-03-26T08:35:17Z</time>
      </trkpt>
      <trkpt lat="45.64575" lon="6.85015">
        <ele>1952.6</ele>
        <time>2021-03-26T08:35:18Z</time>
      </trkpt>
      <trkpt lat="45.64576" lon="6.85016">
        <ele>1952.7</ele>
        <time>2021-03-26T08:35:19Z</time>
      </trkpt>
      <trkpt lat="45.64577" lon="6.85017">
        <ele>1952.7</ele>
        <time>2021-03-26T08:35:20Z</time>
      </trkpt>
      <trkpt lat="45.64577" lon="6.85019">
        <ele>1952.8</ele>
        <time>2021-03-26T08:35:21Z</time>
      </trkpt>
      <trkpt lat="45.64578" lon="6.8502">
        <ele>1952.8</ele>
        <time>2021-03-26T08:35:22Z</time>
      </trkpt>
      <trkpt lat="45.64579" lon="6.85021">
        <ele>1952.8</ele>
        <time>2021-03-26T08:35:23Z</time>
      </trkpt>
      <trkpt lat="45.6458" lon="6.85022">
        <ele>1952.9</ele>
        <time>2021-03-26T08:35:24Z</time>
      </trkpt>
      <trkpt lat="45.64581" lon="6.85023">
        <ele>1952.9</ele>
        <time>2021-03-26T08:35:25Z</time>
      </trkpt>
      <trkpt lat="45.64582" lon="6.85024">
        <ele>1953</ele>
        <time>2021-03-26T08:35:26Z</time>
      </trkpt>
      <trkpt lat="45.64583" lon="6.85025">
        <ele>1953</ele>
        <time>2021-03-26T08:35:27Z</time>
      </trkpt>
      <trkpt lat="45.64584" lon="6.85028">
        <ele>1953.1</ele>
        <time>2021-03-26T08:35:28Z</time>
      </trkpt>
      <trkpt lat="45.64585" lon="6.85028">
        <ele>1953.1</ele>
        <time>2021-03-26T08:35:29Z</time>
      </trkpt>
      <trkpt lat="45.64585" lon="6.85029">
        <ele>1953.1</ele>
        <time>2021-03-26T08:35:30Z</time>
      </trkpt>
      <trkpt lat="45.64586" lon="6.8503">
        <ele>1953.2</ele>
        <time>2021-03-26T08:35:31Z</time>
      </trkpt>
      <trkpt lat="45.64587" lon="6.85031">
        <ele>1953.2</ele>
        <time>2021-03-26T08:35:32Z</time>
      </trkpt>
      <trkpt lat="45.64588" lon="6.85032">
        <ele>1953.2</ele>
        <time>2021-03-26T08:35:33Z</time>
      </trkpt>
      <trkpt lat="45.64589" lon="6.85032">
        <ele>1953.3</ele>
        <time>2021-03-26T08:35:34Z</time>
      </trkpt>
      <trkpt lat="45.6459" lon="6.85033">
        <ele>1953.3</ele>
        <time>2021-03-26T08:35:35Z</time>
      </trkpt>
      <trkpt lat="45.64591" lon="6.85033">
        <ele>1953.3</ele>
        <time>2021-03-26T08:35:36Z</time>
      </trkpt>
      <trkpt lat="45.64592" lon="6.85033">
        <ele>1953.4</ele>
        <time>2021-03-26T08:35:37Z</time>
      </trkpt>
      <trkpt lat="45.64593" lon="6.85034">
        <ele>1953.4</ele>
        <time>2021-03-26T08:35:38Z</time>
      </trkpt>
      <trkpt lat="45.64594" lon="6.85035">
        <ele>1953.4</ele>
        <time>2021-03-26T08:35:39Z</time>
      </trkpt>
      <trkpt lat="45.64595" lon="6.85036">
        <ele>1953.5</ele>
        <time>2021-03-26T08:35:40Z</time>
      </trkpt>
      <trkpt lat="45.64596" lon="6.85037">
        <ele>1953.5</ele>
        <time>2021-03-26T08:35:41Z</time>
      </trkpt>
      <trkpt lat="45.64597" lon="6.85038">
        <ele>1953.6</ele>
        <time>2021-03-26T08:35:42Z</time>
      </trkpt>
      <trkpt lat="45.64598" lon="6.85039">
        <ele>1953.6</ele>
        <time>2021-03-26T08:35:43Z</time>
      </trkpt>
      <trkpt lat="45.64599" lon="6.8504">
        <ele>1953.7</ele>
        <time>2021-03-26T08:35:44Z</time>
      </trkpt>
      <trkpt lat="45.646" lon="6.85041">
        <ele>1953.7</ele>
        <time>2021-03-26T08:35:45Z</time>
      </trkpt>
      <trkpt lat="45.64601" lon="6.85043">
        <ele>1953.8</ele>
        <time>2021-03-26T08:35:46Z</time>
      </trkpt>
      <trkpt lat="45.64603" lon="6.85044">
        <ele>1953.9</ele>
        <time>2021-03-26T08:35:47Z</time>
      </trkpt>
      <trkpt lat="45.64604" lon="6.85045">
        <ele>1953.9</ele>
        <time>2021-03-26T08:35:48Z</time>
      </trkpt>
      <trkpt lat="45.64604" lon="6.85046">
        <ele>1953.9</ele>
        <time>2021-03-26T08:35:49Z</time>
      </trkpt>
      <trkpt lat="45.64605" lon="6.85047">
        <ele>1954</ele>
        <time>2021-03-26T08:35:50Z</time>
      </trkpt>
      <trkpt lat="45.64606" lon="6.85048">
        <ele>1954</ele>
        <time>2021-03-26T08:35:51Z</time>
      </trkpt>
      <trkpt lat="45.64607" lon="6.85049">
        <ele>1954</ele>
        <time>2021-03-26T08:35:52Z</time>
      </trkpt>
      <trkpt lat="45.64607" lon="6.8505">
        <ele>1954.1</ele>
        <time>2021-03-26T08:35:53Z</time>
      </trkpt>
      <trkpt lat="45.64608" lon="6.85051">
        <ele>1954.1</ele>
        <time>2021-03-26T08:35:54Z</time>
      </trkpt>
      <trkpt lat="45.64609" lon="6.85052">
        <ele>1954.2</ele>
        <time>2021-03-26T08:35:55Z</time>
      </trkpt>
      <trkpt lat="45.6461" lon="6.85053">
        <ele>1954.2</ele>
        <time>2021-03-26T08:35:56Z</time>
      </trkpt>
      <trkpt lat="45.6461" lon="6.85054">
        <ele>1954.3</ele>
        <time>2021-03-26T08:35:57Z</time>
      </trkpt>
      <trkpt lat="45.64611" lon="6.85055">
        <ele>1954.3</ele>
        <time>2021-03-26T08:35:58Z</time>
      </trkpt>
      <trkpt lat="45.64612" lon="6.85056">
        <ele>1954.4</ele>
        <time>2021-03-26T08:35:59Z</time>
      </trkpt>
      <trkpt lat="45.64613" lon="6.85057">
        <ele>1954.4</ele>
        <time>2021-03-26T08:36:00Z</time>
      </trkpt>
      <trkpt lat="45.64613" lon="6.85058">
        <ele>1954.4</ele>
        <time>2021-03-26T08:36:01Z</time>
      </trkpt>
      <trkpt lat="45.64614" lon="6.8506">
        <ele>1954.5</ele>
        <time>2021-03-26T08:36:02Z</time>
      </trkpt>
      <trkpt lat="45.64615" lon="6.85061">
        <ele>1954.6</ele>
        <time>2021-03-26T08:36:03Z</time>
      </trkpt>
      <trkpt lat="45.64615" lon="6.85062">
        <ele>1954.6</ele>
        <time>2021-03-26T08:36:04Z</time>
      </trkpt>
      <trkpt lat="45.64616" lon="6.85064">
        <ele>1954.7</ele>
        <time>2021-03-26T08:36:05Z</time>
      </trkpt>
      <trkpt lat="45.64617" lon="6.85065">
        <ele>1954.7</ele>
        <time>2021-03-26T08:36:06Z</time>
      </trkpt>
      <trkpt lat="45.64618" lon="6.85066">
        <ele>1954.8</ele>
        <time>2021-03-26T08:36:07Z</time>
      </trkpt>
      <trkpt lat="45.64619" lon="6.85067">
        <ele>1954.8</ele>
        <time>2021-03-26T08:36:08Z</time>
      </trkpt>
      <trkpt lat="45.64619" lon="6.85068">
        <ele>1954.9</ele>
        <time>2021-03-26T08:36:09Z</time>
      </trkpt>
      <trkpt lat="45.6462" lon="6.85069">
        <ele>1954.9</ele>
        <time>2021-03-26T08:36:10Z</time>
      </trkpt>
      <trkpt lat="45.64621" lon="6.8507">
        <ele>1955</ele>
        <time>2021-03-26T08:36:11Z</time>
      </trkpt>
      <trkpt lat="45.64622" lon="6.85071">
        <ele>1955</ele>
        <time>2021-03-26T08:36:12Z</time>
      </trkpt>
      <trkpt lat="45.64623" lon="6.85072">
        <ele>1955.1</ele>
        <time>2021-03-26T08:36:13Z</time>
      </trkpt>
      <trkpt lat="45.64623" lon="6.85073">
        <ele>1955.1</ele>
        <time>2021-03-26T08:36:14Z</time>
      </trkpt>
      <trkpt lat="45.64624" lon="6.85074">
        <ele>1955.2</ele>
        <time>2021-03-26T08:36:15Z</time>
      </trkpt>
      <trkpt lat="45.64625" lon="6.85075">
        <ele>1955.2</ele>
        <time>2021-03-26T08:36:16Z</time>
      </trkpt>
      <trkpt lat="45.64626" lon="6.85076">
        <ele>1955.3</ele>
        <time>2021-03-26T08:36:17Z</time>
      </trkpt>
      <trkpt lat="45.64626" lon="6.85077">
        <ele>1955.3</ele>
        <time>2021-03-26T08:36:18Z</time>
      </trkpt>
      <trkpt lat="45.64627" lon="6.85078">
        <ele>1955.4</ele>
        <time>2021-03-26T08:36:19Z</time>
      </trkpt>
      <trkpt lat="45.64628" lon="6.8508">
        <ele>1955.5</ele>
        <time>2021-03-26T08:36:20Z</time>
      </trkpt>
      <trkpt lat="45.64628" lon="6.85081">
        <ele>1955.5</ele>
        <time>2021-03-26T08:36:21Z</time>
      </trkpt>
      <trkpt lat="45.64629" lon="6.85082">
        <ele>1955.6</ele>
        <time>2021-03-26T08:36:22Z</time>
      </trkpt>
      <trkpt lat="45.6463" lon="6.85083">
        <ele>1955.6</ele>
        <time>2021-03-26T08:36:23Z</time>
      </trkpt>
      <trkpt lat="45.64631" lon="6.85084">
        <ele>1955.7</ele>
        <time>2021-03-26T08:36:24Z</time>
      </trkpt>
      <trkpt lat="45.64632" lon="6.85085">
        <ele>1955.7</ele>
        <time>2021-03-26T08:36:25Z</time>
      </trkpt>
      <trkpt lat="45.64633" lon="6.85086">
        <ele>1955.8</ele>
        <time>2021-03-26T08:36:26Z</time>
      </trkpt>
      <trkpt lat="45.64633" lon="6.85087">
        <ele>1955.8</ele>
        <time>2021-03-26T08:36:27Z</time>
      </trkpt>
      <trkpt lat="45.64634" lon="6.85088">
        <ele>1955.9</ele>
        <time>2021-03-26T08:36:28Z</time>
      </trkpt>
      <trkpt lat="45.64635" lon="6.85089">
        <ele>1956</ele>
        <time>2021-03-26T08:36:29Z</time>
      </trkpt>
      <trkpt lat="45.64636" lon="6.8509">
        <ele>1956</ele>
        <time>2021-03-26T08:36:30Z</time>
      </trkpt>
      <trkpt lat="45.64637" lon="6.85091">
        <ele>1956.1</ele>
        <time>2021-03-26T08:36:31Z</time>
      </trkpt>
      <trkpt lat="45.64637" lon="6.85092">
        <ele>1956.1</ele>
        <time>2021-03-26T08:36:32Z</time>
      </trkpt>
      <trkpt lat="45.64638" lon="6.85094">
        <ele>1956.2</ele>
        <time>2021-03-26T08:36:33Z</time>
      </trkpt>
      <trkpt lat="45.64639" lon="6.85095">
        <ele>1956.3</ele>
        <time>2021-03-26T08:36:34Z</time>
      </trkpt>
      <trkpt lat="45.6464" lon="6.85096">
        <ele>1956.3</ele>
        <time>2021-03-26T08:36:35Z</time>
      </trkpt>
      <trkpt lat="45.64641" lon="6.85097">
        <ele>1956.4</ele>
        <time>2021-03-26T08:36:36Z</time>
      </trkpt>
      <trkpt lat="45.64641" lon="6.85098">
        <ele>1956.5</ele>
        <time>2021-03-26T08:36:37Z</time>
      </trkpt>
      <trkpt lat="45.64642" lon="6.851">
        <ele>1956.5</ele>
        <time>2021-03-26T08:36:38Z</time>
      </trkpt>
      <trkpt lat="45.64643" lon="6.85101">
        <ele>1956.6</ele>
        <time>2021-03-26T08:36:39Z</time>
      </trkpt>
      <trkpt lat="45.64643" lon="6.85102">
        <ele>1956.6</ele>
        <time>2021-03-26T08:36:40Z</time>
      </trkpt>
      <trkpt lat="45.64644" lon="6.85103">
        <ele>1956.7</ele>
        <time>2021-03-26T08:36:41Z</time>
      </trkpt>
      <trkpt lat="45.64645" lon="6.85104">
        <ele>1956.7</ele>
        <time>2021-03-26T08:36:42Z</time>
      </trkpt>
      <trkpt lat="45.64645" lon="6.85104">
        <ele>1956.8</ele>
        <time>2021-03-26T08:36:43Z</time>
      </trkpt>
      <trkpt lat="45.64647" lon="6.85107">
        <ele>1956.9</ele>
        <time>2021-03-26T08:36:44Z</time>
      </trkpt>
      <trkpt lat="45.64647" lon="6.85107">
        <ele>1956.9</ele>
        <time>2021-03-26T08:36:45Z</time>
      </trkpt>
      <trkpt lat="45.64648" lon="6.85108">
        <ele>1957</ele>
        <time>2021-03-26T08:36:46Z</time>
      </trkpt>
      <trkpt lat="45.64649" lon="6.85109">
        <ele>1957.1</ele>
        <time>2021-03-26T08:36:47Z</time>
      </trkpt>
      <trkpt lat="45.6465" lon="6.8511">
        <ele>1957.1</ele>
        <time>2021-03-26T08:36:48Z</time>
      </trkpt>
      <trkpt lat="45.64651" lon="6.85111">
        <ele>1957.2</ele>
        <time>2021-03-26T08:36:49Z</time>
      </trkpt>
      <trkpt lat="45.64652" lon="6.85113">
        <ele>1957.3</ele>
        <time>2021-03-26T08:36:50Z</time>
      </trkpt>
      <trkpt lat="45.64653" lon="6.85114">
        <ele>1957.4</ele>
        <time>2021-03-26T08:36:51Z</time>
      </trkpt>
      <trkpt lat="45.64654" lon="6.85115">
        <ele>1957.4</ele>
        <time>2021-03-26T08:36:52Z</time>
      </trkpt>
      <trkpt lat="45.64654" lon="6.85116">
        <ele>1957.5</ele>
        <time>2021-03-26T08:36:53Z</time>
      </trkpt>
      <trkpt lat="45.64655" lon="6.85117">
        <ele>1957.5</ele>
        <time>2021-03-26T08:36:54Z</time>
      </trkpt>
      <trkpt lat="45.64656" lon="6.85118">
        <ele>1957.6</ele>
        <time>2021-03-26T08:36:55Z</time>
      </trkpt>
      <trkpt lat="45.64657" lon="6.85119">
        <ele>1957.7</ele>
        <time>2021-03-26T08:36:56Z</time>
      </trkpt>
      <trkpt lat="45.64659" lon="6.8512">
        <ele>1957.7</ele>
        <time>2021-03-26T08:36:57Z</time>
      </trkpt>
      <trkpt lat="45.64659" lon="6.85121">
        <ele>1957.8</ele>
        <time>2021-03-26T08:36:58Z</time>
      </trkpt>
      <trkpt lat="45.64661" lon="6.85123">
        <ele>1957.9</ele>
        <time>2021-03-26T08:36:59Z</time>
      </trkpt>
      <trkpt lat="45.64662" lon="6.85124">
        <ele>1958</ele>
        <time>2021-03-26T08:37:00Z</time>
      </trkpt>
      <trkpt lat="45.64662" lon="6.85125">
        <ele>1958</ele>
        <time>2021-03-26T08:37:01Z</time>
      </trkpt>
      <trkpt lat="45.64663" lon="6.85126">
        <ele>1958.1</ele>
        <time>2021-03-26T08:37:02Z</time>
      </trkpt>
      <trkpt lat="45.64664" lon="6.85127">
        <ele>1958.1</ele>
        <time>2021-03-26T08:37:03Z</time>
      </trkpt>
      <trkpt lat="45.64665" lon="6.85128">
        <ele>1958.2</ele>
        <time>2021-03-26T08:37:04Z</time>
      </trkpt>
      <trkpt lat="45.64665" lon="6.85129">
        <ele>1958.2</ele>
        <time>2021-03-26T08:37:05Z</time>
      </trkpt>
      <trkpt lat="45.64666" lon="6.8513">
        <ele>1958.3</ele>
        <time>2021-03-26T08:37:06Z</time>
      </trkpt>
      <trkpt lat="45.64667" lon="6.85131">
        <ele>1958.4</ele>
        <time>2021-03-26T08:37:07Z</time>
      </trkpt>
      <trkpt lat="45.64668" lon="6.85132">
        <ele>1958.4</ele>
        <time>2021-03-26T08:37:08Z</time>
      </trkpt>
      <trkpt lat="45.64668" lon="6.85133">
        <ele>1958.5</ele>
        <time>2021-03-26T08:37:09Z</time>
      </trkpt>
      <trkpt lat="45.64669" lon="6.85134">
        <ele>1958.5</ele>
        <time>2021-03-26T08:37:10Z</time>
      </trkpt>
      <trkpt lat="45.6467" lon="6.85136">
        <ele>1958.6</ele>
        <time>2021-03-26T08:37:11Z</time>
      </trkpt>
      <trkpt lat="45.64671" lon="6.85137">
        <ele>1958.6</ele>
        <time>2021-03-26T08:37:12Z</time>
      </trkpt>
      <trkpt lat="45.64671" lon="6.85138">
        <ele>1958.7</ele>
        <time>2021-03-26T08:37:13Z</time>
      </trkpt>
      <trkpt lat="45.64672" lon="6.85139">
        <ele>1958.7</ele>
        <time>2021-03-26T08:37:14Z</time>
      </trkpt>
      <trkpt lat="45.64672" lon="6.8514">
        <ele>1958.8</ele>
        <time>2021-03-26T08:37:15Z</time>
      </trkpt>
      <trkpt lat="45.64673" lon="6.85141">
        <ele>1958.8</ele>
        <time>2021-03-26T08:37:16Z</time>
      </trkpt>
      <trkpt lat="45.64674" lon="6.85142">
        <ele>1958.9</ele>
        <time>2021-03-26T08:37:17Z</time>
      </trkpt>
      <trkpt lat="45.64675" lon="6.85143">
        <ele>1958.9</ele>
        <time>2021-03-26T08:37:18Z</time>
      </trkpt>
      <trkpt lat="45.64676" lon="6.85144">
        <ele>1959</ele>
        <time>2021-03-26T08:37:19Z</time>
      </trkpt>
      <trkpt lat="45.64676" lon="6.85145">
        <ele>1959.1</ele>
        <time>2021-03-26T08:37:20Z</time>
      </trkpt>
      <trkpt lat="45.64677" lon="6.85146">
        <ele>1959.1</ele>
        <time>2021-03-26T08:37:21Z</time>
      </trkpt>
      <trkpt lat="45.64678" lon="6.85147">
        <ele>1959.2</ele>
        <time>2021-03-26T08:37:22Z</time>
      </trkpt>
      <trkpt lat="45.64679" lon="6.85148">
        <ele>1959.2</ele>
        <time>2021-03-26T08:37:23Z</time>
      </trkpt>
      <trkpt lat="45.6468" lon="6.85149">
        <ele>1959.3</ele>
        <time>2021-03-26T08:37:24Z</time>
      </trkpt>
      <trkpt lat="45.6468" lon="6.8515">
        <ele>1959.3</ele>
        <time>2021-03-26T08:37:25Z</time>
      </trkpt>
      <trkpt lat="45.64681" lon="6.85151">
        <ele>1959.4</ele>
        <time>2021-03-26T08:37:26Z</time>
      </trkpt>
      <trkpt lat="45.64682" lon="6.85152">
        <ele>1959.4</ele>
        <time>2021-03-26T08:37:27Z</time>
      </trkpt>
      <trkpt lat="45.64683" lon="6.85153">
        <ele>1959.5</ele>
        <time>2021-03-26T08:37:28Z</time>
      </trkpt>
      <trkpt lat="45.64684" lon="6.85154">
        <ele>1959.5</ele>
        <time>2021-03-26T08:37:29Z</time>
      </trkpt>
      <trkpt lat="45.64684" lon="6.85155">
        <ele>1959.6</ele>
        <time>2021-03-26T08:37:30Z</time>
      </trkpt>
      <trkpt lat="45.64685" lon="6.85156">
        <ele>1959.7</ele>
        <time>2021-03-26T08:37:31Z</time>
      </trkpt>
      <trkpt lat="45.64686" lon="6.85157">
        <ele>1959.7</ele>
        <time>2021-03-26T08:37:32Z</time>
      </trkpt>
      <trkpt lat="45.64687" lon="6.85158">
        <ele>1959.8</ele>
        <time>2021-03-26T08:37:33Z</time>
      </trkpt>
      <trkpt lat="45.64687" lon="6.85159">
        <ele>1959.8</ele>
        <time>2021-03-26T08:37:34Z</time>
      </trkpt>
      <trkpt lat="45.64688" lon="6.8516">
        <ele>1959.9</ele>
        <time>2021-03-26T08:37:35Z</time>
      </trkpt>
      <trkpt lat="45.64689" lon="6.85162">
        <ele>1959.9</ele>
        <time>2021-03-26T08:37:36Z</time>
      </trkpt>
      <trkpt lat="45.6469" lon="6.85163">
        <ele>1960</ele>
        <time>2021-03-26T08:37:37Z</time>
      </trkpt>
      <trkpt lat="45.6469" lon="6.85164">
        <ele>1960.1</ele>
        <time>2021-03-26T08:37:38Z</time>
      </trkpt>
      <trkpt lat="45.64691" lon="6.85165">
        <ele>1960.1</ele>
        <time>2021-03-26T08:37:39Z</time>
      </trkpt>
      <trkpt lat="45.64692" lon="6.85166">
        <ele>1960.2</ele>
        <time>2021-03-26T08:37:40Z</time>
      </trkpt>
      <trkpt lat="45.64692" lon="6.85167">
        <ele>1960.2</ele>
        <time>2021-03-26T08:37:41Z</time>
      </trkpt>
      <trkpt lat="45.64693" lon="6.85168">
        <ele>1960.3</ele>
        <time>2021-03-26T08:37:42Z</time>
      </trkpt>
      <trkpt lat="45.64694" lon="6.85169">
        <ele>1960.4</ele>
        <time>2021-03-26T08:37:43Z</time>
      </trkpt>
      <trkpt lat="45.64694" lon="6.8517">
        <ele>1960.4</ele>
        <time>2021-03-26T08:37:44Z</time>
      </trkpt>
      <trkpt lat="45.64695" lon="6.85171">
        <ele>1960.5</ele>
        <time>2021-03-26T08:37:45Z</time>
      </trkpt>
      <trkpt lat="45.64696" lon="6.85172">
        <ele>1960.6</ele>
        <time>2021-03-26T08:37:46Z</time>
      </trkpt>
      <trkpt lat="45.64696" lon="6.85174">
        <ele>1960.6</ele>
        <time>2021-03-26T08:37:47Z</time>
      </trkpt>
      <trkpt lat="45.64697" lon="6.85174">
        <ele>1960.7</ele>
        <time>2021-03-26T08:37:48Z</time>
      </trkpt>
      <trkpt lat="45.64697" lon="6.85175">
        <ele>1960.8</ele>
        <time>2021-03-26T08:37:49Z</time>
      </trkpt>
      <trkpt lat="45.64698" lon="6.85176">
        <ele>1960.8</ele>
        <time>2021-03-26T08:37:50Z</time>
      </trkpt>
      <trkpt lat="45.64699" lon="6.85177">
        <ele>1960.9</ele>
        <time>2021-03-26T08:37:51Z</time>
      </trkpt>
      <trkpt lat="45.64699" lon="6.85178">
        <ele>1961</ele>
        <time>2021-03-26T08:37:52Z</time>
      </trkpt>
      <trkpt lat="45.647" lon="6.85179">
        <ele>1961</ele>
        <time>2021-03-26T08:37:53Z</time>
      </trkpt>
      <trkpt lat="45.64701" lon="6.8518">
        <ele>1961.1</ele>
        <time>2021-03-26T08:37:54Z</time>
      </trkpt>
      <trkpt lat="45.64701" lon="6.85181">
        <ele>1961.2</ele>
        <time>2021-03-26T08:37:55Z</time>
      </trkpt>
      <trkpt lat="45.64702" lon="6.85183">
        <ele>1961.3</ele>
        <time>2021-03-26T08:37:56Z</time>
      </trkpt>
      <trkpt lat="45.64703" lon="6.85184">
        <ele>1961.4</ele>
        <time>2021-03-26T08:37:57Z</time>
      </trkpt>
      <trkpt lat="45.64703" lon="6.85185">
        <ele>1961.4</ele>
        <time>2021-03-26T08:37:58Z</time>
      </trkpt>
      <trkpt lat="45.64704" lon="6.85186">
        <ele>1961.5</ele>
        <time>2021-03-26T08:37:59Z</time>
      </trkpt>
      <trkpt lat="45.64705" lon="6.85187">
        <ele>1961.6</ele>
        <time>2021-03-26T08:38:00Z</time>
      </trkpt>
      <trkpt lat="45.64705" lon="6.85188">
        <ele>1961.7</ele>
        <time>2021-03-26T08:38:01Z</time>
      </trkpt>
      <trkpt lat="45.64706" lon="6.85189">
        <ele>1961.7</ele>
        <time>2021-03-26T08:38:02Z</time>
      </trkpt>
      <trkpt lat="45.64707" lon="6.8519">
        <ele>1961.8</ele>
        <time>2021-03-26T08:38:03Z</time>
      </trkpt>
      <trkpt lat="45.64707" lon="6.85191">
        <ele>1961.9</ele>
        <time>2021-03-26T08:38:04Z</time>
      </trkpt>
      <trkpt lat="45.64708" lon="6.85191">
        <ele>1962</ele>
        <time>2021-03-26T08:38:05Z</time>
      </trkpt>
      <trkpt lat="45.6471" lon="6.85193">
        <ele>1962.1</ele>
        <time>2021-03-26T08:38:06Z</time>
      </trkpt>
      <trkpt lat="45.6471" lon="6.85193">
        <ele>1962.1</ele>
        <time>2021-03-26T08:38:07Z</time>
      </trkpt>
      <trkpt lat="45.64711" lon="6.85194">
        <ele>1962.2</ele>
        <time>2021-03-26T08:38:08Z</time>
      </trkpt>
      <trkpt lat="45.64711" lon="6.85194">
        <ele>1962.2</ele>
        <time>2021-03-26T08:38:09Z</time>
      </trkpt>
      <trkpt lat="45.64712" lon="6.85195">
        <ele>1962.3</ele>
        <time>2021-03-26T08:38:10Z</time>
      </trkpt>
      <trkpt lat="45.64713" lon="6.85196">
        <ele>1962.4</ele>
        <time>2021-03-26T08:38:11Z</time>
      </trkpt>
      <trkpt lat="45.64713" lon="6.85197">
        <ele>1962.4</ele>
        <time>2021-03-26T08:38:12Z</time>
      </trkpt>
      <trkpt lat="45.64714" lon="6.85198">
        <ele>1962.5</ele>
        <time>2021-03-26T08:38:13Z</time>
      </trkpt>
      <trkpt lat="45.64715" lon="6.85199">
        <ele>1962.6</ele>
        <time>2021-03-26T08:38:14Z</time>
      </trkpt>
      <trkpt lat="45.64716" lon="6.85199">
        <ele>1962.6</ele>
        <time>2021-03-26T08:38:15Z</time>
      </trkpt>
      <trkpt lat="45.64716" lon="6.852">
        <ele>1962.7</ele>
        <time>2021-03-26T08:38:16Z</time>
      </trkpt>
      <trkpt lat="45.64717" lon="6.85201">
        <ele>1962.7</ele>
        <time>2021-03-26T08:38:17Z</time>
      </trkpt>
      <trkpt lat="45.64718" lon="6.85202">
        <ele>1962.8</ele>
        <time>2021-03-26T08:38:18Z</time>
      </trkpt>
      <trkpt lat="45.64719" lon="6.85203">
        <ele>1962.8</ele>
        <time>2021-03-26T08:38:19Z</time>
      </trkpt>
      <trkpt lat="45.6472" lon="6.85203">
        <ele>1962.9</ele>
        <time>2021-03-26T08:38:20Z</time>
      </trkpt>
      <trkpt lat="45.6472" lon="6.85204">
        <ele>1962.9</ele>
        <time>2021-03-26T08:38:21Z</time>
      </trkpt>
      <trkpt lat="45.64721" lon="6.85204">
        <ele>1963</ele>
        <time>2021-03-26T08:38:22Z</time>
      </trkpt>
      <trkpt lat="45.64722" lon="6.85204">
        <ele>1963</ele>
        <time>2021-03-26T08:38:23Z</time>
      </trkpt>
      <trkpt lat="45.64723" lon="6.85205">
        <ele>1963</ele>
        <time>2021-03-26T08:38:24Z</time>
      </trkpt>
      <trkpt lat="45.64724" lon="6.85205">
        <ele>1963.1</ele>
        <time>2021-03-26T08:38:25Z</time>
      </trkpt>
      <trkpt lat="45.64725" lon="6.85205">
        <ele>1963.1</ele>
        <time>2021-03-26T08:38:26Z</time>
      </trkpt>
      <trkpt lat="45.64725" lon="6.85206">
        <ele>1963.2</ele>
        <time>2021-03-26T08:38:27Z</time>
      </trkpt>
      <trkpt lat="45.64726" lon="6.85206">
        <ele>1963.2</ele>
        <time>2021-03-26T08:38:28Z</time>
      </trkpt>
      <trkpt lat="45.64728" lon="6.85206">
        <ele>1963.3</ele>
        <time>2021-03-26T08:38:29Z</time>
      </trkpt>
      <trkpt lat="45.64728" lon="6.85206">
        <ele>1963.3</ele>
        <time>2021-03-26T08:38:30Z</time>
      </trkpt>
      <trkpt lat="45.64729" lon="6.85206">
        <ele>1963.4</ele>
        <time>2021-03-26T08:38:31Z</time>
      </trkpt>
      <trkpt lat="45.6473" lon="6.85207">
        <ele>1963.4</ele>
        <time>2021-03-26T08:38:32Z</time>
      </trkpt>
      <trkpt lat="45.64731" lon="6.85207">
        <ele>1963.4</ele>
        <time>2021-03-26T08:38:33Z</time>
      </trkpt>
      <trkpt lat="45.64732" lon="6.85206">
        <ele>1963.5</ele>
        <time>2021-03-26T08:38:34Z</time>
      </trkpt>
      <trkpt lat="45.64733" lon="6.85206">
        <ele>1963.5</ele>
        <time>2021-03-26T08:38:35Z</time>
      </trkpt>
      <trkpt lat="45.64734" lon="6.85206">
        <ele>1963.6</ele>
        <time>2021-03-26T08:38:36Z</time>
      </trkpt>
      <trkpt lat="45.64735" lon="6.85205">
        <ele>1963.6</ele>
        <time>2021-03-26T08:38:37Z</time>
      </trkpt>
      <trkpt lat="45.64736" lon="6.85205">
        <ele>1963.6</ele>
        <time>2021-03-26T08:38:38Z</time>
      </trkpt>
      <trkpt lat="45.64737" lon="6.85205">
        <ele>1963.7</ele>
        <time>2021-03-26T08:38:39Z</time>
      </trkpt>
      <trkpt lat="45.64738" lon="6.85205">
        <ele>1963.7</ele>
        <time>2021-03-26T08:38:40Z</time>
      </trkpt>
      <trkpt lat="45.64739" lon="6.85205">
        <ele>1963.8</ele>
        <time>2021-03-26T08:38:41Z</time>
      </trkpt>
      <trkpt lat="45.6474" lon="6.85205">
        <ele>1963.8</ele>
        <time>2021-03-26T08:38:42Z</time>
      </trkpt>
      <trkpt lat="45.64741" lon="6.85205">
        <ele>1963.9</ele>
        <time>2021-03-26T08:38:43Z</time>
      </trkpt>
      <trkpt lat="45.64742" lon="6.85205">
        <ele>1963.9</ele>
        <time>2021-03-26T08:38:44Z</time>
      </trkpt>
      <trkpt lat="45.64743" lon="6.85205">
        <ele>1963.9</ele>
        <time>2021-03-26T08:38:45Z</time>
      </trkpt>
      <trkpt lat="45.64744" lon="6.85205">
        <ele>1964</ele>
        <time>2021-03-26T08:38:46Z</time>
      </trkpt>
      <trkpt lat="45.64745" lon="6.85205">
        <ele>1964</ele>
        <time>2021-03-26T08:38:47Z</time>
      </trkpt>
      <trkpt lat="45.64746" lon="6.85205">
        <ele>1964</ele>
        <time>2021-03-26T08:38:48Z</time>
      </trkpt>
      <trkpt lat="45.64747" lon="6.85205">
        <ele>1964.1</ele>
        <time>2021-03-26T08:38:49Z</time>
      </trkpt>
      <trkpt lat="45.64747" lon="6.85205">
        <ele>1964.1</ele>
        <time>2021-03-26T08:38:50Z</time>
      </trkpt>
      <trkpt lat="45.64748" lon="6.85205">
        <ele>1964.1</ele>
        <time>2021-03-26T08:38:51Z</time>
      </trkpt>
      <trkpt lat="45.64749" lon="6.85205">
        <ele>1964.1</ele>
        <time>2021-03-26T08:38:52Z</time>
      </trkpt>
      <trkpt lat="45.6475" lon="6.85205">
        <ele>1964.2</ele>
        <time>2021-03-26T08:38:53Z</time>
      </trkpt>
      <trkpt lat="45.6475" lon="6.85205">
        <ele>1964.2</ele>
        <time>2021-03-26T08:38:54Z</time>
      </trkpt>
      <trkpt lat="45.64751" lon="6.85205">
        <ele>1964.2</ele>
        <time>2021-03-26T08:38:55Z</time>
      </trkpt>
      <trkpt lat="45.64752" lon="6.85205">
        <ele>1964.3</ele>
        <time>2021-03-26T08:38:56Z</time>
      </trkpt>
      <trkpt lat="45.64753" lon="6.85205">
        <ele>1964.3</ele>
        <time>2021-03-26T08:38:57Z</time>
      </trkpt>
      <trkpt lat="45.64755" lon="6.85205">
        <ele>1964.4</ele>
        <time>2021-03-26T08:38:58Z</time>
      </trkpt>
      <trkpt lat="45.64756" lon="6.85205">
        <ele>1964.4</ele>
        <time>2021-03-26T08:38:59Z</time>
      </trkpt>
      <trkpt lat="45.64757" lon="6.85206">
        <ele>1964.4</ele>
        <time>2021-03-26T08:39:00Z</time>
      </trkpt>
      <trkpt lat="45.64758" lon="6.85206">
        <ele>1964.5</ele>
        <time>2021-03-26T08:39:01Z</time>
      </trkpt>
      <trkpt lat="45.64759" lon="6.85206">
        <ele>1964.5</ele>
        <time>2021-03-26T08:39:02Z</time>
      </trkpt>
      <trkpt lat="45.6476" lon="6.85207">
        <ele>1964.5</ele>
        <time>2021-03-26T08:39:03Z</time>
      </trkpt>
      <trkpt lat="45.6476" lon="6.85208">
        <ele>1964.6</ele>
        <time>2021-03-26T08:39:04Z</time>
      </trkpt>
      <trkpt lat="45.64761" lon="6.85208">
        <ele>1964.6</ele>
        <time>2021-03-26T08:39:05Z</time>
      </trkpt>
      <trkpt lat="45.64762" lon="6.85209">
        <ele>1964.6</ele>
        <time>2021-03-26T08:39:06Z</time>
      </trkpt>
      <trkpt lat="45.64763" lon="6.85209">
        <ele>1964.6</ele>
        <time>2021-03-26T08:39:07Z</time>
      </trkpt>
      <trkpt lat="45.64764" lon="6.8521">
        <ele>1964.7</ele>
        <time>2021-03-26T08:39:08Z</time>
      </trkpt>
      <trkpt lat="45.64765" lon="6.8521">
        <ele>1964.7</ele>
        <time>2021-03-26T08:39:09Z</time>
      </trkpt>
      <trkpt lat="45.64767" lon="6.85211">
        <ele>1964.8</ele>
        <time>2021-03-26T08:39:10Z</time>
      </trkpt>
      <trkpt lat="45.64768" lon="6.85212">
        <ele>1964.8</ele>
        <time>2021-03-26T08:39:11Z</time>
      </trkpt>
      <trkpt lat="45.64769" lon="6.85212">
        <ele>1964.8</ele>
        <time>2021-03-26T08:39:12Z</time>
      </trkpt>
      <trkpt lat="45.6477" lon="6.85213">
        <ele>1964.8</ele>
        <time>2021-03-26T08:39:13Z</time>
      </trkpt>
      <trkpt lat="45.64771" lon="6.85213">
        <ele>1964.9</ele>
        <time>2021-03-26T08:39:14Z</time>
      </trkpt>
      <trkpt lat="45.64772" lon="6.85214">
        <ele>1964.9</ele>
        <time>2021-03-26T08:39:15Z</time>
      </trkpt>
      <trkpt lat="45.64773" lon="6.85215">
        <ele>1964.9</ele>
        <time>2021-03-26T08:39:16Z</time>
      </trkpt>
      <trkpt lat="45.64774" lon="6.85216">
        <ele>1965</ele>
        <time>2021-03-26T08:39:17Z</time>
      </trkpt>
      <trkpt lat="45.64775" lon="6.85216">
        <ele>1965</ele>
        <time>2021-03-26T08:39:18Z</time>
      </trkpt>
      <trkpt lat="45.64776" lon="6.85217">
        <ele>1965</ele>
        <time>2021-03-26T08:39:19Z</time>
      </trkpt>
      <trkpt lat="45.64777" lon="6.85218">
        <ele>1965</ele>
        <time>2021-03-26T08:39:20Z</time>
      </trkpt>
      <trkpt lat="45.64778" lon="6.85219">
        <ele>1965.1</ele>
        <time>2021-03-26T08:39:21Z</time>
      </trkpt>
      <trkpt lat="45.64779" lon="6.8522">
        <ele>1965.1</ele>
        <time>2021-03-26T08:39:22Z</time>
      </trkpt>
      <trkpt lat="45.6478" lon="6.8522">
        <ele>1965.1</ele>
        <time>2021-03-26T08:39:23Z</time>
      </trkpt>
      <trkpt lat="45.64781" lon="6.85221">
        <ele>1965.1</ele>
        <time>2021-03-26T08:39:24Z</time>
      </trkpt>
      <trkpt lat="45.64782" lon="6.85222">
        <ele>1965.2</ele>
        <time>2021-03-26T08:39:25Z</time>
      </trkpt>
      <trkpt lat="45.64782" lon="6.85223">
        <ele>1965.2</ele>
        <time>2021-03-26T08:39:26Z</time>
      </trkpt>
      <trkpt lat="45.64784" lon="6.85224">
        <ele>1965.2</ele>
        <time>2021-03-26T08:39:27Z</time>
      </trkpt>
      <trkpt lat="45.64784" lon="6.85225">
        <ele>1965.2</ele>
        <time>2021-03-26T08:39:28Z</time>
      </trkpt>
      <trkpt lat="45.64785" lon="6.85226">
        <ele>1965.3</ele>
        <time>2021-03-26T08:39:29Z</time>
      </trkpt>
      <trkpt lat="45.64786" lon="6.85227">
        <ele>1965.3</ele>
        <time>2021-03-26T08:39:30Z</time>
      </trkpt>
      <trkpt lat="45.64787" lon="6.85228">
        <ele>1965.3</ele>
        <time>2021-03-26T08:39:31Z</time>
      </trkpt>
      <trkpt lat="45.64788" lon="6.85228">
        <ele>1965.3</ele>
        <time>2021-03-26T08:39:32Z</time>
      </trkpt>
      <trkpt lat="45.64789" lon="6.85229">
        <ele>1965.4</ele>
        <time>2021-03-26T08:39:33Z</time>
      </trkpt>
      <trkpt lat="45.6479" lon="6.8523">
        <ele>1965.4</ele>
        <time>2021-03-26T08:39:34Z</time>
      </trkpt>
      <trkpt lat="45.64791" lon="6.85231">
        <ele>1965.4</ele>
        <time>2021-03-26T08:39:35Z</time>
      </trkpt>
      <trkpt lat="45.64791" lon="6.85231">
        <ele>1965.4</ele>
        <time>2021-03-26T08:39:36Z</time>
      </trkpt>
      <trkpt lat="45.64791" lon="6.85231">
        <ele>1965.4</ele>
        <time>2021-03-26T08:39:37Z</time>
      </trkpt>
      <trkpt lat="45.64791" lon="6.85231">
        <ele>1965.4</ele>
        <time>2021-03-26T08:39:38Z</time>
      </trkpt>
      <trkpt lat="45.64791" lon="6.85231">
        <ele>1965.4</ele>
        <time>2021-03-26T08:39:39Z</time>
      </trkpt>
      <trkpt lat="45.64791" lon="6.85231">
        <ele>1965.4</ele>
        <time>2021-03-26T08:39:40Z</time>
      </trkpt>
      <trkpt lat="45.64791" lon="6.85231">
        <ele>1965.4</ele>
        <time>2021-03-26T08:39:41Z</time>
      </trkpt>
      <trkpt lat="45.64791" lon="6.85231">
        <ele>1965.4</ele>
        <time>2021-03-26T08:39:42Z</time>
      </trkpt>
      <trkpt lat="45.64792" lon="6.85231">
        <ele>1965.4</ele>
        <time>2021-03-26T08:39:43Z</time>
      </trkpt>
      <trkpt lat="45.64793" lon="6.85232">
        <ele>1965.5</ele>
        <time>2021-03-26T08:39:44Z</time>
      </trkpt>
      <trkpt lat="45.64794" lon="6.85233">
        <ele>1965.5</ele>
        <time>2021-03-26T08:39:45Z</time>
      </trkpt>
      <trkpt lat="45.64794" lon="6.85233">
        <ele>1965.5</ele>
        <time>2021-03-26T08:39:46Z</time>
      </trkpt>
      <trkpt lat="45.64795" lon="6.85234">
        <ele>1965.5</ele>
        <time>2021-03-26T08:39:47Z</time>
      </trkpt>
      <trkpt lat="45.64796" lon="6.85234">
        <ele>1965.6</ele>
        <time>2021-03-26T08:39:48Z</time>
      </trkpt>
      <trkpt lat="45.64797" lon="6.85235">
        <ele>1965.6</ele>
        <time>2021-03-26T08:39:49Z</time>
      </trkpt>
      <trkpt lat="45.64798" lon="6.85235">
        <ele>1965.6</ele>
        <time>2021-03-26T08:39:50Z</time>
      </trkpt>
      <trkpt lat="45.64799" lon="6.85236">
        <ele>1965.6</ele>
        <time>2021-03-26T08:39:51Z</time>
      </trkpt>
      <trkpt lat="45.648" lon="6.85237">
        <ele>1965.7</ele>
        <time>2021-03-26T08:39:52Z</time>
      </trkpt>
      <trkpt lat="45.648" lon="6.85237">
        <ele>1965.7</ele>
        <time>2021-03-26T08:39:53Z</time>
      </trkpt>
      <trkpt lat="45.64801" lon="6.85238">
        <ele>1965.7</ele>
        <time>2021-03-26T08:39:54Z</time>
      </trkpt>
      <trkpt lat="45.64802" lon="6.85239">
        <ele>1965.7</ele>
        <time>2021-03-26T08:39:55Z</time>
      </trkpt>
      <trkpt lat="45.64803" lon="6.85239">
        <ele>1965.8</ele>
        <time>2021-03-26T08:39:56Z</time>
      </trkpt>
      <trkpt lat="45.64804" lon="6.8524">
        <ele>1965.8</ele>
        <time>2021-03-26T08:39:57Z</time>
      </trkpt>
      <trkpt lat="45.64805" lon="6.8524">
        <ele>1965.8</ele>
        <time>2021-03-26T08:39:58Z</time>
      </trkpt>
      <trkpt lat="45.64806" lon="6.8524">
        <ele>1965.8</ele>
        <time>2021-03-26T08:39:59Z</time>
      </trkpt>
      <trkpt lat="45.64807" lon="6.85241">
        <ele>1965.9</ele>
        <time>2021-03-26T08:40:00Z</time>
      </trkpt>
      <trkpt lat="45.64808" lon="6.85241">
        <ele>1965.9</ele>
        <time>2021-03-26T08:40:01Z</time>
      </trkpt>
      <trkpt lat="45.6481" lon="6.85242">
        <ele>1965.9</ele>
        <time>2021-03-26T08:40:02Z</time>
      </trkpt>
      <trkpt lat="45.64811" lon="6.85243">
        <ele>1966</ele>
        <time>2021-03-26T08:40:03Z</time>
      </trkpt>
      <trkpt lat="45.64811" lon="6.85243">
        <ele>1966</ele>
        <time>2021-03-26T08:40:04Z</time>
      </trkpt>
      <trkpt lat="45.64813" lon="6.85244">
        <ele>1966</ele>
        <time>2021-03-26T08:40:05Z</time>
      </trkpt>
      <trkpt lat="45.64814" lon="6.85245">
        <ele>1966.1</ele>
        <time>2021-03-26T08:40:06Z</time>
      </trkpt>
      <trkpt lat="45.64815" lon="6.85245">
        <ele>1966.1</ele>
        <time>2021-03-26T08:40:07Z</time>
      </trkpt>
      <trkpt lat="45.64817" lon="6.85246">
        <ele>1966.1</ele>
        <time>2021-03-26T08:40:08Z</time>
      </trkpt>
      <trkpt lat="45.64818" lon="6.85247">
        <ele>1966.2</ele>
        <time>2021-03-26T08:40:09Z</time>
      </trkpt>
      <trkpt lat="45.64818" lon="6.85247">
        <ele>1966.2</ele>
        <time>2021-03-26T08:40:10Z</time>
      </trkpt>
      <trkpt lat="45.64819" lon="6.85248">
        <ele>1966.2</ele>
        <time>2021-03-26T08:40:11Z</time>
      </trkpt>
      <trkpt lat="45.6482" lon="6.85248">
        <ele>1966.2</ele>
        <time>2021-03-26T08:40:12Z</time>
      </trkpt>
      <trkpt lat="45.64822" lon="6.85249">
        <ele>1966.3</ele>
        <time>2021-03-26T08:40:13Z</time>
      </trkpt>
      <trkpt lat="45.64823" lon="6.8525">
        <ele>1966.3</ele>
        <time>2021-03-26T08:40:14Z</time>
      </trkpt>
      <trkpt lat="45.64824" lon="6.8525">
        <ele>1966.3</ele>
        <time>2021-03-26T08:40:15Z</time>
      </trkpt>
      <trkpt lat="45.64825" lon="6.85251">
        <ele>1966.3</ele>
        <time>2021-03-26T08:40:16Z</time>
      </trkpt>
      <trkpt lat="45.64827" lon="6.85252">
        <ele>1966.4</ele>
        <time>2021-03-26T08:40:17Z</time>
      </trkpt>
      <trkpt lat="45.64828" lon="6.85252">
        <ele>1966.4</ele>
        <time>2021-03-26T08:40:18Z</time>
      </trkpt>
      <trkpt lat="45.64828" lon="6.85252">
        <ele>1966.4</ele>
        <time>2021-03-26T08:40:19Z</time>
      </trkpt>
      <trkpt lat="45.6483" lon="6.85253">
        <ele>1966.5</ele>
        <time>2021-03-26T08:40:20Z</time>
      </trkpt>
      <trkpt lat="45.64831" lon="6.85253">
        <ele>1966.5</ele>
        <time>2021-03-26T08:40:21Z</time>
      </trkpt>
      <trkpt lat="45.64831" lon="6.85254">
        <ele>1966.5</ele>
        <time>2021-03-26T08:40:22Z</time>
      </trkpt>
      <trkpt lat="45.64832" lon="6.85255">
        <ele>1966.6</ele>
        <time>2021-03-26T08:40:23Z</time>
      </trkpt>
      <trkpt lat="45.64833" lon="6.85255">
        <ele>1966.6</ele>
        <time>2021-03-26T08:40:24Z</time>
      </trkpt>
      <trkpt lat="45.64835" lon="6.85256">
        <ele>1966.6</ele>
        <time>2021-03-26T08:40:25Z</time>
      </trkpt>
      <trkpt lat="45.64836" lon="6.85256">
        <ele>1966.6</ele>
        <time>2021-03-26T08:40:26Z</time>
      </trkpt>
      <trkpt lat="45.64837" lon="6.85256">
        <ele>1966.7</ele>
        <time>2021-03-26T08:40:27Z</time>
      </trkpt>
      <trkpt lat="45.64838" lon="6.85257">
        <ele>1966.7</ele>
        <time>2021-03-26T08:40:28Z</time>
      </trkpt>
      <trkpt lat="45.64839" lon="6.85257">
        <ele>1966.7</ele>
        <time>2021-03-26T08:40:29Z</time>
      </trkpt>
      <trkpt lat="45.64839" lon="6.85257">
        <ele>1966.7</ele>
        <time>2021-03-26T08:40:30Z</time>
      </trkpt>
      <trkpt lat="45.6484" lon="6.85257">
        <ele>1966.8</ele>
        <time>2021-03-26T08:40:31Z</time>
      </trkpt>
      <trkpt lat="45.6484" lon="6.85257">
        <ele>1966.8</ele>
        <time>2021-03-26T08:40:32Z</time>
      </trkpt>
      <trkpt lat="45.6484" lon="6.85257">
        <ele>1966.8</ele>
        <time>2021-03-26T08:40:33Z</time>
      </trkpt>
      <trkpt lat="45.6484" lon="6.85257">
        <ele>1966.8</ele>
        <time>2021-03-26T08:40:34Z</time>
      </trkpt>
      <trkpt lat="45.6484" lon="6.85257">
        <ele>1966.8</ele>
        <time>2021-03-26T08:40:35Z</time>
      </trkpt>
      <trkpt lat="45.64841" lon="6.85257">
        <ele>1966.8</ele>
        <time>2021-03-26T08:40:36Z</time>
      </trkpt>
      <trkpt lat="45.64841" lon="6.85257">
        <ele>1966.8</ele>
        <time>2021-03-26T08:40:37Z</time>
      </trkpt>
      <trkpt lat="45.64842" lon="6.85257">
        <ele>1966.8</ele>
        <time>2021-03-26T08:40:38Z</time>
      </trkpt>
      <trkpt lat="45.64844" lon="6.85258">
        <ele>1966.9</ele>
        <time>2021-03-26T08:40:39Z</time>
      </trkpt>
      <trkpt lat="45.64845" lon="6.85258">
        <ele>1966.9</ele>
        <time>2021-03-26T08:40:40Z</time>
      </trkpt>
      <trkpt lat="45.64846" lon="6.85258">
        <ele>1966.9</ele>
        <time>2021-03-26T08:40:41Z</time>
      </trkpt>
      <trkpt lat="45.64847" lon="6.85258">
        <ele>1967</ele>
        <time>2021-03-26T08:40:42Z</time>
      </trkpt>
      <trkpt lat="45.64849" lon="6.85259">
        <ele>1967</ele>
        <time>2021-03-26T08:40:43Z</time>
      </trkpt>
      <trkpt lat="45.6485" lon="6.85259">
        <ele>1967</ele>
        <time>2021-03-26T08:40:44Z</time>
      </trkpt>
      <trkpt lat="45.64851" lon="6.85259">
        <ele>1967.1</ele>
        <time>2021-03-26T08:40:45Z</time>
      </trkpt>
      <trkpt lat="45.64852" lon="6.8526">
        <ele>1967.1</ele>
        <time>2021-03-26T08:40:46Z</time>
      </trkpt>
      <trkpt lat="45.64854" lon="6.8526">
        <ele>1967.1</ele>
        <time>2021-03-26T08:40:47Z</time>
      </trkpt>
      <trkpt lat="45.64855" lon="6.8526">
        <ele>1967.2</ele>
        <time>2021-03-26T08:40:48Z</time>
      </trkpt>
      <trkpt lat="45.64856" lon="6.8526">
        <ele>1967.2</ele>
        <time>2021-03-26T08:40:49Z</time>
      </trkpt>
      <trkpt lat="45.64857" lon="6.85261">
        <ele>1967.2</ele>
        <time>2021-03-26T08:40:50Z</time>
      </trkpt>
      <trkpt lat="45.64858" lon="6.85261">
        <ele>1967.2</ele>
        <time>2021-03-26T08:40:51Z</time>
      </trkpt>
      <trkpt lat="45.64859" lon="6.85262">
        <ele>1967.3</ele>
        <time>2021-03-26T08:40:52Z</time>
      </trkpt>
      <trkpt lat="45.6486" lon="6.85262">
        <ele>1967.3</ele>
        <time>2021-03-26T08:40:53Z</time>
      </trkpt>
      <trkpt lat="45.64861" lon="6.85262">
        <ele>1967.3</ele>
        <time>2021-03-26T08:40:54Z</time>
      </trkpt>
      <trkpt lat="45.64862" lon="6.85263">
        <ele>1967.4</ele>
        <time>2021-03-26T08:40:55Z</time>
      </trkpt>
      <trkpt lat="45.64863" lon="6.85263">
        <ele>1967.4</ele>
        <time>2021-03-26T08:40:56Z</time>
      </trkpt>
      <trkpt lat="45.64864" lon="6.85264">
        <ele>1967.4</ele>
        <time>2021-03-26T08:40:57Z</time>
      </trkpt>
      <trkpt lat="45.64865" lon="6.85265">
        <ele>1967.5</ele>
        <time>2021-03-26T08:40:58Z</time>
      </trkpt>
      <trkpt lat="45.64866" lon="6.85265">
        <ele>1967.5</ele>
        <time>2021-03-26T08:40:59Z</time>
      </trkpt>
      <trkpt lat="45.64867" lon="6.85266">
        <ele>1967.5</ele>
        <time>2021-03-26T08:41:00Z</time>
      </trkpt>
      <trkpt lat="45.64868" lon="6.85266">
        <ele>1967.5</ele>
        <time>2021-03-26T08:41:01Z</time>
      </trkpt>
      <trkpt lat="45.64869" lon="6.85267">
        <ele>1967.6</ele>
        <time>2021-03-26T08:41:02Z</time>
      </trkpt>
      <trkpt lat="45.6487" lon="6.85268">
        <ele>1967.6</ele>
        <time>2021-03-26T08:41:03Z</time>
      </trkpt>
      <trkpt lat="45.6487" lon="6.85269">
        <ele>1967.6</ele>
        <time>2021-03-26T08:41:04Z</time>
      </trkpt>
      <trkpt lat="45.64871" lon="6.8527">
        <ele>1967.6</ele>
        <time>2021-03-26T08:41:05Z</time>
      </trkpt>
      <trkpt lat="45.64872" lon="6.8527">
        <ele>1967.7</ele>
        <time>2021-03-26T08:41:06Z</time>
      </trkpt>
      <trkpt lat="45.64873" lon="6.85271">
        <ele>1967.7</ele>
        <time>2021-03-26T08:41:07Z</time>
      </trkpt>
      <trkpt lat="45.64874" lon="6.85272">
        <ele>1967.7</ele>
        <time>2021-03-26T08:41:08Z</time>
      </trkpt>
      <trkpt lat="45.64875" lon="6.85273">
        <ele>1967.8</ele>
        <time>2021-03-26T08:41:09Z</time>
      </trkpt>
      <trkpt lat="45.64875" lon="6.85274">
        <ele>1967.8</ele>
        <time>2021-03-26T08:41:10Z</time>
      </trkpt>
      <trkpt lat="45.64876" lon="6.85274">
        <ele>1967.8</ele>
        <time>2021-03-26T08:41:11Z</time>
      </trkpt>
      <trkpt lat="45.64877" lon="6.85275">
        <ele>1967.8</ele>
        <time>2021-03-26T08:41:12Z</time>
      </trkpt>
      <trkpt lat="45.64878" lon="6.85276">
        <ele>1967.9</ele>
        <time>2021-03-26T08:41:13Z</time>
      </trkpt>
      <trkpt lat="45.64879" lon="6.85277">
        <ele>1967.9</ele>
        <time>2021-03-26T08:41:14Z</time>
      </trkpt>
      <trkpt lat="45.6488" lon="6.85278">
        <ele>1967.9</ele>
        <time>2021-03-26T08:41:15Z</time>
      </trkpt>
      <trkpt lat="45.64881" lon="6.85279">
        <ele>1968</ele>
        <time>2021-03-26T08:41:16Z</time>
      </trkpt>
      <trkpt lat="45.64881" lon="6.8528">
        <ele>1968</ele>
        <time>2021-03-26T08:41:17Z</time>
      </trkpt>
      <trkpt lat="45.64882" lon="6.8528">
        <ele>1968</ele>
        <time>2021-03-26T08:41:18Z</time>
      </trkpt>
      <trkpt lat="45.64883" lon="6.85281">
        <ele>1968</ele>
        <time>2021-03-26T08:41:19Z</time>
      </trkpt>
      <trkpt lat="45.64884" lon="6.85282">
        <ele>1968.1</ele>
        <time>2021-03-26T08:41:20Z</time>
      </trkpt>
      <trkpt lat="45.64885" lon="6.85283">
        <ele>1968.1</ele>
        <time>2021-03-26T08:41:21Z</time>
      </trkpt>
      <trkpt lat="45.64885" lon="6.85284">
        <ele>1968.1</ele>
        <time>2021-03-26T08:41:22Z</time>
      </trkpt>
      <trkpt lat="45.64886" lon="6.85285">
        <ele>1968.2</ele>
        <time>2021-03-26T08:41:23Z</time>
      </trkpt>
      <trkpt lat="45.64888" lon="6.85287">
        <ele>1968.2</ele>
        <time>2021-03-26T08:41:24Z</time>
      </trkpt>
      <trkpt lat="45.64889" lon="6.85287">
        <ele>1968.2</ele>
        <time>2021-03-26T08:41:25Z</time>
      </trkpt>
      <trkpt lat="45.64889" lon="6.85288">
        <ele>1968.3</ele>
        <time>2021-03-26T08:41:26Z</time>
      </trkpt>
      <trkpt lat="45.64891" lon="6.8529">
        <ele>1968.3</ele>
        <time>2021-03-26T08:41:27Z</time>
      </trkpt>
      <trkpt lat="45.64892" lon="6.8529">
        <ele>1968.3</ele>
        <time>2021-03-26T08:41:28Z</time>
      </trkpt>
      <trkpt lat="45.64892" lon="6.85291">
        <ele>1968.4</ele>
        <time>2021-03-26T08:41:29Z</time>
      </trkpt>
      <trkpt lat="45.64893" lon="6.85292">
        <ele>1968.4</ele>
        <time>2021-03-26T08:41:30Z</time>
      </trkpt>
      <trkpt lat="45.64894" lon="6.85293">
        <ele>1968.4</ele>
        <time>2021-03-26T08:41:31Z</time>
      </trkpt>
      <trkpt lat="45.64895" lon="6.85294">
        <ele>1968.5</ele>
        <time>2021-03-26T08:41:32Z</time>
      </trkpt>
      <trkpt lat="45.64897" lon="6.85294">
        <ele>1968.5</ele>
        <time>2021-03-26T08:41:33Z</time>
      </trkpt>
      <trkpt lat="45.64898" lon="6.85295">
        <ele>1968.6</ele>
        <time>2021-03-26T08:41:34Z</time>
      </trkpt>
      <trkpt lat="45.64899" lon="6.85295">
        <ele>1968.6</ele>
        <time>2021-03-26T08:41:35Z</time>
      </trkpt>
      <trkpt lat="45.649" lon="6.85296">
        <ele>1968.6</ele>
        <time>2021-03-26T08:41:36Z</time>
      </trkpt>
      <trkpt lat="45.64901" lon="6.85296">
        <ele>1968.7</ele>
        <time>2021-03-26T08:41:37Z</time>
      </trkpt>
      <trkpt lat="45.64902" lon="6.85297">
        <ele>1968.7</ele>
        <time>2021-03-26T08:41:38Z</time>
      </trkpt>
      <trkpt lat="45.64903" lon="6.85298">
        <ele>1968.7</ele>
        <time>2021-03-26T08:41:39Z</time>
      </trkpt>
      <trkpt lat="45.64904" lon="6.85299">
        <ele>1968.8</ele>
        <time>2021-03-26T08:41:40Z</time>
      </trkpt>
      <trkpt lat="45.64905" lon="6.853">
        <ele>1968.8</ele>
        <time>2021-03-26T08:41:41Z</time>
      </trkpt>
      <trkpt lat="45.64905" lon="6.85301">
        <ele>1968.9</ele>
        <time>2021-03-26T08:41:42Z</time>
      </trkpt>
      <trkpt lat="45.64906" lon="6.85302">
        <ele>1968.9</ele>
        <time>2021-03-26T08:41:43Z</time>
      </trkpt>
      <trkpt lat="45.64907" lon="6.85303">
        <ele>1969</ele>
        <time>2021-03-26T08:41:44Z</time>
      </trkpt>
      <trkpt lat="45.64908" lon="6.85303">
        <ele>1969</ele>
        <time>2021-03-26T08:41:45Z</time>
      </trkpt>
      <trkpt lat="45.64908" lon="6.85304">
        <ele>1969.1</ele>
        <time>2021-03-26T08:41:46Z</time>
      </trkpt>
      <trkpt lat="45.64909" lon="6.85305">
        <ele>1969.1</ele>
        <time>2021-03-26T08:41:47Z</time>
      </trkpt>
      <trkpt lat="45.6491" lon="6.85306">
        <ele>1969.2</ele>
        <time>2021-03-26T08:41:48Z</time>
      </trkpt>
      <trkpt lat="45.64911" lon="6.85307">
        <ele>1969.2</ele>
        <time>2021-03-26T08:41:49Z</time>
      </trkpt>
      <trkpt lat="45.64912" lon="6.85308">
        <ele>1969.2</ele>
        <time>2021-03-26T08:41:50Z</time>
      </trkpt>
      <trkpt lat="45.64912" lon="6.85308">
        <ele>1969.3</ele>
        <time>2021-03-26T08:41:51Z</time>
      </trkpt>
      <trkpt lat="45.64913" lon="6.8531">
        <ele>1969.3</ele>
        <time>2021-03-26T08:41:52Z</time>
      </trkpt>
      <trkpt lat="45.64914" lon="6.8531">
        <ele>1969.4</ele>
        <time>2021-03-26T08:41:53Z</time>
      </trkpt>
      <trkpt lat="45.64915" lon="6.85311">
        <ele>1969.4</ele>
        <time>2021-03-26T08:41:54Z</time>
      </trkpt>
      <trkpt lat="45.64916" lon="6.85312">
        <ele>1969.5</ele>
        <time>2021-03-26T08:41:55Z</time>
      </trkpt>
      <trkpt lat="45.64916" lon="6.85313">
        <ele>1969.5</ele>
        <time>2021-03-26T08:41:56Z</time>
      </trkpt>
      <trkpt lat="45.64917" lon="6.85315">
        <ele>1969.6</ele>
        <time>2021-03-26T08:41:57Z</time>
      </trkpt>
      <trkpt lat="45.64917" lon="6.85316">
        <ele>1969.6</ele>
        <time>2021-03-26T08:41:58Z</time>
      </trkpt>
      <trkpt lat="45.64918" lon="6.85317">
        <ele>1969.7</ele>
        <time>2021-03-26T08:41:59Z</time>
      </trkpt>
      <trkpt lat="45.64919" lon="6.85318">
        <ele>1969.7</ele>
        <time>2021-03-26T08:42:00Z</time>
      </trkpt>
      <trkpt lat="45.64919" lon="6.8532">
        <ele>1969.8</ele>
        <time>2021-03-26T08:42:01Z</time>
      </trkpt>
      <trkpt lat="45.6492" lon="6.85321">
        <ele>1969.8</ele>
        <time>2021-03-26T08:42:02Z</time>
      </trkpt>
      <trkpt lat="45.64921" lon="6.85322">
        <ele>1969.9</ele>
        <time>2021-03-26T08:42:03Z</time>
      </trkpt>
      <trkpt lat="45.64921" lon="6.85323">
        <ele>1969.9</ele>
        <time>2021-03-26T08:42:04Z</time>
      </trkpt>
      <trkpt lat="45.64922" lon="6.85324">
        <ele>1970</ele>
        <time>2021-03-26T08:42:05Z</time>
      </trkpt>
      <trkpt lat="45.64923" lon="6.85325">
        <ele>1970</ele>
        <time>2021-03-26T08:42:06Z</time>
      </trkpt>
      <trkpt lat="45.64923" lon="6.85326">
        <ele>1970.1</ele>
        <time>2021-03-26T08:42:07Z</time>
      </trkpt>
      <trkpt lat="45.64924" lon="6.85327">
        <ele>1970.1</ele>
        <time>2021-03-26T08:42:08Z</time>
      </trkpt>
      <trkpt lat="45.64925" lon="6.85327">
        <ele>1970.2</ele>
        <time>2021-03-26T08:42:09Z</time>
      </trkpt>
      <trkpt lat="45.64925" lon="6.85328">
        <ele>1970.2</ele>
        <time>2021-03-26T08:42:10Z</time>
      </trkpt>
      <trkpt lat="45.64926" lon="6.8533">
        <ele>1970.3</ele>
        <time>2021-03-26T08:42:11Z</time>
      </trkpt>
      <trkpt lat="45.64926" lon="6.8533">
        <ele>1970.3</ele>
        <time>2021-03-26T08:42:12Z</time>
      </trkpt>
      <trkpt lat="45.64927" lon="6.85331">
        <ele>1970.4</ele>
        <time>2021-03-26T08:42:13Z</time>
      </trkpt>
      <trkpt lat="45.64927" lon="6.85332">
        <ele>1970.4</ele>
        <time>2021-03-26T08:42:14Z</time>
      </trkpt>
      <trkpt lat="45.64928" lon="6.85333">
        <ele>1970.4</ele>
        <time>2021-03-26T08:42:15Z</time>
      </trkpt>
      <trkpt lat="45.64928" lon="6.85334">
        <ele>1970.5</ele>
        <time>2021-03-26T08:42:16Z</time>
      </trkpt>
      <trkpt lat="45.64929" lon="6.85335">
        <ele>1970.5</ele>
        <time>2021-03-26T08:42:17Z</time>
      </trkpt>
      <trkpt lat="45.6493" lon="6.85336">
        <ele>1970.6</ele>
        <time>2021-03-26T08:42:18Z</time>
      </trkpt>
      <trkpt lat="45.6493" lon="6.85337">
        <ele>1970.6</ele>
        <time>2021-03-26T08:42:19Z</time>
      </trkpt>
      <trkpt lat="45.64931" lon="6.85338">
        <ele>1970.7</ele>
        <time>2021-03-26T08:42:20Z</time>
      </trkpt>
      <trkpt lat="45.64931" lon="6.85339">
        <ele>1970.7</ele>
        <time>2021-03-26T08:42:21Z</time>
      </trkpt>
      <trkpt lat="45.64932" lon="6.8534">
        <ele>1970.8</ele>
        <time>2021-03-26T08:42:22Z</time>
      </trkpt>
      <trkpt lat="45.64932" lon="6.85341">
        <ele>1970.8</ele>
        <time>2021-03-26T08:42:23Z</time>
      </trkpt>
      <trkpt lat="45.64933" lon="6.85342">
        <ele>1970.9</ele>
        <time>2021-03-26T08:42:24Z</time>
      </trkpt>
      <trkpt lat="45.64933" lon="6.85343">
        <ele>1970.9</ele>
        <time>2021-03-26T08:42:25Z</time>
      </trkpt>
      <trkpt lat="45.64934" lon="6.85344">
        <ele>1971</ele>
        <time>2021-03-26T08:42:26Z</time>
      </trkpt>
      <trkpt lat="45.64934" lon="6.85345">
        <ele>1971</ele>
        <time>2021-03-26T08:42:27Z</time>
      </trkpt>
      <trkpt lat="45.64935" lon="6.85346">
        <ele>1971.1</ele>
        <time>2021-03-26T08:42:28Z</time>
      </trkpt>
      <trkpt lat="45.64935" lon="6.85347">
        <ele>1971.1</ele>
        <time>2021-03-26T08:42:29Z</time>
      </trkpt>
      <trkpt lat="45.64936" lon="6.85348">
        <ele>1971.1</ele>
        <time>2021-03-26T08:42:30Z</time>
      </trkpt>
      <trkpt lat="45.64936" lon="6.85349">
        <ele>1971.2</ele>
        <time>2021-03-26T08:42:31Z</time>
      </trkpt>
      <trkpt lat="45.64937" lon="6.8535">
        <ele>1971.2</ele>
        <time>2021-03-26T08:42:32Z</time>
      </trkpt>
      <trkpt lat="45.64937" lon="6.85351">
        <ele>1971.3</ele>
        <time>2021-03-26T08:42:33Z</time>
      </trkpt>
      <trkpt lat="45.64937" lon="6.85352">
        <ele>1971.3</ele>
        <time>2021-03-26T08:42:34Z</time>
      </trkpt>
      <trkpt lat="45.64938" lon="6.85354">
        <ele>1971.4</ele>
        <time>2021-03-26T08:42:35Z</time>
      </trkpt>
      <trkpt lat="45.64938" lon="6.85355">
        <ele>1971.4</ele>
        <time>2021-03-26T08:42:36Z</time>
      </trkpt>
      <trkpt lat="45.64938" lon="6.85356">
        <ele>1971.5</ele>
        <time>2021-03-26T08:42:37Z</time>
      </trkpt>
      <trkpt lat="45.64939" lon="6.85357">
        <ele>1971.5</ele>
        <time>2021-03-26T08:42:38Z</time>
      </trkpt>
      <trkpt lat="45.64939" lon="6.85358">
        <ele>1971.6</ele>
        <time>2021-03-26T08:42:39Z</time>
      </trkpt>
      <trkpt lat="45.6494" lon="6.85359">
        <ele>1971.6</ele>
        <time>2021-03-26T08:42:40Z</time>
      </trkpt>
      <trkpt lat="45.6494" lon="6.8536">
        <ele>1971.7</ele>
        <time>2021-03-26T08:42:41Z</time>
      </trkpt>
      <trkpt lat="45.64941" lon="6.85361">
        <ele>1971.7</ele>
        <time>2021-03-26T08:42:42Z</time>
      </trkpt>
      <trkpt lat="45.64941" lon="6.85362">
        <ele>1971.8</ele>
        <time>2021-03-26T08:42:43Z</time>
      </trkpt>
      <trkpt lat="45.64942" lon="6.85364">
        <ele>1971.9</ele>
        <time>2021-03-26T08:42:44Z</time>
      </trkpt>
      <trkpt lat="45.64942" lon="6.85365">
        <ele>1971.9</ele>
        <time>2021-03-26T08:42:45Z</time>
      </trkpt>
      <trkpt lat="45.64942" lon="6.85366">
        <ele>1971.9</ele>
        <time>2021-03-26T08:42:46Z</time>
      </trkpt>
      <trkpt lat="45.64943" lon="6.85367">
        <ele>1972</ele>
        <time>2021-03-26T08:42:47Z</time>
      </trkpt>
      <trkpt lat="45.64943" lon="6.85368">
        <ele>1972</ele>
        <time>2021-03-26T08:42:48Z</time>
      </trkpt>
      <trkpt lat="45.64943" lon="6.85369">
        <ele>1972.1</ele>
        <time>2021-03-26T08:42:49Z</time>
      </trkpt>
      <trkpt lat="45.64944" lon="6.8537">
        <ele>1972.1</ele>
        <time>2021-03-26T08:42:50Z</time>
      </trkpt>
      <trkpt lat="45.64944" lon="6.85371">
        <ele>1972.2</ele>
        <time>2021-03-26T08:42:51Z</time>
      </trkpt>
      <trkpt lat="45.64945" lon="6.85372">
        <ele>1972.2</ele>
        <time>2021-03-26T08:42:52Z</time>
      </trkpt>
      <trkpt lat="45.64945" lon="6.85373">
        <ele>1972.3</ele>
        <time>2021-03-26T08:42:53Z</time>
      </trkpt>
      <trkpt lat="45.64946" lon="6.85374">
        <ele>1972.4</ele>
        <time>2021-03-26T08:42:54Z</time>
      </trkpt>
      <trkpt lat="45.64947" lon="6.85375">
        <ele>1972.4</ele>
        <time>2021-03-26T08:42:55Z</time>
      </trkpt>
      <trkpt lat="45.64947" lon="6.85376">
        <ele>1972.5</ele>
        <time>2021-03-26T08:42:56Z</time>
      </trkpt>
      <trkpt lat="45.64948" lon="6.85377">
        <ele>1972.5</ele>
        <time>2021-03-26T08:42:57Z</time>
      </trkpt>
      <trkpt lat="45.64948" lon="6.85378">
        <ele>1972.6</ele>
        <time>2021-03-26T08:42:58Z</time>
      </trkpt>
      <trkpt lat="45.64949" lon="6.85379">
        <ele>1972.6</ele>
        <time>2021-03-26T08:42:59Z</time>
      </trkpt>
      <trkpt lat="45.64949" lon="6.8538">
        <ele>1972.7</ele>
        <time>2021-03-26T08:43:00Z</time>
      </trkpt>
      <trkpt lat="45.6495" lon="6.85381">
        <ele>1972.7</ele>
        <time>2021-03-26T08:43:01Z</time>
      </trkpt>
      <trkpt lat="45.6495" lon="6.85382">
        <ele>1972.8</ele>
        <time>2021-03-26T08:43:02Z</time>
      </trkpt>
      <trkpt lat="45.64951" lon="6.85383">
        <ele>1972.8</ele>
        <time>2021-03-26T08:43:03Z</time>
      </trkpt>
      <trkpt lat="45.64951" lon="6.85384">
        <ele>1972.9</ele>
        <time>2021-03-26T08:43:04Z</time>
      </trkpt>
      <trkpt lat="45.64952" lon="6.85385">
        <ele>1972.9</ele>
        <time>2021-03-26T08:43:05Z</time>
      </trkpt>
      <trkpt lat="45.64952" lon="6.85386">
        <ele>1973</ele>
        <time>2021-03-26T08:43:06Z</time>
      </trkpt>
      <trkpt lat="45.64953" lon="6.85387">
        <ele>1973.1</ele>
        <time>2021-03-26T08:43:07Z</time>
      </trkpt>
      <trkpt lat="45.64953" lon="6.85388">
        <ele>1973.1</ele>
        <time>2021-03-26T08:43:08Z</time>
      </trkpt>
      <trkpt lat="45.64953" lon="6.85389">
        <ele>1973.2</ele>
        <time>2021-03-26T08:43:09Z</time>
      </trkpt>
      <trkpt lat="45.64954" lon="6.8539">
        <ele>1973.2</ele>
        <time>2021-03-26T08:43:10Z</time>
      </trkpt>
      <trkpt lat="45.64954" lon="6.85391">
        <ele>1973.3</ele>
        <time>2021-03-26T08:43:11Z</time>
      </trkpt>
      <trkpt lat="45.64955" lon="6.85392">
        <ele>1973.4</ele>
        <time>2021-03-26T08:43:12Z</time>
      </trkpt>
      <trkpt lat="45.64955" lon="6.85393">
        <ele>1973.4</ele>
        <time>2021-03-26T08:43:13Z</time>
      </trkpt>
      <trkpt lat="45.64956" lon="6.85394">
        <ele>1973.5</ele>
        <time>2021-03-26T08:43:14Z</time>
      </trkpt>
      <trkpt lat="45.64956" lon="6.85395">
        <ele>1973.5</ele>
        <time>2021-03-26T08:43:15Z</time>
      </trkpt>
      <trkpt lat="45.64956" lon="6.85396">
        <ele>1973.6</ele>
        <time>2021-03-26T08:43:16Z</time>
      </trkpt>
      <trkpt lat="45.64957" lon="6.85397">
        <ele>1973.6</ele>
        <time>2021-03-26T08:43:17Z</time>
      </trkpt>
      <trkpt lat="45.64957" lon="6.85398">
        <ele>1973.6</ele>
        <time>2021-03-26T08:43:18Z</time>
      </trkpt>
      <trkpt lat="45.64957" lon="6.85398">
        <ele>1973.7</ele>
        <time>2021-03-26T08:43:19Z</time>
      </trkpt>
      <trkpt lat="45.64958" lon="6.85399">
        <ele>1973.7</ele>
        <time>2021-03-26T08:43:20Z</time>
      </trkpt>
      <trkpt lat="45.64958" lon="6.854">
        <ele>1973.8</ele>
        <time>2021-03-26T08:43:21Z</time>
      </trkpt>
      <trkpt lat="45.64959" lon="6.854">
        <ele>1973.8</ele>
        <time>2021-03-26T08:43:22Z</time>
      </trkpt>
      <trkpt lat="45.64959" lon="6.854">
        <ele>1973.8</ele>
        <time>2021-03-26T08:43:23Z</time>
      </trkpt>
      <trkpt lat="45.6496" lon="6.85401">
        <ele>1973.9</ele>
        <time>2021-03-26T08:43:24Z</time>
      </trkpt>
      <trkpt lat="45.6496" lon="6.85401">
        <ele>1973.9</ele>
        <time>2021-03-26T08:43:25Z</time>
      </trkpt>
      <trkpt lat="45.6496" lon="6.85402">
        <ele>1973.9</ele>
        <time>2021-03-26T08:43:26Z</time>
      </trkpt>
      <trkpt lat="45.64961" lon="6.85402">
        <ele>1974</ele>
        <time>2021-03-26T08:43:27Z</time>
      </trkpt>
      <trkpt lat="45.64961" lon="6.85402">
        <ele>1974</ele>
        <time>2021-03-26T08:43:28Z</time>
      </trkpt>
      <trkpt lat="45.64962" lon="6.85403">
        <ele>1974.1</ele>
        <time>2021-03-26T08:43:29Z</time>
      </trkpt>
      <trkpt lat="45.64962" lon="6.85403">
        <ele>1974.1</ele>
        <time>2021-03-26T08:43:30Z</time>
      </trkpt>
      <trkpt lat="45.64963" lon="6.85403">
        <ele>1974.1</ele>
        <time>2021-03-26T08:56:05Z</time>
      </trkpt>
      <trkpt lat="45.64963" lon="6.85404">
        <ele>1974.2</ele>
        <time>2021-03-26T08:56:06Z</time>
      </trkpt>
      <trkpt lat="45.64964" lon="6.85404">
        <ele>1974.2</ele>
        <time>2021-03-26T08:56:07Z</time>
      </trkpt>
      <trkpt lat="45.64964" lon="6.85405">
        <ele>1974.2</ele>
        <time>2021-03-26T08:56:08Z</time>
      </trkpt>
      <trkpt lat="45.64965" lon="6.85405">
        <ele>1974.3</ele>
        <time>2021-03-26T08:56:09Z</time>
      </trkpt>
      <trkpt lat="45.64965" lon="6.85405">
        <ele>1974.3</ele>
        <time>2021-03-26T08:56:10Z</time>
      </trkpt>
      <trkpt lat="45.64966" lon="6.85406">
        <ele>1974.3</ele>
        <time>2021-03-26T08:56:11Z</time>
      </trkpt>
      <trkpt lat="45.64966" lon="6.85406">
        <ele>1974.4</ele>
        <time>2021-03-26T08:56:12Z</time>
      </trkpt>
      <trkpt lat="45.64966" lon="6.85406">
        <ele>1974.4</ele>
        <time>2021-03-26T08:56:13Z</time>
      </trkpt>
      <trkpt lat="45.64967" lon="6.85407">
        <ele>1974.4</ele>
        <time>2021-03-26T08:56:14Z</time>
      </trkpt>
      <trkpt lat="45.64967" lon="6.85407">
        <ele>1974.5</ele>
        <time>2021-03-26T08:56:15Z</time>
      </trkpt>
      <trkpt lat="45.64968" lon="6.85408">
        <ele>1974.5</ele>
        <time>2021-03-26T08:56:24Z</time>
      </trkpt>
      <trkpt lat="45.64968" lon="6.85408">
        <ele>1974.6</ele>
        <time>2021-03-26T08:56:25Z</time>
      </trkpt>
      <trkpt lat="45.64969" lon="6.8541">
        <ele>1974.7</ele>
        <time>2021-03-26T08:56:26Z</time>
      </trkpt>
      <trkpt lat="45.6497" lon="6.85411">
        <ele>1974.8</ele>
        <time>2021-03-26T08:56:27Z</time>
      </trkpt>
      <trkpt lat="45.64972" lon="6.85413">
        <ele>1974.9</ele>
        <time>2021-03-26T08:56:28Z</time>
      </trkpt>
      <trkpt lat="45.64973" lon="6.85415">
        <ele>1975</ele>
        <time>2021-03-26T08:56:29Z</time>
      </trkpt>
      <trkpt lat="45.64974" lon="6.85416">
        <ele>1975</ele>
        <time>2021-03-26T08:56:30Z</time>
      </trkpt>
      <trkpt lat="45.64975" lon="6.8542">
        <ele>1975.2</ele>
        <time>2021-03-26T08:56:31Z</time>
      </trkpt>
      <trkpt lat="45.64976" lon="6.85421">
        <ele>1975.3</ele>
        <time>2021-03-26T08:56:32Z</time>
      </trkpt>
      <trkpt lat="45.64977" lon="6.85423">
        <ele>1975.4</ele>
        <time>2021-03-26T08:56:33Z</time>
      </trkpt>
      <trkpt lat="45.64978" lon="6.85425">
        <ele>1975.5</ele>
        <time>2021-03-26T08:56:34Z</time>
      </trkpt>
      <trkpt lat="45.6498" lon="6.85429">
        <ele>1975.7</ele>
        <time>2021-03-26T08:56:35Z</time>
      </trkpt>
      <trkpt lat="45.64981" lon="6.8543">
        <ele>1975.7</ele>
        <time>2021-03-26T08:56:36Z</time>
      </trkpt>
      <trkpt lat="45.64983" lon="6.85433">
        <ele>1975</ele>
        <time>2021-03-26T08:56:37Z</time>
      </trkpt>
      <trkpt lat="45.64983" lon="6.85435">
        <ele>1975</ele>
        <time>2021-03-26T08:56:38Z</time>
      </trkpt>
      <trkpt lat="45.64986" lon="6.85437">
        <ele>1974.4</ele>
        <time>2021-03-26T08:56:39Z</time>
      </trkpt>
      <trkpt lat="45.64987" lon="6.85438">
        <ele>1973</ele>
        <time>2021-03-26T08:56:40Z</time>
      </trkpt>
      <trkpt lat="45.6499" lon="6.85437">
        <ele>1973</ele>
        <time>2021-03-26T08:56:41Z</time>
      </trkpt>
      <trkpt lat="45.64993" lon="6.85436">
        <ele>1970</ele>
        <time>2021-03-26T08:56:42Z</time>
      </trkpt>
      <trkpt lat="45.64994" lon="6.85437">
        <ele>1970</ele>
        <time>2021-03-26T08:56:43Z</time>
      </trkpt>
      <trkpt lat="45.64997" lon="6.85439">
        <ele>1968.4</ele>
        <time>2021-03-26T08:56:44Z</time>
      </trkpt>
      <trkpt lat="45.65" lon="6.85442">
        <ele>1967.5</ele>
        <time>2021-03-26T08:56:45Z</time>
      </trkpt>
      <trkpt lat="45.65003" lon="6.85445">
        <ele>1966.5</ele>
        <time>2021-03-26T08:56:46Z</time>
      </trkpt>
      <trkpt lat="45.65005" lon="6.85448">
        <ele>1964.8</ele>
        <time>2021-03-26T08:56:47Z</time>
      </trkpt>
      <trkpt lat="45.65008" lon="6.85451">
        <ele>1964</ele>
        <time>2021-03-26T08:56:48Z</time>
      </trkpt>
      <trkpt lat="45.6501" lon="6.85454">
        <ele>1964.9</ele>
        <time>2021-03-26T08:56:49Z</time>
      </trkpt>
      <trkpt lat="45.65013" lon="6.85458">
        <ele>1964.1</ele>
        <time>2021-03-26T08:56:50Z</time>
      </trkpt>
      <trkpt lat="45.65014" lon="6.8546">
        <ele>1964.1</ele>
        <time>2021-03-26T08:56:51Z</time>
      </trkpt>
      <trkpt lat="45.65015" lon="6.85464">
        <ele>1963.5</ele>
        <time>2021-03-26T08:56:52Z</time>
      </trkpt>
      <trkpt lat="45.65016" lon="6.85465">
        <ele>1963.4</ele>
        <time>2021-03-26T08:56:53Z</time>
      </trkpt>
      <trkpt lat="45.65017" lon="6.85469">
        <ele>1962.8</ele>
        <time>2021-03-26T08:56:54Z</time>
      </trkpt>
      <trkpt lat="45.65019" lon="6.85472">
        <ele>1963.6</ele>
        <time>2021-03-26T08:56:55Z</time>
      </trkpt>
      <trkpt lat="45.65021" lon="6.85476">
        <ele>1963.1</ele>
        <time>2021-03-26T08:56:56Z</time>
      </trkpt>
      <trkpt lat="45.65021" lon="6.85476">
        <ele>1963.1</ele>
        <time>2021-03-26T08:56:57Z</time>
      </trkpt>
      <trkpt lat="45.65022" lon="6.8548">
        <ele>1963.9</ele>
        <time>2021-03-26T08:56:58Z</time>
      </trkpt>
      <trkpt lat="45.65023" lon="6.85482">
        <ele>1963.9</ele>
        <time>2021-03-26T08:56:59Z</time>
      </trkpt>
      <trkpt lat="45.65024" lon="6.85484">
        <ele>1963.2</ele>
        <time>2021-03-26T08:57:00Z</time>
      </trkpt>
      <trkpt lat="45.65024" lon="6.85485">
        <ele>1963.2</ele>
        <time>2021-03-26T08:57:01Z</time>
      </trkpt>
      <trkpt lat="45.65026" lon="6.85489">
        <ele>1962.6</ele>
        <time>2021-03-26T08:57:02Z</time>
      </trkpt>
      <trkpt lat="45.65027" lon="6.8549">
        <ele>1962.6</ele>
        <time>2021-03-26T08:57:03Z</time>
      </trkpt>
      <trkpt lat="45.65028" lon="6.85495">
        <ele>1963.5</ele>
        <time>2021-03-26T08:57:04Z</time>
      </trkpt>
      <trkpt lat="45.65029" lon="6.85496">
        <ele>1962.8</ele>
        <time>2021-03-26T08:57:05Z</time>
      </trkpt>
      <trkpt lat="45.65031" lon="6.85499">
        <ele>1962.8</ele>
        <time>2021-03-26T08:57:06Z</time>
      </trkpt>
      <trkpt lat="45.65032" lon="6.855">
        <ele>1963.9</ele>
        <time>2021-03-26T08:57:07Z</time>
      </trkpt>
      <trkpt lat="45.65034" lon="6.85504">
        <ele>1962.3</ele>
        <time>2021-03-26T08:57:08Z</time>
      </trkpt>
      <trkpt lat="45.65035" lon="6.85505">
        <ele>1961.9</ele>
        <time>2021-03-26T08:57:09Z</time>
      </trkpt>
      <trkpt lat="45.65037" lon="6.85508">
        <ele>1962.9</ele>
        <time>2021-03-26T08:57:10Z</time>
      </trkpt>
      <trkpt lat="45.6504" lon="6.8551">
        <ele>1961.6</ele>
        <time>2021-03-26T08:57:11Z</time>
      </trkpt>
      <trkpt lat="45.65043" lon="6.85513">
        <ele>1961.4</ele>
        <time>2021-03-26T08:57:12Z</time>
      </trkpt>
      <trkpt lat="45.65044" lon="6.85515">
        <ele>1960</ele>
        <time>2021-03-26T08:57:13Z</time>
      </trkpt>
      <trkpt lat="45.65047" lon="6.85518">
        <ele>1959.8</ele>
        <time>2021-03-26T08:57:14Z</time>
      </trkpt>
      <trkpt lat="45.6505" lon="6.85521">
        <ele>1959.8</ele>
        <time>2021-03-26T08:57:15Z</time>
      </trkpt>
      <trkpt lat="45.65052" lon="6.85523">
        <ele>1959.5</ele>
        <time>2021-03-26T08:57:16Z</time>
      </trkpt>
      <trkpt lat="45.65053" lon="6.85524">
        <ele>1959.4</ele>
        <time>2021-03-26T08:57:17Z</time>
      </trkpt>
      <trkpt lat="45.65053" lon="6.85525">
        <ele>1957.9</ele>
        <time>2021-03-26T08:57:18Z</time>
      </trkpt>
      <trkpt lat="45.65054" lon="6.85525">
        <ele>1957.9</ele>
        <time>2021-03-26T08:57:19Z</time>
      </trkpt>
      <trkpt lat="45.65055" lon="6.85525">
        <ele>1957.9</ele>
        <time>2021-03-26T08:57:20Z</time>
      </trkpt>
      <trkpt lat="45.65055" lon="6.85525">
        <ele>1957.8</ele>
        <time>2021-03-26T08:57:21Z</time>
      </trkpt>
      <trkpt lat="45.65057" lon="6.85518">
        <ele>1955</ele>
        <time>2021-03-26T08:57:22Z</time>
      </trkpt>
      <trkpt lat="45.65057" lon="6.85515">
        <ele>1953.9</ele>
        <time>2021-03-26T08:57:23Z</time>
      </trkpt>
      <trkpt lat="45.65056" lon="6.8551">
        <ele>1954.3</ele>
        <time>2021-03-26T08:57:24Z</time>
      </trkpt>
      <trkpt lat="45.65055" lon="6.85506">
        <ele>1953.2</ele>
        <time>2021-03-26T08:57:25Z</time>
      </trkpt>
      <trkpt lat="45.65054" lon="6.85505">
        <ele>1953.2</ele>
        <time>2021-03-26T08:57:26Z</time>
      </trkpt>
      <trkpt lat="45.65054" lon="6.85505">
        <ele>1953.1</ele>
        <time>2021-03-26T08:57:27Z</time>
      </trkpt>
      <trkpt lat="45.65054" lon="6.85504">
        <ele>1952</ele>
        <time>2021-03-26T08:57:28Z</time>
      </trkpt>
      <trkpt lat="45.65054" lon="6.85503">
        <ele>1952</ele>
        <time>2021-03-26T08:57:29Z</time>
      </trkpt>
      <trkpt lat="45.65054" lon="6.85503">
        <ele>1952</ele>
        <time>2021-03-26T08:57:30Z</time>
      </trkpt>
      <trkpt lat="45.65054" lon="6.85503">
        <ele>1952</ele>
        <time>2021-03-26T08:57:31Z</time>
      </trkpt>
      <trkpt lat="45.65054" lon="6.85503">
        <ele>1951.9</ele>
        <time>2021-03-26T08:57:32Z</time>
      </trkpt>
      <trkpt lat="45.65053" lon="6.85503">
        <ele>1951.9</ele>
        <time>2021-03-26T08:57:33Z</time>
      </trkpt>
      <trkpt lat="45.65053" lon="6.85502">
        <ele>1951.9</ele>
        <time>2021-03-26T08:57:34Z</time>
      </trkpt>
      <trkpt lat="45.65053" lon="6.85502">
        <ele>1951.9</ele>
        <time>2021-03-26T08:57:35Z</time>
      </trkpt>
      <trkpt lat="45.65053" lon="6.85502">
        <ele>1951.8</ele>
        <time>2021-03-26T08:57:36Z</time>
      </trkpt>
      <trkpt lat="45.65054" lon="6.85499">
        <ele>1950.8</ele>
        <time>2021-03-26T08:57:39Z</time>
      </trkpt>
      <trkpt lat="45.65054" lon="6.85499">
        <ele>1950.7</ele>
        <time>2021-03-26T08:57:40Z</time>
      </trkpt>
      <trkpt lat="45.65054" lon="6.85498">
        <ele>1950.7</ele>
        <time>2021-03-26T08:57:41Z</time>
      </trkpt>
      <trkpt lat="45.65055" lon="6.85498">
        <ele>1950.7</ele>
        <time>2021-03-26T08:57:42Z</time>
      </trkpt>
      <trkpt lat="45.65055" lon="6.85499">
        <ele>1950.7</ele>
        <time>2021-03-26T08:57:43Z</time>
      </trkpt>
      <trkpt lat="45.65056" lon="6.85499">
        <ele>1950.6</ele>
        <time>2021-03-26T08:57:44Z</time>
      </trkpt>
      <trkpt lat="45.65057" lon="6.85499">
        <ele>1949.1</ele>
        <time>2021-03-26T08:57:45Z</time>
      </trkpt>
      <trkpt lat="45.65058" lon="6.85498">
        <ele>1949</ele>
        <time>2021-03-26T08:57:46Z</time>
      </trkpt>
      <trkpt lat="45.6506" lon="6.85499">
        <ele>1947.5</ele>
        <time>2021-03-26T08:57:47Z</time>
      </trkpt>
      <trkpt lat="45.65062" lon="6.85501">
        <ele>1947.2</ele>
        <time>2021-03-26T08:57:48Z</time>
      </trkpt>
      <trkpt lat="45.65065" lon="6.85504">
        <ele>1946</ele>
        <time>2021-03-26T08:57:49Z</time>
      </trkpt>
      <trkpt lat="45.65069" lon="6.85508">
        <ele>1947</ele>
        <time>2021-03-26T08:57:50Z</time>
      </trkpt>
      <trkpt lat="45.65073" lon="6.85514">
        <ele>1946.9</ele>
        <time>2021-03-26T08:57:51Z</time>
      </trkpt>
      <trkpt lat="45.65077" lon="6.85519">
        <ele>1945.7</ele>
        <time>2021-03-26T08:57:52Z</time>
      </trkpt>
      <trkpt lat="45.65082" lon="6.85524">
        <ele>1945.7</ele>
        <time>2021-03-26T08:57:53Z</time>
      </trkpt>
      <trkpt lat="45.65085" lon="6.85528">
        <ele>1945.9</ele>
        <time>2021-03-26T08:57:54Z</time>
      </trkpt>
      <trkpt lat="45.65087" lon="6.85529">
        <ele>1944.7</ele>
        <time>2021-03-26T08:57:55Z</time>
      </trkpt>
      <trkpt lat="45.65088" lon="6.8553">
        <ele>1944.7</ele>
        <time>2021-03-26T08:57:56Z</time>
      </trkpt>
      <trkpt lat="45.65089" lon="6.8553">
        <ele>1944.9</ele>
        <time>2021-03-26T08:57:57Z</time>
      </trkpt>
      <trkpt lat="45.65093" lon="6.85531">
        <ele>1943.8</ele>
        <time>2021-03-26T08:57:58Z</time>
      </trkpt>
      <trkpt lat="45.65094" lon="6.85531">
        <ele>1943.7</ele>
        <time>2021-03-26T08:57:59Z</time>
      </trkpt>
      <trkpt lat="45.65097" lon="6.8553">
        <ele>1942.7</ele>
        <time>2021-03-26T08:58:00Z</time>
      </trkpt>
      <trkpt lat="45.65101" lon="6.85529">
        <ele>1940.4</ele>
        <time>2021-03-26T08:58:01Z</time>
      </trkpt>
      <trkpt lat="45.65102" lon="6.85529">
        <ele>1939.4</ele>
        <time>2021-03-26T08:58:02Z</time>
      </trkpt>
      <trkpt lat="45.651" lon="6.85526">
        <ele>1940.4</ele>
        <time>2021-03-26T08:58:03Z</time>
      </trkpt>
      <trkpt lat="45.65098" lon="6.85522">
        <ele>1939</ele>
        <time>2021-03-26T08:58:04Z</time>
      </trkpt>
      <trkpt lat="45.65098" lon="6.85522">
        <ele>1939.9</ele>
        <time>2021-03-26T08:58:05Z</time>
      </trkpt>
      <trkpt lat="45.65098" lon="6.85521">
        <ele>1939.9</ele>
        <time>2021-03-26T08:58:06Z</time>
      </trkpt>
      <trkpt lat="45.65098" lon="6.85521">
        <ele>1938.5</ele>
        <time>2021-03-26T08:58:07Z</time>
      </trkpt>
      <trkpt lat="45.65098" lon="6.8552">
        <ele>1938.5</ele>
        <time>2021-03-26T08:58:08Z</time>
      </trkpt>
      <trkpt lat="45.65098" lon="6.8552">
        <ele>1938.5</ele>
        <time>2021-03-26T08:58:09Z</time>
      </trkpt>
      <trkpt lat="45.65098" lon="6.85519">
        <ele>1937.4</ele>
        <time>2021-03-26T08:58:10Z</time>
      </trkpt>
      <trkpt lat="45.65098" lon="6.85519">
        <ele>1937.4</ele>
        <time>2021-03-26T08:58:11Z</time>
      </trkpt>
      <trkpt lat="45.65098" lon="6.85518">
        <ele>1937.4</ele>
        <time>2021-03-26T08:58:12Z</time>
      </trkpt>
      <trkpt lat="45.65098" lon="6.85517">
        <ele>1937.4</ele>
        <time>2021-03-26T08:58:13Z</time>
      </trkpt>
      <trkpt lat="45.65098" lon="6.85517">
        <ele>1936.1</ele>
        <time>2021-03-26T08:58:14Z</time>
      </trkpt>
      <trkpt lat="45.65098" lon="6.85516">
        <ele>1936</ele>
        <time>2021-03-26T08:58:15Z</time>
      </trkpt>
      <trkpt lat="45.65098" lon="6.85516">
        <ele>1936</ele>
        <time>2021-03-26T08:58:25Z</time>
      </trkpt>
      <trkpt lat="45.65098" lon="6.85515">
        <ele>1936</ele>
        <time>2021-03-26T08:58:26Z</time>
      </trkpt>
      <trkpt lat="45.65101" lon="6.85514">
        <ele>1935</ele>
        <time>2021-03-26T08:58:27Z</time>
      </trkpt>
      <trkpt lat="45.65104" lon="6.85512">
        <ele>1932.6</ele>
        <time>2021-03-26T08:58:28Z</time>
      </trkpt>
      <trkpt lat="45.65106" lon="6.85509">
        <ele>1932.6</ele>
        <time>2021-03-26T08:58:29Z</time>
      </trkpt>
      <trkpt lat="45.65105" lon="6.85504">
        <ele>1931.2</ele>
        <time>2021-03-26T08:58:30Z</time>
      </trkpt>
      <trkpt lat="45.65106" lon="6.85499">
        <ele>1928.1</ele>
        <time>2021-03-26T08:58:31Z</time>
      </trkpt>
      <trkpt lat="45.65108" lon="6.85496">
        <ele>1926.9</ele>
        <time>2021-03-26T08:58:32Z</time>
      </trkpt>
      <trkpt lat="45.65112" lon="6.85495">
        <ele>1924</ele>
        <time>2021-03-26T08:58:33Z</time>
      </trkpt>
      <trkpt lat="45.65116" lon="6.85494">
        <ele>1921.4</ele>
        <time>2021-03-26T08:58:34Z</time>
      </trkpt>
      <trkpt lat="45.65119" lon="6.85491">
        <ele>1920.2</ele>
        <time>2021-03-26T08:58:35Z</time>
      </trkpt>
      <trkpt lat="45.65119" lon="6.8549">
        <ele>1918.5</ele>
        <time>2021-03-26T08:58:36Z</time>
      </trkpt>
      <trkpt lat="45.65118" lon="6.85485">
        <ele>1918</ele>
        <time>2021-03-26T08:58:37Z</time>
      </trkpt>
      <trkpt lat="45.65118" lon="6.85483">
        <ele>1918</ele>
        <time>2021-03-26T08:58:38Z</time>
      </trkpt>
      <trkpt lat="45.6512" lon="6.8548">
        <ele>1915.2</ele>
        <time>2021-03-26T08:58:39Z</time>
      </trkpt>
      <trkpt lat="45.65123" lon="6.85479">
        <ele>1914.1</ele>
        <time>2021-03-26T08:58:40Z</time>
      </trkpt>
      <trkpt lat="45.65127" lon="6.8548">
        <ele>1913.1</ele>
        <time>2021-03-26T08:58:41Z</time>
      </trkpt>
      <trkpt lat="45.65131" lon="6.85481">
        <ele>1911</ele>
        <time>2021-03-26T08:58:42Z</time>
      </trkpt>
      <trkpt lat="45.65134" lon="6.8548">
        <ele>1909.8</ele>
        <time>2021-03-26T08:58:43Z</time>
      </trkpt>
      <trkpt lat="45.65137" lon="6.85476">
        <ele>1907</ele>
        <time>2021-03-26T08:58:44Z</time>
      </trkpt>
      <trkpt lat="45.65139" lon="6.85472">
        <ele>1905.5</ele>
        <time>2021-03-26T08:58:45Z</time>
      </trkpt>
      <trkpt lat="45.65141" lon="6.85469">
        <ele>1902.9</ele>
        <time>2021-03-26T08:58:46Z</time>
      </trkpt>
      <trkpt lat="45.65145" lon="6.85468">
        <ele>1901.8</ele>
        <time>2021-03-26T08:58:47Z</time>
      </trkpt>
      <trkpt lat="45.65146" lon="6.85469">
        <ele>1900.8</ele>
        <time>2021-03-26T08:58:48Z</time>
      </trkpt>
      <trkpt lat="45.65149" lon="6.85469">
        <ele>1899.9</ele>
        <time>2021-03-26T08:58:49Z</time>
      </trkpt>
      <trkpt lat="45.6515" lon="6.85469">
        <ele>1899.8</ele>
        <time>2021-03-26T08:58:50Z</time>
      </trkpt>
      <trkpt lat="45.65154" lon="6.85469">
        <ele>1899</ele>
        <time>2021-03-26T08:58:51Z</time>
      </trkpt>
      <trkpt lat="45.65155" lon="6.85469">
        <ele>1899</ele>
        <time>2021-03-26T08:58:52Z</time>
      </trkpt>
      <trkpt lat="45.65158" lon="6.85469">
        <ele>1897.2</ele>
        <time>2021-03-26T08:58:53Z</time>
      </trkpt>
      <trkpt lat="45.65162" lon="6.85469">
        <ele>1896.2</ele>
        <time>2021-03-26T08:58:54Z</time>
      </trkpt>
      <trkpt lat="45.65167" lon="6.85469">
        <ele>1895.3</ele>
        <time>2021-03-26T08:58:55Z</time>
      </trkpt>
      <trkpt lat="45.65171" lon="6.85468">
        <ele>1893.5</ele>
        <time>2021-03-26T08:58:56Z</time>
      </trkpt>
      <trkpt lat="45.65174" lon="6.85467">
        <ele>1892.7</ele>
        <time>2021-03-26T08:58:57Z</time>
      </trkpt>
      <trkpt lat="45.65179" lon="6.85465">
        <ele>1890.4</ele>
        <time>2021-03-26T08:58:58Z</time>
      </trkpt>
      <trkpt lat="45.65182" lon="6.85467">
        <ele>1891.1</ele>
        <time>2021-03-26T08:58:59Z</time>
      </trkpt>
      <trkpt lat="45.65183" lon="6.85468">
        <ele>1890.4</ele>
        <time>2021-03-26T08:59:00Z</time>
      </trkpt>
      <trkpt lat="45.65184" lon="6.85469">
        <ele>1890.4</ele>
        <time>2021-03-26T08:59:01Z</time>
      </trkpt>
      <trkpt lat="45.65185" lon="6.85468">
        <ele>1890.4</ele>
        <time>2021-03-26T08:59:02Z</time>
      </trkpt>
      <trkpt lat="45.65185" lon="6.85468">
        <ele>1889.7</ele>
        <time>2021-03-26T08:59:03Z</time>
      </trkpt>
      <trkpt lat="45.65185" lon="6.85468">
        <ele>1889.7</ele>
        <time>2021-03-26T08:59:04Z</time>
      </trkpt>
      <trkpt lat="45.65186" lon="6.85468">
        <ele>1889.7</ele>
        <time>2021-03-26T08:59:05Z</time>
      </trkpt>
      <trkpt lat="45.65186" lon="6.85467">
        <ele>1889.7</ele>
        <time>2021-03-26T08:59:06Z</time>
      </trkpt>
      <trkpt lat="45.65187" lon="6.85467">
        <ele>1889.7</ele>
        <time>2021-03-26T08:59:07Z</time>
      </trkpt>
      <trkpt lat="45.65187" lon="6.85467">
        <ele>1889.7</ele>
        <time>2021-03-26T08:59:08Z</time>
      </trkpt>
      <trkpt lat="45.65187" lon="6.85466">
        <ele>1889.6</ele>
        <time>2021-03-26T08:59:09Z</time>
      </trkpt>
      <trkpt lat="45.65188" lon="6.85466">
        <ele>1889.6</ele>
        <time>2021-03-26T08:59:10Z</time>
      </trkpt>
      <trkpt lat="45.65191" lon="6.85465">
        <ele>1887.4</ele>
        <time>2021-03-26T08:59:11Z</time>
      </trkpt>
      <trkpt lat="45.65193" lon="6.85465">
        <ele>1886.7</ele>
        <time>2021-03-26T08:59:12Z</time>
      </trkpt>
      <trkpt lat="45.65197" lon="6.85462">
        <ele>1885.9</ele>
        <time>2021-03-26T08:59:13Z</time>
      </trkpt>
      <trkpt lat="45.65197" lon="6.8546">
        <ele>1883.6</ele>
        <time>2021-03-26T08:59:14Z</time>
      </trkpt>
      <trkpt lat="45.65197" lon="6.85455">
        <ele>1882.8</ele>
        <time>2021-03-26T08:59:15Z</time>
      </trkpt>
      <trkpt lat="45.65194" lon="6.8545">
        <ele>1881.3</ele>
        <time>2021-03-26T08:59:16Z</time>
      </trkpt>
      <trkpt lat="45.65191" lon="6.85447">
        <ele>1880.5</ele>
        <time>2021-03-26T08:59:17Z</time>
      </trkpt>
      <trkpt lat="45.65189" lon="6.85444">
        <ele>1881.2</ele>
        <time>2021-03-26T08:59:18Z</time>
      </trkpt>
      <trkpt lat="45.65186" lon="6.85442">
        <ele>1880.4</ele>
        <time>2021-03-26T08:59:19Z</time>
      </trkpt>
      <trkpt lat="45.65184" lon="6.85442">
        <ele>1881.1</ele>
        <time>2021-03-26T08:59:20Z</time>
      </trkpt>
      <trkpt lat="45.65182" lon="6.8544">
        <ele>1881.1</ele>
        <time>2021-03-26T08:59:21Z</time>
      </trkpt>
      <trkpt lat="45.65178" lon="6.85438">
        <ele>1881.3</ele>
        <time>2021-03-26T08:59:22Z</time>
      </trkpt>
      <trkpt lat="45.65174" lon="6.85435">
        <ele>1880.8</ele>
        <time>2021-03-26T08:59:23Z</time>
      </trkpt>
      <trkpt lat="45.65172" lon="6.85432">
        <ele>1881.8</ele>
        <time>2021-03-26T08:59:24Z</time>
      </trkpt>
      <trkpt lat="45.65174" lon="6.85427">
        <ele>1879.7</ele>
        <time>2021-03-26T08:59:25Z</time>
      </trkpt>
      <trkpt lat="45.65175" lon="6.85425">
        <ele>1878.6</ele>
        <time>2021-03-26T08:59:26Z</time>
      </trkpt>
      <trkpt lat="45.6518" lon="6.85423">
        <ele>1876.8</ele>
        <time>2021-03-26T08:59:27Z</time>
      </trkpt>
      <trkpt lat="45.65185" lon="6.8542">
        <ele>1875</ele>
        <time>2021-03-26T08:59:28Z</time>
      </trkpt>
      <trkpt lat="45.65192" lon="6.85414">
        <ele>1870.8</ele>
        <time>2021-03-26T08:59:29Z</time>
      </trkpt>
      <trkpt lat="45.65195" lon="6.8541">
        <ele>1869.1</ele>
        <time>2021-03-26T08:59:30Z</time>
      </trkpt>
      <trkpt lat="45.65196" lon="6.85404">
        <ele>1868.2</ele>
        <time>2021-03-26T08:59:31Z</time>
      </trkpt>
      <trkpt lat="45.652" lon="6.85405">
        <ele>1866.8</ele>
        <time>2021-03-26T08:59:32Z</time>
      </trkpt>
      <trkpt lat="45.65204" lon="6.85404">
        <ele>1866.1</ele>
        <time>2021-03-26T08:59:33Z</time>
      </trkpt>
      <trkpt lat="45.65207" lon="6.85402">
        <ele>1865.6</ele>
        <time>2021-03-26T08:59:34Z</time>
      </trkpt>
      <trkpt lat="45.65211" lon="6.854">
        <ele>1864.4</ele>
        <time>2021-03-26T08:59:35Z</time>
      </trkpt>
      <trkpt lat="45.65214" lon="6.85396">
        <ele>1863.2</ele>
        <time>2021-03-26T08:59:36Z</time>
      </trkpt>
      <trkpt lat="45.65218" lon="6.85391">
        <ele>1862.1</ele>
        <time>2021-03-26T08:59:37Z</time>
      </trkpt>
      <trkpt lat="45.6522" lon="6.85387">
        <ele>1861.1</ele>
        <time>2021-03-26T08:59:38Z</time>
      </trkpt>
      <trkpt lat="45.65223" lon="6.85386">
        <ele>1860.7</ele>
        <time>2021-03-26T08:59:39Z</time>
      </trkpt>
      <trkpt lat="45.65227" lon="6.85384">
        <ele>1859.5</ele>
        <time>2021-03-26T08:59:40Z</time>
      </trkpt>
      <trkpt lat="45.6523" lon="6.85384">
        <ele>1859.9</ele>
        <time>2021-03-26T08:59:41Z</time>
      </trkpt>
      <trkpt lat="45.65232" lon="6.85385">
        <ele>1859.9</ele>
        <time>2021-03-26T08:59:42Z</time>
      </trkpt>
      <trkpt lat="45.65234" lon="6.85384">
        <ele>1859.7</ele>
        <time>2021-03-26T08:59:43Z</time>
      </trkpt>
      <trkpt lat="45.65234" lon="6.85378">
        <ele>1858.6</ele>
        <time>2021-03-26T08:59:44Z</time>
      </trkpt>
      <trkpt lat="45.65234" lon="6.85376">
        <ele>1858.6</ele>
        <time>2021-03-26T08:59:45Z</time>
      </trkpt>
      <trkpt lat="45.65235" lon="6.85373">
        <ele>1858</ele>
        <time>2021-03-26T08:59:46Z</time>
      </trkpt>
      <trkpt lat="45.65237" lon="6.85372">
        <ele>1857.9</ele>
        <time>2021-03-26T08:59:47Z</time>
      </trkpt>
      <trkpt lat="45.6524" lon="6.85368">
        <ele>1857.2</ele>
        <time>2021-03-26T08:59:48Z</time>
      </trkpt>
      <trkpt lat="45.65243" lon="6.85361">
        <ele>1855.9</ele>
        <time>2021-03-26T08:59:49Z</time>
      </trkpt>
      <trkpt lat="45.65245" lon="6.85354">
        <ele>1855.3</ele>
        <time>2021-03-26T08:59:50Z</time>
      </trkpt>
      <trkpt lat="45.65245" lon="6.85345">
        <ele>1853.7</ele>
        <time>2021-03-26T08:59:51Z</time>
      </trkpt>
      <trkpt lat="45.65246" lon="6.85337">
        <ele>1853.4</ele>
        <time>2021-03-26T08:59:52Z</time>
      </trkpt>
      <trkpt lat="45.65249" lon="6.85335">
        <ele>1853</ele>
        <time>2021-03-26T08:59:53Z</time>
      </trkpt>
      <trkpt lat="45.65256" lon="6.85336">
        <ele>1853</ele>
        <time>2021-03-26T08:59:54Z</time>
      </trkpt>
      <trkpt lat="45.6526" lon="6.85337">
        <ele>1853.2</ele>
        <time>2021-03-26T08:59:55Z</time>
      </trkpt>
      <trkpt lat="45.65266" lon="6.85337">
        <ele>1853.5</ele>
        <time>2021-03-26T08:59:56Z</time>
      </trkpt>
      <trkpt lat="45.65271" lon="6.85336">
        <ele>1853.8</ele>
        <time>2021-03-26T08:59:57Z</time>
      </trkpt>
      <trkpt lat="45.65275" lon="6.85337">
        <ele>1854.2</ele>
        <time>2021-03-26T08:59:58Z</time>
      </trkpt>
      <trkpt lat="45.6528" lon="6.85337">
        <ele>1854.8</ele>
        <time>2021-03-26T08:59:59Z</time>
      </trkpt>
      <trkpt lat="45.65284" lon="6.85337">
        <ele>1855.5</ele>
        <time>2021-03-26T09:00:00Z</time>
      </trkpt>
      <trkpt lat="45.65291" lon="6.85334">
        <ele>1856.1</ele>
        <time>2021-03-26T09:00:01Z</time>
      </trkpt>
      <trkpt lat="45.65295" lon="6.85331">
        <ele>1856.5</ele>
        <time>2021-03-26T09:00:02Z</time>
      </trkpt>
      <trkpt lat="45.65299" lon="6.85326">
        <ele>1856.8</ele>
        <time>2021-03-26T09:00:03Z</time>
      </trkpt>
      <trkpt lat="45.653" lon="6.85325">
        <ele>1857.3</ele>
        <time>2021-03-26T09:00:04Z</time>
      </trkpt>
      <trkpt lat="45.65301" lon="6.85327">
        <ele>1857.2</ele>
        <time>2021-03-26T09:00:05Z</time>
      </trkpt>
      <trkpt lat="45.65301" lon="6.85326">
        <ele>1857.2</ele>
        <time>2021-03-26T09:00:06Z</time>
      </trkpt>
      <trkpt lat="45.65301" lon="6.85327">
        <ele>1857.2</ele>
        <time>2021-03-26T09:00:07Z</time>
      </trkpt>
      <trkpt lat="45.65301" lon="6.85327">
        <ele>1857.2</ele>
        <time>2021-03-26T09:00:08Z</time>
      </trkpt>
      <trkpt lat="45.65302" lon="6.85328">
        <ele>1857.2</ele>
        <time>2021-03-26T09:00:09Z</time>
      </trkpt>
      <trkpt lat="45.65302" lon="6.85326">
        <ele>1857.6</ele>
        <time>2021-03-26T09:00:10Z</time>
      </trkpt>
      <trkpt lat="45.65303" lon="6.85326">
        <ele>1857.6</ele>
        <time>2021-03-26T09:00:11Z</time>
      </trkpt>
      <trkpt lat="45.65304" lon="6.85325">
        <ele>1857.6</ele>
        <time>2021-03-26T09:00:12Z</time>
      </trkpt>
      <trkpt lat="45.65303" lon="6.85325">
        <ele>1857.6</ele>
        <time>2021-03-26T09:00:13Z</time>
      </trkpt>
      <trkpt lat="45.65302" lon="6.85325">
        <ele>1857.6</ele>
        <time>2021-03-26T09:00:14Z</time>
      </trkpt>
      <trkpt lat="45.65302" lon="6.85325">
        <ele>1857.6</ele>
        <time>2021-03-26T09:00:15Z</time>
      </trkpt>
      <trkpt lat="45.65302" lon="6.85325">
        <ele>1857.6</ele>
        <time>2021-03-26T09:00:16Z</time>
      </trkpt>
      <trkpt lat="45.65302" lon="6.85325">
        <ele>1857.6</ele>
        <time>2021-03-26T09:00:17Z</time>
      </trkpt>
      <trkpt lat="45.65302" lon="6.85325">
        <ele>1857.6</ele>
        <time>2021-03-26T09:00:18Z</time>
      </trkpt>
      <trkpt lat="45.65302" lon="6.85325">
        <ele>1857.5</ele>
        <time>2021-03-26T09:00:19Z</time>
      </trkpt>
      <trkpt lat="45.65302" lon="6.85325">
        <ele>1857.5</ele>
        <time>2021-03-26T09:00:20Z</time>
      </trkpt>
      <trkpt lat="45.65302" lon="6.85325">
        <ele>1857.5</ele>
        <time>2021-03-26T09:00:21Z</time>
      </trkpt>
      <trkpt lat="45.65302" lon="6.85325">
        <ele>1857.5</ele>
        <time>2021-03-26T09:00:22Z</time>
      </trkpt>
      <trkpt lat="45.65302" lon="6.85325">
        <ele>1857.5</ele>
        <time>2021-03-26T09:00:23Z</time>
      </trkpt>
      <trkpt lat="45.65303" lon="6.85318">
        <ele>1857.6</ele>
        <time>2021-03-26T09:08:33Z</time>
      </trkpt>
      <trkpt lat="45.65304" lon="6.85317">
        <ele>1857.6</ele>
        <time>2021-03-26T09:08:34Z</time>
      </trkpt>
      <trkpt lat="45.65305" lon="6.85316">
        <ele>1857.6</ele>
        <time>2021-03-26T09:08:35Z</time>
      </trkpt>
      <trkpt lat="45.65306" lon="6.85315">
        <ele>1858.1</ele>
        <time>2021-03-26T09:08:36Z</time>
      </trkpt>
      <trkpt lat="45.65307" lon="6.85314">
        <ele>1858.1</ele>
        <time>2021-03-26T09:08:37Z</time>
      </trkpt>
      <trkpt lat="45.65307" lon="6.85313">
        <ele>1858.1</ele>
        <time>2021-03-26T09:08:38Z</time>
      </trkpt>
      <trkpt lat="45.65308" lon="6.85313">
        <ele>1858.6</ele>
        <time>2021-03-26T09:08:39Z</time>
      </trkpt>
      <trkpt lat="45.65309" lon="6.85312">
        <ele>1858.6</ele>
        <time>2021-03-26T09:08:40Z</time>
      </trkpt>
      <trkpt lat="45.65311" lon="6.85312">
        <ele>1858.6</ele>
        <time>2021-03-26T09:08:41Z</time>
      </trkpt>
      <trkpt lat="45.65312" lon="6.85312">
        <ele>1859.1</ele>
        <time>2021-03-26T09:08:42Z</time>
      </trkpt>
      <trkpt lat="45.65312" lon="6.85311">
        <ele>1859.1</ele>
        <time>2021-03-26T09:08:43Z</time>
      </trkpt>
      <trkpt lat="45.65313" lon="6.8531">
        <ele>1859.1</ele>
        <time>2021-03-26T09:08:44Z</time>
      </trkpt>
      <trkpt lat="45.65313" lon="6.8531">
        <ele>1859.1</ele>
        <time>2021-03-26T09:08:45Z</time>
      </trkpt>
      <trkpt lat="45.65314" lon="6.8531">
        <ele>1859.6</ele>
        <time>2021-03-26T09:08:46Z</time>
      </trkpt>
      <trkpt lat="45.65315" lon="6.85311">
        <ele>1859.6</ele>
        <time>2021-03-26T09:08:47Z</time>
      </trkpt>
      <trkpt lat="45.65315" lon="6.85311">
        <ele>1859.5</ele>
        <time>2021-03-26T09:08:48Z</time>
      </trkpt>
      <trkpt lat="45.65316" lon="6.85312">
        <ele>1859.5</ele>
        <time>2021-03-26T09:08:49Z</time>
      </trkpt>
      <trkpt lat="45.65316" lon="6.85312">
        <ele>1859.4</ele>
        <time>2021-03-26T09:08:50Z</time>
      </trkpt>
      <trkpt lat="45.65316" lon="6.85312">
        <ele>1859.4</ele>
        <time>2021-03-26T09:08:51Z</time>
      </trkpt>
      <trkpt lat="45.65317" lon="6.85312">
        <ele>1859.4</ele>
        <time>2021-03-26T09:08:52Z</time>
      </trkpt>
      <trkpt lat="45.65317" lon="6.85313">
        <ele>1859.9</ele>
        <time>2021-03-26T09:08:53Z</time>
      </trkpt>
      <trkpt lat="45.65317" lon="6.85313">
        <ele>1859.9</ele>
        <time>2021-03-26T09:08:54Z</time>
      </trkpt>
      <trkpt lat="45.65318" lon="6.85313">
        <ele>1859.9</ele>
        <time>2021-03-26T09:08:55Z</time>
      </trkpt>
      <trkpt lat="45.65318" lon="6.85313">
        <ele>1859.9</ele>
        <time>2021-03-26T09:08:56Z</time>
      </trkpt>
      <trkpt lat="45.65319" lon="6.85313">
        <ele>1859.8</ele>
        <time>2021-03-26T09:08:57Z</time>
      </trkpt>
      <trkpt lat="45.65319" lon="6.85312">
        <ele>1859.8</ele>
        <time>2021-03-26T09:08:58Z</time>
      </trkpt>
      <trkpt lat="45.65319" lon="6.85312">
        <ele>1859.8</ele>
        <time>2021-03-26T09:08:59Z</time>
      </trkpt>
      <trkpt lat="45.65319" lon="6.85311">
        <ele>1859.8</ele>
        <time>2021-03-26T09:09:00Z</time>
      </trkpt>
      <trkpt lat="45.65319" lon="6.85311">
        <ele>1859.8</ele>
        <time>2021-03-26T09:09:01Z</time>
      </trkpt>
      <trkpt lat="45.65319" lon="6.85311">
        <ele>1859.9</ele>
        <time>2021-03-26T09:09:02Z</time>
      </trkpt>
      <trkpt lat="45.65319" lon="6.8531">
        <ele>1859.9</ele>
        <time>2021-03-26T09:09:03Z</time>
      </trkpt>
      <trkpt lat="45.65319" lon="6.8531">
        <ele>1859.9</ele>
        <time>2021-03-26T09:09:04Z</time>
      </trkpt>
      <trkpt lat="45.6532" lon="6.85309">
        <ele>1859.9</ele>
        <time>2021-03-26T09:09:05Z</time>
      </trkpt>
      <trkpt lat="45.6532" lon="6.85309">
        <ele>1859.9</ele>
        <time>2021-03-26T09:09:06Z</time>
      </trkpt>
      <trkpt lat="45.6532" lon="6.85308">
        <ele>1859.9</ele>
        <time>2021-03-26T09:09:07Z</time>
      </trkpt>
      <trkpt lat="45.6532" lon="6.85307">
        <ele>1859.9</ele>
        <time>2021-03-26T09:09:08Z</time>
      </trkpt>
      <trkpt lat="45.6532" lon="6.85306">
        <ele>1860.5</ele>
        <time>2021-03-26T09:09:09Z</time>
      </trkpt>
      <trkpt lat="45.6532" lon="6.85305">
        <ele>1860.5</ele>
        <time>2021-03-26T09:09:10Z</time>
      </trkpt>
      <trkpt lat="45.6532" lon="6.85305">
        <ele>1860.5</ele>
        <time>2021-03-26T09:09:11Z</time>
      </trkpt>
      <trkpt lat="45.6532" lon="6.85304">
        <ele>1860.5</ele>
        <time>2021-03-26T09:09:12Z</time>
      </trkpt>
      <trkpt lat="45.6532" lon="6.85303">
        <ele>1860.5</ele>
        <time>2021-03-26T09:09:13Z</time>
      </trkpt>
      <trkpt lat="45.6532" lon="6.85302">
        <ele>1860</ele>
        <time>2021-03-26T09:09:14Z</time>
      </trkpt>
      <trkpt lat="45.6532" lon="6.85301">
        <ele>1860</ele>
        <time>2021-03-26T09:09:15Z</time>
      </trkpt>
      <trkpt lat="45.6532" lon="6.853">
        <ele>1860</ele>
        <time>2021-03-26T09:09:16Z</time>
      </trkpt>
      <trkpt lat="45.6532" lon="6.853">
        <ele>1860</ele>
        <time>2021-03-26T09:09:17Z</time>
      </trkpt>
      <trkpt lat="45.65319" lon="6.85299">
        <ele>1860</ele>
        <time>2021-03-26T09:09:18Z</time>
      </trkpt>
      <trkpt lat="45.65319" lon="6.85298">
        <ele>1860.1</ele>
        <time>2021-03-26T09:09:19Z</time>
      </trkpt>
      <trkpt lat="45.65319" lon="6.85297">
        <ele>1860.1</ele>
        <time>2021-03-26T09:09:20Z</time>
      </trkpt>
      <trkpt lat="45.65319" lon="6.85296">
        <ele>1860.1</ele>
        <time>2021-03-26T09:09:21Z</time>
      </trkpt>
      <trkpt lat="45.65319" lon="6.85295">
        <ele>1860.1</ele>
        <time>2021-03-26T09:09:22Z</time>
      </trkpt>
      <trkpt lat="45.65319" lon="6.85295">
        <ele>1860.1</ele>
        <time>2021-03-26T09:09:23Z</time>
      </trkpt>
      <trkpt lat="45.65319" lon="6.85294">
        <ele>1860</ele>
        <time>2021-03-26T09:09:24Z</time>
      </trkpt>
      <trkpt lat="45.65319" lon="6.85294">
        <ele>1860</ele>
        <time>2021-03-26T09:09:25Z</time>
      </trkpt>
      <trkpt lat="45.6532" lon="6.85294">
        <ele>1860</ele>
        <time>2021-03-26T09:09:26Z</time>
      </trkpt>
      <trkpt lat="45.6532" lon="6.85294">
        <ele>1860.6</ele>
        <time>2021-03-26T09:09:27Z</time>
      </trkpt>
      <trkpt lat="45.65321" lon="6.85294">
        <ele>1860.6</ele>
        <time>2021-03-26T09:09:28Z</time>
      </trkpt>
      <trkpt lat="45.65322" lon="6.85294">
        <ele>1860.6</ele>
        <time>2021-03-26T09:09:29Z</time>
      </trkpt>
      <trkpt lat="45.65322" lon="6.85294">
        <ele>1860.6</ele>
        <time>2021-03-26T09:09:30Z</time>
      </trkpt>
      <trkpt lat="45.65323" lon="6.85295">
        <ele>1861.3</ele>
        <time>2021-03-26T09:09:31Z</time>
      </trkpt>
      <trkpt lat="45.65324" lon="6.85295">
        <ele>1861.3</ele>
        <time>2021-03-26T09:09:32Z</time>
      </trkpt>
      <trkpt lat="45.65324" lon="6.85296">
        <ele>1861.3</ele>
        <time>2021-03-26T09:09:33Z</time>
      </trkpt>
      <trkpt lat="45.65325" lon="6.85297">
        <ele>1861.3</ele>
        <time>2021-03-26T09:09:34Z</time>
      </trkpt>
      <trkpt lat="45.65326" lon="6.85297">
        <ele>1861.3</ele>
        <time>2021-03-26T09:09:35Z</time>
      </trkpt>
      <trkpt lat="45.65326" lon="6.85297">
        <ele>1862</ele>
        <time>2021-03-26T09:09:36Z</time>
      </trkpt>
      <trkpt lat="45.65327" lon="6.85298">
        <ele>1862</ele>
        <time>2021-03-26T09:09:37Z</time>
      </trkpt>
      <trkpt lat="45.65327" lon="6.85298">
        <ele>1861.8</ele>
        <time>2021-03-26T09:09:38Z</time>
      </trkpt>
      <trkpt lat="45.65328" lon="6.85298">
        <ele>1861.8</ele>
        <time>2021-03-26T09:09:39Z</time>
      </trkpt>
      <trkpt lat="45.65329" lon="6.85299">
        <ele>1861.7</ele>
        <time>2021-03-26T09:09:40Z</time>
      </trkpt>
      <trkpt lat="45.65329" lon="6.85299">
        <ele>1862.5</ele>
        <time>2021-03-26T09:09:41Z</time>
      </trkpt>
      <trkpt lat="45.6533" lon="6.853">
        <ele>1862.5</ele>
        <time>2021-03-26T09:09:42Z</time>
      </trkpt>
      <trkpt lat="45.65331" lon="6.853">
        <ele>1862.5</ele>
        <time>2021-03-26T09:09:43Z</time>
      </trkpt>
      <trkpt lat="45.65332" lon="6.853">
        <ele>1862.5</ele>
        <time>2021-03-26T09:09:44Z</time>
      </trkpt>
      <trkpt lat="45.65332" lon="6.85301">
        <ele>1863.3</ele>
        <time>2021-03-26T09:09:45Z</time>
      </trkpt>
      <trkpt lat="45.65333" lon="6.85301">
        <ele>1863.3</ele>
        <time>2021-03-26T09:09:46Z</time>
      </trkpt>
      <trkpt lat="45.65334" lon="6.85302">
        <ele>1863.3</ele>
        <time>2021-03-26T09:09:47Z</time>
      </trkpt>
      <trkpt lat="45.65334" lon="6.85302">
        <ele>1863.2</ele>
        <time>2021-03-26T09:09:48Z</time>
      </trkpt>
      <trkpt lat="45.65335" lon="6.85303">
        <ele>1863.7</ele>
        <time>2021-03-26T09:09:49Z</time>
      </trkpt>
      <trkpt lat="45.65336" lon="6.85303">
        <ele>1863.7</ele>
        <time>2021-03-26T09:09:50Z</time>
      </trkpt>
      <trkpt lat="45.65336" lon="6.85303">
        <ele>1863.7</ele>
        <time>2021-03-26T09:09:51Z</time>
      </trkpt>
      <trkpt lat="45.65337" lon="6.85303">
        <ele>1863.6</ele>
        <time>2021-03-26T09:09:52Z</time>
      </trkpt>
      <trkpt lat="45.65337" lon="6.85304">
        <ele>1863.6</ele>
        <time>2021-03-26T09:09:53Z</time>
      </trkpt>
      <trkpt lat="45.65338" lon="6.85304">
        <ele>1863.6</ele>
        <time>2021-03-26T09:09:54Z</time>
      </trkpt>
      <trkpt lat="45.65339" lon="6.85304">
        <ele>1864.4</ele>
        <time>2021-03-26T09:09:55Z</time>
      </trkpt>
      <trkpt lat="45.65339" lon="6.85304">
        <ele>1864.4</ele>
        <time>2021-03-26T09:09:56Z</time>
      </trkpt>
      <trkpt lat="45.6534" lon="6.85304">
        <ele>1864.4</ele>
        <time>2021-03-26T09:09:57Z</time>
      </trkpt>
      <trkpt lat="45.6534" lon="6.85305">
        <ele>1864.3</ele>
        <time>2021-03-26T09:09:58Z</time>
      </trkpt>
      <trkpt lat="45.65341" lon="6.85305">
        <ele>1865.1</ele>
        <time>2021-03-26T09:09:59Z</time>
      </trkpt>
      <trkpt lat="45.65342" lon="6.85305">
        <ele>1865.1</ele>
        <time>2021-03-26T09:10:00Z</time>
      </trkpt>
      <trkpt lat="45.65343" lon="6.85306">
        <ele>1865.1</ele>
        <time>2021-03-26T09:10:01Z</time>
      </trkpt>
      <trkpt lat="45.65344" lon="6.85306">
        <ele>1865.1</ele>
        <time>2021-03-26T09:10:02Z</time>
      </trkpt>
      <trkpt lat="45.65344" lon="6.85306">
        <ele>1865.8</ele>
        <time>2021-03-26T09:10:03Z</time>
      </trkpt>
      <trkpt lat="45.65345" lon="6.85307">
        <ele>1865.3</ele>
        <time>2021-03-26T09:10:04Z</time>
      </trkpt>
      <trkpt lat="45.65346" lon="6.85307">
        <ele>1865.3</ele>
        <time>2021-03-26T09:10:05Z</time>
      </trkpt>
      <trkpt lat="45.65347" lon="6.85307">
        <ele>1865.3</ele>
        <time>2021-03-26T09:10:06Z</time>
      </trkpt>
      <trkpt lat="45.65347" lon="6.85307">
        <ele>1866</ele>
        <time>2021-03-26T09:10:07Z</time>
      </trkpt>
      <trkpt lat="45.65348" lon="6.85308">
        <ele>1866</ele>
        <time>2021-03-26T09:10:08Z</time>
      </trkpt>
      <trkpt lat="45.65349" lon="6.85308">
        <ele>1866</ele>
        <time>2021-03-26T09:10:09Z</time>
      </trkpt>
      <trkpt lat="45.6535" lon="6.85309">
        <ele>1866.7</ele>
        <time>2021-03-26T09:10:10Z</time>
      </trkpt>
      <trkpt lat="45.65351" lon="6.85309">
        <ele>1866.7</ele>
        <time>2021-03-26T09:10:11Z</time>
      </trkpt>
      <trkpt lat="45.65352" lon="6.85309">
        <ele>1866.7</ele>
        <time>2021-03-26T09:10:12Z</time>
      </trkpt>
      <trkpt lat="45.65353" lon="6.8531">
        <ele>1866.7</ele>
        <time>2021-03-26T09:10:13Z</time>
      </trkpt>
      <trkpt lat="45.65353" lon="6.8531">
        <ele>1867.4</ele>
        <time>2021-03-26T09:10:14Z</time>
      </trkpt>
      <trkpt lat="45.65354" lon="6.85311">
        <ele>1867.4</ele>
        <time>2021-03-26T09:10:15Z</time>
      </trkpt>
      <trkpt lat="45.65355" lon="6.85311">
        <ele>1866.9</ele>
        <time>2021-03-26T09:10:16Z</time>
      </trkpt>
      <trkpt lat="45.65355" lon="6.85311">
        <ele>1866.9</ele>
        <time>2021-03-26T09:10:17Z</time>
      </trkpt>
      <trkpt lat="45.65356" lon="6.85312">
        <ele>1867.7</ele>
        <time>2021-03-26T09:10:18Z</time>
      </trkpt>
      <trkpt lat="45.65356" lon="6.85312">
        <ele>1867.6</ele>
        <time>2021-03-26T09:10:19Z</time>
      </trkpt>
      <trkpt lat="45.65357" lon="6.85312">
        <ele>1867.6</ele>
        <time>2021-03-26T09:10:20Z</time>
      </trkpt>
      <trkpt lat="45.65358" lon="6.85313">
        <ele>1867.6</ele>
        <time>2021-03-26T09:10:21Z</time>
      </trkpt>
      <trkpt lat="45.65358" lon="6.85313">
        <ele>1867.6</ele>
        <time>2021-03-26T09:10:22Z</time>
      </trkpt>
      <trkpt lat="45.65359" lon="6.85313">
        <ele>1867.6</ele>
        <time>2021-03-26T09:10:23Z</time>
      </trkpt>
      <trkpt lat="45.65359" lon="6.85313">
        <ele>1868.4</ele>
        <time>2021-03-26T09:10:24Z</time>
      </trkpt>
      <trkpt lat="45.6536" lon="6.85314">
        <ele>1868.4</ele>
        <time>2021-03-26T09:10:25Z</time>
      </trkpt>
      <trkpt lat="45.65361" lon="6.85314">
        <ele>1868.4</ele>
        <time>2021-03-26T09:10:26Z</time>
      </trkpt>
      <trkpt lat="45.65362" lon="6.85314">
        <ele>1868.4</ele>
        <time>2021-03-26T09:10:27Z</time>
      </trkpt>
      <trkpt lat="45.65362" lon="6.85314">
        <ele>1869.3</ele>
        <time>2021-03-26T09:10:28Z</time>
      </trkpt>
      <trkpt lat="45.65363" lon="6.85314">
        <ele>1869.3</ele>
        <time>2021-03-26T09:10:29Z</time>
      </trkpt>
      <trkpt lat="45.65364" lon="6.85314">
        <ele>1869.2</ele>
        <time>2021-03-26T09:10:30Z</time>
      </trkpt>
      <trkpt lat="45.65365" lon="6.85314">
        <ele>1869.2</ele>
        <time>2021-03-26T09:10:31Z</time>
      </trkpt>
      <trkpt lat="45.65365" lon="6.85314">
        <ele>1870.1</ele>
        <time>2021-03-26T09:10:32Z</time>
      </trkpt>
      <trkpt lat="45.65366" lon="6.85314">
        <ele>1870.1</ele>
        <time>2021-03-26T09:10:33Z</time>
      </trkpt>
      <trkpt lat="45.65367" lon="6.85315">
        <ele>1870.1</ele>
        <time>2021-03-26T09:10:34Z</time>
      </trkpt>
      <trkpt lat="45.65367" lon="6.85315">
        <ele>1870.1</ele>
        <time>2021-03-26T09:10:35Z</time>
      </trkpt>
      <trkpt lat="45.65368" lon="6.85315">
        <ele>1869.5</ele>
        <time>2021-03-26T09:10:36Z</time>
      </trkpt>
      <trkpt lat="45.65368" lon="6.85316">
        <ele>1870.4</ele>
        <time>2021-03-26T09:10:37Z</time>
      </trkpt>
      <trkpt lat="45.65368" lon="6.85316">
        <ele>1870.4</ele>
        <time>2021-03-26T09:10:38Z</time>
      </trkpt>
      <trkpt lat="45.65369" lon="6.85316">
        <ele>1870.4</ele>
        <time>2021-03-26T09:10:39Z</time>
      </trkpt>
      <trkpt lat="45.6537" lon="6.85317">
        <ele>1870.4</ele>
        <time>2021-03-26T09:10:40Z</time>
      </trkpt>
      <trkpt lat="45.6537" lon="6.85317">
        <ele>1870.4</ele>
        <time>2021-03-26T09:10:41Z</time>
      </trkpt>
      <trkpt lat="45.65371" lon="6.85318">
        <ele>1870.3</ele>
        <time>2021-03-26T09:10:42Z</time>
      </trkpt>
      <trkpt lat="45.65372" lon="6.85318">
        <ele>1871.1</ele>
        <time>2021-03-26T09:10:43Z</time>
      </trkpt>
      <trkpt lat="45.65372" lon="6.85318">
        <ele>1871.1</ele>
        <time>2021-03-26T09:10:44Z</time>
      </trkpt>
      <trkpt lat="45.65373" lon="6.85319">
        <ele>1871.1</ele>
        <time>2021-03-26T09:10:45Z</time>
      </trkpt>
      <trkpt lat="45.65374" lon="6.85319">
        <ele>1871.1</ele>
        <time>2021-03-26T09:10:46Z</time>
      </trkpt>
      <trkpt lat="45.65374" lon="6.85319">
        <ele>1871.9</ele>
        <time>2021-03-26T09:10:47Z</time>
      </trkpt>
      <trkpt lat="45.65375" lon="6.85319">
        <ele>1871.9</ele>
        <time>2021-03-26T09:10:48Z</time>
      </trkpt>
      <trkpt lat="45.65376" lon="6.85319">
        <ele>1871.9</ele>
        <time>2021-03-26T09:10:49Z</time>
      </trkpt>
      <trkpt lat="45.65376" lon="6.85319">
        <ele>1871.9</ele>
        <time>2021-03-26T09:10:50Z</time>
      </trkpt>
      <trkpt lat="45.65377" lon="6.85319">
        <ele>1872.7</ele>
        <time>2021-03-26T09:10:51Z</time>
      </trkpt>
      <trkpt lat="45.65378" lon="6.85319">
        <ele>1872.6</ele>
        <time>2021-03-26T09:10:52Z</time>
      </trkpt>
      <trkpt lat="45.65378" lon="6.85319">
        <ele>1872.6</ele>
        <time>2021-03-26T09:10:53Z</time>
      </trkpt>
      <trkpt lat="45.65379" lon="6.85319">
        <ele>1872.6</ele>
        <time>2021-03-26T09:10:54Z</time>
      </trkpt>
      <trkpt lat="45.65379" lon="6.85318">
        <ele>1872.6</ele>
        <time>2021-03-26T09:10:55Z</time>
      </trkpt>
      <trkpt lat="45.6538" lon="6.85318">
        <ele>1873.4</ele>
        <time>2021-03-26T09:10:56Z</time>
      </trkpt>
      <trkpt lat="45.6538" lon="6.85318">
        <ele>1873.4</ele>
        <time>2021-03-26T09:10:57Z</time>
      </trkpt>
      <trkpt lat="45.65381" lon="6.85318">
        <ele>1873.4</ele>
        <time>2021-03-26T09:10:58Z</time>
      </trkpt>
      <trkpt lat="45.65382" lon="6.85318">
        <ele>1873.4</ele>
        <time>2021-03-26T09:10:59Z</time>
      </trkpt>
      <trkpt lat="45.65382" lon="6.85318">
        <ele>1873.4</ele>
        <time>2021-03-26T09:11:00Z</time>
      </trkpt>
      <trkpt lat="45.65383" lon="6.85318">
        <ele>1873.4</ele>
        <time>2021-03-26T09:11:01Z</time>
      </trkpt>
      <trkpt lat="45.65383" lon="6.85318">
        <ele>1874.3</ele>
        <time>2021-03-26T09:11:02Z</time>
      </trkpt>
      <trkpt lat="45.65384" lon="6.85319">
        <ele>1874.3</ele>
        <time>2021-03-26T09:11:03Z</time>
      </trkpt>
      <trkpt lat="45.65384" lon="6.85319">
        <ele>1874.3</ele>
        <time>2021-03-26T09:11:04Z</time>
      </trkpt>
      <trkpt lat="45.65385" lon="6.8532">
        <ele>1873.6</ele>
        <time>2021-03-26T09:11:05Z</time>
      </trkpt>
      <trkpt lat="45.65385" lon="6.8532">
        <ele>1873.6</ele>
        <time>2021-03-26T09:11:06Z</time>
      </trkpt>
      <trkpt lat="45.65386" lon="6.8532">
        <ele>1873.6</ele>
        <time>2021-03-26T09:11:07Z</time>
      </trkpt>
      <trkpt lat="45.65386" lon="6.8532">
        <ele>1874.5</ele>
        <time>2021-03-26T09:11:08Z</time>
      </trkpt>
      <trkpt lat="45.65387" lon="6.8532">
        <ele>1874.5</ele>
        <time>2021-03-26T09:11:09Z</time>
      </trkpt>
      <trkpt lat="45.65387" lon="6.8532">
        <ele>1874.5</ele>
        <time>2021-03-26T09:11:10Z</time>
      </trkpt>
      <trkpt lat="45.65388" lon="6.8532">
        <ele>1874.5</ele>
        <time>2021-03-26T09:11:11Z</time>
      </trkpt>
      <trkpt lat="45.65388" lon="6.85321">
        <ele>1874.5</ele>
        <time>2021-03-26T09:11:12Z</time>
      </trkpt>
      <trkpt lat="45.65389" lon="6.85321">
        <ele>1875.4</ele>
        <time>2021-03-26T09:11:13Z</time>
      </trkpt>
      <trkpt lat="45.6539" lon="6.85321">
        <ele>1875.4</ele>
        <time>2021-03-26T09:11:14Z</time>
      </trkpt>
      <trkpt lat="45.6539" lon="6.85321">
        <ele>1875.4</ele>
        <time>2021-03-26T09:11:15Z</time>
      </trkpt>
      <trkpt lat="45.65391" lon="6.85322">
        <ele>1875.4</ele>
        <time>2021-03-26T09:11:16Z</time>
      </trkpt>
      <trkpt lat="45.65392" lon="6.85322">
        <ele>1876.3</ele>
        <time>2021-03-26T09:11:17Z</time>
      </trkpt>
      <trkpt lat="45.65393" lon="6.85323">
        <ele>1876.3</ele>
        <time>2021-03-26T09:11:18Z</time>
      </trkpt>
      <trkpt lat="45.65393" lon="6.85323">
        <ele>1876.3</ele>
        <time>2021-03-26T09:11:19Z</time>
      </trkpt>
      <trkpt lat="45.65394" lon="6.85323">
        <ele>1876.3</ele>
        <time>2021-03-26T09:11:20Z</time>
      </trkpt>
      <trkpt lat="45.65395" lon="6.85324">
        <ele>1876.3</ele>
        <time>2021-03-26T09:11:21Z</time>
      </trkpt>
      <trkpt lat="45.65395" lon="6.85324">
        <ele>1876.5</ele>
        <time>2021-03-26T09:11:22Z</time>
      </trkpt>
      <trkpt lat="45.65396" lon="6.85324">
        <ele>1876.5</ele>
        <time>2021-03-26T09:11:23Z</time>
      </trkpt>
      <trkpt lat="45.65397" lon="6.85325">
        <ele>1876.5</ele>
        <time>2021-03-26T09:11:24Z</time>
      </trkpt>
      <trkpt lat="45.65397" lon="6.85325">
        <ele>1876.5</ele>
        <time>2021-03-26T09:11:25Z</time>
      </trkpt>
      <trkpt lat="45.65398" lon="6.85326">
        <ele>1876.4</ele>
        <time>2021-03-26T09:11:26Z</time>
      </trkpt>
      <trkpt lat="45.65398" lon="6.85326">
        <ele>1877.2</ele>
        <time>2021-03-26T09:11:27Z</time>
      </trkpt>
      <trkpt lat="45.65399" lon="6.85326">
        <ele>1877.2</ele>
        <time>2021-03-26T09:11:28Z</time>
      </trkpt>
      <trkpt lat="45.654" lon="6.85326">
        <ele>1877.2</ele>
        <time>2021-03-26T09:11:29Z</time>
      </trkpt>
      <trkpt lat="45.654" lon="6.85327">
        <ele>1877.2</ele>
        <time>2021-03-26T09:11:30Z</time>
      </trkpt>
      <trkpt lat="45.65401" lon="6.85327">
        <ele>1877.9</ele>
        <time>2021-03-26T09:11:31Z</time>
      </trkpt>
      <trkpt lat="45.65402" lon="6.85327">
        <ele>1877.9</ele>
        <time>2021-03-26T09:11:32Z</time>
      </trkpt>
      <trkpt lat="45.65402" lon="6.85327">
        <ele>1877.9</ele>
        <time>2021-03-26T09:11:33Z</time>
      </trkpt>
      <trkpt lat="45.65403" lon="6.85327">
        <ele>1877.9</ele>
        <time>2021-03-26T09:11:34Z</time>
      </trkpt>
      <trkpt lat="45.65404" lon="6.85327">
        <ele>1877.9</ele>
        <time>2021-03-26T09:11:35Z</time>
      </trkpt>
      <trkpt lat="45.65404" lon="6.85328">
        <ele>1878.7</ele>
        <time>2021-03-26T09:11:36Z</time>
      </trkpt>
      <trkpt lat="45.65405" lon="6.85328">
        <ele>1878.6</ele>
        <time>2021-03-26T09:11:37Z</time>
      </trkpt>
      <trkpt lat="45.65406" lon="6.85328">
        <ele>1878.6</ele>
        <time>2021-03-26T09:11:38Z</time>
      </trkpt>
      <trkpt lat="45.65406" lon="6.85328">
        <ele>1878.6</ele>
        <time>2021-03-26T09:11:39Z</time>
      </trkpt>
      <trkpt lat="45.65407" lon="6.85327">
        <ele>1879.4</ele>
        <time>2021-03-26T09:11:40Z</time>
      </trkpt>
      <trkpt lat="45.65408" lon="6.85327">
        <ele>1879.4</ele>
        <time>2021-03-26T09:11:41Z</time>
      </trkpt>
      <trkpt lat="45.65408" lon="6.85327">
        <ele>1879.4</ele>
        <time>2021-03-26T09:11:42Z</time>
      </trkpt>
      <trkpt lat="45.65409" lon="6.85327">
        <ele>1879.4</ele>
        <time>2021-03-26T09:11:43Z</time>
      </trkpt>
      <trkpt lat="45.6541" lon="6.85327">
        <ele>1879.4</ele>
        <time>2021-03-26T09:11:44Z</time>
      </trkpt>
      <trkpt lat="45.6541" lon="6.85327">
        <ele>1880.2</ele>
        <time>2021-03-26T09:11:45Z</time>
      </trkpt>
      <trkpt lat="45.65411" lon="6.85328">
        <ele>1880.2</ele>
        <time>2021-03-26T09:11:46Z</time>
      </trkpt>
      <trkpt lat="45.65411" lon="6.85328">
        <ele>1880.2</ele>
        <time>2021-03-26T09:11:47Z</time>
      </trkpt>
      <trkpt lat="45.65412" lon="6.85328">
        <ele>1880.2</ele>
        <time>2021-03-26T09:11:48Z</time>
      </trkpt>
      <trkpt lat="45.65413" lon="6.85328">
        <ele>1879.6</ele>
        <time>2021-03-26T09:11:49Z</time>
      </trkpt>
      <trkpt lat="45.65413" lon="6.85328">
        <ele>1880.4</ele>
        <time>2021-03-26T09:11:50Z</time>
      </trkpt>
      <trkpt lat="45.65414" lon="6.85329">
        <ele>1880.4</ele>
        <time>2021-03-26T09:11:51Z</time>
      </trkpt>
      <trkpt lat="45.65415" lon="6.85329">
        <ele>1880.4</ele>
        <time>2021-03-26T09:11:52Z</time>
      </trkpt>
      <trkpt lat="45.65415" lon="6.85329">
        <ele>1880.4</ele>
        <time>2021-03-26T09:11:53Z</time>
      </trkpt>
      <trkpt lat="45.65416" lon="6.85329">
        <ele>1881.3</ele>
        <time>2021-03-26T09:11:54Z</time>
      </trkpt>
      <trkpt lat="45.65417" lon="6.85329">
        <ele>1881.2</ele>
        <time>2021-03-26T09:11:55Z</time>
      </trkpt>
      <trkpt lat="45.65418" lon="6.85329">
        <ele>1881.2</ele>
        <time>2021-03-26T09:11:56Z</time>
      </trkpt>
      <trkpt lat="45.65418" lon="6.85329">
        <ele>1881.2</ele>
        <time>2021-03-26T09:11:57Z</time>
      </trkpt>
      <trkpt lat="45.65419" lon="6.85329">
        <ele>1882</ele>
        <time>2021-03-26T09:11:58Z</time>
      </trkpt>
      <trkpt lat="45.6542" lon="6.85328">
        <ele>1882</ele>
        <time>2021-03-26T09:11:59Z</time>
      </trkpt>
      <trkpt lat="45.65421" lon="6.85328">
        <ele>1882.6</ele>
        <time>2021-03-26T09:12:00Z</time>
      </trkpt>
      <trkpt lat="45.65422" lon="6.85328">
        <ele>1882.6</ele>
        <time>2021-03-26T09:12:01Z</time>
      </trkpt>
      <trkpt lat="45.65422" lon="6.85328">
        <ele>1883.3</ele>
        <time>2021-03-26T09:12:02Z</time>
      </trkpt>
      <trkpt lat="45.65423" lon="6.85329">
        <ele>1882.8</ele>
        <time>2021-03-26T09:12:03Z</time>
      </trkpt>
      <trkpt lat="45.65424" lon="6.85329">
        <ele>1882.8</ele>
        <time>2021-03-26T09:12:04Z</time>
      </trkpt>
      <trkpt lat="45.65424" lon="6.85329">
        <ele>1882.7</ele>
        <time>2021-03-26T09:12:05Z</time>
      </trkpt>
      <trkpt lat="45.65425" lon="6.85328">
        <ele>1883.5</ele>
        <time>2021-03-26T09:12:06Z</time>
      </trkpt>
      <trkpt lat="45.65426" lon="6.85328">
        <ele>1884</ele>
        <time>2021-03-26T09:12:07Z</time>
      </trkpt>
      <trkpt lat="45.65427" lon="6.85327">
        <ele>1884</ele>
        <time>2021-03-26T09:12:08Z</time>
      </trkpt>
      <trkpt lat="45.65427" lon="6.85326">
        <ele>1884</ele>
        <time>2021-03-26T09:12:09Z</time>
      </trkpt>
      <trkpt lat="45.65428" lon="6.85325">
        <ele>1884.7</ele>
        <time>2021-03-26T09:12:10Z</time>
      </trkpt>
      <trkpt lat="45.65429" lon="6.85325">
        <ele>1884.7</ele>
        <time>2021-03-26T09:12:11Z</time>
      </trkpt>
      <trkpt lat="45.6543" lon="6.85324">
        <ele>1884.7</ele>
        <time>2021-03-26T09:12:12Z</time>
      </trkpt>
      <trkpt lat="45.6543" lon="6.85323">
        <ele>1885.2</ele>
        <time>2021-03-26T09:12:13Z</time>
      </trkpt>
      <trkpt lat="45.65431" lon="6.85323">
        <ele>1886</ele>
        <time>2021-03-26T09:12:14Z</time>
      </trkpt>
      <trkpt lat="45.65432" lon="6.85322">
        <ele>1885.9</ele>
        <time>2021-03-26T09:12:15Z</time>
      </trkpt>
      <trkpt lat="45.65432" lon="6.85322">
        <ele>1885.9</ele>
        <time>2021-03-26T09:12:16Z</time>
      </trkpt>
      <trkpt lat="45.65433" lon="6.85321">
        <ele>1885.9</ele>
        <time>2021-03-26T09:12:17Z</time>
      </trkpt>
      <trkpt lat="45.65433" lon="6.8532">
        <ele>1885.9</ele>
        <time>2021-03-26T09:12:18Z</time>
      </trkpt>
      <trkpt lat="45.65434" lon="6.85319">
        <ele>1886.4</ele>
        <time>2021-03-26T09:12:19Z</time>
      </trkpt>
      <trkpt lat="45.65434" lon="6.85318">
        <ele>1886.4</ele>
        <time>2021-03-26T09:12:20Z</time>
      </trkpt>
      <trkpt lat="45.65434" lon="6.85317">
        <ele>1887.2</ele>
        <time>2021-03-26T09:12:21Z</time>
      </trkpt>
      <trkpt lat="45.65434" lon="6.85316">
        <ele>1887.1</ele>
        <time>2021-03-26T09:12:22Z</time>
      </trkpt>
      <trkpt lat="45.65435" lon="6.85315">
        <ele>1887.7</ele>
        <time>2021-03-26T09:12:23Z</time>
      </trkpt>
      <trkpt lat="45.65435" lon="6.85314">
        <ele>1887.7</ele>
        <time>2021-03-26T09:12:24Z</time>
      </trkpt>
      <trkpt lat="45.65435" lon="6.85313">
        <ele>1887.7</ele>
        <time>2021-03-26T09:12:25Z</time>
      </trkpt>
      <trkpt lat="45.65436" lon="6.85312">
        <ele>1887.7</ele>
        <time>2021-03-26T09:12:26Z</time>
      </trkpt>
      <trkpt lat="45.65436" lon="6.85312">
        <ele>1887.7</ele>
        <time>2021-03-26T09:12:27Z</time>
      </trkpt>
      <trkpt lat="45.65437" lon="6.85311">
        <ele>1887.6</ele>
        <time>2021-03-26T09:12:28Z</time>
      </trkpt>
      <trkpt lat="45.65437" lon="6.85311">
        <ele>1889</ele>
        <time>2021-03-26T09:12:29Z</time>
      </trkpt>
      <trkpt lat="45.65438" lon="6.8531">
        <ele>1889</ele>
        <time>2021-03-26T09:12:30Z</time>
      </trkpt>
      <trkpt lat="45.65439" lon="6.8531">
        <ele>1888.9</ele>
        <time>2021-03-26T09:12:31Z</time>
      </trkpt>
      <trkpt lat="45.6544" lon="6.8531">
        <ele>1888.9</ele>
        <time>2021-03-26T09:12:32Z</time>
      </trkpt>
      <trkpt lat="45.65441" lon="6.85309">
        <ele>1889.7</ele>
        <time>2021-03-26T09:12:33Z</time>
      </trkpt>
      <trkpt lat="45.65441" lon="6.85309">
        <ele>1889.6</ele>
        <time>2021-03-26T09:12:34Z</time>
      </trkpt>
      <trkpt lat="45.65442" lon="6.85308">
        <ele>1889.6</ele>
        <time>2021-03-26T09:12:35Z</time>
      </trkpt>
      <trkpt lat="45.65443" lon="6.85307">
        <ele>1890.4</ele>
        <time>2021-03-26T09:12:36Z</time>
      </trkpt>
      <trkpt lat="45.65444" lon="6.85306">
        <ele>1890.9</ele>
        <time>2021-03-26T09:12:37Z</time>
      </trkpt>
      <trkpt lat="45.65444" lon="6.85305">
        <ele>1890.9</ele>
        <time>2021-03-26T09:12:38Z</time>
      </trkpt>
      <trkpt lat="45.65445" lon="6.85304">
        <ele>1890.9</ele>
        <time>2021-03-26T09:12:39Z</time>
      </trkpt>
      <trkpt lat="45.65445" lon="6.85303">
        <ele>1890.9</ele>
        <time>2021-03-26T09:12:40Z</time>
      </trkpt>
      <trkpt lat="45.65446" lon="6.85302">
        <ele>1891.5</ele>
        <time>2021-03-26T09:12:41Z</time>
      </trkpt>
      <trkpt lat="45.65446" lon="6.85301">
        <ele>1892.2</ele>
        <time>2021-03-26T09:12:42Z</time>
      </trkpt>
      <trkpt lat="45.65447" lon="6.853">
        <ele>1892.2</ele>
        <time>2021-03-26T09:12:43Z</time>
      </trkpt>
      <trkpt lat="45.65447" lon="6.853">
        <ele>1892.2</ele>
        <time>2021-03-26T09:12:44Z</time>
      </trkpt>
      <trkpt lat="45.65448" lon="6.85299">
        <ele>1892.2</ele>
        <time>2021-03-26T09:12:45Z</time>
      </trkpt>
      <trkpt lat="45.65449" lon="6.85298">
        <ele>1892.7</ele>
        <time>2021-03-26T09:12:46Z</time>
      </trkpt>
      <trkpt lat="45.65449" lon="6.85297">
        <ele>1893.3</ele>
        <time>2021-03-26T09:12:47Z</time>
      </trkpt>
      <trkpt lat="45.6545" lon="6.85296">
        <ele>1893.3</ele>
        <time>2021-03-26T09:12:48Z</time>
      </trkpt>
      <trkpt lat="45.65451" lon="6.85295">
        <ele>1893.3</ele>
        <time>2021-03-26T09:12:49Z</time>
      </trkpt>
      <trkpt lat="45.65452" lon="6.85295">
        <ele>1893.3</ele>
        <time>2021-03-26T09:12:50Z</time>
      </trkpt>
      <trkpt lat="45.65452" lon="6.85294">
        <ele>1893.9</ele>
        <time>2021-03-26T09:12:51Z</time>
      </trkpt>
      <trkpt lat="45.65453" lon="6.85294">
        <ele>1893.9</ele>
        <time>2021-03-26T09:12:52Z</time>
      </trkpt>
      <trkpt lat="45.65454" lon="6.85293">
        <ele>1894.4</ele>
        <time>2021-03-26T09:12:53Z</time>
      </trkpt>
      <trkpt lat="45.65455" lon="6.85293">
        <ele>1894.4</ele>
        <time>2021-03-26T09:12:54Z</time>
      </trkpt>
      <trkpt lat="45.65456" lon="6.85293">
        <ele>1894.9</ele>
        <time>2021-03-26T09:12:55Z</time>
      </trkpt>
      <trkpt lat="45.65456" lon="6.85292">
        <ele>1894.9</ele>
        <time>2021-03-26T09:12:56Z</time>
      </trkpt>
      <trkpt lat="45.65457" lon="6.85292">
        <ele>1894.9</ele>
        <time>2021-03-26T09:12:57Z</time>
      </trkpt>
      <trkpt lat="45.65458" lon="6.85292">
        <ele>1894.9</ele>
        <time>2021-03-26T09:12:58Z</time>
      </trkpt>
      <trkpt lat="45.65458" lon="6.85291">
        <ele>1895.4</ele>
        <time>2021-03-26T09:12:59Z</time>
      </trkpt>
      <trkpt lat="45.65459" lon="6.8529">
        <ele>1895.4</ele>
        <time>2021-03-26T09:13:00Z</time>
      </trkpt>
      <trkpt lat="45.65459" lon="6.8529">
        <ele>1895.4</ele>
        <time>2021-03-26T09:13:01Z</time>
      </trkpt>
      <trkpt lat="45.6546" lon="6.85289">
        <ele>1895.7</ele>
        <time>2021-03-26T09:13:02Z</time>
      </trkpt>
      <trkpt lat="45.6546" lon="6.85288">
        <ele>1895.7</ele>
        <time>2021-03-26T09:13:03Z</time>
      </trkpt>
      <trkpt lat="45.65461" lon="6.85287">
        <ele>1895.7</ele>
        <time>2021-03-26T09:13:04Z</time>
      </trkpt>
      <trkpt lat="45.65461" lon="6.85287">
        <ele>1896.2</ele>
        <time>2021-03-26T09:13:05Z</time>
      </trkpt>
      <trkpt lat="45.65461" lon="6.85286">
        <ele>1896.2</ele>
        <time>2021-03-26T09:13:06Z</time>
      </trkpt>
      <trkpt lat="45.65462" lon="6.85285">
        <ele>1896.5</ele>
        <time>2021-03-26T09:13:07Z</time>
      </trkpt>
      <trkpt lat="45.65462" lon="6.85284">
        <ele>1896.5</ele>
        <time>2021-03-26T09:13:08Z</time>
      </trkpt>
      <trkpt lat="45.65463" lon="6.85283">
        <ele>1896.5</ele>
        <time>2021-03-26T09:13:09Z</time>
      </trkpt>
      <trkpt lat="45.65463" lon="6.85282">
        <ele>1896.5</ele>
        <time>2021-03-26T09:13:10Z</time>
      </trkpt>
      <trkpt lat="45.65463" lon="6.85282">
        <ele>1896.5</ele>
        <time>2021-03-26T09:13:11Z</time>
      </trkpt>
      <trkpt lat="45.65464" lon="6.85281">
        <ele>1896.8</ele>
        <time>2021-03-26T09:13:12Z</time>
      </trkpt>
      <trkpt lat="45.65464" lon="6.8528">
        <ele>1897.2</ele>
        <time>2021-03-26T09:13:13Z</time>
      </trkpt>
      <trkpt lat="45.65465" lon="6.8528">
        <ele>1897.2</ele>
        <time>2021-03-26T09:13:14Z</time>
      </trkpt>
      <trkpt lat="45.65466" lon="6.8528">
        <ele>1897.2</ele>
        <time>2021-03-26T09:13:15Z</time>
      </trkpt>
      <trkpt lat="45.65467" lon="6.85279">
        <ele>1897.2</ele>
        <time>2021-03-26T09:13:16Z</time>
      </trkpt>
      <trkpt lat="45.65468" lon="6.85279">
        <ele>1897.6</ele>
        <time>2021-03-26T09:13:17Z</time>
      </trkpt>
      <trkpt lat="45.65468" lon="6.85279">
        <ele>1897.6</ele>
        <time>2021-03-26T09:13:18Z</time>
      </trkpt>
      <trkpt lat="45.65469" lon="6.85279">
        <ele>1897.6</ele>
        <time>2021-03-26T09:13:19Z</time>
      </trkpt>
      <trkpt lat="45.6547" lon="6.85279">
        <ele>1898.1</ele>
        <time>2021-03-26T09:13:20Z</time>
      </trkpt>
      <trkpt lat="45.65471" lon="6.85279">
        <ele>1898.1</ele>
        <time>2021-03-26T09:13:21Z</time>
      </trkpt>
      <trkpt lat="45.65471" lon="6.85279">
        <ele>1898.1</ele>
        <time>2021-03-26T09:13:22Z</time>
      </trkpt>
      <trkpt lat="45.65472" lon="6.8528">
        <ele>1898.1</ele>
        <time>2021-03-26T09:13:23Z</time>
      </trkpt>
      <trkpt lat="45.65473" lon="6.8528">
        <ele>1898.6</ele>
        <time>2021-03-26T09:13:24Z</time>
      </trkpt>
      <trkpt lat="45.65474" lon="6.8528">
        <ele>1898.6</ele>
        <time>2021-03-26T09:13:25Z</time>
      </trkpt>
      <trkpt lat="45.65475" lon="6.85279">
        <ele>1898.5</ele>
        <time>2021-03-26T09:13:26Z</time>
      </trkpt>
      <trkpt lat="45.65476" lon="6.85279">
        <ele>1899</ele>
        <time>2021-03-26T09:13:27Z</time>
      </trkpt>
      <trkpt lat="45.65477" lon="6.85279">
        <ele>1899</ele>
        <time>2021-03-26T09:13:28Z</time>
      </trkpt>
      <trkpt lat="45.65478" lon="6.85279">
        <ele>1899</ele>
        <time>2021-03-26T09:13:29Z</time>
      </trkpt>
      <trkpt lat="45.65479" lon="6.85278">
        <ele>1899</ele>
        <time>2021-03-26T09:13:30Z</time>
      </trkpt>
      <trkpt lat="45.6548" lon="6.85278">
        <ele>1899.3</ele>
        <time>2021-03-26T09:13:31Z</time>
      </trkpt>
      <trkpt lat="45.65481" lon="6.85278">
        <ele>1899.3</ele>
        <time>2021-03-26T09:13:32Z</time>
      </trkpt>
      <trkpt lat="45.65481" lon="6.85279">
        <ele>1899.3</ele>
        <time>2021-03-26T09:13:33Z</time>
      </trkpt>
      <trkpt lat="45.65482" lon="6.85279">
        <ele>1899.7</ele>
        <time>2021-03-26T09:13:34Z</time>
      </trkpt>
      <trkpt lat="45.65483" lon="6.85279">
        <ele>1899.6</ele>
        <time>2021-03-26T09:13:35Z</time>
      </trkpt>
      <trkpt lat="45.65484" lon="6.85279">
        <ele>1899.6</ele>
        <time>2021-03-26T09:13:36Z</time>
      </trkpt>
      <trkpt lat="45.65485" lon="6.85279">
        <ele>1899.6</ele>
        <time>2021-03-26T09:13:37Z</time>
      </trkpt>
      <trkpt lat="45.65486" lon="6.85279">
        <ele>1899.9</ele>
        <time>2021-03-26T09:13:38Z</time>
      </trkpt>
      <trkpt lat="45.65486" lon="6.85279">
        <ele>1899.9</ele>
        <time>2021-03-26T09:13:39Z</time>
      </trkpt>
      <trkpt lat="45.65487" lon="6.85279">
        <ele>1899.9</ele>
        <time>2021-03-26T09:13:40Z</time>
      </trkpt>
      <trkpt lat="45.65488" lon="6.85279">
        <ele>1900.2</ele>
        <time>2021-03-26T09:13:41Z</time>
      </trkpt>
      <trkpt lat="45.65489" lon="6.85279">
        <ele>1900.2</ele>
        <time>2021-03-26T09:13:42Z</time>
      </trkpt>
      <trkpt lat="45.6549" lon="6.85279">
        <ele>1900.2</ele>
        <time>2021-03-26T09:13:43Z</time>
      </trkpt>
      <trkpt lat="45.65491" lon="6.85279">
        <ele>1900.2</ele>
        <time>2021-03-26T09:13:44Z</time>
      </trkpt>
      <trkpt lat="45.65492" lon="6.85279">
        <ele>1900.6</ele>
        <time>2021-03-26T09:13:45Z</time>
      </trkpt>
      <trkpt lat="45.65492" lon="6.85279">
        <ele>1900.6</ele>
        <time>2021-03-26T09:13:46Z</time>
      </trkpt>
      <trkpt lat="45.65493" lon="6.85279">
        <ele>1900.6</ele>
        <time>2021-03-26T09:13:47Z</time>
      </trkpt>
      <trkpt lat="45.65494" lon="6.85279">
        <ele>1900.6</ele>
        <time>2021-03-26T09:13:48Z</time>
      </trkpt>
      <trkpt lat="45.65494" lon="6.85279">
        <ele>1901</ele>
        <time>2021-03-26T09:13:49Z</time>
      </trkpt>
      <trkpt lat="45.65495" lon="6.85279">
        <ele>1901</ele>
        <time>2021-03-26T09:13:50Z</time>
      </trkpt>
      <trkpt lat="45.65495" lon="6.85279">
        <ele>1901</ele>
        <time>2021-03-26T09:13:51Z</time>
      </trkpt>
      <trkpt lat="45.65496" lon="6.85279">
        <ele>1901</ele>
        <time>2021-03-26T09:13:52Z</time>
      </trkpt>
      <trkpt lat="45.65497" lon="6.8528">
        <ele>1901</ele>
        <time>2021-03-26T09:13:53Z</time>
      </trkpt>
      <trkpt lat="45.65497" lon="6.8528">
        <ele>1901.5</ele>
        <time>2021-03-26T09:13:54Z</time>
      </trkpt>
      <trkpt lat="45.65498" lon="6.85281">
        <ele>1901.5</ele>
        <time>2021-03-26T09:13:55Z</time>
      </trkpt>
      <trkpt lat="45.65499" lon="6.85281">
        <ele>1901.2</ele>
        <time>2021-03-26T09:13:56Z</time>
      </trkpt>
      <trkpt lat="45.655" lon="6.85281">
        <ele>1901.1</ele>
        <time>2021-03-26T09:13:57Z</time>
      </trkpt>
      <trkpt lat="45.655" lon="6.85281">
        <ele>1901.6</ele>
        <time>2021-03-26T09:13:58Z</time>
      </trkpt>
      <trkpt lat="45.65501" lon="6.85281">
        <ele>1901.6</ele>
        <time>2021-03-26T09:13:59Z</time>
      </trkpt>
      <trkpt lat="45.65502" lon="6.85281">
        <ele>1901.6</ele>
        <time>2021-03-26T09:14:00Z</time>
      </trkpt>
      <trkpt lat="45.65503" lon="6.85281">
        <ele>1901.9</ele>
        <time>2021-03-26T09:14:01Z</time>
      </trkpt>
      <trkpt lat="45.65503" lon="6.85281">
        <ele>1902.4</ele>
        <time>2021-03-26T09:14:02Z</time>
      </trkpt>
      <trkpt lat="45.65504" lon="6.85281">
        <ele>1902.4</ele>
        <time>2021-03-26T09:14:03Z</time>
      </trkpt>
      <trkpt lat="45.65505" lon="6.8528">
        <ele>1902.4</ele>
        <time>2021-03-26T09:14:04Z</time>
      </trkpt>
      <trkpt lat="45.65506" lon="6.8528">
        <ele>1902.3</ele>
        <time>2021-03-26T09:14:05Z</time>
      </trkpt>
      <trkpt lat="45.65506" lon="6.8528">
        <ele>1902.8</ele>
        <time>2021-03-26T09:14:06Z</time>
      </trkpt>
      <trkpt lat="45.65507" lon="6.8528">
        <ele>1902.8</ele>
        <time>2021-03-26T09:14:07Z</time>
      </trkpt>
      <trkpt lat="45.65507" lon="6.85279">
        <ele>1902.8</ele>
        <time>2021-03-26T09:14:08Z</time>
      </trkpt>
      <trkpt lat="45.65508" lon="6.85278">
        <ele>1902.8</ele>
        <time>2021-03-26T09:14:09Z</time>
      </trkpt>
      <trkpt lat="45.65509" lon="6.85277">
        <ele>1902.8</ele>
        <time>2021-03-26T09:14:10Z</time>
      </trkpt>
      <trkpt lat="45.65509" lon="6.85276">
        <ele>1903.5</ele>
        <time>2021-03-26T09:14:11Z</time>
      </trkpt>
      <trkpt lat="45.6551" lon="6.85275">
        <ele>1903.5</ele>
        <time>2021-03-26T09:14:12Z</time>
      </trkpt>
      <trkpt lat="45.65511" lon="6.85275">
        <ele>1903.5</ele>
        <time>2021-03-26T09:14:13Z</time>
      </trkpt>
      <trkpt lat="45.65511" lon="6.85274">
        <ele>1903.5</ele>
        <time>2021-03-26T09:14:14Z</time>
      </trkpt>
      <trkpt lat="45.65512" lon="6.85273">
        <ele>1904</ele>
        <time>2021-03-26T09:14:15Z</time>
      </trkpt>
      <trkpt lat="45.65513" lon="6.85273">
        <ele>1903.9</ele>
        <time>2021-03-26T09:14:16Z</time>
      </trkpt>
      <trkpt lat="45.65513" lon="6.85272">
        <ele>1903.9</ele>
        <time>2021-03-26T09:14:17Z</time>
      </trkpt>
      <trkpt lat="45.65514" lon="6.85272">
        <ele>1904.2</ele>
        <time>2021-03-26T09:14:18Z</time>
      </trkpt>
      <trkpt lat="45.65515" lon="6.85272">
        <ele>1904.7</ele>
        <time>2021-03-26T09:14:19Z</time>
      </trkpt>
      <trkpt lat="45.65516" lon="6.85271">
        <ele>1904.7</ele>
        <time>2021-03-26T09:14:20Z</time>
      </trkpt>
      <trkpt lat="45.65517" lon="6.8527">
        <ele>1904.7</ele>
        <time>2021-03-26T09:14:21Z</time>
      </trkpt>
      <trkpt lat="45.65518" lon="6.8527">
        <ele>1904.7</ele>
        <time>2021-03-26T09:14:22Z</time>
      </trkpt>
      <trkpt lat="45.65518" lon="6.85269">
        <ele>1905.2</ele>
        <time>2021-03-26T09:14:23Z</time>
      </trkpt>
      <trkpt lat="45.65519" lon="6.85269">
        <ele>1905.2</ele>
        <time>2021-03-26T09:14:24Z</time>
      </trkpt>
      <trkpt lat="45.6552" lon="6.85268">
        <ele>1905.2</ele>
        <time>2021-03-26T09:14:25Z</time>
      </trkpt>
      <trkpt lat="45.6552" lon="6.85267">
        <ele>1905.5</ele>
        <time>2021-03-26T09:14:26Z</time>
      </trkpt>
      <trkpt lat="45.65521" lon="6.85266">
        <ele>1905.5</ele>
        <time>2021-03-26T09:14:27Z</time>
      </trkpt>
      <trkpt lat="45.65521" lon="6.85265">
        <ele>1906.1</ele>
        <time>2021-03-26T09:14:28Z</time>
      </trkpt>
      <trkpt lat="45.65522" lon="6.85265">
        <ele>1906.1</ele>
        <time>2021-03-26T09:14:29Z</time>
      </trkpt>
      <trkpt lat="45.65522" lon="6.85264">
        <ele>1906</ele>
        <time>2021-03-26T09:14:30Z</time>
      </trkpt>
      <trkpt lat="45.65522" lon="6.85263">
        <ele>1906.3</ele>
        <time>2021-03-26T09:14:31Z</time>
      </trkpt>
      <trkpt lat="45.65523" lon="6.85263">
        <ele>1906.3</ele>
        <time>2021-03-26T09:14:32Z</time>
      </trkpt>
      <trkpt lat="45.65523" lon="6.85262">
        <ele>1906.3</ele>
        <time>2021-03-26T09:14:33Z</time>
      </trkpt>
      <trkpt lat="45.65524" lon="6.85261">
        <ele>1906.3</ele>
        <time>2021-03-26T09:14:34Z</time>
      </trkpt>
      <trkpt lat="45.65524" lon="6.8526">
        <ele>1906.9</ele>
        <time>2021-03-26T09:14:35Z</time>
      </trkpt>
      <trkpt lat="45.65525" lon="6.8526">
        <ele>1906.9</ele>
        <time>2021-03-26T09:14:36Z</time>
      </trkpt>
      <trkpt lat="45.65525" lon="6.85258">
        <ele>1907.2</ele>
        <time>2021-03-26T09:14:37Z</time>
      </trkpt>
      <trkpt lat="45.65526" lon="6.85257">
        <ele>1907.2</ele>
        <time>2021-03-26T09:14:38Z</time>
      </trkpt>
      <trkpt lat="45.65526" lon="6.85255">
        <ele>1907.2</ele>
        <time>2021-03-26T09:14:39Z</time>
      </trkpt>
      <trkpt lat="45.65527" lon="6.85254">
        <ele>1908.2</ele>
        <time>2021-03-26T09:14:40Z</time>
      </trkpt>
      <trkpt lat="45.65527" lon="6.85253">
        <ele>1908.2</ele>
        <time>2021-03-26T09:14:41Z</time>
      </trkpt>
      <trkpt lat="45.65528" lon="6.85252">
        <ele>1908.1</ele>
        <time>2021-03-26T09:14:42Z</time>
      </trkpt>
      <trkpt lat="45.65528" lon="6.85251">
        <ele>1908.1</ele>
        <time>2021-03-26T09:14:43Z</time>
      </trkpt>
      <trkpt lat="45.65529" lon="6.8525">
        <ele>1908.4</ele>
        <time>2021-03-26T09:14:44Z</time>
      </trkpt>
      <trkpt lat="45.65529" lon="6.8525">
        <ele>1908.4</ele>
        <time>2021-03-26T09:14:45Z</time>
      </trkpt>
      <trkpt lat="45.6553" lon="6.85249">
        <ele>1908.3</ele>
        <time>2021-03-26T09:14:46Z</time>
      </trkpt>
      <trkpt lat="45.6553" lon="6.85249">
        <ele>1909.1</ele>
        <time>2021-03-26T09:14:47Z</time>
      </trkpt>
      <trkpt lat="45.65531" lon="6.85248">
        <ele>1909.1</ele>
        <time>2021-03-26T09:14:48Z</time>
      </trkpt>
      <trkpt lat="45.65531" lon="6.85248">
        <ele>1909.1</ele>
        <time>2021-03-26T09:14:49Z</time>
      </trkpt>
      <trkpt lat="45.65531" lon="6.85248">
        <ele>1909.1</ele>
        <time>2021-03-26T09:14:50Z</time>
      </trkpt>
      <trkpt lat="45.65531" lon="6.85248">
        <ele>1909.1</ele>
        <time>2021-03-26T09:14:51Z</time>
      </trkpt>
      <trkpt lat="45.65532" lon="6.85247">
        <ele>1909.1</ele>
        <time>2021-03-26T09:14:52Z</time>
      </trkpt>
      <trkpt lat="45.65532" lon="6.85247">
        <ele>1909.1</ele>
        <time>2021-03-26T09:14:53Z</time>
      </trkpt>
      <trkpt lat="45.65532" lon="6.85246">
        <ele>1909.3</ele>
        <time>2021-03-26T09:14:54Z</time>
      </trkpt>
      <trkpt lat="45.65532" lon="6.85246">
        <ele>1909.3</ele>
        <time>2021-03-26T09:14:55Z</time>
      </trkpt>
      <trkpt lat="45.65533" lon="6.85246">
        <ele>1909.3</ele>
        <time>2021-03-26T09:14:56Z</time>
      </trkpt>
      <trkpt lat="45.65533" lon="6.85245">
        <ele>1909.2</ele>
        <time>2021-03-26T09:14:57Z</time>
      </trkpt>
      <trkpt lat="45.65533" lon="6.85245">
        <ele>1910.1</ele>
        <time>2021-03-26T09:14:58Z</time>
      </trkpt>
      <trkpt lat="45.65533" lon="6.85244">
        <ele>1910</ele>
        <time>2021-03-26T09:14:59Z</time>
      </trkpt>
      <trkpt lat="45.65534" lon="6.85244">
        <ele>1910</ele>
        <time>2021-03-26T09:15:00Z</time>
      </trkpt>
      <trkpt lat="45.65534" lon="6.85244">
        <ele>1910</ele>
        <time>2021-03-26T09:15:01Z</time>
      </trkpt>
      <trkpt lat="45.65535" lon="6.85244">
        <ele>1910</ele>
        <time>2021-03-26T09:15:02Z</time>
      </trkpt>
      <trkpt lat="45.65536" lon="6.85245">
        <ele>1910</ele>
        <time>2021-03-26T09:15:03Z</time>
      </trkpt>
      <trkpt lat="45.65536" lon="6.85245">
        <ele>1910.8</ele>
        <time>2021-03-26T09:15:04Z</time>
      </trkpt>
      <trkpt lat="45.65537" lon="6.85245">
        <ele>1910.8</ele>
        <time>2021-03-26T09:15:05Z</time>
      </trkpt>
      <trkpt lat="45.65538" lon="6.85246">
        <ele>1910.8</ele>
        <time>2021-03-26T09:15:06Z</time>
      </trkpt>
      <trkpt lat="45.65539" lon="6.85247">
        <ele>1910.5</ele>
        <time>2021-03-26T09:15:07Z</time>
      </trkpt>
      <trkpt lat="45.65539" lon="6.85248">
        <ele>1911.3</ele>
        <time>2021-03-26T09:15:08Z</time>
      </trkpt>
      <trkpt lat="45.6554" lon="6.85249">
        <ele>1911.3</ele>
        <time>2021-03-26T09:15:09Z</time>
      </trkpt>
      <trkpt lat="45.6554" lon="6.8525">
        <ele>1911.3</ele>
        <time>2021-03-26T09:15:10Z</time>
      </trkpt>
      <trkpt lat="45.65541" lon="6.85251">
        <ele>1911.3</ele>
        <time>2021-03-26T09:15:11Z</time>
      </trkpt>
      <trkpt lat="45.65542" lon="6.85251">
        <ele>1911</ele>
        <time>2021-03-26T09:15:12Z</time>
      </trkpt>
      <trkpt lat="45.65542" lon="6.85252">
        <ele>1911.7</ele>
        <time>2021-03-26T09:15:13Z</time>
      </trkpt>
      <trkpt lat="45.65542" lon="6.85253">
        <ele>1911.7</ele>
        <time>2021-03-26T09:15:14Z</time>
      </trkpt>
      <trkpt lat="45.65543" lon="6.85253">
        <ele>1911.7</ele>
        <time>2021-03-26T09:15:15Z</time>
      </trkpt>
      <trkpt lat="45.65543" lon="6.85254">
        <ele>1911.7</ele>
        <time>2021-03-26T09:15:16Z</time>
      </trkpt>
      <trkpt lat="45.65543" lon="6.85255">
        <ele>1911.7</ele>
        <time>2021-03-26T09:15:17Z</time>
      </trkpt>
      <trkpt lat="45.65543" lon="6.85255">
        <ele>1911.4</ele>
        <time>2021-03-26T09:15:18Z</time>
      </trkpt>
      <trkpt lat="45.65544" lon="6.85256">
        <ele>1911.4</ele>
        <time>2021-03-26T09:15:19Z</time>
      </trkpt>
      <trkpt lat="45.65544" lon="6.85257">
        <ele>1911.3</ele>
        <time>2021-03-26T09:15:20Z</time>
      </trkpt>
      <trkpt lat="45.65544" lon="6.85257">
        <ele>1911.3</ele>
        <time>2021-03-26T09:15:21Z</time>
      </trkpt>
      <trkpt lat="45.65545" lon="6.85258">
        <ele>1911.3</ele>
        <time>2021-03-26T09:15:22Z</time>
      </trkpt>
      <trkpt lat="45.65545" lon="6.85259">
        <ele>1912.1</ele>
        <time>2021-03-26T09:15:23Z</time>
      </trkpt>
      <trkpt lat="45.65546" lon="6.85259">
        <ele>1912.1</ele>
        <time>2021-03-26T09:15:24Z</time>
      </trkpt>
      <trkpt lat="45.65546" lon="6.8526">
        <ele>1911.7</ele>
        <time>2021-03-26T09:15:25Z</time>
      </trkpt>
      <trkpt lat="45.65546" lon="6.85261">
        <ele>1911.7</ele>
        <time>2021-03-26T09:15:26Z</time>
      </trkpt>
      <trkpt lat="45.65547" lon="6.85261">
        <ele>1911.7</ele>
        <time>2021-03-26T09:15:27Z</time>
      </trkpt>
      <trkpt lat="45.65547" lon="6.85262">
        <ele>1911.7</ele>
        <time>2021-03-26T09:15:28Z</time>
      </trkpt>
      <trkpt lat="45.65548" lon="6.85262">
        <ele>1911.7</ele>
        <time>2021-03-26T09:15:29Z</time>
      </trkpt>
      <trkpt lat="45.65548" lon="6.85263">
        <ele>1912.5</ele>
        <time>2021-03-26T09:15:30Z</time>
      </trkpt>
      <trkpt lat="45.65548" lon="6.85263">
        <ele>1912.5</ele>
        <time>2021-03-26T09:15:31Z</time>
      </trkpt>
      <trkpt lat="45.65549" lon="6.85264">
        <ele>1912.1</ele>
        <time>2021-03-26T09:15:32Z</time>
      </trkpt>
      <trkpt lat="45.65549" lon="6.85265">
        <ele>1912.1</ele>
        <time>2021-03-26T09:15:33Z</time>
      </trkpt>
      <trkpt lat="45.6555" lon="6.85265">
        <ele>1912.1</ele>
        <time>2021-03-26T09:15:34Z</time>
      </trkpt>
      <trkpt lat="45.65551" lon="6.85266">
        <ele>1912.1</ele>
        <time>2021-03-26T09:15:35Z</time>
      </trkpt>
      <trkpt lat="45.65551" lon="6.85266">
        <ele>1913</ele>
        <time>2021-03-26T09:15:36Z</time>
      </trkpt>
      <trkpt lat="45.65552" lon="6.85267">
        <ele>1913</ele>
        <time>2021-03-26T09:15:37Z</time>
      </trkpt>
      <trkpt lat="45.65552" lon="6.85268">
        <ele>1913</ele>
        <time>2021-03-26T09:15:38Z</time>
      </trkpt>
      <trkpt lat="45.65553" lon="6.85268">
        <ele>1912.6</ele>
        <time>2021-03-26T09:15:39Z</time>
      </trkpt>
      <trkpt lat="45.65553" lon="6.85269">
        <ele>1912.6</ele>
        <time>2021-03-26T09:15:40Z</time>
      </trkpt>
      <trkpt lat="45.65553" lon="6.85269">
        <ele>1912.6</ele>
        <time>2021-03-26T09:15:41Z</time>
      </trkpt>
      <trkpt lat="45.65554" lon="6.8527">
        <ele>1912.6</ele>
        <time>2021-03-26T09:15:42Z</time>
      </trkpt>
      <trkpt lat="45.65554" lon="6.8527">
        <ele>1913.6</ele>
        <time>2021-03-26T09:15:43Z</time>
      </trkpt>
      <trkpt lat="45.65555" lon="6.85271">
        <ele>1913.6</ele>
        <time>2021-03-26T09:15:44Z</time>
      </trkpt>
      <trkpt lat="45.65555" lon="6.85271">
        <ele>1913.5</ele>
        <time>2021-03-26T09:15:45Z</time>
      </trkpt>
      <trkpt lat="45.65555" lon="6.85272">
        <ele>1913.5</ele>
        <time>2021-03-26T09:15:46Z</time>
      </trkpt>
      <trkpt lat="45.65556" lon="6.85273">
        <ele>1913.1</ele>
        <time>2021-03-26T09:15:47Z</time>
      </trkpt>
      <trkpt lat="45.65556" lon="6.85273">
        <ele>1913.1</ele>
        <time>2021-03-26T09:15:48Z</time>
      </trkpt>
      <trkpt lat="45.65556" lon="6.85274">
        <ele>1913.1</ele>
        <time>2021-03-26T09:15:49Z</time>
      </trkpt>
      <trkpt lat="45.65557" lon="6.85274">
        <ele>1913.1</ele>
        <time>2021-03-26T09:15:50Z</time>
      </trkpt>
      <trkpt lat="45.65557" lon="6.85275">
        <ele>1914.1</ele>
        <time>2021-03-26T09:15:51Z</time>
      </trkpt>
      <trkpt lat="45.65557" lon="6.85275">
        <ele>1914.1</ele>
        <time>2021-03-26T09:15:52Z</time>
      </trkpt>
      <trkpt lat="45.65558" lon="6.85276">
        <ele>1914.1</ele>
        <time>2021-03-26T09:15:53Z</time>
      </trkpt>
      <trkpt lat="45.65558" lon="6.85277">
        <ele>1914.1</ele>
        <time>2021-03-26T09:15:54Z</time>
      </trkpt>
      <trkpt lat="45.65559" lon="6.85277">
        <ele>1913.7</ele>
        <time>2021-03-26T09:15:55Z</time>
      </trkpt>
      <trkpt lat="45.65559" lon="6.85277">
        <ele>1913.7</ele>
        <time>2021-03-26T09:15:56Z</time>
      </trkpt>
      <trkpt lat="45.6556" lon="6.85278">
        <ele>1913.7</ele>
        <time>2021-03-26T09:15:57Z</time>
      </trkpt>
      <trkpt lat="45.6556" lon="6.85278">
        <ele>1914.7</ele>
        <time>2021-03-26T09:15:58Z</time>
      </trkpt>
      <trkpt lat="45.6556" lon="6.85279">
        <ele>1914.7</ele>
        <time>2021-03-26T09:15:59Z</time>
      </trkpt>
      <trkpt lat="45.65561" lon="6.85279">
        <ele>1914.7</ele>
        <time>2021-03-26T09:16:00Z</time>
      </trkpt>
      <trkpt lat="45.65561" lon="6.8528">
        <ele>1914.7</ele>
        <time>2021-03-26T09:16:01Z</time>
      </trkpt>
      <trkpt lat="45.65561" lon="6.85281">
        <ele>1914.6</ele>
        <time>2021-03-26T09:16:02Z</time>
      </trkpt>
      <trkpt lat="45.65562" lon="6.85281">
        <ele>1914.2</ele>
        <time>2021-03-26T09:16:03Z</time>
      </trkpt>
      <trkpt lat="45.65562" lon="6.85282">
        <ele>1914.2</ele>
        <time>2021-03-26T09:16:04Z</time>
      </trkpt>
      <trkpt lat="45.65563" lon="6.85282">
        <ele>1914.2</ele>
        <time>2021-03-26T09:16:05Z</time>
      </trkpt>
      <trkpt lat="45.65563" lon="6.85282">
        <ele>1915.2</ele>
        <time>2021-03-26T09:16:06Z</time>
      </trkpt>
      <trkpt lat="45.65564" lon="6.85283">
        <ele>1915.2</ele>
        <time>2021-03-26T09:16:07Z</time>
      </trkpt>
      <trkpt lat="45.65564" lon="6.85283">
        <ele>1915.2</ele>
        <time>2021-03-26T09:16:08Z</time>
      </trkpt>
      <trkpt lat="45.65564" lon="6.85284">
        <ele>1915.1</ele>
        <time>2021-03-26T09:16:09Z</time>
      </trkpt>
      <trkpt lat="45.65565" lon="6.85284">
        <ele>1915.1</ele>
        <time>2021-03-26T09:16:10Z</time>
      </trkpt>
      <trkpt lat="45.65565" lon="6.85285">
        <ele>1915.1</ele>
        <time>2021-03-26T09:16:11Z</time>
      </trkpt>
      <trkpt lat="45.65566" lon="6.85285">
        <ele>1914.7</ele>
        <time>2021-03-26T09:16:12Z</time>
      </trkpt>
      <trkpt lat="45.65566" lon="6.85286">
        <ele>1915.6</ele>
        <time>2021-03-26T09:16:13Z</time>
      </trkpt>
      <trkpt lat="45.65567" lon="6.85286">
        <ele>1915.6</ele>
        <time>2021-03-26T09:16:14Z</time>
      </trkpt>
      <trkpt lat="45.65567" lon="6.85287">
        <ele>1915.6</ele>
        <time>2021-03-26T09:16:15Z</time>
      </trkpt>
      <trkpt lat="45.65568" lon="6.85288">
        <ele>1915.6</ele>
        <time>2021-03-26T09:16:16Z</time>
      </trkpt>
      <trkpt lat="45.65568" lon="6.85288">
        <ele>1915.6</ele>
        <time>2021-03-26T09:16:17Z</time>
      </trkpt>
      <trkpt lat="45.65569" lon="6.85289">
        <ele>1915.6</ele>
        <time>2021-03-26T09:16:18Z</time>
      </trkpt>
      <trkpt lat="45.65569" lon="6.85289">
        <ele>1916.1</ele>
        <time>2021-03-26T09:16:19Z</time>
      </trkpt>
      <trkpt lat="45.65569" lon="6.8529">
        <ele>1916</ele>
        <time>2021-03-26T09:16:20Z</time>
      </trkpt>
      <trkpt lat="45.6557" lon="6.8529">
        <ele>1916</ele>
        <time>2021-03-26T09:16:21Z</time>
      </trkpt>
      <trkpt lat="45.6557" lon="6.85291">
        <ele>1916</ele>
        <time>2021-03-26T09:16:22Z</time>
      </trkpt>
      <trkpt lat="45.65571" lon="6.85292">
        <ele>1916</ele>
        <time>2021-03-26T09:16:23Z</time>
      </trkpt>
      <trkpt lat="45.65571" lon="6.85292">
        <ele>1916</ele>
        <time>2021-03-26T09:16:24Z</time>
      </trkpt>
      <trkpt lat="45.65572" lon="6.85293">
        <ele>1917</ele>
        <time>2021-03-26T09:16:25Z</time>
      </trkpt>
      <trkpt lat="45.65572" lon="6.85293">
        <ele>1917</ele>
        <time>2021-03-26T09:16:26Z</time>
      </trkpt>
      <trkpt lat="45.65573" lon="6.85294">
        <ele>1916.5</ele>
        <time>2021-03-26T09:16:27Z</time>
      </trkpt>
      <trkpt lat="45.65574" lon="6.85294">
        <ele>1916.5</ele>
        <time>2021-03-26T09:16:28Z</time>
      </trkpt>
      <trkpt lat="45.65574" lon="6.85294">
        <ele>1916.5</ele>
        <time>2021-03-26T09:16:29Z</time>
      </trkpt>
      <trkpt lat="45.65574" lon="6.85295">
        <ele>1916.4</ele>
        <time>2021-03-26T09:16:30Z</time>
      </trkpt>
      <trkpt lat="45.65575" lon="6.85295">
        <ele>1917.5</ele>
        <time>2021-03-26T09:16:31Z</time>
      </trkpt>
      <trkpt lat="45.65575" lon="6.85295">
        <ele>1917.5</ele>
        <time>2021-03-26T09:16:32Z</time>
      </trkpt>
      <trkpt lat="45.65576" lon="6.85296">
        <ele>1917.5</ele>
        <time>2021-03-26T09:16:33Z</time>
      </trkpt>
      <trkpt lat="45.65576" lon="6.85296">
        <ele>1917.5</ele>
        <time>2021-03-26T09:16:34Z</time>
      </trkpt>
      <trkpt lat="45.65576" lon="6.85296">
        <ele>1917.5</ele>
        <time>2021-03-26T09:16:35Z</time>
      </trkpt>
      <trkpt lat="45.65577" lon="6.85296">
        <ele>1917.5</ele>
        <time>2021-03-26T09:16:36Z</time>
      </trkpt>
      <trkpt lat="45.65577" lon="6.85296">
        <ele>1917.5</ele>
        <time>2021-03-26T09:16:37Z</time>
      </trkpt>
      <trkpt lat="45.65577" lon="6.85297">
        <ele>1917.5</ele>
        <time>2021-03-26T09:16:38Z</time>
      </trkpt>
      <trkpt lat="45.65578" lon="6.85297">
        <ele>1917.4</ele>
        <time>2021-03-26T09:16:39Z</time>
      </trkpt>
      <trkpt lat="45.65578" lon="6.85297">
        <ele>1918.6</ele>
        <time>2021-03-26T09:16:40Z</time>
      </trkpt>
      <trkpt lat="45.65578" lon="6.85297">
        <ele>1918.6</ele>
        <time>2021-03-26T09:16:41Z</time>
      </trkpt>
      <trkpt lat="45.65579" lon="6.85297">
        <ele>1918.6</ele>
        <time>2021-03-26T09:16:42Z</time>
      </trkpt>
      <trkpt lat="45.65579" lon="6.85297">
        <ele>1918.6</ele>
        <time>2021-03-26T09:16:43Z</time>
      </trkpt>
      <trkpt lat="45.65579" lon="6.85297">
        <ele>1918.6</ele>
        <time>2021-03-26T09:16:44Z</time>
      </trkpt>
      <trkpt lat="45.6558" lon="6.85297">
        <ele>1918.6</ele>
        <time>2021-03-26T09:16:45Z</time>
      </trkpt>
      <trkpt lat="45.6558" lon="6.85298">
        <ele>1918.6</ele>
        <time>2021-03-26T09:16:46Z</time>
      </trkpt>
      <trkpt lat="45.65581" lon="6.85297">
        <ele>1919.8</ele>
        <time>2021-03-26T09:16:47Z</time>
      </trkpt>
      <trkpt lat="45.65582" lon="6.85298">
        <ele>1919.8</ele>
        <time>2021-03-26T09:16:48Z</time>
      </trkpt>
      <trkpt lat="45.65583" lon="6.85298">
        <ele>1919.8</ele>
        <time>2021-03-26T09:16:49Z</time>
      </trkpt>
      <trkpt lat="45.65583" lon="6.85298">
        <ele>1919.2</ele>
        <time>2021-03-26T09:16:50Z</time>
      </trkpt>
      <trkpt lat="45.65583" lon="6.85298">
        <ele>1919.2</ele>
        <time>2021-03-26T09:16:51Z</time>
      </trkpt>
      <trkpt lat="45.65584" lon="6.85298">
        <ele>1920.4</ele>
        <time>2021-03-26T09:16:52Z</time>
      </trkpt>
      <trkpt lat="45.65585" lon="6.85299">
        <ele>1920.4</ele>
        <time>2021-03-26T09:16:53Z</time>
      </trkpt>
      <trkpt lat="45.65585" lon="6.85299">
        <ele>1920.4</ele>
        <time>2021-03-26T09:16:54Z</time>
      </trkpt>
      <trkpt lat="45.65586" lon="6.853">
        <ele>1920.4</ele>
        <time>2021-03-26T09:16:55Z</time>
      </trkpt>
      <trkpt lat="45.65586" lon="6.853">
        <ele>1920.4</ele>
        <time>2021-03-26T09:16:56Z</time>
      </trkpt>
      <trkpt lat="45.65587" lon="6.85301">
        <ele>1920.4</ele>
        <time>2021-03-26T09:16:57Z</time>
      </trkpt>
      <trkpt lat="45.65587" lon="6.85301">
        <ele>1921.6</ele>
        <time>2021-03-26T09:16:58Z</time>
      </trkpt>
      <trkpt lat="45.65588" lon="6.85301">
        <ele>1921.6</ele>
        <time>2021-03-26T09:16:59Z</time>
      </trkpt>
      <trkpt lat="45.65588" lon="6.85302">
        <ele>1921.6</ele>
        <time>2021-03-26T09:17:00Z</time>
      </trkpt>
      <trkpt lat="45.65589" lon="6.85302">
        <ele>1921.6</ele>
        <time>2021-03-26T09:17:01Z</time>
      </trkpt>
      <trkpt lat="45.65589" lon="6.85302">
        <ele>1921.5</ele>
        <time>2021-03-26T09:17:02Z</time>
      </trkpt>
      <trkpt lat="45.6559" lon="6.85303">
        <ele>1922.1</ele>
        <time>2021-03-26T09:17:03Z</time>
      </trkpt>
      <trkpt lat="45.6559" lon="6.85303">
        <ele>1922.1</ele>
        <time>2021-03-26T09:17:04Z</time>
      </trkpt>
      <trkpt lat="45.65591" lon="6.85304">
        <ele>1922.1</ele>
        <time>2021-03-26T09:17:05Z</time>
      </trkpt>
      <trkpt lat="45.65592" lon="6.85304">
        <ele>1922</ele>
        <time>2021-03-26T09:17:06Z</time>
      </trkpt>
      <trkpt lat="45.65592" lon="6.85304">
        <ele>1922</ele>
        <time>2021-03-26T09:17:07Z</time>
      </trkpt>
      <trkpt lat="45.65593" lon="6.85305">
        <ele>1923.1</ele>
        <time>2021-03-26T09:17:08Z</time>
      </trkpt>
      <trkpt lat="45.65594" lon="6.85305">
        <ele>1923.1</ele>
        <time>2021-03-26T09:17:09Z</time>
      </trkpt>
      <trkpt lat="45.65595" lon="6.85306">
        <ele>1923.1</ele>
        <time>2021-03-26T09:17:10Z</time>
      </trkpt>
      <trkpt lat="45.65595" lon="6.85306">
        <ele>1923.1</ele>
        <time>2021-03-26T09:17:11Z</time>
      </trkpt>
      <trkpt lat="45.65595" lon="6.85306">
        <ele>1923.1</ele>
        <time>2021-03-26T09:17:12Z</time>
      </trkpt>
      <trkpt lat="45.65596" lon="6.85307">
        <ele>1923.6</ele>
        <time>2021-03-26T09:17:13Z</time>
      </trkpt>
      <trkpt lat="45.65596" lon="6.85307">
        <ele>1923.6</ele>
        <time>2021-03-26T09:17:14Z</time>
      </trkpt>
      <trkpt lat="45.65597" lon="6.85308">
        <ele>1923.5</ele>
        <time>2021-03-26T09:17:15Z</time>
      </trkpt>
      <trkpt lat="45.65597" lon="6.85309">
        <ele>1923.5</ele>
        <time>2021-03-26T09:17:16Z</time>
      </trkpt>
      <trkpt lat="45.65597" lon="6.85309">
        <ele>1923.5</ele>
        <time>2021-03-26T09:17:17Z</time>
      </trkpt>
      <trkpt lat="45.65597" lon="6.85309">
        <ele>1923.5</ele>
        <time>2021-03-26T09:17:18Z</time>
      </trkpt>
      <trkpt lat="45.65597" lon="6.85309">
        <ele>1923.5</ele>
        <time>2021-03-26T09:17:19Z</time>
      </trkpt>
      <trkpt lat="45.65598" lon="6.8531">
        <ele>1923.5</ele>
        <time>2021-03-26T09:17:20Z</time>
      </trkpt>
      <trkpt lat="45.65598" lon="6.8531">
        <ele>1923.5</ele>
        <time>2021-03-26T09:17:21Z</time>
      </trkpt>
      <trkpt lat="45.65599" lon="6.8531">
        <ele>1923.5</ele>
        <time>2021-03-26T09:17:22Z</time>
      </trkpt>
      <trkpt lat="45.65599" lon="6.85311">
        <ele>1924.6</ele>
        <time>2021-03-26T09:17:23Z</time>
      </trkpt>
      <trkpt lat="45.65599" lon="6.85311">
        <ele>1923.9</ele>
        <time>2021-03-26T09:17:24Z</time>
      </trkpt>
      <trkpt lat="45.656" lon="6.85311">
        <ele>1923.9</ele>
        <time>2021-03-26T09:17:25Z</time>
      </trkpt>
      <trkpt lat="45.656" lon="6.85311">
        <ele>1923.9</ele>
        <time>2021-03-26T09:17:26Z</time>
      </trkpt>
      <trkpt lat="45.656" lon="6.85311">
        <ele>1923.9</ele>
        <time>2021-03-26T09:17:27Z</time>
      </trkpt>
      <trkpt lat="45.656" lon="6.85311">
        <ele>1923.9</ele>
        <time>2021-03-26T09:17:28Z</time>
      </trkpt>
      <trkpt lat="45.656" lon="6.85312">
        <ele>1923.9</ele>
        <time>2021-03-26T09:17:29Z</time>
      </trkpt>
      <trkpt lat="45.656" lon="6.85312">
        <ele>1923.9</ele>
        <time>2021-03-26T09:17:30Z</time>
      </trkpt>
      <trkpt lat="45.656" lon="6.85312">
        <ele>1923.9</ele>
        <time>2021-03-26T09:17:31Z</time>
      </trkpt>
      <trkpt lat="45.65601" lon="6.85312">
        <ele>1923.9</ele>
        <time>2021-03-26T09:17:32Z</time>
      </trkpt>
      <trkpt lat="45.656" lon="6.85307">
        <ele>1924.5</ele>
        <time>2021-03-26T09:17:59Z</time>
      </trkpt>
      <trkpt lat="45.656" lon="6.85306">
        <ele>1925.1</ele>
        <time>2021-03-26T09:18:00Z</time>
      </trkpt>
      <trkpt lat="45.656" lon="6.85305">
        <ele>1925.1</ele>
        <time>2021-03-26T09:18:01Z</time>
      </trkpt>
      <trkpt lat="45.656" lon="6.85304">
        <ele>1925.1</ele>
        <time>2021-03-26T09:18:02Z</time>
      </trkpt>
      <trkpt lat="45.656" lon="6.85303">
        <ele>1925.1</ele>
        <time>2021-03-26T09:18:03Z</time>
      </trkpt>
      <trkpt lat="45.656" lon="6.85302">
        <ele>1925.1</ele>
        <time>2021-03-26T09:18:04Z</time>
      </trkpt>
      <trkpt lat="45.656" lon="6.85302">
        <ele>1925.7</ele>
        <time>2021-03-26T09:18:05Z</time>
      </trkpt>
      <trkpt lat="45.656" lon="6.85301">
        <ele>1925.7</ele>
        <time>2021-03-26T09:18:06Z</time>
      </trkpt>
      <trkpt lat="45.65599" lon="6.853">
        <ele>1925.7</ele>
        <time>2021-03-26T09:18:07Z</time>
      </trkpt>
      <trkpt lat="45.65599" lon="6.85299">
        <ele>1925.7</ele>
        <time>2021-03-26T09:18:08Z</time>
      </trkpt>
      <trkpt lat="45.65599" lon="6.85299">
        <ele>1924.5</ele>
        <time>2021-03-26T09:18:09Z</time>
      </trkpt>
      <trkpt lat="45.65598" lon="6.85298">
        <ele>1924.5</ele>
        <time>2021-03-26T09:18:10Z</time>
      </trkpt>
      <trkpt lat="45.65598" lon="6.85298">
        <ele>1925.1</ele>
        <time>2021-03-26T09:18:11Z</time>
      </trkpt>
      <trkpt lat="45.65598" lon="6.85297">
        <ele>1925</ele>
        <time>2021-03-26T09:18:12Z</time>
      </trkpt>
      <trkpt lat="45.65597" lon="6.85296">
        <ele>1925</ele>
        <time>2021-03-26T09:18:13Z</time>
      </trkpt>
      <trkpt lat="45.65597" lon="6.85296">
        <ele>1925</ele>
        <time>2021-03-26T09:18:14Z</time>
      </trkpt>
      <trkpt lat="45.65597" lon="6.85295">
        <ele>1925</ele>
        <time>2021-03-26T09:18:15Z</time>
      </trkpt>
      <trkpt lat="45.65597" lon="6.85294">
        <ele>1925</ele>
        <time>2021-03-26T09:18:16Z</time>
      </trkpt>
      <trkpt lat="45.65597" lon="6.85294">
        <ele>1925</ele>
        <time>2021-03-26T09:18:17Z</time>
      </trkpt>
      <trkpt lat="45.65596" lon="6.85293">
        <ele>1925.5</ele>
        <time>2021-03-26T09:18:18Z</time>
      </trkpt>
      <trkpt lat="45.65596" lon="6.85293">
        <ele>1925.5</ele>
        <time>2021-03-26T09:18:19Z</time>
      </trkpt>
      <trkpt lat="45.65596" lon="6.85292">
        <ele>1925.5</ele>
        <time>2021-03-26T09:18:20Z</time>
      </trkpt>
      <trkpt lat="45.65596" lon="6.85291">
        <ele>1925.5</ele>
        <time>2021-03-26T09:18:21Z</time>
      </trkpt>
      <trkpt lat="45.65596" lon="6.8529">
        <ele>1924.3</ele>
        <time>2021-03-26T09:18:22Z</time>
      </trkpt>
      <trkpt lat="45.65596" lon="6.8529">
        <ele>1924.3</ele>
        <time>2021-03-26T09:18:23Z</time>
      </trkpt>
      <trkpt lat="45.65595" lon="6.85289">
        <ele>1924.8</ele>
        <time>2021-03-26T09:18:24Z</time>
      </trkpt>
      <trkpt lat="45.65595" lon="6.85288">
        <ele>1924.8</ele>
        <time>2021-03-26T09:18:25Z</time>
      </trkpt>
      <trkpt lat="45.65595" lon="6.85287">
        <ele>1924.8</ele>
        <time>2021-03-26T09:18:26Z</time>
      </trkpt>
      <trkpt lat="45.65595" lon="6.85287">
        <ele>1924.8</ele>
        <time>2021-03-26T09:18:27Z</time>
      </trkpt>
      <trkpt lat="45.65595" lon="6.85286">
        <ele>1924.7</ele>
        <time>2021-03-26T09:18:28Z</time>
      </trkpt>
      <trkpt lat="45.65596" lon="6.85285">
        <ele>1925.2</ele>
        <time>2021-03-26T09:18:29Z</time>
      </trkpt>
      <trkpt lat="45.65596" lon="6.85284">
        <ele>1926.3</ele>
        <time>2021-03-26T09:18:30Z</time>
      </trkpt>
      <trkpt lat="45.65596" lon="6.85282">
        <ele>1926.3</ele>
        <time>2021-03-26T09:18:31Z</time>
      </trkpt>
      <trkpt lat="45.65596" lon="6.85282">
        <ele>1926.3</ele>
        <time>2021-03-26T09:18:32Z</time>
      </trkpt>
      <trkpt lat="45.65597" lon="6.8528">
        <ele>1926.7</ele>
        <time>2021-03-26T09:18:33Z</time>
      </trkpt>
      <trkpt lat="45.65597" lon="6.85279">
        <ele>1926.7</ele>
        <time>2021-03-26T09:18:34Z</time>
      </trkpt>
      <trkpt lat="45.65597" lon="6.85278">
        <ele>1926.6</ele>
        <time>2021-03-26T09:18:35Z</time>
      </trkpt>
      <trkpt lat="45.65597" lon="6.85277">
        <ele>1926.6</ele>
        <time>2021-03-26T09:18:36Z</time>
      </trkpt>
      <trkpt lat="45.65597" lon="6.85276">
        <ele>1927</ele>
        <time>2021-03-26T09:18:37Z</time>
      </trkpt>
      <trkpt lat="45.65597" lon="6.85275">
        <ele>1927</ele>
        <time>2021-03-26T09:18:38Z</time>
      </trkpt>
      <trkpt lat="45.65597" lon="6.85274">
        <ele>1927</ele>
        <time>2021-03-26T09:18:39Z</time>
      </trkpt>
      <trkpt lat="45.65597" lon="6.85273">
        <ele>1927</ele>
        <time>2021-03-26T09:18:40Z</time>
      </trkpt>
      <trkpt lat="45.65597" lon="6.85272">
        <ele>1927.3</ele>
        <time>2021-03-26T09:18:41Z</time>
      </trkpt>
      <trkpt lat="45.65597" lon="6.85271">
        <ele>1927.3</ele>
        <time>2021-03-26T09:18:42Z</time>
      </trkpt>
      <trkpt lat="45.65597" lon="6.8527">
        <ele>1927.3</ele>
        <time>2021-03-26T09:18:43Z</time>
      </trkpt>
      <trkpt lat="45.65598" lon="6.85269">
        <ele>1927.3</ele>
        <time>2021-03-26T09:18:44Z</time>
      </trkpt>
      <trkpt lat="45.65598" lon="6.85268">
        <ele>1927.7</ele>
        <time>2021-03-26T09:18:45Z</time>
      </trkpt>
      <trkpt lat="45.65598" lon="6.85267">
        <ele>1927.6</ele>
        <time>2021-03-26T09:18:46Z</time>
      </trkpt>
      <trkpt lat="45.65598" lon="6.85266">
        <ele>1927.6</ele>
        <time>2021-03-26T09:18:47Z</time>
      </trkpt>
      <trkpt lat="45.65598" lon="6.85265">
        <ele>1927.6</ele>
        <time>2021-03-26T09:18:48Z</time>
      </trkpt>
      <trkpt lat="45.65598" lon="6.85264">
        <ele>1927.9</ele>
        <time>2021-03-26T09:18:49Z</time>
      </trkpt>
      <trkpt lat="45.65599" lon="6.85263">
        <ele>1927.9</ele>
        <time>2021-03-26T09:18:50Z</time>
      </trkpt>
      <trkpt lat="45.65599" lon="6.85262">
        <ele>1929</ele>
        <time>2021-03-26T09:18:51Z</time>
      </trkpt>
      <trkpt lat="45.65599" lon="6.85261">
        <ele>1929</ele>
        <time>2021-03-26T09:18:52Z</time>
      </trkpt>
      <trkpt lat="45.656" lon="6.8526">
        <ele>1929</ele>
        <time>2021-03-26T09:18:53Z</time>
      </trkpt>
      <trkpt lat="45.656" lon="6.85259">
        <ele>1929.3</ele>
        <time>2021-03-26T09:18:54Z</time>
      </trkpt>
      <trkpt lat="45.65601" lon="6.85258">
        <ele>1929.2</ele>
        <time>2021-03-26T09:18:55Z</time>
      </trkpt>
      <trkpt lat="45.65601" lon="6.85258">
        <ele>1929.2</ele>
        <time>2021-03-26T09:18:56Z</time>
      </trkpt>
      <trkpt lat="45.65602" lon="6.85257">
        <ele>1930.3</ele>
        <time>2021-03-26T09:18:57Z</time>
      </trkpt>
      <trkpt lat="45.65602" lon="6.85256">
        <ele>1930.3</ele>
        <time>2021-03-26T09:18:58Z</time>
      </trkpt>
      <trkpt lat="45.65603" lon="6.85255">
        <ele>1930.6</ele>
        <time>2021-03-26T09:18:59Z</time>
      </trkpt>
      <trkpt lat="45.65603" lon="6.85254">
        <ele>1930.5</ele>
        <time>2021-03-26T09:19:00Z</time>
      </trkpt>
      <trkpt lat="45.65604" lon="6.85253">
        <ele>1930.5</ele>
        <time>2021-03-26T09:19:01Z</time>
      </trkpt>
      <trkpt lat="45.65604" lon="6.85253">
        <ele>1930.5</ele>
        <time>2021-03-26T09:19:02Z</time>
      </trkpt>
      <trkpt lat="45.65605" lon="6.85252">
        <ele>1930.5</ele>
        <time>2021-03-26T09:19:03Z</time>
      </trkpt>
      <trkpt lat="45.65605" lon="6.85251">
        <ele>1931.6</ele>
        <time>2021-03-26T09:19:04Z</time>
      </trkpt>
      <trkpt lat="45.65606" lon="6.85251">
        <ele>1931.8</ele>
        <time>2021-03-26T09:19:05Z</time>
      </trkpt>
      <trkpt lat="45.65606" lon="6.8525">
        <ele>1931.8</ele>
        <time>2021-03-26T09:19:06Z</time>
      </trkpt>
      <trkpt lat="45.65607" lon="6.8525">
        <ele>1931.8</ele>
        <time>2021-03-26T09:19:07Z</time>
      </trkpt>
      <trkpt lat="45.65608" lon="6.85249">
        <ele>1932.8</ele>
        <time>2021-03-26T09:19:08Z</time>
      </trkpt>
      <trkpt lat="45.65609" lon="6.85249">
        <ele>1932.8</ele>
        <time>2021-03-26T09:19:09Z</time>
      </trkpt>
      <trkpt lat="45.6561" lon="6.85248">
        <ele>1932.8</ele>
        <time>2021-03-26T09:19:10Z</time>
      </trkpt>
      <trkpt lat="45.65611" lon="6.85248">
        <ele>1933.9</ele>
        <time>2021-03-26T09:19:11Z</time>
      </trkpt>
      <trkpt lat="45.65612" lon="6.85247">
        <ele>1933.8</ele>
        <time>2021-03-26T09:19:12Z</time>
      </trkpt>
      <trkpt lat="45.65613" lon="6.85247">
        <ele>1933.8</ele>
        <time>2021-03-26T09:19:13Z</time>
      </trkpt>
      <trkpt lat="45.65613" lon="6.85247">
        <ele>1933.8</ele>
        <time>2021-03-26T09:19:14Z</time>
      </trkpt>
      <trkpt lat="45.65614" lon="6.85247">
        <ele>1934.8</ele>
        <time>2021-03-26T09:19:15Z</time>
      </trkpt>
      <trkpt lat="45.65615" lon="6.85247">
        <ele>1934.8</ele>
        <time>2021-03-26T09:19:16Z</time>
      </trkpt>
      <trkpt lat="45.65616" lon="6.85247">
        <ele>1934.8</ele>
        <time>2021-03-26T09:19:17Z</time>
      </trkpt>
      <trkpt lat="45.65617" lon="6.85247">
        <ele>1934.8</ele>
        <time>2021-03-26T09:19:18Z</time>
      </trkpt>
      <trkpt lat="45.65618" lon="6.85247">
        <ele>1935.8</ele>
        <time>2021-03-26T09:19:19Z</time>
      </trkpt>
      <trkpt lat="45.65618" lon="6.85247">
        <ele>1935.8</ele>
        <time>2021-03-26T09:19:20Z</time>
      </trkpt>
      <trkpt lat="45.65619" lon="6.85248">
        <ele>1935.8</ele>
        <time>2021-03-26T09:19:21Z</time>
      </trkpt>
      <trkpt lat="45.6562" lon="6.85248">
        <ele>1936.7</ele>
        <time>2021-03-26T09:19:22Z</time>
      </trkpt>
      <trkpt lat="45.65621" lon="6.85249">
        <ele>1936.7</ele>
        <time>2021-03-26T09:19:23Z</time>
      </trkpt>
      <trkpt lat="45.65621" lon="6.85249">
        <ele>1936.7</ele>
        <time>2021-03-26T09:19:24Z</time>
      </trkpt>
      <trkpt lat="45.65622" lon="6.85249">
        <ele>1936.7</ele>
        <time>2021-03-26T09:19:25Z</time>
      </trkpt>
      <trkpt lat="45.65623" lon="6.85249">
        <ele>1937.6</ele>
        <time>2021-03-26T09:19:26Z</time>
      </trkpt>
      <trkpt lat="45.65624" lon="6.85249">
        <ele>1937.5</ele>
        <time>2021-03-26T09:19:27Z</time>
      </trkpt>
      <trkpt lat="45.65625" lon="6.85249">
        <ele>1937.5</ele>
        <time>2021-03-26T09:19:28Z</time>
      </trkpt>
      <trkpt lat="45.65625" lon="6.85249">
        <ele>1937.5</ele>
        <time>2021-03-26T09:19:29Z</time>
      </trkpt>
      <trkpt lat="45.65626" lon="6.85249">
        <ele>1938.4</ele>
        <time>2021-03-26T09:19:30Z</time>
      </trkpt>
      <trkpt lat="45.65627" lon="6.85249">
        <ele>1938.4</ele>
        <time>2021-03-26T09:19:31Z</time>
      </trkpt>
      <trkpt lat="45.65628" lon="6.85249">
        <ele>1938.3</ele>
        <time>2021-03-26T09:19:32Z</time>
      </trkpt>
      <trkpt lat="45.65629" lon="6.85249">
        <ele>1939.2</ele>
        <time>2021-03-26T09:19:33Z</time>
      </trkpt>
      <trkpt lat="45.6563" lon="6.85249">
        <ele>1939.1</ele>
        <time>2021-03-26T09:19:34Z</time>
      </trkpt>
      <trkpt lat="45.6563" lon="6.85249">
        <ele>1939.1</ele>
        <time>2021-03-26T09:19:35Z</time>
      </trkpt>
      <trkpt lat="45.65631" lon="6.85249">
        <ele>1939.1</ele>
        <time>2021-03-26T09:19:36Z</time>
      </trkpt>
      <trkpt lat="45.65632" lon="6.85249">
        <ele>1940</ele>
        <time>2021-03-26T09:19:37Z</time>
      </trkpt>
      <trkpt lat="45.65632" lon="6.8525">
        <ele>1940</ele>
        <time>2021-03-26T09:19:38Z</time>
      </trkpt>
      <trkpt lat="45.65633" lon="6.8525">
        <ele>1939.9</ele>
        <time>2021-03-26T09:19:39Z</time>
      </trkpt>
      <trkpt lat="45.65634" lon="6.8525">
        <ele>1939.9</ele>
        <time>2021-03-26T09:19:40Z</time>
      </trkpt>
      <trkpt lat="45.65634" lon="6.8525">
        <ele>1939.9</ele>
        <time>2021-03-26T09:19:41Z</time>
      </trkpt>
      <trkpt lat="45.65635" lon="6.8525">
        <ele>1939.9</ele>
        <time>2021-03-26T09:19:42Z</time>
      </trkpt>
      <trkpt lat="45.65635" lon="6.8525">
        <ele>1940.8</ele>
        <time>2021-03-26T09:19:43Z</time>
      </trkpt>
      <trkpt lat="45.65636" lon="6.8525">
        <ele>1940.8</ele>
        <time>2021-03-26T09:19:44Z</time>
      </trkpt>
      <trkpt lat="45.65637" lon="6.8525">
        <ele>1940.8</ele>
        <time>2021-03-26T09:19:45Z</time>
      </trkpt>
      <trkpt lat="45.65638" lon="6.85251">
        <ele>1940.8</ele>
        <time>2021-03-26T09:19:46Z</time>
      </trkpt>
      <trkpt lat="45.65638" lon="6.85251">
        <ele>1941.5</ele>
        <time>2021-03-26T09:19:47Z</time>
      </trkpt>
      <trkpt lat="45.65639" lon="6.85251">
        <ele>1941.5</ele>
        <time>2021-03-26T09:19:48Z</time>
      </trkpt>
      <trkpt lat="45.6564" lon="6.85251">
        <ele>1941.5</ele>
        <time>2021-03-26T09:19:49Z</time>
      </trkpt>
      <trkpt lat="45.65641" lon="6.85252">
        <ele>1942.4</ele>
        <time>2021-03-26T09:19:50Z</time>
      </trkpt>
      <trkpt lat="45.65642" lon="6.85252">
        <ele>1942.4</ele>
        <time>2021-03-26T09:19:51Z</time>
      </trkpt>
      <trkpt lat="45.65642" lon="6.85252">
        <ele>1942.4</ele>
        <time>2021-03-26T09:19:52Z</time>
      </trkpt>
      <trkpt lat="45.65643" lon="6.85252">
        <ele>1942.4</ele>
        <time>2021-03-26T09:19:53Z</time>
      </trkpt>
      <trkpt lat="45.65644" lon="6.85252">
        <ele>1943.3</ele>
        <time>2021-03-26T09:19:54Z</time>
      </trkpt>
      <trkpt lat="45.65645" lon="6.85252">
        <ele>1943.3</ele>
        <time>2021-03-26T09:19:55Z</time>
      </trkpt>
      <trkpt lat="45.65646" lon="6.85253">
        <ele>1943.3</ele>
        <time>2021-03-26T09:19:56Z</time>
      </trkpt>
      <trkpt lat="45.65646" lon="6.85253">
        <ele>1943.3</ele>
        <time>2021-03-26T09:19:57Z</time>
      </trkpt>
      <trkpt lat="45.65647" lon="6.85253">
        <ele>1944</ele>
        <time>2021-03-26T09:19:58Z</time>
      </trkpt>
      <trkpt lat="45.65648" lon="6.85253">
        <ele>1944</ele>
        <time>2021-03-26T09:19:59Z</time>
      </trkpt>
      <trkpt lat="45.65648" lon="6.85253">
        <ele>1944</ele>
        <time>2021-03-26T09:20:00Z</time>
      </trkpt>
      <trkpt lat="45.65649" lon="6.85253">
        <ele>1944</ele>
        <time>2021-03-26T09:20:01Z</time>
      </trkpt>
      <trkpt lat="45.6565" lon="6.85253">
        <ele>1944</ele>
        <time>2021-03-26T09:20:02Z</time>
      </trkpt>
      <trkpt lat="45.6565" lon="6.85253">
        <ele>1944.7</ele>
        <time>2021-03-26T09:20:03Z</time>
      </trkpt>
      <trkpt lat="45.65651" lon="6.85254">
        <ele>1944.7</ele>
        <time>2021-03-26T09:20:04Z</time>
      </trkpt>
      <trkpt lat="45.65652" lon="6.85254">
        <ele>1944.7</ele>
        <time>2021-03-26T09:20:05Z</time>
      </trkpt>
      <trkpt lat="45.65652" lon="6.85254">
        <ele>1944.6</ele>
        <time>2021-03-26T09:20:06Z</time>
      </trkpt>
      <trkpt lat="45.65653" lon="6.85254">
        <ele>1945.3</ele>
        <time>2021-03-26T09:20:07Z</time>
      </trkpt>
      <trkpt lat="45.65653" lon="6.85254">
        <ele>1945.3</ele>
        <time>2021-03-26T09:20:08Z</time>
      </trkpt>
      <trkpt lat="45.65654" lon="6.85254">
        <ele>1945.3</ele>
        <time>2021-03-26T09:20:09Z</time>
      </trkpt>
      <trkpt lat="45.65655" lon="6.85253">
        <ele>1945.3</ele>
        <time>2021-03-26T09:20:10Z</time>
      </trkpt>
      <trkpt lat="45.65655" lon="6.85253">
        <ele>1945.2</ele>
        <time>2021-03-26T09:20:11Z</time>
      </trkpt>
      <trkpt lat="45.65656" lon="6.85252">
        <ele>1945.2</ele>
        <time>2021-03-26T09:20:12Z</time>
      </trkpt>
      <trkpt lat="45.65656" lon="6.85251">
        <ele>1945.9</ele>
        <time>2021-03-26T09:20:13Z</time>
      </trkpt>
      <trkpt lat="45.65657" lon="6.8525">
        <ele>1945.9</ele>
        <time>2021-03-26T09:20:14Z</time>
      </trkpt>
      <trkpt lat="45.65658" lon="6.8525">
        <ele>1945.9</ele>
        <time>2021-03-26T09:20:15Z</time>
      </trkpt>
      <trkpt lat="45.65658" lon="6.85249">
        <ele>1945.9</ele>
        <time>2021-03-26T09:20:16Z</time>
      </trkpt>
      <trkpt lat="45.65659" lon="6.85249">
        <ele>1946.6</ele>
        <time>2021-03-26T09:20:17Z</time>
      </trkpt>
      <trkpt lat="45.6566" lon="6.85249">
        <ele>1946.6</ele>
        <time>2021-03-26T09:20:18Z</time>
      </trkpt>
      <trkpt lat="45.65661" lon="6.85249">
        <ele>1946.5</ele>
        <time>2021-03-26T09:20:19Z</time>
      </trkpt>
      <trkpt lat="45.65662" lon="6.85249">
        <ele>1946.5</ele>
        <time>2021-03-26T09:20:20Z</time>
      </trkpt>
      <trkpt lat="45.65662" lon="6.85249">
        <ele>1947.3</ele>
        <time>2021-03-26T09:20:21Z</time>
      </trkpt>
      <trkpt lat="45.65663" lon="6.8525">
        <ele>1947.3</ele>
        <time>2021-03-26T09:20:22Z</time>
      </trkpt>
      <trkpt lat="45.65664" lon="6.85251">
        <ele>1947.2</ele>
        <time>2021-03-26T09:20:23Z</time>
      </trkpt>
      <trkpt lat="45.65665" lon="6.85251">
        <ele>1947.2</ele>
        <time>2021-03-26T09:20:24Z</time>
      </trkpt>
      <trkpt lat="45.65665" lon="6.85251">
        <ele>1947.9</ele>
        <time>2021-03-26T09:20:25Z</time>
      </trkpt>
      <trkpt lat="45.65666" lon="6.85252">
        <ele>1947.9</ele>
        <time>2021-03-26T09:20:26Z</time>
      </trkpt>
      <trkpt lat="45.65667" lon="6.85252">
        <ele>1947.9</ele>
        <time>2021-03-26T09:20:27Z</time>
      </trkpt>
      <trkpt lat="45.65668" lon="6.85252">
        <ele>1948.7</ele>
        <time>2021-03-26T09:20:28Z</time>
      </trkpt>
      <trkpt lat="45.65669" lon="6.85251">
        <ele>1948.6</ele>
        <time>2021-03-26T09:20:29Z</time>
      </trkpt>
      <trkpt lat="45.6567" lon="6.85251">
        <ele>1948.6</ele>
        <time>2021-03-26T09:20:30Z</time>
      </trkpt>
      <trkpt lat="45.6567" lon="6.85251">
        <ele>1948.6</ele>
        <time>2021-03-26T09:20:31Z</time>
      </trkpt>
      <trkpt lat="45.65671" lon="6.85251">
        <ele>1949.3</ele>
        <time>2021-03-26T09:20:32Z</time>
      </trkpt>
      <trkpt lat="45.65672" lon="6.85251">
        <ele>1949.3</ele>
        <time>2021-03-26T09:20:33Z</time>
      </trkpt>
      <trkpt lat="45.65673" lon="6.85251">
        <ele>1949.3</ele>
        <time>2021-03-26T09:20:34Z</time>
      </trkpt>
      <trkpt lat="45.65674" lon="6.85251">
        <ele>1949.3</ele>
        <time>2021-03-26T09:20:35Z</time>
      </trkpt>
      <trkpt lat="45.65674" lon="6.85251">
        <ele>1949.9</ele>
        <time>2021-03-26T09:20:36Z</time>
      </trkpt>
      <trkpt lat="45.65675" lon="6.85252">
        <ele>1949.9</ele>
        <time>2021-03-26T09:20:37Z</time>
      </trkpt>
      <trkpt lat="45.65675" lon="6.85252">
        <ele>1949.9</ele>
        <time>2021-03-26T09:20:38Z</time>
      </trkpt>
      <trkpt lat="45.65675" lon="6.85252">
        <ele>1949.9</ele>
        <time>2021-03-26T09:20:39Z</time>
      </trkpt>
      <trkpt lat="45.65675" lon="6.85252">
        <ele>1949.8</ele>
        <time>2021-03-26T09:20:40Z</time>
      </trkpt>
      <trkpt lat="45.65675" lon="6.85252">
        <ele>1949.8</ele>
        <time>2021-03-26T09:20:41Z</time>
      </trkpt>
      <trkpt lat="45.65675" lon="6.85252">
        <ele>1949.8</ele>
        <time>2021-03-26T09:20:42Z</time>
      </trkpt>
      <trkpt lat="45.65675" lon="6.85252">
        <ele>1949.8</ele>
        <time>2021-03-26T09:20:43Z</time>
      </trkpt>
      <trkpt lat="45.65675" lon="6.85252">
        <ele>1949.8</ele>
        <time>2021-03-26T09:20:44Z</time>
      </trkpt>
      <trkpt lat="45.65675" lon="6.85252">
        <ele>1949.8</ele>
        <time>2021-03-26T09:20:45Z</time>
      </trkpt>
      <trkpt lat="45.65675" lon="6.85252">
        <ele>1949.8</ele>
        <time>2021-03-26T09:20:46Z</time>
      </trkpt>
      <trkpt lat="45.65675" lon="6.85252">
        <ele>1949.8</ele>
        <time>2021-03-26T09:20:47Z</time>
      </trkpt>
      <trkpt lat="45.6568" lon="6.85258">
        <ele>1950.9</ele>
        <time>2021-03-26T09:21:14Z</time>
      </trkpt>
      <trkpt lat="45.65681" lon="6.85259">
        <ele>1950.9</ele>
        <time>2021-03-26T09:21:15Z</time>
      </trkpt>
      <trkpt lat="45.65683" lon="6.8526">
        <ele>1951.5</ele>
        <time>2021-03-26T09:21:16Z</time>
      </trkpt>
      <trkpt lat="45.65684" lon="6.85261">
        <ele>1951.4</ele>
        <time>2021-03-26T09:21:17Z</time>
      </trkpt>
      <trkpt lat="45.65685" lon="6.85261">
        <ele>1951.4</ele>
        <time>2021-03-26T09:21:18Z</time>
      </trkpt>
      <trkpt lat="45.65687" lon="6.85263">
        <ele>1952.1</ele>
        <time>2021-03-26T09:21:19Z</time>
      </trkpt>
      <trkpt lat="45.65688" lon="6.85263">
        <ele>1952.1</ele>
        <time>2021-03-26T09:21:20Z</time>
      </trkpt>
      <trkpt lat="45.65689" lon="6.85264">
        <ele>1952</ele>
        <time>2021-03-26T09:21:21Z</time>
      </trkpt>
      <trkpt lat="45.6569" lon="6.85265">
        <ele>1952.7</ele>
        <time>2021-03-26T09:21:22Z</time>
      </trkpt>
      <trkpt lat="45.65691" lon="6.85266">
        <ele>1952.7</ele>
        <time>2021-03-26T09:21:23Z</time>
      </trkpt>
      <trkpt lat="45.65693" lon="6.85267">
        <ele>1953.4</ele>
        <time>2021-03-26T09:21:24Z</time>
      </trkpt>
      <trkpt lat="45.65693" lon="6.85268">
        <ele>1953.4</ele>
        <time>2021-03-26T09:21:25Z</time>
      </trkpt>
      <trkpt lat="45.65694" lon="6.85269">
        <ele>1953.3</ele>
        <time>2021-03-26T09:21:26Z</time>
      </trkpt>
      <trkpt lat="45.65694" lon="6.85269">
        <ele>1953.3</ele>
        <time>2021-03-26T09:21:27Z</time>
      </trkpt>
      <trkpt lat="45.65695" lon="6.8527">
        <ele>1953.3</ele>
        <time>2021-03-26T09:21:28Z</time>
      </trkpt>
      <trkpt lat="45.65695" lon="6.8527">
        <ele>1954</ele>
        <time>2021-03-26T09:21:29Z</time>
      </trkpt>
      <trkpt lat="45.65696" lon="6.8527">
        <ele>1954</ele>
        <time>2021-03-26T09:21:30Z</time>
      </trkpt>
      <trkpt lat="45.65697" lon="6.8527">
        <ele>1954</ele>
        <time>2021-03-26T09:21:31Z</time>
      </trkpt>
      <trkpt lat="45.65698" lon="6.8527">
        <ele>1954</ele>
        <time>2021-03-26T09:21:32Z</time>
      </trkpt>
      <trkpt lat="45.65698" lon="6.8527">
        <ele>1954.7</ele>
        <time>2021-03-26T09:21:33Z</time>
      </trkpt>
      <trkpt lat="45.657" lon="6.85269">
        <ele>1954.7</ele>
        <time>2021-03-26T09:21:34Z</time>
      </trkpt>
      <trkpt lat="45.65701" lon="6.85267">
        <ele>1954.7</ele>
        <time>2021-03-26T09:21:35Z</time>
      </trkpt>
      <trkpt lat="45.65701" lon="6.85266">
        <ele>1955.4</ele>
        <time>2021-03-26T09:21:36Z</time>
      </trkpt>
      <trkpt lat="45.65702" lon="6.85266">
        <ele>1955.4</ele>
        <time>2021-03-26T09:21:37Z</time>
      </trkpt>
      <trkpt lat="45.65702" lon="6.85266">
        <ele>1955.3</ele>
        <time>2021-03-26T09:21:38Z</time>
      </trkpt>
      <trkpt lat="45.65703" lon="6.85265">
        <ele>1955.3</ele>
        <time>2021-03-26T09:21:39Z</time>
      </trkpt>
      <trkpt lat="45.65705" lon="6.85265">
        <ele>1955.9</ele>
        <time>2021-03-26T09:21:40Z</time>
      </trkpt>
      <trkpt lat="45.65706" lon="6.85265">
        <ele>1955.9</ele>
        <time>2021-03-26T09:21:41Z</time>
      </trkpt>
      <trkpt lat="45.65707" lon="6.85265">
        <ele>1956.5</ele>
        <time>2021-03-26T09:21:42Z</time>
      </trkpt>
      <trkpt lat="45.65708" lon="6.85264">
        <ele>1956.5</ele>
        <time>2021-03-26T09:21:43Z</time>
      </trkpt>
      <trkpt lat="45.65709" lon="6.85264">
        <ele>1956.5</ele>
        <time>2021-03-26T09:21:44Z</time>
      </trkpt>
      <trkpt lat="45.6571" lon="6.85264">
        <ele>1957</ele>
        <time>2021-03-26T09:21:45Z</time>
      </trkpt>
      <trkpt lat="45.65711" lon="6.85264">
        <ele>1957</ele>
        <time>2021-03-26T09:21:46Z</time>
      </trkpt>
      <trkpt lat="45.65712" lon="6.85264">
        <ele>1956.9</ele>
        <time>2021-03-26T09:21:47Z</time>
      </trkpt>
      <trkpt lat="45.65712" lon="6.85264">
        <ele>1956.9</ele>
        <time>2021-03-26T09:21:48Z</time>
      </trkpt>
      <trkpt lat="45.65713" lon="6.85263">
        <ele>1957.4</ele>
        <time>2021-03-26T09:21:49Z</time>
      </trkpt>
      <trkpt lat="45.65714" lon="6.85263">
        <ele>1957.4</ele>
        <time>2021-03-26T09:21:50Z</time>
      </trkpt>
      <trkpt lat="45.65714" lon="6.85263">
        <ele>1957.4</ele>
        <time>2021-03-26T09:21:51Z</time>
      </trkpt>
      <trkpt lat="45.65715" lon="6.85263">
        <ele>1957.3</ele>
        <time>2021-03-26T09:21:52Z</time>
      </trkpt>
      <trkpt lat="45.65716" lon="6.85263">
        <ele>1957.8</ele>
        <time>2021-03-26T09:21:53Z</time>
      </trkpt>
      <trkpt lat="45.65717" lon="6.85263">
        <ele>1957.8</ele>
        <time>2021-03-26T09:21:54Z</time>
      </trkpt>
      <trkpt lat="45.65718" lon="6.85263">
        <ele>1957.8</ele>
        <time>2021-03-26T09:21:55Z</time>
      </trkpt>
      <trkpt lat="45.65719" lon="6.85264">
        <ele>1957.8</ele>
        <time>2021-03-26T09:21:56Z</time>
      </trkpt>
      <trkpt lat="45.65719" lon="6.85265">
        <ele>1958.3</ele>
        <time>2021-03-26T09:21:57Z</time>
      </trkpt>
      <trkpt lat="45.6572" lon="6.85266">
        <ele>1958.3</ele>
        <time>2021-03-26T09:21:58Z</time>
      </trkpt>
      <trkpt lat="45.65721" lon="6.85265">
        <ele>1958.3</ele>
        <time>2021-03-26T09:21:59Z</time>
      </trkpt>
      <trkpt lat="45.65722" lon="6.85265">
        <ele>1958.3</ele>
        <time>2021-03-26T09:22:00Z</time>
      </trkpt>
      <trkpt lat="45.65722" lon="6.85264">
        <ele>1958.8</ele>
        <time>2021-03-26T09:22:01Z</time>
      </trkpt>
      <trkpt lat="45.65723" lon="6.85264">
        <ele>1958.8</ele>
        <time>2021-03-26T09:22:02Z</time>
      </trkpt>
      <trkpt lat="45.65724" lon="6.85264">
        <ele>1958.8</ele>
        <time>2021-03-26T09:22:03Z</time>
      </trkpt>
      <trkpt lat="45.65725" lon="6.85264">
        <ele>1958.7</ele>
        <time>2021-03-26T09:22:04Z</time>
      </trkpt>
      <trkpt lat="45.65725" lon="6.85265">
        <ele>1959.3</ele>
        <time>2021-03-26T09:22:05Z</time>
      </trkpt>
      <trkpt lat="45.65726" lon="6.85265">
        <ele>1959.2</ele>
        <time>2021-03-26T09:22:06Z</time>
      </trkpt>
      <trkpt lat="45.65726" lon="6.85265">
        <ele>1959.2</ele>
        <time>2021-03-26T09:22:07Z</time>
      </trkpt>
      <trkpt lat="45.65727" lon="6.85266">
        <ele>1959.2</ele>
        <time>2021-03-26T09:22:08Z</time>
      </trkpt>
      <trkpt lat="45.65727" lon="6.85266">
        <ele>1959.2</ele>
        <time>2021-03-26T09:22:09Z</time>
      </trkpt>
      <trkpt lat="45.65728" lon="6.85266">
        <ele>1959.7</ele>
        <time>2021-03-26T09:22:10Z</time>
      </trkpt>
      <trkpt lat="45.65729" lon="6.85267">
        <ele>1959.7</ele>
        <time>2021-03-26T09:22:11Z</time>
      </trkpt>
      <trkpt lat="45.65729" lon="6.85267">
        <ele>1959.7</ele>
        <time>2021-03-26T09:22:12Z</time>
      </trkpt>
      <trkpt lat="45.6573" lon="6.85268">
        <ele>1959.7</ele>
        <time>2021-03-26T09:22:13Z</time>
      </trkpt>
      <trkpt lat="45.6573" lon="6.85268">
        <ele>1959.7</ele>
        <time>2021-03-26T09:22:14Z</time>
      </trkpt>
      <trkpt lat="45.65731" lon="6.85269">
        <ele>1960.2</ele>
        <time>2021-03-26T09:22:15Z</time>
      </trkpt>
      <trkpt lat="45.65732" lon="6.85269">
        <ele>1960.2</ele>
        <time>2021-03-26T09:22:16Z</time>
      </trkpt>
      <trkpt lat="45.65732" lon="6.8527">
        <ele>1960.2</ele>
        <time>2021-03-26T09:22:17Z</time>
      </trkpt>
      <trkpt lat="45.65733" lon="6.8527">
        <ele>1960.2</ele>
        <time>2021-03-26T09:22:18Z</time>
      </trkpt>
      <trkpt lat="45.65734" lon="6.85271">
        <ele>1960.2</ele>
        <time>2021-03-26T09:22:19Z</time>
      </trkpt>
      <trkpt lat="45.65734" lon="6.85271">
        <ele>1960.6</ele>
        <time>2021-03-26T09:22:20Z</time>
      </trkpt>
      <trkpt lat="45.65735" lon="6.85272">
        <ele>1960.6</ele>
        <time>2021-03-26T09:22:21Z</time>
      </trkpt>
      <trkpt lat="45.65735" lon="6.85272">
        <ele>1960.7</ele>
        <time>2021-03-26T09:22:22Z</time>
      </trkpt>
      <trkpt lat="45.65736" lon="6.85273">
        <ele>1960.7</ele>
        <time>2021-03-26T09:22:23Z</time>
      </trkpt>
      <trkpt lat="45.65737" lon="6.85273">
        <ele>1960.7</ele>
        <time>2021-03-26T09:22:24Z</time>
      </trkpt>
      <trkpt lat="45.65737" lon="6.85274">
        <ele>1961.1</ele>
        <time>2021-03-26T09:22:25Z</time>
      </trkpt>
      <trkpt lat="45.65738" lon="6.85274">
        <ele>1961.1</ele>
        <time>2021-03-26T09:22:26Z</time>
      </trkpt>
      <trkpt lat="45.65739" lon="6.85275">
        <ele>1961.1</ele>
        <time>2021-03-26T09:22:27Z</time>
      </trkpt>
      <trkpt lat="45.65739" lon="6.85275">
        <ele>1961.1</ele>
        <time>2021-03-26T09:22:28Z</time>
      </trkpt>
      <trkpt lat="45.6574" lon="6.85276">
        <ele>1961.5</ele>
        <time>2021-03-26T09:22:29Z</time>
      </trkpt>
      <trkpt lat="45.6574" lon="6.85277">
        <ele>1961.7</ele>
        <time>2021-03-26T09:22:30Z</time>
      </trkpt>
      <trkpt lat="45.65741" lon="6.85277">
        <ele>1961.7</ele>
        <time>2021-03-26T09:22:31Z</time>
      </trkpt>
      <trkpt lat="45.65741" lon="6.85278">
        <ele>1961.7</ele>
        <time>2021-03-26T09:22:32Z</time>
      </trkpt>
      <trkpt lat="45.65741" lon="6.85278">
        <ele>1961.7</ele>
        <time>2021-03-26T09:22:33Z</time>
      </trkpt>
      <trkpt lat="45.65741" lon="6.85278">
        <ele>1961.7</ele>
        <time>2021-03-26T09:22:34Z</time>
      </trkpt>
      <trkpt lat="45.65741" lon="6.85278">
        <ele>1961.6</ele>
        <time>2021-03-26T09:22:35Z</time>
      </trkpt>
      <trkpt lat="45.65741" lon="6.85278">
        <ele>1961.6</ele>
        <time>2021-03-26T09:22:36Z</time>
      </trkpt>
      <trkpt lat="45.65741" lon="6.85278">
        <ele>1961.6</ele>
        <time>2021-03-26T09:22:37Z</time>
      </trkpt>
      <trkpt lat="45.65741" lon="6.85278">
        <ele>1961.6</ele>
        <time>2021-03-26T09:22:38Z</time>
      </trkpt>
      <trkpt lat="45.65741" lon="6.85278">
        <ele>1961.6</ele>
        <time>2021-03-26T09:22:39Z</time>
      </trkpt>
      <trkpt lat="45.65741" lon="6.85278">
        <ele>1961.6</ele>
        <time>2021-03-26T09:22:40Z</time>
      </trkpt>
      <trkpt lat="45.65741" lon="6.85278">
        <ele>1961.6</ele>
        <time>2021-03-26T09:22:41Z</time>
      </trkpt>
      <trkpt lat="45.65741" lon="6.85278">
        <ele>1961.6</ele>
        <time>2021-03-26T09:22:42Z</time>
      </trkpt>
      <trkpt lat="45.65745" lon="6.85287">
        <ele>1962.4</ele>
        <time>2021-03-26T09:24:55Z</time>
      </trkpt>
      <trkpt lat="45.65746" lon="6.85287">
        <ele>1963</ele>
        <time>2021-03-26T09:24:56Z</time>
      </trkpt>
      <trkpt lat="45.65747" lon="6.85289">
        <ele>1962.9</ele>
        <time>2021-03-26T09:24:57Z</time>
      </trkpt>
      <trkpt lat="45.65748" lon="6.85289">
        <ele>1962.9</ele>
        <time>2021-03-26T09:24:58Z</time>
      </trkpt>
      <trkpt lat="45.65748" lon="6.8529">
        <ele>1963.1</ele>
        <time>2021-03-26T09:24:59Z</time>
      </trkpt>
      <trkpt lat="45.65749" lon="6.85291">
        <ele>1963.6</ele>
        <time>2021-03-26T09:25:00Z</time>
      </trkpt>
      <trkpt lat="45.65749" lon="6.85292">
        <ele>1963.6</ele>
        <time>2021-03-26T09:25:01Z</time>
      </trkpt>
      <trkpt lat="45.6575" lon="6.85292">
        <ele>1963.6</ele>
        <time>2021-03-26T09:25:02Z</time>
      </trkpt>
      <trkpt lat="45.65751" lon="6.85293">
        <ele>1963.6</ele>
        <time>2021-03-26T09:25:03Z</time>
      </trkpt>
      <trkpt lat="45.65752" lon="6.85295">
        <ele>1963.7</ele>
        <time>2021-03-26T09:25:04Z</time>
      </trkpt>
      <trkpt lat="45.65753" lon="6.85296">
        <ele>1964.2</ele>
        <time>2021-03-26T09:25:05Z</time>
      </trkpt>
      <trkpt lat="45.65754" lon="6.85297">
        <ele>1964.2</ele>
        <time>2021-03-26T09:25:06Z</time>
      </trkpt>
      <trkpt lat="45.65754" lon="6.85298">
        <ele>1964.2</ele>
        <time>2021-03-26T09:25:07Z</time>
      </trkpt>
      <trkpt lat="45.65755" lon="6.85298">
        <ele>1964.8</ele>
        <time>2021-03-26T09:25:08Z</time>
      </trkpt>
      <trkpt lat="45.65755" lon="6.85299">
        <ele>1964.8</ele>
        <time>2021-03-26T09:25:09Z</time>
      </trkpt>
      <trkpt lat="45.65756" lon="6.853">
        <ele>1964.8</ele>
        <time>2021-03-26T09:25:10Z</time>
      </trkpt>
      <trkpt lat="45.65757" lon="6.853">
        <ele>1964.7</ele>
        <time>2021-03-26T09:25:11Z</time>
      </trkpt>
      <trkpt lat="45.65758" lon="6.85301">
        <ele>1965.1</ele>
        <time>2021-03-26T09:25:12Z</time>
      </trkpt>
      <trkpt lat="45.65759" lon="6.85302">
        <ele>1965.1</ele>
        <time>2021-03-26T09:25:13Z</time>
      </trkpt>
      <trkpt lat="45.65759" lon="6.85302">
        <ele>1965.1</ele>
        <time>2021-03-26T09:25:14Z</time>
      </trkpt>
      <trkpt lat="45.65759" lon="6.85302">
        <ele>1965.1</ele>
        <time>2021-03-26T09:25:15Z</time>
      </trkpt>
      <trkpt lat="45.65759" lon="6.85302">
        <ele>1965.1</ele>
        <time>2021-03-26T09:25:16Z</time>
      </trkpt>
      <trkpt lat="45.65759" lon="6.85302">
        <ele>1965.1</ele>
        <time>2021-03-26T09:25:17Z</time>
      </trkpt>
      <trkpt lat="45.65759" lon="6.85302">
        <ele>1965.1</ele>
        <time>2021-03-26T09:25:18Z</time>
      </trkpt>
      <trkpt lat="45.65759" lon="6.85302">
        <ele>1965</ele>
        <time>2021-03-26T09:25:19Z</time>
      </trkpt>
      <trkpt lat="45.65759" lon="6.85302">
        <ele>1965</ele>
        <time>2021-03-26T09:25:20Z</time>
      </trkpt>
      <trkpt lat="45.65757" lon="6.85305">
        <ele>1964.7</ele>
        <time>2021-03-26T09:25:21Z</time>
      </trkpt>
      <trkpt lat="45.65757" lon="6.85305">
        <ele>1964.7</ele>
        <time>2021-03-26T09:25:22Z</time>
      </trkpt>
      <trkpt lat="45.65757" lon="6.85305">
        <ele>1964.7</ele>
        <time>2021-03-26T09:25:23Z</time>
      </trkpt>
      <trkpt lat="45.65761" lon="6.85307">
        <ele>1965.2</ele>
        <time>2021-03-26T09:25:27Z</time>
      </trkpt>
      <trkpt lat="45.65762" lon="6.85308">
        <ele>1965.5</ele>
        <time>2021-03-26T09:25:28Z</time>
      </trkpt>
      <trkpt lat="45.65763" lon="6.85309">
        <ele>1965.5</ele>
        <time>2021-03-26T09:25:29Z</time>
      </trkpt>
      <trkpt lat="45.65764" lon="6.85309">
        <ele>1965.8</ele>
        <time>2021-03-26T09:25:30Z</time>
      </trkpt>
      <trkpt lat="45.65765" lon="6.8531">
        <ele>1965.8</ele>
        <time>2021-03-26T09:25:31Z</time>
      </trkpt>
      <trkpt lat="45.65766" lon="6.8531">
        <ele>1965.8</ele>
        <time>2021-03-26T09:25:32Z</time>
      </trkpt>
      <trkpt lat="45.65767" lon="6.85311">
        <ele>1966.2</ele>
        <time>2021-03-26T09:25:33Z</time>
      </trkpt>
      <trkpt lat="45.65768" lon="6.85312">
        <ele>1966.2</ele>
        <time>2021-03-26T09:25:34Z</time>
      </trkpt>
      <trkpt lat="45.65769" lon="6.85312">
        <ele>1966.2</ele>
        <time>2021-03-26T09:25:35Z</time>
      </trkpt>
      <trkpt lat="45.6577" lon="6.85313">
        <ele>1966.2</ele>
        <time>2021-03-26T09:25:36Z</time>
      </trkpt>
      <trkpt lat="45.65771" lon="6.85314">
        <ele>1966.5</ele>
        <time>2021-03-26T09:25:37Z</time>
      </trkpt>
      <trkpt lat="45.65771" lon="6.85315">
        <ele>1966.5</ele>
        <time>2021-03-26T09:25:38Z</time>
      </trkpt>
      <trkpt lat="45.65772" lon="6.85316">
        <ele>1966.6</ele>
        <time>2021-03-26T09:25:39Z</time>
      </trkpt>
      <trkpt lat="45.65773" lon="6.85317">
        <ele>1967</ele>
        <time>2021-03-26T09:25:40Z</time>
      </trkpt>
      <trkpt lat="45.65774" lon="6.85318">
        <ele>1967</ele>
        <time>2021-03-26T09:25:41Z</time>
      </trkpt>
      <trkpt lat="45.65775" lon="6.85318">
        <ele>1967</ele>
        <time>2021-03-26T09:25:42Z</time>
      </trkpt>
      <trkpt lat="45.65776" lon="6.8532">
        <ele>1967.1</ele>
        <time>2021-03-26T09:25:43Z</time>
      </trkpt>
      <trkpt lat="45.65776" lon="6.85321">
        <ele>1967.5</ele>
        <time>2021-03-26T09:25:44Z</time>
      </trkpt>
      <trkpt lat="45.65777" lon="6.85321">
        <ele>1967.5</ele>
        <time>2021-03-26T09:25:45Z</time>
      </trkpt>
      <trkpt lat="45.65778" lon="6.85322">
        <ele>1967.4</ele>
        <time>2021-03-26T09:25:46Z</time>
      </trkpt>
      <trkpt lat="45.65779" lon="6.85323">
        <ele>1967.4</ele>
        <time>2021-03-26T09:25:47Z</time>
      </trkpt>
      <trkpt lat="45.65779" lon="6.85324">
        <ele>1968</ele>
        <time>2021-03-26T09:25:48Z</time>
      </trkpt>
      <trkpt lat="45.6578" lon="6.85325">
        <ele>1967.9</ele>
        <time>2021-03-26T09:25:49Z</time>
      </trkpt>
      <trkpt lat="45.65781" lon="6.85326">
        <ele>1967.9</ele>
        <time>2021-03-26T09:25:50Z</time>
      </trkpt>
      <trkpt lat="45.65782" lon="6.85326">
        <ele>1967.9</ele>
        <time>2021-03-26T09:25:51Z</time>
      </trkpt>
      <trkpt lat="45.65782" lon="6.85327">
        <ele>1968.3</ele>
        <time>2021-03-26T09:25:52Z</time>
      </trkpt>
      <trkpt lat="45.65783" lon="6.85328">
        <ele>1968.3</ele>
        <time>2021-03-26T09:25:53Z</time>
      </trkpt>
      <trkpt lat="45.65784" lon="6.85328">
        <ele>1968.4</ele>
        <time>2021-03-26T09:25:54Z</time>
      </trkpt>
      <trkpt lat="45.65785" lon="6.85329">
        <ele>1968.8</ele>
        <time>2021-03-26T09:25:55Z</time>
      </trkpt>
      <trkpt lat="45.65786" lon="6.85329">
        <ele>1968.7</ele>
        <time>2021-03-26T09:25:56Z</time>
      </trkpt>
      <trkpt lat="45.65787" lon="6.85329">
        <ele>1968.7</ele>
        <time>2021-03-26T09:25:57Z</time>
      </trkpt>
      <trkpt lat="45.65788" lon="6.85329">
        <ele>1969</ele>
        <time>2021-03-26T09:25:58Z</time>
      </trkpt>
      <trkpt lat="45.65789" lon="6.85328">
        <ele>1969</ele>
        <time>2021-03-26T09:25:59Z</time>
      </trkpt>
      <trkpt lat="45.6579" lon="6.85329">
        <ele>1969</ele>
        <time>2021-03-26T09:26:00Z</time>
      </trkpt>
      <trkpt lat="45.65791" lon="6.85329">
        <ele>1969.3</ele>
        <time>2021-03-26T09:26:01Z</time>
      </trkpt>
      <trkpt lat="45.65792" lon="6.85328">
        <ele>1969.3</ele>
        <time>2021-03-26T09:26:02Z</time>
      </trkpt>
      <trkpt lat="45.65793" lon="6.85328">
        <ele>1969.3</ele>
        <time>2021-03-26T09:26:03Z</time>
      </trkpt>
      <trkpt lat="45.65794" lon="6.85328">
        <ele>1969.1</ele>
        <time>2021-03-26T09:26:04Z</time>
      </trkpt>
      <trkpt lat="45.65795" lon="6.85328">
        <ele>1969.4</ele>
        <time>2021-03-26T09:26:05Z</time>
      </trkpt>
      <trkpt lat="45.65795" lon="6.85327">
        <ele>1969.3</ele>
        <time>2021-03-26T09:26:06Z</time>
      </trkpt>
      <trkpt lat="45.65796" lon="6.85327">
        <ele>1969.3</ele>
        <time>2021-03-26T09:26:07Z</time>
      </trkpt>
      <trkpt lat="45.65797" lon="6.85327">
        <ele>1969.6</ele>
        <time>2021-03-26T09:26:08Z</time>
      </trkpt>
      <trkpt lat="45.65797" lon="6.85327">
        <ele>1969.6</ele>
        <time>2021-03-26T09:26:09Z</time>
      </trkpt>
      <trkpt lat="45.65798" lon="6.85327">
        <ele>1969.6</ele>
        <time>2021-03-26T09:26:10Z</time>
      </trkpt>
      <trkpt lat="45.65799" lon="6.85327">
        <ele>1969.6</ele>
        <time>2021-03-26T09:26:11Z</time>
      </trkpt>
      <trkpt lat="45.658" lon="6.85326">
        <ele>1969.6</ele>
        <time>2021-03-26T09:26:12Z</time>
      </trkpt>
      <trkpt lat="45.658" lon="6.85326">
        <ele>1969.8</ele>
        <time>2021-03-26T09:26:13Z</time>
      </trkpt>
      <trkpt lat="45.65801" lon="6.85326">
        <ele>1969.8</ele>
        <time>2021-03-26T09:26:14Z</time>
      </trkpt>
      <trkpt lat="45.65802" lon="6.85326">
        <ele>1969.8</ele>
        <time>2021-03-26T09:26:15Z</time>
      </trkpt>
      <trkpt lat="45.65803" lon="6.85326">
        <ele>1969.8</ele>
        <time>2021-03-26T09:26:16Z</time>
      </trkpt>
      <trkpt lat="45.65804" lon="6.85325">
        <ele>1970.1</ele>
        <time>2021-03-26T09:26:17Z</time>
      </trkpt>
      <trkpt lat="45.65804" lon="6.85325">
        <ele>1970.1</ele>
        <time>2021-03-26T09:26:18Z</time>
      </trkpt>
      <trkpt lat="45.65805" lon="6.85324">
        <ele>1970.1</ele>
        <time>2021-03-26T09:26:19Z</time>
      </trkpt>
      <trkpt lat="45.65806" lon="6.85323">
        <ele>1970.1</ele>
        <time>2021-03-26T09:26:20Z</time>
      </trkpt>
      <trkpt lat="45.65807" lon="6.85322">
        <ele>1970.1</ele>
        <time>2021-03-26T09:26:21Z</time>
      </trkpt>
      <trkpt lat="45.65808" lon="6.85321">
        <ele>1970.1</ele>
        <time>2021-03-26T09:26:22Z</time>
      </trkpt>
      <trkpt lat="45.65809" lon="6.85321">
        <ele>1970.1</ele>
        <time>2021-03-26T09:26:23Z</time>
      </trkpt>
      <trkpt lat="45.65809" lon="6.85321">
        <ele>1970.4</ele>
        <time>2021-03-26T09:26:24Z</time>
      </trkpt>
      <trkpt lat="45.6581" lon="6.85321">
        <ele>1970.4</ele>
        <time>2021-03-26T09:26:25Z</time>
      </trkpt>
      <trkpt lat="45.65811" lon="6.8532">
        <ele>1970.4</ele>
        <time>2021-03-26T09:26:26Z</time>
      </trkpt>
      <trkpt lat="45.65812" lon="6.8532">
        <ele>1970.6</ele>
        <time>2021-03-26T09:26:27Z</time>
      </trkpt>
      <trkpt lat="45.65813" lon="6.85319">
        <ele>1970.4</ele>
        <time>2021-03-26T09:26:28Z</time>
      </trkpt>
      <trkpt lat="45.65814" lon="6.85319">
        <ele>1970.4</ele>
        <time>2021-03-26T09:26:29Z</time>
      </trkpt>
      <trkpt lat="45.65815" lon="6.85319">
        <ele>1970.6</ele>
        <time>2021-03-26T09:26:30Z</time>
      </trkpt>
      <trkpt lat="45.65816" lon="6.85318">
        <ele>1970.6</ele>
        <time>2021-03-26T09:26:31Z</time>
      </trkpt>
      <trkpt lat="45.65817" lon="6.85319">
        <ele>1970.6</ele>
        <time>2021-03-26T09:26:32Z</time>
      </trkpt>
      <trkpt lat="45.65818" lon="6.85319">
        <ele>1970.8</ele>
        <time>2021-03-26T09:26:33Z</time>
      </trkpt>
      <trkpt lat="45.65819" lon="6.8532">
        <ele>1971.1</ele>
        <time>2021-03-26T09:26:34Z</time>
      </trkpt>
      <trkpt lat="45.6582" lon="6.85321">
        <ele>1971</ele>
        <time>2021-03-26T09:26:35Z</time>
      </trkpt>
      <trkpt lat="45.65821" lon="6.85321">
        <ele>1971</ele>
        <time>2021-03-26T09:26:36Z</time>
      </trkpt>
      <trkpt lat="45.65822" lon="6.85322">
        <ele>1971.3</ele>
        <time>2021-03-26T09:26:37Z</time>
      </trkpt>
      <trkpt lat="45.65822" lon="6.85323">
        <ele>1971.2</ele>
        <time>2021-03-26T09:26:38Z</time>
      </trkpt>
      <trkpt lat="45.65823" lon="6.85324">
        <ele>1971.4</ele>
        <time>2021-03-26T09:26:39Z</time>
      </trkpt>
      <trkpt lat="45.65824" lon="6.85325">
        <ele>1971.6</ele>
        <time>2021-03-26T09:26:40Z</time>
      </trkpt>
      <trkpt lat="45.65825" lon="6.85326">
        <ele>1971.6</ele>
        <time>2021-03-26T09:26:41Z</time>
      </trkpt>
      <trkpt lat="45.65825" lon="6.85328">
        <ele>1971.6</ele>
        <time>2021-03-26T09:26:42Z</time>
      </trkpt>
      <trkpt lat="45.65826" lon="6.85329">
        <ele>1971.8</ele>
        <time>2021-03-26T09:26:43Z</time>
      </trkpt>
      <trkpt lat="45.65826" lon="6.8533">
        <ele>1971.8</ele>
        <time>2021-03-26T09:26:44Z</time>
      </trkpt>
      <trkpt lat="45.65827" lon="6.85332">
        <ele>1972</ele>
        <time>2021-03-26T09:26:45Z</time>
      </trkpt>
      <trkpt lat="45.65827" lon="6.85333">
        <ele>1972.2</ele>
        <time>2021-03-26T09:26:46Z</time>
      </trkpt>
      <trkpt lat="45.65828" lon="6.85334">
        <ele>1972.2</ele>
        <time>2021-03-26T09:26:47Z</time>
      </trkpt>
      <trkpt lat="45.65828" lon="6.85335">
        <ele>1972.1</ele>
        <time>2021-03-26T09:26:48Z</time>
      </trkpt>
      <trkpt lat="45.65829" lon="6.85336">
        <ele>1972.1</ele>
        <time>2021-03-26T09:26:49Z</time>
      </trkpt>
      <trkpt lat="45.6583" lon="6.85337">
        <ele>1972.3</ele>
        <time>2021-03-26T09:26:50Z</time>
      </trkpt>
      <trkpt lat="45.6583" lon="6.85338">
        <ele>1972.5</ele>
        <time>2021-03-26T09:26:51Z</time>
      </trkpt>
      <trkpt lat="45.65831" lon="6.85338">
        <ele>1972.5</ele>
        <time>2021-03-26T09:26:52Z</time>
      </trkpt>
      <trkpt lat="45.65832" lon="6.8534">
        <ele>1972.5</ele>
        <time>2021-03-26T09:26:53Z</time>
      </trkpt>
      <trkpt lat="45.65832" lon="6.8534">
        <ele>1972.5</ele>
        <time>2021-03-26T09:26:54Z</time>
      </trkpt>
      <trkpt lat="45.65832" lon="6.85341">
        <ele>1972.6</ele>
        <time>2021-03-26T09:26:55Z</time>
      </trkpt>
      <trkpt lat="45.65833" lon="6.85342">
        <ele>1972.8</ele>
        <time>2021-03-26T09:26:56Z</time>
      </trkpt>
      <trkpt lat="45.65834" lon="6.85343">
        <ele>1972.8</ele>
        <time>2021-03-26T09:26:57Z</time>
      </trkpt>
      <trkpt lat="45.65834" lon="6.85344">
        <ele>1972.8</ele>
        <time>2021-03-26T09:26:58Z</time>
      </trkpt>
      <trkpt lat="45.65835" lon="6.85345">
        <ele>1972.8</ele>
        <time>2021-03-26T09:26:59Z</time>
      </trkpt>
      <trkpt lat="45.65836" lon="6.85346">
        <ele>1972.9</ele>
        <time>2021-03-26T09:27:00Z</time>
      </trkpt>
      <trkpt lat="45.65836" lon="6.85346">
        <ele>1973.1</ele>
        <time>2021-03-26T09:27:01Z</time>
      </trkpt>
      <trkpt lat="45.65837" lon="6.85347">
        <ele>1973</ele>
        <time>2021-03-26T09:27:02Z</time>
      </trkpt>
      <trkpt lat="45.65838" lon="6.85347">
        <ele>1973</ele>
        <time>2021-03-26T09:27:03Z</time>
      </trkpt>
      <trkpt lat="45.65839" lon="6.85348">
        <ele>1973</ele>
        <time>2021-03-26T09:27:04Z</time>
      </trkpt>
      <trkpt lat="45.65839" lon="6.85348">
        <ele>1973.1</ele>
        <time>2021-03-26T09:27:05Z</time>
      </trkpt>
      <trkpt lat="45.6584" lon="6.85349">
        <ele>1973.1</ele>
        <time>2021-03-26T09:27:06Z</time>
      </trkpt>
      <trkpt lat="45.65841" lon="6.85349">
        <ele>1973.1</ele>
        <time>2021-03-26T09:27:07Z</time>
      </trkpt>
      <trkpt lat="45.65841" lon="6.85349">
        <ele>1973.1</ele>
        <time>2021-03-26T09:27:08Z</time>
      </trkpt>
      <trkpt lat="45.65842" lon="6.8535">
        <ele>1973.3</ele>
        <time>2021-03-26T09:27:09Z</time>
      </trkpt>
      <trkpt lat="45.65843" lon="6.8535">
        <ele>1973.3</ele>
        <time>2021-03-26T09:27:10Z</time>
      </trkpt>
      <trkpt lat="45.65843" lon="6.8535">
        <ele>1973.3</ele>
        <time>2021-03-26T09:27:11Z</time>
      </trkpt>
      <trkpt lat="45.65844" lon="6.8535">
        <ele>1973.3</ele>
        <time>2021-03-26T09:27:12Z</time>
      </trkpt>
      <trkpt lat="45.65845" lon="6.85351">
        <ele>1973.3</ele>
        <time>2021-03-26T09:27:13Z</time>
      </trkpt>
      <trkpt lat="45.65846" lon="6.85352">
        <ele>1973.3</ele>
        <time>2021-03-26T09:27:14Z</time>
      </trkpt>
      <trkpt lat="45.65847" lon="6.85352">
        <ele>1973.3</ele>
        <time>2021-03-26T09:27:15Z</time>
      </trkpt>
      <trkpt lat="45.65847" lon="6.85353">
        <ele>1973.3</ele>
        <time>2021-03-26T09:27:16Z</time>
      </trkpt>
      <trkpt lat="45.65848" lon="6.85353">
        <ele>1973.3</ele>
        <time>2021-03-26T09:27:17Z</time>
      </trkpt>
      <trkpt lat="45.65849" lon="6.85354">
        <ele>1973.4</ele>
        <time>2021-03-26T09:27:18Z</time>
      </trkpt>
      <trkpt lat="45.65849" lon="6.85355">
        <ele>1973.4</ele>
        <time>2021-03-26T09:27:19Z</time>
      </trkpt>
      <trkpt lat="45.6585" lon="6.85355">
        <ele>1973.3</ele>
        <time>2021-03-26T09:27:20Z</time>
      </trkpt>
      <trkpt lat="45.65851" lon="6.85356">
        <ele>1973.4</ele>
        <time>2021-03-26T09:27:21Z</time>
      </trkpt>
      <trkpt lat="45.65852" lon="6.85357">
        <ele>1973.3</ele>
        <time>2021-03-26T09:27:22Z</time>
      </trkpt>
      <trkpt lat="45.65852" lon="6.85358">
        <ele>1973.3</ele>
        <time>2021-03-26T09:27:23Z</time>
      </trkpt>
      <trkpt lat="45.65853" lon="6.85358">
        <ele>1973.4</ele>
        <time>2021-03-26T09:27:24Z</time>
      </trkpt>
      <trkpt lat="45.65854" lon="6.85359">
        <ele>1973.3</ele>
        <time>2021-03-26T09:27:25Z</time>
      </trkpt>
      <trkpt lat="45.65855" lon="6.85359">
        <ele>1973.3</ele>
        <time>2021-03-26T09:27:26Z</time>
      </trkpt>
      <trkpt lat="45.65855" lon="6.8536">
        <ele>1973.3</ele>
        <time>2021-03-26T09:27:27Z</time>
      </trkpt>
      <trkpt lat="45.65856" lon="6.85361">
        <ele>1973.3</ele>
        <time>2021-03-26T09:27:28Z</time>
      </trkpt>
      <trkpt lat="45.65857" lon="6.85361">
        <ele>1973.3</ele>
        <time>2021-03-26T09:27:29Z</time>
      </trkpt>
      <trkpt lat="45.65857" lon="6.85362">
        <ele>1973.3</ele>
        <time>2021-03-26T09:27:30Z</time>
      </trkpt>
      <trkpt lat="45.65858" lon="6.85363">
        <ele>1973.3</ele>
        <time>2021-03-26T09:27:31Z</time>
      </trkpt>
      <trkpt lat="45.65859" lon="6.85364">
        <ele>1973.3</ele>
        <time>2021-03-26T09:27:32Z</time>
      </trkpt>
      <trkpt lat="45.6586" lon="6.85364">
        <ele>1973.3</ele>
        <time>2021-03-26T09:27:33Z</time>
      </trkpt>
      <trkpt lat="45.65861" lon="6.85365">
        <ele>1973.3</ele>
        <time>2021-03-26T09:27:34Z</time>
      </trkpt>
      <trkpt lat="45.65862" lon="6.85366">
        <ele>1973.3</ele>
        <time>2021-03-26T09:27:35Z</time>
      </trkpt>
      <trkpt lat="45.65862" lon="6.85367">
        <ele>1973.2</ele>
        <time>2021-03-26T09:27:36Z</time>
      </trkpt>
      <trkpt lat="45.65863" lon="6.85368">
        <ele>1973.2</ele>
        <time>2021-03-26T09:27:37Z</time>
      </trkpt>
      <trkpt lat="45.65864" lon="6.85368">
        <ele>1973.2</ele>
        <time>2021-03-26T09:27:38Z</time>
      </trkpt>
      <trkpt lat="45.65864" lon="6.85369">
        <ele>1973.2</ele>
        <time>2021-03-26T09:27:39Z</time>
      </trkpt>
      <trkpt lat="45.65865" lon="6.8537">
        <ele>1973.2</ele>
        <time>2021-03-26T09:27:40Z</time>
      </trkpt>
      <trkpt lat="45.65866" lon="6.85371">
        <ele>1973.1</ele>
        <time>2021-03-26T09:27:41Z</time>
      </trkpt>
      <trkpt lat="45.65867" lon="6.85371">
        <ele>1973.1</ele>
        <time>2021-03-26T09:27:42Z</time>
      </trkpt>
      <trkpt lat="45.65868" lon="6.85372">
        <ele>1973.1</ele>
        <time>2021-03-26T09:27:43Z</time>
      </trkpt>
      <trkpt lat="45.65869" lon="6.85372">
        <ele>1973.1</ele>
        <time>2021-03-26T09:27:44Z</time>
      </trkpt>
      <trkpt lat="45.6587" lon="6.85373">
        <ele>1973.1</ele>
        <time>2021-03-26T09:27:45Z</time>
      </trkpt>
      <trkpt lat="45.65871" lon="6.85373">
        <ele>1973.1</ele>
        <time>2021-03-26T09:27:46Z</time>
      </trkpt>
      <trkpt lat="45.65871" lon="6.85374">
        <ele>1973.1</ele>
        <time>2021-03-26T09:27:47Z</time>
      </trkpt>
      <trkpt lat="45.65872" lon="6.85374">
        <ele>1973.1</ele>
        <time>2021-03-26T09:27:48Z</time>
      </trkpt>
      <trkpt lat="45.65873" lon="6.85375">
        <ele>1973</ele>
        <time>2021-03-26T09:27:49Z</time>
      </trkpt>
      <trkpt lat="45.65874" lon="6.85376">
        <ele>1973.1</ele>
        <time>2021-03-26T09:27:50Z</time>
      </trkpt>
      <trkpt lat="45.65875" lon="6.85376">
        <ele>1973</ele>
        <time>2021-03-26T09:27:51Z</time>
      </trkpt>
      <trkpt lat="45.65876" lon="6.85377">
        <ele>1973</ele>
        <time>2021-03-26T09:27:52Z</time>
      </trkpt>
      <trkpt lat="45.65876" lon="6.85377">
        <ele>1972.9</ele>
        <time>2021-03-26T09:27:53Z</time>
      </trkpt>
      <trkpt lat="45.65877" lon="6.85378">
        <ele>1972.9</ele>
        <time>2021-03-26T09:27:54Z</time>
      </trkpt>
      <trkpt lat="45.65879" lon="6.85378">
        <ele>1972.9</ele>
        <time>2021-03-26T09:27:55Z</time>
      </trkpt>
      <trkpt lat="45.6588" lon="6.85379">
        <ele>1972.9</ele>
        <time>2021-03-26T09:27:56Z</time>
      </trkpt>
      <trkpt lat="45.6588" lon="6.8538">
        <ele>1973</ele>
        <time>2021-03-26T09:27:57Z</time>
      </trkpt>
      <trkpt lat="45.65882" lon="6.85381">
        <ele>1973</ele>
        <time>2021-03-26T09:27:58Z</time>
      </trkpt>
      <trkpt lat="45.65882" lon="6.85381">
        <ele>1972.9</ele>
        <time>2021-03-26T09:27:59Z</time>
      </trkpt>
      <trkpt lat="45.65884" lon="6.85382">
        <ele>1972.9</ele>
        <time>2021-03-26T09:28:00Z</time>
      </trkpt>
      <trkpt lat="45.65885" lon="6.85383">
        <ele>1973</ele>
        <time>2021-03-26T09:28:01Z</time>
      </trkpt>
      <trkpt lat="45.65886" lon="6.85383">
        <ele>1972.9</ele>
        <time>2021-03-26T09:28:02Z</time>
      </trkpt>
      <trkpt lat="45.65887" lon="6.85384">
        <ele>1973</ele>
        <time>2021-03-26T09:28:03Z</time>
      </trkpt>
      <trkpt lat="45.65887" lon="6.85384">
        <ele>1973.1</ele>
        <time>2021-03-26T09:28:04Z</time>
      </trkpt>
      <trkpt lat="45.65888" lon="6.85385">
        <ele>1973</ele>
        <time>2021-03-26T09:28:05Z</time>
      </trkpt>
      <trkpt lat="45.65889" lon="6.85385">
        <ele>1973</ele>
        <time>2021-03-26T09:28:06Z</time>
      </trkpt>
      <trkpt lat="45.65891" lon="6.85386">
        <ele>1973.1</ele>
        <time>2021-03-26T09:28:07Z</time>
      </trkpt>
      <trkpt lat="45.65891" lon="6.85386">
        <ele>1973.1</ele>
        <time>2021-03-26T09:28:08Z</time>
      </trkpt>
      <trkpt lat="45.65892" lon="6.85387">
        <ele>1973.1</ele>
        <time>2021-03-26T09:28:09Z</time>
      </trkpt>
      <trkpt lat="45.65893" lon="6.85388">
        <ele>1973.2</ele>
        <time>2021-03-26T09:28:10Z</time>
      </trkpt>
      <trkpt lat="45.65894" lon="6.85388">
        <ele>1973.2</ele>
        <time>2021-03-26T09:28:11Z</time>
      </trkpt>
      <trkpt lat="45.65895" lon="6.85389">
        <ele>1973.2</ele>
        <time>2021-03-26T09:28:12Z</time>
      </trkpt>
      <trkpt lat="45.65896" lon="6.8539">
        <ele>1973.3</ele>
        <time>2021-03-26T09:28:13Z</time>
      </trkpt>
      <trkpt lat="45.65897" lon="6.85391">
        <ele>1973.2</ele>
        <time>2021-03-26T09:28:14Z</time>
      </trkpt>
      <trkpt lat="45.65898" lon="6.85391">
        <ele>1973.2</ele>
        <time>2021-03-26T09:28:15Z</time>
      </trkpt>
      <trkpt lat="45.65899" lon="6.85392">
        <ele>1973.3</ele>
        <time>2021-03-26T09:28:16Z</time>
      </trkpt>
      <trkpt lat="45.659" lon="6.85393">
        <ele>1973.3</ele>
        <time>2021-03-26T09:28:17Z</time>
      </trkpt>
      <trkpt lat="45.65901" lon="6.85394">
        <ele>1973.3</ele>
        <time>2021-03-26T09:28:18Z</time>
      </trkpt>
      <trkpt lat="45.65902" lon="6.85394">
        <ele>1973.4</ele>
        <time>2021-03-26T09:28:19Z</time>
      </trkpt>
      <trkpt lat="45.65903" lon="6.85395">
        <ele>1973.4</ele>
        <time>2021-03-26T09:28:20Z</time>
      </trkpt>
      <trkpt lat="45.65904" lon="6.85395">
        <ele>1973.4</ele>
        <time>2021-03-26T09:28:21Z</time>
      </trkpt>
      <trkpt lat="45.65906" lon="6.85396">
        <ele>1973.4</ele>
        <time>2021-03-26T09:28:22Z</time>
      </trkpt>
      <trkpt lat="45.65906" lon="6.85396">
        <ele>1973.4</ele>
        <time>2021-03-26T09:28:23Z</time>
      </trkpt>
      <trkpt lat="45.65907" lon="6.85397">
        <ele>1973.4</ele>
        <time>2021-03-26T09:28:24Z</time>
      </trkpt>
      <trkpt lat="45.65909" lon="6.85397">
        <ele>1973.4</ele>
        <time>2021-03-26T09:28:25Z</time>
      </trkpt>
      <trkpt lat="45.6591" lon="6.85398">
        <ele>1973.4</ele>
        <time>2021-03-26T09:28:26Z</time>
      </trkpt>
      <trkpt lat="45.65911" lon="6.85399">
        <ele>1973.5</ele>
        <time>2021-03-26T09:28:27Z</time>
      </trkpt>
      <trkpt lat="45.65913" lon="6.85402">
        <ele>1973.5</ele>
        <time>2021-03-26T09:28:28Z</time>
      </trkpt>
      <trkpt lat="45.65914" lon="6.85403">
        <ele>1973.6</ele>
        <time>2021-03-26T09:28:29Z</time>
      </trkpt>
      <trkpt lat="45.65917" lon="6.85408">
        <ele>1973.6</ele>
        <time>2021-03-26T09:28:30Z</time>
      </trkpt>
      <trkpt lat="45.65918" lon="6.85409">
        <ele>1973.7</ele>
        <time>2021-03-26T09:28:31Z</time>
      </trkpt>
      <trkpt lat="45.6592" lon="6.85412">
        <ele>1973.8</ele>
        <time>2021-03-26T09:28:32Z</time>
      </trkpt>
      <trkpt lat="45.65923" lon="6.85414">
        <ele>1973.7</ele>
        <time>2021-03-26T09:28:33Z</time>
      </trkpt>
      <trkpt lat="45.65923" lon="6.85415">
        <ele>1973.9</ele>
        <time>2021-03-26T09:28:34Z</time>
      </trkpt>
      <trkpt lat="45.65925" lon="6.85416">
        <ele>1973.8</ele>
        <time>2021-03-26T09:28:35Z</time>
      </trkpt>
      <trkpt lat="45.65926" lon="6.85416">
        <ele>1973.9</ele>
        <time>2021-03-26T09:28:36Z</time>
      </trkpt>
      <trkpt lat="45.65927" lon="6.85417">
        <ele>1973.9</ele>
        <time>2021-03-26T09:28:37Z</time>
      </trkpt>
      <trkpt lat="45.65928" lon="6.85417">
        <ele>1973.9</ele>
        <time>2021-03-26T09:28:38Z</time>
      </trkpt>
      <trkpt lat="45.65929" lon="6.85418">
        <ele>1974</ele>
        <time>2021-03-26T09:28:39Z</time>
      </trkpt>
      <trkpt lat="45.65931" lon="6.85419">
        <ele>1973.9</ele>
        <time>2021-03-26T09:28:40Z</time>
      </trkpt>
      <trkpt lat="45.65932" lon="6.85419">
        <ele>1974</ele>
        <time>2021-03-26T09:28:41Z</time>
      </trkpt>
      <trkpt lat="45.65933" lon="6.8542">
        <ele>1974</ele>
        <time>2021-03-26T09:28:42Z</time>
      </trkpt>
      <trkpt lat="45.65935" lon="6.8542">
        <ele>1974.1</ele>
        <time>2021-03-26T09:28:43Z</time>
      </trkpt>
      <trkpt lat="45.65936" lon="6.85421">
        <ele>1974.1</ele>
        <time>2021-03-26T09:28:44Z</time>
      </trkpt>
      <trkpt lat="45.65937" lon="6.85421">
        <ele>1974.1</ele>
        <time>2021-03-26T09:28:45Z</time>
      </trkpt>
      <trkpt lat="45.65938" lon="6.85421">
        <ele>1974.3</ele>
        <time>2021-03-26T09:28:46Z</time>
      </trkpt>
      <trkpt lat="45.65939" lon="6.85422">
        <ele>1974.3</ele>
        <time>2021-03-26T09:28:47Z</time>
      </trkpt>
      <trkpt lat="45.6594" lon="6.85422">
        <ele>1974.3</ele>
        <time>2021-03-26T09:28:48Z</time>
      </trkpt>
      <trkpt lat="45.65942" lon="6.85423">
        <ele>1974.3</ele>
        <time>2021-03-26T09:28:49Z</time>
      </trkpt>
      <trkpt lat="45.65943" lon="6.85424">
        <ele>1974.4</ele>
        <time>2021-03-26T09:28:50Z</time>
      </trkpt>
      <trkpt lat="45.65945" lon="6.85424">
        <ele>1974.5</ele>
        <time>2021-03-26T09:28:51Z</time>
      </trkpt>
      <trkpt lat="45.65946" lon="6.85425">
        <ele>1974.5</ele>
        <time>2021-03-26T09:28:52Z</time>
      </trkpt>
      <trkpt lat="45.65946" lon="6.85426">
        <ele>1974.5</ele>
        <time>2021-03-26T09:28:53Z</time>
      </trkpt>
      <trkpt lat="45.65947" lon="6.85426">
        <ele>1974.7</ele>
        <time>2021-03-26T09:28:54Z</time>
      </trkpt>
      <trkpt lat="45.65948" lon="6.85427">
        <ele>1974.6</ele>
        <time>2021-03-26T09:28:55Z</time>
      </trkpt>
      <trkpt lat="45.65949" lon="6.85428">
        <ele>1974.7</ele>
        <time>2021-03-26T09:28:56Z</time>
      </trkpt>
      <trkpt lat="45.6595" lon="6.85429">
        <ele>1974.8</ele>
        <time>2021-03-26T09:28:57Z</time>
      </trkpt>
      <trkpt lat="45.65952" lon="6.8543">
        <ele>1974.8</ele>
        <time>2021-03-26T09:28:58Z</time>
      </trkpt>
      <trkpt lat="45.65952" lon="6.8543">
        <ele>1974.8</ele>
        <time>2021-03-26T09:28:59Z</time>
      </trkpt>
      <trkpt lat="45.65953" lon="6.85431">
        <ele>1975</ele>
        <time>2021-03-26T09:29:00Z</time>
      </trkpt>
      <trkpt lat="45.65955" lon="6.85432">
        <ele>1975</ele>
        <time>2021-03-26T09:29:01Z</time>
      </trkpt>
      <trkpt lat="45.65956" lon="6.85433">
        <ele>1974.9</ele>
        <time>2021-03-26T09:29:02Z</time>
      </trkpt>
      <trkpt lat="45.65956" lon="6.85433">
        <ele>1975.3</ele>
        <time>2021-03-26T09:29:03Z</time>
      </trkpt>
      <trkpt lat="45.65958" lon="6.85435">
        <ele>1975.2</ele>
        <time>2021-03-26T09:29:04Z</time>
      </trkpt>
      <trkpt lat="45.65959" lon="6.85435">
        <ele>1975.5</ele>
        <time>2021-03-26T09:29:05Z</time>
      </trkpt>
      <trkpt lat="45.6596" lon="6.85436">
        <ele>1975.4</ele>
        <time>2021-03-26T09:29:06Z</time>
      </trkpt>
      <trkpt lat="45.65962" lon="6.85437">
        <ele>1975.4</ele>
        <time>2021-03-26T09:29:07Z</time>
      </trkpt>
      <trkpt lat="45.65963" lon="6.85438">
        <ele>1975.8</ele>
        <time>2021-03-26T09:29:08Z</time>
      </trkpt>
      <trkpt lat="45.65963" lon="6.85438">
        <ele>1975.8</ele>
        <time>2021-03-26T09:29:09Z</time>
      </trkpt>
      <trkpt lat="45.65964" lon="6.85439">
        <ele>1975.8</ele>
        <time>2021-03-26T09:29:10Z</time>
      </trkpt>
      <trkpt lat="45.65965" lon="6.85439">
        <ele>1976.2</ele>
        <time>2021-03-26T09:29:11Z</time>
      </trkpt>
      <trkpt lat="45.65966" lon="6.85441">
        <ele>1976.1</ele>
        <time>2021-03-26T09:29:12Z</time>
      </trkpt>
      <trkpt lat="45.65967" lon="6.85442">
        <ele>1976.1</ele>
        <time>2021-03-26T09:29:13Z</time>
      </trkpt>
      <trkpt lat="45.65968" lon="6.85443">
        <ele>1976.5</ele>
        <time>2021-03-26T09:29:14Z</time>
      </trkpt>
      <trkpt lat="45.65969" lon="6.85444">
        <ele>1976.5</ele>
        <time>2021-03-26T09:29:15Z</time>
      </trkpt>
      <trkpt lat="45.6597" lon="6.85445">
        <ele>1976.5</ele>
        <time>2021-03-26T09:29:16Z</time>
      </trkpt>
      <trkpt lat="45.65971" lon="6.85446">
        <ele>1976.5</ele>
        <time>2021-03-26T09:29:17Z</time>
      </trkpt>
      <trkpt lat="45.65971" lon="6.85447">
        <ele>1977</ele>
        <time>2021-03-26T09:29:18Z</time>
      </trkpt>
      <trkpt lat="45.65973" lon="6.85449">
        <ele>1976.9</ele>
        <time>2021-03-26T09:29:19Z</time>
      </trkpt>
      <trkpt lat="45.65974" lon="6.8545">
        <ele>1976.9</ele>
        <time>2021-03-26T09:29:20Z</time>
      </trkpt>
      <trkpt lat="45.65974" lon="6.8545">
        <ele>1977.4</ele>
        <time>2021-03-26T09:29:21Z</time>
      </trkpt>
      <trkpt lat="45.65976" lon="6.85452">
        <ele>1977.4</ele>
        <time>2021-03-26T09:29:22Z</time>
      </trkpt>
      <trkpt lat="45.65977" lon="6.85453">
        <ele>1977.3</ele>
        <time>2021-03-26T09:29:23Z</time>
      </trkpt>
      <trkpt lat="45.65978" lon="6.85454">
        <ele>1977.7</ele>
        <time>2021-03-26T09:29:24Z</time>
      </trkpt>
      <trkpt lat="45.65979" lon="6.85455">
        <ele>1977.8</ele>
        <time>2021-03-26T09:29:25Z</time>
      </trkpt>
      <trkpt lat="45.65981" lon="6.85456">
        <ele>1978.3</ele>
        <time>2021-03-26T09:29:26Z</time>
      </trkpt>
      <trkpt lat="45.65982" lon="6.85457">
        <ele>1978.1</ele>
        <time>2021-03-26T09:29:27Z</time>
      </trkpt>
      <trkpt lat="45.65982" lon="6.85458">
        <ele>1978.1</ele>
        <time>2021-03-26T09:29:28Z</time>
      </trkpt>
      <trkpt lat="45.65984" lon="6.85459">
        <ele>1978.6</ele>
        <time>2021-03-26T09:29:29Z</time>
      </trkpt>
      <trkpt lat="45.65985" lon="6.8546">
        <ele>1978.6</ele>
        <time>2021-03-26T09:29:30Z</time>
      </trkpt>
      <trkpt lat="45.65986" lon="6.8546">
        <ele>1978.6</ele>
        <time>2021-03-26T09:29:31Z</time>
      </trkpt>
      <trkpt lat="45.65987" lon="6.85461">
        <ele>1978.7</ele>
        <time>2021-03-26T09:29:32Z</time>
      </trkpt>
      <trkpt lat="45.65988" lon="6.85462">
        <ele>1978.7</ele>
        <time>2021-03-26T09:29:33Z</time>
      </trkpt>
      <trkpt lat="45.65989" lon="6.85463">
        <ele>1978.7</ele>
        <time>2021-03-26T09:29:34Z</time>
      </trkpt>
      <trkpt lat="45.6599" lon="6.85463">
        <ele>1979.1</ele>
        <time>2021-03-26T09:29:35Z</time>
      </trkpt>
      <trkpt lat="45.65991" lon="6.85464">
        <ele>1979.1</ele>
        <time>2021-03-26T09:29:36Z</time>
      </trkpt>
      <trkpt lat="45.65992" lon="6.85465">
        <ele>1979.5</ele>
        <time>2021-03-26T09:29:37Z</time>
      </trkpt>
      <trkpt lat="45.65993" lon="6.85466">
        <ele>1979.1</ele>
        <time>2021-03-26T09:29:38Z</time>
      </trkpt>
      <trkpt lat="45.65994" lon="6.85466">
        <ele>1979.1</ele>
        <time>2021-03-26T09:29:39Z</time>
      </trkpt>
      <trkpt lat="45.65995" lon="6.85467">
        <ele>1979.5</ele>
        <time>2021-03-26T09:29:40Z</time>
      </trkpt>
      <trkpt lat="45.65996" lon="6.85467">
        <ele>1979.5</ele>
        <time>2021-03-26T09:29:41Z</time>
      </trkpt>
      <trkpt lat="45.65997" lon="6.85468">
        <ele>1979.5</ele>
        <time>2021-03-26T09:29:42Z</time>
      </trkpt>
      <trkpt lat="45.65998" lon="6.85469">
        <ele>1980</ele>
        <time>2021-03-26T09:29:43Z</time>
      </trkpt>
      <trkpt lat="45.65999" lon="6.85469">
        <ele>1980</ele>
        <time>2021-03-26T09:29:44Z</time>
      </trkpt>
      <trkpt lat="45.66" lon="6.8547">
        <ele>1980</ele>
        <time>2021-03-26T09:29:45Z</time>
      </trkpt>
      <trkpt lat="45.66001" lon="6.8547">
        <ele>1980.2</ele>
        <time>2021-03-26T09:29:46Z</time>
      </trkpt>
      <trkpt lat="45.66002" lon="6.8547">
        <ele>1980.2</ele>
        <time>2021-03-26T09:29:47Z</time>
      </trkpt>
      <trkpt lat="45.66003" lon="6.85471">
        <ele>1980.2</ele>
        <time>2021-03-26T09:29:48Z</time>
      </trkpt>
      <trkpt lat="45.66004" lon="6.85472">
        <ele>1980.8</ele>
        <time>2021-03-26T09:29:49Z</time>
      </trkpt>
      <trkpt lat="45.66005" lon="6.85473">
        <ele>1980.8</ele>
        <time>2021-03-26T09:29:50Z</time>
      </trkpt>
      <trkpt lat="45.66006" lon="6.85474">
        <ele>1980.8</ele>
        <time>2021-03-26T09:29:51Z</time>
      </trkpt>
      <trkpt lat="45.66007" lon="6.85475">
        <ele>1980.4</ele>
        <time>2021-03-26T09:29:52Z</time>
      </trkpt>
      <trkpt lat="45.66008" lon="6.85476">
        <ele>1980.9</ele>
        <time>2021-03-26T09:29:53Z</time>
      </trkpt>
      <trkpt lat="45.66008" lon="6.85477">
        <ele>1980.9</ele>
        <time>2021-03-26T09:29:54Z</time>
      </trkpt>
      <trkpt lat="45.66009" lon="6.85477">
        <ele>1980.9</ele>
        <time>2021-03-26T09:29:55Z</time>
      </trkpt>
      <trkpt lat="45.6601" lon="6.85478">
        <ele>1980.6</ele>
        <time>2021-03-26T09:29:56Z</time>
      </trkpt>
      <trkpt lat="45.6601" lon="6.85479">
        <ele>1981.1</ele>
        <time>2021-03-26T09:29:57Z</time>
      </trkpt>
      <trkpt lat="45.66011" lon="6.8548">
        <ele>1981.1</ele>
        <time>2021-03-26T09:29:58Z</time>
      </trkpt>
      <trkpt lat="45.66012" lon="6.8548">
        <ele>1981.1</ele>
        <time>2021-03-26T09:29:59Z</time>
      </trkpt>
      <trkpt lat="45.66013" lon="6.85481">
        <ele>1981.9</ele>
        <time>2021-03-26T09:30:00Z</time>
      </trkpt>
      <trkpt lat="45.66014" lon="6.85481">
        <ele>1981.9</ele>
        <time>2021-03-26T09:30:01Z</time>
      </trkpt>
      <trkpt lat="45.66015" lon="6.85482">
        <ele>1981.9</ele>
        <time>2021-03-26T09:30:02Z</time>
      </trkpt>
      <trkpt lat="45.66015" lon="6.85482">
        <ele>1981.9</ele>
        <time>2021-03-26T09:30:03Z</time>
      </trkpt>
      <trkpt lat="45.66016" lon="6.85483">
        <ele>1982.1</ele>
        <time>2021-03-26T09:30:04Z</time>
      </trkpt>
      <trkpt lat="45.66017" lon="6.85483">
        <ele>1982.1</ele>
        <time>2021-03-26T09:30:05Z</time>
      </trkpt>
      <trkpt lat="45.66018" lon="6.85484">
        <ele>1982.1</ele>
        <time>2021-03-26T09:30:06Z</time>
      </trkpt>
      <trkpt lat="45.66019" lon="6.85484">
        <ele>1982.7</ele>
        <time>2021-03-26T09:30:07Z</time>
      </trkpt>
      <trkpt lat="45.6602" lon="6.85485">
        <ele>1982.7</ele>
        <time>2021-03-26T09:30:08Z</time>
      </trkpt>
      <trkpt lat="45.66021" lon="6.85485">
        <ele>1982.7</ele>
        <time>2021-03-26T09:30:09Z</time>
      </trkpt>
      <trkpt lat="45.66021" lon="6.85486">
        <ele>1982.7</ele>
        <time>2021-03-26T09:30:10Z</time>
      </trkpt>
      <trkpt lat="45.66022" lon="6.85486">
        <ele>1983.4</ele>
        <time>2021-03-26T09:30:11Z</time>
      </trkpt>
      <trkpt lat="45.66023" lon="6.85486">
        <ele>1983.4</ele>
        <time>2021-03-26T09:30:12Z</time>
      </trkpt>
      <trkpt lat="45.66024" lon="6.85487">
        <ele>1983.1</ele>
        <time>2021-03-26T09:30:13Z</time>
      </trkpt>
      <trkpt lat="45.66025" lon="6.85487">
        <ele>1983.1</ele>
        <time>2021-03-26T09:30:14Z</time>
      </trkpt>
      <trkpt lat="45.66026" lon="6.85488">
        <ele>1983.9</ele>
        <time>2021-03-26T09:30:15Z</time>
      </trkpt>
      <trkpt lat="45.66027" lon="6.85488">
        <ele>1983.9</ele>
        <time>2021-03-26T09:30:16Z</time>
      </trkpt>
      <trkpt lat="45.66028" lon="6.85488">
        <ele>1984.6</ele>
        <time>2021-03-26T09:30:17Z</time>
      </trkpt>
      <trkpt lat="45.66029" lon="6.85489">
        <ele>1984.6</ele>
        <time>2021-03-26T09:30:18Z</time>
      </trkpt>
      <trkpt lat="45.6603" lon="6.85489">
        <ele>1984.6</ele>
        <time>2021-03-26T09:30:19Z</time>
      </trkpt>
      <trkpt lat="45.66031" lon="6.8549">
        <ele>1985.3</ele>
        <time>2021-03-26T09:30:20Z</time>
      </trkpt>
      <trkpt lat="45.66032" lon="6.8549">
        <ele>1985.3</ele>
        <time>2021-03-26T09:30:21Z</time>
      </trkpt>
      <trkpt lat="45.66033" lon="6.8549">
        <ele>1985.3</ele>
        <time>2021-03-26T09:30:22Z</time>
      </trkpt>
      <trkpt lat="45.66034" lon="6.85491">
        <ele>1985.9</ele>
        <time>2021-03-26T09:30:23Z</time>
      </trkpt>
      <trkpt lat="45.66035" lon="6.85491">
        <ele>1985.9</ele>
        <time>2021-03-26T09:30:24Z</time>
      </trkpt>
      <trkpt lat="45.66036" lon="6.85491">
        <ele>1985.9</ele>
        <time>2021-03-26T09:30:25Z</time>
      </trkpt>
      <trkpt lat="45.66037" lon="6.85491">
        <ele>1986.6</ele>
        <time>2021-03-26T09:30:26Z</time>
      </trkpt>
      <trkpt lat="45.66038" lon="6.85491">
        <ele>1986.4</ele>
        <time>2021-03-26T09:30:27Z</time>
      </trkpt>
      <trkpt lat="45.6604" lon="6.85492">
        <ele>1986.4</ele>
        <time>2021-03-26T09:30:28Z</time>
      </trkpt>
      <trkpt lat="45.6604" lon="6.85492">
        <ele>1987.1</ele>
        <time>2021-03-26T09:30:29Z</time>
      </trkpt>
      <trkpt lat="45.66041" lon="6.85493">
        <ele>1987.1</ele>
        <time>2021-03-26T09:30:30Z</time>
      </trkpt>
      <trkpt lat="45.66042" lon="6.85493">
        <ele>1987.1</ele>
        <time>2021-03-26T09:30:31Z</time>
      </trkpt>
      <trkpt lat="45.66043" lon="6.85493">
        <ele>1987.1</ele>
        <time>2021-03-26T09:30:32Z</time>
      </trkpt>
      <trkpt lat="45.66044" lon="6.85494">
        <ele>1987.8</ele>
        <time>2021-03-26T09:30:33Z</time>
      </trkpt>
      <trkpt lat="45.66045" lon="6.85494">
        <ele>1987.8</ele>
        <time>2021-03-26T09:30:34Z</time>
      </trkpt>
      <trkpt lat="45.66046" lon="6.85495">
        <ele>1987.8</ele>
        <time>2021-03-26T09:30:35Z</time>
      </trkpt>
      <trkpt lat="45.66047" lon="6.85495">
        <ele>1988.3</ele>
        <time>2021-03-26T09:30:36Z</time>
      </trkpt>
      <trkpt lat="45.66048" lon="6.85496">
        <ele>1988.3</ele>
        <time>2021-03-26T09:30:37Z</time>
      </trkpt>
      <trkpt lat="45.66049" lon="6.85496">
        <ele>1989.1</ele>
        <time>2021-03-26T09:30:38Z</time>
      </trkpt>
      <trkpt lat="45.6605" lon="6.85497">
        <ele>1989.1</ele>
        <time>2021-03-26T09:30:39Z</time>
      </trkpt>
      <trkpt lat="45.66051" lon="6.85497">
        <ele>1989.1</ele>
        <time>2021-03-26T09:30:40Z</time>
      </trkpt>
      <trkpt lat="45.66052" lon="6.85498">
        <ele>1989.8</ele>
        <time>2021-03-26T09:30:41Z</time>
      </trkpt>
      <trkpt lat="45.66053" lon="6.85498">
        <ele>1989.8</ele>
        <time>2021-03-26T09:30:42Z</time>
      </trkpt>
      <trkpt lat="45.66054" lon="6.85499">
        <ele>1989.8</ele>
        <time>2021-03-26T09:30:43Z</time>
      </trkpt>
      <trkpt lat="45.66055" lon="6.85499">
        <ele>1990.6</ele>
        <time>2021-03-26T09:30:44Z</time>
      </trkpt>
      <trkpt lat="45.66056" lon="6.85499">
        <ele>1990.6</ele>
        <time>2021-03-26T09:30:45Z</time>
      </trkpt>
      <trkpt lat="45.66057" lon="6.85499">
        <ele>1990.6</ele>
        <time>2021-03-26T09:30:46Z</time>
      </trkpt>
      <trkpt lat="45.66058" lon="6.855">
        <ele>1991.3</ele>
        <time>2021-03-26T09:30:47Z</time>
      </trkpt>
      <trkpt lat="45.66059" lon="6.855">
        <ele>1991.3</ele>
        <time>2021-03-26T09:30:48Z</time>
      </trkpt>
      <trkpt lat="45.6606" lon="6.85501">
        <ele>1991.3</ele>
        <time>2021-03-26T09:30:49Z</time>
      </trkpt>
      <trkpt lat="45.66062" lon="6.85501">
        <ele>1992.1</ele>
        <time>2021-03-26T09:30:50Z</time>
      </trkpt>
      <trkpt lat="45.66062" lon="6.85502">
        <ele>1992.1</ele>
        <time>2021-03-26T09:30:51Z</time>
      </trkpt>
      <trkpt lat="45.66063" lon="6.85502">
        <ele>1992.1</ele>
        <time>2021-03-26T09:30:52Z</time>
      </trkpt>
      <trkpt lat="45.66064" lon="6.85503">
        <ele>1992.9</ele>
        <time>2021-03-26T09:30:53Z</time>
      </trkpt>
      <trkpt lat="45.66065" lon="6.85504">
        <ele>1992.9</ele>
        <time>2021-03-26T09:30:54Z</time>
      </trkpt>
      <trkpt lat="45.66066" lon="6.85504">
        <ele>1992.7</ele>
        <time>2021-03-26T09:30:55Z</time>
      </trkpt>
      <trkpt lat="45.66067" lon="6.85505">
        <ele>1993.5</ele>
        <time>2021-03-26T09:30:56Z</time>
      </trkpt>
      <trkpt lat="45.66068" lon="6.85506">
        <ele>1993.5</ele>
        <time>2021-03-26T09:30:57Z</time>
      </trkpt>
      <trkpt lat="45.66069" lon="6.85507">
        <ele>1993.5</ele>
        <time>2021-03-26T09:30:58Z</time>
      </trkpt>
      <trkpt lat="45.6607" lon="6.85507">
        <ele>1994.2</ele>
        <time>2021-03-26T09:30:59Z</time>
      </trkpt>
      <trkpt lat="45.66071" lon="6.85508">
        <ele>1994.2</ele>
        <time>2021-03-26T09:31:00Z</time>
      </trkpt>
      <trkpt lat="45.66072" lon="6.85509">
        <ele>1994.1</ele>
        <time>2021-03-26T09:31:01Z</time>
      </trkpt>
      <trkpt lat="45.66073" lon="6.85509">
        <ele>1994.1</ele>
        <time>2021-03-26T09:31:02Z</time>
      </trkpt>
      <trkpt lat="45.66073" lon="6.8551">
        <ele>1994.9</ele>
        <time>2021-03-26T09:31:03Z</time>
      </trkpt>
      <trkpt lat="45.66074" lon="6.8551">
        <ele>1994.9</ele>
        <time>2021-03-26T09:31:04Z</time>
      </trkpt>
      <trkpt lat="45.66075" lon="6.85511">
        <ele>1994.9</ele>
        <time>2021-03-26T09:31:05Z</time>
      </trkpt>
      <trkpt lat="45.66076" lon="6.85511">
        <ele>1995.7</ele>
        <time>2021-03-26T09:31:06Z</time>
      </trkpt>
      <trkpt lat="45.66077" lon="6.85511">
        <ele>1995.7</ele>
        <time>2021-03-26T09:31:07Z</time>
      </trkpt>
      <trkpt lat="45.66078" lon="6.85511">
        <ele>1995.7</ele>
        <time>2021-03-26T09:31:08Z</time>
      </trkpt>
      <trkpt lat="45.66079" lon="6.85512">
        <ele>1995.7</ele>
        <time>2021-03-26T09:31:09Z</time>
      </trkpt>
      <trkpt lat="45.6608" lon="6.85512">
        <ele>1996.6</ele>
        <time>2021-03-26T09:31:10Z</time>
      </trkpt>
      <trkpt lat="45.6608" lon="6.85512">
        <ele>1996.6</ele>
        <time>2021-03-26T09:31:11Z</time>
      </trkpt>
      <trkpt lat="45.66081" lon="6.85512">
        <ele>1996.6</ele>
        <time>2021-03-26T09:31:12Z</time>
      </trkpt>
      <trkpt lat="45.66082" lon="6.85513">
        <ele>1997.5</ele>
        <time>2021-03-26T09:31:13Z</time>
      </trkpt>
      <trkpt lat="45.66083" lon="6.85513">
        <ele>1997.5</ele>
        <time>2021-03-26T09:31:14Z</time>
      </trkpt>
      <trkpt lat="45.66084" lon="6.85514">
        <ele>1997.5</ele>
        <time>2021-03-26T09:31:15Z</time>
      </trkpt>
      <trkpt lat="45.66084" lon="6.85514">
        <ele>1997.5</ele>
        <time>2021-03-26T09:31:16Z</time>
      </trkpt>
      <trkpt lat="45.66085" lon="6.85514">
        <ele>1998.5</ele>
        <time>2021-03-26T09:31:17Z</time>
      </trkpt>
      <trkpt lat="45.66086" lon="6.85514">
        <ele>1998.5</ele>
        <time>2021-03-26T09:31:18Z</time>
      </trkpt>
      <trkpt lat="45.66087" lon="6.85514">
        <ele>1998.5</ele>
        <time>2021-03-26T09:31:19Z</time>
      </trkpt>
      <trkpt lat="45.66088" lon="6.85514">
        <ele>1998.5</ele>
        <time>2021-03-26T09:31:20Z</time>
      </trkpt>
      <trkpt lat="45.66089" lon="6.85514">
        <ele>1999.4</ele>
        <time>2021-03-26T09:31:21Z</time>
      </trkpt>
      <trkpt lat="45.66089" lon="6.85515">
        <ele>1999.4</ele>
        <time>2021-03-26T09:31:22Z</time>
      </trkpt>
      <trkpt lat="45.6609" lon="6.85515">
        <ele>1999.4</ele>
        <time>2021-03-26T09:31:23Z</time>
      </trkpt>
      <trkpt lat="45.66091" lon="6.85515">
        <ele>2000.3</ele>
        <time>2021-03-26T09:31:24Z</time>
      </trkpt>
      <trkpt lat="45.66092" lon="6.85516">
        <ele>2000.3</ele>
        <time>2021-03-26T09:31:25Z</time>
      </trkpt>
      <trkpt lat="45.66093" lon="6.85516">
        <ele>2000.3</ele>
        <time>2021-03-26T09:31:26Z</time>
      </trkpt>
      <trkpt lat="45.66094" lon="6.85517">
        <ele>2000.3</ele>
        <time>2021-03-26T09:31:27Z</time>
      </trkpt>
      <trkpt lat="45.66094" lon="6.85517">
        <ele>2000.9</ele>
        <time>2021-03-26T09:31:28Z</time>
      </trkpt>
      <trkpt lat="45.66095" lon="6.85517">
        <ele>2000.9</ele>
        <time>2021-03-26T09:31:29Z</time>
      </trkpt>
      <trkpt lat="45.66096" lon="6.85518">
        <ele>2000.9</ele>
        <time>2021-03-26T09:31:30Z</time>
      </trkpt>
      <trkpt lat="45.66097" lon="6.85518">
        <ele>2001.7</ele>
        <time>2021-03-26T09:31:31Z</time>
      </trkpt>
      <trkpt lat="45.66098" lon="6.85519">
        <ele>2001.7</ele>
        <time>2021-03-26T09:31:32Z</time>
      </trkpt>
      <trkpt lat="45.66099" lon="6.85519">
        <ele>2001.7</ele>
        <time>2021-03-26T09:31:33Z</time>
      </trkpt>
      <trkpt lat="45.661" lon="6.8552">
        <ele>2001.7</ele>
        <time>2021-03-26T09:31:34Z</time>
      </trkpt>
      <trkpt lat="45.66101" lon="6.85521">
        <ele>2002.5</ele>
        <time>2021-03-26T09:31:35Z</time>
      </trkpt>
      <trkpt lat="45.66101" lon="6.85521">
        <ele>2002.3</ele>
        <time>2021-03-26T09:31:36Z</time>
      </trkpt>
      <trkpt lat="45.66102" lon="6.85522">
        <ele>2002.3</ele>
        <time>2021-03-26T09:31:37Z</time>
      </trkpt>
      <trkpt lat="45.66103" lon="6.85522">
        <ele>2003.2</ele>
        <time>2021-03-26T09:31:38Z</time>
      </trkpt>
      <trkpt lat="45.66104" lon="6.85523">
        <ele>2003.2</ele>
        <time>2021-03-26T09:31:39Z</time>
      </trkpt>
      <trkpt lat="45.66105" lon="6.85523">
        <ele>2003.2</ele>
        <time>2021-03-26T09:31:40Z</time>
      </trkpt>
      <trkpt lat="45.66106" lon="6.85524">
        <ele>2003.2</ele>
        <time>2021-03-26T09:31:41Z</time>
      </trkpt>
      <trkpt lat="45.66107" lon="6.85525">
        <ele>2004.1</ele>
        <time>2021-03-26T09:31:42Z</time>
      </trkpt>
      <trkpt lat="45.66107" lon="6.85525">
        <ele>2004.1</ele>
        <time>2021-03-26T09:31:43Z</time>
      </trkpt>
      <trkpt lat="45.66108" lon="6.85526">
        <ele>2003.9</ele>
        <time>2021-03-26T09:31:44Z</time>
      </trkpt>
      <trkpt lat="45.66109" lon="6.85526">
        <ele>2004.9</ele>
        <time>2021-03-26T09:31:45Z</time>
      </trkpt>
      <trkpt lat="45.6611" lon="6.85527">
        <ele>2004.9</ele>
        <time>2021-03-26T09:31:46Z</time>
      </trkpt>
      <trkpt lat="45.66111" lon="6.85528">
        <ele>2004.9</ele>
        <time>2021-03-26T09:31:47Z</time>
      </trkpt>
      <trkpt lat="45.66112" lon="6.85528">
        <ele>2005.8</ele>
        <time>2021-03-26T09:31:48Z</time>
      </trkpt>
      <trkpt lat="45.66113" lon="6.85528">
        <ele>2005.8</ele>
        <time>2021-03-26T09:31:49Z</time>
      </trkpt>
      <trkpt lat="45.66114" lon="6.85529">
        <ele>2005.8</ele>
        <time>2021-03-26T09:31:50Z</time>
      </trkpt>
      <trkpt lat="45.66115" lon="6.85529">
        <ele>2005.8</ele>
        <time>2021-03-26T09:31:51Z</time>
      </trkpt>
      <trkpt lat="45.66115" lon="6.8553">
        <ele>2006.7</ele>
        <time>2021-03-26T09:31:52Z</time>
      </trkpt>
      <trkpt lat="45.66116" lon="6.8553">
        <ele>2006.5</ele>
        <time>2021-03-26T09:31:53Z</time>
      </trkpt>
      <trkpt lat="45.66117" lon="6.8553">
        <ele>2006.5</ele>
        <time>2021-03-26T09:31:54Z</time>
      </trkpt>
      <trkpt lat="45.66118" lon="6.85531">
        <ele>2006.5</ele>
        <time>2021-03-26T09:31:55Z</time>
      </trkpt>
      <trkpt lat="45.66119" lon="6.85531">
        <ele>2007.4</ele>
        <time>2021-03-26T09:31:56Z</time>
      </trkpt>
      <trkpt lat="45.66119" lon="6.85531">
        <ele>2007.4</ele>
        <time>2021-03-26T09:31:57Z</time>
      </trkpt>
      <trkpt lat="45.6612" lon="6.85532">
        <ele>2007.4</ele>
        <time>2021-03-26T09:31:58Z</time>
      </trkpt>
      <trkpt lat="45.66122" lon="6.85532">
        <ele>2008.3</ele>
        <time>2021-03-26T09:31:59Z</time>
      </trkpt>
      <trkpt lat="45.66122" lon="6.85533">
        <ele>2008.3</ele>
        <time>2021-03-26T09:32:00Z</time>
      </trkpt>
      <trkpt lat="45.66123" lon="6.85533">
        <ele>2008.3</ele>
        <time>2021-03-26T09:32:01Z</time>
      </trkpt>
      <trkpt lat="45.66124" lon="6.85533">
        <ele>2009.2</ele>
        <time>2021-03-26T09:32:02Z</time>
      </trkpt>
      <trkpt lat="45.66125" lon="6.85534">
        <ele>2009.2</ele>
        <time>2021-03-26T09:32:03Z</time>
      </trkpt>
      <trkpt lat="45.66126" lon="6.85534">
        <ele>2009</ele>
        <time>2021-03-26T09:32:04Z</time>
      </trkpt>
      <trkpt lat="45.66127" lon="6.85535">
        <ele>2009</ele>
        <time>2021-03-26T09:32:05Z</time>
      </trkpt>
      <trkpt lat="45.66128" lon="6.85535">
        <ele>2010</ele>
        <time>2021-03-26T09:32:06Z</time>
      </trkpt>
      <trkpt lat="45.66128" lon="6.85536">
        <ele>2010</ele>
        <time>2021-03-26T09:32:07Z</time>
      </trkpt>
      <trkpt lat="45.66129" lon="6.85536">
        <ele>2010</ele>
        <time>2021-03-26T09:32:08Z</time>
      </trkpt>
      <trkpt lat="45.6613" lon="6.85537">
        <ele>2010</ele>
        <time>2021-03-26T09:32:09Z</time>
      </trkpt>
      <trkpt lat="45.6613" lon="6.85537">
        <ele>2011</ele>
        <time>2021-03-26T09:32:10Z</time>
      </trkpt>
      <trkpt lat="45.66131" lon="6.85538">
        <ele>2011</ele>
        <time>2021-03-26T09:32:11Z</time>
      </trkpt>
      <trkpt lat="45.66132" lon="6.85538">
        <ele>2011</ele>
        <time>2021-03-26T09:32:12Z</time>
      </trkpt>
      <trkpt lat="45.66133" lon="6.85538">
        <ele>2010.9</ele>
        <time>2021-03-26T09:32:13Z</time>
      </trkpt>
      <trkpt lat="45.66133" lon="6.85539">
        <ele>2012</ele>
        <time>2021-03-26T09:32:14Z</time>
      </trkpt>
      <trkpt lat="45.66134" lon="6.85539">
        <ele>2012</ele>
        <time>2021-03-26T09:32:15Z</time>
      </trkpt>
      <trkpt lat="45.66135" lon="6.8554">
        <ele>2012</ele>
        <time>2021-03-26T09:32:16Z</time>
      </trkpt>
      <trkpt lat="45.66135" lon="6.8554">
        <ele>2012</ele>
        <time>2021-03-26T09:32:17Z</time>
      </trkpt>
      <trkpt lat="45.66136" lon="6.85541">
        <ele>2013.2</ele>
        <time>2021-03-26T09:32:18Z</time>
      </trkpt>
      <trkpt lat="45.66137" lon="6.85541">
        <ele>2013.2</ele>
        <time>2021-03-26T09:32:19Z</time>
      </trkpt>
      <trkpt lat="45.66137" lon="6.85542">
        <ele>2013.2</ele>
        <time>2021-03-26T09:32:20Z</time>
      </trkpt>
      <trkpt lat="45.66138" lon="6.85542">
        <ele>2013.2</ele>
        <time>2021-03-26T09:32:21Z</time>
      </trkpt>
      <trkpt lat="45.66138" lon="6.85543">
        <ele>2013</ele>
        <time>2021-03-26T09:32:22Z</time>
      </trkpt>
      <trkpt lat="45.66139" lon="6.85543">
        <ele>2014.2</ele>
        <time>2021-03-26T09:32:23Z</time>
      </trkpt>
      <trkpt lat="45.6614" lon="6.85544">
        <ele>2014.2</ele>
        <time>2021-03-26T09:32:24Z</time>
      </trkpt>
      <trkpt lat="45.6614" lon="6.85545">
        <ele>2014.2</ele>
        <time>2021-03-26T09:32:25Z</time>
      </trkpt>
      <trkpt lat="45.66141" lon="6.85545">
        <ele>2014.2</ele>
        <time>2021-03-26T09:32:26Z</time>
      </trkpt>
      <trkpt lat="45.66142" lon="6.85546">
        <ele>2014.2</ele>
        <time>2021-03-26T09:32:27Z</time>
      </trkpt>
      <trkpt lat="45.66142" lon="6.85547">
        <ele>2015.4</ele>
        <time>2021-03-26T09:32:28Z</time>
      </trkpt>
      <trkpt lat="45.66143" lon="6.85548">
        <ele>2015.2</ele>
        <time>2021-03-26T09:32:29Z</time>
      </trkpt>
      <trkpt lat="45.66143" lon="6.85548">
        <ele>2015.2</ele>
        <time>2021-03-26T09:32:30Z</time>
      </trkpt>
      <trkpt lat="45.66144" lon="6.85549">
        <ele>2015.2</ele>
        <time>2021-03-26T09:32:31Z</time>
      </trkpt>
      <trkpt lat="45.66145" lon="6.8555">
        <ele>2015.2</ele>
        <time>2021-03-26T09:32:32Z</time>
      </trkpt>
      <trkpt lat="45.66145" lon="6.85551">
        <ele>2016.4</ele>
        <time>2021-03-26T09:32:33Z</time>
      </trkpt>
      <trkpt lat="45.66146" lon="6.85552">
        <ele>2016.2</ele>
        <time>2021-03-26T09:32:34Z</time>
      </trkpt>
      <trkpt lat="45.66146" lon="6.85553">
        <ele>2016.2</ele>
        <time>2021-03-26T09:32:35Z</time>
      </trkpt>
      <trkpt lat="45.66147" lon="6.85554">
        <ele>2016.2</ele>
        <time>2021-03-26T09:32:36Z</time>
      </trkpt>
      <trkpt lat="45.66147" lon="6.85555">
        <ele>2016.2</ele>
        <time>2021-03-26T09:32:37Z</time>
      </trkpt>
      <trkpt lat="45.66148" lon="6.85556">
        <ele>2017.2</ele>
        <time>2021-03-26T09:32:38Z</time>
      </trkpt>
      <trkpt lat="45.66148" lon="6.85556">
        <ele>2017.2</ele>
        <time>2021-03-26T09:32:39Z</time>
      </trkpt>
      <trkpt lat="45.66149" lon="6.85557">
        <ele>2017.2</ele>
        <time>2021-03-26T09:32:40Z</time>
      </trkpt>
      <trkpt lat="45.6615" lon="6.85558">
        <ele>2017.2</ele>
        <time>2021-03-26T09:32:41Z</time>
      </trkpt>
      <trkpt lat="45.6615" lon="6.85559">
        <ele>2017.2</ele>
        <time>2021-03-26T09:32:42Z</time>
      </trkpt>
      <trkpt lat="45.66151" lon="6.8556">
        <ele>2018.1</ele>
        <time>2021-03-26T09:32:43Z</time>
      </trkpt>
      <trkpt lat="45.66152" lon="6.8556">
        <ele>2018.1</ele>
        <time>2021-03-26T09:32:44Z</time>
      </trkpt>
      <trkpt lat="45.66153" lon="6.8556">
        <ele>2018.1</ele>
        <time>2021-03-26T09:32:45Z</time>
      </trkpt>
      <trkpt lat="45.66154" lon="6.8556">
        <ele>2018.1</ele>
        <time>2021-03-26T09:32:46Z</time>
      </trkpt>
      <trkpt lat="45.66154" lon="6.85561">
        <ele>2019.1</ele>
        <time>2021-03-26T09:32:47Z</time>
      </trkpt>
      <trkpt lat="45.66155" lon="6.85562">
        <ele>2019.1</ele>
        <time>2021-03-26T09:32:48Z</time>
      </trkpt>
      <trkpt lat="45.66155" lon="6.85562">
        <ele>2019.1</ele>
        <time>2021-03-26T09:32:49Z</time>
      </trkpt>
      <trkpt lat="45.66156" lon="6.85563">
        <ele>2019.1</ele>
        <time>2021-03-26T09:32:50Z</time>
      </trkpt>
      <trkpt lat="45.66157" lon="6.85564">
        <ele>2020.1</ele>
        <time>2021-03-26T09:32:51Z</time>
      </trkpt>
      <trkpt lat="45.66157" lon="6.85564">
        <ele>2019.9</ele>
        <time>2021-03-26T09:32:52Z</time>
      </trkpt>
      <trkpt lat="45.66158" lon="6.85565">
        <ele>2019.9</ele>
        <time>2021-03-26T09:32:53Z</time>
      </trkpt>
      <trkpt lat="45.66159" lon="6.85566">
        <ele>2019.9</ele>
        <time>2021-03-26T09:32:54Z</time>
      </trkpt>
      <trkpt lat="45.66159" lon="6.85567">
        <ele>2019.9</ele>
        <time>2021-03-26T09:32:55Z</time>
      </trkpt>
      <trkpt lat="45.6616" lon="6.85567">
        <ele>2020.9</ele>
        <time>2021-03-26T09:32:56Z</time>
      </trkpt>
      <trkpt lat="45.6616" lon="6.85568">
        <ele>2020.9</ele>
        <time>2021-03-26T09:32:57Z</time>
      </trkpt>
      <trkpt lat="45.66161" lon="6.85569">
        <ele>2020.6</ele>
        <time>2021-03-26T09:32:58Z</time>
      </trkpt>
      <trkpt lat="45.66161" lon="6.85569">
        <ele>2020.6</ele>
        <time>2021-03-26T09:32:59Z</time>
      </trkpt>
      <trkpt lat="45.66162" lon="6.8557">
        <ele>2020.6</ele>
        <time>2021-03-26T09:33:00Z</time>
      </trkpt>
      <trkpt lat="45.66162" lon="6.85571">
        <ele>2020.6</ele>
        <time>2021-03-26T09:33:01Z</time>
      </trkpt>
      <trkpt lat="45.66163" lon="6.85572">
        <ele>2021.7</ele>
        <time>2021-03-26T09:33:02Z</time>
      </trkpt>
      <trkpt lat="45.66164" lon="6.85572">
        <ele>2021.7</ele>
        <time>2021-03-26T09:33:03Z</time>
      </trkpt>
      <trkpt lat="45.66164" lon="6.85573">
        <ele>2021.3</ele>
        <time>2021-03-26T09:33:04Z</time>
      </trkpt>
      <trkpt lat="45.66165" lon="6.85574">
        <ele>2021.3</ele>
        <time>2021-03-26T09:33:05Z</time>
      </trkpt>
      <trkpt lat="45.66165" lon="6.85575">
        <ele>2021.3</ele>
        <time>2021-03-26T09:33:06Z</time>
      </trkpt>
      <trkpt lat="45.66166" lon="6.85576">
        <ele>2022.4</ele>
        <time>2021-03-26T09:33:07Z</time>
      </trkpt>
      <trkpt lat="45.66166" lon="6.85577">
        <ele>2022.4</ele>
        <time>2021-03-26T09:33:08Z</time>
      </trkpt>
      <trkpt lat="45.66167" lon="6.85578">
        <ele>2022</ele>
        <time>2021-03-26T09:33:09Z</time>
      </trkpt>
      <trkpt lat="45.66168" lon="6.85579">
        <ele>2022</ele>
        <time>2021-03-26T09:33:10Z</time>
      </trkpt>
      <trkpt lat="45.66168" lon="6.8558">
        <ele>2022</ele>
        <time>2021-03-26T09:33:11Z</time>
      </trkpt>
      <trkpt lat="45.66169" lon="6.8558">
        <ele>2023.1</ele>
        <time>2021-03-26T09:33:12Z</time>
      </trkpt>
      <trkpt lat="45.66169" lon="6.85581">
        <ele>2023.1</ele>
        <time>2021-03-26T09:33:13Z</time>
      </trkpt>
      <trkpt lat="45.6617" lon="6.85582">
        <ele>2022.6</ele>
        <time>2021-03-26T09:33:14Z</time>
      </trkpt>
      <trkpt lat="45.6617" lon="6.85582">
        <ele>2022.6</ele>
        <time>2021-03-26T09:33:15Z</time>
      </trkpt>
      <trkpt lat="45.66171" lon="6.85583">
        <ele>2022.6</ele>
        <time>2021-03-26T09:33:16Z</time>
      </trkpt>
      <trkpt lat="45.66171" lon="6.85584">
        <ele>2022.6</ele>
        <time>2021-03-26T09:33:17Z</time>
      </trkpt>
      <trkpt lat="45.66172" lon="6.85584">
        <ele>2023.7</ele>
        <time>2021-03-26T09:33:18Z</time>
      </trkpt>
      <trkpt lat="45.66172" lon="6.85585">
        <ele>2023.7</ele>
        <time>2021-03-26T09:33:19Z</time>
      </trkpt>
      <trkpt lat="45.66173" lon="6.85585">
        <ele>2023.7</ele>
        <time>2021-03-26T09:33:20Z</time>
      </trkpt>
      <trkpt lat="45.66173" lon="6.85585">
        <ele>2023.7</ele>
        <time>2021-03-26T09:33:21Z</time>
      </trkpt>
      <trkpt lat="45.66174" lon="6.85586">
        <ele>2023.2</ele>
        <time>2021-03-26T09:33:22Z</time>
      </trkpt>
      <trkpt lat="45.66175" lon="6.85586">
        <ele>2023.2</ele>
        <time>2021-03-26T09:33:23Z</time>
      </trkpt>
      <trkpt lat="45.66175" lon="6.85587">
        <ele>2024.1</ele>
        <time>2021-03-26T09:33:24Z</time>
      </trkpt>
      <trkpt lat="45.66176" lon="6.85587">
        <ele>2024.1</ele>
        <time>2021-03-26T09:33:25Z</time>
      </trkpt>
      <trkpt lat="45.66176" lon="6.85588">
        <ele>2024.1</ele>
        <time>2021-03-26T09:33:26Z</time>
      </trkpt>
      <trkpt lat="45.66177" lon="6.85588">
        <ele>2024.1</ele>
        <time>2021-03-26T09:33:27Z</time>
      </trkpt>
      <trkpt lat="45.66178" lon="6.85589">
        <ele>2024.9</ele>
        <time>2021-03-26T09:33:28Z</time>
      </trkpt>
      <trkpt lat="45.66179" lon="6.8559">
        <ele>2024.5</ele>
        <time>2021-03-26T09:33:29Z</time>
      </trkpt>
      <trkpt lat="45.66179" lon="6.85591">
        <ele>2024.5</ele>
        <time>2021-03-26T09:33:30Z</time>
      </trkpt>
      <trkpt lat="45.6618" lon="6.85591">
        <ele>2024.5</ele>
        <time>2021-03-26T09:33:31Z</time>
      </trkpt>
      <trkpt lat="45.6618" lon="6.85592">
        <ele>2024.5</ele>
        <time>2021-03-26T09:33:32Z</time>
      </trkpt>
      <trkpt lat="45.66181" lon="6.85592">
        <ele>2025.3</ele>
        <time>2021-03-26T09:33:33Z</time>
      </trkpt>
      <trkpt lat="45.66182" lon="6.85592">
        <ele>2025.3</ele>
        <time>2021-03-26T09:33:34Z</time>
      </trkpt>
      <trkpt lat="45.66182" lon="6.85593">
        <ele>2025.3</ele>
        <time>2021-03-26T09:33:35Z</time>
      </trkpt>
      <trkpt lat="45.66183" lon="6.85593">
        <ele>2025.3</ele>
        <time>2021-03-26T09:33:36Z</time>
      </trkpt>
      <trkpt lat="45.66184" lon="6.85593">
        <ele>2025.3</ele>
        <time>2021-03-26T09:33:37Z</time>
      </trkpt>
      <trkpt lat="45.66184" lon="6.85593">
        <ele>2026.1</ele>
        <time>2021-03-26T09:33:38Z</time>
      </trkpt>
      <trkpt lat="45.66185" lon="6.85594">
        <ele>2026.1</ele>
        <time>2021-03-26T09:33:39Z</time>
      </trkpt>
      <trkpt lat="45.66186" lon="6.85594">
        <ele>2026.1</ele>
        <time>2021-03-26T09:33:40Z</time>
      </trkpt>
      <trkpt lat="45.66186" lon="6.85594">
        <ele>2025.7</ele>
        <time>2021-03-26T09:33:41Z</time>
      </trkpt>
      <trkpt lat="45.66187" lon="6.85595">
        <ele>2026.6</ele>
        <time>2021-03-26T09:33:42Z</time>
      </trkpt>
      <trkpt lat="45.66188" lon="6.85595">
        <ele>2026.6</ele>
        <time>2021-03-26T09:33:43Z</time>
      </trkpt>
      <trkpt lat="45.66189" lon="6.85595">
        <ele>2026.6</ele>
        <time>2021-03-26T09:33:44Z</time>
      </trkpt>
      <trkpt lat="45.66189" lon="6.85596">
        <ele>2026.6</ele>
        <time>2021-03-26T09:33:45Z</time>
      </trkpt>
      <trkpt lat="45.6619" lon="6.85596">
        <ele>2027.7</ele>
        <time>2021-03-26T09:33:46Z</time>
      </trkpt>
      <trkpt lat="45.66191" lon="6.85596">
        <ele>2027.7</ele>
        <time>2021-03-26T09:33:47Z</time>
      </trkpt>
      <trkpt lat="45.66191" lon="6.85596">
        <ele>2027.7</ele>
        <time>2021-03-26T09:33:48Z</time>
      </trkpt>
      <trkpt lat="45.66192" lon="6.85597">
        <ele>2027.7</ele>
        <time>2021-03-26T09:33:49Z</time>
      </trkpt>
      <trkpt lat="45.66192" lon="6.85597">
        <ele>2027.7</ele>
        <time>2021-03-26T09:33:50Z</time>
      </trkpt>
      <trkpt lat="45.66192" lon="6.85597">
        <ele>2027.7</ele>
        <time>2021-03-26T09:33:51Z</time>
      </trkpt>
      <trkpt lat="45.66192" lon="6.85597">
        <ele>2027.7</ele>
        <time>2021-03-26T09:33:52Z</time>
      </trkpt>
      <trkpt lat="45.66192" lon="6.85597">
        <ele>2027.7</ele>
        <time>2021-03-26T09:33:53Z</time>
      </trkpt>
      <trkpt lat="45.66192" lon="6.85597">
        <ele>2027.7</ele>
        <time>2021-03-26T09:33:54Z</time>
      </trkpt>
      <trkpt lat="45.66192" lon="6.85597">
        <ele>2027.7</ele>
        <time>2021-03-26T09:33:55Z</time>
      </trkpt>
      <trkpt lat="45.66192" lon="6.85597">
        <ele>2027.7</ele>
        <time>2021-03-26T09:33:56Z</time>
      </trkpt>
      <trkpt lat="45.66192" lon="6.85597">
        <ele>2027.7</ele>
        <time>2021-03-26T09:33:57Z</time>
      </trkpt>
      <trkpt lat="45.66192" lon="6.85597">
        <ele>2027.7</ele>
        <time>2021-03-26T09:33:58Z</time>
      </trkpt>
      <trkpt lat="45.66192" lon="6.85597">
        <ele>2027.7</ele>
        <time>2021-03-26T09:33:59Z</time>
      </trkpt>
      <trkpt lat="45.66202" lon="6.85594">
        <ele>2032.2</ele>
        <time>2021-03-26T09:34:27Z</time>
      </trkpt>
      <trkpt lat="45.66203" lon="6.85593">
        <ele>2032.2</ele>
        <time>2021-03-26T09:34:28Z</time>
      </trkpt>
      <trkpt lat="45.66203" lon="6.85593">
        <ele>2032.2</ele>
        <time>2021-03-26T09:34:29Z</time>
      </trkpt>
      <trkpt lat="45.66204" lon="6.85592">
        <ele>2032.2</ele>
        <time>2021-03-26T09:34:30Z</time>
      </trkpt>
      <trkpt lat="45.66205" lon="6.85592">
        <ele>2033.1</ele>
        <time>2021-03-26T09:34:31Z</time>
      </trkpt>
      <trkpt lat="45.66206" lon="6.85591">
        <ele>2033.1</ele>
        <time>2021-03-26T09:34:32Z</time>
      </trkpt>
      <trkpt lat="45.66207" lon="6.85591">
        <ele>2033.1</ele>
        <time>2021-03-26T09:34:33Z</time>
      </trkpt>
      <trkpt lat="45.66208" lon="6.85591">
        <ele>2033.1</ele>
        <time>2021-03-26T09:34:34Z</time>
      </trkpt>
      <trkpt lat="45.66208" lon="6.8559">
        <ele>2034.1</ele>
        <time>2021-03-26T09:34:35Z</time>
      </trkpt>
      <trkpt lat="45.66209" lon="6.8559">
        <ele>2034.1</ele>
        <time>2021-03-26T09:34:36Z</time>
      </trkpt>
      <trkpt lat="45.6621" lon="6.8559">
        <ele>2034.1</ele>
        <time>2021-03-26T09:34:37Z</time>
      </trkpt>
      <trkpt lat="45.6621" lon="6.8559">
        <ele>2034.1</ele>
        <time>2021-03-26T09:34:38Z</time>
      </trkpt>
      <trkpt lat="45.66211" lon="6.8559">
        <ele>2035</ele>
        <time>2021-03-26T09:34:39Z</time>
      </trkpt>
      <trkpt lat="45.66212" lon="6.8559">
        <ele>2035</ele>
        <time>2021-03-26T09:34:40Z</time>
      </trkpt>
      <trkpt lat="45.66213" lon="6.8559">
        <ele>2035</ele>
        <time>2021-03-26T09:34:41Z</time>
      </trkpt>
      <trkpt lat="45.66214" lon="6.8559">
        <ele>2035.6</ele>
        <time>2021-03-26T09:34:42Z</time>
      </trkpt>
      <trkpt lat="45.66214" lon="6.8559">
        <ele>2036.6</ele>
        <time>2021-03-26T09:34:43Z</time>
      </trkpt>
      <trkpt lat="45.66215" lon="6.8559">
        <ele>2036.6</ele>
        <time>2021-03-26T09:34:44Z</time>
      </trkpt>
      <trkpt lat="45.66216" lon="6.8559">
        <ele>2036.1</ele>
        <time>2021-03-26T09:34:45Z</time>
      </trkpt>
      <trkpt lat="45.66216" lon="6.8559">
        <ele>2036.1</ele>
        <time>2021-03-26T09:34:46Z</time>
      </trkpt>
      <trkpt lat="45.66217" lon="6.8559">
        <ele>2037.2</ele>
        <time>2021-03-26T09:34:47Z</time>
      </trkpt>
      <trkpt lat="45.66218" lon="6.8559">
        <ele>2037.2</ele>
        <time>2021-03-26T09:34:48Z</time>
      </trkpt>
      <trkpt lat="45.66219" lon="6.8559">
        <ele>2037.8</ele>
        <time>2021-03-26T09:34:49Z</time>
      </trkpt>
      <trkpt lat="45.66219" lon="6.85589">
        <ele>2037.8</ele>
        <time>2021-03-26T09:34:50Z</time>
      </trkpt>
      <trkpt lat="45.6622" lon="6.85589">
        <ele>2038.9</ele>
        <time>2021-03-26T09:34:51Z</time>
      </trkpt>
      <trkpt lat="45.66221" lon="6.85588">
        <ele>2038.9</ele>
        <time>2021-03-26T09:34:52Z</time>
      </trkpt>
      <trkpt lat="45.66221" lon="6.85588">
        <ele>2038.9</ele>
        <time>2021-03-26T09:34:53Z</time>
      </trkpt>
      <trkpt lat="45.66222" lon="6.85588">
        <ele>2038.9</ele>
        <time>2021-03-26T09:34:54Z</time>
      </trkpt>
      <trkpt lat="45.66222" lon="6.85588">
        <ele>2038.9</ele>
        <time>2021-03-26T09:34:55Z</time>
      </trkpt>
      <trkpt lat="45.66223" lon="6.85588">
        <ele>2040.1</ele>
        <time>2021-03-26T09:34:56Z</time>
      </trkpt>
      <trkpt lat="45.66224" lon="6.85588">
        <ele>2040.1</ele>
        <time>2021-03-26T09:34:57Z</time>
      </trkpt>
      <trkpt lat="45.66225" lon="6.85589">
        <ele>2040.1</ele>
        <time>2021-03-26T09:34:58Z</time>
      </trkpt>
      <trkpt lat="45.66225" lon="6.85589">
        <ele>2040.1</ele>
        <time>2021-03-26T09:34:59Z</time>
      </trkpt>
      <trkpt lat="45.66226" lon="6.85589">
        <ele>2041.2</ele>
        <time>2021-03-26T09:35:00Z</time>
      </trkpt>
      <trkpt lat="45.66227" lon="6.8559">
        <ele>2041.2</ele>
        <time>2021-03-26T09:35:01Z</time>
      </trkpt>
      <trkpt lat="45.66227" lon="6.8559">
        <ele>2040.5</ele>
        <time>2021-03-26T09:35:02Z</time>
      </trkpt>
      <trkpt lat="45.66228" lon="6.85591">
        <ele>2040.5</ele>
        <time>2021-03-26T09:35:03Z</time>
      </trkpt>
      <trkpt lat="45.66229" lon="6.85592">
        <ele>2040.5</ele>
        <time>2021-03-26T09:35:04Z</time>
      </trkpt>
      <trkpt lat="45.66229" lon="6.85592">
        <ele>2041.6</ele>
        <time>2021-03-26T09:35:05Z</time>
      </trkpt>
      <trkpt lat="45.6623" lon="6.85593">
        <ele>2041.6</ele>
        <time>2021-03-26T09:35:06Z</time>
      </trkpt>
      <trkpt lat="45.66231" lon="6.85594">
        <ele>2041.6</ele>
        <time>2021-03-26T09:35:07Z</time>
      </trkpt>
      <trkpt lat="45.66231" lon="6.85594">
        <ele>2040.9</ele>
        <time>2021-03-26T09:35:08Z</time>
      </trkpt>
      <trkpt lat="45.66232" lon="6.85595">
        <ele>2042</ele>
        <time>2021-03-26T09:35:09Z</time>
      </trkpt>
      <trkpt lat="45.66233" lon="6.85595">
        <ele>2042</ele>
        <time>2021-03-26T09:35:10Z</time>
      </trkpt>
      <trkpt lat="45.66233" lon="6.85596">
        <ele>2042</ele>
        <time>2021-03-26T09:35:11Z</time>
      </trkpt>
      <trkpt lat="45.66234" lon="6.85596">
        <ele>2042</ele>
        <time>2021-03-26T09:35:12Z</time>
      </trkpt>
      <trkpt lat="45.66235" lon="6.85597">
        <ele>2042</ele>
        <time>2021-03-26T09:35:13Z</time>
      </trkpt>
      <trkpt lat="45.66235" lon="6.85597">
        <ele>2043.1</ele>
        <time>2021-03-26T09:35:14Z</time>
      </trkpt>
      <trkpt lat="45.66236" lon="6.85598">
        <ele>2043.1</ele>
        <time>2021-03-26T09:35:15Z</time>
      </trkpt>
      <trkpt lat="45.66237" lon="6.85598">
        <ele>2043.1</ele>
        <time>2021-03-26T09:35:16Z</time>
      </trkpt>
      <trkpt lat="45.66237" lon="6.85598">
        <ele>2043.1</ele>
        <time>2021-03-26T09:35:17Z</time>
      </trkpt>
      <trkpt lat="45.66238" lon="6.85599">
        <ele>2042.4</ele>
        <time>2021-03-26T09:35:18Z</time>
      </trkpt>
      <trkpt lat="45.66238" lon="6.85599">
        <ele>2043.4</ele>
        <time>2021-03-26T09:35:19Z</time>
      </trkpt>
      <trkpt lat="45.66239" lon="6.85599">
        <ele>2043.4</ele>
        <time>2021-03-26T09:35:20Z</time>
      </trkpt>
      <trkpt lat="45.6624" lon="6.856">
        <ele>2043.4</ele>
        <time>2021-03-26T09:35:21Z</time>
      </trkpt>
      <trkpt lat="45.6624" lon="6.856">
        <ele>2043.4</ele>
        <time>2021-03-26T09:35:22Z</time>
      </trkpt>
      <trkpt lat="45.66241" lon="6.85601">
        <ele>2044.5</ele>
        <time>2021-03-26T09:35:23Z</time>
      </trkpt>
      <trkpt lat="45.66242" lon="6.85601">
        <ele>2044.5</ele>
        <time>2021-03-26T09:35:24Z</time>
      </trkpt>
      <trkpt lat="45.66242" lon="6.85601">
        <ele>2044.5</ele>
        <time>2021-03-26T09:35:25Z</time>
      </trkpt>
      <trkpt lat="45.66243" lon="6.85602">
        <ele>2044.5</ele>
        <time>2021-03-26T09:35:26Z</time>
      </trkpt>
      <trkpt lat="45.66244" lon="6.85602">
        <ele>2044.5</ele>
        <time>2021-03-26T09:35:27Z</time>
      </trkpt>
      <trkpt lat="45.66244" lon="6.85603">
        <ele>2045.6</ele>
        <time>2021-03-26T09:35:28Z</time>
      </trkpt>
      <trkpt lat="45.66245" lon="6.85603">
        <ele>2044.9</ele>
        <time>2021-03-26T09:35:29Z</time>
      </trkpt>
      <trkpt lat="45.66245" lon="6.85604">
        <ele>2044.9</ele>
        <time>2021-03-26T09:35:30Z</time>
      </trkpt>
      <trkpt lat="45.66246" lon="6.85604">
        <ele>2044.9</ele>
        <time>2021-03-26T09:35:31Z</time>
      </trkpt>
      <trkpt lat="45.66247" lon="6.85604">
        <ele>2046.2</ele>
        <time>2021-03-26T09:35:32Z</time>
      </trkpt>
      <trkpt lat="45.66247" lon="6.85605">
        <ele>2046.2</ele>
        <time>2021-03-26T09:35:33Z</time>
      </trkpt>
      <trkpt lat="45.66248" lon="6.85605">
        <ele>2046.2</ele>
        <time>2021-03-26T09:35:34Z</time>
      </trkpt>
      <trkpt lat="45.66249" lon="6.85605">
        <ele>2046.2</ele>
        <time>2021-03-26T09:35:35Z</time>
      </trkpt>
      <trkpt lat="45.66249" lon="6.85606">
        <ele>2046.2</ele>
        <time>2021-03-26T09:35:36Z</time>
      </trkpt>
      <trkpt lat="45.6625" lon="6.85606">
        <ele>2047.4</ele>
        <time>2021-03-26T09:35:37Z</time>
      </trkpt>
      <trkpt lat="45.66251" lon="6.85606">
        <ele>2047.4</ele>
        <time>2021-03-26T09:35:38Z</time>
      </trkpt>
      <trkpt lat="45.66251" lon="6.85606">
        <ele>2047.4</ele>
        <time>2021-03-26T09:35:39Z</time>
      </trkpt>
      <trkpt lat="45.66252" lon="6.85607">
        <ele>2047.4</ele>
        <time>2021-03-26T09:35:40Z</time>
      </trkpt>
      <trkpt lat="45.66253" lon="6.85607">
        <ele>2047.4</ele>
        <time>2021-03-26T09:35:41Z</time>
      </trkpt>
      <trkpt lat="45.66253" lon="6.85607">
        <ele>2048.7</ele>
        <time>2021-03-26T09:35:42Z</time>
      </trkpt>
      <trkpt lat="45.66254" lon="6.85607">
        <ele>2048.7</ele>
        <time>2021-03-26T09:35:43Z</time>
      </trkpt>
      <trkpt lat="45.66255" lon="6.85607">
        <ele>2048.7</ele>
        <time>2021-03-26T09:35:44Z</time>
      </trkpt>
      <trkpt lat="45.66255" lon="6.85607">
        <ele>2048.7</ele>
        <time>2021-03-26T09:35:45Z</time>
      </trkpt>
      <trkpt lat="45.66256" lon="6.85607">
        <ele>2049.3</ele>
        <time>2021-03-26T09:35:46Z</time>
      </trkpt>
      <trkpt lat="45.66256" lon="6.85608">
        <ele>2049.3</ele>
        <time>2021-03-26T09:35:47Z</time>
      </trkpt>
      <trkpt lat="45.66257" lon="6.85608">
        <ele>2049.3</ele>
        <time>2021-03-26T09:35:48Z</time>
      </trkpt>
      <trkpt lat="45.66258" lon="6.85608">
        <ele>2049.3</ele>
        <time>2021-03-26T09:35:49Z</time>
      </trkpt>
      <trkpt lat="45.66258" lon="6.85608">
        <ele>2049.3</ele>
        <time>2021-03-26T09:35:50Z</time>
      </trkpt>
      <trkpt lat="45.66259" lon="6.85608">
        <ele>2050.4</ele>
        <time>2021-03-26T09:35:51Z</time>
      </trkpt>
      <trkpt lat="45.6626" lon="6.85608">
        <ele>2050.4</ele>
        <time>2021-03-26T09:35:52Z</time>
      </trkpt>
      <trkpt lat="45.6626" lon="6.85608">
        <ele>2050.4</ele>
        <time>2021-03-26T09:35:53Z</time>
      </trkpt>
      <trkpt lat="45.66261" lon="6.85608">
        <ele>2050.4</ele>
        <time>2021-03-26T09:35:54Z</time>
      </trkpt>
      <trkpt lat="45.66262" lon="6.85608">
        <ele>2051.5</ele>
        <time>2021-03-26T09:35:55Z</time>
      </trkpt>
      <trkpt lat="45.66263" lon="6.85608">
        <ele>2051.5</ele>
        <time>2021-03-26T09:35:56Z</time>
      </trkpt>
      <trkpt lat="45.66263" lon="6.85608">
        <ele>2051.5</ele>
        <time>2021-03-26T09:35:57Z</time>
      </trkpt>
      <trkpt lat="45.66264" lon="6.85608">
        <ele>2051.5</ele>
        <time>2021-03-26T09:35:58Z</time>
      </trkpt>
      <trkpt lat="45.66265" lon="6.85608">
        <ele>2052.6</ele>
        <time>2021-03-26T09:35:59Z</time>
      </trkpt>
      <trkpt lat="45.66266" lon="6.85609">
        <ele>2052.6</ele>
        <time>2021-03-26T09:36:00Z</time>
      </trkpt>
      <trkpt lat="45.66266" lon="6.85609">
        <ele>2052.6</ele>
        <time>2021-03-26T09:36:01Z</time>
      </trkpt>
      <trkpt lat="45.66267" lon="6.85609">
        <ele>2052.6</ele>
        <time>2021-03-26T09:36:02Z</time>
      </trkpt>
      <trkpt lat="45.66268" lon="6.85609">
        <ele>2053.7</ele>
        <time>2021-03-26T09:36:03Z</time>
      </trkpt>
      <trkpt lat="45.66269" lon="6.8561">
        <ele>2053.7</ele>
        <time>2021-03-26T09:36:04Z</time>
      </trkpt>
      <trkpt lat="45.66269" lon="6.8561">
        <ele>2053.7</ele>
        <time>2021-03-26T09:36:05Z</time>
      </trkpt>
      <trkpt lat="45.6627" lon="6.8561">
        <ele>2053.7</ele>
        <time>2021-03-26T09:36:06Z</time>
      </trkpt>
      <trkpt lat="45.66271" lon="6.8561">
        <ele>2054.9</ele>
        <time>2021-03-26T09:36:07Z</time>
      </trkpt>
      <trkpt lat="45.66272" lon="6.8561">
        <ele>2054.9</ele>
        <time>2021-03-26T09:36:08Z</time>
      </trkpt>
      <trkpt lat="45.66272" lon="6.85611">
        <ele>2054.9</ele>
        <time>2021-03-26T09:36:09Z</time>
      </trkpt>
      <trkpt lat="45.66273" lon="6.85611">
        <ele>2054.9</ele>
        <time>2021-03-26T09:36:10Z</time>
      </trkpt>
      <trkpt lat="45.66274" lon="6.85611">
        <ele>2056.2</ele>
        <time>2021-03-26T09:36:11Z</time>
      </trkpt>
      <trkpt lat="45.66275" lon="6.85611">
        <ele>2056.2</ele>
        <time>2021-03-26T09:36:12Z</time>
      </trkpt>
      <trkpt lat="45.66275" lon="6.85611">
        <ele>2056.2</ele>
        <time>2021-03-26T09:36:13Z</time>
      </trkpt>
      <trkpt lat="45.66276" lon="6.85611">
        <ele>2055.5</ele>
        <time>2021-03-26T09:36:14Z</time>
      </trkpt>
      <trkpt lat="45.66277" lon="6.85611">
        <ele>2056.8</ele>
        <time>2021-03-26T09:36:15Z</time>
      </trkpt>
      <trkpt lat="45.66278" lon="6.85611">
        <ele>2056.8</ele>
        <time>2021-03-26T09:36:16Z</time>
      </trkpt>
      <trkpt lat="45.66279" lon="6.85612">
        <ele>2056.8</ele>
        <time>2021-03-26T09:36:17Z</time>
      </trkpt>
      <trkpt lat="45.66279" lon="6.85612">
        <ele>2056.8</ele>
        <time>2021-03-26T09:36:18Z</time>
      </trkpt>
      <trkpt lat="45.6628" lon="6.85612">
        <ele>2058.1</ele>
        <time>2021-03-26T09:36:19Z</time>
      </trkpt>
      <trkpt lat="45.66281" lon="6.85613">
        <ele>2058.1</ele>
        <time>2021-03-26T09:36:20Z</time>
      </trkpt>
      <trkpt lat="45.66282" lon="6.85613">
        <ele>2058.1</ele>
        <time>2021-03-26T09:36:21Z</time>
      </trkpt>
      <trkpt lat="45.66282" lon="6.85614">
        <ele>2058.1</ele>
        <time>2021-03-26T09:36:22Z</time>
      </trkpt>
      <trkpt lat="45.66283" lon="6.85614">
        <ele>2059.3</ele>
        <time>2021-03-26T09:36:23Z</time>
      </trkpt>
      <trkpt lat="45.66284" lon="6.85615">
        <ele>2059.3</ele>
        <time>2021-03-26T09:36:24Z</time>
      </trkpt>
      <trkpt lat="45.66285" lon="6.85615">
        <ele>2059.3</ele>
        <time>2021-03-26T09:36:25Z</time>
      </trkpt>
      <trkpt lat="45.66285" lon="6.85616">
        <ele>2059.3</ele>
        <time>2021-03-26T09:36:26Z</time>
      </trkpt>
      <trkpt lat="45.66286" lon="6.85616">
        <ele>2059.7</ele>
        <time>2021-03-26T09:36:27Z</time>
      </trkpt>
      <trkpt lat="45.66287" lon="6.85616">
        <ele>2059.7</ele>
        <time>2021-03-26T09:36:28Z</time>
      </trkpt>
      <trkpt lat="45.66287" lon="6.85617">
        <ele>2059.7</ele>
        <time>2021-03-26T09:36:29Z</time>
      </trkpt>
      <trkpt lat="45.66288" lon="6.85618">
        <ele>2059.7</ele>
        <time>2021-03-26T09:36:30Z</time>
      </trkpt>
      <trkpt lat="45.66288" lon="6.85618">
        <ele>2059.7</ele>
        <time>2021-03-26T09:36:31Z</time>
      </trkpt>
      <trkpt lat="45.66289" lon="6.85618">
        <ele>2060.7</ele>
        <time>2021-03-26T09:36:32Z</time>
      </trkpt>
      <trkpt lat="45.66289" lon="6.85619">
        <ele>2060.7</ele>
        <time>2021-03-26T09:36:33Z</time>
      </trkpt>
      <trkpt lat="45.6629" lon="6.85619">
        <ele>2060.7</ele>
        <time>2021-03-26T09:36:34Z</time>
      </trkpt>
      <trkpt lat="45.66291" lon="6.8562">
        <ele>2060</ele>
        <time>2021-03-26T09:36:35Z</time>
      </trkpt>
      <trkpt lat="45.66291" lon="6.85621">
        <ele>2060</ele>
        <time>2021-03-26T09:36:36Z</time>
      </trkpt>
      <trkpt lat="45.66292" lon="6.85621">
        <ele>2060</ele>
        <time>2021-03-26T09:36:37Z</time>
      </trkpt>
      <trkpt lat="45.66292" lon="6.85622">
        <ele>2061</ele>
        <time>2021-03-26T09:36:38Z</time>
      </trkpt>
      <trkpt lat="45.66293" lon="6.85623">
        <ele>2061</ele>
        <time>2021-03-26T09:36:39Z</time>
      </trkpt>
      <trkpt lat="45.66293" lon="6.85623">
        <ele>2061</ele>
        <time>2021-03-26T09:36:40Z</time>
      </trkpt>
      <trkpt lat="45.66294" lon="6.85624">
        <ele>2061</ele>
        <time>2021-03-26T09:36:41Z</time>
      </trkpt>
      <trkpt lat="45.66294" lon="6.85624">
        <ele>2060.3</ele>
        <time>2021-03-26T09:36:42Z</time>
      </trkpt>
      <trkpt lat="45.66295" lon="6.85625">
        <ele>2061.3</ele>
        <time>2021-03-26T09:36:43Z</time>
      </trkpt>
      <trkpt lat="45.66295" lon="6.85625">
        <ele>2061.3</ele>
        <time>2021-03-26T09:36:44Z</time>
      </trkpt>
      <trkpt lat="45.66296" lon="6.85626">
        <ele>2061.3</ele>
        <time>2021-03-26T09:36:45Z</time>
      </trkpt>
      <trkpt lat="45.66296" lon="6.85627">
        <ele>2061.3</ele>
        <time>2021-03-26T09:36:46Z</time>
      </trkpt>
      <trkpt lat="45.66297" lon="6.85627">
        <ele>2061.3</ele>
        <time>2021-03-26T09:36:47Z</time>
      </trkpt>
      <trkpt lat="45.66297" lon="6.85628">
        <ele>2061.3</ele>
        <time>2021-03-26T09:36:48Z</time>
      </trkpt>
      <trkpt lat="45.66298" lon="6.85629">
        <ele>2061.7</ele>
        <time>2021-03-26T09:36:49Z</time>
      </trkpt>
      <trkpt lat="45.66298" lon="6.85629">
        <ele>2061.7</ele>
        <time>2021-03-26T09:36:50Z</time>
      </trkpt>
      <trkpt lat="45.66299" lon="6.8563">
        <ele>2061.7</ele>
        <time>2021-03-26T09:36:51Z</time>
      </trkpt>
      <trkpt lat="45.66299" lon="6.8563">
        <ele>2061.7</ele>
        <time>2021-03-26T09:36:52Z</time>
      </trkpt>
      <trkpt lat="45.663" lon="6.85631">
        <ele>2061.7</ele>
        <time>2021-03-26T09:36:53Z</time>
      </trkpt>
      <trkpt lat="45.663" lon="6.85632">
        <ele>2061.7</ele>
        <time>2021-03-26T09:36:54Z</time>
      </trkpt>
      <trkpt lat="45.66301" lon="6.85633">
        <ele>2062.8</ele>
        <time>2021-03-26T09:36:55Z</time>
      </trkpt>
      <trkpt lat="45.66301" lon="6.85633">
        <ele>2062.1</ele>
        <time>2021-03-26T09:36:56Z</time>
      </trkpt>
      <trkpt lat="45.66302" lon="6.85634">
        <ele>2062.1</ele>
        <time>2021-03-26T09:36:57Z</time>
      </trkpt>
      <trkpt lat="45.66302" lon="6.85634">
        <ele>2062.1</ele>
        <time>2021-03-26T09:36:58Z</time>
      </trkpt>
      <trkpt lat="45.66302" lon="6.85635">
        <ele>2062.1</ele>
        <time>2021-03-26T09:36:59Z</time>
      </trkpt>
      <trkpt lat="45.66303" lon="6.85636">
        <ele>2062.1</ele>
        <time>2021-03-26T09:37:00Z</time>
      </trkpt>
      <trkpt lat="45.66303" lon="6.85636">
        <ele>2062.1</ele>
        <time>2021-03-26T09:37:01Z</time>
      </trkpt>
      <trkpt lat="45.66304" lon="6.85637">
        <ele>2063.1</ele>
        <time>2021-03-26T09:37:02Z</time>
      </trkpt>
      <trkpt lat="45.66304" lon="6.85638">
        <ele>2062.5</ele>
        <time>2021-03-26T09:37:03Z</time>
      </trkpt>
      <trkpt lat="45.66305" lon="6.85638">
        <ele>2062.5</ele>
        <time>2021-03-26T09:37:04Z</time>
      </trkpt>
      <trkpt lat="45.66305" lon="6.85639">
        <ele>2062.5</ele>
        <time>2021-03-26T09:37:05Z</time>
      </trkpt>
      <trkpt lat="45.66306" lon="6.85639">
        <ele>2062.5</ele>
        <time>2021-03-26T09:37:06Z</time>
      </trkpt>
      <trkpt lat="45.66307" lon="6.8564">
        <ele>2062.5</ele>
        <time>2021-03-26T09:37:07Z</time>
      </trkpt>
      <trkpt lat="45.66307" lon="6.8564">
        <ele>2063.5</ele>
        <time>2021-03-26T09:37:08Z</time>
      </trkpt>
      <trkpt lat="45.66308" lon="6.85641">
        <ele>2063.5</ele>
        <time>2021-03-26T09:37:09Z</time>
      </trkpt>
      <trkpt lat="45.66308" lon="6.85641">
        <ele>2063.5</ele>
        <time>2021-03-26T09:37:10Z</time>
      </trkpt>
      <trkpt lat="45.66309" lon="6.85641">
        <ele>2062.8</ele>
        <time>2021-03-26T09:37:11Z</time>
      </trkpt>
      <trkpt lat="45.66309" lon="6.85642">
        <ele>2062.8</ele>
        <time>2021-03-26T09:37:12Z</time>
      </trkpt>
      <trkpt lat="45.6631" lon="6.85642">
        <ele>2063.8</ele>
        <time>2021-03-26T09:37:13Z</time>
      </trkpt>
      <trkpt lat="45.6631" lon="6.85643">
        <ele>2063.8</ele>
        <time>2021-03-26T09:37:14Z</time>
      </trkpt>
      <trkpt lat="45.66311" lon="6.85643">
        <ele>2063.8</ele>
        <time>2021-03-26T09:37:15Z</time>
      </trkpt>
      <trkpt lat="45.66311" lon="6.85644">
        <ele>2063.8</ele>
        <time>2021-03-26T09:37:16Z</time>
      </trkpt>
      <trkpt lat="45.66312" lon="6.85644">
        <ele>2063.8</ele>
        <time>2021-03-26T09:37:17Z</time>
      </trkpt>
      <trkpt lat="45.66312" lon="6.85645">
        <ele>2063.8</ele>
        <time>2021-03-26T09:37:18Z</time>
      </trkpt>
      <trkpt lat="45.66313" lon="6.85645">
        <ele>2063.8</ele>
        <time>2021-03-26T09:37:19Z</time>
      </trkpt>
      <trkpt lat="45.66313" lon="6.85645">
        <ele>2064.7</ele>
        <time>2021-03-26T09:37:20Z</time>
      </trkpt>
      <trkpt lat="45.66314" lon="6.85645">
        <ele>2064.7</ele>
        <time>2021-03-26T09:37:21Z</time>
      </trkpt>
      <trkpt lat="45.66315" lon="6.85645">
        <ele>2064.7</ele>
        <time>2021-03-26T09:37:22Z</time>
      </trkpt>
      <trkpt lat="45.66315" lon="6.85645">
        <ele>2064.7</ele>
        <time>2021-03-26T09:37:23Z</time>
      </trkpt>
      <trkpt lat="45.66316" lon="6.85644">
        <ele>2065.5</ele>
        <time>2021-03-26T09:37:24Z</time>
      </trkpt>
      <trkpt lat="45.66317" lon="6.85644">
        <ele>2065.5</ele>
        <time>2021-03-26T09:37:25Z</time>
      </trkpt>
      <trkpt lat="45.66317" lon="6.85644">
        <ele>2065.5</ele>
        <time>2021-03-26T09:37:26Z</time>
      </trkpt>
      <trkpt lat="45.66318" lon="6.85644">
        <ele>2065.5</ele>
        <time>2021-03-26T09:37:27Z</time>
      </trkpt>
      <trkpt lat="45.66318" lon="6.85644">
        <ele>2065.5</ele>
        <time>2021-03-26T09:37:28Z</time>
      </trkpt>
      <trkpt lat="45.66319" lon="6.85643">
        <ele>2066.4</ele>
        <time>2021-03-26T09:37:29Z</time>
      </trkpt>
      <trkpt lat="45.66319" lon="6.85643">
        <ele>2066.4</ele>
        <time>2021-03-26T09:37:30Z</time>
      </trkpt>
      <trkpt lat="45.66319" lon="6.85643">
        <ele>2066.4</ele>
        <time>2021-03-26T09:37:31Z</time>
      </trkpt>
      <trkpt lat="45.6632" lon="6.85643">
        <ele>2066.4</ele>
        <time>2021-03-26T09:37:32Z</time>
      </trkpt>
      <trkpt lat="45.6632" lon="6.85643">
        <ele>2066.4</ele>
        <time>2021-03-26T09:37:33Z</time>
      </trkpt>
      <trkpt lat="45.6632" lon="6.85643">
        <ele>2066.4</ele>
        <time>2021-03-26T09:37:34Z</time>
      </trkpt>
      <trkpt lat="45.6632" lon="6.85643">
        <ele>2066.4</ele>
        <time>2021-03-26T09:37:35Z</time>
      </trkpt>
      <trkpt lat="45.6632" lon="6.85643">
        <ele>2066.4</ele>
        <time>2021-03-26T09:37:36Z</time>
      </trkpt>
      <trkpt lat="45.6632" lon="6.85643">
        <ele>2066.4</ele>
        <time>2021-03-26T09:37:37Z</time>
      </trkpt>
      <trkpt lat="45.66323" lon="6.85641">
        <ele>2067.9</ele>
        <time>2021-03-26T09:37:43Z</time>
      </trkpt>
      <trkpt lat="45.66324" lon="6.85641">
        <ele>2067.9</ele>
        <time>2021-03-26T09:37:44Z</time>
      </trkpt>
      <trkpt lat="45.66325" lon="6.8564">
        <ele>2067.9</ele>
        <time>2021-03-26T09:37:45Z</time>
      </trkpt>
      <trkpt lat="45.66325" lon="6.8564">
        <ele>2068.8</ele>
        <time>2021-03-26T09:37:46Z</time>
      </trkpt>
      <trkpt lat="45.66326" lon="6.8564">
        <ele>2068.8</ele>
        <time>2021-03-26T09:37:47Z</time>
      </trkpt>
      <trkpt lat="45.66327" lon="6.8564">
        <ele>2068.8</ele>
        <time>2021-03-26T09:37:48Z</time>
      </trkpt>
      <trkpt lat="45.66327" lon="6.8564">
        <ele>2068.8</ele>
        <time>2021-03-26T09:37:49Z</time>
      </trkpt>
      <trkpt lat="45.66328" lon="6.85639">
        <ele>2069.7</ele>
        <time>2021-03-26T09:37:50Z</time>
      </trkpt>
      <trkpt lat="45.66329" lon="6.85639">
        <ele>2069.7</ele>
        <time>2021-03-26T09:37:51Z</time>
      </trkpt>
      <trkpt lat="45.6633" lon="6.85639">
        <ele>2069.7</ele>
        <time>2021-03-26T09:37:52Z</time>
      </trkpt>
      <trkpt lat="45.66331" lon="6.85639">
        <ele>2069.7</ele>
        <time>2021-03-26T09:37:53Z</time>
      </trkpt>
      <trkpt lat="45.66331" lon="6.85639">
        <ele>2070.7</ele>
        <time>2021-03-26T09:37:54Z</time>
      </trkpt>
      <trkpt lat="45.66332" lon="6.85639">
        <ele>2070.7</ele>
        <time>2021-03-26T09:37:55Z</time>
      </trkpt>
      <trkpt lat="45.66333" lon="6.85639">
        <ele>2070.7</ele>
        <time>2021-03-26T09:37:56Z</time>
      </trkpt>
      <trkpt lat="45.66334" lon="6.85639">
        <ele>2070.7</ele>
        <time>2021-03-26T09:37:57Z</time>
      </trkpt>
      <trkpt lat="45.66334" lon="6.85639">
        <ele>2071.7</ele>
        <time>2021-03-26T09:37:58Z</time>
      </trkpt>
      <trkpt lat="45.66335" lon="6.85639">
        <ele>2071.7</ele>
        <time>2021-03-26T09:37:59Z</time>
      </trkpt>
      <trkpt lat="45.66336" lon="6.85638">
        <ele>2071.7</ele>
        <time>2021-03-26T09:38:00Z</time>
      </trkpt>
      <trkpt lat="45.66336" lon="6.85637">
        <ele>2071.7</ele>
        <time>2021-03-26T09:38:01Z</time>
      </trkpt>
      <trkpt lat="45.66337" lon="6.85636">
        <ele>2073.4</ele>
        <time>2021-03-26T09:38:02Z</time>
      </trkpt>
      <trkpt lat="45.66338" lon="6.85636">
        <ele>2073.4</ele>
        <time>2021-03-26T09:38:03Z</time>
      </trkpt>
      <trkpt lat="45.66338" lon="6.85637">
        <ele>2073.4</ele>
        <time>2021-03-26T09:38:04Z</time>
      </trkpt>
      <trkpt lat="45.66339" lon="6.85637">
        <ele>2072.7</ele>
        <time>2021-03-26T09:38:05Z</time>
      </trkpt>
      <trkpt lat="45.6634" lon="6.85638">
        <ele>2072.7</ele>
        <time>2021-03-26T09:38:06Z</time>
      </trkpt>
      <trkpt lat="45.6634" lon="6.85638">
        <ele>2073.7</ele>
        <time>2021-03-26T09:38:07Z</time>
      </trkpt>
      <trkpt lat="45.66341" lon="6.85638">
        <ele>2073.7</ele>
        <time>2021-03-26T09:38:08Z</time>
      </trkpt>
      <trkpt lat="45.66342" lon="6.85639">
        <ele>2073.7</ele>
        <time>2021-03-26T09:38:09Z</time>
      </trkpt>
      <trkpt lat="45.66342" lon="6.85639">
        <ele>2073.7</ele>
        <time>2021-03-26T09:38:10Z</time>
      </trkpt>
      <trkpt lat="45.66343" lon="6.8564">
        <ele>2074.6</ele>
        <time>2021-03-26T09:38:11Z</time>
      </trkpt>
      <trkpt lat="45.66344" lon="6.8564">
        <ele>2074.6</ele>
        <time>2021-03-26T09:38:12Z</time>
      </trkpt>
      <trkpt lat="45.66344" lon="6.8564">
        <ele>2074.6</ele>
        <time>2021-03-26T09:38:13Z</time>
      </trkpt>
      <trkpt lat="45.66345" lon="6.8564">
        <ele>2074.6</ele>
        <time>2021-03-26T09:38:14Z</time>
      </trkpt>
      <trkpt lat="45.66346" lon="6.8564">
        <ele>2075.4</ele>
        <time>2021-03-26T09:38:15Z</time>
      </trkpt>
      <trkpt lat="45.66347" lon="6.8564">
        <ele>2075.4</ele>
        <time>2021-03-26T09:38:16Z</time>
      </trkpt>
      <trkpt lat="45.66347" lon="6.8564">
        <ele>2075.4</ele>
        <time>2021-03-26T09:38:17Z</time>
      </trkpt>
      <trkpt lat="45.66348" lon="6.85639">
        <ele>2075.4</ele>
        <time>2021-03-26T09:38:18Z</time>
      </trkpt>
      <trkpt lat="45.66348" lon="6.85639">
        <ele>2075.4</ele>
        <time>2021-03-26T09:38:19Z</time>
      </trkpt>
      <trkpt lat="45.66349" lon="6.85638">
        <ele>2076.2</ele>
        <time>2021-03-26T09:38:20Z</time>
      </trkpt>
      <trkpt lat="45.6635" lon="6.85638">
        <ele>2076.2</ele>
        <time>2021-03-26T09:38:21Z</time>
      </trkpt>
      <trkpt lat="45.6635" lon="6.85638">
        <ele>2076.2</ele>
        <time>2021-03-26T09:38:22Z</time>
      </trkpt>
      <trkpt lat="45.66351" lon="6.85638">
        <ele>2076.2</ele>
        <time>2021-03-26T09:38:23Z</time>
      </trkpt>
      <trkpt lat="45.66351" lon="6.85637">
        <ele>2076.2</ele>
        <time>2021-03-26T09:38:24Z</time>
      </trkpt>
      <trkpt lat="45.66352" lon="6.85637">
        <ele>2077</ele>
        <time>2021-03-26T09:38:25Z</time>
      </trkpt>
      <trkpt lat="45.66353" lon="6.85637">
        <ele>2077.8</ele>
        <time>2021-03-26T09:38:26Z</time>
      </trkpt>
      <trkpt lat="45.66353" lon="6.85636">
        <ele>2077.8</ele>
        <time>2021-03-26T09:38:27Z</time>
      </trkpt>
      <trkpt lat="45.66354" lon="6.85636">
        <ele>2077.8</ele>
        <time>2021-03-26T09:38:28Z</time>
      </trkpt>
      <trkpt lat="45.66354" lon="6.85636">
        <ele>2077.8</ele>
        <time>2021-03-26T09:38:29Z</time>
      </trkpt>
      <trkpt lat="45.66355" lon="6.85636">
        <ele>2078.7</ele>
        <time>2021-03-26T09:38:30Z</time>
      </trkpt>
      <trkpt lat="45.66355" lon="6.85636">
        <ele>2078.7</ele>
        <time>2021-03-26T09:38:31Z</time>
      </trkpt>
      <trkpt lat="45.66356" lon="6.85636">
        <ele>2078.7</ele>
        <time>2021-03-26T09:38:32Z</time>
      </trkpt>
      <trkpt lat="45.66357" lon="6.85636">
        <ele>2078.7</ele>
        <time>2021-03-26T09:38:33Z</time>
      </trkpt>
      <trkpt lat="45.66357" lon="6.85636">
        <ele>2078.7</ele>
        <time>2021-03-26T09:38:34Z</time>
      </trkpt>
      <trkpt lat="45.66358" lon="6.85636">
        <ele>2079.8</ele>
        <time>2021-03-26T09:38:35Z</time>
      </trkpt>
      <trkpt lat="45.66358" lon="6.85636">
        <ele>2079.8</ele>
        <time>2021-03-26T09:38:36Z</time>
      </trkpt>
      <trkpt lat="45.66359" lon="6.85635">
        <ele>2079.8</ele>
        <time>2021-03-26T09:38:37Z</time>
      </trkpt>
      <trkpt lat="45.6636" lon="6.85635">
        <ele>2079.8</ele>
        <time>2021-03-26T09:38:38Z</time>
      </trkpt>
      <trkpt lat="45.6636" lon="6.85635">
        <ele>2079.8</ele>
        <time>2021-03-26T09:38:39Z</time>
      </trkpt>
      <trkpt lat="45.66361" lon="6.85634">
        <ele>2080.9</ele>
        <time>2021-03-26T09:38:40Z</time>
      </trkpt>
      <trkpt lat="45.66362" lon="6.85633">
        <ele>2081.6</ele>
        <time>2021-03-26T09:38:41Z</time>
      </trkpt>
      <trkpt lat="45.66362" lon="6.85632">
        <ele>2081.6</ele>
        <time>2021-03-26T09:38:42Z</time>
      </trkpt>
      <trkpt lat="45.66363" lon="6.85631">
        <ele>2081.6</ele>
        <time>2021-03-26T09:38:43Z</time>
      </trkpt>
      <trkpt lat="45.66364" lon="6.85631">
        <ele>2081.6</ele>
        <time>2021-03-26T09:38:44Z</time>
      </trkpt>
      <trkpt lat="45.66364" lon="6.85631">
        <ele>2082.7</ele>
        <time>2021-03-26T09:38:45Z</time>
      </trkpt>
      <trkpt lat="45.66365" lon="6.85631">
        <ele>2082.7</ele>
        <time>2021-03-26T09:38:46Z</time>
      </trkpt>
      <trkpt lat="45.66365" lon="6.8563">
        <ele>2082.7</ele>
        <time>2021-03-26T09:38:47Z</time>
      </trkpt>
      <trkpt lat="45.66366" lon="6.8563">
        <ele>2082.7</ele>
        <time>2021-03-26T09:38:48Z</time>
      </trkpt>
      <trkpt lat="45.66366" lon="6.8563">
        <ele>2082.7</ele>
        <time>2021-03-26T09:38:49Z</time>
      </trkpt>
      <trkpt lat="45.66367" lon="6.8563">
        <ele>2082.7</ele>
        <time>2021-03-26T09:38:50Z</time>
      </trkpt>
      <trkpt lat="45.66367" lon="6.8563">
        <ele>2083.7</ele>
        <time>2021-03-26T09:38:51Z</time>
      </trkpt>
      <trkpt lat="45.66367" lon="6.8563">
        <ele>2083.7</ele>
        <time>2021-03-26T09:38:52Z</time>
      </trkpt>
      <trkpt lat="45.66368" lon="6.85629">
        <ele>2083.7</ele>
        <time>2021-03-26T09:38:53Z</time>
      </trkpt>
      <trkpt lat="45.66368" lon="6.85629">
        <ele>2083.7</ele>
        <time>2021-03-26T09:38:54Z</time>
      </trkpt>
      <trkpt lat="45.66369" lon="6.85628">
        <ele>2084.4</ele>
        <time>2021-03-26T09:38:55Z</time>
      </trkpt>
      <trkpt lat="45.66369" lon="6.85628">
        <ele>2084.4</ele>
        <time>2021-03-26T09:38:56Z</time>
      </trkpt>
      <trkpt lat="45.6637" lon="6.85627">
        <ele>2085.3</ele>
        <time>2021-03-26T09:38:57Z</time>
      </trkpt>
      <trkpt lat="45.66371" lon="6.85626">
        <ele>2085.3</ele>
        <time>2021-03-26T09:38:58Z</time>
      </trkpt>
      <trkpt lat="45.66371" lon="6.85626">
        <ele>2085.3</ele>
        <time>2021-03-26T09:38:59Z</time>
      </trkpt>
      <trkpt lat="45.66372" lon="6.85626">
        <ele>2085.3</ele>
        <time>2021-03-26T09:39:00Z</time>
      </trkpt>
      <trkpt lat="45.66372" lon="6.85626">
        <ele>2085.3</ele>
        <time>2021-03-26T09:39:01Z</time>
      </trkpt>
      <trkpt lat="45.66373" lon="6.85626">
        <ele>2086.1</ele>
        <time>2021-03-26T09:39:02Z</time>
      </trkpt>
      <trkpt lat="45.66373" lon="6.85626">
        <ele>2086.1</ele>
        <time>2021-03-26T09:39:03Z</time>
      </trkpt>
      <trkpt lat="45.66374" lon="6.85626">
        <ele>2086.1</ele>
        <time>2021-03-26T09:39:04Z</time>
      </trkpt>
      <trkpt lat="45.66374" lon="6.85626">
        <ele>2086.1</ele>
        <time>2021-03-26T09:39:05Z</time>
      </trkpt>
      <trkpt lat="45.66375" lon="6.85626">
        <ele>2086.1</ele>
        <time>2021-03-26T09:39:06Z</time>
      </trkpt>
      <trkpt lat="45.66375" lon="6.85626">
        <ele>2086.1</ele>
        <time>2021-03-26T09:39:07Z</time>
      </trkpt>
      <trkpt lat="45.66376" lon="6.85627">
        <ele>2087</ele>
        <time>2021-03-26T09:39:08Z</time>
      </trkpt>
      <trkpt lat="45.66377" lon="6.85627">
        <ele>2087</ele>
        <time>2021-03-26T09:39:09Z</time>
      </trkpt>
      <trkpt lat="45.66377" lon="6.85628">
        <ele>2087</ele>
        <time>2021-03-26T09:39:10Z</time>
      </trkpt>
      <trkpt lat="45.66378" lon="6.85628">
        <ele>2087</ele>
        <time>2021-03-26T09:39:11Z</time>
      </trkpt>
      <trkpt lat="45.66378" lon="6.85629">
        <ele>2086.3</ele>
        <time>2021-03-26T09:39:12Z</time>
      </trkpt>
      <trkpt lat="45.66378" lon="6.85629">
        <ele>2086.3</ele>
        <time>2021-03-26T09:39:13Z</time>
      </trkpt>
      <trkpt lat="45.66379" lon="6.8563">
        <ele>2087.2</ele>
        <time>2021-03-26T09:39:14Z</time>
      </trkpt>
      <trkpt lat="45.66379" lon="6.8563">
        <ele>2087.2</ele>
        <time>2021-03-26T09:39:15Z</time>
      </trkpt>
      <trkpt lat="45.6638" lon="6.8563">
        <ele>2087.2</ele>
        <time>2021-03-26T09:39:16Z</time>
      </trkpt>
      <trkpt lat="45.6638" lon="6.8563">
        <ele>2087.2</ele>
        <time>2021-03-26T09:39:17Z</time>
      </trkpt>
      <trkpt lat="45.66381" lon="6.85631">
        <ele>2087.2</ele>
        <time>2021-03-26T09:39:18Z</time>
      </trkpt>
      <trkpt lat="45.66381" lon="6.85631">
        <ele>2087.2</ele>
        <time>2021-03-26T09:39:19Z</time>
      </trkpt>
      <trkpt lat="45.66382" lon="6.85631">
        <ele>2088.2</ele>
        <time>2021-03-26T09:39:20Z</time>
      </trkpt>
      <trkpt lat="45.66382" lon="6.85631">
        <ele>2088.2</ele>
        <time>2021-03-26T09:39:21Z</time>
      </trkpt>
      <trkpt lat="45.66383" lon="6.85631">
        <ele>2088.2</ele>
        <time>2021-03-26T09:39:22Z</time>
      </trkpt>
      <trkpt lat="45.66384" lon="6.85631">
        <ele>2088.2</ele>
        <time>2021-03-26T09:39:23Z</time>
      </trkpt>
      <trkpt lat="45.66384" lon="6.85631">
        <ele>2088.2</ele>
        <time>2021-03-26T09:39:24Z</time>
      </trkpt>
      <trkpt lat="45.66385" lon="6.85631">
        <ele>2089.3</ele>
        <time>2021-03-26T09:39:25Z</time>
      </trkpt>
      <trkpt lat="45.66386" lon="6.8563">
        <ele>2089.3</ele>
        <time>2021-03-26T09:39:26Z</time>
      </trkpt>
      <trkpt lat="45.66386" lon="6.85629">
        <ele>2089.3</ele>
        <time>2021-03-26T09:39:27Z</time>
      </trkpt>
      <trkpt lat="45.66387" lon="6.85628">
        <ele>2089.9</ele>
        <time>2021-03-26T09:39:28Z</time>
      </trkpt>
      <trkpt lat="45.66387" lon="6.85628">
        <ele>2089.9</ele>
        <time>2021-03-26T09:39:29Z</time>
      </trkpt>
      <trkpt lat="45.66388" lon="6.85627">
        <ele>2090.9</ele>
        <time>2021-03-26T09:39:30Z</time>
      </trkpt>
      <trkpt lat="45.66389" lon="6.85627">
        <ele>2090.9</ele>
        <time>2021-03-26T09:39:31Z</time>
      </trkpt>
      <trkpt lat="45.66389" lon="6.85626">
        <ele>2090.9</ele>
        <time>2021-03-26T09:39:32Z</time>
      </trkpt>
      <trkpt lat="45.6639" lon="6.85626">
        <ele>2090.9</ele>
        <time>2021-03-26T09:39:33Z</time>
      </trkpt>
      <trkpt lat="45.66391" lon="6.85625">
        <ele>2090.9</ele>
        <time>2021-03-26T09:39:34Z</time>
      </trkpt>
      <trkpt lat="45.66391" lon="6.85625">
        <ele>2092</ele>
        <time>2021-03-26T09:39:35Z</time>
      </trkpt>
      <trkpt lat="45.66392" lon="6.85624">
        <ele>2092</ele>
        <time>2021-03-26T09:39:36Z</time>
      </trkpt>
      <trkpt lat="45.66392" lon="6.85624">
        <ele>2092.6</ele>
        <time>2021-03-26T09:39:37Z</time>
      </trkpt>
      <trkpt lat="45.66393" lon="6.85624">
        <ele>2092.6</ele>
        <time>2021-03-26T09:39:38Z</time>
      </trkpt>
      <trkpt lat="45.66394" lon="6.85623">
        <ele>2092.6</ele>
        <time>2021-03-26T09:39:39Z</time>
      </trkpt>
      <trkpt lat="45.66394" lon="6.85623">
        <ele>2093.5</ele>
        <time>2021-03-26T09:39:40Z</time>
      </trkpt>
      <trkpt lat="45.66395" lon="6.85623">
        <ele>2093.5</ele>
        <time>2021-03-26T09:39:41Z</time>
      </trkpt>
      <trkpt lat="45.66396" lon="6.85622">
        <ele>2093.5</ele>
        <time>2021-03-26T09:39:42Z</time>
      </trkpt>
      <trkpt lat="45.66396" lon="6.85622">
        <ele>2093.5</ele>
        <time>2021-03-26T09:39:43Z</time>
      </trkpt>
      <trkpt lat="45.66397" lon="6.85622">
        <ele>2094.5</ele>
        <time>2021-03-26T09:39:44Z</time>
      </trkpt>
      <trkpt lat="45.66398" lon="6.85621">
        <ele>2094.5</ele>
        <time>2021-03-26T09:39:45Z</time>
      </trkpt>
      <trkpt lat="45.66398" lon="6.85621">
        <ele>2094.5</ele>
        <time>2021-03-26T09:39:46Z</time>
      </trkpt>
      <trkpt lat="45.66398" lon="6.85621">
        <ele>2094.5</ele>
        <time>2021-03-26T09:39:47Z</time>
      </trkpt>
      <trkpt lat="45.66398" lon="6.85621">
        <ele>2094.5</ele>
        <time>2021-03-26T09:39:48Z</time>
      </trkpt>
      <trkpt lat="45.66398" lon="6.85621">
        <ele>2094.5</ele>
        <time>2021-03-26T09:39:49Z</time>
      </trkpt>
      <trkpt lat="45.66398" lon="6.85621">
        <ele>2094.5</ele>
        <time>2021-03-26T09:39:50Z</time>
      </trkpt>
      <trkpt lat="45.66398" lon="6.85621">
        <ele>2094.5</ele>
        <time>2021-03-26T09:39:51Z</time>
      </trkpt>
      <trkpt lat="45.66398" lon="6.85621">
        <ele>2094.5</ele>
        <time>2021-03-26T09:39:52Z</time>
      </trkpt>
      <trkpt lat="45.66398" lon="6.85621">
        <ele>2094.5</ele>
        <time>2021-03-26T09:39:53Z</time>
      </trkpt>
      <trkpt lat="45.66398" lon="6.85621">
        <ele>2094.5</ele>
        <time>2021-03-26T09:39:54Z</time>
      </trkpt>
      <trkpt lat="45.66398" lon="6.85621">
        <ele>2094.5</ele>
        <time>2021-03-26T09:39:55Z</time>
      </trkpt>
      <trkpt lat="45.66403" lon="6.85622">
        <ele>2096.5</ele>
        <time>2021-03-26T09:40:13Z</time>
      </trkpt>
      <trkpt lat="45.66404" lon="6.85622">
        <ele>2096.5</ele>
        <time>2021-03-26T09:40:14Z</time>
      </trkpt>
      <trkpt lat="45.66405" lon="6.85621">
        <ele>2096.5</ele>
        <time>2021-03-26T09:40:15Z</time>
      </trkpt>
      <trkpt lat="45.66406" lon="6.8562">
        <ele>2098</ele>
        <time>2021-03-26T09:40:16Z</time>
      </trkpt>
      <trkpt lat="45.66406" lon="6.85619">
        <ele>2098</ele>
        <time>2021-03-26T09:40:17Z</time>
      </trkpt>
      <trkpt lat="45.66407" lon="6.85619">
        <ele>2098</ele>
        <time>2021-03-26T09:40:18Z</time>
      </trkpt>
      <trkpt lat="45.66408" lon="6.85619">
        <ele>2098</ele>
        <time>2021-03-26T09:40:19Z</time>
      </trkpt>
      <trkpt lat="45.66408" lon="6.85619">
        <ele>2098</ele>
        <time>2021-03-26T09:40:20Z</time>
      </trkpt>
      <trkpt lat="45.66409" lon="6.85619">
        <ele>2099</ele>
        <time>2021-03-26T09:40:21Z</time>
      </trkpt>
      <trkpt lat="45.6641" lon="6.85618">
        <ele>2099</ele>
        <time>2021-03-26T09:40:22Z</time>
      </trkpt>
      <trkpt lat="45.6641" lon="6.85617">
        <ele>2099</ele>
        <time>2021-03-26T09:40:23Z</time>
      </trkpt>
      <trkpt lat="45.66411" lon="6.85616">
        <ele>2099</ele>
        <time>2021-03-26T09:40:24Z</time>
      </trkpt>
      <trkpt lat="45.66411" lon="6.85616">
        <ele>2099.6</ele>
        <time>2021-03-26T09:40:25Z</time>
      </trkpt>
      <trkpt lat="45.66411" lon="6.85616">
        <ele>2099.6</ele>
        <time>2021-03-26T09:40:26Z</time>
      </trkpt>
      <trkpt lat="45.66411" lon="6.85616">
        <ele>2099.6</ele>
        <time>2021-03-26T09:40:27Z</time>
      </trkpt>
      <trkpt lat="45.66411" lon="6.85616">
        <ele>2099.6</ele>
        <time>2021-03-26T09:40:28Z</time>
      </trkpt>
      <trkpt lat="45.66412" lon="6.85615">
        <ele>2100.6</ele>
        <time>2021-03-26T09:40:29Z</time>
      </trkpt>
      <trkpt lat="45.66412" lon="6.85615">
        <ele>2100.6</ele>
        <time>2021-03-26T09:40:30Z</time>
      </trkpt>
      <trkpt lat="45.66413" lon="6.85615">
        <ele>2100.6</ele>
        <time>2021-03-26T09:40:31Z</time>
      </trkpt>
      <trkpt lat="45.66414" lon="6.85614">
        <ele>2100.6</ele>
        <time>2021-03-26T09:40:32Z</time>
      </trkpt>
      <trkpt lat="45.66415" lon="6.85614">
        <ele>2100.6</ele>
        <time>2021-03-26T09:40:33Z</time>
      </trkpt>
      <trkpt lat="45.66415" lon="6.85614">
        <ele>2101.6</ele>
        <time>2021-03-26T09:40:34Z</time>
      </trkpt>
      <trkpt lat="45.66416" lon="6.85614">
        <ele>2101.6</ele>
        <time>2021-03-26T09:40:35Z</time>
      </trkpt>
      <trkpt lat="45.66417" lon="6.85614">
        <ele>2101.6</ele>
        <time>2021-03-26T09:40:36Z</time>
      </trkpt>
      <trkpt lat="45.66418" lon="6.85614">
        <ele>2102.7</ele>
        <time>2021-03-26T09:40:37Z</time>
      </trkpt>
      <trkpt lat="45.66419" lon="6.85613">
        <ele>2102.7</ele>
        <time>2021-03-26T09:40:38Z</time>
      </trkpt>
      <trkpt lat="45.66419" lon="6.85613">
        <ele>2102.7</ele>
        <time>2021-03-26T09:40:39Z</time>
      </trkpt>
      <trkpt lat="45.6642" lon="6.85613">
        <ele>2102.7</ele>
        <time>2021-03-26T09:40:40Z</time>
      </trkpt>
      <trkpt lat="45.66421" lon="6.85613">
        <ele>2103.8</ele>
        <time>2021-03-26T09:40:41Z</time>
      </trkpt>
      <trkpt lat="45.66421" lon="6.85613">
        <ele>2103.8</ele>
        <time>2021-03-26T09:40:42Z</time>
      </trkpt>
      <trkpt lat="45.66422" lon="6.85613">
        <ele>2103.8</ele>
        <time>2021-03-26T09:40:43Z</time>
      </trkpt>
      <trkpt lat="45.66423" lon="6.85613">
        <ele>2103.8</ele>
        <time>2021-03-26T09:40:44Z</time>
      </trkpt>
      <trkpt lat="45.66423" lon="6.85613">
        <ele>2103.8</ele>
        <time>2021-03-26T09:40:45Z</time>
      </trkpt>
      <trkpt lat="45.66424" lon="6.85613">
        <ele>2104.8</ele>
        <time>2021-03-26T09:40:46Z</time>
      </trkpt>
      <trkpt lat="45.66425" lon="6.85612">
        <ele>2104.8</ele>
        <time>2021-03-26T09:40:47Z</time>
      </trkpt>
      <trkpt lat="45.66425" lon="6.85612">
        <ele>2104.8</ele>
        <time>2021-03-26T09:40:48Z</time>
      </trkpt>
      <trkpt lat="45.66426" lon="6.85612">
        <ele>2104.8</ele>
        <time>2021-03-26T09:40:49Z</time>
      </trkpt>
      <trkpt lat="45.66427" lon="6.85611">
        <ele>2106.1</ele>
        <time>2021-03-26T09:40:50Z</time>
      </trkpt>
      <trkpt lat="45.66428" lon="6.85611">
        <ele>2106.1</ele>
        <time>2021-03-26T09:40:51Z</time>
      </trkpt>
      <trkpt lat="45.66428" lon="6.85611">
        <ele>2106.1</ele>
        <time>2021-03-26T09:40:52Z</time>
      </trkpt>
      <trkpt lat="45.66429" lon="6.85611">
        <ele>2106.1</ele>
        <time>2021-03-26T09:40:53Z</time>
      </trkpt>
      <trkpt lat="45.66429" lon="6.85611">
        <ele>2106.1</ele>
        <time>2021-03-26T09:40:54Z</time>
      </trkpt>
      <trkpt lat="45.6643" lon="6.85611">
        <ele>2105.8</ele>
        <time>2021-03-26T09:40:55Z</time>
      </trkpt>
      <trkpt lat="45.6643" lon="6.85612">
        <ele>2106.6</ele>
        <time>2021-03-26T09:40:56Z</time>
      </trkpt>
      <trkpt lat="45.66431" lon="6.85612">
        <ele>2106.6</ele>
        <time>2021-03-26T09:40:57Z</time>
      </trkpt>
      <trkpt lat="45.66431" lon="6.85613">
        <ele>2106.6</ele>
        <time>2021-03-26T09:40:58Z</time>
      </trkpt>
      <trkpt lat="45.66432" lon="6.85614">
        <ele>2106.6</ele>
        <time>2021-03-26T09:40:59Z</time>
      </trkpt>
      <trkpt lat="45.66432" lon="6.85615">
        <ele>2106.6</ele>
        <time>2021-03-26T09:41:00Z</time>
      </trkpt>
      <trkpt lat="45.66433" lon="6.85615">
        <ele>2107.4</ele>
        <time>2021-03-26T09:41:01Z</time>
      </trkpt>
      <trkpt lat="45.66434" lon="6.85616">
        <ele>2107</ele>
        <time>2021-03-26T09:41:02Z</time>
      </trkpt>
      <trkpt lat="45.66434" lon="6.85617">
        <ele>2107</ele>
        <time>2021-03-26T09:41:03Z</time>
      </trkpt>
      <trkpt lat="45.66435" lon="6.85617">
        <ele>2107</ele>
        <time>2021-03-26T09:41:04Z</time>
      </trkpt>
      <trkpt lat="45.66435" lon="6.85618">
        <ele>2107</ele>
        <time>2021-03-26T09:41:05Z</time>
      </trkpt>
      <trkpt lat="45.66436" lon="6.85618">
        <ele>2107.9</ele>
        <time>2021-03-26T09:41:06Z</time>
      </trkpt>
      <trkpt lat="45.66436" lon="6.85619">
        <ele>2107.9</ele>
        <time>2021-03-26T09:41:07Z</time>
      </trkpt>
      <trkpt lat="45.66437" lon="6.8562">
        <ele>2107.9</ele>
        <time>2021-03-26T09:41:08Z</time>
      </trkpt>
      <trkpt lat="45.66437" lon="6.85621">
        <ele>2107.5</ele>
        <time>2021-03-26T09:41:09Z</time>
      </trkpt>
      <trkpt lat="45.66438" lon="6.85621">
        <ele>2107.5</ele>
        <time>2021-03-26T09:41:10Z</time>
      </trkpt>
      <trkpt lat="45.66438" lon="6.85622">
        <ele>2107.5</ele>
        <time>2021-03-26T09:41:11Z</time>
      </trkpt>
      <trkpt lat="45.66439" lon="6.85623">
        <ele>2108.4</ele>
        <time>2021-03-26T09:41:12Z</time>
      </trkpt>
      <trkpt lat="45.66439" lon="6.85623">
        <ele>2108.4</ele>
        <time>2021-03-26T09:41:13Z</time>
      </trkpt>
      <trkpt lat="45.6644" lon="6.85624">
        <ele>2108.4</ele>
        <time>2021-03-26T09:41:14Z</time>
      </trkpt>
      <trkpt lat="45.6644" lon="6.85625">
        <ele>2108</ele>
        <time>2021-03-26T09:41:15Z</time>
      </trkpt>
      <trkpt lat="45.6644" lon="6.85625">
        <ele>2108</ele>
        <time>2021-03-26T09:41:16Z</time>
      </trkpt>
      <trkpt lat="45.6644" lon="6.85626">
        <ele>2108</ele>
        <time>2021-03-26T09:41:17Z</time>
      </trkpt>
      <trkpt lat="45.66441" lon="6.85627">
        <ele>2108</ele>
        <time>2021-03-26T09:41:18Z</time>
      </trkpt>
      <trkpt lat="45.66441" lon="6.85627">
        <ele>2108</ele>
        <time>2021-03-26T09:41:19Z</time>
      </trkpt>
      <trkpt lat="45.66441" lon="6.85627">
        <ele>2108</ele>
        <time>2021-03-26T09:41:20Z</time>
      </trkpt>
      <trkpt lat="45.66441" lon="6.85627">
        <ele>2108</ele>
        <time>2021-03-26T09:41:21Z</time>
      </trkpt>
      <trkpt lat="45.66441" lon="6.85627">
        <ele>2108</ele>
        <time>2021-03-26T09:41:22Z</time>
      </trkpt>
      <trkpt lat="45.66443" lon="6.8563">
        <ele>2108.6</ele>
        <time>2021-03-26T09:41:45Z</time>
      </trkpt>
      <trkpt lat="45.66444" lon="6.85629">
        <ele>2108.6</ele>
        <time>2021-03-26T09:41:46Z</time>
      </trkpt>
      <trkpt lat="45.66444" lon="6.85629">
        <ele>2108.6</ele>
        <time>2021-03-26T09:41:47Z</time>
      </trkpt>
      <trkpt lat="45.66444" lon="6.85628">
        <ele>2109</ele>
        <time>2021-03-26T09:41:48Z</time>
      </trkpt>
      <trkpt lat="45.66444" lon="6.85627">
        <ele>2109</ele>
        <time>2021-03-26T09:41:49Z</time>
      </trkpt>
      <trkpt lat="45.66444" lon="6.85626">
        <ele>2109</ele>
        <time>2021-03-26T09:41:50Z</time>
      </trkpt>
      <trkpt lat="45.66444" lon="6.85624">
        <ele>2109</ele>
        <time>2021-03-26T09:41:51Z</time>
      </trkpt>
      <trkpt lat="45.66444" lon="6.85623">
        <ele>2109.3</ele>
        <time>2021-03-26T09:41:52Z</time>
      </trkpt>
      <trkpt lat="45.66444" lon="6.85622">
        <ele>2109.3</ele>
        <time>2021-03-26T09:41:53Z</time>
      </trkpt>
      <trkpt lat="45.66444" lon="6.85622">
        <ele>2109.3</ele>
        <time>2021-03-26T09:41:54Z</time>
      </trkpt>
      <trkpt lat="45.66444" lon="6.85621">
        <ele>2109.3</ele>
        <time>2021-03-26T09:41:55Z</time>
      </trkpt>
      <trkpt lat="45.66443" lon="6.8562">
        <ele>2109.7</ele>
        <time>2021-03-26T09:41:56Z</time>
      </trkpt>
      <trkpt lat="45.66443" lon="6.85619">
        <ele>2109.7</ele>
        <time>2021-03-26T09:41:57Z</time>
      </trkpt>
      <trkpt lat="45.66443" lon="6.85617">
        <ele>2109.7</ele>
        <time>2021-03-26T09:41:58Z</time>
      </trkpt>
      <trkpt lat="45.66442" lon="6.85617">
        <ele>2109.7</ele>
        <time>2021-03-26T09:41:59Z</time>
      </trkpt>
      <trkpt lat="45.66442" lon="6.85616">
        <ele>2109.7</ele>
        <time>2021-03-26T09:42:00Z</time>
      </trkpt>
      <trkpt lat="45.66442" lon="6.85616">
        <ele>2109.7</ele>
        <time>2021-03-26T09:42:01Z</time>
      </trkpt>
      <trkpt lat="45.66442" lon="6.85615">
        <ele>2110</ele>
        <time>2021-03-26T09:42:02Z</time>
      </trkpt>
      <trkpt lat="45.66443" lon="6.85614">
        <ele>2110</ele>
        <time>2021-03-26T09:42:03Z</time>
      </trkpt>
      <trkpt lat="45.66443" lon="6.85613">
        <ele>2110</ele>
        <time>2021-03-26T09:42:04Z</time>
      </trkpt>
      <trkpt lat="45.66444" lon="6.85612">
        <ele>2110</ele>
        <time>2021-03-26T09:42:05Z</time>
      </trkpt>
      <trkpt lat="45.66444" lon="6.85611">
        <ele>2110.3</ele>
        <time>2021-03-26T09:42:06Z</time>
      </trkpt>
      <trkpt lat="45.66444" lon="6.8561">
        <ele>2110.3</ele>
        <time>2021-03-26T09:42:07Z</time>
      </trkpt>
      <trkpt lat="45.66444" lon="6.85609">
        <ele>2110.3</ele>
        <time>2021-03-26T09:42:08Z</time>
      </trkpt>
      <trkpt lat="45.66444" lon="6.85608">
        <ele>2110.3</ele>
        <time>2021-03-26T09:42:09Z</time>
      </trkpt>
      <trkpt lat="45.66443" lon="6.85607">
        <ele>2110.3</ele>
        <time>2021-03-26T09:42:10Z</time>
      </trkpt>
      <trkpt lat="45.66443" lon="6.85606">
        <ele>2110.6</ele>
        <time>2021-03-26T09:42:11Z</time>
      </trkpt>
      <trkpt lat="45.66443" lon="6.85606">
        <ele>2110.6</ele>
        <time>2021-03-26T09:42:12Z</time>
      </trkpt>
      <trkpt lat="45.66443" lon="6.85606">
        <ele>2110.6</ele>
        <time>2021-03-26T09:42:13Z</time>
      </trkpt>
      <trkpt lat="45.66443" lon="6.85606">
        <ele>2110.6</ele>
        <time>2021-03-26T09:42:14Z</time>
      </trkpt>
      <trkpt lat="45.66443" lon="6.85606">
        <ele>2110.6</ele>
        <time>2021-03-26T09:42:15Z</time>
      </trkpt>
      <trkpt lat="45.66443" lon="6.85606">
        <ele>2110.6</ele>
        <time>2021-03-26T09:42:16Z</time>
      </trkpt>
      <trkpt lat="45.66443" lon="6.85606">
        <ele>2110.6</ele>
        <time>2021-03-26T09:42:17Z</time>
      </trkpt>
      <trkpt lat="45.66443" lon="6.85606">
        <ele>2110.6</ele>
        <time>2021-03-26T09:42:18Z</time>
      </trkpt>
      <trkpt lat="45.66445" lon="6.8561">
        <ele>2111.3</ele>
        <time>2021-03-26T09:42:19Z</time>
      </trkpt>
      <trkpt lat="45.6645" lon="6.85617">
        <ele>2111.5</ele>
        <time>2021-03-26T09:42:27Z</time>
      </trkpt>
      <trkpt lat="45.6645" lon="6.85618">
        <ele>2111.5</ele>
        <time>2021-03-26T09:42:28Z</time>
      </trkpt>
      <trkpt lat="45.66451" lon="6.85619">
        <ele>2112.3</ele>
        <time>2021-03-26T09:42:29Z</time>
      </trkpt>
      <trkpt lat="45.66451" lon="6.8562">
        <ele>2112.3</ele>
        <time>2021-03-26T09:42:30Z</time>
      </trkpt>
      <trkpt lat="45.66452" lon="6.85621">
        <ele>2112</ele>
        <time>2021-03-26T09:42:31Z</time>
      </trkpt>
      <trkpt lat="45.66452" lon="6.85621">
        <ele>2112</ele>
        <time>2021-03-26T09:42:32Z</time>
      </trkpt>
      <trkpt lat="45.66453" lon="6.85622">
        <ele>2112</ele>
        <time>2021-03-26T09:42:33Z</time>
      </trkpt>
      <trkpt lat="45.66453" lon="6.85623">
        <ele>2112</ele>
        <time>2021-03-26T09:42:34Z</time>
      </trkpt>
      <trkpt lat="45.66454" lon="6.85625">
        <ele>2112.4</ele>
        <time>2021-03-26T09:42:35Z</time>
      </trkpt>
      <trkpt lat="45.66454" lon="6.85626">
        <ele>2112.4</ele>
        <time>2021-03-26T09:42:36Z</time>
      </trkpt>
      <trkpt lat="45.66455" lon="6.85627">
        <ele>2112.4</ele>
        <time>2021-03-26T09:42:37Z</time>
      </trkpt>
      <trkpt lat="45.66455" lon="6.85627">
        <ele>2112.4</ele>
        <time>2021-03-26T09:42:38Z</time>
      </trkpt>
      <trkpt lat="45.66456" lon="6.85628">
        <ele>2112.4</ele>
        <time>2021-03-26T09:42:39Z</time>
      </trkpt>
      <trkpt lat="45.66456" lon="6.8563">
        <ele>2112.2</ele>
        <time>2021-03-26T09:42:40Z</time>
      </trkpt>
      <trkpt lat="45.66456" lon="6.85631">
        <ele>2112.2</ele>
        <time>2021-03-26T09:42:41Z</time>
      </trkpt>
      <trkpt lat="45.66457" lon="6.85632">
        <ele>2112.2</ele>
        <time>2021-03-26T09:42:42Z</time>
      </trkpt>
      <trkpt lat="45.66457" lon="6.85632">
        <ele>2112.9</ele>
        <time>2021-03-26T09:42:43Z</time>
      </trkpt>
      <trkpt lat="45.66457" lon="6.85633">
        <ele>2112.7</ele>
        <time>2021-03-26T09:42:44Z</time>
      </trkpt>
      <trkpt lat="45.66458" lon="6.85634">
        <ele>2112.7</ele>
        <time>2021-03-26T09:42:45Z</time>
      </trkpt>
      <trkpt lat="45.66458" lon="6.85635">
        <ele>2112.7</ele>
        <time>2021-03-26T09:42:46Z</time>
      </trkpt>
      <trkpt lat="45.66458" lon="6.85636">
        <ele>2112.7</ele>
        <time>2021-03-26T09:42:47Z</time>
      </trkpt>
      <trkpt lat="45.66459" lon="6.85637">
        <ele>2112.7</ele>
        <time>2021-03-26T09:42:48Z</time>
      </trkpt>
      <trkpt lat="45.66459" lon="6.85638">
        <ele>2112.4</ele>
        <time>2021-03-26T09:42:49Z</time>
      </trkpt>
      <trkpt lat="45.66459" lon="6.85639">
        <ele>2112.4</ele>
        <time>2021-03-26T09:42:50Z</time>
      </trkpt>
      <trkpt lat="45.6646" lon="6.8564">
        <ele>2112.4</ele>
        <time>2021-03-26T09:42:51Z</time>
      </trkpt>
      <trkpt lat="45.6646" lon="6.8564">
        <ele>2113.2</ele>
        <time>2021-03-26T09:42:52Z</time>
      </trkpt>
      <trkpt lat="45.6646" lon="6.85641">
        <ele>2113</ele>
        <time>2021-03-26T09:42:53Z</time>
      </trkpt>
      <trkpt lat="45.66461" lon="6.85642">
        <ele>2113</ele>
        <time>2021-03-26T09:42:54Z</time>
      </trkpt>
      <trkpt lat="45.66461" lon="6.85643">
        <ele>2113</ele>
        <time>2021-03-26T09:42:55Z</time>
      </trkpt>
      <trkpt lat="45.66461" lon="6.85644">
        <ele>2113</ele>
        <time>2021-03-26T09:42:56Z</time>
      </trkpt>
      <trkpt lat="45.66462" lon="6.85645">
        <ele>2113</ele>
        <time>2021-03-26T09:42:57Z</time>
      </trkpt>
      <trkpt lat="45.66462" lon="6.85646">
        <ele>2112.8</ele>
        <time>2021-03-26T09:42:58Z</time>
      </trkpt>
      <trkpt lat="45.66462" lon="6.85647">
        <ele>2112.8</ele>
        <time>2021-03-26T09:42:59Z</time>
      </trkpt>
      <trkpt lat="45.66463" lon="6.85647">
        <ele>2113.7</ele>
        <time>2021-03-26T09:43:00Z</time>
      </trkpt>
      <trkpt lat="45.66463" lon="6.85648">
        <ele>2113.7</ele>
        <time>2021-03-26T09:43:01Z</time>
      </trkpt>
      <trkpt lat="45.66463" lon="6.85649">
        <ele>2113.7</ele>
        <time>2021-03-26T09:43:02Z</time>
      </trkpt>
      <trkpt lat="45.66464" lon="6.8565">
        <ele>2113.4</ele>
        <time>2021-03-26T09:43:03Z</time>
      </trkpt>
      <trkpt lat="45.66464" lon="6.85651">
        <ele>2113.4</ele>
        <time>2021-03-26T09:43:04Z</time>
      </trkpt>
      <trkpt lat="45.66464" lon="6.85652">
        <ele>2113.4</ele>
        <time>2021-03-26T09:43:05Z</time>
      </trkpt>
      <trkpt lat="45.66465" lon="6.85653">
        <ele>2113.4</ele>
        <time>2021-03-26T09:43:06Z</time>
      </trkpt>
      <trkpt lat="45.66465" lon="6.85653">
        <ele>2113.4</ele>
        <time>2021-03-26T09:43:07Z</time>
      </trkpt>
      <trkpt lat="45.66466" lon="6.85654">
        <ele>2113.4</ele>
        <time>2021-03-26T09:43:08Z</time>
      </trkpt>
      <trkpt lat="45.66466" lon="6.85655">
        <ele>2114.2</ele>
        <time>2021-03-26T09:43:09Z</time>
      </trkpt>
      <trkpt lat="45.66467" lon="6.85655">
        <ele>2114.2</ele>
        <time>2021-03-26T09:43:10Z</time>
      </trkpt>
      <trkpt lat="45.66467" lon="6.85656">
        <ele>2114.2</ele>
        <time>2021-03-26T09:43:11Z</time>
      </trkpt>
      <trkpt lat="45.66468" lon="6.85656">
        <ele>2114.2</ele>
        <time>2021-03-26T09:43:12Z</time>
      </trkpt>
      <trkpt lat="45.66469" lon="6.85656">
        <ele>2114.2</ele>
        <time>2021-03-26T09:43:13Z</time>
      </trkpt>
      <trkpt lat="45.66469" lon="6.85657">
        <ele>2115.3</ele>
        <time>2021-03-26T09:43:14Z</time>
      </trkpt>
      <trkpt lat="45.6647" lon="6.85657">
        <ele>2115.3</ele>
        <time>2021-03-26T09:43:15Z</time>
      </trkpt>
      <trkpt lat="45.6647" lon="6.85658">
        <ele>2115.3</ele>
        <time>2021-03-26T09:43:16Z</time>
      </trkpt>
      <trkpt lat="45.66471" lon="6.85658">
        <ele>2115.3</ele>
        <time>2021-03-26T09:43:17Z</time>
      </trkpt>
      <trkpt lat="45.66471" lon="6.85658">
        <ele>2115.3</ele>
        <time>2021-03-26T09:43:18Z</time>
      </trkpt>
      <trkpt lat="45.66472" lon="6.85659">
        <ele>2116.1</ele>
        <time>2021-03-26T09:43:19Z</time>
      </trkpt>
      <trkpt lat="45.66473" lon="6.8566">
        <ele>2116.1</ele>
        <time>2021-03-26T09:43:20Z</time>
      </trkpt>
      <trkpt lat="45.66473" lon="6.8566">
        <ele>2116.1</ele>
        <time>2021-03-26T09:43:21Z</time>
      </trkpt>
      <trkpt lat="45.66474" lon="6.85661">
        <ele>2116.1</ele>
        <time>2021-03-26T09:43:22Z</time>
      </trkpt>
      <trkpt lat="45.66474" lon="6.85661">
        <ele>2116.1</ele>
        <time>2021-03-26T09:43:23Z</time>
      </trkpt>
      <trkpt lat="45.66475" lon="6.85662">
        <ele>2117.1</ele>
        <time>2021-03-26T09:43:24Z</time>
      </trkpt>
      <trkpt lat="45.66475" lon="6.85663">
        <ele>2117.1</ele>
        <time>2021-03-26T09:43:25Z</time>
      </trkpt>
      <trkpt lat="45.66476" lon="6.85663">
        <ele>2116.9</ele>
        <time>2021-03-26T09:43:26Z</time>
      </trkpt>
      <trkpt lat="45.66476" lon="6.85664">
        <ele>2116.9</ele>
        <time>2021-03-26T09:43:27Z</time>
      </trkpt>
      <trkpt lat="45.66477" lon="6.85664">
        <ele>2116.9</ele>
        <time>2021-03-26T09:43:28Z</time>
      </trkpt>
      <trkpt lat="45.66477" lon="6.85665">
        <ele>2116.9</ele>
        <time>2021-03-26T09:43:29Z</time>
      </trkpt>
      <trkpt lat="45.66478" lon="6.85665">
        <ele>2117.9</ele>
        <time>2021-03-26T09:43:30Z</time>
      </trkpt>
      <trkpt lat="45.66478" lon="6.85666">
        <ele>2117.9</ele>
        <time>2021-03-26T09:43:31Z</time>
      </trkpt>
      <trkpt lat="45.66479" lon="6.85667">
        <ele>2117.9</ele>
        <time>2021-03-26T09:43:32Z</time>
      </trkpt>
      <trkpt lat="45.66479" lon="6.85667">
        <ele>2117.7</ele>
        <time>2021-03-26T09:43:33Z</time>
      </trkpt>
      <trkpt lat="45.6648" lon="6.85668">
        <ele>2117.7</ele>
        <time>2021-03-26T09:43:34Z</time>
      </trkpt>
      <trkpt lat="45.66481" lon="6.85669">
        <ele>2117.7</ele>
        <time>2021-03-26T09:43:35Z</time>
      </trkpt>
      <trkpt lat="45.66481" lon="6.85669">
        <ele>2118.6</ele>
        <time>2021-03-26T09:43:36Z</time>
      </trkpt>
      <trkpt lat="45.66482" lon="6.8567">
        <ele>2118.6</ele>
        <time>2021-03-26T09:43:37Z</time>
      </trkpt>
      <trkpt lat="45.66482" lon="6.85671">
        <ele>2118.6</ele>
        <time>2021-03-26T09:43:38Z</time>
      </trkpt>
      <trkpt lat="45.66483" lon="6.85671">
        <ele>2118.6</ele>
        <time>2021-03-26T09:43:39Z</time>
      </trkpt>
      <trkpt lat="45.66484" lon="6.85672">
        <ele>2118.5</ele>
        <time>2021-03-26T09:43:40Z</time>
      </trkpt>
      <trkpt lat="45.66484" lon="6.85672">
        <ele>2119.4</ele>
        <time>2021-03-26T09:43:41Z</time>
      </trkpt>
      <trkpt lat="45.66485" lon="6.85673">
        <ele>2119.4</ele>
        <time>2021-03-26T09:43:42Z</time>
      </trkpt>
      <trkpt lat="45.66485" lon="6.85674">
        <ele>2119.4</ele>
        <time>2021-03-26T09:43:43Z</time>
      </trkpt>
      <trkpt lat="45.66486" lon="6.85674">
        <ele>2119.4</ele>
        <time>2021-03-26T09:43:44Z</time>
      </trkpt>
      <trkpt lat="45.66486" lon="6.85675">
        <ele>2119.4</ele>
        <time>2021-03-26T09:43:45Z</time>
      </trkpt>
      <trkpt lat="45.66487" lon="6.85676">
        <ele>2120.2</ele>
        <time>2021-03-26T09:43:46Z</time>
      </trkpt>
      <trkpt lat="45.66487" lon="6.85676">
        <ele>2120.1</ele>
        <time>2021-03-26T09:43:47Z</time>
      </trkpt>
      <trkpt lat="45.66488" lon="6.85677">
        <ele>2120.1</ele>
        <time>2021-03-26T09:43:48Z</time>
      </trkpt>
      <trkpt lat="45.66488" lon="6.85677">
        <ele>2120.1</ele>
        <time>2021-03-26T09:43:49Z</time>
      </trkpt>
      <trkpt lat="45.66489" lon="6.85678">
        <ele>2120.1</ele>
        <time>2021-03-26T09:43:50Z</time>
      </trkpt>
      <trkpt lat="45.6649" lon="6.85679">
        <ele>2121</ele>
        <time>2021-03-26T09:43:51Z</time>
      </trkpt>
      <trkpt lat="45.66491" lon="6.85679">
        <ele>2121</ele>
        <time>2021-03-26T09:43:52Z</time>
      </trkpt>
      <trkpt lat="45.66491" lon="6.8568">
        <ele>2120.8</ele>
        <time>2021-03-26T09:43:53Z</time>
      </trkpt>
      <trkpt lat="45.66492" lon="6.85681">
        <ele>2120.8</ele>
        <time>2021-03-26T09:43:54Z</time>
      </trkpt>
      <trkpt lat="45.66492" lon="6.85681">
        <ele>2120.8</ele>
        <time>2021-03-26T09:43:55Z</time>
      </trkpt>
      <trkpt lat="45.66493" lon="6.85682">
        <ele>2121.7</ele>
        <time>2021-03-26T09:43:56Z</time>
      </trkpt>
      <trkpt lat="45.66494" lon="6.85682">
        <ele>2121.7</ele>
        <time>2021-03-26T09:43:57Z</time>
      </trkpt>
      <trkpt lat="45.66494" lon="6.85683">
        <ele>2121.7</ele>
        <time>2021-03-26T09:43:58Z</time>
      </trkpt>
      <trkpt lat="45.66495" lon="6.85684">
        <ele>2121.7</ele>
        <time>2021-03-26T09:43:59Z</time>
      </trkpt>
      <trkpt lat="45.66495" lon="6.85684">
        <ele>2121.7</ele>
        <time>2021-03-26T09:44:00Z</time>
      </trkpt>
      <trkpt lat="45.66496" lon="6.85685">
        <ele>2122.5</ele>
        <time>2021-03-26T09:44:01Z</time>
      </trkpt>
      <trkpt lat="45.66496" lon="6.85685">
        <ele>2122.5</ele>
        <time>2021-03-26T09:44:02Z</time>
      </trkpt>
      <trkpt lat="45.66497" lon="6.85686">
        <ele>2122.5</ele>
        <time>2021-03-26T09:44:03Z</time>
      </trkpt>
      <trkpt lat="45.66498" lon="6.85686">
        <ele>2122.5</ele>
        <time>2021-03-26T09:44:04Z</time>
      </trkpt>
      <trkpt lat="45.66498" lon="6.85687">
        <ele>2122.5</ele>
        <time>2021-03-26T09:44:05Z</time>
      </trkpt>
      <trkpt lat="45.66499" lon="6.85687">
        <ele>2123.4</ele>
        <time>2021-03-26T09:44:06Z</time>
      </trkpt>
      <trkpt lat="45.66499" lon="6.85688">
        <ele>2123.4</ele>
        <time>2021-03-26T09:44:07Z</time>
      </trkpt>
      <trkpt lat="45.665" lon="6.85688">
        <ele>2123.4</ele>
        <time>2021-03-26T09:44:08Z</time>
      </trkpt>
      <trkpt lat="45.665" lon="6.85688">
        <ele>2123.4</ele>
        <time>2021-03-26T09:44:09Z</time>
      </trkpt>
      <trkpt lat="45.66501" lon="6.85689">
        <ele>2123.3</ele>
        <time>2021-03-26T09:44:10Z</time>
      </trkpt>
      <trkpt lat="45.66502" lon="6.85689">
        <ele>2123.3</ele>
        <time>2021-03-26T09:44:11Z</time>
      </trkpt>
      <trkpt lat="45.66502" lon="6.85689">
        <ele>2124.3</ele>
        <time>2021-03-26T09:44:12Z</time>
      </trkpt>
      <trkpt lat="45.66503" lon="6.85689">
        <ele>2124.3</ele>
        <time>2021-03-26T09:44:13Z</time>
      </trkpt>
      <trkpt lat="45.66503" lon="6.8569">
        <ele>2124.3</ele>
        <time>2021-03-26T09:44:14Z</time>
      </trkpt>
      <trkpt lat="45.66504" lon="6.8569">
        <ele>2124.3</ele>
        <time>2021-03-26T09:44:15Z</time>
      </trkpt>
      <trkpt lat="45.66505" lon="6.8569">
        <ele>2124.3</ele>
        <time>2021-03-26T09:44:16Z</time>
      </trkpt>
      <trkpt lat="45.66505" lon="6.85691">
        <ele>2125.2</ele>
        <time>2021-03-26T09:44:17Z</time>
      </trkpt>
      <trkpt lat="45.66506" lon="6.85691">
        <ele>2125.2</ele>
        <time>2021-03-26T09:44:18Z</time>
      </trkpt>
      <trkpt lat="45.66506" lon="6.85691">
        <ele>2125.2</ele>
        <time>2021-03-26T09:44:19Z</time>
      </trkpt>
      <trkpt lat="45.66507" lon="6.85692">
        <ele>2125.2</ele>
        <time>2021-03-26T09:44:20Z</time>
      </trkpt>
      <trkpt lat="45.66507" lon="6.85692">
        <ele>2125.2</ele>
        <time>2021-03-26T09:44:21Z</time>
      </trkpt>
      <trkpt lat="45.66508" lon="6.85693">
        <ele>2126.1</ele>
        <time>2021-03-26T09:44:22Z</time>
      </trkpt>
      <trkpt lat="45.66508" lon="6.85693">
        <ele>2126</ele>
        <time>2021-03-26T09:44:23Z</time>
      </trkpt>
      <trkpt lat="45.66509" lon="6.85693">
        <ele>2126</ele>
        <time>2021-03-26T09:44:24Z</time>
      </trkpt>
      <trkpt lat="45.6651" lon="6.85693">
        <ele>2126</ele>
        <time>2021-03-26T09:44:25Z</time>
      </trkpt>
      <trkpt lat="45.6651" lon="6.85694">
        <ele>2126</ele>
        <time>2021-03-26T09:44:26Z</time>
      </trkpt>
      <trkpt lat="45.66511" lon="6.85694">
        <ele>2126.8</ele>
        <time>2021-03-26T09:44:27Z</time>
      </trkpt>
      <trkpt lat="45.66512" lon="6.85693">
        <ele>2126.8</ele>
        <time>2021-03-26T09:44:28Z</time>
      </trkpt>
      <trkpt lat="45.66513" lon="6.85693">
        <ele>2126.8</ele>
        <time>2021-03-26T09:44:29Z</time>
      </trkpt>
      <trkpt lat="45.66513" lon="6.85693">
        <ele>2126.8</ele>
        <time>2021-03-26T09:44:30Z</time>
      </trkpt>
      <trkpt lat="45.66514" lon="6.85693">
        <ele>2127.5</ele>
        <time>2021-03-26T09:44:31Z</time>
      </trkpt>
      <trkpt lat="45.66514" lon="6.85693">
        <ele>2127.5</ele>
        <time>2021-03-26T09:44:32Z</time>
      </trkpt>
      <trkpt lat="45.66515" lon="6.85693">
        <ele>2127.5</ele>
        <time>2021-03-26T09:44:33Z</time>
      </trkpt>
      <trkpt lat="45.66516" lon="6.85693">
        <ele>2127.5</ele>
        <time>2021-03-26T09:44:34Z</time>
      </trkpt>
      <trkpt lat="45.66517" lon="6.85693">
        <ele>2127.5</ele>
        <time>2021-03-26T09:44:35Z</time>
      </trkpt>
      <trkpt lat="45.66517" lon="6.85693">
        <ele>2128.2</ele>
        <time>2021-03-26T09:44:36Z</time>
      </trkpt>
      <trkpt lat="45.66518" lon="6.85693">
        <ele>2128.2</ele>
        <time>2021-03-26T09:44:37Z</time>
      </trkpt>
      <trkpt lat="45.66519" lon="6.85693">
        <ele>2128.2</ele>
        <time>2021-03-26T09:44:38Z</time>
      </trkpt>
      <trkpt lat="45.66519" lon="6.85693">
        <ele>2128.2</ele>
        <time>2021-03-26T09:44:39Z</time>
      </trkpt>
      <trkpt lat="45.6652" lon="6.85692">
        <ele>2128.9</ele>
        <time>2021-03-26T09:44:40Z</time>
      </trkpt>
      <trkpt lat="45.66521" lon="6.85692">
        <ele>2128.9</ele>
        <time>2021-03-26T09:44:41Z</time>
      </trkpt>
      <trkpt lat="45.66521" lon="6.85692">
        <ele>2128.9</ele>
        <time>2021-03-26T09:44:42Z</time>
      </trkpt>
      <trkpt lat="45.66522" lon="6.85692">
        <ele>2128.9</ele>
        <time>2021-03-26T09:44:43Z</time>
      </trkpt>
      <trkpt lat="45.66523" lon="6.85692">
        <ele>2129.7</ele>
        <time>2021-03-26T09:44:44Z</time>
      </trkpt>
      <trkpt lat="45.66524" lon="6.85692">
        <ele>2129.7</ele>
        <time>2021-03-26T09:44:45Z</time>
      </trkpt>
      <trkpt lat="45.66524" lon="6.85691">
        <ele>2129.7</ele>
        <time>2021-03-26T09:44:46Z</time>
      </trkpt>
      <trkpt lat="45.66525" lon="6.85691">
        <ele>2129.7</ele>
        <time>2021-03-26T09:44:47Z</time>
      </trkpt>
      <trkpt lat="45.66526" lon="6.8569">
        <ele>2130.5</ele>
        <time>2021-03-26T09:44:48Z</time>
      </trkpt>
      <trkpt lat="45.66526" lon="6.8569">
        <ele>2130.5</ele>
        <time>2021-03-26T09:44:49Z</time>
      </trkpt>
      <trkpt lat="45.66527" lon="6.8569">
        <ele>2130.5</ele>
        <time>2021-03-26T09:44:50Z</time>
      </trkpt>
      <trkpt lat="45.66528" lon="6.85689">
        <ele>2130.5</ele>
        <time>2021-03-26T09:44:51Z</time>
      </trkpt>
      <trkpt lat="45.66528" lon="6.85689">
        <ele>2130.5</ele>
        <time>2021-03-26T09:44:52Z</time>
      </trkpt>
      <trkpt lat="45.66529" lon="6.85689">
        <ele>2131.4</ele>
        <time>2021-03-26T09:44:53Z</time>
      </trkpt>
      <trkpt lat="45.66529" lon="6.85689">
        <ele>2131.4</ele>
        <time>2021-03-26T09:44:54Z</time>
      </trkpt>
      <trkpt lat="45.6653" lon="6.85688">
        <ele>2131.4</ele>
        <time>2021-03-26T09:44:55Z</time>
      </trkpt>
      <trkpt lat="45.66531" lon="6.85688">
        <ele>2131.4</ele>
        <time>2021-03-26T09:44:56Z</time>
      </trkpt>
      <trkpt lat="45.66532" lon="6.85688">
        <ele>2131.4</ele>
        <time>2021-03-26T09:44:57Z</time>
      </trkpt>
      <trkpt lat="45.66532" lon="6.85688">
        <ele>2132.2</ele>
        <time>2021-03-26T09:44:58Z</time>
      </trkpt>
      <trkpt lat="45.66533" lon="6.85687">
        <ele>2132.2</ele>
        <time>2021-03-26T09:44:59Z</time>
      </trkpt>
      <trkpt lat="45.66534" lon="6.85687">
        <ele>2132.2</ele>
        <time>2021-03-26T09:45:00Z</time>
      </trkpt>
      <trkpt lat="45.66535" lon="6.85687">
        <ele>2133</ele>
        <time>2021-03-26T09:45:01Z</time>
      </trkpt>
      <trkpt lat="45.66535" lon="6.85687">
        <ele>2133</ele>
        <time>2021-03-26T09:45:02Z</time>
      </trkpt>
      <trkpt lat="45.66536" lon="6.85687">
        <ele>2133</ele>
        <time>2021-03-26T09:45:03Z</time>
      </trkpt>
      <trkpt lat="45.66537" lon="6.85686">
        <ele>2133</ele>
        <time>2021-03-26T09:45:04Z</time>
      </trkpt>
      <trkpt lat="45.66538" lon="6.85686">
        <ele>2133</ele>
        <time>2021-03-26T09:45:05Z</time>
      </trkpt>
      <trkpt lat="45.66538" lon="6.85686">
        <ele>2133.6</ele>
        <time>2021-03-26T09:45:06Z</time>
      </trkpt>
      <trkpt lat="45.66539" lon="6.85686">
        <ele>2133.6</ele>
        <time>2021-03-26T09:45:07Z</time>
      </trkpt>
      <trkpt lat="45.6654" lon="6.85686">
        <ele>2133.6</ele>
        <time>2021-03-26T09:45:08Z</time>
      </trkpt>
      <trkpt lat="45.66541" lon="6.85686">
        <ele>2133.6</ele>
        <time>2021-03-26T09:45:09Z</time>
      </trkpt>
      <trkpt lat="45.66541" lon="6.85686">
        <ele>2134.3</ele>
        <time>2021-03-26T09:45:10Z</time>
      </trkpt>
      <trkpt lat="45.66542" lon="6.85686">
        <ele>2134.3</ele>
        <time>2021-03-26T09:45:11Z</time>
      </trkpt>
      <trkpt lat="45.66543" lon="6.85686">
        <ele>2134.3</ele>
        <time>2021-03-26T09:45:12Z</time>
      </trkpt>
      <trkpt lat="45.66544" lon="6.85685">
        <ele>2134.3</ele>
        <time>2021-03-26T09:45:13Z</time>
      </trkpt>
      <trkpt lat="45.66544" lon="6.85685">
        <ele>2134.9</ele>
        <time>2021-03-26T09:45:14Z</time>
      </trkpt>
      <trkpt lat="45.66545" lon="6.85685">
        <ele>2134.9</ele>
        <time>2021-03-26T09:45:15Z</time>
      </trkpt>
      <trkpt lat="45.66545" lon="6.85685">
        <ele>2134.9</ele>
        <time>2021-03-26T09:45:16Z</time>
      </trkpt>
      <trkpt lat="45.66546" lon="6.85685">
        <ele>2134.9</ele>
        <time>2021-03-26T09:45:17Z</time>
      </trkpt>
      <trkpt lat="45.66546" lon="6.85685">
        <ele>2134.9</ele>
        <time>2021-03-26T09:45:18Z</time>
      </trkpt>
      <trkpt lat="45.66547" lon="6.85685">
        <ele>2135.7</ele>
        <time>2021-03-26T09:45:19Z</time>
      </trkpt>
      <trkpt lat="45.66548" lon="6.85685">
        <ele>2135.7</ele>
        <time>2021-03-26T09:45:20Z</time>
      </trkpt>
      <trkpt lat="45.66548" lon="6.85685">
        <ele>2135.7</ele>
        <time>2021-03-26T09:45:21Z</time>
      </trkpt>
      <trkpt lat="45.66549" lon="6.85685">
        <ele>2135.7</ele>
        <time>2021-03-26T09:45:22Z</time>
      </trkpt>
      <trkpt lat="45.66549" lon="6.85684">
        <ele>2135.8</ele>
        <time>2021-03-26T09:45:23Z</time>
      </trkpt>
      <trkpt lat="45.6655" lon="6.85684">
        <ele>2136.7</ele>
        <time>2021-03-26T09:45:24Z</time>
      </trkpt>
      <trkpt lat="45.66551" lon="6.85683">
        <ele>2136.7</ele>
        <time>2021-03-26T09:45:25Z</time>
      </trkpt>
      <trkpt lat="45.66551" lon="6.85683">
        <ele>2136.7</ele>
        <time>2021-03-26T09:45:26Z</time>
      </trkpt>
      <trkpt lat="45.66552" lon="6.85682">
        <ele>2136.7</ele>
        <time>2021-03-26T09:45:27Z</time>
      </trkpt>
      <trkpt lat="45.66552" lon="6.85682">
        <ele>2136.7</ele>
        <time>2021-03-26T09:45:28Z</time>
      </trkpt>
      <trkpt lat="45.66553" lon="6.85681">
        <ele>2137.7</ele>
        <time>2021-03-26T09:45:29Z</time>
      </trkpt>
      <trkpt lat="45.66554" lon="6.85681">
        <ele>2137.7</ele>
        <time>2021-03-26T09:45:30Z</time>
      </trkpt>
      <trkpt lat="45.66554" lon="6.8568">
        <ele>2137.7</ele>
        <time>2021-03-26T09:45:31Z</time>
      </trkpt>
      <trkpt lat="45.66554" lon="6.8568">
        <ele>2137.7</ele>
        <time>2021-03-26T09:45:32Z</time>
      </trkpt>
      <trkpt lat="45.66555" lon="6.85679">
        <ele>2137.9</ele>
        <time>2021-03-26T09:45:33Z</time>
      </trkpt>
      <trkpt lat="45.66556" lon="6.85679">
        <ele>2138.9</ele>
        <time>2021-03-26T09:45:34Z</time>
      </trkpt>
      <trkpt lat="45.66556" lon="6.85678">
        <ele>2138.9</ele>
        <time>2021-03-26T09:45:35Z</time>
      </trkpt>
      <trkpt lat="45.66557" lon="6.85678">
        <ele>2138.9</ele>
        <time>2021-03-26T09:45:36Z</time>
      </trkpt>
      <trkpt lat="45.66557" lon="6.85677">
        <ele>2138.9</ele>
        <time>2021-03-26T09:45:37Z</time>
      </trkpt>
      <trkpt lat="45.66558" lon="6.85676">
        <ele>2138.9</ele>
        <time>2021-03-26T09:45:38Z</time>
      </trkpt>
      <trkpt lat="45.66558" lon="6.85676">
        <ele>2138.9</ele>
        <time>2021-03-26T09:45:39Z</time>
      </trkpt>
      <trkpt lat="45.66559" lon="6.85675">
        <ele>2140.2</ele>
        <time>2021-03-26T09:45:40Z</time>
      </trkpt>
      <trkpt lat="45.66559" lon="6.85675">
        <ele>2140.2</ele>
        <time>2021-03-26T09:45:41Z</time>
      </trkpt>
      <trkpt lat="45.6656" lon="6.85674">
        <ele>2140.2</ele>
        <time>2021-03-26T09:45:42Z</time>
      </trkpt>
      <trkpt lat="45.66561" lon="6.85674">
        <ele>2140.2</ele>
        <time>2021-03-26T09:45:43Z</time>
      </trkpt>
      <trkpt lat="45.66561" lon="6.85673">
        <ele>2140.2</ele>
        <time>2021-03-26T09:45:44Z</time>
      </trkpt>
      <trkpt lat="45.66562" lon="6.85672">
        <ele>2141.2</ele>
        <time>2021-03-26T09:45:45Z</time>
      </trkpt>
      <trkpt lat="45.66563" lon="6.85672">
        <ele>2141.2</ele>
        <time>2021-03-26T09:45:46Z</time>
      </trkpt>
      <trkpt lat="45.66563" lon="6.85672">
        <ele>2141.2</ele>
        <time>2021-03-26T09:45:47Z</time>
      </trkpt>
      <trkpt lat="45.66564" lon="6.85671">
        <ele>2141.5</ele>
        <time>2021-03-26T09:45:48Z</time>
      </trkpt>
      <trkpt lat="45.66564" lon="6.8567">
        <ele>2141.5</ele>
        <time>2021-03-26T09:45:49Z</time>
      </trkpt>
      <trkpt lat="45.66565" lon="6.85669">
        <ele>2142.5</ele>
        <time>2021-03-26T09:45:50Z</time>
      </trkpt>
      <trkpt lat="45.66565" lon="6.85668">
        <ele>2142.5</ele>
        <time>2021-03-26T09:45:51Z</time>
      </trkpt>
      <trkpt lat="45.66565" lon="6.85668">
        <ele>2142.5</ele>
        <time>2021-03-26T09:45:52Z</time>
      </trkpt>
      <trkpt lat="45.66565" lon="6.85667">
        <ele>2142.5</ele>
        <time>2021-03-26T09:45:53Z</time>
      </trkpt>
      <trkpt lat="45.66565" lon="6.85666">
        <ele>2142.9</ele>
        <time>2021-03-26T09:45:54Z</time>
      </trkpt>
      <trkpt lat="45.66566" lon="6.85666">
        <ele>2142.9</ele>
        <time>2021-03-26T09:45:55Z</time>
      </trkpt>
      <trkpt lat="45.66566" lon="6.85666">
        <ele>2142.9</ele>
        <time>2021-03-26T09:45:56Z</time>
      </trkpt>
      <trkpt lat="45.66566" lon="6.85666">
        <ele>2142.9</ele>
        <time>2021-03-26T09:45:57Z</time>
      </trkpt>
      <trkpt lat="45.66567" lon="6.85666">
        <ele>2142.9</ele>
        <time>2021-03-26T09:45:58Z</time>
      </trkpt>
      <trkpt lat="45.66567" lon="6.85667">
        <ele>2142.9</ele>
        <time>2021-03-26T09:45:59Z</time>
      </trkpt>
      <trkpt lat="45.66568" lon="6.85667">
        <ele>2143.8</ele>
        <time>2021-03-26T09:46:00Z</time>
      </trkpt>
      <trkpt lat="45.66569" lon="6.85667">
        <ele>2143.4</ele>
        <time>2021-03-26T09:46:01Z</time>
      </trkpt>
      <trkpt lat="45.66569" lon="6.85668">
        <ele>2143.4</ele>
        <time>2021-03-26T09:46:02Z</time>
      </trkpt>
      <trkpt lat="45.6657" lon="6.85668">
        <ele>2143.4</ele>
        <time>2021-03-26T09:46:03Z</time>
      </trkpt>
      <trkpt lat="45.66571" lon="6.85669">
        <ele>2144.4</ele>
        <time>2021-03-26T09:46:04Z</time>
      </trkpt>
      <trkpt lat="45.66571" lon="6.85669">
        <ele>2144.4</ele>
        <time>2021-03-26T09:46:05Z</time>
      </trkpt>
      <trkpt lat="45.66572" lon="6.85669">
        <ele>2144.4</ele>
        <time>2021-03-26T09:46:06Z</time>
      </trkpt>
      <trkpt lat="45.66572" lon="6.8567">
        <ele>2144.4</ele>
        <time>2021-03-26T09:46:07Z</time>
      </trkpt>
      <trkpt lat="45.66573" lon="6.8567">
        <ele>2144.4</ele>
        <time>2021-03-26T09:46:08Z</time>
      </trkpt>
      <trkpt lat="45.66574" lon="6.8567">
        <ele>2144.4</ele>
        <time>2021-03-26T09:46:09Z</time>
      </trkpt>
      <trkpt lat="45.66574" lon="6.8567">
        <ele>2145.4</ele>
        <time>2021-03-26T09:46:10Z</time>
      </trkpt>
      <trkpt lat="45.66575" lon="6.85669">
        <ele>2145.4</ele>
        <time>2021-03-26T09:46:11Z</time>
      </trkpt>
      <trkpt lat="45.66576" lon="6.85669">
        <ele>2145.4</ele>
        <time>2021-03-26T09:46:12Z</time>
      </trkpt>
      <trkpt lat="45.66576" lon="6.85669">
        <ele>2145.4</ele>
        <time>2021-03-26T09:46:13Z</time>
      </trkpt>
      <trkpt lat="45.66577" lon="6.85669">
        <ele>2146.4</ele>
        <time>2021-03-26T09:46:14Z</time>
      </trkpt>
      <trkpt lat="45.66578" lon="6.85669">
        <ele>2146.4</ele>
        <time>2021-03-26T09:46:15Z</time>
      </trkpt>
      <trkpt lat="45.66578" lon="6.85668">
        <ele>2146.4</ele>
        <time>2021-03-26T09:46:16Z</time>
      </trkpt>
      <trkpt lat="45.66579" lon="6.85668">
        <ele>2146.4</ele>
        <time>2021-03-26T09:46:17Z</time>
      </trkpt>
      <trkpt lat="45.6658" lon="6.85667">
        <ele>2146.4</ele>
        <time>2021-03-26T09:46:18Z</time>
      </trkpt>
      <trkpt lat="45.6658" lon="6.85667">
        <ele>2148</ele>
        <time>2021-03-26T09:46:19Z</time>
      </trkpt>
      <trkpt lat="45.66581" lon="6.85667">
        <ele>2148</ele>
        <time>2021-03-26T09:46:20Z</time>
      </trkpt>
      <trkpt lat="45.66581" lon="6.85667">
        <ele>2148</ele>
        <time>2021-03-26T09:46:21Z</time>
      </trkpt>
      <trkpt lat="45.66582" lon="6.85666">
        <ele>2148</ele>
        <time>2021-03-26T09:46:22Z</time>
      </trkpt>
      <trkpt lat="45.66582" lon="6.85666">
        <ele>2148</ele>
        <time>2021-03-26T09:46:23Z</time>
      </trkpt>
      <trkpt lat="45.66582" lon="6.85666">
        <ele>2148</ele>
        <time>2021-03-26T09:46:24Z</time>
      </trkpt>
      <trkpt lat="45.66583" lon="6.85666">
        <ele>2149.1</ele>
        <time>2021-03-26T09:46:25Z</time>
      </trkpt>
      <trkpt lat="45.66583" lon="6.85665">
        <ele>2149.1</ele>
        <time>2021-03-26T09:46:26Z</time>
      </trkpt>
      <trkpt lat="45.66584" lon="6.85665">
        <ele>2149.1</ele>
        <time>2021-03-26T09:46:27Z</time>
      </trkpt>
      <trkpt lat="45.66584" lon="6.85665">
        <ele>2149.1</ele>
        <time>2021-03-26T09:46:28Z</time>
      </trkpt>
      <trkpt lat="45.66585" lon="6.85665">
        <ele>2149.1</ele>
        <time>2021-03-26T09:46:29Z</time>
      </trkpt>
      <trkpt lat="45.66586" lon="6.85665">
        <ele>2149.1</ele>
        <time>2021-03-26T09:46:30Z</time>
      </trkpt>
      <trkpt lat="45.66586" lon="6.85665">
        <ele>2150.3</ele>
        <time>2021-03-26T09:46:31Z</time>
      </trkpt>
      <trkpt lat="45.66587" lon="6.85665">
        <ele>2150.3</ele>
        <time>2021-03-26T09:46:32Z</time>
      </trkpt>
      <trkpt lat="45.66587" lon="6.85665">
        <ele>2150.3</ele>
        <time>2021-03-26T09:46:33Z</time>
      </trkpt>
      <trkpt lat="45.66588" lon="6.85665">
        <ele>2150.3</ele>
        <time>2021-03-26T09:46:34Z</time>
      </trkpt>
      <trkpt lat="45.66588" lon="6.85665">
        <ele>2150.3</ele>
        <time>2021-03-26T09:46:35Z</time>
      </trkpt>
      <trkpt lat="45.66589" lon="6.85665">
        <ele>2151.5</ele>
        <time>2021-03-26T09:46:36Z</time>
      </trkpt>
      <trkpt lat="45.6659" lon="6.85665">
        <ele>2151.5</ele>
        <time>2021-03-26T09:46:37Z</time>
      </trkpt>
      <trkpt lat="45.6659" lon="6.85665">
        <ele>2151.5</ele>
        <time>2021-03-26T09:46:38Z</time>
      </trkpt>
      <trkpt lat="45.66591" lon="6.85665">
        <ele>2151.5</ele>
        <time>2021-03-26T09:46:39Z</time>
      </trkpt>
      <trkpt lat="45.66591" lon="6.85665">
        <ele>2151.5</ele>
        <time>2021-03-26T09:46:40Z</time>
      </trkpt>
      <trkpt lat="45.66592" lon="6.85665">
        <ele>2152.6</ele>
        <time>2021-03-26T09:46:41Z</time>
      </trkpt>
      <trkpt lat="45.66592" lon="6.85665">
        <ele>2152.6</ele>
        <time>2021-03-26T09:46:42Z</time>
      </trkpt>
      <trkpt lat="45.66593" lon="6.85666">
        <ele>2152.6</ele>
        <time>2021-03-26T09:46:43Z</time>
      </trkpt>
      <trkpt lat="45.66593" lon="6.85666">
        <ele>2152.6</ele>
        <time>2021-03-26T09:46:44Z</time>
      </trkpt>
      <trkpt lat="45.66594" lon="6.85666">
        <ele>2152.6</ele>
        <time>2021-03-26T09:46:45Z</time>
      </trkpt>
      <trkpt lat="45.66594" lon="6.85666">
        <ele>2152.6</ele>
        <time>2021-03-26T09:46:46Z</time>
      </trkpt>
      <trkpt lat="45.66594" lon="6.85666">
        <ele>2152.6</ele>
        <time>2021-03-26T09:46:47Z</time>
      </trkpt>
      <trkpt lat="45.66595" lon="6.85667">
        <ele>2153.8</ele>
        <time>2021-03-26T09:46:48Z</time>
      </trkpt>
      <trkpt lat="45.66595" lon="6.85667">
        <ele>2153.8</ele>
        <time>2021-03-26T09:46:49Z</time>
      </trkpt>
      <trkpt lat="45.66596" lon="6.85667">
        <ele>2153.3</ele>
        <time>2021-03-26T09:46:50Z</time>
      </trkpt>
      <trkpt lat="45.66596" lon="6.85668">
        <ele>2153.3</ele>
        <time>2021-03-26T09:46:51Z</time>
      </trkpt>
      <trkpt lat="45.66597" lon="6.85668">
        <ele>2153.3</ele>
        <time>2021-03-26T09:46:52Z</time>
      </trkpt>
      <trkpt lat="45.66597" lon="6.85668">
        <ele>2153.3</ele>
        <time>2021-03-26T09:46:53Z</time>
      </trkpt>
      <trkpt lat="45.66598" lon="6.85669">
        <ele>2154.4</ele>
        <time>2021-03-26T09:46:54Z</time>
      </trkpt>
      <trkpt lat="45.66598" lon="6.85669">
        <ele>2154.4</ele>
        <time>2021-03-26T09:46:55Z</time>
      </trkpt>
      <trkpt lat="45.66599" lon="6.85669">
        <ele>2154.4</ele>
        <time>2021-03-26T09:46:56Z</time>
      </trkpt>
      <trkpt lat="45.666" lon="6.8567">
        <ele>2154.4</ele>
        <time>2021-03-26T09:46:57Z</time>
      </trkpt>
      <trkpt lat="45.666" lon="6.8567">
        <ele>2154.4</ele>
        <time>2021-03-26T09:46:58Z</time>
      </trkpt>
      <trkpt lat="45.666" lon="6.8567">
        <ele>2154.4</ele>
        <time>2021-03-26T09:46:59Z</time>
      </trkpt>
      <trkpt lat="45.666" lon="6.85671">
        <ele>2154.4</ele>
        <time>2021-03-26T09:47:00Z</time>
      </trkpt>
      <trkpt lat="45.66601" lon="6.85671">
        <ele>2155.5</ele>
        <time>2021-03-26T09:47:01Z</time>
      </trkpt>
      <trkpt lat="45.66601" lon="6.85672">
        <ele>2155.1</ele>
        <time>2021-03-26T09:47:02Z</time>
      </trkpt>
      <trkpt lat="45.66602" lon="6.85672">
        <ele>2155.1</ele>
        <time>2021-03-26T09:47:03Z</time>
      </trkpt>
      <trkpt lat="45.66603" lon="6.85673">
        <ele>2155.1</ele>
        <time>2021-03-26T09:47:04Z</time>
      </trkpt>
      <trkpt lat="45.66603" lon="6.85673">
        <ele>2155.1</ele>
        <time>2021-03-26T09:47:05Z</time>
      </trkpt>
      <trkpt lat="45.66603" lon="6.85674">
        <ele>2155.1</ele>
        <time>2021-03-26T09:47:06Z</time>
      </trkpt>
      <trkpt lat="45.66604" lon="6.85675">
        <ele>2156.3</ele>
        <time>2021-03-26T09:47:07Z</time>
      </trkpt>
      <trkpt lat="45.66604" lon="6.85675">
        <ele>2156.3</ele>
        <time>2021-03-26T09:47:08Z</time>
      </trkpt>
      <trkpt lat="45.66604" lon="6.85677">
        <ele>2155.9</ele>
        <time>2021-03-26T09:47:09Z</time>
      </trkpt>
      <trkpt lat="45.66604" lon="6.85678">
        <ele>2155.9</ele>
        <time>2021-03-26T09:47:10Z</time>
      </trkpt>
      <trkpt lat="45.66605" lon="6.85679">
        <ele>2155.9</ele>
        <time>2021-03-26T09:47:11Z</time>
      </trkpt>
      <trkpt lat="45.66605" lon="6.8568">
        <ele>2155.6</ele>
        <time>2021-03-26T09:47:12Z</time>
      </trkpt>
      <trkpt lat="45.66605" lon="6.85681">
        <ele>2155.6</ele>
        <time>2021-03-26T09:47:13Z</time>
      </trkpt>
      <trkpt lat="45.66605" lon="6.85682">
        <ele>2155.6</ele>
        <time>2021-03-26T09:47:14Z</time>
      </trkpt>
      <trkpt lat="45.66606" lon="6.85682">
        <ele>2155.6</ele>
        <time>2021-03-26T09:47:15Z</time>
      </trkpt>
      <trkpt lat="45.66606" lon="6.85683">
        <ele>2155.6</ele>
        <time>2021-03-26T09:47:16Z</time>
      </trkpt>
      <trkpt lat="45.66606" lon="6.85682">
        <ele>2155.6</ele>
        <time>2021-03-26T09:47:17Z</time>
      </trkpt>
      <trkpt lat="45.66607" lon="6.85682">
        <ele>2156.8</ele>
        <time>2021-03-26T09:47:18Z</time>
      </trkpt>
      <trkpt lat="45.66607" lon="6.85682">
        <ele>2156.8</ele>
        <time>2021-03-26T09:47:19Z</time>
      </trkpt>
      <trkpt lat="45.66608" lon="6.85681">
        <ele>2156.8</ele>
        <time>2021-03-26T09:47:20Z</time>
      </trkpt>
      <trkpt lat="45.66608" lon="6.85681">
        <ele>2156.8</ele>
        <time>2021-03-26T09:47:21Z</time>
      </trkpt>
      <trkpt lat="45.66608" lon="6.85681">
        <ele>2156.8</ele>
        <time>2021-03-26T09:47:22Z</time>
      </trkpt>
      <trkpt lat="45.66609" lon="6.8568">
        <ele>2156.8</ele>
        <time>2021-03-26T09:47:23Z</time>
      </trkpt>
      <trkpt lat="45.66609" lon="6.8568">
        <ele>2157.1</ele>
        <time>2021-03-26T09:47:24Z</time>
      </trkpt>
      <trkpt lat="45.66609" lon="6.85679">
        <ele>2157.1</ele>
        <time>2021-03-26T09:47:25Z</time>
      </trkpt>
      <trkpt lat="45.66609" lon="6.85679">
        <ele>2157.1</ele>
        <time>2021-03-26T09:47:26Z</time>
      </trkpt>
      <trkpt lat="45.6661" lon="6.85679">
        <ele>2158.5</ele>
        <time>2021-03-26T09:47:27Z</time>
      </trkpt>
      <trkpt lat="45.6661" lon="6.85678">
        <ele>2158.5</ele>
        <time>2021-03-26T09:47:28Z</time>
      </trkpt>
      <trkpt lat="45.6661" lon="6.85678">
        <ele>2158.5</ele>
        <time>2021-03-26T09:47:29Z</time>
      </trkpt>
      <trkpt lat="45.6661" lon="6.85677">
        <ele>2158.5</ele>
        <time>2021-03-26T09:47:30Z</time>
      </trkpt>
      <trkpt lat="45.66611" lon="6.85677">
        <ele>2158.5</ele>
        <time>2021-03-26T09:47:31Z</time>
      </trkpt>
      <trkpt lat="45.66611" lon="6.85676">
        <ele>2158.5</ele>
        <time>2021-03-26T09:47:32Z</time>
      </trkpt>
      <trkpt lat="45.66611" lon="6.85676">
        <ele>2158.9</ele>
        <time>2021-03-26T09:47:33Z</time>
      </trkpt>
      <trkpt lat="45.66611" lon="6.85675">
        <ele>2158.9</ele>
        <time>2021-03-26T09:47:34Z</time>
      </trkpt>
      <trkpt lat="45.66612" lon="6.85674">
        <ele>2158.9</ele>
        <time>2021-03-26T09:47:35Z</time>
      </trkpt>
      <trkpt lat="45.66612" lon="6.85674">
        <ele>2158.9</ele>
        <time>2021-03-26T09:47:36Z</time>
      </trkpt>
      <trkpt lat="45.66612" lon="6.85673">
        <ele>2158.9</ele>
        <time>2021-03-26T09:47:37Z</time>
      </trkpt>
      <trkpt lat="45.66613" lon="6.85673">
        <ele>2160.3</ele>
        <time>2021-03-26T09:47:38Z</time>
      </trkpt>
      <trkpt lat="45.66613" lon="6.85672">
        <ele>2160.3</ele>
        <time>2021-03-26T09:47:39Z</time>
      </trkpt>
      <trkpt lat="45.66613" lon="6.85671">
        <ele>2160.3</ele>
        <time>2021-03-26T09:47:40Z</time>
      </trkpt>
      <trkpt lat="45.66613" lon="6.85671">
        <ele>2160.7</ele>
        <time>2021-03-26T09:47:41Z</time>
      </trkpt>
      <trkpt lat="45.66613" lon="6.8567">
        <ele>2160.7</ele>
        <time>2021-03-26T09:47:42Z</time>
      </trkpt>
      <trkpt lat="45.66614" lon="6.8567">
        <ele>2160.7</ele>
        <time>2021-03-26T09:47:43Z</time>
      </trkpt>
      <trkpt lat="45.66614" lon="6.85669">
        <ele>2160.7</ele>
        <time>2021-03-26T09:47:44Z</time>
      </trkpt>
      <trkpt lat="45.66615" lon="6.85668">
        <ele>2160.7</ele>
        <time>2021-03-26T09:47:45Z</time>
      </trkpt>
      <trkpt lat="45.66615" lon="6.85668">
        <ele>2160.7</ele>
        <time>2021-03-26T09:47:46Z</time>
      </trkpt>
      <trkpt lat="45.66615" lon="6.85667">
        <ele>2161.2</ele>
        <time>2021-03-26T09:47:47Z</time>
      </trkpt>
      <trkpt lat="45.66615" lon="6.85666">
        <ele>2161.2</ele>
        <time>2021-03-26T09:47:48Z</time>
      </trkpt>
      <trkpt lat="45.66615" lon="6.85665">
        <ele>2161.2</ele>
        <time>2021-03-26T09:47:49Z</time>
      </trkpt>
      <trkpt lat="45.66615" lon="6.85665">
        <ele>2161.2</ele>
        <time>2021-03-26T09:47:50Z</time>
      </trkpt>
      <trkpt lat="45.66615" lon="6.85664">
        <ele>2161.2</ele>
        <time>2021-03-26T09:47:51Z</time>
      </trkpt>
      <trkpt lat="45.66615" lon="6.85664">
        <ele>2161.2</ele>
        <time>2021-03-26T09:47:52Z</time>
      </trkpt>
      <trkpt lat="45.66616" lon="6.85664">
        <ele>2161.2</ele>
        <time>2021-03-26T09:47:53Z</time>
      </trkpt>
      <trkpt lat="45.66616" lon="6.85663">
        <ele>2162.6</ele>
        <time>2021-03-26T09:47:54Z</time>
      </trkpt>
      <trkpt lat="45.66616" lon="6.85663">
        <ele>2163.2</ele>
        <time>2021-03-26T09:47:55Z</time>
      </trkpt>
      <trkpt lat="45.66616" lon="6.85662">
        <ele>2163.2</ele>
        <time>2021-03-26T09:47:56Z</time>
      </trkpt>
      <trkpt lat="45.66617" lon="6.85661">
        <ele>2163.2</ele>
        <time>2021-03-26T09:47:57Z</time>
      </trkpt>
      <trkpt lat="45.66617" lon="6.8566">
        <ele>2163.2</ele>
        <time>2021-03-26T09:47:58Z</time>
      </trkpt>
      <trkpt lat="45.66618" lon="6.85659">
        <ele>2163.2</ele>
        <time>2021-03-26T09:47:59Z</time>
      </trkpt>
      <trkpt lat="45.66618" lon="6.85659">
        <ele>2163.2</ele>
        <time>2021-03-26T09:48:00Z</time>
      </trkpt>
      <trkpt lat="45.66618" lon="6.85659">
        <ele>2163.2</ele>
        <time>2021-03-26T09:48:01Z</time>
      </trkpt>
      <trkpt lat="45.66618" lon="6.85658">
        <ele>2163.7</ele>
        <time>2021-03-26T09:48:02Z</time>
      </trkpt>
      <trkpt lat="45.66618" lon="6.85658">
        <ele>2163.7</ele>
        <time>2021-03-26T09:48:03Z</time>
      </trkpt>
      <trkpt lat="45.66619" lon="6.85658">
        <ele>2165</ele>
        <time>2021-03-26T09:48:04Z</time>
      </trkpt>
      <trkpt lat="45.66619" lon="6.85658">
        <ele>2165</ele>
        <time>2021-03-26T09:48:05Z</time>
      </trkpt>
      <trkpt lat="45.6662" lon="6.85658">
        <ele>2165</ele>
        <time>2021-03-26T09:48:06Z</time>
      </trkpt>
      <trkpt lat="45.6662" lon="6.85658">
        <ele>2165</ele>
        <time>2021-03-26T09:48:07Z</time>
      </trkpt>
      <trkpt lat="45.66621" lon="6.85659">
        <ele>2164.4</ele>
        <time>2021-03-26T09:48:08Z</time>
      </trkpt>
      <trkpt lat="45.66622" lon="6.85659">
        <ele>2165.6</ele>
        <time>2021-03-26T09:48:09Z</time>
      </trkpt>
      <trkpt lat="45.66623" lon="6.85659">
        <ele>2165.6</ele>
        <time>2021-03-26T09:48:10Z</time>
      </trkpt>
      <trkpt lat="45.66623" lon="6.85659">
        <ele>2165.6</ele>
        <time>2021-03-26T09:48:11Z</time>
      </trkpt>
      <trkpt lat="45.66624" lon="6.85659">
        <ele>2165.6</ele>
        <time>2021-03-26T09:48:12Z</time>
      </trkpt>
      <trkpt lat="45.66625" lon="6.85659">
        <ele>2166.7</ele>
        <time>2021-03-26T09:48:13Z</time>
      </trkpt>
      <trkpt lat="45.66625" lon="6.85659">
        <ele>2166.7</ele>
        <time>2021-03-26T09:48:14Z</time>
      </trkpt>
      <trkpt lat="45.66626" lon="6.85659">
        <ele>2166.7</ele>
        <time>2021-03-26T09:48:15Z</time>
      </trkpt>
      <trkpt lat="45.66626" lon="6.85659">
        <ele>2166.7</ele>
        <time>2021-03-26T09:48:16Z</time>
      </trkpt>
      <trkpt lat="45.66627" lon="6.8566">
        <ele>2166.7</ele>
        <time>2021-03-26T09:48:17Z</time>
      </trkpt>
      <trkpt lat="45.66628" lon="6.8566">
        <ele>2166.7</ele>
        <time>2021-03-26T09:48:18Z</time>
      </trkpt>
      <trkpt lat="45.66628" lon="6.8566">
        <ele>2167.9</ele>
        <time>2021-03-26T09:48:19Z</time>
      </trkpt>
      <trkpt lat="45.66629" lon="6.8566">
        <ele>2167.9</ele>
        <time>2021-03-26T09:48:20Z</time>
      </trkpt>
      <trkpt lat="45.6663" lon="6.8566">
        <ele>2167.9</ele>
        <time>2021-03-26T09:48:21Z</time>
      </trkpt>
      <trkpt lat="45.6663" lon="6.85661">
        <ele>2167.9</ele>
        <time>2021-03-26T09:48:22Z</time>
      </trkpt>
      <trkpt lat="45.66631" lon="6.85661">
        <ele>2169.1</ele>
        <time>2021-03-26T09:48:23Z</time>
      </trkpt>
      <trkpt lat="45.66632" lon="6.85661">
        <ele>2169.1</ele>
        <time>2021-03-26T09:48:24Z</time>
      </trkpt>
      <trkpt lat="45.66633" lon="6.85661">
        <ele>2169.1</ele>
        <time>2021-03-26T09:48:25Z</time>
      </trkpt>
      <trkpt lat="45.66633" lon="6.85661">
        <ele>2169.1</ele>
        <time>2021-03-26T09:48:26Z</time>
      </trkpt>
      <trkpt lat="45.66634" lon="6.85661">
        <ele>2170.3</ele>
        <time>2021-03-26T09:48:27Z</time>
      </trkpt>
      <trkpt lat="45.66635" lon="6.85661">
        <ele>2170.3</ele>
        <time>2021-03-26T09:48:28Z</time>
      </trkpt>
      <trkpt lat="45.66635" lon="6.85662">
        <ele>2170.3</ele>
        <time>2021-03-26T09:48:29Z</time>
      </trkpt>
      <trkpt lat="45.66636" lon="6.85662">
        <ele>2170.3</ele>
        <time>2021-03-26T09:48:30Z</time>
      </trkpt>
      <trkpt lat="45.66636" lon="6.85662">
        <ele>2170.3</ele>
        <time>2021-03-26T09:48:31Z</time>
      </trkpt>
      <trkpt lat="45.66637" lon="6.85662">
        <ele>2171.7</ele>
        <time>2021-03-26T09:48:32Z</time>
      </trkpt>
      <trkpt lat="45.66638" lon="6.85662">
        <ele>2171.7</ele>
        <time>2021-03-26T09:48:33Z</time>
      </trkpt>
      <trkpt lat="45.66638" lon="6.85662">
        <ele>2171.7</ele>
        <time>2021-03-26T09:48:34Z</time>
      </trkpt>
      <trkpt lat="45.66639" lon="6.85662">
        <ele>2171.7</ele>
        <time>2021-03-26T09:48:35Z</time>
      </trkpt>
      <trkpt lat="45.6664" lon="6.85662">
        <ele>2173</ele>
        <time>2021-03-26T09:48:36Z</time>
      </trkpt>
      <trkpt lat="45.6664" lon="6.85662">
        <ele>2173</ele>
        <time>2021-03-26T09:48:37Z</time>
      </trkpt>
      <trkpt lat="45.66641" lon="6.85663">
        <ele>2173</ele>
        <time>2021-03-26T09:48:38Z</time>
      </trkpt>
      <trkpt lat="45.66641" lon="6.85663">
        <ele>2172.4</ele>
        <time>2021-03-26T09:48:39Z</time>
      </trkpt>
      <trkpt lat="45.66642" lon="6.85663">
        <ele>2172.4</ele>
        <time>2021-03-26T09:48:40Z</time>
      </trkpt>
      <trkpt lat="45.66643" lon="6.85664">
        <ele>2173.6</ele>
        <time>2021-03-26T09:48:41Z</time>
      </trkpt>
      <trkpt lat="45.66643" lon="6.85665">
        <ele>2173.6</ele>
        <time>2021-03-26T09:48:42Z</time>
      </trkpt>
      <trkpt lat="45.66644" lon="6.85665">
        <ele>2173.6</ele>
        <time>2021-03-26T09:48:43Z</time>
      </trkpt>
      <trkpt lat="45.66644" lon="6.85665">
        <ele>2173.6</ele>
        <time>2021-03-26T09:48:44Z</time>
      </trkpt>
      <trkpt lat="45.66644" lon="6.85666">
        <ele>2173.6</ele>
        <time>2021-03-26T09:48:45Z</time>
      </trkpt>
      <trkpt lat="45.66644" lon="6.85667">
        <ele>2173.6</ele>
        <time>2021-03-26T09:48:46Z</time>
      </trkpt>
      <trkpt lat="45.66645" lon="6.85667">
        <ele>2173.6</ele>
        <time>2021-03-26T09:48:47Z</time>
      </trkpt>
      <trkpt lat="45.66645" lon="6.85667">
        <ele>2173.6</ele>
        <time>2021-03-26T09:48:48Z</time>
      </trkpt>
      <trkpt lat="45.66646" lon="6.85667">
        <ele>2174.8</ele>
        <time>2021-03-26T09:48:49Z</time>
      </trkpt>
      <trkpt lat="45.66646" lon="6.85667">
        <ele>2174.8</ele>
        <time>2021-03-26T09:48:50Z</time>
      </trkpt>
      <trkpt lat="45.66646" lon="6.85667">
        <ele>2174.8</ele>
        <time>2021-03-26T09:48:51Z</time>
      </trkpt>
      <trkpt lat="45.66647" lon="6.85667">
        <ele>2174.8</ele>
        <time>2021-03-26T09:48:52Z</time>
      </trkpt>
      <trkpt lat="45.66647" lon="6.85666">
        <ele>2174.8</ele>
        <time>2021-03-26T09:48:53Z</time>
      </trkpt>
      <trkpt lat="45.66647" lon="6.85666">
        <ele>2174.8</ele>
        <time>2021-03-26T09:48:54Z</time>
      </trkpt>
      <trkpt lat="45.66647" lon="6.85666">
        <ele>2174.8</ele>
        <time>2021-03-26T09:48:55Z</time>
      </trkpt>
      <trkpt lat="45.66647" lon="6.85666">
        <ele>2174.8</ele>
        <time>2021-03-26T09:48:56Z</time>
      </trkpt>
      <trkpt lat="45.66647" lon="6.85666">
        <ele>2174.8</ele>
        <time>2021-03-26T09:48:57Z</time>
      </trkpt>
      <trkpt lat="45.66648" lon="6.85666">
        <ele>2174.8</ele>
        <time>2021-03-26T09:48:58Z</time>
      </trkpt>
      <trkpt lat="45.66648" lon="6.85665">
        <ele>2174.8</ele>
        <time>2021-03-26T09:48:59Z</time>
      </trkpt>
      <trkpt lat="45.66648" lon="6.85665">
        <ele>2174.8</ele>
        <time>2021-03-26T09:49:00Z</time>
      </trkpt>
      <trkpt lat="45.66648" lon="6.85665">
        <ele>2174.8</ele>
        <time>2021-03-26T09:49:01Z</time>
      </trkpt>
      <trkpt lat="45.66647" lon="6.85664">
        <ele>2174.8</ele>
        <time>2021-03-26T09:49:02Z</time>
      </trkpt>
      <trkpt lat="45.66647" lon="6.85664">
        <ele>2174.8</ele>
        <time>2021-03-26T09:49:03Z</time>
      </trkpt>
      <trkpt lat="45.66648" lon="6.85663">
        <ele>2174.8</ele>
        <time>2021-03-26T09:49:04Z</time>
      </trkpt>
      <trkpt lat="45.66648" lon="6.85662">
        <ele>2175.4</ele>
        <time>2021-03-26T09:49:05Z</time>
      </trkpt>
      <trkpt lat="45.66648" lon="6.85661">
        <ele>2175.4</ele>
        <time>2021-03-26T09:49:06Z</time>
      </trkpt>
      <trkpt lat="45.66648" lon="6.85661">
        <ele>2175.4</ele>
        <time>2021-03-26T09:49:07Z</time>
      </trkpt>
      <trkpt lat="45.66648" lon="6.8566">
        <ele>2175.4</ele>
        <time>2021-03-26T09:49:08Z</time>
      </trkpt>
      <trkpt lat="45.66648" lon="6.85659">
        <ele>2175.4</ele>
        <time>2021-03-26T09:49:09Z</time>
      </trkpt>
      <trkpt lat="45.66647" lon="6.85659">
        <ele>2175.4</ele>
        <time>2021-03-26T09:49:10Z</time>
      </trkpt>
      <trkpt lat="45.66647" lon="6.85658">
        <ele>2176</ele>
        <time>2021-03-26T09:49:11Z</time>
      </trkpt>
      <trkpt lat="45.66647" lon="6.85657">
        <ele>2176</ele>
        <time>2021-03-26T09:49:12Z</time>
      </trkpt>
      <trkpt lat="45.66647" lon="6.85657">
        <ele>2176</ele>
        <time>2021-03-26T09:49:13Z</time>
      </trkpt>
      <trkpt lat="45.66647" lon="6.85656">
        <ele>2176</ele>
        <time>2021-03-26T09:49:14Z</time>
      </trkpt>
      <trkpt lat="45.66648" lon="6.85656">
        <ele>2176</ele>
        <time>2021-03-26T09:49:15Z</time>
      </trkpt>
      <trkpt lat="45.66648" lon="6.85655">
        <ele>2176</ele>
        <time>2021-03-26T09:49:16Z</time>
      </trkpt>
      <trkpt lat="45.66649" lon="6.85655">
        <ele>2177.2</ele>
        <time>2021-03-26T09:49:17Z</time>
      </trkpt>
      <trkpt lat="45.6665" lon="6.85655">
        <ele>2177.2</ele>
        <time>2021-03-26T09:49:18Z</time>
      </trkpt>
      <trkpt lat="45.6665" lon="6.85655">
        <ele>2177.2</ele>
        <time>2021-03-26T09:49:19Z</time>
      </trkpt>
      <trkpt lat="45.66651" lon="6.85655">
        <ele>2177.2</ele>
        <time>2021-03-26T09:49:20Z</time>
      </trkpt>
      <trkpt lat="45.66652" lon="6.85656">
        <ele>2178.2</ele>
        <time>2021-03-26T09:49:21Z</time>
      </trkpt>
      <trkpt lat="45.66652" lon="6.85656">
        <ele>2178.2</ele>
        <time>2021-03-26T09:49:22Z</time>
      </trkpt>
      <trkpt lat="45.66653" lon="6.85657">
        <ele>2178.2</ele>
        <time>2021-03-26T09:49:23Z</time>
      </trkpt>
      <trkpt lat="45.66654" lon="6.85657">
        <ele>2178.2</ele>
        <time>2021-03-26T09:49:24Z</time>
      </trkpt>
      <trkpt lat="45.66654" lon="6.85658">
        <ele>2178.2</ele>
        <time>2021-03-26T09:49:25Z</time>
      </trkpt>
      <trkpt lat="45.66655" lon="6.85658">
        <ele>2179.4</ele>
        <time>2021-03-26T09:49:26Z</time>
      </trkpt>
      <trkpt lat="45.66655" lon="6.85659">
        <ele>2178.7</ele>
        <time>2021-03-26T09:49:27Z</time>
      </trkpt>
      <trkpt lat="45.66656" lon="6.85659">
        <ele>2178.7</ele>
        <time>2021-03-26T09:49:28Z</time>
      </trkpt>
      <trkpt lat="45.66656" lon="6.8566">
        <ele>2178.7</ele>
        <time>2021-03-26T09:49:29Z</time>
      </trkpt>
      <trkpt lat="45.66656" lon="6.8566">
        <ele>2178.7</ele>
        <time>2021-03-26T09:49:30Z</time>
      </trkpt>
      <trkpt lat="45.66657" lon="6.85661">
        <ele>2178.7</ele>
        <time>2021-03-26T09:49:31Z</time>
      </trkpt>
      <trkpt lat="45.66657" lon="6.85661">
        <ele>2178.7</ele>
        <time>2021-03-26T09:49:32Z</time>
      </trkpt>
      <trkpt lat="45.66658" lon="6.85662">
        <ele>2179.9</ele>
        <time>2021-03-26T09:49:33Z</time>
      </trkpt>
      <trkpt lat="45.66658" lon="6.85663">
        <ele>2179.9</ele>
        <time>2021-03-26T09:49:34Z</time>
      </trkpt>
      <trkpt lat="45.66659" lon="6.85663">
        <ele>2179.3</ele>
        <time>2021-03-26T09:49:35Z</time>
      </trkpt>
      <trkpt lat="45.66659" lon="6.85664">
        <ele>2179.3</ele>
        <time>2021-03-26T09:49:36Z</time>
      </trkpt>
      <trkpt lat="45.66659" lon="6.85664">
        <ele>2179.3</ele>
        <time>2021-03-26T09:49:37Z</time>
      </trkpt>
      <trkpt lat="45.6666" lon="6.85664">
        <ele>2179.3</ele>
        <time>2021-03-26T09:49:38Z</time>
      </trkpt>
      <trkpt lat="45.6666" lon="6.85665">
        <ele>2179.3</ele>
        <time>2021-03-26T09:49:39Z</time>
      </trkpt>
      <trkpt lat="45.66661" lon="6.85665">
        <ele>2180.5</ele>
        <time>2021-03-26T09:49:40Z</time>
      </trkpt>
      <trkpt lat="45.66661" lon="6.85665">
        <ele>2180.5</ele>
        <time>2021-03-26T09:49:41Z</time>
      </trkpt>
      <trkpt lat="45.66662" lon="6.85665">
        <ele>2180.5</ele>
        <time>2021-03-26T09:49:42Z</time>
      </trkpt>
      <trkpt lat="45.66662" lon="6.85665">
        <ele>2180.5</ele>
        <time>2021-03-26T09:49:43Z</time>
      </trkpt>
      <trkpt lat="45.66663" lon="6.85666">
        <ele>2180.5</ele>
        <time>2021-03-26T09:49:44Z</time>
      </trkpt>
      <trkpt lat="45.66663" lon="6.85666">
        <ele>2180.5</ele>
        <time>2021-03-26T09:49:45Z</time>
      </trkpt>
      <trkpt lat="45.66664" lon="6.85666">
        <ele>2181.8</ele>
        <time>2021-03-26T09:49:46Z</time>
      </trkpt>
      <trkpt lat="45.66664" lon="6.85666">
        <ele>2181.8</ele>
        <time>2021-03-26T09:49:47Z</time>
      </trkpt>
      <trkpt lat="45.66665" lon="6.85666">
        <ele>2181.8</ele>
        <time>2021-03-26T09:49:48Z</time>
      </trkpt>
      <trkpt lat="45.66666" lon="6.85666">
        <ele>2181.8</ele>
        <time>2021-03-26T09:49:49Z</time>
      </trkpt>
      <trkpt lat="45.66666" lon="6.85666">
        <ele>2181.8</ele>
        <time>2021-03-26T09:49:50Z</time>
      </trkpt>
      <trkpt lat="45.66667" lon="6.85667">
        <ele>2181.8</ele>
        <time>2021-03-26T09:49:51Z</time>
      </trkpt>
      <trkpt lat="45.66667" lon="6.85667">
        <ele>2183.1</ele>
        <time>2021-03-26T09:49:52Z</time>
      </trkpt>
      <trkpt lat="45.66668" lon="6.85667">
        <ele>2182.5</ele>
        <time>2021-03-26T09:49:53Z</time>
      </trkpt>
      <trkpt lat="45.66668" lon="6.85668">
        <ele>2182.5</ele>
        <time>2021-03-26T09:49:54Z</time>
      </trkpt>
      <trkpt lat="45.66669" lon="6.85668">
        <ele>2182.5</ele>
        <time>2021-03-26T09:49:55Z</time>
      </trkpt>
      <trkpt lat="45.66669" lon="6.85668">
        <ele>2182.5</ele>
        <time>2021-03-26T09:49:56Z</time>
      </trkpt>
      <trkpt lat="45.6667" lon="6.85668">
        <ele>2183.8</ele>
        <time>2021-03-26T09:49:57Z</time>
      </trkpt>
      <trkpt lat="45.6667" lon="6.85669">
        <ele>2183.8</ele>
        <time>2021-03-26T09:49:58Z</time>
      </trkpt>
      <trkpt lat="45.66671" lon="6.85669">
        <ele>2183.8</ele>
        <time>2021-03-26T09:49:59Z</time>
      </trkpt>
      <trkpt lat="45.66671" lon="6.85669">
        <ele>2183.8</ele>
        <time>2021-03-26T09:50:00Z</time>
      </trkpt>
      <trkpt lat="45.66672" lon="6.8567">
        <ele>2183.8</ele>
        <time>2021-03-26T09:50:01Z</time>
      </trkpt>
      <trkpt lat="45.66672" lon="6.8567">
        <ele>2183.8</ele>
        <time>2021-03-26T09:50:02Z</time>
      </trkpt>
      <trkpt lat="45.66673" lon="6.8567">
        <ele>2183.8</ele>
        <time>2021-03-26T09:50:03Z</time>
      </trkpt>
      <trkpt lat="45.66673" lon="6.8567">
        <ele>2185.1</ele>
        <time>2021-03-26T09:50:04Z</time>
      </trkpt>
      <trkpt lat="45.66674" lon="6.8567">
        <ele>2185.1</ele>
        <time>2021-03-26T09:50:05Z</time>
      </trkpt>
      <trkpt lat="45.66674" lon="6.85671">
        <ele>2185.1</ele>
        <time>2021-03-26T09:50:06Z</time>
      </trkpt>
      <trkpt lat="45.66675" lon="6.85671">
        <ele>2185.1</ele>
        <time>2021-03-26T09:50:07Z</time>
      </trkpt>
      <trkpt lat="45.66675" lon="6.85672">
        <ele>2184.7</ele>
        <time>2021-03-26T09:50:08Z</time>
      </trkpt>
      <trkpt lat="45.66676" lon="6.85672">
        <ele>2186</ele>
        <time>2021-03-26T09:50:09Z</time>
      </trkpt>
      <trkpt lat="45.66676" lon="6.85673">
        <ele>2186</ele>
        <time>2021-03-26T09:50:10Z</time>
      </trkpt>
      <trkpt lat="45.66676" lon="6.85673">
        <ele>2186</ele>
        <time>2021-03-26T09:50:11Z</time>
      </trkpt>
      <trkpt lat="45.66677" lon="6.85674">
        <ele>2186</ele>
        <time>2021-03-26T09:50:12Z</time>
      </trkpt>
      <trkpt lat="45.66677" lon="6.85674">
        <ele>2186</ele>
        <time>2021-03-26T09:50:13Z</time>
      </trkpt>
      <trkpt lat="45.66677" lon="6.85675">
        <ele>2186</ele>
        <time>2021-03-26T09:50:14Z</time>
      </trkpt>
      <trkpt lat="45.66678" lon="6.85676">
        <ele>2185.6</ele>
        <time>2021-03-26T09:50:15Z</time>
      </trkpt>
      <trkpt lat="45.66678" lon="6.85677">
        <ele>2185.6</ele>
        <time>2021-03-26T09:50:16Z</time>
      </trkpt>
      <trkpt lat="45.66678" lon="6.85677">
        <ele>2185.6</ele>
        <time>2021-03-26T09:50:17Z</time>
      </trkpt>
      <trkpt lat="45.66679" lon="6.85678">
        <ele>2186.9</ele>
        <time>2021-03-26T09:50:18Z</time>
      </trkpt>
      <trkpt lat="45.66679" lon="6.85679">
        <ele>2186.9</ele>
        <time>2021-03-26T09:50:19Z</time>
      </trkpt>
      <trkpt lat="45.66679" lon="6.85679">
        <ele>2186.9</ele>
        <time>2021-03-26T09:50:20Z</time>
      </trkpt>
      <trkpt lat="45.66679" lon="6.8568">
        <ele>2186.9</ele>
        <time>2021-03-26T09:50:21Z</time>
      </trkpt>
      <trkpt lat="45.66679" lon="6.85681">
        <ele>2186.5</ele>
        <time>2021-03-26T09:50:22Z</time>
      </trkpt>
      <trkpt lat="45.66679" lon="6.85681">
        <ele>2186.5</ele>
        <time>2021-03-26T09:50:23Z</time>
      </trkpt>
      <trkpt lat="45.66679" lon="6.85682">
        <ele>2186.5</ele>
        <time>2021-03-26T09:50:24Z</time>
      </trkpt>
      <trkpt lat="45.6668" lon="6.85683">
        <ele>2186.5</ele>
        <time>2021-03-26T09:50:25Z</time>
      </trkpt>
      <trkpt lat="45.6668" lon="6.85684">
        <ele>2186.5</ele>
        <time>2021-03-26T09:50:26Z</time>
      </trkpt>
      <trkpt lat="45.6668" lon="6.85685">
        <ele>2186.3</ele>
        <time>2021-03-26T09:50:27Z</time>
      </trkpt>
      <trkpt lat="45.6668" lon="6.85686">
        <ele>2186.3</ele>
        <time>2021-03-26T09:50:28Z</time>
      </trkpt>
      <trkpt lat="45.66681" lon="6.85687">
        <ele>2186.3</ele>
        <time>2021-03-26T09:50:29Z</time>
      </trkpt>
      <trkpt lat="45.66681" lon="6.85688">
        <ele>2186.3</ele>
        <time>2021-03-26T09:50:30Z</time>
      </trkpt>
      <trkpt lat="45.66681" lon="6.85689">
        <ele>2186</ele>
        <time>2021-03-26T09:50:31Z</time>
      </trkpt>
      <trkpt lat="45.66681" lon="6.8569">
        <ele>2186</ele>
        <time>2021-03-26T09:50:32Z</time>
      </trkpt>
      <trkpt lat="45.66681" lon="6.85691">
        <ele>2186</ele>
        <time>2021-03-26T09:50:33Z</time>
      </trkpt>
      <trkpt lat="45.66681" lon="6.85692">
        <ele>2186</ele>
        <time>2021-03-26T09:50:34Z</time>
      </trkpt>
      <trkpt lat="45.66681" lon="6.85693">
        <ele>2185.8</ele>
        <time>2021-03-26T09:50:35Z</time>
      </trkpt>
      <trkpt lat="45.6668" lon="6.85694">
        <ele>2185.8</ele>
        <time>2021-03-26T09:50:36Z</time>
      </trkpt>
      <trkpt lat="45.6668" lon="6.85695">
        <ele>2185.8</ele>
        <time>2021-03-26T09:50:37Z</time>
      </trkpt>
      <trkpt lat="45.6668" lon="6.85695">
        <ele>2185.8</ele>
        <time>2021-03-26T09:50:38Z</time>
      </trkpt>
      <trkpt lat="45.66679" lon="6.85696">
        <ele>2185.8</ele>
        <time>2021-03-26T09:50:39Z</time>
      </trkpt>
      <trkpt lat="45.66679" lon="6.85698">
        <ele>2185.6</ele>
        <time>2021-03-26T09:50:46Z</time>
      </trkpt>
      <trkpt lat="45.66679" lon="6.85699">
        <ele>2184.4</ele>
        <time>2021-03-26T09:50:47Z</time>
      </trkpt>
      <trkpt lat="45.66678" lon="6.85699">
        <ele>2184.4</ele>
        <time>2021-03-26T09:50:48Z</time>
      </trkpt>
      <trkpt lat="45.66678" lon="6.85699">
        <ele>2184.4</ele>
        <time>2021-03-26T09:50:49Z</time>
      </trkpt>
      <trkpt lat="45.66678" lon="6.85699">
        <ele>2184.4</ele>
        <time>2021-03-26T09:50:50Z</time>
      </trkpt>
      <trkpt lat="45.66678" lon="6.85699">
        <ele>2184.4</ele>
        <time>2021-03-26T09:50:51Z</time>
      </trkpt>
      <trkpt lat="45.66679" lon="6.85699">
        <ele>2184.4</ele>
        <time>2021-03-26T09:50:52Z</time>
      </trkpt>
      <trkpt lat="45.66679" lon="6.85699">
        <ele>2184.4</ele>
        <time>2021-03-26T09:50:53Z</time>
      </trkpt>
      <trkpt lat="45.66679" lon="6.85699">
        <ele>2184.4</ele>
        <time>2021-03-26T09:50:54Z</time>
      </trkpt>
      <trkpt lat="45.66679" lon="6.85698">
        <ele>2185.6</ele>
        <time>2021-03-26T09:50:55Z</time>
      </trkpt>
      <trkpt lat="45.66679" lon="6.85698">
        <ele>2185.6</ele>
        <time>2021-03-26T09:50:56Z</time>
      </trkpt>
      <trkpt lat="45.6668" lon="6.85697">
        <ele>2185.6</ele>
        <time>2021-03-26T09:50:57Z</time>
      </trkpt>
      <trkpt lat="45.6668" lon="6.85697">
        <ele>2185.8</ele>
        <time>2021-03-26T09:50:58Z</time>
      </trkpt>
      <trkpt lat="45.66681" lon="6.85696">
        <ele>2185.8</ele>
        <time>2021-03-26T09:50:59Z</time>
      </trkpt>
      <trkpt lat="45.66681" lon="6.85696">
        <ele>2185.8</ele>
        <time>2021-03-26T09:51:00Z</time>
      </trkpt>
      <trkpt lat="45.66681" lon="6.85696">
        <ele>2185.8</ele>
        <time>2021-03-26T09:51:01Z</time>
      </trkpt>
      <trkpt lat="45.66682" lon="6.85696">
        <ele>2187</ele>
        <time>2021-03-26T09:51:02Z</time>
      </trkpt>
      <trkpt lat="45.66682" lon="6.85696">
        <ele>2187</ele>
        <time>2021-03-26T09:51:03Z</time>
      </trkpt>
      <trkpt lat="45.66682" lon="6.85695">
        <ele>2187</ele>
        <time>2021-03-26T09:51:04Z</time>
      </trkpt>
      <trkpt lat="45.66683" lon="6.85695">
        <ele>2187</ele>
        <time>2021-03-26T09:51:05Z</time>
      </trkpt>
      <trkpt lat="45.66683" lon="6.85695">
        <ele>2187</ele>
        <time>2021-03-26T09:51:06Z</time>
      </trkpt>
      <trkpt lat="45.66684" lon="6.85695">
        <ele>2187</ele>
        <time>2021-03-26T09:51:07Z</time>
      </trkpt>
      <trkpt lat="45.66684" lon="6.85695">
        <ele>2187</ele>
        <time>2021-03-26T09:51:08Z</time>
      </trkpt>
      <trkpt lat="45.66685" lon="6.85694">
        <ele>2187</ele>
        <time>2021-03-26T09:51:09Z</time>
      </trkpt>
      <trkpt lat="45.66685" lon="6.85693">
        <ele>2188.3</ele>
        <time>2021-03-26T09:51:10Z</time>
      </trkpt>
      <trkpt lat="45.66685" lon="6.85692">
        <ele>2188.5</ele>
        <time>2021-03-26T09:51:11Z</time>
      </trkpt>
      <trkpt lat="45.66686" lon="6.85692">
        <ele>2188.5</ele>
        <time>2021-03-26T09:51:12Z</time>
      </trkpt>
      <trkpt lat="45.66686" lon="6.85692">
        <ele>2188.5</ele>
        <time>2021-03-26T09:51:13Z</time>
      </trkpt>
      <trkpt lat="45.66686" lon="6.85692">
        <ele>2188.5</ele>
        <time>2021-03-26T09:51:14Z</time>
      </trkpt>
      <trkpt lat="45.66686" lon="6.85692">
        <ele>2188.5</ele>
        <time>2021-03-26T09:51:15Z</time>
      </trkpt>
      <trkpt lat="45.66686" lon="6.85692">
        <ele>2188.5</ele>
        <time>2021-03-26T09:51:16Z</time>
      </trkpt>
      <trkpt lat="45.66685" lon="6.85692">
        <ele>2188.5</ele>
        <time>2021-03-26T09:51:17Z</time>
      </trkpt>
      <trkpt lat="45.66685" lon="6.85692">
        <ele>2188.5</ele>
        <time>2021-03-26T09:51:18Z</time>
      </trkpt>
      <trkpt lat="45.66685" lon="6.85692">
        <ele>2188.5</ele>
        <time>2021-03-26T09:51:19Z</time>
      </trkpt>
      <trkpt lat="45.66685" lon="6.85693">
        <ele>2188.3</ele>
        <time>2021-03-26T09:51:20Z</time>
      </trkpt>
      <trkpt lat="45.66685" lon="6.85694">
        <ele>2188.3</ele>
        <time>2021-03-26T09:51:21Z</time>
      </trkpt>
      <trkpt lat="45.66684" lon="6.85704">
        <ele>2186.6</ele>
        <time>2021-03-26T09:51:33Z</time>
      </trkpt>
      <trkpt lat="45.66684" lon="6.85705">
        <ele>2186.6</ele>
        <time>2021-03-26T09:51:34Z</time>
      </trkpt>
      <trkpt lat="45.66684" lon="6.85706">
        <ele>2186.6</ele>
        <time>2021-03-26T09:51:35Z</time>
      </trkpt>
      <trkpt lat="45.66684" lon="6.85706">
        <ele>2186.6</ele>
        <time>2021-03-26T09:51:36Z</time>
      </trkpt>
      <trkpt lat="45.66684" lon="6.85706">
        <ele>2186.6</ele>
        <time>2021-03-26T09:51:37Z</time>
      </trkpt>
      <trkpt lat="45.66684" lon="6.85706">
        <ele>2186.6</ele>
        <time>2021-03-26T09:51:38Z</time>
      </trkpt>
      <trkpt lat="45.66684" lon="6.85706">
        <ele>2186.5</ele>
        <time>2021-03-26T09:51:39Z</time>
      </trkpt>
      <trkpt lat="45.66684" lon="6.85706">
        <ele>2186.5</ele>
        <time>2021-03-26T09:51:40Z</time>
      </trkpt>
      <trkpt lat="45.66684" lon="6.85706">
        <ele>2186.5</ele>
        <time>2021-03-26T09:51:41Z</time>
      </trkpt>
      <trkpt lat="45.66684" lon="6.85706">
        <ele>2186.5</ele>
        <time>2021-03-26T09:51:42Z</time>
      </trkpt>
      <trkpt lat="45.66685" lon="6.85706">
        <ele>2186.5</ele>
        <time>2021-03-26T09:51:43Z</time>
      </trkpt>
      <trkpt lat="45.66685" lon="6.85706">
        <ele>2187.7</ele>
        <time>2021-03-26T09:51:44Z</time>
      </trkpt>
      <trkpt lat="45.66688" lon="6.85701">
        <ele>2189.3</ele>
        <time>2021-03-26T09:51:49Z</time>
      </trkpt>
      <trkpt lat="45.66689" lon="6.857">
        <ele>2189.3</ele>
        <time>2021-03-26T09:51:50Z</time>
      </trkpt>
      <trkpt lat="45.66689" lon="6.857">
        <ele>2189.3</ele>
        <time>2021-03-26T09:51:51Z</time>
      </trkpt>
      <trkpt lat="45.6669" lon="6.85699">
        <ele>2189.3</ele>
        <time>2021-03-26T09:51:52Z</time>
      </trkpt>
      <trkpt lat="45.66691" lon="6.85699">
        <ele>2190.6</ele>
        <time>2021-03-26T09:51:53Z</time>
      </trkpt>
      <trkpt lat="45.66691" lon="6.85698">
        <ele>2190.6</ele>
        <time>2021-03-26T09:51:54Z</time>
      </trkpt>
      <trkpt lat="45.66692" lon="6.85698">
        <ele>2190.6</ele>
        <time>2021-03-26T09:51:55Z</time>
      </trkpt>
      <trkpt lat="45.66693" lon="6.85697">
        <ele>2190.6</ele>
        <time>2021-03-26T09:51:56Z</time>
      </trkpt>
      <trkpt lat="45.66693" lon="6.85697">
        <ele>2190.9</ele>
        <time>2021-03-26T09:51:57Z</time>
      </trkpt>
      <trkpt lat="45.66694" lon="6.85696">
        <ele>2192.3</ele>
        <time>2021-03-26T09:51:58Z</time>
      </trkpt>
      <trkpt lat="45.66694" lon="6.85696">
        <ele>2192.3</ele>
        <time>2021-03-26T09:51:59Z</time>
      </trkpt>
      <trkpt lat="45.66694" lon="6.85695">
        <ele>2192.3</ele>
        <time>2021-03-26T09:52:00Z</time>
      </trkpt>
      <trkpt lat="45.66694" lon="6.85694">
        <ele>2192.3</ele>
        <time>2021-03-26T09:52:01Z</time>
      </trkpt>
      <trkpt lat="45.66694" lon="6.85694">
        <ele>2192.3</ele>
        <time>2021-03-26T09:52:02Z</time>
      </trkpt>
      <trkpt lat="45.66695" lon="6.85693">
        <ele>2192.3</ele>
        <time>2021-03-26T09:52:03Z</time>
      </trkpt>
      <trkpt lat="45.66695" lon="6.85693">
        <ele>2192.3</ele>
        <time>2021-03-26T09:52:04Z</time>
      </trkpt>
      <trkpt lat="45.66695" lon="6.85693">
        <ele>2192.5</ele>
        <time>2021-03-26T09:52:05Z</time>
      </trkpt>
      <trkpt lat="45.66695" lon="6.85692">
        <ele>2192.5</ele>
        <time>2021-03-26T09:52:06Z</time>
      </trkpt>
      <trkpt lat="45.66695" lon="6.85692">
        <ele>2192.5</ele>
        <time>2021-03-26T09:52:07Z</time>
      </trkpt>
      <trkpt lat="45.66695" lon="6.85692">
        <ele>2192.5</ele>
        <time>2021-03-26T09:52:08Z</time>
      </trkpt>
      <trkpt lat="45.66695" lon="6.8569">
        <ele>2192.5</ele>
        <time>2021-03-26T09:52:10Z</time>
      </trkpt>
      <trkpt lat="45.66695" lon="6.8569">
        <ele>2192.5</ele>
        <time>2021-03-26T09:52:11Z</time>
      </trkpt>
      <trkpt lat="45.66695" lon="6.8569">
        <ele>2192.5</ele>
        <time>2021-03-26T09:52:12Z</time>
      </trkpt>
      <trkpt lat="45.66695" lon="6.85689">
        <ele>2192.5</ele>
        <time>2021-03-26T09:52:13Z</time>
      </trkpt>
      <trkpt lat="45.66695" lon="6.85689">
        <ele>2192.5</ele>
        <time>2021-03-26T09:52:14Z</time>
      </trkpt>
      <trkpt lat="45.66695" lon="6.85688">
        <ele>2192.8</ele>
        <time>2021-03-26T09:52:15Z</time>
      </trkpt>
      <trkpt lat="45.66695" lon="6.85688">
        <ele>2192.8</ele>
        <time>2021-03-26T09:52:16Z</time>
      </trkpt>
      <trkpt lat="45.66695" lon="6.85688">
        <ele>2192.8</ele>
        <time>2021-03-26T09:52:17Z</time>
      </trkpt>
      <trkpt lat="45.66695" lon="6.85687">
        <ele>2192.8</ele>
        <time>2021-03-26T09:52:18Z</time>
      </trkpt>
      <trkpt lat="45.66695" lon="6.85687">
        <ele>2192.8</ele>
        <time>2021-03-26T09:52:19Z</time>
      </trkpt>
      <trkpt lat="45.66701" lon="6.85688">
        <ele>2195.6</ele>
        <time>2021-03-26T09:52:32Z</time>
      </trkpt>
      <trkpt lat="45.66702" lon="6.85689">
        <ele>2195.4</ele>
        <time>2021-03-26T09:52:33Z</time>
      </trkpt>
      <trkpt lat="45.66703" lon="6.85689">
        <ele>2196.6</ele>
        <time>2021-03-26T09:52:34Z</time>
      </trkpt>
      <trkpt lat="45.66703" lon="6.8569">
        <ele>2196.6</ele>
        <time>2021-03-26T09:52:35Z</time>
      </trkpt>
      <trkpt lat="45.66704" lon="6.8569">
        <ele>2196.6</ele>
        <time>2021-03-26T09:52:36Z</time>
      </trkpt>
      <trkpt lat="45.66705" lon="6.8569">
        <ele>2196.6</ele>
        <time>2021-03-26T09:52:37Z</time>
      </trkpt>
      <trkpt lat="45.66705" lon="6.8569">
        <ele>2196.6</ele>
        <time>2021-03-26T09:52:38Z</time>
      </trkpt>
      <trkpt lat="45.66706" lon="6.8569">
        <ele>2197.8</ele>
        <time>2021-03-26T09:52:39Z</time>
      </trkpt>
      <trkpt lat="45.66707" lon="6.8569">
        <ele>2197.8</ele>
        <time>2021-03-26T09:52:40Z</time>
      </trkpt>
      <trkpt lat="45.66707" lon="6.8569">
        <ele>2197.8</ele>
        <time>2021-03-26T09:52:41Z</time>
      </trkpt>
      <trkpt lat="45.66708" lon="6.8569">
        <ele>2197.8</ele>
        <time>2021-03-26T09:52:42Z</time>
      </trkpt>
      <trkpt lat="45.66709" lon="6.8569">
        <ele>2197.8</ele>
        <time>2021-03-26T09:52:43Z</time>
      </trkpt>
      <trkpt lat="45.66709" lon="6.85691">
        <ele>2198.9</ele>
        <time>2021-03-26T09:52:44Z</time>
      </trkpt>
      <trkpt lat="45.6671" lon="6.85691">
        <ele>2198.9</ele>
        <time>2021-03-26T09:52:45Z</time>
      </trkpt>
      <trkpt lat="45.6671" lon="6.85691">
        <ele>2198.9</ele>
        <time>2021-03-26T09:52:46Z</time>
      </trkpt>
      <trkpt lat="45.66711" lon="6.85691">
        <ele>2198.9</ele>
        <time>2021-03-26T09:52:47Z</time>
      </trkpt>
      <trkpt lat="45.66711" lon="6.85692">
        <ele>2198.9</ele>
        <time>2021-03-26T09:52:48Z</time>
      </trkpt>
      <trkpt lat="45.66712" lon="6.85692">
        <ele>2199.9</ele>
        <time>2021-03-26T09:52:49Z</time>
      </trkpt>
      <trkpt lat="45.66713" lon="6.85692">
        <ele>2199.9</ele>
        <time>2021-03-26T09:52:50Z</time>
      </trkpt>
      <trkpt lat="45.66713" lon="6.85692">
        <ele>2199.9</ele>
        <time>2021-03-26T09:52:51Z</time>
      </trkpt>
      <trkpt lat="45.66714" lon="6.85692">
        <ele>2199.9</ele>
        <time>2021-03-26T09:52:52Z</time>
      </trkpt>
      <trkpt lat="45.66715" lon="6.85692">
        <ele>2201</ele>
        <time>2021-03-26T09:52:53Z</time>
      </trkpt>
      <trkpt lat="45.66715" lon="6.85692">
        <ele>2201</ele>
        <time>2021-03-26T09:52:54Z</time>
      </trkpt>
      <trkpt lat="45.66716" lon="6.85693">
        <ele>2201</ele>
        <time>2021-03-26T09:52:55Z</time>
      </trkpt>
      <trkpt lat="45.66717" lon="6.85693">
        <ele>2200.8</ele>
        <time>2021-03-26T09:52:56Z</time>
      </trkpt>
      <trkpt lat="45.66717" lon="6.85693">
        <ele>2200.8</ele>
        <time>2021-03-26T09:52:57Z</time>
      </trkpt>
      <trkpt lat="45.66718" lon="6.85694">
        <ele>2202</ele>
        <time>2021-03-26T09:52:58Z</time>
      </trkpt>
      <trkpt lat="45.66719" lon="6.85694">
        <ele>2202</ele>
        <time>2021-03-26T09:52:59Z</time>
      </trkpt>
      <trkpt lat="45.66719" lon="6.85694">
        <ele>2202</ele>
        <time>2021-03-26T09:53:00Z</time>
      </trkpt>
      <trkpt lat="45.6672" lon="6.85695">
        <ele>2202</ele>
        <time>2021-03-26T09:53:01Z</time>
      </trkpt>
      <trkpt lat="45.6672" lon="6.85695">
        <ele>2202</ele>
        <time>2021-03-26T09:53:02Z</time>
      </trkpt>
      <trkpt lat="45.66721" lon="6.85695">
        <ele>2203.2</ele>
        <time>2021-03-26T09:53:03Z</time>
      </trkpt>
      <trkpt lat="45.66722" lon="6.85695">
        <ele>2203.2</ele>
        <time>2021-03-26T09:53:04Z</time>
      </trkpt>
      <trkpt lat="45.66722" lon="6.85695">
        <ele>2203.2</ele>
        <time>2021-03-26T09:53:05Z</time>
      </trkpt>
      <trkpt lat="45.66723" lon="6.85696">
        <ele>2203.2</ele>
        <time>2021-03-26T09:53:06Z</time>
      </trkpt>
      <trkpt lat="45.66723" lon="6.85696">
        <ele>2203.2</ele>
        <time>2021-03-26T09:53:07Z</time>
      </trkpt>
      <trkpt lat="45.66724" lon="6.85696">
        <ele>2204.4</ele>
        <time>2021-03-26T09:53:08Z</time>
      </trkpt>
      <trkpt lat="45.66725" lon="6.85696">
        <ele>2204.4</ele>
        <time>2021-03-26T09:53:09Z</time>
      </trkpt>
      <trkpt lat="45.66725" lon="6.85696">
        <ele>2204.4</ele>
        <time>2021-03-26T09:53:10Z</time>
      </trkpt>
      <trkpt lat="45.66725" lon="6.85697">
        <ele>2204.4</ele>
        <time>2021-03-26T09:53:11Z</time>
      </trkpt>
      <trkpt lat="45.66726" lon="6.85697">
        <ele>2204.1</ele>
        <time>2021-03-26T09:53:12Z</time>
      </trkpt>
      <trkpt lat="45.66726" lon="6.85698">
        <ele>2204.1</ele>
        <time>2021-03-26T09:53:13Z</time>
      </trkpt>
      <trkpt lat="45.66727" lon="6.85698">
        <ele>2205.2</ele>
        <time>2021-03-26T09:53:14Z</time>
      </trkpt>
      <trkpt lat="45.66727" lon="6.85699">
        <ele>2205.2</ele>
        <time>2021-03-26T09:53:15Z</time>
      </trkpt>
      <trkpt lat="45.66728" lon="6.85699">
        <ele>2205.2</ele>
        <time>2021-03-26T09:53:16Z</time>
      </trkpt>
      <trkpt lat="45.66729" lon="6.85699">
        <ele>2205.2</ele>
        <time>2021-03-26T09:53:17Z</time>
      </trkpt>
      <trkpt lat="45.66729" lon="6.857">
        <ele>2205.2</ele>
        <time>2021-03-26T09:53:18Z</time>
      </trkpt>
      <trkpt lat="45.66729" lon="6.857">
        <ele>2205.2</ele>
        <time>2021-03-26T09:53:19Z</time>
      </trkpt>
      <trkpt lat="45.6673" lon="6.85701">
        <ele>2206.2</ele>
        <time>2021-03-26T09:53:20Z</time>
      </trkpt>
      <trkpt lat="45.6673" lon="6.85702">
        <ele>2206.1</ele>
        <time>2021-03-26T09:53:21Z</time>
      </trkpt>
      <trkpt lat="45.6673" lon="6.85703">
        <ele>2206.1</ele>
        <time>2021-03-26T09:53:22Z</time>
      </trkpt>
      <trkpt lat="45.6673" lon="6.85704">
        <ele>2206.1</ele>
        <time>2021-03-26T09:53:23Z</time>
      </trkpt>
      <trkpt lat="45.6673" lon="6.85704">
        <ele>2206.1</ele>
        <time>2021-03-26T09:53:24Z</time>
      </trkpt>
      <trkpt lat="45.66731" lon="6.85705">
        <ele>2206.1</ele>
        <time>2021-03-26T09:53:25Z</time>
      </trkpt>
      <trkpt lat="45.66731" lon="6.85706">
        <ele>2205.9</ele>
        <time>2021-03-26T09:53:26Z</time>
      </trkpt>
      <trkpt lat="45.66731" lon="6.85707">
        <ele>2205.9</ele>
        <time>2021-03-26T09:53:27Z</time>
      </trkpt>
      <trkpt lat="45.66731" lon="6.85707">
        <ele>2205.9</ele>
        <time>2021-03-26T09:53:28Z</time>
      </trkpt>
      <trkpt lat="45.66732" lon="6.85708">
        <ele>2205.9</ele>
        <time>2021-03-26T09:53:29Z</time>
      </trkpt>
      <trkpt lat="45.66732" lon="6.85708">
        <ele>2205.9</ele>
        <time>2021-03-26T09:53:30Z</time>
      </trkpt>
      <trkpt lat="45.66733" lon="6.85708">
        <ele>2206.8</ele>
        <time>2021-03-26T09:53:31Z</time>
      </trkpt>
      <trkpt lat="45.66733" lon="6.85708">
        <ele>2206.8</ele>
        <time>2021-03-26T09:53:32Z</time>
      </trkpt>
      <trkpt lat="45.66734" lon="6.85708">
        <ele>2206.8</ele>
        <time>2021-03-26T09:53:33Z</time>
      </trkpt>
      <trkpt lat="45.66734" lon="6.85708">
        <ele>2206.8</ele>
        <time>2021-03-26T09:53:34Z</time>
      </trkpt>
      <trkpt lat="45.66735" lon="6.85708">
        <ele>2206.8</ele>
        <time>2021-03-26T09:53:35Z</time>
      </trkpt>
      <trkpt lat="45.66735" lon="6.85708">
        <ele>2206.8</ele>
        <time>2021-03-26T09:53:36Z</time>
      </trkpt>
      <trkpt lat="45.66736" lon="6.85708">
        <ele>2207.8</ele>
        <time>2021-03-26T09:53:37Z</time>
      </trkpt>
      <trkpt lat="45.66736" lon="6.85707">
        <ele>2207.8</ele>
        <time>2021-03-26T09:53:38Z</time>
      </trkpt>
      <trkpt lat="45.66737" lon="6.85707">
        <ele>2207.8</ele>
        <time>2021-03-26T09:53:39Z</time>
      </trkpt>
      <trkpt lat="45.66737" lon="6.85707">
        <ele>2207.8</ele>
        <time>2021-03-26T09:53:40Z</time>
      </trkpt>
      <trkpt lat="45.66737" lon="6.85706">
        <ele>2207.8</ele>
        <time>2021-03-26T09:53:41Z</time>
      </trkpt>
      <trkpt lat="45.66737" lon="6.85706">
        <ele>2207.8</ele>
        <time>2021-03-26T09:53:42Z</time>
      </trkpt>
      <trkpt lat="45.66738" lon="6.85706">
        <ele>2207.9</ele>
        <time>2021-03-26T09:53:43Z</time>
      </trkpt>
      <trkpt lat="45.66738" lon="6.85706">
        <ele>2207.8</ele>
        <time>2021-03-26T09:53:44Z</time>
      </trkpt>
      <trkpt lat="45.66738" lon="6.85706">
        <ele>2207.8</ele>
        <time>2021-03-26T09:53:45Z</time>
      </trkpt>
      <trkpt lat="45.66739" lon="6.85706">
        <ele>2208.9</ele>
        <time>2021-03-26T09:53:46Z</time>
      </trkpt>
      <trkpt lat="45.66739" lon="6.85706">
        <ele>2208.9</ele>
        <time>2021-03-26T09:53:47Z</time>
      </trkpt>
      <trkpt lat="45.66739" lon="6.85705">
        <ele>2208.9</ele>
        <time>2021-03-26T09:53:48Z</time>
      </trkpt>
      <trkpt lat="45.66739" lon="6.85705">
        <ele>2208.9</ele>
        <time>2021-03-26T09:53:49Z</time>
      </trkpt>
      <trkpt lat="45.6674" lon="6.85705">
        <ele>2208.9</ele>
        <time>2021-03-26T09:53:50Z</time>
      </trkpt>
      <trkpt lat="45.6674" lon="6.85704">
        <ele>2208.9</ele>
        <time>2021-03-26T09:53:51Z</time>
      </trkpt>
      <trkpt lat="45.6674" lon="6.85704">
        <ele>2208.9</ele>
        <time>2021-03-26T09:53:52Z</time>
      </trkpt>
      <trkpt lat="45.6674" lon="6.85703">
        <ele>2208.9</ele>
        <time>2021-03-26T09:53:53Z</time>
      </trkpt>
      <trkpt lat="45.6674" lon="6.85703">
        <ele>2208.9</ele>
        <time>2021-03-26T09:53:54Z</time>
      </trkpt>
      <trkpt lat="45.6674" lon="6.85702">
        <ele>2208.9</ele>
        <time>2021-03-26T09:53:55Z</time>
      </trkpt>
      <trkpt lat="45.6674" lon="6.85702">
        <ele>2208.9</ele>
        <time>2021-03-26T09:53:56Z</time>
      </trkpt>
      <trkpt lat="45.66739" lon="6.85702">
        <ele>2208.9</ele>
        <time>2021-03-26T09:53:57Z</time>
      </trkpt>
      <trkpt lat="45.66739" lon="6.85702">
        <ele>2208.9</ele>
        <time>2021-03-26T09:53:58Z</time>
      </trkpt>
      <trkpt lat="45.66739" lon="6.85702">
        <ele>2208.9</ele>
        <time>2021-03-26T09:53:59Z</time>
      </trkpt>
      <trkpt lat="45.66739" lon="6.85702">
        <ele>2208.9</ele>
        <time>2021-03-26T09:54:00Z</time>
      </trkpt>
      <trkpt lat="45.66739" lon="6.85702">
        <ele>2208.9</ele>
        <time>2021-03-26T09:54:01Z</time>
      </trkpt>
      <trkpt lat="45.66739" lon="6.85702">
        <ele>2208.9</ele>
        <time>2021-03-26T09:54:02Z</time>
      </trkpt>
      <trkpt lat="45.66739" lon="6.85703">
        <ele>2208.9</ele>
        <time>2021-03-26T09:54:03Z</time>
      </trkpt>
      <trkpt lat="45.66739" lon="6.85703">
        <ele>2208.9</ele>
        <time>2021-03-26T09:54:04Z</time>
      </trkpt>
      <trkpt lat="45.66739" lon="6.85703">
        <ele>2208.9</ele>
        <time>2021-03-26T09:54:05Z</time>
      </trkpt>
      <trkpt lat="45.66742" lon="6.85707">
        <ele>2209.8</ele>
        <time>2021-03-26T09:54:13Z</time>
      </trkpt>
      <trkpt lat="45.66743" lon="6.85708">
        <ele>2209.8</ele>
        <time>2021-03-26T09:54:14Z</time>
      </trkpt>
      <trkpt lat="45.66743" lon="6.85709">
        <ele>2209.8</ele>
        <time>2021-03-26T09:54:15Z</time>
      </trkpt>
      <trkpt lat="45.66743" lon="6.8571">
        <ele>2209.8</ele>
        <time>2021-03-26T09:54:16Z</time>
      </trkpt>
      <trkpt lat="45.66744" lon="6.8571">
        <ele>2209.6</ele>
        <time>2021-03-26T09:54:17Z</time>
      </trkpt>
      <trkpt lat="45.66744" lon="6.85711">
        <ele>2209.6</ele>
        <time>2021-03-26T09:54:18Z</time>
      </trkpt>
      <trkpt lat="45.66744" lon="6.85712">
        <ele>2209.6</ele>
        <time>2021-03-26T09:54:19Z</time>
      </trkpt>
      <trkpt lat="45.66744" lon="6.85713">
        <ele>2209.6</ele>
        <time>2021-03-26T09:54:20Z</time>
      </trkpt>
      <trkpt lat="45.66744" lon="6.85714">
        <ele>2209.6</ele>
        <time>2021-03-26T09:54:21Z</time>
      </trkpt>
      <trkpt lat="45.66744" lon="6.85715">
        <ele>2209.5</ele>
        <time>2021-03-26T09:54:22Z</time>
      </trkpt>
      <trkpt lat="45.66744" lon="6.85716">
        <ele>2209.5</ele>
        <time>2021-03-26T09:54:23Z</time>
      </trkpt>
      <trkpt lat="45.66744" lon="6.85716">
        <ele>2209.5</ele>
        <time>2021-03-26T09:54:24Z</time>
      </trkpt>
      <trkpt lat="45.66744" lon="6.85717">
        <ele>2209.5</ele>
        <time>2021-03-26T09:54:25Z</time>
      </trkpt>
      <trkpt lat="45.66744" lon="6.85718">
        <ele>2209.5</ele>
        <time>2021-03-26T09:54:26Z</time>
      </trkpt>
      <trkpt lat="45.66744" lon="6.85719">
        <ele>2209.4</ele>
        <time>2021-03-26T09:54:27Z</time>
      </trkpt>
      <trkpt lat="45.66745" lon="6.8572">
        <ele>2209.4</ele>
        <time>2021-03-26T09:54:28Z</time>
      </trkpt>
      <trkpt lat="45.66745" lon="6.85721">
        <ele>2210.5</ele>
        <time>2021-03-26T09:54:29Z</time>
      </trkpt>
      <trkpt lat="45.66745" lon="6.85721">
        <ele>2210.5</ele>
        <time>2021-03-26T09:54:30Z</time>
      </trkpt>
      <trkpt lat="45.66745" lon="6.85722">
        <ele>2209.4</ele>
        <time>2021-03-26T09:54:31Z</time>
      </trkpt>
      <trkpt lat="45.66744" lon="6.85723">
        <ele>2209.3</ele>
        <time>2021-03-26T09:54:32Z</time>
      </trkpt>
      <trkpt lat="45.66744" lon="6.85723">
        <ele>2209.3</ele>
        <time>2021-03-26T09:54:33Z</time>
      </trkpt>
      <trkpt lat="45.66744" lon="6.85724">
        <ele>2209.3</ele>
        <time>2021-03-26T09:54:34Z</time>
      </trkpt>
      <trkpt lat="45.66744" lon="6.85725">
        <ele>2209.3</ele>
        <time>2021-03-26T09:54:35Z</time>
      </trkpt>
      <trkpt lat="45.66744" lon="6.85725">
        <ele>2209.3</ele>
        <time>2021-03-26T09:54:36Z</time>
      </trkpt>
      <trkpt lat="45.66744" lon="6.85726">
        <ele>2209.3</ele>
        <time>2021-03-26T09:54:37Z</time>
      </trkpt>
      <trkpt lat="45.66743" lon="6.85727">
        <ele>2209.3</ele>
        <time>2021-03-26T09:54:38Z</time>
      </trkpt>
      <trkpt lat="45.66743" lon="6.85727">
        <ele>2209.3</ele>
        <time>2021-03-26T09:54:39Z</time>
      </trkpt>
      <trkpt lat="45.66743" lon="6.85728">
        <ele>2209.3</ele>
        <time>2021-03-26T09:54:40Z</time>
      </trkpt>
      <trkpt lat="45.66743" lon="6.85729">
        <ele>2209.3</ele>
        <time>2021-03-26T09:54:41Z</time>
      </trkpt>
      <trkpt lat="45.66742" lon="6.85729">
        <ele>2209.3</ele>
        <time>2021-03-26T09:54:42Z</time>
      </trkpt>
      <trkpt lat="45.66742" lon="6.8573">
        <ele>2209.3</ele>
        <time>2021-03-26T09:54:43Z</time>
      </trkpt>
      <trkpt lat="45.66742" lon="6.8573">
        <ele>2209.3</ele>
        <time>2021-03-26T09:54:44Z</time>
      </trkpt>
      <trkpt lat="45.66742" lon="6.8573">
        <ele>2209.3</ele>
        <time>2021-03-26T09:54:45Z</time>
      </trkpt>
      <trkpt lat="45.66742" lon="6.8573">
        <ele>2209.3</ele>
        <time>2021-03-26T09:54:46Z</time>
      </trkpt>
      <trkpt lat="45.66742" lon="6.8573">
        <ele>2209.3</ele>
        <time>2021-03-26T09:54:47Z</time>
      </trkpt>
      <trkpt lat="45.66742" lon="6.8573">
        <ele>2209.3</ele>
        <time>2021-03-26T09:54:48Z</time>
      </trkpt>
      <trkpt lat="45.66742" lon="6.8573">
        <ele>2209.3</ele>
        <time>2021-03-26T09:54:49Z</time>
      </trkpt>
      <trkpt lat="45.66742" lon="6.8573">
        <ele>2209.3</ele>
        <time>2021-03-26T09:54:50Z</time>
      </trkpt>
      <trkpt lat="45.66742" lon="6.8573">
        <ele>2209.3</ele>
        <time>2021-03-26T09:54:51Z</time>
      </trkpt>
      <trkpt lat="45.66748" lon="6.85729">
        <ele>2211.3</ele>
        <time>2021-03-26T09:55:17Z</time>
      </trkpt>
      <trkpt lat="45.66749" lon="6.85729">
        <ele>2211.3</ele>
        <time>2021-03-26T09:55:18Z</time>
      </trkpt>
      <trkpt lat="45.66749" lon="6.85728">
        <ele>2211.3</ele>
        <time>2021-03-26T09:55:19Z</time>
      </trkpt>
      <trkpt lat="45.6675" lon="6.85728">
        <ele>2211.3</ele>
        <time>2021-03-26T09:55:20Z</time>
      </trkpt>
      <trkpt lat="45.6675" lon="6.85728">
        <ele>2211.3</ele>
        <time>2021-03-26T09:55:21Z</time>
      </trkpt>
      <trkpt lat="45.6675" lon="6.85728">
        <ele>2211.3</ele>
        <time>2021-03-26T09:55:22Z</time>
      </trkpt>
      <trkpt lat="45.66751" lon="6.85728">
        <ele>2212.3</ele>
        <time>2021-03-26T09:55:23Z</time>
      </trkpt>
      <trkpt lat="45.66751" lon="6.85727">
        <ele>2212.4</ele>
        <time>2021-03-26T09:55:24Z</time>
      </trkpt>
      <trkpt lat="45.66751" lon="6.85727">
        <ele>2212.4</ele>
        <time>2021-03-26T09:55:25Z</time>
      </trkpt>
      <trkpt lat="45.66752" lon="6.85726">
        <ele>2212.4</ele>
        <time>2021-03-26T09:55:26Z</time>
      </trkpt>
      <trkpt lat="45.66752" lon="6.85726">
        <ele>2212.4</ele>
        <time>2021-03-26T09:55:27Z</time>
      </trkpt>
      <trkpt lat="45.66752" lon="6.85725">
        <ele>2212.4</ele>
        <time>2021-03-26T09:55:28Z</time>
      </trkpt>
      <trkpt lat="45.66752" lon="6.85725">
        <ele>2212.4</ele>
        <time>2021-03-26T09:55:29Z</time>
      </trkpt>
      <trkpt lat="45.66753" lon="6.85724">
        <ele>2212.4</ele>
        <time>2021-03-26T09:55:30Z</time>
      </trkpt>
      <trkpt lat="45.66764" lon="6.85733">
        <ele>2215.7</ele>
        <time>2021-03-26T10:00:54Z</time>
      </trkpt>
      <trkpt lat="45.66764" lon="6.85733">
        <ele>2215.7</ele>
        <time>2021-03-26T10:00:55Z</time>
      </trkpt>
      <trkpt lat="45.66764" lon="6.85733">
        <ele>2215.7</ele>
        <time>2021-03-26T10:00:56Z</time>
      </trkpt>
      <trkpt lat="45.66764" lon="6.85733">
        <ele>2215.7</ele>
        <time>2021-03-26T10:00:57Z</time>
      </trkpt>
      <trkpt lat="45.66764" lon="6.85733">
        <ele>2215.7</ele>
        <time>2021-03-26T10:00:58Z</time>
      </trkpt>
      <trkpt lat="45.66764" lon="6.85733">
        <ele>2215.7</ele>
        <time>2021-03-26T10:00:59Z</time>
      </trkpt>
      <trkpt lat="45.66764" lon="6.85733">
        <ele>2215.7</ele>
        <time>2021-03-26T10:01:00Z</time>
      </trkpt>
      <trkpt lat="45.66764" lon="6.85733">
        <ele>2215.7</ele>
        <time>2021-03-26T10:01:01Z</time>
      </trkpt>
      <trkpt lat="45.66764" lon="6.85733">
        <ele>2215.7</ele>
        <time>2021-03-26T10:01:02Z</time>
      </trkpt>
      <trkpt lat="45.66764" lon="6.85733">
        <ele>2215.7</ele>
        <time>2021-03-26T10:01:03Z</time>
      </trkpt>
      <trkpt lat="45.66764" lon="6.85733">
        <ele>2215.7</ele>
        <time>2021-03-26T10:01:04Z</time>
      </trkpt>
      <trkpt lat="45.6677" lon="6.85725">
        <ele>2217.5</ele>
        <time>2021-03-26T10:08:21Z</time>
      </trkpt>
      <trkpt lat="45.66771" lon="6.85724">
        <ele>2217.5</ele>
        <time>2021-03-26T10:08:22Z</time>
      </trkpt>
      <trkpt lat="45.66771" lon="6.85724">
        <ele>2217.5</ele>
        <time>2021-03-26T10:08:23Z</time>
      </trkpt>
      <trkpt lat="45.66771" lon="6.85724">
        <ele>2217.5</ele>
        <time>2021-03-26T10:08:24Z</time>
      </trkpt>
      <trkpt lat="45.66771" lon="6.85724">
        <ele>2217.5</ele>
        <time>2021-03-26T10:08:25Z</time>
      </trkpt>
      <trkpt lat="45.66772" lon="6.85724">
        <ele>2217.5</ele>
        <time>2021-03-26T10:08:26Z</time>
      </trkpt>
      <trkpt lat="45.66772" lon="6.85723">
        <ele>2218.4</ele>
        <time>2021-03-26T10:08:27Z</time>
      </trkpt>
      <trkpt lat="45.66773" lon="6.85722">
        <ele>2218.4</ele>
        <time>2021-03-26T10:08:28Z</time>
      </trkpt>
      <trkpt lat="45.66774" lon="6.85721">
        <ele>2218.4</ele>
        <time>2021-03-26T10:08:29Z</time>
      </trkpt>
      <trkpt lat="45.66775" lon="6.8572">
        <ele>2219.2</ele>
        <time>2021-03-26T10:08:30Z</time>
      </trkpt>
      <trkpt lat="45.66775" lon="6.8572">
        <ele>2219.2</ele>
        <time>2021-03-26T10:08:31Z</time>
      </trkpt>
      <trkpt lat="45.66776" lon="6.85719">
        <ele>2219.2</ele>
        <time>2021-03-26T10:08:32Z</time>
      </trkpt>
      <trkpt lat="45.66777" lon="6.85718">
        <ele>2219.4</ele>
        <time>2021-03-26T10:08:33Z</time>
      </trkpt>
      <trkpt lat="45.66777" lon="6.85718">
        <ele>2219.4</ele>
        <time>2021-03-26T10:08:34Z</time>
      </trkpt>
      <trkpt lat="45.66778" lon="6.85718">
        <ele>2219.4</ele>
        <time>2021-03-26T10:08:35Z</time>
      </trkpt>
      <trkpt lat="45.66778" lon="6.85717">
        <ele>2220.3</ele>
        <time>2021-03-26T10:08:36Z</time>
      </trkpt>
      <trkpt lat="45.66778" lon="6.85717">
        <ele>2220.3</ele>
        <time>2021-03-26T10:08:37Z</time>
      </trkpt>
      <trkpt lat="45.66779" lon="6.85717">
        <ele>2220.3</ele>
        <time>2021-03-26T10:08:38Z</time>
      </trkpt>
      <trkpt lat="45.66779" lon="6.85717">
        <ele>2220.3</ele>
        <time>2021-03-26T10:08:39Z</time>
      </trkpt>
      <trkpt lat="45.6678" lon="6.85716">
        <ele>2220.3</ele>
        <time>2021-03-26T10:08:40Z</time>
      </trkpt>
      <trkpt lat="45.6678" lon="6.85716">
        <ele>2220.3</ele>
        <time>2021-03-26T10:08:41Z</time>
      </trkpt>
      <trkpt lat="45.66781" lon="6.85716">
        <ele>2221.6</ele>
        <time>2021-03-26T10:08:42Z</time>
      </trkpt>
      <trkpt lat="45.66782" lon="6.85715">
        <ele>2221.6</ele>
        <time>2021-03-26T10:08:43Z</time>
      </trkpt>
      <trkpt lat="45.66782" lon="6.85714">
        <ele>2221.9</ele>
        <time>2021-03-26T10:08:44Z</time>
      </trkpt>
      <trkpt lat="45.66783" lon="6.85714">
        <ele>2221.9</ele>
        <time>2021-03-26T10:08:45Z</time>
      </trkpt>
      <trkpt lat="45.66783" lon="6.85714">
        <ele>2221.9</ele>
        <time>2021-03-26T10:08:46Z</time>
      </trkpt>
      <trkpt lat="45.66784" lon="6.85714">
        <ele>2222.7</ele>
        <time>2021-03-26T10:08:47Z</time>
      </trkpt>
      <trkpt lat="45.66785" lon="6.85713">
        <ele>2222.7</ele>
        <time>2021-03-26T10:08:48Z</time>
      </trkpt>
      <trkpt lat="45.66785" lon="6.85713">
        <ele>2222.7</ele>
        <time>2021-03-26T10:08:49Z</time>
      </trkpt>
      <trkpt lat="45.66785" lon="6.85713">
        <ele>2222.7</ele>
        <time>2021-03-26T10:08:50Z</time>
      </trkpt>
      <trkpt lat="45.66786" lon="6.85712">
        <ele>2222.7</ele>
        <time>2021-03-26T10:08:51Z</time>
      </trkpt>
      <trkpt lat="45.66786" lon="6.85712">
        <ele>2222.7</ele>
        <time>2021-03-26T10:08:52Z</time>
      </trkpt>
      <trkpt lat="45.66786" lon="6.85712">
        <ele>2222.7</ele>
        <time>2021-03-26T10:08:53Z</time>
      </trkpt>
      <trkpt lat="45.66787" lon="6.85712">
        <ele>2223.4</ele>
        <time>2021-03-26T10:08:54Z</time>
      </trkpt>
      <trkpt lat="45.66787" lon="6.85711">
        <ele>2223.4</ele>
        <time>2021-03-26T10:08:55Z</time>
      </trkpt>
      <trkpt lat="45.66788" lon="6.8571">
        <ele>2223.4</ele>
        <time>2021-03-26T10:08:56Z</time>
      </trkpt>
      <trkpt lat="45.66789" lon="6.8571">
        <ele>2223.8</ele>
        <time>2021-03-26T10:08:57Z</time>
      </trkpt>
      <trkpt lat="45.6679" lon="6.85709">
        <ele>2224.5</ele>
        <time>2021-03-26T10:08:58Z</time>
      </trkpt>
      <trkpt lat="45.66791" lon="6.85709">
        <ele>2224.5</ele>
        <time>2021-03-26T10:08:59Z</time>
      </trkpt>
      <trkpt lat="45.66791" lon="6.85709">
        <ele>2224.5</ele>
        <time>2021-03-26T10:09:00Z</time>
      </trkpt>
      <trkpt lat="45.66791" lon="6.85708">
        <ele>2224.5</ele>
        <time>2021-03-26T10:09:01Z</time>
      </trkpt>
      <trkpt lat="45.66792" lon="6.85708">
        <ele>2224.5</ele>
        <time>2021-03-26T10:09:02Z</time>
      </trkpt>
      <trkpt lat="45.66793" lon="6.85707">
        <ele>2225.1</ele>
        <time>2021-03-26T10:09:03Z</time>
      </trkpt>
      <trkpt lat="45.66793" lon="6.85707">
        <ele>2225.1</ele>
        <time>2021-03-26T10:09:04Z</time>
      </trkpt>
      <trkpt lat="45.66793" lon="6.85707">
        <ele>2225.1</ele>
        <time>2021-03-26T10:09:05Z</time>
      </trkpt>
      <trkpt lat="45.66794" lon="6.85707">
        <ele>2225.1</ele>
        <time>2021-03-26T10:09:06Z</time>
      </trkpt>
      <trkpt lat="45.66794" lon="6.85707">
        <ele>2225.1</ele>
        <time>2021-03-26T10:09:07Z</time>
      </trkpt>
      <trkpt lat="45.66794" lon="6.85707">
        <ele>2225.1</ele>
        <time>2021-03-26T10:09:08Z</time>
      </trkpt>
      <trkpt lat="45.66795" lon="6.85706">
        <ele>2225.1</ele>
        <time>2021-03-26T10:09:09Z</time>
      </trkpt>
      <trkpt lat="45.66799" lon="6.85705">
        <ele>2227.1</ele>
        <time>2021-03-26T10:09:17Z</time>
      </trkpt>
      <trkpt lat="45.668" lon="6.85705">
        <ele>2227.1</ele>
        <time>2021-03-26T10:09:18Z</time>
      </trkpt>
      <trkpt lat="45.668" lon="6.85705">
        <ele>2227.1</ele>
        <time>2021-03-26T10:09:19Z</time>
      </trkpt>
      <trkpt lat="45.66801" lon="6.85704">
        <ele>2227.1</ele>
        <time>2021-03-26T10:09:20Z</time>
      </trkpt>
      <trkpt lat="45.66801" lon="6.85703">
        <ele>2227.1</ele>
        <time>2021-03-26T10:09:21Z</time>
      </trkpt>
      <trkpt lat="45.66801" lon="6.85703">
        <ele>2227.1</ele>
        <time>2021-03-26T10:09:22Z</time>
      </trkpt>
      <trkpt lat="45.66802" lon="6.85702">
        <ele>2228</ele>
        <time>2021-03-26T10:09:23Z</time>
      </trkpt>
      <trkpt lat="45.66802" lon="6.85702">
        <ele>2228</ele>
        <time>2021-03-26T10:09:24Z</time>
      </trkpt>
      <trkpt lat="45.66802" lon="6.85702">
        <ele>2228</ele>
        <time>2021-03-26T10:09:25Z</time>
      </trkpt>
      <trkpt lat="45.66803" lon="6.85701">
        <ele>2228.5</ele>
        <time>2021-03-26T10:09:26Z</time>
      </trkpt>
      <trkpt lat="45.66803" lon="6.857">
        <ele>2228.5</ele>
        <time>2021-03-26T10:09:27Z</time>
      </trkpt>
      <trkpt lat="45.66804" lon="6.857">
        <ele>2228.5</ele>
        <time>2021-03-26T10:09:28Z</time>
      </trkpt>
      <trkpt lat="45.66804" lon="6.85699">
        <ele>2228.5</ele>
        <time>2021-03-26T10:09:29Z</time>
      </trkpt>
      <trkpt lat="45.66804" lon="6.85699">
        <ele>2228.5</ele>
        <time>2021-03-26T10:09:30Z</time>
      </trkpt>
      <trkpt lat="45.66805" lon="6.85698">
        <ele>2229.4</ele>
        <time>2021-03-26T10:09:31Z</time>
      </trkpt>
      <trkpt lat="45.66805" lon="6.85698">
        <ele>2229.4</ele>
        <time>2021-03-26T10:09:32Z</time>
      </trkpt>
      <trkpt lat="45.66805" lon="6.85698">
        <ele>2229.4</ele>
        <time>2021-03-26T10:09:33Z</time>
      </trkpt>
      <trkpt lat="45.66805" lon="6.85698">
        <ele>2229.4</ele>
        <time>2021-03-26T10:09:34Z</time>
      </trkpt>
      <trkpt lat="45.66805" lon="6.85697">
        <ele>2229.4</ele>
        <time>2021-03-26T10:09:35Z</time>
      </trkpt>
      <trkpt lat="45.66806" lon="6.85697">
        <ele>2229.9</ele>
        <time>2021-03-26T10:09:36Z</time>
      </trkpt>
      <trkpt lat="45.66806" lon="6.85697">
        <ele>2229.9</ele>
        <time>2021-03-26T10:09:37Z</time>
      </trkpt>
      <trkpt lat="45.66806" lon="6.85696">
        <ele>2229.9</ele>
        <time>2021-03-26T10:09:38Z</time>
      </trkpt>
      <trkpt lat="45.66806" lon="6.85696">
        <ele>2229.9</ele>
        <time>2021-03-26T10:09:39Z</time>
      </trkpt>
      <trkpt lat="45.66807" lon="6.85696">
        <ele>2229.9</ele>
        <time>2021-03-26T10:09:40Z</time>
      </trkpt>
      <trkpt lat="45.66808" lon="6.85694">
        <ele>2230.8</ele>
        <time>2021-03-26T10:09:44Z</time>
      </trkpt>
      <trkpt lat="45.66808" lon="6.85694">
        <ele>2230.8</ele>
        <time>2021-03-26T10:09:45Z</time>
      </trkpt>
      <trkpt lat="45.66808" lon="6.85693">
        <ele>2230.8</ele>
        <time>2021-03-26T10:09:46Z</time>
      </trkpt>
      <trkpt lat="45.66809" lon="6.85693">
        <ele>2230.8</ele>
        <time>2021-03-26T10:09:47Z</time>
      </trkpt>
      <trkpt lat="45.66809" lon="6.85693">
        <ele>2231.3</ele>
        <time>2021-03-26T10:09:48Z</time>
      </trkpt>
      <trkpt lat="45.6681" lon="6.85692">
        <ele>2231.3</ele>
        <time>2021-03-26T10:09:49Z</time>
      </trkpt>
      <trkpt lat="45.6681" lon="6.85692">
        <ele>2231.3</ele>
        <time>2021-03-26T10:09:50Z</time>
      </trkpt>
      <trkpt lat="45.66811" lon="6.85691">
        <ele>2231.3</ele>
        <time>2021-03-26T10:09:51Z</time>
      </trkpt>
      <trkpt lat="45.66811" lon="6.85691">
        <ele>2232.1</ele>
        <time>2021-03-26T10:09:52Z</time>
      </trkpt>
      <trkpt lat="45.66811" lon="6.85691">
        <ele>2232.1</ele>
        <time>2021-03-26T10:09:53Z</time>
      </trkpt>
      <trkpt lat="45.66811" lon="6.85691">
        <ele>2232.1</ele>
        <time>2021-03-26T10:09:54Z</time>
      </trkpt>
      <trkpt lat="45.66812" lon="6.85691">
        <ele>2232.1</ele>
        <time>2021-03-26T10:09:55Z</time>
      </trkpt>
      <trkpt lat="45.66812" lon="6.8569">
        <ele>2232.1</ele>
        <time>2021-03-26T10:09:56Z</time>
      </trkpt>
      <trkpt lat="45.66812" lon="6.8569">
        <ele>2232.1</ele>
        <time>2021-03-26T10:09:57Z</time>
      </trkpt>
      <trkpt lat="45.66813" lon="6.8569">
        <ele>2232.1</ele>
        <time>2021-03-26T10:09:58Z</time>
      </trkpt>
      <trkpt lat="45.66813" lon="6.85689">
        <ele>2232.1</ele>
        <time>2021-03-26T10:09:59Z</time>
      </trkpt>
      <trkpt lat="45.66813" lon="6.85689">
        <ele>2232.1</ele>
        <time>2021-03-26T10:10:00Z</time>
      </trkpt>
      <trkpt lat="45.66814" lon="6.85688">
        <ele>2233.4</ele>
        <time>2021-03-26T10:10:01Z</time>
      </trkpt>
      <trkpt lat="45.66814" lon="6.85687">
        <ele>2233.4</ele>
        <time>2021-03-26T10:10:02Z</time>
      </trkpt>
      <trkpt lat="45.66815" lon="6.85686">
        <ele>2233.4</ele>
        <time>2021-03-26T10:10:03Z</time>
      </trkpt>
      <trkpt lat="45.66815" lon="6.85686">
        <ele>2233.4</ele>
        <time>2021-03-26T10:10:04Z</time>
      </trkpt>
      <trkpt lat="45.66816" lon="6.85685">
        <ele>2233.4</ele>
        <time>2021-03-26T10:10:05Z</time>
      </trkpt>
      <trkpt lat="45.66816" lon="6.85685">
        <ele>2233.4</ele>
        <time>2021-03-26T10:10:06Z</time>
      </trkpt>
      <trkpt lat="45.66816" lon="6.85684">
        <ele>2234</ele>
        <time>2021-03-26T10:10:07Z</time>
      </trkpt>
      <trkpt lat="45.66816" lon="6.85683">
        <ele>2234</ele>
        <time>2021-03-26T10:10:08Z</time>
      </trkpt>
      <trkpt lat="45.66817" lon="6.85683">
        <ele>2234</ele>
        <time>2021-03-26T10:10:09Z</time>
      </trkpt>
      <trkpt lat="45.66817" lon="6.85682">
        <ele>2234.8</ele>
        <time>2021-03-26T10:10:10Z</time>
      </trkpt>
      <trkpt lat="45.66817" lon="6.85682">
        <ele>2234.8</ele>
        <time>2021-03-26T10:10:11Z</time>
      </trkpt>
      <trkpt lat="45.66817" lon="6.85682">
        <ele>2234.8</ele>
        <time>2021-03-26T10:10:12Z</time>
      </trkpt>
      <trkpt lat="45.66817" lon="6.85681">
        <ele>2234.8</ele>
        <time>2021-03-26T10:10:13Z</time>
      </trkpt>
      <trkpt lat="45.66817" lon="6.85681">
        <ele>2234.8</ele>
        <time>2021-03-26T10:10:14Z</time>
      </trkpt>
      <trkpt lat="45.66817" lon="6.8568">
        <ele>2234.8</ele>
        <time>2021-03-26T10:10:15Z</time>
      </trkpt>
      <trkpt lat="45.66817" lon="6.8568">
        <ele>2235.3</ele>
        <time>2021-03-26T10:10:16Z</time>
      </trkpt>
      <trkpt lat="45.66817" lon="6.85679">
        <ele>2235.3</ele>
        <time>2021-03-26T10:10:17Z</time>
      </trkpt>
      <trkpt lat="45.66817" lon="6.85678">
        <ele>2235.3</ele>
        <time>2021-03-26T10:10:18Z</time>
      </trkpt>
      <trkpt lat="45.66817" lon="6.85678">
        <ele>2235.3</ele>
        <time>2021-03-26T10:10:19Z</time>
      </trkpt>
      <trkpt lat="45.66817" lon="6.85676">
        <ele>2235.3</ele>
        <time>2021-03-26T10:10:20Z</time>
      </trkpt>
      <trkpt lat="45.66817" lon="6.85676">
        <ele>2235.9</ele>
        <time>2021-03-26T10:10:21Z</time>
      </trkpt>
      <trkpt lat="45.66817" lon="6.85675">
        <ele>2235.9</ele>
        <time>2021-03-26T10:10:22Z</time>
      </trkpt>
      <trkpt lat="45.66818" lon="6.85674">
        <ele>2235.9</ele>
        <time>2021-03-26T10:10:23Z</time>
      </trkpt>
      <trkpt lat="45.66818" lon="6.85674">
        <ele>2235.9</ele>
        <time>2021-03-26T10:10:24Z</time>
      </trkpt>
      <trkpt lat="45.66818" lon="6.85673">
        <ele>2235.9</ele>
        <time>2021-03-26T10:10:25Z</time>
      </trkpt>
      <trkpt lat="45.66819" lon="6.85673">
        <ele>2235.9</ele>
        <time>2021-03-26T10:10:26Z</time>
      </trkpt>
      <trkpt lat="45.66819" lon="6.85672">
        <ele>2235.9</ele>
        <time>2021-03-26T10:10:27Z</time>
      </trkpt>
      <trkpt lat="45.6682" lon="6.85671">
        <ele>2237.3</ele>
        <time>2021-03-26T10:10:28Z</time>
      </trkpt>
      <trkpt lat="45.66821" lon="6.8567">
        <ele>2237.3</ele>
        <time>2021-03-26T10:10:29Z</time>
      </trkpt>
      <trkpt lat="45.66821" lon="6.8567">
        <ele>2237.3</ele>
        <time>2021-03-26T10:10:30Z</time>
      </trkpt>
      <trkpt lat="45.66822" lon="6.8567">
        <ele>2237.3</ele>
        <time>2021-03-26T10:10:31Z</time>
      </trkpt>
      <trkpt lat="45.66822" lon="6.85669">
        <ele>2237.3</ele>
        <time>2021-03-26T10:10:32Z</time>
      </trkpt>
      <trkpt lat="45.66823" lon="6.85669">
        <ele>2237.3</ele>
        <time>2021-03-26T10:10:33Z</time>
      </trkpt>
      <trkpt lat="45.66823" lon="6.85668">
        <ele>2238.2</ele>
        <time>2021-03-26T10:10:34Z</time>
      </trkpt>
      <trkpt lat="45.66823" lon="6.85667">
        <ele>2238.2</ele>
        <time>2021-03-26T10:10:35Z</time>
      </trkpt>
      <trkpt lat="45.66824" lon="6.85667">
        <ele>2238.8</ele>
        <time>2021-03-26T10:10:36Z</time>
      </trkpt>
      <trkpt lat="45.66824" lon="6.85666">
        <ele>2238.8</ele>
        <time>2021-03-26T10:10:37Z</time>
      </trkpt>
      <trkpt lat="45.66825" lon="6.85666">
        <ele>2238.8</ele>
        <time>2021-03-26T10:10:38Z</time>
      </trkpt>
      <trkpt lat="45.66825" lon="6.85665">
        <ele>2238.8</ele>
        <time>2021-03-26T10:10:39Z</time>
      </trkpt>
      <trkpt lat="45.66826" lon="6.85665">
        <ele>2239.7</ele>
        <time>2021-03-26T10:10:40Z</time>
      </trkpt>
      <trkpt lat="45.66826" lon="6.85664">
        <ele>2239.7</ele>
        <time>2021-03-26T10:10:41Z</time>
      </trkpt>
      <trkpt lat="45.66827" lon="6.85663">
        <ele>2239.7</ele>
        <time>2021-03-26T10:10:42Z</time>
      </trkpt>
      <trkpt lat="45.66828" lon="6.85663">
        <ele>2240.3</ele>
        <time>2021-03-26T10:10:43Z</time>
      </trkpt>
      <trkpt lat="45.66828" lon="6.85662">
        <ele>2240.3</ele>
        <time>2021-03-26T10:10:44Z</time>
      </trkpt>
      <trkpt lat="45.66828" lon="6.85661">
        <ele>2240.3</ele>
        <time>2021-03-26T10:10:45Z</time>
      </trkpt>
      <trkpt lat="45.66829" lon="6.85661">
        <ele>2241.2</ele>
        <time>2021-03-26T10:10:46Z</time>
      </trkpt>
      <trkpt lat="45.66829" lon="6.8566">
        <ele>2241.2</ele>
        <time>2021-03-26T10:10:47Z</time>
      </trkpt>
      <trkpt lat="45.6683" lon="6.8566">
        <ele>2241.2</ele>
        <time>2021-03-26T10:10:48Z</time>
      </trkpt>
      <trkpt lat="45.6683" lon="6.85659">
        <ele>2241.2</ele>
        <time>2021-03-26T10:10:49Z</time>
      </trkpt>
      <trkpt lat="45.66831" lon="6.85658">
        <ele>2241.7</ele>
        <time>2021-03-26T10:10:50Z</time>
      </trkpt>
      <trkpt lat="45.66831" lon="6.85658">
        <ele>2241.7</ele>
        <time>2021-03-26T10:10:51Z</time>
      </trkpt>
      <trkpt lat="45.66831" lon="6.85657">
        <ele>2241.7</ele>
        <time>2021-03-26T10:10:52Z</time>
      </trkpt>
      <trkpt lat="45.66832" lon="6.85657">
        <ele>2242.7</ele>
        <time>2021-03-26T10:10:53Z</time>
      </trkpt>
      <trkpt lat="45.66832" lon="6.85656">
        <ele>2242.7</ele>
        <time>2021-03-26T10:10:54Z</time>
      </trkpt>
      <trkpt lat="45.66833" lon="6.85656">
        <ele>2242.7</ele>
        <time>2021-03-26T10:10:55Z</time>
      </trkpt>
      <trkpt lat="45.66833" lon="6.85655">
        <ele>2242.7</ele>
        <time>2021-03-26T10:10:56Z</time>
      </trkpt>
      <trkpt lat="45.66833" lon="6.85654">
        <ele>2242.7</ele>
        <time>2021-03-26T10:10:57Z</time>
      </trkpt>
      <trkpt lat="45.66834" lon="6.85654">
        <ele>2243.1</ele>
        <time>2021-03-26T10:10:58Z</time>
      </trkpt>
      <trkpt lat="45.66834" lon="6.85654">
        <ele>2243.1</ele>
        <time>2021-03-26T10:10:59Z</time>
      </trkpt>
      <trkpt lat="45.66835" lon="6.85653">
        <ele>2244</ele>
        <time>2021-03-26T10:11:00Z</time>
      </trkpt>
      <trkpt lat="45.66835" lon="6.85653">
        <ele>2244</ele>
        <time>2021-03-26T10:11:01Z</time>
      </trkpt>
      <trkpt lat="45.66836" lon="6.85652">
        <ele>2244</ele>
        <time>2021-03-26T10:11:02Z</time>
      </trkpt>
      <trkpt lat="45.66836" lon="6.85652">
        <ele>2244</ele>
        <time>2021-03-26T10:11:03Z</time>
      </trkpt>
      <trkpt lat="45.66837" lon="6.85651">
        <ele>2244</ele>
        <time>2021-03-26T10:11:04Z</time>
      </trkpt>
      <trkpt lat="45.66837" lon="6.85651">
        <ele>2244</ele>
        <time>2021-03-26T10:11:05Z</time>
      </trkpt>
      <trkpt lat="45.66838" lon="6.8565">
        <ele>2244.9</ele>
        <time>2021-03-26T10:11:06Z</time>
      </trkpt>
      <trkpt lat="45.66838" lon="6.8565">
        <ele>2244.9</ele>
        <time>2021-03-26T10:11:07Z</time>
      </trkpt>
      <trkpt lat="45.66839" lon="6.8565">
        <ele>2245.3</ele>
        <time>2021-03-26T10:11:08Z</time>
      </trkpt>
      <trkpt lat="45.66839" lon="6.8565">
        <ele>2245.3</ele>
        <time>2021-03-26T10:11:09Z</time>
      </trkpt>
      <trkpt lat="45.66839" lon="6.85649">
        <ele>2245.3</ele>
        <time>2021-03-26T10:11:10Z</time>
      </trkpt>
      <trkpt lat="45.6684" lon="6.85649">
        <ele>2245.3</ele>
        <time>2021-03-26T10:11:11Z</time>
      </trkpt>
      <trkpt lat="45.6684" lon="6.85648">
        <ele>2245.3</ele>
        <time>2021-03-26T10:11:12Z</time>
      </trkpt>
      <trkpt lat="45.66841" lon="6.85648">
        <ele>2245.3</ele>
        <time>2021-03-26T10:11:13Z</time>
      </trkpt>
      <trkpt lat="45.66841" lon="6.85647">
        <ele>2246.1</ele>
        <time>2021-03-26T10:11:14Z</time>
      </trkpt>
      <trkpt lat="45.66841" lon="6.85647">
        <ele>2246.1</ele>
        <time>2021-03-26T10:11:15Z</time>
      </trkpt>
      <trkpt lat="45.66842" lon="6.85646">
        <ele>2246.1</ele>
        <time>2021-03-26T10:11:16Z</time>
      </trkpt>
      <trkpt lat="45.66842" lon="6.85646">
        <ele>2246.1</ele>
        <time>2021-03-26T10:11:17Z</time>
      </trkpt>
      <trkpt lat="45.66842" lon="6.85645">
        <ele>2246.5</ele>
        <time>2021-03-26T10:11:18Z</time>
      </trkpt>
      <trkpt lat="45.66843" lon="6.85645">
        <ele>2246.5</ele>
        <time>2021-03-26T10:11:19Z</time>
      </trkpt>
      <trkpt lat="45.66843" lon="6.85645">
        <ele>2246.5</ele>
        <time>2021-03-26T10:11:20Z</time>
      </trkpt>
      <trkpt lat="45.66843" lon="6.85645">
        <ele>2246.5</ele>
        <time>2021-03-26T10:11:21Z</time>
      </trkpt>
      <trkpt lat="45.66843" lon="6.85645">
        <ele>2246.5</ele>
        <time>2021-03-26T10:11:22Z</time>
      </trkpt>
      <trkpt lat="45.66844" lon="6.85644">
        <ele>2247.3</ele>
        <time>2021-03-26T10:11:23Z</time>
      </trkpt>
      <trkpt lat="45.66844" lon="6.85644">
        <ele>2247.3</ele>
        <time>2021-03-26T10:11:24Z</time>
      </trkpt>
      <trkpt lat="45.66843" lon="6.85643">
        <ele>2246.5</ele>
        <time>2021-03-26T10:11:25Z</time>
      </trkpt>
      <trkpt lat="45.66843" lon="6.85642">
        <ele>2246.5</ele>
        <time>2021-03-26T10:11:26Z</time>
      </trkpt>
      <trkpt lat="45.66843" lon="6.85642">
        <ele>2246.5</ele>
        <time>2021-03-26T10:11:27Z</time>
      </trkpt>
      <trkpt lat="45.66843" lon="6.85641">
        <ele>2246.5</ele>
        <time>2021-03-26T10:11:28Z</time>
      </trkpt>
      <trkpt lat="45.66842" lon="6.85641">
        <ele>2246.9</ele>
        <time>2021-03-26T10:11:29Z</time>
      </trkpt>
      <trkpt lat="45.66842" lon="6.8564">
        <ele>2246.9</ele>
        <time>2021-03-26T10:11:30Z</time>
      </trkpt>
      <trkpt lat="45.66842" lon="6.8564">
        <ele>2246.9</ele>
        <time>2021-03-26T10:11:31Z</time>
      </trkpt>
      <trkpt lat="45.66842" lon="6.85639">
        <ele>2246.9</ele>
        <time>2021-03-26T10:11:32Z</time>
      </trkpt>
      <trkpt lat="45.66842" lon="6.85638">
        <ele>2246.9</ele>
        <time>2021-03-26T10:11:33Z</time>
      </trkpt>
      <trkpt lat="45.66842" lon="6.85637">
        <ele>2246.9</ele>
        <time>2021-03-26T10:11:34Z</time>
      </trkpt>
      <trkpt lat="45.66842" lon="6.85637">
        <ele>2247.3</ele>
        <time>2021-03-26T10:11:35Z</time>
      </trkpt>
      <trkpt lat="45.66842" lon="6.85636">
        <ele>2247.3</ele>
        <time>2021-03-26T10:11:36Z</time>
      </trkpt>
      <trkpt lat="45.66842" lon="6.85635">
        <ele>2247.3</ele>
        <time>2021-03-26T10:11:37Z</time>
      </trkpt>
      <trkpt lat="45.66842" lon="6.85634">
        <ele>2247.3</ele>
        <time>2021-03-26T10:11:38Z</time>
      </trkpt>
      <trkpt lat="45.66843" lon="6.85634">
        <ele>2247.3</ele>
        <time>2021-03-26T10:11:39Z</time>
      </trkpt>
      <trkpt lat="45.66843" lon="6.85633">
        <ele>2247.3</ele>
        <time>2021-03-26T10:11:40Z</time>
      </trkpt>
      <trkpt lat="45.66843" lon="6.85632">
        <ele>2247.7</ele>
        <time>2021-03-26T10:11:41Z</time>
      </trkpt>
      <trkpt lat="45.66844" lon="6.85632">
        <ele>2247.7</ele>
        <time>2021-03-26T10:11:42Z</time>
      </trkpt>
      <trkpt lat="45.66844" lon="6.85631">
        <ele>2248.5</ele>
        <time>2021-03-26T10:11:43Z</time>
      </trkpt>
      <trkpt lat="45.66845" lon="6.85631">
        <ele>2248.5</ele>
        <time>2021-03-26T10:11:44Z</time>
      </trkpt>
      <trkpt lat="45.66845" lon="6.8563">
        <ele>2248.5</ele>
        <time>2021-03-26T10:11:45Z</time>
      </trkpt>
      <trkpt lat="45.66846" lon="6.8563">
        <ele>2248.5</ele>
        <time>2021-03-26T10:11:46Z</time>
      </trkpt>
      <trkpt lat="45.66847" lon="6.85629">
        <ele>2249.3</ele>
        <time>2021-03-26T10:11:47Z</time>
      </trkpt>
      <trkpt lat="45.66848" lon="6.85629">
        <ele>2249.3</ele>
        <time>2021-03-26T10:11:48Z</time>
      </trkpt>
      <trkpt lat="45.66848" lon="6.85628">
        <ele>2249.8</ele>
        <time>2021-03-26T10:11:49Z</time>
      </trkpt>
      <trkpt lat="45.66849" lon="6.85628">
        <ele>2249.8</ele>
        <time>2021-03-26T10:11:50Z</time>
      </trkpt>
      <trkpt lat="45.6685" lon="6.85627">
        <ele>2250.6</ele>
        <time>2021-03-26T10:11:51Z</time>
      </trkpt>
      <trkpt lat="45.6685" lon="6.85627">
        <ele>2250.6</ele>
        <time>2021-03-26T10:11:52Z</time>
      </trkpt>
      <trkpt lat="45.66851" lon="6.85626">
        <ele>2250.6</ele>
        <time>2021-03-26T10:11:53Z</time>
      </trkpt>
      <trkpt lat="45.66852" lon="6.85626">
        <ele>2250.6</ele>
        <time>2021-03-26T10:11:54Z</time>
      </trkpt>
      <trkpt lat="45.66852" lon="6.85625">
        <ele>2250.6</ele>
        <time>2021-03-26T10:11:55Z</time>
      </trkpt>
      <trkpt lat="45.66853" lon="6.85624">
        <ele>2251.3</ele>
        <time>2021-03-26T10:11:56Z</time>
      </trkpt>
      <trkpt lat="45.66854" lon="6.85624">
        <ele>2251.9</ele>
        <time>2021-03-26T10:11:57Z</time>
      </trkpt>
      <trkpt lat="45.66854" lon="6.85623">
        <ele>2251.9</ele>
        <time>2021-03-26T10:11:58Z</time>
      </trkpt>
      <trkpt lat="45.66855" lon="6.85622">
        <ele>2251.9</ele>
        <time>2021-03-26T10:11:59Z</time>
      </trkpt>
      <trkpt lat="45.66856" lon="6.85622">
        <ele>2252.7</ele>
        <time>2021-03-26T10:12:00Z</time>
      </trkpt>
      <trkpt lat="45.66856" lon="6.85621">
        <ele>2252.7</ele>
        <time>2021-03-26T10:12:01Z</time>
      </trkpt>
      <trkpt lat="45.66857" lon="6.85621">
        <ele>2252.7</ele>
        <time>2021-03-26T10:12:02Z</time>
      </trkpt>
      <trkpt lat="45.66858" lon="6.8562">
        <ele>2252.7</ele>
        <time>2021-03-26T10:12:03Z</time>
      </trkpt>
      <trkpt lat="45.66859" lon="6.8562">
        <ele>2253.5</ele>
        <time>2021-03-26T10:12:04Z</time>
      </trkpt>
      <trkpt lat="45.66859" lon="6.8562">
        <ele>2253.5</ele>
        <time>2021-03-26T10:12:05Z</time>
      </trkpt>
      <trkpt lat="45.6686" lon="6.8562">
        <ele>2253.5</ele>
        <time>2021-03-26T10:12:06Z</time>
      </trkpt>
      <trkpt lat="45.66861" lon="6.8562">
        <ele>2253.5</ele>
        <time>2021-03-26T10:12:07Z</time>
      </trkpt>
      <trkpt lat="45.66862" lon="6.8562">
        <ele>2254.3</ele>
        <time>2021-03-26T10:12:08Z</time>
      </trkpt>
      <trkpt lat="45.66863" lon="6.8562">
        <ele>2254.3</ele>
        <time>2021-03-26T10:12:09Z</time>
      </trkpt>
      <trkpt lat="45.66864" lon="6.85621">
        <ele>2254.3</ele>
        <time>2021-03-26T10:12:10Z</time>
      </trkpt>
      <trkpt lat="45.66864" lon="6.85621">
        <ele>2254.3</ele>
        <time>2021-03-26T10:12:11Z</time>
      </trkpt>
      <trkpt lat="45.66865" lon="6.85622">
        <ele>2255.1</ele>
        <time>2021-03-26T10:12:12Z</time>
      </trkpt>
      <trkpt lat="45.66866" lon="6.85622">
        <ele>2255.1</ele>
        <time>2021-03-26T10:12:13Z</time>
      </trkpt>
      <trkpt lat="45.66867" lon="6.85623">
        <ele>2255.1</ele>
        <time>2021-03-26T10:12:14Z</time>
      </trkpt>
      <trkpt lat="45.66867" lon="6.85623">
        <ele>2255.1</ele>
        <time>2021-03-26T10:12:15Z</time>
      </trkpt>
      <trkpt lat="45.66867" lon="6.85623">
        <ele>2255.1</ele>
        <time>2021-03-26T10:12:16Z</time>
      </trkpt>
      <trkpt lat="45.66867" lon="6.85623">
        <ele>2255.1</ele>
        <time>2021-03-26T10:12:17Z</time>
      </trkpt>
      <trkpt lat="45.66867" lon="6.85623">
        <ele>2255.1</ele>
        <time>2021-03-26T10:12:18Z</time>
      </trkpt>
      <trkpt lat="45.66868" lon="6.85624">
        <ele>2255.2</ele>
        <time>2021-03-26T10:12:19Z</time>
      </trkpt>
      <trkpt lat="45.66869" lon="6.85625">
        <ele>2255.2</ele>
        <time>2021-03-26T10:12:20Z</time>
      </trkpt>
      <trkpt lat="45.66869" lon="6.85625">
        <ele>2255.2</ele>
        <time>2021-03-26T10:12:21Z</time>
      </trkpt>
      <trkpt lat="45.6687" lon="6.85626">
        <ele>2255.2</ele>
        <time>2021-03-26T10:12:22Z</time>
      </trkpt>
      <trkpt lat="45.66871" lon="6.85626">
        <ele>2256</ele>
        <time>2021-03-26T10:12:23Z</time>
      </trkpt>
      <trkpt lat="45.66871" lon="6.85627">
        <ele>2256</ele>
        <time>2021-03-26T10:12:24Z</time>
      </trkpt>
      <trkpt lat="45.66872" lon="6.85627">
        <ele>2256</ele>
        <time>2021-03-26T10:12:25Z</time>
      </trkpt>
      <trkpt lat="45.66872" lon="6.85627">
        <ele>2256</ele>
        <time>2021-03-26T10:12:26Z</time>
      </trkpt>
      <trkpt lat="45.66873" lon="6.85628">
        <ele>2256</ele>
        <time>2021-03-26T10:12:27Z</time>
      </trkpt>
      <trkpt lat="45.66873" lon="6.85628">
        <ele>2256</ele>
        <time>2021-03-26T10:12:28Z</time>
      </trkpt>
      <trkpt lat="45.66874" lon="6.85628">
        <ele>2256.6</ele>
        <time>2021-03-26T10:12:29Z</time>
      </trkpt>
      <trkpt lat="45.66874" lon="6.85628">
        <ele>2256.6</ele>
        <time>2021-03-26T10:12:30Z</time>
      </trkpt>
      <trkpt lat="45.66875" lon="6.85628">
        <ele>2256.6</ele>
        <time>2021-03-26T10:12:31Z</time>
      </trkpt>
      <trkpt lat="45.66876" lon="6.85628">
        <ele>2256.6</ele>
        <time>2021-03-26T10:12:32Z</time>
      </trkpt>
      <trkpt lat="45.66876" lon="6.85628">
        <ele>2256.6</ele>
        <time>2021-03-26T10:12:33Z</time>
      </trkpt>
      <trkpt lat="45.66877" lon="6.85629">
        <ele>2256.7</ele>
        <time>2021-03-26T10:12:34Z</time>
      </trkpt>
      <trkpt lat="45.66877" lon="6.85629">
        <ele>2256.7</ele>
        <time>2021-03-26T10:12:35Z</time>
      </trkpt>
      <trkpt lat="45.66878" lon="6.85629">
        <ele>2256.7</ele>
        <time>2021-03-26T10:12:36Z</time>
      </trkpt>
      <trkpt lat="45.66878" lon="6.8563">
        <ele>2256.7</ele>
        <time>2021-03-26T10:12:37Z</time>
      </trkpt>
      <trkpt lat="45.66879" lon="6.8563">
        <ele>2256.7</ele>
        <time>2021-03-26T10:12:38Z</time>
      </trkpt>
      <trkpt lat="45.66879" lon="6.8563">
        <ele>2256.7</ele>
        <time>2021-03-26T10:12:39Z</time>
      </trkpt>
      <trkpt lat="45.6688" lon="6.8563">
        <ele>2257.4</ele>
        <time>2021-03-26T10:12:40Z</time>
      </trkpt>
      <trkpt lat="45.6688" lon="6.85631">
        <ele>2257.4</ele>
        <time>2021-03-26T10:12:41Z</time>
      </trkpt>
      <trkpt lat="45.66881" lon="6.85631">
        <ele>2257.4</ele>
        <time>2021-03-26T10:12:42Z</time>
      </trkpt>
      <trkpt lat="45.66881" lon="6.85632">
        <ele>2257.4</ele>
        <time>2021-03-26T10:12:43Z</time>
      </trkpt>
      <trkpt lat="45.66882" lon="6.85632">
        <ele>2257.4</ele>
        <time>2021-03-26T10:12:44Z</time>
      </trkpt>
      <trkpt lat="45.66882" lon="6.85632">
        <ele>2257.4</ele>
        <time>2021-03-26T10:12:45Z</time>
      </trkpt>
      <trkpt lat="45.66883" lon="6.85633">
        <ele>2258.1</ele>
        <time>2021-03-26T10:12:46Z</time>
      </trkpt>
      <trkpt lat="45.66883" lon="6.85633">
        <ele>2257.5</ele>
        <time>2021-03-26T10:12:47Z</time>
      </trkpt>
      <trkpt lat="45.66884" lon="6.85634">
        <ele>2257.5</ele>
        <time>2021-03-26T10:12:48Z</time>
      </trkpt>
      <trkpt lat="45.66884" lon="6.85634">
        <ele>2257.5</ele>
        <time>2021-03-26T10:12:49Z</time>
      </trkpt>
      <trkpt lat="45.66885" lon="6.85634">
        <ele>2257.5</ele>
        <time>2021-03-26T10:12:50Z</time>
      </trkpt>
      <trkpt lat="45.66885" lon="6.85635">
        <ele>2257.5</ele>
        <time>2021-03-26T10:12:51Z</time>
      </trkpt>
      <trkpt lat="45.66886" lon="6.85635">
        <ele>2258.3</ele>
        <time>2021-03-26T10:12:52Z</time>
      </trkpt>
      <trkpt lat="45.66886" lon="6.85635">
        <ele>2258.3</ele>
        <time>2021-03-26T10:12:53Z</time>
      </trkpt>
      <trkpt lat="45.66886" lon="6.85636">
        <ele>2258.3</ele>
        <time>2021-03-26T10:12:54Z</time>
      </trkpt>
      <trkpt lat="45.66887" lon="6.85636">
        <ele>2258.3</ele>
        <time>2021-03-26T10:12:55Z</time>
      </trkpt>
      <trkpt lat="45.66887" lon="6.85637">
        <ele>2258.3</ele>
        <time>2021-03-26T10:12:56Z</time>
      </trkpt>
      <trkpt lat="45.66888" lon="6.85637">
        <ele>2257.7</ele>
        <time>2021-03-26T10:12:57Z</time>
      </trkpt>
      <trkpt lat="45.66888" lon="6.85638">
        <ele>2257.7</ele>
        <time>2021-03-26T10:12:58Z</time>
      </trkpt>
      <trkpt lat="45.66888" lon="6.85639">
        <ele>2257.7</ele>
        <time>2021-03-26T10:12:59Z</time>
      </trkpt>
      <trkpt lat="45.66889" lon="6.85639">
        <ele>2258.5</ele>
        <time>2021-03-26T10:13:00Z</time>
      </trkpt>
      <trkpt lat="45.66889" lon="6.8564">
        <ele>2258.5</ele>
        <time>2021-03-26T10:13:01Z</time>
      </trkpt>
      <trkpt lat="45.6689" lon="6.8564">
        <ele>2258.5</ele>
        <time>2021-03-26T10:13:02Z</time>
      </trkpt>
      <trkpt lat="45.6689" lon="6.85641">
        <ele>2258.5</ele>
        <time>2021-03-26T10:13:03Z</time>
      </trkpt>
      <trkpt lat="45.6689" lon="6.85641">
        <ele>2258.5</ele>
        <time>2021-03-26T10:13:04Z</time>
      </trkpt>
      <trkpt lat="45.66891" lon="6.85641">
        <ele>2258</ele>
        <time>2021-03-26T10:13:05Z</time>
      </trkpt>
      <trkpt lat="45.66892" lon="6.85642">
        <ele>2258.7</ele>
        <time>2021-03-26T10:13:06Z</time>
      </trkpt>
      <trkpt lat="45.66892" lon="6.85642">
        <ele>2258.7</ele>
        <time>2021-03-26T10:13:07Z</time>
      </trkpt>
      <trkpt lat="45.66893" lon="6.85642">
        <ele>2258.7</ele>
        <time>2021-03-26T10:13:08Z</time>
      </trkpt>
      <trkpt lat="45.66893" lon="6.85643">
        <ele>2258.7</ele>
        <time>2021-03-26T10:13:09Z</time>
      </trkpt>
      <trkpt lat="45.66894" lon="6.85643">
        <ele>2258.7</ele>
        <time>2021-03-26T10:13:10Z</time>
      </trkpt>
      <trkpt lat="45.66894" lon="6.85644">
        <ele>2258.7</ele>
        <time>2021-03-26T10:13:11Z</time>
      </trkpt>
      <trkpt lat="45.66895" lon="6.85644">
        <ele>2259.4</ele>
        <time>2021-03-26T10:13:12Z</time>
      </trkpt>
      <trkpt lat="45.66895" lon="6.85644">
        <ele>2259.4</ele>
        <time>2021-03-26T10:13:13Z</time>
      </trkpt>
      <trkpt lat="45.66896" lon="6.85644">
        <ele>2259.4</ele>
        <time>2021-03-26T10:13:14Z</time>
      </trkpt>
      <trkpt lat="45.66897" lon="6.85644">
        <ele>2259.4</ele>
        <time>2021-03-26T10:13:15Z</time>
      </trkpt>
      <trkpt lat="45.66897" lon="6.85645">
        <ele>2259.4</ele>
        <time>2021-03-26T10:13:16Z</time>
      </trkpt>
      <trkpt lat="45.66898" lon="6.85645">
        <ele>2260.1</ele>
        <time>2021-03-26T10:13:17Z</time>
      </trkpt>
      <trkpt lat="45.66898" lon="6.85645">
        <ele>2260.1</ele>
        <time>2021-03-26T10:13:18Z</time>
      </trkpt>
      <trkpt lat="45.66899" lon="6.85645">
        <ele>2260.1</ele>
        <time>2021-03-26T10:13:19Z</time>
      </trkpt>
      <trkpt lat="45.669" lon="6.85645">
        <ele>2260.1</ele>
        <time>2021-03-26T10:13:20Z</time>
      </trkpt>
      <trkpt lat="45.66901" lon="6.85645">
        <ele>2260.7</ele>
        <time>2021-03-26T10:13:21Z</time>
      </trkpt>
      <trkpt lat="45.66901" lon="6.85646">
        <ele>2260.2</ele>
        <time>2021-03-26T10:13:22Z</time>
      </trkpt>
      <trkpt lat="45.66902" lon="6.85646">
        <ele>2260.2</ele>
        <time>2021-03-26T10:13:23Z</time>
      </trkpt>
      <trkpt lat="45.66902" lon="6.85646">
        <ele>2260.2</ele>
        <time>2021-03-26T10:13:24Z</time>
      </trkpt>
      <trkpt lat="45.66903" lon="6.85646">
        <ele>2260.2</ele>
        <time>2021-03-26T10:13:25Z</time>
      </trkpt>
      <trkpt lat="45.66904" lon="6.85646">
        <ele>2260.8</ele>
        <time>2021-03-26T10:13:26Z</time>
      </trkpt>
      <trkpt lat="45.66904" lon="6.85646">
        <ele>2260.8</ele>
        <time>2021-03-26T10:13:27Z</time>
      </trkpt>
      <trkpt lat="45.66905" lon="6.85646">
        <ele>2260.8</ele>
        <time>2021-03-26T10:13:28Z</time>
      </trkpt>
      <trkpt lat="45.66905" lon="6.85647">
        <ele>2260.8</ele>
        <time>2021-03-26T10:13:29Z</time>
      </trkpt>
      <trkpt lat="45.66906" lon="6.85647">
        <ele>2260.8</ele>
        <time>2021-03-26T10:13:30Z</time>
      </trkpt>
      <trkpt lat="45.66906" lon="6.85647">
        <ele>2260.8</ele>
        <time>2021-03-26T10:13:31Z</time>
      </trkpt>
      <trkpt lat="45.66906" lon="6.85647">
        <ele>2260.8</ele>
        <time>2021-03-26T10:13:32Z</time>
      </trkpt>
      <trkpt lat="45.66906" lon="6.85647">
        <ele>2260.8</ele>
        <time>2021-03-26T10:13:33Z</time>
      </trkpt>
      <trkpt lat="45.66906" lon="6.85647">
        <ele>2260.8</ele>
        <time>2021-03-26T10:13:34Z</time>
      </trkpt>
      <trkpt lat="45.66906" lon="6.85647">
        <ele>2260.8</ele>
        <time>2021-03-26T10:13:35Z</time>
      </trkpt>
      <trkpt lat="45.66906" lon="6.85647">
        <ele>2260.8</ele>
        <time>2021-03-26T10:13:36Z</time>
      </trkpt>
      <trkpt lat="45.66906" lon="6.85647">
        <ele>2260.8</ele>
        <time>2021-03-26T10:13:37Z</time>
      </trkpt>
      <trkpt lat="45.66906" lon="6.85647">
        <ele>2260.8</ele>
        <time>2021-03-26T10:13:38Z</time>
      </trkpt>
      <trkpt lat="45.66906" lon="6.85647">
        <ele>2260.8</ele>
        <time>2021-03-26T10:13:39Z</time>
      </trkpt>
      <trkpt lat="45.66909" lon="6.85648">
        <ele>2261.6</ele>
        <time>2021-03-26T10:14:31Z</time>
      </trkpt>
      <trkpt lat="45.6691" lon="6.85648">
        <ele>2262.3</ele>
        <time>2021-03-26T10:14:32Z</time>
      </trkpt>
      <trkpt lat="45.6691" lon="6.85648">
        <ele>2262.3</ele>
        <time>2021-03-26T10:14:33Z</time>
      </trkpt>
      <trkpt lat="45.6691" lon="6.85648">
        <ele>2262.3</ele>
        <time>2021-03-26T10:14:34Z</time>
      </trkpt>
      <trkpt lat="45.6691" lon="6.85648">
        <ele>2262.3</ele>
        <time>2021-03-26T10:14:35Z</time>
      </trkpt>
      <trkpt lat="45.66911" lon="6.85648">
        <ele>2262.3</ele>
        <time>2021-03-26T10:14:36Z</time>
      </trkpt>
      <trkpt lat="45.66911" lon="6.85648">
        <ele>2262.3</ele>
        <time>2021-03-26T10:14:37Z</time>
      </trkpt>
      <trkpt lat="45.66912" lon="6.85648">
        <ele>2262.3</ele>
        <time>2021-03-26T10:14:38Z</time>
      </trkpt>
      <trkpt lat="45.66913" lon="6.85648">
        <ele>2263.1</ele>
        <time>2021-03-26T10:14:39Z</time>
      </trkpt>
      <trkpt lat="45.66913" lon="6.85648">
        <ele>2263.1</ele>
        <time>2021-03-26T10:14:40Z</time>
      </trkpt>
      <trkpt lat="45.66914" lon="6.85648">
        <ele>2263.1</ele>
        <time>2021-03-26T10:14:41Z</time>
      </trkpt>
      <trkpt lat="45.66914" lon="6.85648">
        <ele>2263.1</ele>
        <time>2021-03-26T10:14:42Z</time>
      </trkpt>
      <trkpt lat="45.66915" lon="6.85648">
        <ele>2263.1</ele>
        <time>2021-03-26T10:14:43Z</time>
      </trkpt>
      <trkpt lat="45.66916" lon="6.85648">
        <ele>2263.9</ele>
        <time>2021-03-26T10:14:44Z</time>
      </trkpt>
      <trkpt lat="45.66917" lon="6.85648">
        <ele>2263.9</ele>
        <time>2021-03-26T10:14:45Z</time>
      </trkpt>
      <trkpt lat="45.66917" lon="6.85648">
        <ele>2263.9</ele>
        <time>2021-03-26T10:14:46Z</time>
      </trkpt>
      <trkpt lat="45.66918" lon="6.85649">
        <ele>2263.9</ele>
        <time>2021-03-26T10:14:47Z</time>
      </trkpt>
      <trkpt lat="45.66919" lon="6.85649">
        <ele>2264.6</ele>
        <time>2021-03-26T10:14:48Z</time>
      </trkpt>
      <trkpt lat="45.66919" lon="6.8565">
        <ele>2264.1</ele>
        <time>2021-03-26T10:14:49Z</time>
      </trkpt>
      <trkpt lat="45.66919" lon="6.8565">
        <ele>2264.1</ele>
        <time>2021-03-26T10:14:50Z</time>
      </trkpt>
      <trkpt lat="45.6692" lon="6.8565">
        <ele>2264.1</ele>
        <time>2021-03-26T10:14:51Z</time>
      </trkpt>
      <trkpt lat="45.66921" lon="6.8565">
        <ele>2264.1</ele>
        <time>2021-03-26T10:14:52Z</time>
      </trkpt>
      <trkpt lat="45.66921" lon="6.8565">
        <ele>2264.6</ele>
        <time>2021-03-26T10:14:53Z</time>
      </trkpt>
      <trkpt lat="45.66922" lon="6.8565">
        <ele>2265.3</ele>
        <time>2021-03-26T10:14:54Z</time>
      </trkpt>
      <trkpt lat="45.66923" lon="6.85649">
        <ele>2265.3</ele>
        <time>2021-03-26T10:14:55Z</time>
      </trkpt>
      <trkpt lat="45.66923" lon="6.85649">
        <ele>2265.3</ele>
        <time>2021-03-26T10:14:56Z</time>
      </trkpt>
      <trkpt lat="45.66924" lon="6.85649">
        <ele>2265.3</ele>
        <time>2021-03-26T10:14:57Z</time>
      </trkpt>
      <trkpt lat="45.66924" lon="6.85649">
        <ele>2265.3</ele>
        <time>2021-03-26T10:14:58Z</time>
      </trkpt>
      <trkpt lat="45.66925" lon="6.85649">
        <ele>2266</ele>
        <time>2021-03-26T10:14:59Z</time>
      </trkpt>
      <trkpt lat="45.66925" lon="6.85649">
        <ele>2266</ele>
        <time>2021-03-26T10:15:00Z</time>
      </trkpt>
      <trkpt lat="45.66926" lon="6.8565">
        <ele>2266</ele>
        <time>2021-03-26T10:15:01Z</time>
      </trkpt>
      <trkpt lat="45.66927" lon="6.8565">
        <ele>2266</ele>
        <time>2021-03-26T10:15:02Z</time>
      </trkpt>
      <trkpt lat="45.66927" lon="6.8565">
        <ele>2266</ele>
        <time>2021-03-26T10:15:03Z</time>
      </trkpt>
      <trkpt lat="45.66928" lon="6.8565">
        <ele>2266.7</ele>
        <time>2021-03-26T10:15:04Z</time>
      </trkpt>
      <trkpt lat="45.66928" lon="6.85649">
        <ele>2266.7</ele>
        <time>2021-03-26T10:15:05Z</time>
      </trkpt>
      <trkpt lat="45.66928" lon="6.85649">
        <ele>2266.7</ele>
        <time>2021-03-26T10:15:06Z</time>
      </trkpt>
      <trkpt lat="45.66929" lon="6.85649">
        <ele>2266.7</ele>
        <time>2021-03-26T10:15:07Z</time>
      </trkpt>
      <trkpt lat="45.66929" lon="6.85649">
        <ele>2266.7</ele>
        <time>2021-03-26T10:15:08Z</time>
      </trkpt>
      <trkpt lat="45.6693" lon="6.85648">
        <ele>2266.7</ele>
        <time>2021-03-26T10:15:09Z</time>
      </trkpt>
      <trkpt lat="45.6693" lon="6.85648">
        <ele>2266.7</ele>
        <time>2021-03-26T10:15:10Z</time>
      </trkpt>
      <trkpt lat="45.66931" lon="6.85648">
        <ele>2267.3</ele>
        <time>2021-03-26T10:15:11Z</time>
      </trkpt>
      <trkpt lat="45.66931" lon="6.85647">
        <ele>2267.3</ele>
        <time>2021-03-26T10:15:12Z</time>
      </trkpt>
      <trkpt lat="45.66931" lon="6.85647">
        <ele>2267.3</ele>
        <time>2021-03-26T10:15:13Z</time>
      </trkpt>
      <trkpt lat="45.66932" lon="6.85646">
        <ele>2267.3</ele>
        <time>2021-03-26T10:15:14Z</time>
      </trkpt>
      <trkpt lat="45.66932" lon="6.85646">
        <ele>2267.3</ele>
        <time>2021-03-26T10:15:15Z</time>
      </trkpt>
      <trkpt lat="45.66933" lon="6.85646">
        <ele>2267.3</ele>
        <time>2021-03-26T10:15:16Z</time>
      </trkpt>
      <trkpt lat="45.66933" lon="6.85645">
        <ele>2267.8</ele>
        <time>2021-03-26T10:15:17Z</time>
      </trkpt>
      <trkpt lat="45.66934" lon="6.85645">
        <ele>2268.4</ele>
        <time>2021-03-26T10:15:18Z</time>
      </trkpt>
      <trkpt lat="45.66934" lon="6.85645">
        <ele>2268.4</ele>
        <time>2021-03-26T10:15:19Z</time>
      </trkpt>
      <trkpt lat="45.66934" lon="6.85644">
        <ele>2268.4</ele>
        <time>2021-03-26T10:15:20Z</time>
      </trkpt>
      <trkpt lat="45.66935" lon="6.85644">
        <ele>2268.4</ele>
        <time>2021-03-26T10:15:21Z</time>
      </trkpt>
      <trkpt lat="45.66935" lon="6.85643">
        <ele>2268.4</ele>
        <time>2021-03-26T10:15:22Z</time>
      </trkpt>
      <trkpt lat="45.66935" lon="6.85643">
        <ele>2268.4</ele>
        <time>2021-03-26T10:15:23Z</time>
      </trkpt>
      <trkpt lat="45.66936" lon="6.85642">
        <ele>2268.4</ele>
        <time>2021-03-26T10:15:24Z</time>
      </trkpt>
      <trkpt lat="45.66936" lon="6.85642">
        <ele>2268.4</ele>
        <time>2021-03-26T10:15:25Z</time>
      </trkpt>
      <trkpt lat="45.66937" lon="6.85642">
        <ele>2269</ele>
        <time>2021-03-26T10:15:26Z</time>
      </trkpt>
      <trkpt lat="45.66937" lon="6.85641">
        <ele>2269.5</ele>
        <time>2021-03-26T10:15:27Z</time>
      </trkpt>
      <trkpt lat="45.66937" lon="6.85641">
        <ele>2269.5</ele>
        <time>2021-03-26T10:15:28Z</time>
      </trkpt>
      <trkpt lat="45.66938" lon="6.85641">
        <ele>2269.5</ele>
        <time>2021-03-26T10:15:29Z</time>
      </trkpt>
      <trkpt lat="45.66938" lon="6.8564">
        <ele>2269.5</ele>
        <time>2021-03-26T10:15:30Z</time>
      </trkpt>
      <trkpt lat="45.66939" lon="6.8564">
        <ele>2269.5</ele>
        <time>2021-03-26T10:15:31Z</time>
      </trkpt>
      <trkpt lat="45.66939" lon="6.8564">
        <ele>2269.5</ele>
        <time>2021-03-26T10:15:32Z</time>
      </trkpt>
      <trkpt lat="45.66939" lon="6.8564">
        <ele>2269.5</ele>
        <time>2021-03-26T10:15:33Z</time>
      </trkpt>
      <trkpt lat="45.6694" lon="6.85639">
        <ele>2270.1</ele>
        <time>2021-03-26T10:15:34Z</time>
      </trkpt>
      <trkpt lat="45.6694" lon="6.85639">
        <ele>2270.1</ele>
        <time>2021-03-26T10:15:35Z</time>
      </trkpt>
      <trkpt lat="45.66941" lon="6.85639">
        <ele>2270.1</ele>
        <time>2021-03-26T10:15:36Z</time>
      </trkpt>
      <trkpt lat="45.66941" lon="6.85639">
        <ele>2270.1</ele>
        <time>2021-03-26T10:15:37Z</time>
      </trkpt>
      <trkpt lat="45.66942" lon="6.85638">
        <ele>2270.1</ele>
        <time>2021-03-26T10:15:38Z</time>
      </trkpt>
      <trkpt lat="45.66942" lon="6.85638">
        <ele>2270.1</ele>
        <time>2021-03-26T10:15:39Z</time>
      </trkpt>
      <trkpt lat="45.66943" lon="6.85638">
        <ele>2270.8</ele>
        <time>2021-03-26T10:15:40Z</time>
      </trkpt>
      <trkpt lat="45.66943" lon="6.85638">
        <ele>2270.8</ele>
        <time>2021-03-26T10:15:41Z</time>
      </trkpt>
      <trkpt lat="45.66944" lon="6.85638">
        <ele>2270.8</ele>
        <time>2021-03-26T10:15:42Z</time>
      </trkpt>
      <trkpt lat="45.66944" lon="6.85638">
        <ele>2270.8</ele>
        <time>2021-03-26T10:15:43Z</time>
      </trkpt>
      <trkpt lat="45.66945" lon="6.85637">
        <ele>2270.8</ele>
        <time>2021-03-26T10:15:44Z</time>
      </trkpt>
      <trkpt lat="45.66945" lon="6.85637">
        <ele>2270.8</ele>
        <time>2021-03-26T10:15:45Z</time>
      </trkpt>
      <trkpt lat="45.66946" lon="6.85637">
        <ele>2272</ele>
        <time>2021-03-26T10:15:46Z</time>
      </trkpt>
      <trkpt lat="45.66946" lon="6.85636">
        <ele>2272</ele>
        <time>2021-03-26T10:15:47Z</time>
      </trkpt>
      <trkpt lat="45.66947" lon="6.85636">
        <ele>2272</ele>
        <time>2021-03-26T10:15:48Z</time>
      </trkpt>
      <trkpt lat="45.66948" lon="6.85636">
        <ele>2272</ele>
        <time>2021-03-26T10:15:49Z</time>
      </trkpt>
      <trkpt lat="45.66949" lon="6.85635">
        <ele>2272.7</ele>
        <time>2021-03-26T10:15:50Z</time>
      </trkpt>
      <trkpt lat="45.66949" lon="6.85635">
        <ele>2272.7</ele>
        <time>2021-03-26T10:15:51Z</time>
      </trkpt>
      <trkpt lat="45.6695" lon="6.85635">
        <ele>2272.7</ele>
        <time>2021-03-26T10:15:52Z</time>
      </trkpt>
      <trkpt lat="45.66951" lon="6.85635">
        <ele>2272.7</ele>
        <time>2021-03-26T10:15:53Z</time>
      </trkpt>
      <trkpt lat="45.66952" lon="6.85635">
        <ele>2273.4</ele>
        <time>2021-03-26T10:15:54Z</time>
      </trkpt>
      <trkpt lat="45.66952" lon="6.85635">
        <ele>2273.4</ele>
        <time>2021-03-26T10:15:55Z</time>
      </trkpt>
      <trkpt lat="45.66953" lon="6.85635">
        <ele>2273.4</ele>
        <time>2021-03-26T10:15:56Z</time>
      </trkpt>
      <trkpt lat="45.66954" lon="6.85635">
        <ele>2273.4</ele>
        <time>2021-03-26T10:15:57Z</time>
      </trkpt>
      <trkpt lat="45.66955" lon="6.85635">
        <ele>2274</ele>
        <time>2021-03-26T10:15:58Z</time>
      </trkpt>
      <trkpt lat="45.66955" lon="6.85635">
        <ele>2274</ele>
        <time>2021-03-26T10:15:59Z</time>
      </trkpt>
      <trkpt lat="45.66956" lon="6.85635">
        <ele>2274</ele>
        <time>2021-03-26T10:16:00Z</time>
      </trkpt>
      <trkpt lat="45.66956" lon="6.85635">
        <ele>2274</ele>
        <time>2021-03-26T10:16:01Z</time>
      </trkpt>
      <trkpt lat="45.66957" lon="6.85635">
        <ele>2274</ele>
        <time>2021-03-26T10:16:02Z</time>
      </trkpt>
      <trkpt lat="45.66958" lon="6.85635">
        <ele>2274.6</ele>
        <time>2021-03-26T10:16:03Z</time>
      </trkpt>
      <trkpt lat="45.66958" lon="6.85635">
        <ele>2274.6</ele>
        <time>2021-03-26T10:16:04Z</time>
      </trkpt>
      <trkpt lat="45.66959" lon="6.85635">
        <ele>2274.6</ele>
        <time>2021-03-26T10:16:05Z</time>
      </trkpt>
      <trkpt lat="45.6696" lon="6.85635">
        <ele>2274.6</ele>
        <time>2021-03-26T10:16:06Z</time>
      </trkpt>
      <trkpt lat="45.6696" lon="6.85635">
        <ele>2274.6</ele>
        <time>2021-03-26T10:16:07Z</time>
      </trkpt>
      <trkpt lat="45.66961" lon="6.85635">
        <ele>2275.2</ele>
        <time>2021-03-26T10:16:08Z</time>
      </trkpt>
      <trkpt lat="45.66962" lon="6.85635">
        <ele>2275.2</ele>
        <time>2021-03-26T10:16:09Z</time>
      </trkpt>
      <trkpt lat="45.66962" lon="6.85635">
        <ele>2275.2</ele>
        <time>2021-03-26T10:16:10Z</time>
      </trkpt>
      <trkpt lat="45.66963" lon="6.85635">
        <ele>2275.2</ele>
        <time>2021-03-26T10:16:11Z</time>
      </trkpt>
      <trkpt lat="45.66964" lon="6.85635">
        <ele>2275.9</ele>
        <time>2021-03-26T10:16:12Z</time>
      </trkpt>
      <trkpt lat="45.66965" lon="6.85636">
        <ele>2275.9</ele>
        <time>2021-03-26T10:16:13Z</time>
      </trkpt>
      <trkpt lat="45.66965" lon="6.85636">
        <ele>2275.9</ele>
        <time>2021-03-26T10:16:14Z</time>
      </trkpt>
      <trkpt lat="45.66966" lon="6.85636">
        <ele>2275.9</ele>
        <time>2021-03-26T10:16:15Z</time>
      </trkpt>
      <trkpt lat="45.66967" lon="6.85636">
        <ele>2276.6</ele>
        <time>2021-03-26T10:16:16Z</time>
      </trkpt>
      <trkpt lat="45.66968" lon="6.85636">
        <ele>2276.6</ele>
        <time>2021-03-26T10:16:17Z</time>
      </trkpt>
      <trkpt lat="45.66968" lon="6.85636">
        <ele>2276.6</ele>
        <time>2021-03-26T10:16:18Z</time>
      </trkpt>
      <trkpt lat="45.66969" lon="6.85636">
        <ele>2276.6</ele>
        <time>2021-03-26T10:16:19Z</time>
      </trkpt>
      <trkpt lat="45.6697" lon="6.85636">
        <ele>2277.5</ele>
        <time>2021-03-26T10:16:20Z</time>
      </trkpt>
      <trkpt lat="45.6697" lon="6.85636">
        <ele>2277.5</ele>
        <time>2021-03-26T10:16:21Z</time>
      </trkpt>
      <trkpt lat="45.66971" lon="6.85636">
        <ele>2277.5</ele>
        <time>2021-03-26T10:16:22Z</time>
      </trkpt>
      <trkpt lat="45.66972" lon="6.85635">
        <ele>2277.5</ele>
        <time>2021-03-26T10:16:23Z</time>
      </trkpt>
      <trkpt lat="45.66972" lon="6.85635">
        <ele>2277.5</ele>
        <time>2021-03-26T10:16:24Z</time>
      </trkpt>
      <trkpt lat="45.66973" lon="6.85635">
        <ele>2278.3</ele>
        <time>2021-03-26T10:16:25Z</time>
      </trkpt>
      <trkpt lat="45.66974" lon="6.85635">
        <ele>2278.3</ele>
        <time>2021-03-26T10:16:26Z</time>
      </trkpt>
      <trkpt lat="45.66974" lon="6.85634">
        <ele>2278.3</ele>
        <time>2021-03-26T10:16:27Z</time>
      </trkpt>
      <trkpt lat="45.66974" lon="6.85634">
        <ele>2278.3</ele>
        <time>2021-03-26T10:16:28Z</time>
      </trkpt>
      <trkpt lat="45.66975" lon="6.85633">
        <ele>2278.3</ele>
        <time>2021-03-26T10:16:29Z</time>
      </trkpt>
      <trkpt lat="45.66975" lon="6.85633">
        <ele>2278.9</ele>
        <time>2021-03-26T10:16:30Z</time>
      </trkpt>
      <trkpt lat="45.66976" lon="6.85632">
        <ele>2279.8</ele>
        <time>2021-03-26T10:16:31Z</time>
      </trkpt>
      <trkpt lat="45.66976" lon="6.85632">
        <ele>2279.8</ele>
        <time>2021-03-26T10:16:32Z</time>
      </trkpt>
      <trkpt lat="45.66977" lon="6.85632">
        <ele>2279.8</ele>
        <time>2021-03-26T10:16:33Z</time>
      </trkpt>
      <trkpt lat="45.66977" lon="6.85631">
        <ele>2279.8</ele>
        <time>2021-03-26T10:16:34Z</time>
      </trkpt>
      <trkpt lat="45.66978" lon="6.85631">
        <ele>2279.8</ele>
        <time>2021-03-26T10:16:35Z</time>
      </trkpt>
      <trkpt lat="45.66979" lon="6.8563">
        <ele>2280.5</ele>
        <time>2021-03-26T10:16:36Z</time>
      </trkpt>
      <trkpt lat="45.66979" lon="6.8563">
        <ele>2280.5</ele>
        <time>2021-03-26T10:16:37Z</time>
      </trkpt>
      <trkpt lat="45.6698" lon="6.85629">
        <ele>2280.5</ele>
        <time>2021-03-26T10:16:38Z</time>
      </trkpt>
      <trkpt lat="45.66981" lon="6.85629">
        <ele>2280.5</ele>
        <time>2021-03-26T10:16:39Z</time>
      </trkpt>
      <trkpt lat="45.66981" lon="6.85628">
        <ele>2281.1</ele>
        <time>2021-03-26T10:16:40Z</time>
      </trkpt>
      <trkpt lat="45.66982" lon="6.85628">
        <ele>2281.8</ele>
        <time>2021-03-26T10:16:41Z</time>
      </trkpt>
      <trkpt lat="45.66983" lon="6.85627">
        <ele>2281.8</ele>
        <time>2021-03-26T10:16:42Z</time>
      </trkpt>
      <trkpt lat="45.66983" lon="6.85627">
        <ele>2281.8</ele>
        <time>2021-03-26T10:16:43Z</time>
      </trkpt>
      <trkpt lat="45.66984" lon="6.85627">
        <ele>2281.8</ele>
        <time>2021-03-26T10:16:44Z</time>
      </trkpt>
      <trkpt lat="45.66984" lon="6.85627">
        <ele>2281.8</ele>
        <time>2021-03-26T10:16:45Z</time>
      </trkpt>
      <trkpt lat="45.66985" lon="6.85626">
        <ele>2282.5</ele>
        <time>2021-03-26T10:16:46Z</time>
      </trkpt>
      <trkpt lat="45.66985" lon="6.85626">
        <ele>2282.5</ele>
        <time>2021-03-26T10:16:47Z</time>
      </trkpt>
      <trkpt lat="45.66986" lon="6.85626">
        <ele>2282.5</ele>
        <time>2021-03-26T10:16:48Z</time>
      </trkpt>
      <trkpt lat="45.66987" lon="6.85625">
        <ele>2282.5</ele>
        <time>2021-03-26T10:16:49Z</time>
      </trkpt>
      <trkpt lat="45.66987" lon="6.85625">
        <ele>2282.5</ele>
        <time>2021-03-26T10:16:50Z</time>
      </trkpt>
      <trkpt lat="45.66988" lon="6.85625">
        <ele>2283.3</ele>
        <time>2021-03-26T10:16:51Z</time>
      </trkpt>
      <trkpt lat="45.66988" lon="6.85624">
        <ele>2283.3</ele>
        <time>2021-03-26T10:16:52Z</time>
      </trkpt>
      <trkpt lat="45.66989" lon="6.85624">
        <ele>2283.9</ele>
        <time>2021-03-26T10:16:53Z</time>
      </trkpt>
      <trkpt lat="45.66989" lon="6.85624">
        <ele>2283.9</ele>
        <time>2021-03-26T10:16:54Z</time>
      </trkpt>
      <trkpt lat="45.6699" lon="6.85623">
        <ele>2283.9</ele>
        <time>2021-03-26T10:16:55Z</time>
      </trkpt>
      <trkpt lat="45.6699" lon="6.85623">
        <ele>2283.9</ele>
        <time>2021-03-26T10:16:56Z</time>
      </trkpt>
      <trkpt lat="45.66991" lon="6.85623">
        <ele>2284.7</ele>
        <time>2021-03-26T10:16:57Z</time>
      </trkpt>
      <trkpt lat="45.66991" lon="6.85622">
        <ele>2284.7</ele>
        <time>2021-03-26T10:16:58Z</time>
      </trkpt>
      <trkpt lat="45.66991" lon="6.85622">
        <ele>2284.7</ele>
        <time>2021-03-26T10:16:59Z</time>
      </trkpt>
      <trkpt lat="45.66992" lon="6.85622">
        <ele>2284.7</ele>
        <time>2021-03-26T10:17:00Z</time>
      </trkpt>
      <trkpt lat="45.66992" lon="6.85621">
        <ele>2284.7</ele>
        <time>2021-03-26T10:17:01Z</time>
      </trkpt>
      <trkpt lat="45.66992" lon="6.85621">
        <ele>2284.7</ele>
        <time>2021-03-26T10:17:02Z</time>
      </trkpt>
      <trkpt lat="45.66992" lon="6.8562">
        <ele>2284.7</ele>
        <time>2021-03-26T10:17:03Z</time>
      </trkpt>
      <trkpt lat="45.66991" lon="6.85619">
        <ele>2285.3</ele>
        <time>2021-03-26T10:17:04Z</time>
      </trkpt>
      <trkpt lat="45.66991" lon="6.85618">
        <ele>2285.3</ele>
        <time>2021-03-26T10:17:05Z</time>
      </trkpt>
      <trkpt lat="45.6699" lon="6.85617">
        <ele>2284.5</ele>
        <time>2021-03-26T10:17:06Z</time>
      </trkpt>
      <trkpt lat="45.6699" lon="6.85616">
        <ele>2284.5</ele>
        <time>2021-03-26T10:17:07Z</time>
      </trkpt>
      <trkpt lat="45.66989" lon="6.85615">
        <ele>2285.2</ele>
        <time>2021-03-26T10:17:08Z</time>
      </trkpt>
      <trkpt lat="45.66989" lon="6.85614">
        <ele>2285.2</ele>
        <time>2021-03-26T10:17:09Z</time>
      </trkpt>
      <trkpt lat="45.66989" lon="6.85613">
        <ele>2285.2</ele>
        <time>2021-03-26T10:17:10Z</time>
      </trkpt>
      <trkpt lat="45.66989" lon="6.85613">
        <ele>2285.2</ele>
        <time>2021-03-26T10:17:11Z</time>
      </trkpt>
      <trkpt lat="45.66989" lon="6.85612">
        <ele>2285.2</ele>
        <time>2021-03-26T10:17:12Z</time>
      </trkpt>
      <trkpt lat="45.66988" lon="6.85611">
        <ele>2285.9</ele>
        <time>2021-03-26T10:17:13Z</time>
      </trkpt>
      <trkpt lat="45.66988" lon="6.85611">
        <ele>2285.9</ele>
        <time>2021-03-26T10:17:14Z</time>
      </trkpt>
      <trkpt lat="45.66988" lon="6.8561">
        <ele>2285.9</ele>
        <time>2021-03-26T10:17:15Z</time>
      </trkpt>
      <trkpt lat="45.66988" lon="6.85609">
        <ele>2285.9</ele>
        <time>2021-03-26T10:17:16Z</time>
      </trkpt>
      <trkpt lat="45.66988" lon="6.85608">
        <ele>2285.9</ele>
        <time>2021-03-26T10:17:17Z</time>
      </trkpt>
      <trkpt lat="45.66988" lon="6.85607">
        <ele>2285.9</ele>
        <time>2021-03-26T10:17:18Z</time>
      </trkpt>
      <trkpt lat="45.66988" lon="6.85607">
        <ele>2286.6</ele>
        <time>2021-03-26T10:17:19Z</time>
      </trkpt>
      <trkpt lat="45.66988" lon="6.85606">
        <ele>2286.6</ele>
        <time>2021-03-26T10:17:20Z</time>
      </trkpt>
      <trkpt lat="45.66988" lon="6.85605">
        <ele>2286.6</ele>
        <time>2021-03-26T10:17:21Z</time>
      </trkpt>
      <trkpt lat="45.66988" lon="6.85604">
        <ele>2286.6</ele>
        <time>2021-03-26T10:17:22Z</time>
      </trkpt>
      <trkpt lat="45.66988" lon="6.85603">
        <ele>2286.6</ele>
        <time>2021-03-26T10:17:23Z</time>
      </trkpt>
      <trkpt lat="45.66988" lon="6.85602">
        <ele>2287.2</ele>
        <time>2021-03-26T10:17:24Z</time>
      </trkpt>
      <trkpt lat="45.66988" lon="6.85602">
        <ele>2287.2</ele>
        <time>2021-03-26T10:17:25Z</time>
      </trkpt>
      <trkpt lat="45.66988" lon="6.85601">
        <ele>2287.2</ele>
        <time>2021-03-26T10:17:26Z</time>
      </trkpt>
      <trkpt lat="45.66987" lon="6.856">
        <ele>2286.5</ele>
        <time>2021-03-26T10:17:27Z</time>
      </trkpt>
      <trkpt lat="45.66987" lon="6.85599">
        <ele>2286.5</ele>
        <time>2021-03-26T10:17:28Z</time>
      </trkpt>
      <trkpt lat="45.66987" lon="6.85599">
        <ele>2286.5</ele>
        <time>2021-03-26T10:17:29Z</time>
      </trkpt>
      <trkpt lat="45.66987" lon="6.85598">
        <ele>2287.2</ele>
        <time>2021-03-26T10:17:30Z</time>
      </trkpt>
      <trkpt lat="45.66987" lon="6.85597">
        <ele>2287.2</ele>
        <time>2021-03-26T10:17:31Z</time>
      </trkpt>
      <trkpt lat="45.66986" lon="6.85597">
        <ele>2287.2</ele>
        <time>2021-03-26T10:17:32Z</time>
      </trkpt>
      <trkpt lat="45.66986" lon="6.85596">
        <ele>2287.2</ele>
        <time>2021-03-26T10:17:33Z</time>
      </trkpt>
      <trkpt lat="45.66986" lon="6.85595">
        <ele>2287.2</ele>
        <time>2021-03-26T10:17:34Z</time>
      </trkpt>
      <trkpt lat="45.66986" lon="6.85595">
        <ele>2287.2</ele>
        <time>2021-03-26T10:17:35Z</time>
      </trkpt>
      <trkpt lat="45.66986" lon="6.85594">
        <ele>2287.2</ele>
        <time>2021-03-26T10:17:36Z</time>
      </trkpt>
      <trkpt lat="45.66985" lon="6.85594">
        <ele>2287.9</ele>
        <time>2021-03-26T10:17:37Z</time>
      </trkpt>
      <trkpt lat="45.66985" lon="6.85593">
        <ele>2287.9</ele>
        <time>2021-03-26T10:17:38Z</time>
      </trkpt>
      <trkpt lat="45.66985" lon="6.85592">
        <ele>2287.9</ele>
        <time>2021-03-26T10:17:39Z</time>
      </trkpt>
      <trkpt lat="45.66984" lon="6.85592">
        <ele>2287.3</ele>
        <time>2021-03-26T10:17:40Z</time>
      </trkpt>
      <trkpt lat="45.66984" lon="6.85591">
        <ele>2287.3</ele>
        <time>2021-03-26T10:17:41Z</time>
      </trkpt>
      <trkpt lat="45.66984" lon="6.8559">
        <ele>2287.3</ele>
        <time>2021-03-26T10:17:42Z</time>
      </trkpt>
      <trkpt lat="45.66983" lon="6.8559">
        <ele>2288.1</ele>
        <time>2021-03-26T10:17:43Z</time>
      </trkpt>
      <trkpt lat="45.66983" lon="6.85589">
        <ele>2288.1</ele>
        <time>2021-03-26T10:17:44Z</time>
      </trkpt>
      <trkpt lat="45.66982" lon="6.85588">
        <ele>2288.1</ele>
        <time>2021-03-26T10:17:45Z</time>
      </trkpt>
      <trkpt lat="45.66982" lon="6.85588">
        <ele>2288.1</ele>
        <time>2021-03-26T10:17:46Z</time>
      </trkpt>
      <trkpt lat="45.66982" lon="6.85587">
        <ele>2288.1</ele>
        <time>2021-03-26T10:17:47Z</time>
      </trkpt>
      <trkpt lat="45.66982" lon="6.85586">
        <ele>2288.1</ele>
        <time>2021-03-26T10:17:48Z</time>
      </trkpt>
      <trkpt lat="45.66982" lon="6.85585">
        <ele>2288.9</ele>
        <time>2021-03-26T10:17:49Z</time>
      </trkpt>
      <trkpt lat="45.66982" lon="6.85584">
        <ele>2288.9</ele>
        <time>2021-03-26T10:17:50Z</time>
      </trkpt>
      <trkpt lat="45.66982" lon="6.85583">
        <ele>2288.9</ele>
        <time>2021-03-26T10:17:51Z</time>
      </trkpt>
      <trkpt lat="45.66982" lon="6.85582">
        <ele>2288.9</ele>
        <time>2021-03-26T10:17:52Z</time>
      </trkpt>
      <trkpt lat="45.66982" lon="6.85581">
        <ele>2289.7</ele>
        <time>2021-03-26T10:17:53Z</time>
      </trkpt>
      <trkpt lat="45.66983" lon="6.8558">
        <ele>2289.7</ele>
        <time>2021-03-26T10:17:54Z</time>
      </trkpt>
      <trkpt lat="45.66983" lon="6.85579">
        <ele>2289.7</ele>
        <time>2021-03-26T10:17:55Z</time>
      </trkpt>
      <trkpt lat="45.66983" lon="6.85578">
        <ele>2289.7</ele>
        <time>2021-03-26T10:17:56Z</time>
      </trkpt>
      <trkpt lat="45.66983" lon="6.85578">
        <ele>2289.7</ele>
        <time>2021-03-26T10:17:57Z</time>
      </trkpt>
      <trkpt lat="45.66983" lon="6.85577">
        <ele>2290.6</ele>
        <time>2021-03-26T10:17:58Z</time>
      </trkpt>
      <trkpt lat="45.66983" lon="6.85576">
        <ele>2290.6</ele>
        <time>2021-03-26T10:17:59Z</time>
      </trkpt>
      <trkpt lat="45.66983" lon="6.85575">
        <ele>2290.6</ele>
        <time>2021-03-26T10:18:00Z</time>
      </trkpt>
      <trkpt lat="45.66983" lon="6.85574">
        <ele>2290.6</ele>
        <time>2021-03-26T10:18:01Z</time>
      </trkpt>
      <trkpt lat="45.66983" lon="6.85574">
        <ele>2290.6</ele>
        <time>2021-03-26T10:18:02Z</time>
      </trkpt>
      <trkpt lat="45.66984" lon="6.85573">
        <ele>2290.6</ele>
        <time>2021-03-26T10:18:03Z</time>
      </trkpt>
      <trkpt lat="45.66985" lon="6.85573">
        <ele>2291.2</ele>
        <time>2021-03-26T10:18:04Z</time>
      </trkpt>
      <trkpt lat="45.66986" lon="6.85573">
        <ele>2291.2</ele>
        <time>2021-03-26T10:18:05Z</time>
      </trkpt>
      <trkpt lat="45.66987" lon="6.85573">
        <ele>2291.2</ele>
        <time>2021-03-26T10:18:06Z</time>
      </trkpt>
      <trkpt lat="45.66987" lon="6.85573">
        <ele>2291.2</ele>
        <time>2021-03-26T10:18:07Z</time>
      </trkpt>
      <trkpt lat="45.66988" lon="6.85573">
        <ele>2291.9</ele>
        <time>2021-03-26T10:18:08Z</time>
      </trkpt>
      <trkpt lat="45.66989" lon="6.85573">
        <ele>2291.9</ele>
        <time>2021-03-26T10:18:09Z</time>
      </trkpt>
      <trkpt lat="45.6699" lon="6.85573">
        <ele>2291.9</ele>
        <time>2021-03-26T10:18:10Z</time>
      </trkpt>
      <trkpt lat="45.6699" lon="6.85573">
        <ele>2291.9</ele>
        <time>2021-03-26T10:18:11Z</time>
      </trkpt>
      <trkpt lat="45.66991" lon="6.85572">
        <ele>2293.4</ele>
        <time>2021-03-26T10:18:12Z</time>
      </trkpt>
      <trkpt lat="45.66991" lon="6.85572">
        <ele>2293.4</ele>
        <time>2021-03-26T10:18:13Z</time>
      </trkpt>
      <trkpt lat="45.66992" lon="6.85571">
        <ele>2293.4</ele>
        <time>2021-03-26T10:18:14Z</time>
      </trkpt>
      <trkpt lat="45.66992" lon="6.8557">
        <ele>2293.4</ele>
        <time>2021-03-26T10:18:15Z</time>
      </trkpt>
      <trkpt lat="45.66993" lon="6.85569">
        <ele>2293.4</ele>
        <time>2021-03-26T10:18:16Z</time>
      </trkpt>
      <trkpt lat="45.66993" lon="6.85569">
        <ele>2293.4</ele>
        <time>2021-03-26T10:18:17Z</time>
      </trkpt>
      <trkpt lat="45.66993" lon="6.85568">
        <ele>2294.2</ele>
        <time>2021-03-26T10:18:18Z</time>
      </trkpt>
      <trkpt lat="45.66994" lon="6.85567">
        <ele>2294.9</ele>
        <time>2021-03-26T10:18:19Z</time>
      </trkpt>
      <trkpt lat="45.66994" lon="6.85566">
        <ele>2294.9</ele>
        <time>2021-03-26T10:18:20Z</time>
      </trkpt>
      <trkpt lat="45.66994" lon="6.85566">
        <ele>2294.9</ele>
        <time>2021-03-26T10:18:21Z</time>
      </trkpt>
      <trkpt lat="45.66994" lon="6.85565">
        <ele>2294.9</ele>
        <time>2021-03-26T10:18:22Z</time>
      </trkpt>
      <trkpt lat="45.66995" lon="6.85565">
        <ele>2294.9</ele>
        <time>2021-03-26T10:18:23Z</time>
      </trkpt>
      <trkpt lat="45.66995" lon="6.85564">
        <ele>2295.7</ele>
        <time>2021-03-26T10:18:24Z</time>
      </trkpt>
      <trkpt lat="45.66995" lon="6.85563">
        <ele>2295.7</ele>
        <time>2021-03-26T10:18:25Z</time>
      </trkpt>
      <trkpt lat="45.66995" lon="6.85563">
        <ele>2295.7</ele>
        <time>2021-03-26T10:18:26Z</time>
      </trkpt>
      <trkpt lat="45.66995" lon="6.85562">
        <ele>2295.7</ele>
        <time>2021-03-26T10:18:27Z</time>
      </trkpt>
      <trkpt lat="45.66996" lon="6.85561">
        <ele>2295.7</ele>
        <time>2021-03-26T10:18:28Z</time>
      </trkpt>
      <trkpt lat="45.66996" lon="6.8556">
        <ele>2295.7</ele>
        <time>2021-03-26T10:18:29Z</time>
      </trkpt>
      <trkpt lat="45.66996" lon="6.8556">
        <ele>2296.4</ele>
        <time>2021-03-26T10:18:30Z</time>
      </trkpt>
      <trkpt lat="45.66997" lon="6.85559">
        <ele>2297.2</ele>
        <time>2021-03-26T10:18:31Z</time>
      </trkpt>
      <trkpt lat="45.66997" lon="6.85559">
        <ele>2297.2</ele>
        <time>2021-03-26T10:18:32Z</time>
      </trkpt>
      <trkpt lat="45.66997" lon="6.85558">
        <ele>2297.2</ele>
        <time>2021-03-26T10:18:33Z</time>
      </trkpt>
      <trkpt lat="45.66998" lon="6.85557">
        <ele>2297.2</ele>
        <time>2021-03-26T10:18:34Z</time>
      </trkpt>
      <trkpt lat="45.66998" lon="6.85557">
        <ele>2297.2</ele>
        <time>2021-03-26T10:18:35Z</time>
      </trkpt>
      <trkpt lat="45.66998" lon="6.85556">
        <ele>2297.2</ele>
        <time>2021-03-26T10:18:36Z</time>
      </trkpt>
      <trkpt lat="45.66999" lon="6.85555">
        <ele>2297.9</ele>
        <time>2021-03-26T10:18:37Z</time>
      </trkpt>
      <trkpt lat="45.66999" lon="6.85554">
        <ele>2297.9</ele>
        <time>2021-03-26T10:18:38Z</time>
      </trkpt>
      <trkpt lat="45.66999" lon="6.85553">
        <ele>2297.9</ele>
        <time>2021-03-26T10:18:39Z</time>
      </trkpt>
      <trkpt lat="45.67" lon="6.85553">
        <ele>2298.7</ele>
        <time>2021-03-26T10:18:40Z</time>
      </trkpt>
      <trkpt lat="45.67" lon="6.85552">
        <ele>2298.7</ele>
        <time>2021-03-26T10:18:41Z</time>
      </trkpt>
      <trkpt lat="45.67" lon="6.85552">
        <ele>2298.7</ele>
        <time>2021-03-26T10:18:42Z</time>
      </trkpt>
      <trkpt lat="45.67001" lon="6.85551">
        <ele>2299.5</ele>
        <time>2021-03-26T10:18:43Z</time>
      </trkpt>
      <trkpt lat="45.67001" lon="6.8555">
        <ele>2299.5</ele>
        <time>2021-03-26T10:18:44Z</time>
      </trkpt>
      <trkpt lat="45.67001" lon="6.8555">
        <ele>2299.5</ele>
        <time>2021-03-26T10:18:45Z</time>
      </trkpt>
      <trkpt lat="45.67002" lon="6.85549">
        <ele>2299.5</ele>
        <time>2021-03-26T10:18:46Z</time>
      </trkpt>
      <trkpt lat="45.67002" lon="6.85548">
        <ele>2299.5</ele>
        <time>2021-03-26T10:18:47Z</time>
      </trkpt>
      <trkpt lat="45.67002" lon="6.85548">
        <ele>2299.5</ele>
        <time>2021-03-26T10:18:48Z</time>
      </trkpt>
      <trkpt lat="45.67002" lon="6.85547">
        <ele>2299.5</ele>
        <time>2021-03-26T10:18:49Z</time>
      </trkpt>
      <trkpt lat="45.67002" lon="6.85546">
        <ele>2300.7</ele>
        <time>2021-03-26T10:18:50Z</time>
      </trkpt>
      <trkpt lat="45.67002" lon="6.85546">
        <ele>2300.7</ele>
        <time>2021-03-26T10:18:51Z</time>
      </trkpt>
      <trkpt lat="45.67002" lon="6.85545">
        <ele>2300.7</ele>
        <time>2021-03-26T10:18:52Z</time>
      </trkpt>
      <trkpt lat="45.67003" lon="6.85544">
        <ele>2301.5</ele>
        <time>2021-03-26T10:18:53Z</time>
      </trkpt>
      <trkpt lat="45.67003" lon="6.85544">
        <ele>2301.5</ele>
        <time>2021-03-26T10:18:54Z</time>
      </trkpt>
      <trkpt lat="45.67003" lon="6.85543">
        <ele>2301.5</ele>
        <time>2021-03-26T10:18:55Z</time>
      </trkpt>
      <trkpt lat="45.67003" lon="6.85543">
        <ele>2302.3</ele>
        <time>2021-03-26T10:18:56Z</time>
      </trkpt>
      <trkpt lat="45.67003" lon="6.85542">
        <ele>2302.3</ele>
        <time>2021-03-26T10:18:57Z</time>
      </trkpt>
      <trkpt lat="45.67003" lon="6.85541">
        <ele>2302.3</ele>
        <time>2021-03-26T10:18:58Z</time>
      </trkpt>
      <trkpt lat="45.67003" lon="6.85541">
        <ele>2302.3</ele>
        <time>2021-03-26T10:18:59Z</time>
      </trkpt>
      <trkpt lat="45.67004" lon="6.8554">
        <ele>2302.3</ele>
        <time>2021-03-26T10:19:00Z</time>
      </trkpt>
      <trkpt lat="45.67004" lon="6.85539">
        <ele>2302.3</ele>
        <time>2021-03-26T10:19:01Z</time>
      </trkpt>
      <trkpt lat="45.67005" lon="6.85539">
        <ele>2302.3</ele>
        <time>2021-03-26T10:19:02Z</time>
      </trkpt>
      <trkpt lat="45.67005" lon="6.85538">
        <ele>2303.1</ele>
        <time>2021-03-26T10:19:03Z</time>
      </trkpt>
      <trkpt lat="45.67005" lon="6.85538">
        <ele>2303.1</ele>
        <time>2021-03-26T10:19:04Z</time>
      </trkpt>
      <trkpt lat="45.67006" lon="6.85537">
        <ele>2303.9</ele>
        <time>2021-03-26T10:19:05Z</time>
      </trkpt>
      <trkpt lat="45.67006" lon="6.85537">
        <ele>2303.9</ele>
        <time>2021-03-26T10:19:06Z</time>
      </trkpt>
      <trkpt lat="45.67007" lon="6.85536">
        <ele>2303.9</ele>
        <time>2021-03-26T10:19:07Z</time>
      </trkpt>
      <trkpt lat="45.67007" lon="6.85536">
        <ele>2303.9</ele>
        <time>2021-03-26T10:19:08Z</time>
      </trkpt>
      <trkpt lat="45.67007" lon="6.85535">
        <ele>2303.9</ele>
        <time>2021-03-26T10:19:09Z</time>
      </trkpt>
      <trkpt lat="45.67007" lon="6.85535">
        <ele>2303.9</ele>
        <time>2021-03-26T10:19:10Z</time>
      </trkpt>
      <trkpt lat="45.67008" lon="6.85534">
        <ele>2304.8</ele>
        <time>2021-03-26T10:19:11Z</time>
      </trkpt>
      <trkpt lat="45.67008" lon="6.85533">
        <ele>2304.8</ele>
        <time>2021-03-26T10:19:12Z</time>
      </trkpt>
      <trkpt lat="45.67008" lon="6.85532">
        <ele>2304.8</ele>
        <time>2021-03-26T10:19:13Z</time>
      </trkpt>
      <trkpt lat="45.67008" lon="6.85532">
        <ele>2304.8</ele>
        <time>2021-03-26T10:19:14Z</time>
      </trkpt>
      <trkpt lat="45.67009" lon="6.85531">
        <ele>2305.5</ele>
        <time>2021-03-26T10:19:15Z</time>
      </trkpt>
      <trkpt lat="45.67009" lon="6.8553">
        <ele>2306.4</ele>
        <time>2021-03-26T10:19:16Z</time>
      </trkpt>
      <trkpt lat="45.67009" lon="6.85529">
        <ele>2306.4</ele>
        <time>2021-03-26T10:19:17Z</time>
      </trkpt>
      <trkpt lat="45.6701" lon="6.85528">
        <ele>2306.4</ele>
        <time>2021-03-26T10:19:18Z</time>
      </trkpt>
      <trkpt lat="45.6701" lon="6.85527">
        <ele>2306.4</ele>
        <time>2021-03-26T10:19:19Z</time>
      </trkpt>
      <trkpt lat="45.6701" lon="6.85527">
        <ele>2306.4</ele>
        <time>2021-03-26T10:19:20Z</time>
      </trkpt>
      <trkpt lat="45.67011" lon="6.85526">
        <ele>2306.4</ele>
        <time>2021-03-26T10:19:21Z</time>
      </trkpt>
      <trkpt lat="45.67011" lon="6.85525">
        <ele>2307.3</ele>
        <time>2021-03-26T10:19:22Z</time>
      </trkpt>
      <trkpt lat="45.67012" lon="6.85524">
        <ele>2308</ele>
        <time>2021-03-26T10:19:23Z</time>
      </trkpt>
      <trkpt lat="45.67012" lon="6.85523">
        <ele>2308</ele>
        <time>2021-03-26T10:19:24Z</time>
      </trkpt>
      <trkpt lat="45.67013" lon="6.85522">
        <ele>2308</ele>
        <time>2021-03-26T10:19:25Z</time>
      </trkpt>
      <trkpt lat="45.67013" lon="6.85522">
        <ele>2308</ele>
        <time>2021-03-26T10:19:26Z</time>
      </trkpt>
      <trkpt lat="45.67014" lon="6.85521">
        <ele>2308.8</ele>
        <time>2021-03-26T10:19:27Z</time>
      </trkpt>
      <trkpt lat="45.67014" lon="6.8552">
        <ele>2308.8</ele>
        <time>2021-03-26T10:19:28Z</time>
      </trkpt>
      <trkpt lat="45.67015" lon="6.8552">
        <ele>2309.5</ele>
        <time>2021-03-26T10:19:29Z</time>
      </trkpt>
      <trkpt lat="45.67015" lon="6.85519">
        <ele>2309.5</ele>
        <time>2021-03-26T10:19:30Z</time>
      </trkpt>
      <trkpt lat="45.67016" lon="6.85518">
        <ele>2309.5</ele>
        <time>2021-03-26T10:19:31Z</time>
      </trkpt>
      <trkpt lat="45.67016" lon="6.85518">
        <ele>2309.5</ele>
        <time>2021-03-26T10:19:32Z</time>
      </trkpt>
      <trkpt lat="45.67016" lon="6.85517">
        <ele>2309.5</ele>
        <time>2021-03-26T10:19:33Z</time>
      </trkpt>
      <trkpt lat="45.67016" lon="6.85517">
        <ele>2310.3</ele>
        <time>2021-03-26T10:19:34Z</time>
      </trkpt>
      <trkpt lat="45.67016" lon="6.85516">
        <ele>2310.3</ele>
        <time>2021-03-26T10:19:35Z</time>
      </trkpt>
      <trkpt lat="45.67017" lon="6.85515">
        <ele>2310.3</ele>
        <time>2021-03-26T10:19:36Z</time>
      </trkpt>
      <trkpt lat="45.67017" lon="6.85514">
        <ele>2310.3</ele>
        <time>2021-03-26T10:19:37Z</time>
      </trkpt>
      <trkpt lat="45.67017" lon="6.85514">
        <ele>2310.3</ele>
        <time>2021-03-26T10:19:38Z</time>
      </trkpt>
      <trkpt lat="45.67017" lon="6.85513">
        <ele>2310.3</ele>
        <time>2021-03-26T10:19:39Z</time>
      </trkpt>
      <trkpt lat="45.67018" lon="6.85512">
        <ele>2311.9</ele>
        <time>2021-03-26T10:19:40Z</time>
      </trkpt>
      <trkpt lat="45.67018" lon="6.85512">
        <ele>2311.9</ele>
        <time>2021-03-26T10:19:41Z</time>
      </trkpt>
      <trkpt lat="45.67018" lon="6.85511">
        <ele>2311.9</ele>
        <time>2021-03-26T10:19:42Z</time>
      </trkpt>
      <trkpt lat="45.67019" lon="6.8551">
        <ele>2311.9</ele>
        <time>2021-03-26T10:19:43Z</time>
      </trkpt>
      <trkpt lat="45.67019" lon="6.85509">
        <ele>2311.9</ele>
        <time>2021-03-26T10:19:44Z</time>
      </trkpt>
      <trkpt lat="45.67019" lon="6.85508">
        <ele>2312.7</ele>
        <time>2021-03-26T10:19:45Z</time>
      </trkpt>
      <trkpt lat="45.6702" lon="6.85507">
        <ele>2312.7</ele>
        <time>2021-03-26T10:19:46Z</time>
      </trkpt>
      <trkpt lat="45.6702" lon="6.85506">
        <ele>2312.7</ele>
        <time>2021-03-26T10:19:47Z</time>
      </trkpt>
      <trkpt lat="45.6702" lon="6.85506">
        <ele>2312.7</ele>
        <time>2021-03-26T10:19:48Z</time>
      </trkpt>
      <trkpt lat="45.6702" lon="6.85505">
        <ele>2312.7</ele>
        <time>2021-03-26T10:19:49Z</time>
      </trkpt>
      <trkpt lat="45.67021" lon="6.85504">
        <ele>2313.5</ele>
        <time>2021-03-26T10:19:50Z</time>
      </trkpt>
      <trkpt lat="45.67021" lon="6.85504">
        <ele>2314.4</ele>
        <time>2021-03-26T10:19:51Z</time>
      </trkpt>
      <trkpt lat="45.67022" lon="6.85503">
        <ele>2314.4</ele>
        <time>2021-03-26T10:19:52Z</time>
      </trkpt>
      <trkpt lat="45.67022" lon="6.85503">
        <ele>2314.4</ele>
        <time>2021-03-26T10:19:53Z</time>
      </trkpt>
      <trkpt lat="45.67023" lon="6.85502">
        <ele>2314.4</ele>
        <time>2021-03-26T10:19:54Z</time>
      </trkpt>
      <trkpt lat="45.67024" lon="6.85502">
        <ele>2315.1</ele>
        <time>2021-03-26T10:19:55Z</time>
      </trkpt>
      <trkpt lat="45.67024" lon="6.85502">
        <ele>2315.1</ele>
        <time>2021-03-26T10:19:56Z</time>
      </trkpt>
      <trkpt lat="45.67025" lon="6.85502">
        <ele>2315.1</ele>
        <time>2021-03-26T10:19:57Z</time>
      </trkpt>
      <trkpt lat="45.67025" lon="6.85502">
        <ele>2315.1</ele>
        <time>2021-03-26T10:19:58Z</time>
      </trkpt>
      <trkpt lat="45.67026" lon="6.85501">
        <ele>2315.1</ele>
        <time>2021-03-26T10:19:59Z</time>
      </trkpt>
      <trkpt lat="45.67027" lon="6.85501">
        <ele>2315.9</ele>
        <time>2021-03-26T10:20:00Z</time>
      </trkpt>
      <trkpt lat="45.67027" lon="6.85501">
        <ele>2315.9</ele>
        <time>2021-03-26T10:20:01Z</time>
      </trkpt>
      <trkpt lat="45.67028" lon="6.85501">
        <ele>2315.9</ele>
        <time>2021-03-26T10:20:02Z</time>
      </trkpt>
      <trkpt lat="45.67028" lon="6.85501">
        <ele>2315.9</ele>
        <time>2021-03-26T10:20:03Z</time>
      </trkpt>
      <trkpt lat="45.67029" lon="6.85501">
        <ele>2315.9</ele>
        <time>2021-03-26T10:20:04Z</time>
      </trkpt>
      <trkpt lat="45.67029" lon="6.85501">
        <ele>2315.9</ele>
        <time>2021-03-26T10:20:05Z</time>
      </trkpt>
      <trkpt lat="45.6703" lon="6.855">
        <ele>2316.8</ele>
        <time>2021-03-26T10:20:06Z</time>
      </trkpt>
      <trkpt lat="45.6703" lon="6.855">
        <ele>2316.8</ele>
        <time>2021-03-26T10:20:07Z</time>
      </trkpt>
      <trkpt lat="45.67031" lon="6.855">
        <ele>2317.7</ele>
        <time>2021-03-26T10:20:08Z</time>
      </trkpt>
      <trkpt lat="45.67031" lon="6.85499">
        <ele>2317.7</ele>
        <time>2021-03-26T10:20:09Z</time>
      </trkpt>
      <trkpt lat="45.67031" lon="6.85499">
        <ele>2317.7</ele>
        <time>2021-03-26T10:20:10Z</time>
      </trkpt>
      <trkpt lat="45.67031" lon="6.85499">
        <ele>2317.7</ele>
        <time>2021-03-26T10:20:11Z</time>
      </trkpt>
      <trkpt lat="45.67031" lon="6.85499">
        <ele>2317.7</ele>
        <time>2021-03-26T10:20:12Z</time>
      </trkpt>
      <trkpt lat="45.67032" lon="6.85498">
        <ele>2317.7</ele>
        <time>2021-03-26T10:20:13Z</time>
      </trkpt>
      <trkpt lat="45.67032" lon="6.85498">
        <ele>2317.7</ele>
        <time>2021-03-26T10:20:14Z</time>
      </trkpt>
      <trkpt lat="45.67033" lon="6.85497">
        <ele>2318.6</ele>
        <time>2021-03-26T10:20:15Z</time>
      </trkpt>
      <trkpt lat="45.67033" lon="6.85497">
        <ele>2318.6</ele>
        <time>2021-03-26T10:20:16Z</time>
      </trkpt>
      <trkpt lat="45.67033" lon="6.85496">
        <ele>2318.6</ele>
        <time>2021-03-26T10:20:17Z</time>
      </trkpt>
      <trkpt lat="45.67034" lon="6.85496">
        <ele>2318.6</ele>
        <time>2021-03-26T10:20:18Z</time>
      </trkpt>
      <trkpt lat="45.67034" lon="6.85495">
        <ele>2319.6</ele>
        <time>2021-03-26T10:20:19Z</time>
      </trkpt>
      <trkpt lat="45.67035" lon="6.85494">
        <ele>2319.6</ele>
        <time>2021-03-26T10:20:20Z</time>
      </trkpt>
      <trkpt lat="45.67035" lon="6.85494">
        <ele>2319.6</ele>
        <time>2021-03-26T10:20:21Z</time>
      </trkpt>
      <trkpt lat="45.67036" lon="6.85493">
        <ele>2320.4</ele>
        <time>2021-03-26T10:20:22Z</time>
      </trkpt>
      <trkpt lat="45.67036" lon="6.85492">
        <ele>2320.4</ele>
        <time>2021-03-26T10:20:23Z</time>
      </trkpt>
      <trkpt lat="45.67037" lon="6.85492">
        <ele>2320.4</ele>
        <time>2021-03-26T10:20:24Z</time>
      </trkpt>
      <trkpt lat="45.67037" lon="6.85491">
        <ele>2321.4</ele>
        <time>2021-03-26T10:20:25Z</time>
      </trkpt>
      <trkpt lat="45.67037" lon="6.8549">
        <ele>2321.4</ele>
        <time>2021-03-26T10:20:26Z</time>
      </trkpt>
      <trkpt lat="45.67038" lon="6.85489">
        <ele>2321.4</ele>
        <time>2021-03-26T10:20:27Z</time>
      </trkpt>
      <trkpt lat="45.67038" lon="6.85489">
        <ele>2321.4</ele>
        <time>2021-03-26T10:20:28Z</time>
      </trkpt>
      <trkpt lat="45.67038" lon="6.85488">
        <ele>2321.4</ele>
        <time>2021-03-26T10:20:29Z</time>
      </trkpt>
      <trkpt lat="45.67039" lon="6.85487">
        <ele>2322.2</ele>
        <time>2021-03-26T10:20:30Z</time>
      </trkpt>
      <trkpt lat="45.67039" lon="6.85487">
        <ele>2323.3</ele>
        <time>2021-03-26T10:20:31Z</time>
      </trkpt>
      <trkpt lat="45.67039" lon="6.85486">
        <ele>2323.3</ele>
        <time>2021-03-26T10:20:32Z</time>
      </trkpt>
      <trkpt lat="45.6704" lon="6.85485">
        <ele>2323.3</ele>
        <time>2021-03-26T10:20:33Z</time>
      </trkpt>
      <trkpt lat="45.6704" lon="6.85485">
        <ele>2323.3</ele>
        <time>2021-03-26T10:20:34Z</time>
      </trkpt>
      <trkpt lat="45.6704" lon="6.85484">
        <ele>2323.3</ele>
        <time>2021-03-26T10:20:35Z</time>
      </trkpt>
      <trkpt lat="45.6704" lon="6.85483">
        <ele>2323.3</ele>
        <time>2021-03-26T10:20:36Z</time>
      </trkpt>
      <trkpt lat="45.67041" lon="6.85482">
        <ele>2324.3</ele>
        <time>2021-03-26T10:20:37Z</time>
      </trkpt>
      <trkpt lat="45.67041" lon="6.85482">
        <ele>2324.3</ele>
        <time>2021-03-26T10:20:38Z</time>
      </trkpt>
      <trkpt lat="45.67041" lon="6.85481">
        <ele>2324.3</ele>
        <time>2021-03-26T10:20:39Z</time>
      </trkpt>
      <trkpt lat="45.67041" lon="6.85481">
        <ele>2324.3</ele>
        <time>2021-03-26T10:20:40Z</time>
      </trkpt>
      <trkpt lat="45.67042" lon="6.8548">
        <ele>2325</ele>
        <time>2021-03-26T10:20:41Z</time>
      </trkpt>
      <trkpt lat="45.67043" lon="6.85479">
        <ele>2325</ele>
        <time>2021-03-26T10:20:42Z</time>
      </trkpt>
      <trkpt lat="45.67043" lon="6.85478">
        <ele>2325</ele>
        <time>2021-03-26T10:20:43Z</time>
      </trkpt>
      <trkpt lat="45.67043" lon="6.85477">
        <ele>2326.1</ele>
        <time>2021-03-26T10:20:44Z</time>
      </trkpt>
      <trkpt lat="45.67044" lon="6.85477">
        <ele>2326.1</ele>
        <time>2021-03-26T10:20:45Z</time>
      </trkpt>
      <trkpt lat="45.67044" lon="6.85476">
        <ele>2326.1</ele>
        <time>2021-03-26T10:20:46Z</time>
      </trkpt>
      <trkpt lat="45.67044" lon="6.85475">
        <ele>2326.1</ele>
        <time>2021-03-26T10:20:47Z</time>
      </trkpt>
      <trkpt lat="45.67045" lon="6.85474">
        <ele>2326.8</ele>
        <time>2021-03-26T10:20:48Z</time>
      </trkpt>
      <trkpt lat="45.67045" lon="6.85474">
        <ele>2327.8</ele>
        <time>2021-03-26T10:20:49Z</time>
      </trkpt>
      <trkpt lat="45.67045" lon="6.85473">
        <ele>2327.8</ele>
        <time>2021-03-26T10:20:50Z</time>
      </trkpt>
      <trkpt lat="45.67046" lon="6.85472">
        <ele>2327.8</ele>
        <time>2021-03-26T10:20:51Z</time>
      </trkpt>
      <trkpt lat="45.67046" lon="6.85472">
        <ele>2327.8</ele>
        <time>2021-03-26T10:20:52Z</time>
      </trkpt>
      <trkpt lat="45.67046" lon="6.85471">
        <ele>2327.8</ele>
        <time>2021-03-26T10:20:53Z</time>
      </trkpt>
      <trkpt lat="45.67046" lon="6.8547">
        <ele>2327.8</ele>
        <time>2021-03-26T10:20:54Z</time>
      </trkpt>
      <trkpt lat="45.67047" lon="6.85469">
        <ele>2328.8</ele>
        <time>2021-03-26T10:20:55Z</time>
      </trkpt>
      <trkpt lat="45.67047" lon="6.85468">
        <ele>2328.8</ele>
        <time>2021-03-26T10:20:56Z</time>
      </trkpt>
      <trkpt lat="45.67047" lon="6.85467">
        <ele>2328.8</ele>
        <time>2021-03-26T10:20:57Z</time>
      </trkpt>
      <trkpt lat="45.67047" lon="6.85467">
        <ele>2328.8</ele>
        <time>2021-03-26T10:20:58Z</time>
      </trkpt>
      <trkpt lat="45.67047" lon="6.85466">
        <ele>2328.8</ele>
        <time>2021-03-26T10:20:59Z</time>
      </trkpt>
      <trkpt lat="45.67047" lon="6.85465">
        <ele>2329.7</ele>
        <time>2021-03-26T10:21:00Z</time>
      </trkpt>
      <trkpt lat="45.67047" lon="6.85465">
        <ele>2329.7</ele>
        <time>2021-03-26T10:21:01Z</time>
      </trkpt>
      <trkpt lat="45.67047" lon="6.85464">
        <ele>2329.7</ele>
        <time>2021-03-26T10:21:02Z</time>
      </trkpt>
      <trkpt lat="45.67048" lon="6.85463">
        <ele>2330.4</ele>
        <time>2021-03-26T10:21:03Z</time>
      </trkpt>
      <trkpt lat="45.67048" lon="6.85462">
        <ele>2330.4</ele>
        <time>2021-03-26T10:21:04Z</time>
      </trkpt>
      <trkpt lat="45.67048" lon="6.85461">
        <ele>2330.4</ele>
        <time>2021-03-26T10:21:05Z</time>
      </trkpt>
      <trkpt lat="45.67048" lon="6.85461">
        <ele>2331.3</ele>
        <time>2021-03-26T10:21:06Z</time>
      </trkpt>
      <trkpt lat="45.67048" lon="6.8546">
        <ele>2331.3</ele>
        <time>2021-03-26T10:21:07Z</time>
      </trkpt>
      <trkpt lat="45.67049" lon="6.85459">
        <ele>2331.3</ele>
        <time>2021-03-26T10:21:08Z</time>
      </trkpt>
      <trkpt lat="45.67049" lon="6.85459">
        <ele>2331.3</ele>
        <time>2021-03-26T10:21:09Z</time>
      </trkpt>
      <trkpt lat="45.67049" lon="6.85458">
        <ele>2331.3</ele>
        <time>2021-03-26T10:21:10Z</time>
      </trkpt>
      <trkpt lat="45.67049" lon="6.85457">
        <ele>2331.3</ele>
        <time>2021-03-26T10:21:11Z</time>
      </trkpt>
      <trkpt lat="45.6705" lon="6.85456">
        <ele>2332.3</ele>
        <time>2021-03-26T10:21:12Z</time>
      </trkpt>
      <trkpt lat="45.6705" lon="6.85456">
        <ele>2332.3</ele>
        <time>2021-03-26T10:21:13Z</time>
      </trkpt>
      <trkpt lat="45.6705" lon="6.85455">
        <ele>2332.3</ele>
        <time>2021-03-26T10:21:14Z</time>
      </trkpt>
      <trkpt lat="45.6705" lon="6.85454">
        <ele>2332.3</ele>
        <time>2021-03-26T10:21:15Z</time>
      </trkpt>
      <trkpt lat="45.6705" lon="6.85453">
        <ele>2332.3</ele>
        <time>2021-03-26T10:21:16Z</time>
      </trkpt>
      <trkpt lat="45.67051" lon="6.85452">
        <ele>2333.9</ele>
        <time>2021-03-26T10:21:17Z</time>
      </trkpt>
      <trkpt lat="45.67051" lon="6.85451">
        <ele>2333.9</ele>
        <time>2021-03-26T10:21:18Z</time>
      </trkpt>
      <trkpt lat="45.67051" lon="6.85451">
        <ele>2333.9</ele>
        <time>2021-03-26T10:21:19Z</time>
      </trkpt>
      <trkpt lat="45.67052" lon="6.8545">
        <ele>2333.9</ele>
        <time>2021-03-26T10:21:20Z</time>
      </trkpt>
      <trkpt lat="45.67052" lon="6.85449">
        <ele>2333.9</ele>
        <time>2021-03-26T10:21:21Z</time>
      </trkpt>
      <trkpt lat="45.67053" lon="6.85448">
        <ele>2333.9</ele>
        <time>2021-03-26T10:21:22Z</time>
      </trkpt>
      <trkpt lat="45.67053" lon="6.85448">
        <ele>2335</ele>
        <time>2021-03-26T10:21:23Z</time>
      </trkpt>
      <trkpt lat="45.67053" lon="6.85447">
        <ele>2335</ele>
        <time>2021-03-26T10:21:24Z</time>
      </trkpt>
      <trkpt lat="45.67053" lon="6.85446">
        <ele>2335</ele>
        <time>2021-03-26T10:21:25Z</time>
      </trkpt>
      <trkpt lat="45.67054" lon="6.85446">
        <ele>2335.7</ele>
        <time>2021-03-26T10:21:26Z</time>
      </trkpt>
      <trkpt lat="45.67054" lon="6.85445">
        <ele>2335.7</ele>
        <time>2021-03-26T10:21:27Z</time>
      </trkpt>
      <trkpt lat="45.67054" lon="6.85445">
        <ele>2335.7</ele>
        <time>2021-03-26T10:21:28Z</time>
      </trkpt>
      <trkpt lat="45.67055" lon="6.85445">
        <ele>2335.7</ele>
        <time>2021-03-26T10:21:29Z</time>
      </trkpt>
      <trkpt lat="45.67055" lon="6.85444">
        <ele>2335.7</ele>
        <time>2021-03-26T10:21:30Z</time>
      </trkpt>
      <trkpt lat="45.67055" lon="6.85444">
        <ele>2336.7</ele>
        <time>2021-03-26T10:21:31Z</time>
      </trkpt>
      <trkpt lat="45.67056" lon="6.85443">
        <ele>2336.7</ele>
        <time>2021-03-26T10:21:32Z</time>
      </trkpt>
      <trkpt lat="45.67056" lon="6.85442">
        <ele>2336.7</ele>
        <time>2021-03-26T10:21:33Z</time>
      </trkpt>
      <trkpt lat="45.67056" lon="6.85442">
        <ele>2336.7</ele>
        <time>2021-03-26T10:21:34Z</time>
      </trkpt>
      <trkpt lat="45.67056" lon="6.85441">
        <ele>2336.7</ele>
        <time>2021-03-26T10:21:35Z</time>
      </trkpt>
      <trkpt lat="45.67056" lon="6.85441">
        <ele>2336.7</ele>
        <time>2021-03-26T10:21:36Z</time>
      </trkpt>
      <trkpt lat="45.67057" lon="6.8544">
        <ele>2337.4</ele>
        <time>2021-03-26T10:21:37Z</time>
      </trkpt>
      <trkpt lat="45.67057" lon="6.85439">
        <ele>2338.3</ele>
        <time>2021-03-26T10:21:38Z</time>
      </trkpt>
      <trkpt lat="45.67057" lon="6.85439">
        <ele>2338.3</ele>
        <time>2021-03-26T10:21:39Z</time>
      </trkpt>
      <trkpt lat="45.67057" lon="6.85438">
        <ele>2338.3</ele>
        <time>2021-03-26T10:21:40Z</time>
      </trkpt>
      <trkpt lat="45.67057" lon="6.85437">
        <ele>2338.3</ele>
        <time>2021-03-26T10:21:41Z</time>
      </trkpt>
      <trkpt lat="45.67058" lon="6.85437">
        <ele>2338.3</ele>
        <time>2021-03-26T10:21:42Z</time>
      </trkpt>
      <trkpt lat="45.67058" lon="6.85436">
        <ele>2338.3</ele>
        <time>2021-03-26T10:21:43Z</time>
      </trkpt>
      <trkpt lat="45.67058" lon="6.85436">
        <ele>2338.3</ele>
        <time>2021-03-26T10:21:44Z</time>
      </trkpt>
      <trkpt lat="45.67058" lon="6.85435">
        <ele>2339.3</ele>
        <time>2021-03-26T10:21:45Z</time>
      </trkpt>
      <trkpt lat="45.67059" lon="6.85434">
        <ele>2339.3</ele>
        <time>2021-03-26T10:21:46Z</time>
      </trkpt>
      <trkpt lat="45.67059" lon="6.85433">
        <ele>2339.3</ele>
        <time>2021-03-26T10:21:47Z</time>
      </trkpt>
      <trkpt lat="45.67059" lon="6.85432">
        <ele>2339.3</ele>
        <time>2021-03-26T10:21:48Z</time>
      </trkpt>
      <trkpt lat="45.6706" lon="6.85431">
        <ele>2339.9</ele>
        <time>2021-03-26T10:21:49Z</time>
      </trkpt>
      <trkpt lat="45.6706" lon="6.85431">
        <ele>2340.9</ele>
        <time>2021-03-26T10:21:50Z</time>
      </trkpt>
      <trkpt lat="45.6706" lon="6.8543">
        <ele>2340.9</ele>
        <time>2021-03-26T10:21:51Z</time>
      </trkpt>
      <trkpt lat="45.67061" lon="6.85429">
        <ele>2340.9</ele>
        <time>2021-03-26T10:21:52Z</time>
      </trkpt>
      <trkpt lat="45.67061" lon="6.85428">
        <ele>2340.9</ele>
        <time>2021-03-26T10:21:53Z</time>
      </trkpt>
      <trkpt lat="45.67061" lon="6.85427">
        <ele>2340.9</ele>
        <time>2021-03-26T10:21:54Z</time>
      </trkpt>
      <trkpt lat="45.67062" lon="6.85427">
        <ele>2341.8</ele>
        <time>2021-03-26T10:21:55Z</time>
      </trkpt>
      <trkpt lat="45.67062" lon="6.85426">
        <ele>2341.8</ele>
        <time>2021-03-26T10:21:56Z</time>
      </trkpt>
      <trkpt lat="45.67062" lon="6.85425">
        <ele>2341.8</ele>
        <time>2021-03-26T10:21:57Z</time>
      </trkpt>
      <trkpt lat="45.67062" lon="6.85425">
        <ele>2341.8</ele>
        <time>2021-03-26T10:21:58Z</time>
      </trkpt>
      <trkpt lat="45.67062" lon="6.85424">
        <ele>2341.8</ele>
        <time>2021-03-26T10:21:59Z</time>
      </trkpt>
      <trkpt lat="45.67063" lon="6.85423">
        <ele>2342.3</ele>
        <time>2021-03-26T10:22:00Z</time>
      </trkpt>
      <trkpt lat="45.67063" lon="6.85422">
        <ele>2343.2</ele>
        <time>2021-03-26T10:22:01Z</time>
      </trkpt>
      <trkpt lat="45.67063" lon="6.85422">
        <ele>2343.2</ele>
        <time>2021-03-26T10:22:02Z</time>
      </trkpt>
      <trkpt lat="45.67064" lon="6.85421">
        <ele>2343.2</ele>
        <time>2021-03-26T10:22:03Z</time>
      </trkpt>
      <trkpt lat="45.67064" lon="6.8542">
        <ele>2343.2</ele>
        <time>2021-03-26T10:22:04Z</time>
      </trkpt>
      <trkpt lat="45.67065" lon="6.8542">
        <ele>2343.2</ele>
        <time>2021-03-26T10:22:05Z</time>
      </trkpt>
      <trkpt lat="45.67065" lon="6.85419">
        <ele>2343.2</ele>
        <time>2021-03-26T10:22:06Z</time>
      </trkpt>
      <trkpt lat="45.67065" lon="6.85418">
        <ele>2343.2</ele>
        <time>2021-03-26T10:22:07Z</time>
      </trkpt>
      <trkpt lat="45.67066" lon="6.85418">
        <ele>2344.6</ele>
        <time>2021-03-26T10:22:08Z</time>
      </trkpt>
      <trkpt lat="45.67066" lon="6.85417">
        <ele>2344.6</ele>
        <time>2021-03-26T10:22:09Z</time>
      </trkpt>
      <trkpt lat="45.67066" lon="6.85417">
        <ele>2344.6</ele>
        <time>2021-03-26T10:22:10Z</time>
      </trkpt>
      <trkpt lat="45.67066" lon="6.85416">
        <ele>2344.6</ele>
        <time>2021-03-26T10:22:11Z</time>
      </trkpt>
      <trkpt lat="45.67067" lon="6.85415">
        <ele>2344.6</ele>
        <time>2021-03-26T10:22:12Z</time>
      </trkpt>
      <trkpt lat="45.67067" lon="6.85415">
        <ele>2344.6</ele>
        <time>2021-03-26T10:22:13Z</time>
      </trkpt>
      <trkpt lat="45.67067" lon="6.85414">
        <ele>2344.6</ele>
        <time>2021-03-26T10:22:14Z</time>
      </trkpt>
      <trkpt lat="45.67067" lon="6.85413">
        <ele>2345.6</ele>
        <time>2021-03-26T10:22:15Z</time>
      </trkpt>
      <trkpt lat="45.67068" lon="6.85412">
        <ele>2345.6</ele>
        <time>2021-03-26T10:22:16Z</time>
      </trkpt>
      <trkpt lat="45.67068" lon="6.85412">
        <ele>2345.6</ele>
        <time>2021-03-26T10:22:17Z</time>
      </trkpt>
      <trkpt lat="45.67068" lon="6.85411">
        <ele>2345.6</ele>
        <time>2021-03-26T10:22:18Z</time>
      </trkpt>
      <trkpt lat="45.67069" lon="6.8541">
        <ele>2345.9</ele>
        <time>2021-03-26T10:22:19Z</time>
      </trkpt>
      <trkpt lat="45.67069" lon="6.85409">
        <ele>2347</ele>
        <time>2021-03-26T10:22:20Z</time>
      </trkpt>
      <trkpt lat="45.67069" lon="6.85408">
        <ele>2347</ele>
        <time>2021-03-26T10:22:21Z</time>
      </trkpt>
      <trkpt lat="45.67069" lon="6.85408">
        <ele>2347</ele>
        <time>2021-03-26T10:22:22Z</time>
      </trkpt>
      <trkpt lat="45.6707" lon="6.85407">
        <ele>2347</ele>
        <time>2021-03-26T10:22:23Z</time>
      </trkpt>
      <trkpt lat="45.6707" lon="6.85406">
        <ele>2347</ele>
        <time>2021-03-26T10:22:24Z</time>
      </trkpt>
      <trkpt lat="45.6707" lon="6.85406">
        <ele>2347</ele>
        <time>2021-03-26T10:22:25Z</time>
      </trkpt>
      <trkpt lat="45.67071" lon="6.85405">
        <ele>2348.1</ele>
        <time>2021-03-26T10:22:26Z</time>
      </trkpt>
      <trkpt lat="45.67071" lon="6.85404">
        <ele>2348.1</ele>
        <time>2021-03-26T10:22:27Z</time>
      </trkpt>
      <trkpt lat="45.67071" lon="6.85404">
        <ele>2348.1</ele>
        <time>2021-03-26T10:22:28Z</time>
      </trkpt>
      <trkpt lat="45.67072" lon="6.85403">
        <ele>2348.3</ele>
        <time>2021-03-26T10:22:29Z</time>
      </trkpt>
      <trkpt lat="45.67072" lon="6.85403">
        <ele>2348.3</ele>
        <time>2021-03-26T10:22:30Z</time>
      </trkpt>
      <trkpt lat="45.67072" lon="6.85402">
        <ele>2348.3</ele>
        <time>2021-03-26T10:22:31Z</time>
      </trkpt>
      <trkpt lat="45.67073" lon="6.85402">
        <ele>2348.3</ele>
        <time>2021-03-26T10:22:32Z</time>
      </trkpt>
      <trkpt lat="45.67073" lon="6.85401">
        <ele>2348.3</ele>
        <time>2021-03-26T10:22:33Z</time>
      </trkpt>
      <trkpt lat="45.67074" lon="6.85401">
        <ele>2349.5</ele>
        <time>2021-03-26T10:22:34Z</time>
      </trkpt>
      <trkpt lat="45.67074" lon="6.854">
        <ele>2349.5</ele>
        <time>2021-03-26T10:22:35Z</time>
      </trkpt>
      <trkpt lat="45.67074" lon="6.85399">
        <ele>2349.5</ele>
        <time>2021-03-26T10:22:36Z</time>
      </trkpt>
      <trkpt lat="45.67074" lon="6.85399">
        <ele>2349.5</ele>
        <time>2021-03-26T10:22:37Z</time>
      </trkpt>
      <trkpt lat="45.67075" lon="6.85398">
        <ele>2349.8</ele>
        <time>2021-03-26T10:22:38Z</time>
      </trkpt>
      <trkpt lat="45.67075" lon="6.85397">
        <ele>2349.8</ele>
        <time>2021-03-26T10:22:39Z</time>
      </trkpt>
      <trkpt lat="45.67075" lon="6.85396">
        <ele>2350.9</ele>
        <time>2021-03-26T10:22:40Z</time>
      </trkpt>
      <trkpt lat="45.67076" lon="6.85395">
        <ele>2350.9</ele>
        <time>2021-03-26T10:22:41Z</time>
      </trkpt>
      <trkpt lat="45.67076" lon="6.85394">
        <ele>2350.9</ele>
        <time>2021-03-26T10:22:42Z</time>
      </trkpt>
      <trkpt lat="45.67076" lon="6.85393">
        <ele>2350.9</ele>
        <time>2021-03-26T10:22:43Z</time>
      </trkpt>
      <trkpt lat="45.67077" lon="6.85393">
        <ele>2350.9</ele>
        <time>2021-03-26T10:22:44Z</time>
      </trkpt>
      <trkpt lat="45.67077" lon="6.85392">
        <ele>2352</ele>
        <time>2021-03-26T10:22:45Z</time>
      </trkpt>
      <trkpt lat="45.67077" lon="6.85391">
        <ele>2352</ele>
        <time>2021-03-26T10:22:46Z</time>
      </trkpt>
      <trkpt lat="45.67078" lon="6.8539">
        <ele>2352.3</ele>
        <time>2021-03-26T10:22:47Z</time>
      </trkpt>
      <trkpt lat="45.67078" lon="6.8539">
        <ele>2352.3</ele>
        <time>2021-03-26T10:22:48Z</time>
      </trkpt>
      <trkpt lat="45.67078" lon="6.85389">
        <ele>2352.3</ele>
        <time>2021-03-26T10:22:49Z</time>
      </trkpt>
      <trkpt lat="45.67079" lon="6.85389">
        <ele>2352.3</ele>
        <time>2021-03-26T10:22:50Z</time>
      </trkpt>
      <trkpt lat="45.67079" lon="6.85388">
        <ele>2353.4</ele>
        <time>2021-03-26T10:22:51Z</time>
      </trkpt>
      <trkpt lat="45.67079" lon="6.85388">
        <ele>2353.4</ele>
        <time>2021-03-26T10:22:52Z</time>
      </trkpt>
      <trkpt lat="45.6708" lon="6.85387">
        <ele>2353.4</ele>
        <time>2021-03-26T10:22:53Z</time>
      </trkpt>
      <trkpt lat="45.6708" lon="6.85387">
        <ele>2353.4</ele>
        <time>2021-03-26T10:22:54Z</time>
      </trkpt>
      <trkpt lat="45.67081" lon="6.85386">
        <ele>2353.6</ele>
        <time>2021-03-26T10:22:55Z</time>
      </trkpt>
      <trkpt lat="45.67081" lon="6.85386">
        <ele>2353.6</ele>
        <time>2021-03-26T10:22:56Z</time>
      </trkpt>
      <trkpt lat="45.67081" lon="6.85385">
        <ele>2353.6</ele>
        <time>2021-03-26T10:22:57Z</time>
      </trkpt>
      <trkpt lat="45.67082" lon="6.85385">
        <ele>2353.6</ele>
        <time>2021-03-26T10:22:58Z</time>
      </trkpt>
      <trkpt lat="45.67082" lon="6.85384">
        <ele>2353.6</ele>
        <time>2021-03-26T10:22:59Z</time>
      </trkpt>
      <trkpt lat="45.67083" lon="6.85384">
        <ele>2354.7</ele>
        <time>2021-03-26T10:23:00Z</time>
      </trkpt>
      <trkpt lat="45.67083" lon="6.85383">
        <ele>2354.7</ele>
        <time>2021-03-26T10:23:01Z</time>
      </trkpt>
      <trkpt lat="45.67083" lon="6.85382">
        <ele>2354.7</ele>
        <time>2021-03-26T10:23:02Z</time>
      </trkpt>
      <trkpt lat="45.67084" lon="6.85382">
        <ele>2354.9</ele>
        <time>2021-03-26T10:23:03Z</time>
      </trkpt>
      <trkpt lat="45.67084" lon="6.85381">
        <ele>2354.9</ele>
        <time>2021-03-26T10:23:04Z</time>
      </trkpt>
      <trkpt lat="45.67084" lon="6.85381">
        <ele>2354.9</ele>
        <time>2021-03-26T10:23:05Z</time>
      </trkpt>
      <trkpt lat="45.67085" lon="6.8538">
        <ele>2354.9</ele>
        <time>2021-03-26T10:23:06Z</time>
      </trkpt>
      <trkpt lat="45.67085" lon="6.85379">
        <ele>2356</ele>
        <time>2021-03-26T10:23:07Z</time>
      </trkpt>
      <trkpt lat="45.67086" lon="6.85379">
        <ele>2356</ele>
        <time>2021-03-26T10:23:08Z</time>
      </trkpt>
      <trkpt lat="45.67086" lon="6.85379">
        <ele>2356</ele>
        <time>2021-03-26T10:23:09Z</time>
      </trkpt>
      <trkpt lat="45.67087" lon="6.85378">
        <ele>2356.1</ele>
        <time>2021-03-26T10:23:10Z</time>
      </trkpt>
      <trkpt lat="45.67087" lon="6.85378">
        <ele>2356.1</ele>
        <time>2021-03-26T10:23:11Z</time>
      </trkpt>
      <trkpt lat="45.67087" lon="6.85378">
        <ele>2356.1</ele>
        <time>2021-03-26T10:23:12Z</time>
      </trkpt>
      <trkpt lat="45.67088" lon="6.85377">
        <ele>2356.1</ele>
        <time>2021-03-26T10:23:13Z</time>
      </trkpt>
      <trkpt lat="45.67088" lon="6.85377">
        <ele>2356.1</ele>
        <time>2021-03-26T10:23:14Z</time>
      </trkpt>
      <trkpt lat="45.67088" lon="6.85376">
        <ele>2356.1</ele>
        <time>2021-03-26T10:23:15Z</time>
      </trkpt>
      <trkpt lat="45.67089" lon="6.85376">
        <ele>2356.1</ele>
        <time>2021-03-26T10:23:16Z</time>
      </trkpt>
      <trkpt lat="45.67089" lon="6.85375">
        <ele>2357.3</ele>
        <time>2021-03-26T10:23:17Z</time>
      </trkpt>
      <trkpt lat="45.6709" lon="6.85375">
        <ele>2357.4</ele>
        <time>2021-03-26T10:23:18Z</time>
      </trkpt>
      <trkpt lat="45.6709" lon="6.85374">
        <ele>2357.4</ele>
        <time>2021-03-26T10:23:19Z</time>
      </trkpt>
      <trkpt lat="45.6709" lon="6.85374">
        <ele>2357.4</ele>
        <time>2021-03-26T10:23:20Z</time>
      </trkpt>
      <trkpt lat="45.67091" lon="6.85374">
        <ele>2357.4</ele>
        <time>2021-03-26T10:23:21Z</time>
      </trkpt>
      <trkpt lat="45.67091" lon="6.85373">
        <ele>2357.4</ele>
        <time>2021-03-26T10:23:22Z</time>
      </trkpt>
      <trkpt lat="45.67092" lon="6.85373">
        <ele>2357.4</ele>
        <time>2021-03-26T10:23:23Z</time>
      </trkpt>
      <trkpt lat="45.67092" lon="6.85372">
        <ele>2357.4</ele>
        <time>2021-03-26T10:23:24Z</time>
      </trkpt>
      <trkpt lat="45.67093" lon="6.85372">
        <ele>2357.6</ele>
        <time>2021-03-26T10:23:25Z</time>
      </trkpt>
      <trkpt lat="45.67093" lon="6.85372">
        <ele>2357.6</ele>
        <time>2021-03-26T10:23:26Z</time>
      </trkpt>
      <trkpt lat="45.67094" lon="6.85371">
        <ele>2357.6</ele>
        <time>2021-03-26T10:23:27Z</time>
      </trkpt>
      <trkpt lat="45.67094" lon="6.85371">
        <ele>2358.8</ele>
        <time>2021-03-26T10:23:28Z</time>
      </trkpt>
      <trkpt lat="45.67095" lon="6.8537">
        <ele>2358.8</ele>
        <time>2021-03-26T10:23:29Z</time>
      </trkpt>
      <trkpt lat="45.67095" lon="6.85369">
        <ele>2358.8</ele>
        <time>2021-03-26T10:23:30Z</time>
      </trkpt>
      <trkpt lat="45.67096" lon="6.85369">
        <ele>2358.9</ele>
        <time>2021-03-26T10:23:31Z</time>
      </trkpt>
      <trkpt lat="45.67097" lon="6.85369">
        <ele>2358.9</ele>
        <time>2021-03-26T10:23:32Z</time>
      </trkpt>
      <trkpt lat="45.67097" lon="6.85369">
        <ele>2358.9</ele>
        <time>2021-03-26T10:23:33Z</time>
      </trkpt>
      <trkpt lat="45.67098" lon="6.85369">
        <ele>2358.9</ele>
        <time>2021-03-26T10:23:34Z</time>
      </trkpt>
      <trkpt lat="45.67098" lon="6.85369">
        <ele>2358.9</ele>
        <time>2021-03-26T10:23:35Z</time>
      </trkpt>
      <trkpt lat="45.67099" lon="6.85369">
        <ele>2359.1</ele>
        <time>2021-03-26T10:23:36Z</time>
      </trkpt>
      <trkpt lat="45.67099" lon="6.85368">
        <ele>2359.1</ele>
        <time>2021-03-26T10:23:37Z</time>
      </trkpt>
      <trkpt lat="45.671" lon="6.85368">
        <ele>2359.3</ele>
        <time>2021-03-26T10:23:38Z</time>
      </trkpt>
      <trkpt lat="45.671" lon="6.85368">
        <ele>2359.5</ele>
        <time>2021-03-26T10:23:39Z</time>
      </trkpt>
      <trkpt lat="45.67101" lon="6.85368">
        <ele>2359.8</ele>
        <time>2021-03-26T10:23:40Z</time>
      </trkpt>
      <trkpt lat="45.67101" lon="6.85367">
        <ele>2360</ele>
        <time>2021-03-26T10:23:41Z</time>
      </trkpt>
      <trkpt lat="45.67102" lon="6.85367">
        <ele>2360.4</ele>
        <time>2021-03-26T10:23:42Z</time>
      </trkpt>
      <trkpt lat="45.67102" lon="6.85367">
        <ele>2360.6</ele>
        <time>2021-03-26T10:23:43Z</time>
      </trkpt>
      <trkpt lat="45.67103" lon="6.85367">
        <ele>2360.8</ele>
        <time>2021-03-26T10:23:44Z</time>
      </trkpt>
      <trkpt lat="45.67103" lon="6.85367">
        <ele>2361</ele>
        <time>2021-03-26T10:23:45Z</time>
      </trkpt>
      <trkpt lat="45.67103" lon="6.85367">
        <ele>2361.3</ele>
        <time>2021-03-26T10:23:46Z</time>
      </trkpt>
      <trkpt lat="45.67104" lon="6.85367">
        <ele>2361.5</ele>
        <time>2021-03-26T10:23:47Z</time>
      </trkpt>
      <trkpt lat="45.67104" lon="6.85367">
        <ele>2361.7</ele>
        <time>2021-03-26T10:23:48Z</time>
      </trkpt>
      <trkpt lat="45.67105" lon="6.85367">
        <ele>2362.1</ele>
        <time>2021-03-26T10:23:49Z</time>
      </trkpt>
      <trkpt lat="45.67105" lon="6.85367">
        <ele>2362.3</ele>
        <time>2021-03-26T10:23:50Z</time>
      </trkpt>
      <trkpt lat="45.67106" lon="6.85367">
        <ele>2362.5</ele>
        <time>2021-03-26T10:23:51Z</time>
      </trkpt>
      <trkpt lat="45.67106" lon="6.85367">
        <ele>2364</ele>
        <time>2021-03-26T10:23:52Z</time>
      </trkpt>
      <trkpt lat="45.67107" lon="6.85366">
        <ele>2364.2</ele>
        <time>2021-03-26T10:23:53Z</time>
      </trkpt>
      <trkpt lat="45.67107" lon="6.85366">
        <ele>2364.4</ele>
        <time>2021-03-26T10:23:54Z</time>
      </trkpt>
      <trkpt lat="45.67108" lon="6.85366">
        <ele>2364.8</ele>
        <time>2021-03-26T10:23:55Z</time>
      </trkpt>
      <trkpt lat="45.67109" lon="6.85366">
        <ele>2365</ele>
        <time>2021-03-26T10:23:56Z</time>
      </trkpt>
      <trkpt lat="45.67109" lon="6.85366">
        <ele>2365.2</ele>
        <time>2021-03-26T10:23:57Z</time>
      </trkpt>
      <trkpt lat="45.6711" lon="6.85366">
        <ele>2365.4</ele>
        <time>2021-03-26T10:23:58Z</time>
      </trkpt>
      <trkpt lat="45.6711" lon="6.85366">
        <ele>2365.7</ele>
        <time>2021-03-26T10:23:59Z</time>
      </trkpt>
      <trkpt lat="45.67111" lon="6.85367">
        <ele>2365.9</ele>
        <time>2021-03-26T10:24:00Z</time>
      </trkpt>
      <trkpt lat="45.67112" lon="6.85367">
        <ele>2365.3</ele>
        <time>2021-03-26T10:24:01Z</time>
      </trkpt>
      <trkpt lat="45.67112" lon="6.85367">
        <ele>2365.6</ele>
        <time>2021-03-26T10:24:02Z</time>
      </trkpt>
      <trkpt lat="45.67113" lon="6.85367">
        <ele>2365.8</ele>
        <time>2021-03-26T10:24:03Z</time>
      </trkpt>
      <trkpt lat="45.67113" lon="6.85367">
        <ele>2366</ele>
        <time>2021-03-26T10:24:04Z</time>
      </trkpt>
      <trkpt lat="45.67114" lon="6.85368">
        <ele>2366.4</ele>
        <time>2021-03-26T10:24:05Z</time>
      </trkpt>
      <trkpt lat="45.67114" lon="6.85368">
        <ele>2366.6</ele>
        <time>2021-03-26T10:24:06Z</time>
      </trkpt>
      <trkpt lat="45.67115" lon="6.85368">
        <ele>2366.9</ele>
        <time>2021-03-26T10:24:07Z</time>
      </trkpt>
      <trkpt lat="45.67115" lon="6.85368">
        <ele>2367.1</ele>
        <time>2021-03-26T10:24:08Z</time>
      </trkpt>
      <trkpt lat="45.67116" lon="6.85369">
        <ele>2367.3</ele>
        <time>2021-03-26T10:24:09Z</time>
      </trkpt>
      <trkpt lat="45.67116" lon="6.85369">
        <ele>2367.6</ele>
        <time>2021-03-26T10:24:10Z</time>
      </trkpt>
      <trkpt lat="45.67117" lon="6.85369">
        <ele>2367.9</ele>
        <time>2021-03-26T10:24:11Z</time>
      </trkpt>
      <trkpt lat="45.67117" lon="6.8537">
        <ele>2368.1</ele>
        <time>2021-03-26T10:24:12Z</time>
      </trkpt>
      <trkpt lat="45.67118" lon="6.8537">
        <ele>2368.3</ele>
        <time>2021-03-26T10:24:13Z</time>
      </trkpt>
      <trkpt lat="45.67118" lon="6.85371">
        <ele>2368.5</ele>
        <time>2021-03-26T10:24:14Z</time>
      </trkpt>
      <trkpt lat="45.67119" lon="6.85371">
        <ele>2368.2</ele>
        <time>2021-03-26T10:24:15Z</time>
      </trkpt>
      <trkpt lat="45.67119" lon="6.85371">
        <ele>2368.4</ele>
        <time>2021-03-26T10:24:16Z</time>
      </trkpt>
      <trkpt lat="45.6712" lon="6.85372">
        <ele>2368.8</ele>
        <time>2021-03-26T10:24:17Z</time>
      </trkpt>
      <trkpt lat="45.6712" lon="6.85372">
        <ele>2369.1</ele>
        <time>2021-03-26T10:24:18Z</time>
      </trkpt>
      <trkpt lat="45.67121" lon="6.85372">
        <ele>2369.3</ele>
        <time>2021-03-26T10:24:19Z</time>
      </trkpt>
      <trkpt lat="45.67121" lon="6.85373">
        <ele>2369.5</ele>
        <time>2021-03-26T10:24:20Z</time>
      </trkpt>
      <trkpt lat="45.67122" lon="6.85373">
        <ele>2369.8</ele>
        <time>2021-03-26T10:24:21Z</time>
      </trkpt>
      <trkpt lat="45.67122" lon="6.85373">
        <ele>2370</ele>
        <time>2021-03-26T10:24:22Z</time>
      </trkpt>
      <trkpt lat="45.67123" lon="6.85374">
        <ele>2370.3</ele>
        <time>2021-03-26T10:24:23Z</time>
      </trkpt>
      <trkpt lat="45.67123" lon="6.85374">
        <ele>2370.5</ele>
        <time>2021-03-26T10:24:24Z</time>
      </trkpt>
      <trkpt lat="45.67124" lon="6.85374">
        <ele>2370.7</ele>
        <time>2021-03-26T10:24:25Z</time>
      </trkpt>
      <trkpt lat="45.67124" lon="6.85374">
        <ele>2371</ele>
        <time>2021-03-26T10:24:26Z</time>
      </trkpt>
      <trkpt lat="45.67125" lon="6.85374">
        <ele>2371.3</ele>
        <time>2021-03-26T10:24:27Z</time>
      </trkpt>
      <trkpt lat="45.67125" lon="6.85374">
        <ele>2371.5</ele>
        <time>2021-03-26T10:24:28Z</time>
      </trkpt>
      <trkpt lat="45.67126" lon="6.85375">
        <ele>2371.8</ele>
        <time>2021-03-26T10:24:29Z</time>
      </trkpt>
      <trkpt lat="45.67126" lon="6.85375">
        <ele>2372</ele>
        <time>2021-03-26T10:24:30Z</time>
      </trkpt>
      <trkpt lat="45.67126" lon="6.85375">
        <ele>2372.2</ele>
        <time>2021-03-26T10:24:31Z</time>
      </trkpt>
      <trkpt lat="45.67127" lon="6.85375">
        <ele>2372.1</ele>
        <time>2021-03-26T10:24:32Z</time>
      </trkpt>
      <trkpt lat="45.67127" lon="6.85376">
        <ele>2372.4</ele>
        <time>2021-03-26T10:24:33Z</time>
      </trkpt>
      <trkpt lat="45.67128" lon="6.85376">
        <ele>2372.6</ele>
        <time>2021-03-26T10:24:34Z</time>
      </trkpt>
      <trkpt lat="45.67128" lon="6.85376">
        <ele>2372.9</ele>
        <time>2021-03-26T10:24:35Z</time>
      </trkpt>
      <trkpt lat="45.67128" lon="6.85376">
        <ele>2373.1</ele>
        <time>2021-03-26T10:24:36Z</time>
      </trkpt>
      <trkpt lat="45.67129" lon="6.85377">
        <ele>2373.4</ele>
        <time>2021-03-26T10:24:37Z</time>
      </trkpt>
      <trkpt lat="45.67129" lon="6.85377">
        <ele>2373.7</ele>
        <time>2021-03-26T10:24:38Z</time>
      </trkpt>
      <trkpt lat="45.6713" lon="6.85377">
        <ele>2373.9</ele>
        <time>2021-03-26T10:24:39Z</time>
      </trkpt>
      <trkpt lat="45.6713" lon="6.85378">
        <ele>2374.2</ele>
        <time>2021-03-26T10:24:40Z</time>
      </trkpt>
      <trkpt lat="45.6713" lon="6.85378">
        <ele>2374.4</ele>
        <time>2021-03-26T10:24:41Z</time>
      </trkpt>
      <trkpt lat="45.67131" lon="6.85378">
        <ele>2374.6</ele>
        <time>2021-03-26T10:24:42Z</time>
      </trkpt>
      <trkpt lat="45.67131" lon="6.85378">
        <ele>2374.9</ele>
        <time>2021-03-26T10:24:43Z</time>
      </trkpt>
      <trkpt lat="45.67132" lon="6.85379">
        <ele>2375.1</ele>
        <time>2021-03-26T10:24:44Z</time>
      </trkpt>
      <trkpt lat="45.67132" lon="6.85379">
        <ele>2375.4</ele>
        <time>2021-03-26T10:24:45Z</time>
      </trkpt>
      <trkpt lat="45.67132" lon="6.8538">
        <ele>2375.6</ele>
        <time>2021-03-26T10:24:46Z</time>
      </trkpt>
      <trkpt lat="45.67133" lon="6.8538">
        <ele>2375.7</ele>
        <time>2021-03-26T10:24:47Z</time>
      </trkpt>
      <trkpt lat="45.67133" lon="6.85381">
        <ele>2376</ele>
        <time>2021-03-26T10:24:48Z</time>
      </trkpt>
      <trkpt lat="45.67133" lon="6.85381">
        <ele>2376.2</ele>
        <time>2021-03-26T10:24:49Z</time>
      </trkpt>
      <trkpt lat="45.67134" lon="6.85381">
        <ele>2376.5</ele>
        <time>2021-03-26T10:24:50Z</time>
      </trkpt>
      <trkpt lat="45.67134" lon="6.85382">
        <ele>2376.7</ele>
        <time>2021-03-26T10:24:51Z</time>
      </trkpt>
      <trkpt lat="45.67135" lon="6.85382">
        <ele>2377</ele>
        <time>2021-03-26T10:24:52Z</time>
      </trkpt>
      <trkpt lat="45.67135" lon="6.85382">
        <ele>2377.2</ele>
        <time>2021-03-26T10:24:53Z</time>
      </trkpt>
      <trkpt lat="45.67135" lon="6.85383">
        <ele>2377.5</ele>
        <time>2021-03-26T10:24:54Z</time>
      </trkpt>
      <trkpt lat="45.67136" lon="6.85383">
        <ele>2377.7</ele>
        <time>2021-03-26T10:24:55Z</time>
      </trkpt>
      <trkpt lat="45.67136" lon="6.85383">
        <ele>2378</ele>
        <time>2021-03-26T10:24:56Z</time>
      </trkpt>
      <trkpt lat="45.67137" lon="6.85384">
        <ele>2378.2</ele>
        <time>2021-03-26T10:24:57Z</time>
      </trkpt>
      <trkpt lat="45.67137" lon="6.85384">
        <ele>2378.4</ele>
        <time>2021-03-26T10:24:58Z</time>
      </trkpt>
      <trkpt lat="45.67138" lon="6.85384">
        <ele>2378.8</ele>
        <time>2021-03-26T10:24:59Z</time>
      </trkpt>
      <trkpt lat="45.67138" lon="6.85384">
        <ele>2379</ele>
        <time>2021-03-26T10:25:00Z</time>
      </trkpt>
      <trkpt lat="45.67138" lon="6.85384">
        <ele>2379.3</ele>
        <time>2021-03-26T10:25:01Z</time>
      </trkpt>
      <trkpt lat="45.67139" lon="6.85384">
        <ele>2379.5</ele>
        <time>2021-03-26T10:25:02Z</time>
      </trkpt>
      <trkpt lat="45.67139" lon="6.85384">
        <ele>2379.8</ele>
        <time>2021-03-26T10:25:03Z</time>
      </trkpt>
      <trkpt lat="45.6714" lon="6.85384">
        <ele>2380</ele>
        <time>2021-03-26T10:25:04Z</time>
      </trkpt>
      <trkpt lat="45.6714" lon="6.85384">
        <ele>2380.3</ele>
        <time>2021-03-26T10:25:05Z</time>
      </trkpt>
      <trkpt lat="45.67141" lon="6.85384">
        <ele>2380.5</ele>
        <time>2021-03-26T10:25:06Z</time>
      </trkpt>
      <trkpt lat="45.67141" lon="6.85384">
        <ele>2380.8</ele>
        <time>2021-03-26T10:25:07Z</time>
      </trkpt>
      <trkpt lat="45.67142" lon="6.85384">
        <ele>2381</ele>
        <time>2021-03-26T10:25:08Z</time>
      </trkpt>
      <trkpt lat="45.67143" lon="6.85384">
        <ele>2381.3</ele>
        <time>2021-03-26T10:25:09Z</time>
      </trkpt>
      <trkpt lat="45.67143" lon="6.85384">
        <ele>2381.5</ele>
        <time>2021-03-26T10:25:10Z</time>
      </trkpt>
      <trkpt lat="45.67144" lon="6.85384">
        <ele>2381.8</ele>
        <time>2021-03-26T10:25:11Z</time>
      </trkpt>
      <trkpt lat="45.67144" lon="6.85384">
        <ele>2382</ele>
        <time>2021-03-26T10:25:12Z</time>
      </trkpt>
      <trkpt lat="45.67145" lon="6.85384">
        <ele>2382.3</ele>
        <time>2021-03-26T10:25:13Z</time>
      </trkpt>
      <trkpt lat="45.67146" lon="6.85384">
        <ele>2382.5</ele>
        <time>2021-03-26T10:25:14Z</time>
      </trkpt>
      <trkpt lat="45.67146" lon="6.85384">
        <ele>2382.8</ele>
        <time>2021-03-26T10:25:15Z</time>
      </trkpt>
      <trkpt lat="45.67147" lon="6.85384">
        <ele>2383.1</ele>
        <time>2021-03-26T10:25:16Z</time>
      </trkpt>
      <trkpt lat="45.67147" lon="6.85384">
        <ele>2383.3</ele>
        <time>2021-03-26T10:25:17Z</time>
      </trkpt>
      <trkpt lat="45.67148" lon="6.85384">
        <ele>2383.3</ele>
        <time>2021-03-26T10:25:18Z</time>
      </trkpt>
      <trkpt lat="45.67148" lon="6.85384">
        <ele>2383.4</ele>
        <time>2021-03-26T10:25:19Z</time>
      </trkpt>
      <trkpt lat="45.67149" lon="6.85384">
        <ele>2383.4</ele>
        <time>2021-03-26T10:25:20Z</time>
      </trkpt>
      <trkpt lat="45.67149" lon="6.85384">
        <ele>2383.4</ele>
        <time>2021-03-26T10:25:21Z</time>
      </trkpt>
      <trkpt lat="45.6715" lon="6.85384">
        <ele>2383.4</ele>
        <time>2021-03-26T10:25:22Z</time>
      </trkpt>
      <trkpt lat="45.67151" lon="6.85384">
        <ele>2383.4</ele>
        <time>2021-03-26T10:25:23Z</time>
      </trkpt>
      <trkpt lat="45.67151" lon="6.85384">
        <ele>2383.4</ele>
        <time>2021-03-26T10:25:24Z</time>
      </trkpt>
      <trkpt lat="45.67152" lon="6.85385">
        <ele>2383.4</ele>
        <time>2021-03-26T10:25:25Z</time>
      </trkpt>
      <trkpt lat="45.67152" lon="6.85384">
        <ele>2383.4</ele>
        <time>2021-03-26T10:25:26Z</time>
      </trkpt>
      <trkpt lat="45.67153" lon="6.85384">
        <ele>2383.4</ele>
        <time>2021-03-26T10:25:27Z</time>
      </trkpt>
      <trkpt lat="45.67154" lon="6.85384">
        <ele>2383.5</ele>
        <time>2021-03-26T10:25:28Z</time>
      </trkpt>
      <trkpt lat="45.67154" lon="6.85384">
        <ele>2383.5</ele>
        <time>2021-03-26T10:25:29Z</time>
      </trkpt>
      <trkpt lat="45.67155" lon="6.85384">
        <ele>2383.5</ele>
        <time>2021-03-26T10:25:30Z</time>
      </trkpt>
      <trkpt lat="45.67155" lon="6.85384">
        <ele>2383.5</ele>
        <time>2021-03-26T10:25:31Z</time>
      </trkpt>
      <trkpt lat="45.67156" lon="6.85384">
        <ele>2383.5</ele>
        <time>2021-03-26T10:25:32Z</time>
      </trkpt>
      <trkpt lat="45.67156" lon="6.85384">
        <ele>2383.5</ele>
        <time>2021-03-26T10:25:33Z</time>
      </trkpt>
      <trkpt lat="45.67156" lon="6.85384">
        <ele>2383.5</ele>
        <time>2021-03-26T10:25:34Z</time>
      </trkpt>
      <trkpt lat="45.67157" lon="6.85384">
        <ele>2383.5</ele>
        <time>2021-03-26T10:25:35Z</time>
      </trkpt>
      <trkpt lat="45.67157" lon="6.85384">
        <ele>2383.5</ele>
        <time>2021-03-26T10:25:36Z</time>
      </trkpt>
      <trkpt lat="45.67157" lon="6.85384">
        <ele>2383.5</ele>
        <time>2021-03-26T10:25:37Z</time>
      </trkpt>
      <trkpt lat="45.67158" lon="6.85384">
        <ele>2383.5</ele>
        <time>2021-03-26T10:25:38Z</time>
      </trkpt>
      <trkpt lat="45.67159" lon="6.85384">
        <ele>2383.5</ele>
        <time>2021-03-26T10:25:39Z</time>
      </trkpt>
      <trkpt lat="45.67159" lon="6.85384">
        <ele>2383.6</ele>
        <time>2021-03-26T10:25:40Z</time>
      </trkpt>
      <trkpt lat="45.67159" lon="6.85384">
        <ele>2383.6</ele>
        <time>2021-03-26T10:25:41Z</time>
      </trkpt>
      <trkpt lat="45.6716" lon="6.85384">
        <ele>2383.6</ele>
        <time>2021-03-26T10:25:42Z</time>
      </trkpt>
      <trkpt lat="45.6716" lon="6.85384">
        <ele>2383.6</ele>
        <time>2021-03-26T10:25:43Z</time>
      </trkpt>
      <trkpt lat="45.67161" lon="6.85384">
        <ele>2383.6</ele>
        <time>2021-03-26T10:25:44Z</time>
      </trkpt>
      <trkpt lat="45.67161" lon="6.85384">
        <ele>2383.6</ele>
        <time>2021-03-26T10:25:45Z</time>
      </trkpt>
      <trkpt lat="45.67162" lon="6.85383">
        <ele>2383.6</ele>
        <time>2021-03-26T10:25:46Z</time>
      </trkpt>
      <trkpt lat="45.67162" lon="6.85383">
        <ele>2383.6</ele>
        <time>2021-03-26T10:25:47Z</time>
      </trkpt>
      <trkpt lat="45.67163" lon="6.85382">
        <ele>2383.6</ele>
        <time>2021-03-26T10:25:48Z</time>
      </trkpt>
      <trkpt lat="45.67163" lon="6.85381">
        <ele>2383.6</ele>
        <time>2021-03-26T10:25:49Z</time>
      </trkpt>
      <trkpt lat="45.67163" lon="6.8538">
        <ele>2383.6</ele>
        <time>2021-03-26T10:25:50Z</time>
      </trkpt>
      <trkpt lat="45.67163" lon="6.8538">
        <ele>2383.6</ele>
        <time>2021-03-26T10:25:51Z</time>
      </trkpt>
      <trkpt lat="45.67163" lon="6.8538">
        <ele>2383.6</ele>
        <time>2021-03-26T10:25:52Z</time>
      </trkpt>
      <trkpt lat="45.67163" lon="6.85381">
        <ele>2383.7</ele>
        <time>2021-03-26T10:25:53Z</time>
      </trkpt>
      <trkpt lat="45.67162" lon="6.85381">
        <ele>2383.7</ele>
        <time>2021-03-26T10:25:54Z</time>
      </trkpt>
      <trkpt lat="45.67162" lon="6.85382">
        <ele>2383.7</ele>
        <time>2021-03-26T10:25:55Z</time>
      </trkpt>
      <trkpt lat="45.67163" lon="6.85382">
        <ele>2383.7</ele>
        <time>2021-03-26T10:25:56Z</time>
      </trkpt>
      <trkpt lat="45.67162" lon="6.85382">
        <ele>2383.7</ele>
        <time>2021-03-26T10:25:57Z</time>
      </trkpt>
      <trkpt lat="45.67162" lon="6.85382">
        <ele>2383.7</ele>
        <time>2021-03-26T10:25:58Z</time>
      </trkpt>
      <trkpt lat="45.67166" lon="6.85382">
        <ele>2383.7</ele>
        <time>2021-03-26T10:35:26Z</time>
      </trkpt>
      <trkpt lat="45.67166" lon="6.85381">
        <ele>2383.7</ele>
        <time>2021-03-26T10:35:27Z</time>
      </trkpt>
      <trkpt lat="45.67166" lon="6.8538">
        <ele>2383.7</ele>
        <time>2021-03-26T10:35:28Z</time>
      </trkpt>
      <trkpt lat="45.67167" lon="6.85379">
        <ele>2383.7</ele>
        <time>2021-03-26T10:35:29Z</time>
      </trkpt>
      <trkpt lat="45.67167" lon="6.85378">
        <ele>2383.8</ele>
        <time>2021-03-26T10:35:30Z</time>
      </trkpt>
      <trkpt lat="45.67168" lon="6.85377">
        <ele>2383.8</ele>
        <time>2021-03-26T10:35:31Z</time>
      </trkpt>
      <trkpt lat="45.67169" lon="6.85375">
        <ele>2383.8</ele>
        <time>2021-03-26T10:35:32Z</time>
      </trkpt>
      <trkpt lat="45.67169" lon="6.85374">
        <ele>2383.8</ele>
        <time>2021-03-26T10:35:33Z</time>
      </trkpt>
      <trkpt lat="45.67169" lon="6.85373">
        <ele>2383.8</ele>
        <time>2021-03-26T10:35:34Z</time>
      </trkpt>
      <trkpt lat="45.6717" lon="6.85372">
        <ele>2383.8</ele>
        <time>2021-03-26T10:35:35Z</time>
      </trkpt>
      <trkpt lat="45.6717" lon="6.85371">
        <ele>2383.8</ele>
        <time>2021-03-26T10:35:36Z</time>
      </trkpt>
      <trkpt lat="45.67171" lon="6.8537">
        <ele>2383.8</ele>
        <time>2021-03-26T10:35:37Z</time>
      </trkpt>
      <trkpt lat="45.67171" lon="6.8537">
        <ele>2383.8</ele>
        <time>2021-03-26T10:35:38Z</time>
      </trkpt>
      <trkpt lat="45.67171" lon="6.85369">
        <ele>2383.8</ele>
        <time>2021-03-26T10:35:39Z</time>
      </trkpt>
      <trkpt lat="45.67172" lon="6.85369">
        <ele>2383.8</ele>
        <time>2021-03-26T10:35:40Z</time>
      </trkpt>
      <trkpt lat="45.67172" lon="6.85368">
        <ele>2383.8</ele>
        <time>2021-03-26T10:35:41Z</time>
      </trkpt>
      <trkpt lat="45.67173" lon="6.85367">
        <ele>2383.8</ele>
        <time>2021-03-26T10:35:42Z</time>
      </trkpt>
      <trkpt lat="45.67173" lon="6.85367">
        <ele>2383.8</ele>
        <time>2021-03-26T10:35:43Z</time>
      </trkpt>
      <trkpt lat="45.67173" lon="6.85366">
        <ele>2383.8</ele>
        <time>2021-03-26T10:35:44Z</time>
      </trkpt>
      <trkpt lat="45.67174" lon="6.85366">
        <ele>2383.9</ele>
        <time>2021-03-26T10:36:34Z</time>
      </trkpt>
      <trkpt lat="45.67174" lon="6.85365">
        <ele>2383.9</ele>
        <time>2021-03-26T10:36:35Z</time>
      </trkpt>
      <trkpt lat="45.67175" lon="6.85365">
        <ele>2383.9</ele>
        <time>2021-03-26T10:36:36Z</time>
      </trkpt>
      <trkpt lat="45.67176" lon="6.85363">
        <ele>2383.9</ele>
        <time>2021-03-26T10:36:37Z</time>
      </trkpt>
      <trkpt lat="45.67177" lon="6.85362">
        <ele>2383.9</ele>
        <time>2021-03-26T10:36:38Z</time>
      </trkpt>
      <trkpt lat="45.67178" lon="6.85361">
        <ele>2383.9</ele>
        <time>2021-03-26T10:36:39Z</time>
      </trkpt>
      <trkpt lat="45.67179" lon="6.8536">
        <ele>2383.9</ele>
        <time>2021-03-26T10:36:40Z</time>
      </trkpt>
      <trkpt lat="45.67181" lon="6.85359">
        <ele>2383.9</ele>
        <time>2021-03-26T10:36:41Z</time>
      </trkpt>
      <trkpt lat="45.67182" lon="6.85357">
        <ele>2384</ele>
        <time>2021-03-26T10:36:42Z</time>
      </trkpt>
      <trkpt lat="45.67184" lon="6.85356">
        <ele>2384</ele>
        <time>2021-03-26T10:36:43Z</time>
      </trkpt>
      <trkpt lat="45.67185" lon="6.85354">
        <ele>2384</ele>
        <time>2021-03-26T10:36:44Z</time>
      </trkpt>
      <trkpt lat="45.67187" lon="6.85353">
        <ele>2384</ele>
        <time>2021-03-26T10:36:45Z</time>
      </trkpt>
      <trkpt lat="45.67187" lon="6.85352">
        <ele>2384.1</ele>
        <time>2021-03-26T10:36:46Z</time>
      </trkpt>
      <trkpt lat="45.67188" lon="6.85351">
        <ele>2384.1</ele>
        <time>2021-03-26T10:36:47Z</time>
      </trkpt>
      <trkpt lat="45.67189" lon="6.8535">
        <ele>2384.1</ele>
        <time>2021-03-26T10:36:48Z</time>
      </trkpt>
      <trkpt lat="45.6719" lon="6.85349">
        <ele>2384.1</ele>
        <time>2021-03-26T10:36:49Z</time>
      </trkpt>
      <trkpt lat="45.67191" lon="6.85348">
        <ele>2384.1</ele>
        <time>2021-03-26T10:36:50Z</time>
      </trkpt>
      <trkpt lat="45.67192" lon="6.85347">
        <ele>2384.1</ele>
        <time>2021-03-26T10:36:51Z</time>
      </trkpt>
      <trkpt lat="45.67193" lon="6.85347">
        <ele>2384.1</ele>
        <time>2021-03-26T10:36:52Z</time>
      </trkpt>
      <trkpt lat="45.67194" lon="6.85346">
        <ele>2384.1</ele>
        <time>2021-03-26T10:36:53Z</time>
      </trkpt>
      <trkpt lat="45.67195" lon="6.85346">
        <ele>2384.2</ele>
        <time>2021-03-26T10:36:54Z</time>
      </trkpt>
      <trkpt lat="45.67196" lon="6.85345">
        <ele>2384.2</ele>
        <time>2021-03-26T10:36:55Z</time>
      </trkpt>
      <trkpt lat="45.67197" lon="6.85345">
        <ele>2384.2</ele>
        <time>2021-03-26T10:36:56Z</time>
      </trkpt>
      <trkpt lat="45.67198" lon="6.85344">
        <ele>2384.2</ele>
        <time>2021-03-26T10:36:57Z</time>
      </trkpt>
      <trkpt lat="45.67199" lon="6.85344">
        <ele>2384.2</ele>
        <time>2021-03-26T10:36:58Z</time>
      </trkpt>
      <trkpt lat="45.672" lon="6.85343">
        <ele>2384.2</ele>
        <time>2021-03-26T10:36:59Z</time>
      </trkpt>
      <trkpt lat="45.672" lon="6.85342">
        <ele>2384.2</ele>
        <time>2021-03-26T10:37:00Z</time>
      </trkpt>
      <trkpt lat="45.67201" lon="6.85341">
        <ele>2384.2</ele>
        <time>2021-03-26T10:37:01Z</time>
      </trkpt>
      <trkpt lat="45.67202" lon="6.8534">
        <ele>2384.2</ele>
        <time>2021-03-26T10:37:02Z</time>
      </trkpt>
      <trkpt lat="45.67203" lon="6.85339">
        <ele>2384.3</ele>
        <time>2021-03-26T10:37:03Z</time>
      </trkpt>
      <trkpt lat="45.67204" lon="6.85338">
        <ele>2384.3</ele>
        <time>2021-03-26T10:37:04Z</time>
      </trkpt>
      <trkpt lat="45.67205" lon="6.85338">
        <ele>2384.3</ele>
        <time>2021-03-26T10:37:05Z</time>
      </trkpt>
      <trkpt lat="45.67207" lon="6.85336">
        <ele>2384.3</ele>
        <time>2021-03-26T10:37:06Z</time>
      </trkpt>
      <trkpt lat="45.67208" lon="6.85336">
        <ele>2384.3</ele>
        <time>2021-03-26T10:37:07Z</time>
      </trkpt>
      <trkpt lat="45.67209" lon="6.85336">
        <ele>2384.3</ele>
        <time>2021-03-26T10:37:08Z</time>
      </trkpt>
      <trkpt lat="45.6721" lon="6.85335">
        <ele>2384.3</ele>
        <time>2021-03-26T10:37:09Z</time>
      </trkpt>
      <trkpt lat="45.67211" lon="6.85335">
        <ele>2384.3</ele>
        <time>2021-03-26T10:37:10Z</time>
      </trkpt>
      <trkpt lat="45.67212" lon="6.85334">
        <ele>2384.4</ele>
        <time>2021-03-26T10:37:11Z</time>
      </trkpt>
      <trkpt lat="45.67213" lon="6.85334">
        <ele>2384.4</ele>
        <time>2021-03-26T10:37:12Z</time>
      </trkpt>
      <trkpt lat="45.67214" lon="6.85333">
        <ele>2384.4</ele>
        <time>2021-03-26T10:37:13Z</time>
      </trkpt>
      <trkpt lat="45.67215" lon="6.85333">
        <ele>2384.4</ele>
        <time>2021-03-26T10:37:14Z</time>
      </trkpt>
      <trkpt lat="45.67216" lon="6.85332">
        <ele>2384.4</ele>
        <time>2021-03-26T10:37:15Z</time>
      </trkpt>
      <trkpt lat="45.67217" lon="6.85332">
        <ele>2384.4</ele>
        <time>2021-03-26T10:37:16Z</time>
      </trkpt>
      <trkpt lat="45.67218" lon="6.85331">
        <ele>2384.4</ele>
        <time>2021-03-26T10:37:17Z</time>
      </trkpt>
      <trkpt lat="45.67219" lon="6.8533">
        <ele>2384.4</ele>
        <time>2021-03-26T10:37:18Z</time>
      </trkpt>
      <trkpt lat="45.6722" lon="6.8533">
        <ele>2384.4</ele>
        <time>2021-03-26T10:37:19Z</time>
      </trkpt>
      <trkpt lat="45.67221" lon="6.85329">
        <ele>2384.5</ele>
        <time>2021-03-26T10:37:20Z</time>
      </trkpt>
      <trkpt lat="45.67222" lon="6.85328">
        <ele>2384.5</ele>
        <time>2021-03-26T10:37:21Z</time>
      </trkpt>
      <trkpt lat="45.67222" lon="6.85328">
        <ele>2384.5</ele>
        <time>2021-03-26T10:37:22Z</time>
      </trkpt>
      <trkpt lat="45.67223" lon="6.85327">
        <ele>2384.5</ele>
        <time>2021-03-26T10:37:23Z</time>
      </trkpt>
      <trkpt lat="45.67224" lon="6.85326">
        <ele>2384.5</ele>
        <time>2021-03-26T10:37:24Z</time>
      </trkpt>
      <trkpt lat="45.67224" lon="6.85326">
        <ele>2384.5</ele>
        <time>2021-03-26T10:37:25Z</time>
      </trkpt>
      <trkpt lat="45.67225" lon="6.85325">
        <ele>2384.5</ele>
        <time>2021-03-26T10:37:26Z</time>
      </trkpt>
      <trkpt lat="45.67226" lon="6.85324">
        <ele>2384.5</ele>
        <time>2021-03-26T10:37:27Z</time>
      </trkpt>
      <trkpt lat="45.67227" lon="6.85324">
        <ele>2384.5</ele>
        <time>2021-03-26T10:37:28Z</time>
      </trkpt>
      <trkpt lat="45.67227" lon="6.85323">
        <ele>2384.6</ele>
        <time>2021-03-26T10:37:29Z</time>
      </trkpt>
      <trkpt lat="45.67228" lon="6.85322">
        <ele>2384.6</ele>
        <time>2021-03-26T10:37:30Z</time>
      </trkpt>
      <trkpt lat="45.67229" lon="6.85322">
        <ele>2384.6</ele>
        <time>2021-03-26T10:37:31Z</time>
      </trkpt>
      <trkpt lat="45.67229" lon="6.85321">
        <ele>2384.6</ele>
        <time>2021-03-26T10:37:32Z</time>
      </trkpt>
      <trkpt lat="45.6723" lon="6.8532">
        <ele>2384.6</ele>
        <time>2021-03-26T10:37:33Z</time>
      </trkpt>
      <trkpt lat="45.67231" lon="6.85319">
        <ele>2384.6</ele>
        <time>2021-03-26T10:37:34Z</time>
      </trkpt>
      <trkpt lat="45.67232" lon="6.85319">
        <ele>2384.6</ele>
        <time>2021-03-26T10:37:35Z</time>
      </trkpt>
      <trkpt lat="45.67232" lon="6.85318">
        <ele>2384.6</ele>
        <time>2021-03-26T10:37:36Z</time>
      </trkpt>
      <trkpt lat="45.67233" lon="6.85317">
        <ele>2384.6</ele>
        <time>2021-03-26T10:37:37Z</time>
      </trkpt>
      <trkpt lat="45.67234" lon="6.85317">
        <ele>2384.7</ele>
        <time>2021-03-26T10:37:38Z</time>
      </trkpt>
      <trkpt lat="45.67235" lon="6.85316">
        <ele>2384.7</ele>
        <time>2021-03-26T10:37:39Z</time>
      </trkpt>
      <trkpt lat="45.67235" lon="6.85316">
        <ele>2384.7</ele>
        <time>2021-03-26T10:37:40Z</time>
      </trkpt>
      <trkpt lat="45.67236" lon="6.85315">
        <ele>2384.7</ele>
        <time>2021-03-26T10:37:41Z</time>
      </trkpt>
      <trkpt lat="45.67237" lon="6.85315">
        <ele>2384.7</ele>
        <time>2021-03-26T10:37:42Z</time>
      </trkpt>
      <trkpt lat="45.67238" lon="6.85314">
        <ele>2384.7</ele>
        <time>2021-03-26T10:37:43Z</time>
      </trkpt>
      <trkpt lat="45.67238" lon="6.85314">
        <ele>2384.7</ele>
        <time>2021-03-26T10:37:44Z</time>
      </trkpt>
      <trkpt lat="45.67239" lon="6.85313">
        <ele>2384.7</ele>
        <time>2021-03-26T10:37:45Z</time>
      </trkpt>
      <trkpt lat="45.6724" lon="6.85312">
        <ele>2384.7</ele>
        <time>2021-03-26T10:37:46Z</time>
      </trkpt>
      <trkpt lat="45.6724" lon="6.85312">
        <ele>2384.7</ele>
        <time>2021-03-26T10:37:47Z</time>
      </trkpt>
      <trkpt lat="45.67241" lon="6.85312">
        <ele>2384.8</ele>
        <time>2021-03-26T10:37:48Z</time>
      </trkpt>
      <trkpt lat="45.67242" lon="6.85311">
        <ele>2384.8</ele>
        <time>2021-03-26T10:37:49Z</time>
      </trkpt>
      <trkpt lat="45.67243" lon="6.85311">
        <ele>2384.8</ele>
        <time>2021-03-26T10:37:50Z</time>
      </trkpt>
      <trkpt lat="45.67243" lon="6.8531">
        <ele>2384.8</ele>
        <time>2021-03-26T10:37:51Z</time>
      </trkpt>
      <trkpt lat="45.67244" lon="6.85309">
        <ele>2384.8</ele>
        <time>2021-03-26T10:37:52Z</time>
      </trkpt>
      <trkpt lat="45.67245" lon="6.85309">
        <ele>2384.8</ele>
        <time>2021-03-26T10:37:53Z</time>
      </trkpt>
      <trkpt lat="45.67245" lon="6.85308">
        <ele>2384.8</ele>
        <time>2021-03-26T10:37:54Z</time>
      </trkpt>
      <trkpt lat="45.67246" lon="6.85307">
        <ele>2384.8</ele>
        <time>2021-03-26T10:37:55Z</time>
      </trkpt>
      <trkpt lat="45.67247" lon="6.85306">
        <ele>2384.8</ele>
        <time>2021-03-26T10:37:56Z</time>
      </trkpt>
      <trkpt lat="45.67248" lon="6.85305">
        <ele>2384.8</ele>
        <time>2021-03-26T10:37:57Z</time>
      </trkpt>
      <trkpt lat="45.67248" lon="6.85304">
        <ele>2384.8</ele>
        <time>2021-03-26T10:37:58Z</time>
      </trkpt>
      <trkpt lat="45.67249" lon="6.85304">
        <ele>2384.9</ele>
        <time>2021-03-26T10:37:59Z</time>
      </trkpt>
      <trkpt lat="45.6725" lon="6.85303">
        <ele>2384.9</ele>
        <time>2021-03-26T10:38:00Z</time>
      </trkpt>
      <trkpt lat="45.67251" lon="6.85302">
        <ele>2384.9</ele>
        <time>2021-03-26T10:38:01Z</time>
      </trkpt>
      <trkpt lat="45.67252" lon="6.85302">
        <ele>2384.9</ele>
        <time>2021-03-26T10:38:02Z</time>
      </trkpt>
      <trkpt lat="45.67252" lon="6.85301">
        <ele>2384.9</ele>
        <time>2021-03-26T10:38:03Z</time>
      </trkpt>
      <trkpt lat="45.67253" lon="6.853">
        <ele>2384.9</ele>
        <time>2021-03-26T10:38:04Z</time>
      </trkpt>
      <trkpt lat="45.67254" lon="6.85299">
        <ele>2384.9</ele>
        <time>2021-03-26T10:38:05Z</time>
      </trkpt>
      <trkpt lat="45.67254" lon="6.85298">
        <ele>2384.9</ele>
        <time>2021-03-26T10:38:06Z</time>
      </trkpt>
      <trkpt lat="45.67255" lon="6.85298">
        <ele>2384.9</ele>
        <time>2021-03-26T10:38:07Z</time>
      </trkpt>
      <trkpt lat="45.67255" lon="6.85297">
        <ele>2384.9</ele>
        <time>2021-03-26T10:38:08Z</time>
      </trkpt>
      <trkpt lat="45.67256" lon="6.85296">
        <ele>2384.9</ele>
        <time>2021-03-26T10:38:09Z</time>
      </trkpt>
      <trkpt lat="45.67257" lon="6.85295">
        <ele>2384.9</ele>
        <time>2021-03-26T10:38:10Z</time>
      </trkpt>
      <trkpt lat="45.67257" lon="6.85295">
        <ele>2385</ele>
        <time>2021-03-26T10:38:11Z</time>
      </trkpt>
      <trkpt lat="45.67258" lon="6.85294">
        <ele>2385</ele>
        <time>2021-03-26T10:38:12Z</time>
      </trkpt>
      <trkpt lat="45.67258" lon="6.85293">
        <ele>2385</ele>
        <time>2021-03-26T10:38:13Z</time>
      </trkpt>
      <trkpt lat="45.67259" lon="6.85292">
        <ele>2385</ele>
        <time>2021-03-26T10:38:14Z</time>
      </trkpt>
      <trkpt lat="45.6726" lon="6.85292">
        <ele>2385</ele>
        <time>2021-03-26T10:38:15Z</time>
      </trkpt>
      <trkpt lat="45.67261" lon="6.8529">
        <ele>2385</ele>
        <time>2021-03-26T10:38:16Z</time>
      </trkpt>
      <trkpt lat="45.67262" lon="6.8529">
        <ele>2385</ele>
        <time>2021-03-26T10:38:17Z</time>
      </trkpt>
      <trkpt lat="45.67262" lon="6.85289">
        <ele>2385</ele>
        <time>2021-03-26T10:38:18Z</time>
      </trkpt>
      <trkpt lat="45.67263" lon="6.85289">
        <ele>2385.1</ele>
        <time>2021-03-26T10:38:19Z</time>
      </trkpt>
      <trkpt lat="45.67264" lon="6.85288">
        <ele>2385.1</ele>
        <time>2021-03-26T10:38:20Z</time>
      </trkpt>
      <trkpt lat="45.67264" lon="6.85287">
        <ele>2385.1</ele>
        <time>2021-03-26T10:38:21Z</time>
      </trkpt>
      <trkpt lat="45.67265" lon="6.85286">
        <ele>2385.1</ele>
        <time>2021-03-26T10:38:22Z</time>
      </trkpt>
      <trkpt lat="45.67265" lon="6.85286">
        <ele>2385.1</ele>
        <time>2021-03-26T10:38:23Z</time>
      </trkpt>
      <trkpt lat="45.67266" lon="6.85285">
        <ele>2385.1</ele>
        <time>2021-03-26T10:38:24Z</time>
      </trkpt>
      <trkpt lat="45.67267" lon="6.85284">
        <ele>2385.1</ele>
        <time>2021-03-26T10:38:25Z</time>
      </trkpt>
      <trkpt lat="45.67268" lon="6.85284">
        <ele>2385.1</ele>
        <time>2021-03-26T10:38:26Z</time>
      </trkpt>
      <trkpt lat="45.67268" lon="6.85283">
        <ele>2385.2</ele>
        <time>2021-03-26T10:38:27Z</time>
      </trkpt>
      <trkpt lat="45.67269" lon="6.85283">
        <ele>2385.2</ele>
        <time>2021-03-26T10:38:28Z</time>
      </trkpt>
      <trkpt lat="45.6727" lon="6.85282">
        <ele>2385.2</ele>
        <time>2021-03-26T10:38:29Z</time>
      </trkpt>
      <trkpt lat="45.67271" lon="6.85281">
        <ele>2385.2</ele>
        <time>2021-03-26T10:38:30Z</time>
      </trkpt>
      <trkpt lat="45.67272" lon="6.85281">
        <ele>2385.2</ele>
        <time>2021-03-26T10:38:31Z</time>
      </trkpt>
      <trkpt lat="45.67272" lon="6.8528">
        <ele>2385.2</ele>
        <time>2021-03-26T10:38:32Z</time>
      </trkpt>
      <trkpt lat="45.67273" lon="6.85279">
        <ele>2385.3</ele>
        <time>2021-03-26T10:38:33Z</time>
      </trkpt>
      <trkpt lat="45.67274" lon="6.85279">
        <ele>2385.3</ele>
        <time>2021-03-26T10:38:34Z</time>
      </trkpt>
      <trkpt lat="45.67275" lon="6.85278">
        <ele>2385.3</ele>
        <time>2021-03-26T10:38:35Z</time>
      </trkpt>
      <trkpt lat="45.67275" lon="6.85278">
        <ele>2385.3</ele>
        <time>2021-03-26T10:38:36Z</time>
      </trkpt>
      <trkpt lat="45.67276" lon="6.85277">
        <ele>2385.3</ele>
        <time>2021-03-26T10:38:37Z</time>
      </trkpt>
      <trkpt lat="45.67277" lon="6.85276">
        <ele>2385.3</ele>
        <time>2021-03-26T10:38:38Z</time>
      </trkpt>
      <trkpt lat="45.67278" lon="6.85276">
        <ele>2385.3</ele>
        <time>2021-03-26T10:38:39Z</time>
      </trkpt>
      <trkpt lat="45.67278" lon="6.85275">
        <ele>2385.3</ele>
        <time>2021-03-26T10:38:40Z</time>
      </trkpt>
      <trkpt lat="45.67279" lon="6.85274">
        <ele>2385.4</ele>
        <time>2021-03-26T10:38:41Z</time>
      </trkpt>
      <trkpt lat="45.6728" lon="6.85274">
        <ele>2385.4</ele>
        <time>2021-03-26T10:38:42Z</time>
      </trkpt>
      <trkpt lat="45.6728" lon="6.85273">
        <ele>2385.4</ele>
        <time>2021-03-26T10:38:43Z</time>
      </trkpt>
      <trkpt lat="45.67281" lon="6.85272">
        <ele>2385.4</ele>
        <time>2021-03-26T10:38:44Z</time>
      </trkpt>
      <trkpt lat="45.67282" lon="6.85271">
        <ele>2385.4</ele>
        <time>2021-03-26T10:38:45Z</time>
      </trkpt>
      <trkpt lat="45.67282" lon="6.8527">
        <ele>2385.4</ele>
        <time>2021-03-26T10:38:46Z</time>
      </trkpt>
      <trkpt lat="45.67283" lon="6.85269">
        <ele>2385.4</ele>
        <time>2021-03-26T10:38:47Z</time>
      </trkpt>
      <trkpt lat="45.67284" lon="6.85269">
        <ele>2385.5</ele>
        <time>2021-03-26T10:38:48Z</time>
      </trkpt>
      <trkpt lat="45.67285" lon="6.85268">
        <ele>2385.5</ele>
        <time>2021-03-26T10:38:49Z</time>
      </trkpt>
      <trkpt lat="45.67286" lon="6.85267">
        <ele>2385.5</ele>
        <time>2021-03-26T10:38:50Z</time>
      </trkpt>
      <trkpt lat="45.67286" lon="6.85266">
        <ele>2385.5</ele>
        <time>2021-03-26T10:38:51Z</time>
      </trkpt>
      <trkpt lat="45.67287" lon="6.85265">
        <ele>2385.5</ele>
        <time>2021-03-26T10:38:52Z</time>
      </trkpt>
      <trkpt lat="45.67288" lon="6.85264">
        <ele>2385.5</ele>
        <time>2021-03-26T10:38:53Z</time>
      </trkpt>
      <trkpt lat="45.67289" lon="6.85263">
        <ele>2385.6</ele>
        <time>2021-03-26T10:38:54Z</time>
      </trkpt>
      <trkpt lat="45.67289" lon="6.85263">
        <ele>2385.6</ele>
        <time>2021-03-26T10:38:55Z</time>
      </trkpt>
      <trkpt lat="45.6729" lon="6.85262">
        <ele>2385.6</ele>
        <time>2021-03-26T10:38:56Z</time>
      </trkpt>
      <trkpt lat="45.67291" lon="6.85261">
        <ele>2385.6</ele>
        <time>2021-03-26T10:38:57Z</time>
      </trkpt>
      <trkpt lat="45.67292" lon="6.8526">
        <ele>2385.7</ele>
        <time>2021-03-26T10:38:58Z</time>
      </trkpt>
      <trkpt lat="45.67293" lon="6.8526">
        <ele>2385.7</ele>
        <time>2021-03-26T10:38:59Z</time>
      </trkpt>
      <trkpt lat="45.67295" lon="6.85259">
        <ele>2385.7</ele>
        <time>2021-03-26T10:39:00Z</time>
      </trkpt>
      <trkpt lat="45.67296" lon="6.85258">
        <ele>2385.7</ele>
        <time>2021-03-26T10:39:01Z</time>
      </trkpt>
      <trkpt lat="45.67296" lon="6.85257">
        <ele>2385.8</ele>
        <time>2021-03-26T10:39:02Z</time>
      </trkpt>
      <trkpt lat="45.67298" lon="6.85256">
        <ele>2385.8</ele>
        <time>2021-03-26T10:39:03Z</time>
      </trkpt>
      <trkpt lat="45.67299" lon="6.85255">
        <ele>2385.8</ele>
        <time>2021-03-26T10:39:04Z</time>
      </trkpt>
      <trkpt lat="45.673" lon="6.85254">
        <ele>2385.8</ele>
        <time>2021-03-26T10:39:05Z</time>
      </trkpt>
      <trkpt lat="45.67301" lon="6.85253">
        <ele>2385.9</ele>
        <time>2021-03-26T10:39:06Z</time>
      </trkpt>
      <trkpt lat="45.67302" lon="6.85252">
        <ele>2385.9</ele>
        <time>2021-03-26T10:39:07Z</time>
      </trkpt>
      <trkpt lat="45.67302" lon="6.85252">
        <ele>2385.9</ele>
        <time>2021-03-26T10:39:08Z</time>
      </trkpt>
      <trkpt lat="45.67304" lon="6.8525">
        <ele>2385.9</ele>
        <time>2021-03-26T10:39:09Z</time>
      </trkpt>
      <trkpt lat="45.67305" lon="6.8525">
        <ele>2386</ele>
        <time>2021-03-26T10:39:10Z</time>
      </trkpt>
      <trkpt lat="45.67306" lon="6.85249">
        <ele>2386</ele>
        <time>2021-03-26T10:39:11Z</time>
      </trkpt>
      <trkpt lat="45.67307" lon="6.85248">
        <ele>2386</ele>
        <time>2021-03-26T10:39:12Z</time>
      </trkpt>
      <trkpt lat="45.67308" lon="6.85248">
        <ele>2386</ele>
        <time>2021-03-26T10:39:13Z</time>
      </trkpt>
      <trkpt lat="45.67308" lon="6.85247">
        <ele>2386.1</ele>
        <time>2021-03-26T10:39:14Z</time>
      </trkpt>
      <trkpt lat="45.67309" lon="6.85246">
        <ele>2386.1</ele>
        <time>2021-03-26T10:39:15Z</time>
      </trkpt>
      <trkpt lat="45.6731" lon="6.85245">
        <ele>2386.1</ele>
        <time>2021-03-26T10:39:16Z</time>
      </trkpt>
      <trkpt lat="45.67312" lon="6.85244">
        <ele>2386.1</ele>
        <time>2021-03-26T10:39:17Z</time>
      </trkpt>
      <trkpt lat="45.67313" lon="6.85244">
        <ele>2386.1</ele>
        <time>2021-03-26T10:39:18Z</time>
      </trkpt>
      <trkpt lat="45.67314" lon="6.85243">
        <ele>2386.2</ele>
        <time>2021-03-26T10:39:19Z</time>
      </trkpt>
      <trkpt lat="45.67315" lon="6.85242">
        <ele>2386.2</ele>
        <time>2021-03-26T10:39:20Z</time>
      </trkpt>
      <trkpt lat="45.67315" lon="6.85242">
        <ele>2386.2</ele>
        <time>2021-03-26T10:39:21Z</time>
      </trkpt>
      <trkpt lat="45.67316" lon="6.85241">
        <ele>2386.2</ele>
        <time>2021-03-26T10:39:22Z</time>
      </trkpt>
      <trkpt lat="45.67317" lon="6.8524">
        <ele>2386.2</ele>
        <time>2021-03-26T10:39:23Z</time>
      </trkpt>
      <trkpt lat="45.67318" lon="6.85239">
        <ele>2386.3</ele>
        <time>2021-03-26T10:39:24Z</time>
      </trkpt>
      <trkpt lat="45.67319" lon="6.85238">
        <ele>2386.3</ele>
        <time>2021-03-26T10:39:25Z</time>
      </trkpt>
      <trkpt lat="45.6732" lon="6.85237">
        <ele>2386.3</ele>
        <time>2021-03-26T10:39:26Z</time>
      </trkpt>
      <trkpt lat="45.67321" lon="6.85237">
        <ele>2386.3</ele>
        <time>2021-03-26T10:39:27Z</time>
      </trkpt>
      <trkpt lat="45.67322" lon="6.85236">
        <ele>2386.3</ele>
        <time>2021-03-26T10:39:28Z</time>
      </trkpt>
      <trkpt lat="45.67323" lon="6.85235">
        <ele>2386.4</ele>
        <time>2021-03-26T10:39:29Z</time>
      </trkpt>
      <trkpt lat="45.67324" lon="6.85235">
        <ele>2386.4</ele>
        <time>2021-03-26T10:39:30Z</time>
      </trkpt>
      <trkpt lat="45.67324" lon="6.85234">
        <ele>2386.4</ele>
        <time>2021-03-26T10:39:31Z</time>
      </trkpt>
      <trkpt lat="45.67325" lon="6.85234">
        <ele>2386.4</ele>
        <time>2021-03-26T10:39:32Z</time>
      </trkpt>
      <trkpt lat="45.67326" lon="6.85234">
        <ele>2386.4</ele>
        <time>2021-03-26T10:39:33Z</time>
      </trkpt>
      <trkpt lat="45.67327" lon="6.85233">
        <ele>2386.4</ele>
        <time>2021-03-26T10:39:34Z</time>
      </trkpt>
      <trkpt lat="45.67328" lon="6.85233">
        <ele>2386.4</ele>
        <time>2021-03-26T10:39:35Z</time>
      </trkpt>
      <trkpt lat="45.67329" lon="6.85232">
        <ele>2386.5</ele>
        <time>2021-03-26T10:39:36Z</time>
      </trkpt>
      <trkpt lat="45.67329" lon="6.85232">
        <ele>2386.5</ele>
        <time>2021-03-26T10:39:37Z</time>
      </trkpt>
      <trkpt lat="45.6733" lon="6.85231">
        <ele>2386.5</ele>
        <time>2021-03-26T10:39:38Z</time>
      </trkpt>
      <trkpt lat="45.67331" lon="6.8523">
        <ele>2386.5</ele>
        <time>2021-03-26T10:39:39Z</time>
      </trkpt>
      <trkpt lat="45.67332" lon="6.8523">
        <ele>2386.5</ele>
        <time>2021-03-26T10:39:40Z</time>
      </trkpt>
      <trkpt lat="45.67333" lon="6.85229">
        <ele>2386.5</ele>
        <time>2021-03-26T10:39:41Z</time>
      </trkpt>
      <trkpt lat="45.67334" lon="6.85228">
        <ele>2386.5</ele>
        <time>2021-03-26T10:39:42Z</time>
      </trkpt>
      <trkpt lat="45.67335" lon="6.85227">
        <ele>2386.5</ele>
        <time>2021-03-26T10:39:43Z</time>
      </trkpt>
      <trkpt lat="45.67335" lon="6.85227">
        <ele>2386.5</ele>
        <time>2021-03-26T10:39:44Z</time>
      </trkpt>
      <trkpt lat="45.67336" lon="6.85226">
        <ele>2386.5</ele>
        <time>2021-03-26T10:39:45Z</time>
      </trkpt>
      <trkpt lat="45.67337" lon="6.85225">
        <ele>2386.6</ele>
        <time>2021-03-26T10:39:46Z</time>
      </trkpt>
      <trkpt lat="45.67338" lon="6.85224">
        <ele>2386.6</ele>
        <time>2021-03-26T10:39:47Z</time>
      </trkpt>
      <trkpt lat="45.67339" lon="6.85223">
        <ele>2386.6</ele>
        <time>2021-03-26T10:39:48Z</time>
      </trkpt>
      <trkpt lat="45.67339" lon="6.85222">
        <ele>2386.6</ele>
        <time>2021-03-26T10:39:49Z</time>
      </trkpt>
      <trkpt lat="45.6734" lon="6.85222">
        <ele>2386.6</ele>
        <time>2021-03-26T10:39:50Z</time>
      </trkpt>
      <trkpt lat="45.67341" lon="6.85221">
        <ele>2386.6</ele>
        <time>2021-03-26T10:39:51Z</time>
      </trkpt>
      <trkpt lat="45.67342" lon="6.8522">
        <ele>2386.6</ele>
        <time>2021-03-26T10:39:52Z</time>
      </trkpt>
      <trkpt lat="45.67343" lon="6.8522">
        <ele>2386.6</ele>
        <time>2021-03-26T10:39:53Z</time>
      </trkpt>
      <trkpt lat="45.67343" lon="6.85219">
        <ele>2386.6</ele>
        <time>2021-03-26T10:39:54Z</time>
      </trkpt>
      <trkpt lat="45.67344" lon="6.85219">
        <ele>2386.6</ele>
        <time>2021-03-26T10:39:55Z</time>
      </trkpt>
      <trkpt lat="45.67345" lon="6.85218">
        <ele>2386.6</ele>
        <time>2021-03-26T10:39:56Z</time>
      </trkpt>
      <trkpt lat="45.67346" lon="6.85217">
        <ele>2386.6</ele>
        <time>2021-03-26T10:39:57Z</time>
      </trkpt>
      <trkpt lat="45.67347" lon="6.85217">
        <ele>2386.7</ele>
        <time>2021-03-26T10:39:58Z</time>
      </trkpt>
      <trkpt lat="45.67347" lon="6.85216">
        <ele>2386.7</ele>
        <time>2021-03-26T10:39:59Z</time>
      </trkpt>
      <trkpt lat="45.67348" lon="6.85216">
        <ele>2386.7</ele>
        <time>2021-03-26T10:40:00Z</time>
      </trkpt>
      <trkpt lat="45.67349" lon="6.85215">
        <ele>2386.7</ele>
        <time>2021-03-26T10:40:01Z</time>
      </trkpt>
      <trkpt lat="45.67349" lon="6.85215">
        <ele>2386.7</ele>
        <time>2021-03-26T10:40:02Z</time>
      </trkpt>
      <trkpt lat="45.6735" lon="6.85215">
        <ele>2386.7</ele>
        <time>2021-03-26T10:40:03Z</time>
      </trkpt>
      <trkpt lat="45.67351" lon="6.85214">
        <ele>2386.7</ele>
        <time>2021-03-26T10:40:04Z</time>
      </trkpt>
      <trkpt lat="45.67351" lon="6.85214">
        <ele>2386.7</ele>
        <time>2021-03-26T10:40:05Z</time>
      </trkpt>
      <trkpt lat="45.67352" lon="6.85214">
        <ele>2386.7</ele>
        <time>2021-03-26T10:40:06Z</time>
      </trkpt>
      <trkpt lat="45.67353" lon="6.85214">
        <ele>2386.7</ele>
        <time>2021-03-26T10:40:07Z</time>
      </trkpt>
      <trkpt lat="45.67353" lon="6.85214">
        <ele>2386.7</ele>
        <time>2021-03-26T10:40:08Z</time>
      </trkpt>
      <trkpt lat="45.67354" lon="6.85214">
        <ele>2386.7</ele>
        <time>2021-03-26T10:40:09Z</time>
      </trkpt>
      <trkpt lat="45.67355" lon="6.85213">
        <ele>2386.7</ele>
        <time>2021-03-26T10:40:10Z</time>
      </trkpt>
      <trkpt lat="45.67355" lon="6.85213">
        <ele>2386.7</ele>
        <time>2021-03-26T10:40:11Z</time>
      </trkpt>
      <trkpt lat="45.67356" lon="6.85212">
        <ele>2386.7</ele>
        <time>2021-03-26T10:40:12Z</time>
      </trkpt>
      <trkpt lat="45.67357" lon="6.85212">
        <ele>2386.7</ele>
        <time>2021-03-26T10:40:13Z</time>
      </trkpt>
      <trkpt lat="45.67358" lon="6.85212">
        <ele>2386.7</ele>
        <time>2021-03-26T10:40:14Z</time>
      </trkpt>
      <trkpt lat="45.67358" lon="6.85212">
        <ele>2386.7</ele>
        <time>2021-03-26T10:40:15Z</time>
      </trkpt>
      <trkpt lat="45.67359" lon="6.85211">
        <ele>2386.7</ele>
        <time>2021-03-26T10:40:16Z</time>
      </trkpt>
      <trkpt lat="45.6736" lon="6.85211">
        <ele>2386.6</ele>
        <time>2021-03-26T10:40:17Z</time>
      </trkpt>
      <trkpt lat="45.67361" lon="6.8521">
        <ele>2386.6</ele>
        <time>2021-03-26T10:40:18Z</time>
      </trkpt>
      <trkpt lat="45.67362" lon="6.8521">
        <ele>2386.6</ele>
        <time>2021-03-26T10:40:19Z</time>
      </trkpt>
      <trkpt lat="45.67362" lon="6.8521">
        <ele>2386.5</ele>
        <time>2021-03-26T10:40:20Z</time>
      </trkpt>
      <trkpt lat="45.67363" lon="6.85209">
        <ele>2386.5</ele>
        <time>2021-03-26T10:40:21Z</time>
      </trkpt>
      <trkpt lat="45.67364" lon="6.85209">
        <ele>2386.5</ele>
        <time>2021-03-26T10:40:22Z</time>
      </trkpt>
      <trkpt lat="45.67365" lon="6.85208">
        <ele>2386.4</ele>
        <time>2021-03-26T10:40:23Z</time>
      </trkpt>
      <trkpt lat="45.67365" lon="6.85208">
        <ele>2386.4</ele>
        <time>2021-03-26T10:40:24Z</time>
      </trkpt>
      <trkpt lat="45.67366" lon="6.85208">
        <ele>2386.4</ele>
        <time>2021-03-26T10:40:25Z</time>
      </trkpt>
      <trkpt lat="45.67367" lon="6.85207">
        <ele>2386.4</ele>
        <time>2021-03-26T10:40:26Z</time>
      </trkpt>
      <trkpt lat="45.67368" lon="6.85207">
        <ele>2386.3</ele>
        <time>2021-03-26T10:40:27Z</time>
      </trkpt>
      <trkpt lat="45.67368" lon="6.85207">
        <ele>2386.3</ele>
        <time>2021-03-26T10:40:28Z</time>
      </trkpt>
      <trkpt lat="45.67369" lon="6.85206">
        <ele>2386.3</ele>
        <time>2021-03-26T10:40:29Z</time>
      </trkpt>
      <trkpt lat="45.6737" lon="6.85206">
        <ele>2386.3</ele>
        <time>2021-03-26T10:40:30Z</time>
      </trkpt>
      <trkpt lat="45.6737" lon="6.85206">
        <ele>2386.3</ele>
        <time>2021-03-26T10:40:31Z</time>
      </trkpt>
      <trkpt lat="45.67371" lon="6.85205">
        <ele>2386.2</ele>
        <time>2021-03-26T10:40:32Z</time>
      </trkpt>
      <trkpt lat="45.67372" lon="6.85205">
        <ele>2386.2</ele>
        <time>2021-03-26T10:40:33Z</time>
      </trkpt>
      <trkpt lat="45.67373" lon="6.85205">
        <ele>2386.2</ele>
        <time>2021-03-26T10:40:34Z</time>
      </trkpt>
      <trkpt lat="45.67373" lon="6.85205">
        <ele>2386.2</ele>
        <time>2021-03-26T10:40:35Z</time>
      </trkpt>
      <trkpt lat="45.67374" lon="6.85205">
        <ele>2386.2</ele>
        <time>2021-03-26T10:40:36Z</time>
      </trkpt>
      <trkpt lat="45.67375" lon="6.85205">
        <ele>2386.2</ele>
        <time>2021-03-26T10:40:37Z</time>
      </trkpt>
      <trkpt lat="45.67376" lon="6.85205">
        <ele>2386.2</ele>
        <time>2021-03-26T10:40:38Z</time>
      </trkpt>
      <trkpt lat="45.67377" lon="6.85204">
        <ele>2386.2</ele>
        <time>2021-03-26T10:40:39Z</time>
      </trkpt>
      <trkpt lat="45.67377" lon="6.85204">
        <ele>2386.1</ele>
        <time>2021-03-26T10:40:40Z</time>
      </trkpt>
      <trkpt lat="45.67378" lon="6.85204">
        <ele>2386.1</ele>
        <time>2021-03-26T10:40:41Z</time>
      </trkpt>
      <trkpt lat="45.67379" lon="6.85204">
        <ele>2386.1</ele>
        <time>2021-03-26T10:40:42Z</time>
      </trkpt>
      <trkpt lat="45.67379" lon="6.85203">
        <ele>2386.1</ele>
        <time>2021-03-26T10:40:43Z</time>
      </trkpt>
      <trkpt lat="45.6738" lon="6.85203">
        <ele>2386.1</ele>
        <time>2021-03-26T10:40:44Z</time>
      </trkpt>
      <trkpt lat="45.67381" lon="6.85203">
        <ele>2386.1</ele>
        <time>2021-03-26T10:40:45Z</time>
      </trkpt>
      <trkpt lat="45.67381" lon="6.85202">
        <ele>2386.1</ele>
        <time>2021-03-26T10:40:46Z</time>
      </trkpt>
      <trkpt lat="45.67382" lon="6.85202">
        <ele>2386.1</ele>
        <time>2021-03-26T10:40:47Z</time>
      </trkpt>
      <trkpt lat="45.67382" lon="6.85202">
        <ele>2386.1</ele>
        <time>2021-03-26T10:40:48Z</time>
      </trkpt>
      <trkpt lat="45.67383" lon="6.85201">
        <ele>2386.1</ele>
        <time>2021-03-26T10:40:49Z</time>
      </trkpt>
      <trkpt lat="45.67383" lon="6.85201">
        <ele>2386.1</ele>
        <time>2021-03-26T10:40:50Z</time>
      </trkpt>
      <trkpt lat="45.67384" lon="6.85201">
        <ele>2386.2</ele>
        <time>2021-03-26T10:40:51Z</time>
      </trkpt>
      <trkpt lat="45.67384" lon="6.852">
        <ele>2386.2</ele>
        <time>2021-03-26T10:40:52Z</time>
      </trkpt>
      <trkpt lat="45.67385" lon="6.852">
        <ele>2386.2</ele>
        <time>2021-03-26T10:40:53Z</time>
      </trkpt>
      <trkpt lat="45.67386" lon="6.852">
        <ele>2386.2</ele>
        <time>2021-03-26T10:40:54Z</time>
      </trkpt>
      <trkpt lat="45.67386" lon="6.85199">
        <ele>2386.2</ele>
        <time>2021-03-26T10:40:55Z</time>
      </trkpt>
      <trkpt lat="45.67387" lon="6.85199">
        <ele>2386.2</ele>
        <time>2021-03-26T10:40:56Z</time>
      </trkpt>
      <trkpt lat="45.67388" lon="6.85198">
        <ele>2386.2</ele>
        <time>2021-03-26T10:40:57Z</time>
      </trkpt>
      <trkpt lat="45.67388" lon="6.85198">
        <ele>2386.2</ele>
        <time>2021-03-26T10:40:58Z</time>
      </trkpt>
      <trkpt lat="45.67389" lon="6.85197">
        <ele>2386.2</ele>
        <time>2021-03-26T10:40:59Z</time>
      </trkpt>
      <trkpt lat="45.6739" lon="6.85197">
        <ele>2386.2</ele>
        <time>2021-03-26T10:41:00Z</time>
      </trkpt>
      <trkpt lat="45.6739" lon="6.85196">
        <ele>2386.3</ele>
        <time>2021-03-26T10:41:01Z</time>
      </trkpt>
      <trkpt lat="45.67391" lon="6.85196">
        <ele>2386.3</ele>
        <time>2021-03-26T10:41:02Z</time>
      </trkpt>
      <trkpt lat="45.67392" lon="6.85195">
        <ele>2386.3</ele>
        <time>2021-03-26T10:41:03Z</time>
      </trkpt>
      <trkpt lat="45.67392" lon="6.85195">
        <ele>2386.3</ele>
        <time>2021-03-26T10:41:04Z</time>
      </trkpt>
      <trkpt lat="45.67393" lon="6.85194">
        <ele>2386.3</ele>
        <time>2021-03-26T10:41:05Z</time>
      </trkpt>
      <trkpt lat="45.67394" lon="6.85194">
        <ele>2386.3</ele>
        <time>2021-03-26T10:41:06Z</time>
      </trkpt>
      <trkpt lat="45.67394" lon="6.85194">
        <ele>2386.3</ele>
        <time>2021-03-26T10:41:07Z</time>
      </trkpt>
      <trkpt lat="45.67395" lon="6.85193">
        <ele>2386.3</ele>
        <time>2021-03-26T10:41:08Z</time>
      </trkpt>
      <trkpt lat="45.67395" lon="6.85193">
        <ele>2386.3</ele>
        <time>2021-03-26T10:41:09Z</time>
      </trkpt>
      <trkpt lat="45.67396" lon="6.85193">
        <ele>2386.3</ele>
        <time>2021-03-26T10:41:10Z</time>
      </trkpt>
      <trkpt lat="45.67397" lon="6.85192">
        <ele>2386.3</ele>
        <time>2021-03-26T10:41:11Z</time>
      </trkpt>
      <trkpt lat="45.67398" lon="6.85192">
        <ele>2386.3</ele>
        <time>2021-03-26T10:41:12Z</time>
      </trkpt>
      <trkpt lat="45.67398" lon="6.85191">
        <ele>2386.3</ele>
        <time>2021-03-26T10:41:13Z</time>
      </trkpt>
      <trkpt lat="45.67399" lon="6.85191">
        <ele>2386.3</ele>
        <time>2021-03-26T10:41:14Z</time>
      </trkpt>
      <trkpt lat="45.674" lon="6.8519">
        <ele>2386.3</ele>
        <time>2021-03-26T10:41:15Z</time>
      </trkpt>
      <trkpt lat="45.67401" lon="6.8519">
        <ele>2386.2</ele>
        <time>2021-03-26T10:41:16Z</time>
      </trkpt>
      <trkpt lat="45.67401" lon="6.85189">
        <ele>2386.2</ele>
        <time>2021-03-26T10:41:17Z</time>
      </trkpt>
      <trkpt lat="45.67402" lon="6.85189">
        <ele>2386.2</ele>
        <time>2021-03-26T10:41:18Z</time>
      </trkpt>
      <trkpt lat="45.67403" lon="6.85188">
        <ele>2386.1</ele>
        <time>2021-03-26T10:41:19Z</time>
      </trkpt>
      <trkpt lat="45.67403" lon="6.85187">
        <ele>2386.1</ele>
        <time>2021-03-26T10:41:20Z</time>
      </trkpt>
      <trkpt lat="45.67404" lon="6.85187">
        <ele>2386.1</ele>
        <time>2021-03-26T10:41:21Z</time>
      </trkpt>
      <trkpt lat="45.67404" lon="6.85186">
        <ele>2386</ele>
        <time>2021-03-26T10:41:22Z</time>
      </trkpt>
      <trkpt lat="45.67405" lon="6.85185">
        <ele>2385.9</ele>
        <time>2021-03-26T10:41:23Z</time>
      </trkpt>
      <trkpt lat="45.67406" lon="6.85185">
        <ele>2385.9</ele>
        <time>2021-03-26T10:41:24Z</time>
      </trkpt>
      <trkpt lat="45.67406" lon="6.85184">
        <ele>2385.8</ele>
        <time>2021-03-26T10:41:25Z</time>
      </trkpt>
      <trkpt lat="45.67407" lon="6.85183">
        <ele>2385.8</ele>
        <time>2021-03-26T10:41:26Z</time>
      </trkpt>
      <trkpt lat="45.67407" lon="6.85182">
        <ele>2385.7</ele>
        <time>2021-03-26T10:41:27Z</time>
      </trkpt>
      <trkpt lat="45.67408" lon="6.85182">
        <ele>2385.7</ele>
        <time>2021-03-26T10:41:28Z</time>
      </trkpt>
      <trkpt lat="45.67409" lon="6.85181">
        <ele>2385.6</ele>
        <time>2021-03-26T10:41:29Z</time>
      </trkpt>
      <trkpt lat="45.67409" lon="6.8518">
        <ele>2385.5</ele>
        <time>2021-03-26T10:41:30Z</time>
      </trkpt>
      <trkpt lat="45.6741" lon="6.85179">
        <ele>2385.5</ele>
        <time>2021-03-26T10:41:31Z</time>
      </trkpt>
      <trkpt lat="45.67411" lon="6.85179">
        <ele>2385.4</ele>
        <time>2021-03-26T10:41:32Z</time>
      </trkpt>
      <trkpt lat="45.67411" lon="6.85178">
        <ele>2385.3</ele>
        <time>2021-03-26T10:41:33Z</time>
      </trkpt>
      <trkpt lat="45.67412" lon="6.85177">
        <ele>2385.3</ele>
        <time>2021-03-26T10:41:34Z</time>
      </trkpt>
      <trkpt lat="45.67412" lon="6.85176">
        <ele>2385.2</ele>
        <time>2021-03-26T10:41:35Z</time>
      </trkpt>
      <trkpt lat="45.67413" lon="6.85175">
        <ele>2385.2</ele>
        <time>2021-03-26T10:41:36Z</time>
      </trkpt>
      <trkpt lat="45.67413" lon="6.85175">
        <ele>2385.1</ele>
        <time>2021-03-26T10:41:37Z</time>
      </trkpt>
      <trkpt lat="45.67414" lon="6.85174">
        <ele>2385.1</ele>
        <time>2021-03-26T10:41:38Z</time>
      </trkpt>
      <trkpt lat="45.67414" lon="6.85173">
        <ele>2385.1</ele>
        <time>2021-03-26T10:41:39Z</time>
      </trkpt>
      <trkpt lat="45.67415" lon="6.85173">
        <ele>2385</ele>
        <time>2021-03-26T10:41:40Z</time>
      </trkpt>
      <trkpt lat="45.67415" lon="6.85172">
        <ele>2385</ele>
        <time>2021-03-26T10:41:41Z</time>
      </trkpt>
      <trkpt lat="45.67416" lon="6.85171">
        <ele>2385</ele>
        <time>2021-03-26T10:41:42Z</time>
      </trkpt>
      <trkpt lat="45.67416" lon="6.85171">
        <ele>2384.9</ele>
        <time>2021-03-26T10:41:43Z</time>
      </trkpt>
      <trkpt lat="45.67417" lon="6.8517">
        <ele>2384.9</ele>
        <time>2021-03-26T10:41:44Z</time>
      </trkpt>
      <trkpt lat="45.67417" lon="6.85169">
        <ele>2384.9</ele>
        <time>2021-03-26T10:41:45Z</time>
      </trkpt>
      <trkpt lat="45.67418" lon="6.85169">
        <ele>2384.9</ele>
        <time>2021-03-26T10:41:46Z</time>
      </trkpt>
      <trkpt lat="45.67418" lon="6.85168">
        <ele>2384.8</ele>
        <time>2021-03-26T10:41:47Z</time>
      </trkpt>
      <trkpt lat="45.67419" lon="6.85167">
        <ele>2384.8</ele>
        <time>2021-03-26T10:41:48Z</time>
      </trkpt>
      <trkpt lat="45.67419" lon="6.85166">
        <ele>2384.8</ele>
        <time>2021-03-26T10:41:49Z</time>
      </trkpt>
      <trkpt lat="45.6742" lon="6.85166">
        <ele>2384.8</ele>
        <time>2021-03-26T10:41:50Z</time>
      </trkpt>
      <trkpt lat="45.6742" lon="6.85165">
        <ele>2384.7</ele>
        <time>2021-03-26T10:41:51Z</time>
      </trkpt>
      <trkpt lat="45.67421" lon="6.85164">
        <ele>2384.7</ele>
        <time>2021-03-26T10:41:52Z</time>
      </trkpt>
      <trkpt lat="45.67421" lon="6.85163">
        <ele>2384.7</ele>
        <time>2021-03-26T10:41:53Z</time>
      </trkpt>
      <trkpt lat="45.67422" lon="6.85162">
        <ele>2384.6</ele>
        <time>2021-03-26T10:41:54Z</time>
      </trkpt>
      <trkpt lat="45.67422" lon="6.85161">
        <ele>2384.6</ele>
        <time>2021-03-26T10:41:55Z</time>
      </trkpt>
      <trkpt lat="45.67423" lon="6.8516">
        <ele>2384.6</ele>
        <time>2021-03-26T10:41:56Z</time>
      </trkpt>
      <trkpt lat="45.67424" lon="6.8516">
        <ele>2384.5</ele>
        <time>2021-03-26T10:41:57Z</time>
      </trkpt>
      <trkpt lat="45.67424" lon="6.85159">
        <ele>2384.5</ele>
        <time>2021-03-26T10:41:58Z</time>
      </trkpt>
      <trkpt lat="45.67425" lon="6.85158">
        <ele>2384.5</ele>
        <time>2021-03-26T10:41:59Z</time>
      </trkpt>
      <trkpt lat="45.67426" lon="6.85157">
        <ele>2384.4</ele>
        <time>2021-03-26T10:42:00Z</time>
      </trkpt>
      <trkpt lat="45.67426" lon="6.85157">
        <ele>2384.4</ele>
        <time>2021-03-26T10:42:01Z</time>
      </trkpt>
      <trkpt lat="45.67427" lon="6.85156">
        <ele>2384.3</ele>
        <time>2021-03-26T10:42:02Z</time>
      </trkpt>
      <trkpt lat="45.67427" lon="6.85155">
        <ele>2384.3</ele>
        <time>2021-03-26T10:42:03Z</time>
      </trkpt>
      <trkpt lat="45.67428" lon="6.85155">
        <ele>2384.3</ele>
        <time>2021-03-26T10:42:04Z</time>
      </trkpt>
      <trkpt lat="45.67429" lon="6.85154">
        <ele>2384.2</ele>
        <time>2021-03-26T10:42:05Z</time>
      </trkpt>
      <trkpt lat="45.67429" lon="6.85153">
        <ele>2384.2</ele>
        <time>2021-03-26T10:42:06Z</time>
      </trkpt>
      <trkpt lat="45.6743" lon="6.85153">
        <ele>2384.2</ele>
        <time>2021-03-26T10:42:07Z</time>
      </trkpt>
      <trkpt lat="45.67431" lon="6.85152">
        <ele>2384.1</ele>
        <time>2021-03-26T10:42:08Z</time>
      </trkpt>
      <trkpt lat="45.67431" lon="6.85152">
        <ele>2384.1</ele>
        <time>2021-03-26T10:42:09Z</time>
      </trkpt>
      <trkpt lat="45.67432" lon="6.85151">
        <ele>2384</ele>
        <time>2021-03-26T10:42:10Z</time>
      </trkpt>
      <trkpt lat="45.67432" lon="6.8515">
        <ele>2384</ele>
        <time>2021-03-26T10:42:11Z</time>
      </trkpt>
      <trkpt lat="45.67433" lon="6.8515">
        <ele>2383.9</ele>
        <time>2021-03-26T10:42:12Z</time>
      </trkpt>
      <trkpt lat="45.67434" lon="6.85149">
        <ele>2383.9</ele>
        <time>2021-03-26T10:42:13Z</time>
      </trkpt>
      <trkpt lat="45.67434" lon="6.85148">
        <ele>2383.8</ele>
        <time>2021-03-26T10:42:14Z</time>
      </trkpt>
      <trkpt lat="45.67435" lon="6.85148">
        <ele>2383.8</ele>
        <time>2021-03-26T10:42:15Z</time>
      </trkpt>
      <trkpt lat="45.67436" lon="6.85147">
        <ele>2383.8</ele>
        <time>2021-03-26T10:42:16Z</time>
      </trkpt>
      <trkpt lat="45.67436" lon="6.85146">
        <ele>2383.7</ele>
        <time>2021-03-26T10:42:17Z</time>
      </trkpt>
      <trkpt lat="45.67437" lon="6.85145">
        <ele>2383.7</ele>
        <time>2021-03-26T10:42:18Z</time>
      </trkpt>
      <trkpt lat="45.67437" lon="6.85145">
        <ele>2383.6</ele>
        <time>2021-03-26T10:42:19Z</time>
      </trkpt>
      <trkpt lat="45.67438" lon="6.85144">
        <ele>2383.6</ele>
        <time>2021-03-26T10:42:20Z</time>
      </trkpt>
      <trkpt lat="45.67439" lon="6.85143">
        <ele>2383.5</ele>
        <time>2021-03-26T10:42:21Z</time>
      </trkpt>
      <trkpt lat="45.6744" lon="6.85142">
        <ele>2383.4</ele>
        <time>2021-03-26T10:42:22Z</time>
      </trkpt>
      <trkpt lat="45.67441" lon="6.85142">
        <ele>2383.4</ele>
        <time>2021-03-26T10:42:23Z</time>
      </trkpt>
      <trkpt lat="45.67441" lon="6.85141">
        <ele>2383.3</ele>
        <time>2021-03-26T10:42:24Z</time>
      </trkpt>
      <trkpt lat="45.67442" lon="6.8514">
        <ele>2383.3</ele>
        <time>2021-03-26T10:42:25Z</time>
      </trkpt>
      <trkpt lat="45.67443" lon="6.8514">
        <ele>2383.3</ele>
        <time>2021-03-26T10:42:26Z</time>
      </trkpt>
      <trkpt lat="45.67443" lon="6.85139">
        <ele>2383.2</ele>
        <time>2021-03-26T10:42:27Z</time>
      </trkpt>
      <trkpt lat="45.67444" lon="6.85138">
        <ele>2383.2</ele>
        <time>2021-03-26T10:42:28Z</time>
      </trkpt>
      <trkpt lat="45.67444" lon="6.85138">
        <ele>2383.1</ele>
        <time>2021-03-26T10:42:29Z</time>
      </trkpt>
      <trkpt lat="45.67445" lon="6.85137">
        <ele>2383.1</ele>
        <time>2021-03-26T10:42:30Z</time>
      </trkpt>
      <trkpt lat="45.67445" lon="6.85137">
        <ele>2383.1</ele>
        <time>2021-03-26T10:42:31Z</time>
      </trkpt>
      <trkpt lat="45.67446" lon="6.85136">
        <ele>2383.1</ele>
        <time>2021-03-26T10:42:32Z</time>
      </trkpt>
      <trkpt lat="45.67447" lon="6.85135">
        <ele>2383</ele>
        <time>2021-03-26T10:42:33Z</time>
      </trkpt>
      <trkpt lat="45.67447" lon="6.85135">
        <ele>2383</ele>
        <time>2021-03-26T10:42:34Z</time>
      </trkpt>
      <trkpt lat="45.67448" lon="6.85134">
        <ele>2383</ele>
        <time>2021-03-26T10:42:35Z</time>
      </trkpt>
      <trkpt lat="45.67448" lon="6.85133">
        <ele>2382.8</ele>
        <time>2021-03-26T10:42:36Z</time>
      </trkpt>
      <trkpt lat="45.67449" lon="6.85132">
        <ele>2382.9</ele>
        <time>2021-03-26T10:42:37Z</time>
      </trkpt>
      <trkpt lat="45.6745" lon="6.85132">
        <ele>2383</ele>
        <time>2021-03-26T10:42:38Z</time>
      </trkpt>
      <trkpt lat="45.67451" lon="6.85131">
        <ele>2383</ele>
        <time>2021-03-26T10:42:39Z</time>
      </trkpt>
      <trkpt lat="45.67451" lon="6.85131">
        <ele>2383.1</ele>
        <time>2021-03-26T10:42:40Z</time>
      </trkpt>
      <trkpt lat="45.67452" lon="6.8513">
        <ele>2383.1</ele>
        <time>2021-03-26T10:42:41Z</time>
      </trkpt>
      <trkpt lat="45.67452" lon="6.8513">
        <ele>2383.2</ele>
        <time>2021-03-26T10:42:42Z</time>
      </trkpt>
      <trkpt lat="45.67453" lon="6.85129">
        <ele>2383.2</ele>
        <time>2021-03-26T10:42:43Z</time>
      </trkpt>
      <trkpt lat="45.67453" lon="6.85129">
        <ele>2383.3</ele>
        <time>2021-03-26T10:42:44Z</time>
      </trkpt>
      <trkpt lat="45.67454" lon="6.85128">
        <ele>2383.3</ele>
        <time>2021-03-26T10:42:45Z</time>
      </trkpt>
      <trkpt lat="45.67455" lon="6.85127">
        <ele>2383.4</ele>
        <time>2021-03-26T10:42:46Z</time>
      </trkpt>
      <trkpt lat="45.67456" lon="6.85127">
        <ele>2383.5</ele>
        <time>2021-03-26T10:42:47Z</time>
      </trkpt>
      <trkpt lat="45.67456" lon="6.85126">
        <ele>2383.5</ele>
        <time>2021-03-26T10:42:48Z</time>
      </trkpt>
      <trkpt lat="45.67457" lon="6.85126">
        <ele>2383.6</ele>
        <time>2021-03-26T10:42:49Z</time>
      </trkpt>
      <trkpt lat="45.67458" lon="6.85125">
        <ele>2383.6</ele>
        <time>2021-03-26T10:42:50Z</time>
      </trkpt>
      <trkpt lat="45.67458" lon="6.85125">
        <ele>2383.7</ele>
        <time>2021-03-26T10:42:51Z</time>
      </trkpt>
      <trkpt lat="45.67459" lon="6.85124">
        <ele>2383.7</ele>
        <time>2021-03-26T10:42:52Z</time>
      </trkpt>
      <trkpt lat="45.67459" lon="6.85124">
        <ele>2383.8</ele>
        <time>2021-03-26T10:42:53Z</time>
      </trkpt>
      <trkpt lat="45.6746" lon="6.85124">
        <ele>2383.8</ele>
        <time>2021-03-26T10:42:54Z</time>
      </trkpt>
      <trkpt lat="45.67461" lon="6.85124">
        <ele>2383.9</ele>
        <time>2021-03-26T10:42:55Z</time>
      </trkpt>
      <trkpt lat="45.67461" lon="6.85123">
        <ele>2383.9</ele>
        <time>2021-03-26T10:42:56Z</time>
      </trkpt>
      <trkpt lat="45.67462" lon="6.85123">
        <ele>2383.9</ele>
        <time>2021-03-26T10:42:57Z</time>
      </trkpt>
      <trkpt lat="45.67462" lon="6.85122">
        <ele>2384</ele>
        <time>2021-03-26T10:42:58Z</time>
      </trkpt>
      <trkpt lat="45.67463" lon="6.85122">
        <ele>2384</ele>
        <time>2021-03-26T10:42:59Z</time>
      </trkpt>
      <trkpt lat="45.67464" lon="6.85122">
        <ele>2384.1</ele>
        <time>2021-03-26T10:43:00Z</time>
      </trkpt>
      <trkpt lat="45.67465" lon="6.85122">
        <ele>2384.2</ele>
        <time>2021-03-26T10:43:01Z</time>
      </trkpt>
      <trkpt lat="45.67466" lon="6.85121">
        <ele>2384.2</ele>
        <time>2021-03-26T10:43:02Z</time>
      </trkpt>
      <trkpt lat="45.67466" lon="6.85121">
        <ele>2384.3</ele>
        <time>2021-03-26T10:43:03Z</time>
      </trkpt>
      <trkpt lat="45.67467" lon="6.85121">
        <ele>2384.3</ele>
        <time>2021-03-26T10:43:04Z</time>
      </trkpt>
      <trkpt lat="45.67468" lon="6.8512">
        <ele>2384.4</ele>
        <time>2021-03-26T10:43:05Z</time>
      </trkpt>
      <trkpt lat="45.67469" lon="6.8512">
        <ele>2384.4</ele>
        <time>2021-03-26T10:43:06Z</time>
      </trkpt>
      <trkpt lat="45.6747" lon="6.85119">
        <ele>2384.5</ele>
        <time>2021-03-26T10:43:07Z</time>
      </trkpt>
      <trkpt lat="45.6747" lon="6.85119">
        <ele>2384.6</ele>
        <time>2021-03-26T10:43:08Z</time>
      </trkpt>
      <trkpt lat="45.67471" lon="6.85118">
        <ele>2384.6</ele>
        <time>2021-03-26T10:43:09Z</time>
      </trkpt>
      <trkpt lat="45.67471" lon="6.85118">
        <ele>2384.7</ele>
        <time>2021-03-26T10:43:10Z</time>
      </trkpt>
      <trkpt lat="45.67472" lon="6.85117">
        <ele>2384.7</ele>
        <time>2021-03-26T10:43:11Z</time>
      </trkpt>
      <trkpt lat="45.67473" lon="6.85117">
        <ele>2384.8</ele>
        <time>2021-03-26T10:43:12Z</time>
      </trkpt>
      <trkpt lat="45.67473" lon="6.85117">
        <ele>2384.8</ele>
        <time>2021-03-26T10:43:13Z</time>
      </trkpt>
      <trkpt lat="45.67474" lon="6.85116">
        <ele>2384.9</ele>
        <time>2021-03-26T10:43:14Z</time>
      </trkpt>
      <trkpt lat="45.67475" lon="6.85116">
        <ele>2384.9</ele>
        <time>2021-03-26T10:43:15Z</time>
      </trkpt>
      <trkpt lat="45.67475" lon="6.85115">
        <ele>2385</ele>
        <time>2021-03-26T10:43:16Z</time>
      </trkpt>
      <trkpt lat="45.67476" lon="6.85115">
        <ele>2385.1</ele>
        <time>2021-03-26T10:43:17Z</time>
      </trkpt>
      <trkpt lat="45.67476" lon="6.85114">
        <ele>2385.1</ele>
        <time>2021-03-26T10:43:18Z</time>
      </trkpt>
      <trkpt lat="45.67477" lon="6.85114">
        <ele>2385.1</ele>
        <time>2021-03-26T10:43:19Z</time>
      </trkpt>
      <trkpt lat="45.67477" lon="6.85114">
        <ele>2385.2</ele>
        <time>2021-03-26T10:43:20Z</time>
      </trkpt>
      <trkpt lat="45.67478" lon="6.85113">
        <ele>2385.2</ele>
        <time>2021-03-26T10:43:21Z</time>
      </trkpt>
      <trkpt lat="45.67478" lon="6.85113">
        <ele>2385.3</ele>
        <time>2021-03-26T10:43:22Z</time>
      </trkpt>
      <trkpt lat="45.67479" lon="6.85112">
        <ele>2385.3</ele>
        <time>2021-03-26T10:43:23Z</time>
      </trkpt>
      <trkpt lat="45.67479" lon="6.85111">
        <ele>2385.4</ele>
        <time>2021-03-26T10:43:24Z</time>
      </trkpt>
      <trkpt lat="45.6748" lon="6.85111">
        <ele>2385.4</ele>
        <time>2021-03-26T10:43:25Z</time>
      </trkpt>
      <trkpt lat="45.6748" lon="6.8511">
        <ele>2385.5</ele>
        <time>2021-03-26T10:43:26Z</time>
      </trkpt>
      <trkpt lat="45.67481" lon="6.8511">
        <ele>2385.5</ele>
        <time>2021-03-26T10:43:27Z</time>
      </trkpt>
      <trkpt lat="45.67481" lon="6.8511">
        <ele>2385.6</ele>
        <time>2021-03-26T10:43:28Z</time>
      </trkpt>
      <trkpt lat="45.67482" lon="6.8511">
        <ele>2385.6</ele>
        <time>2021-03-26T10:43:29Z</time>
      </trkpt>
      <trkpt lat="45.67483" lon="6.85109">
        <ele>2385.7</ele>
        <time>2021-03-26T10:43:30Z</time>
      </trkpt>
      <trkpt lat="45.67483" lon="6.85109">
        <ele>2385.7</ele>
        <time>2021-03-26T10:43:31Z</time>
      </trkpt>
      <trkpt lat="45.67484" lon="6.85109">
        <ele>2385.8</ele>
        <time>2021-03-26T10:43:32Z</time>
      </trkpt>
      <trkpt lat="45.67485" lon="6.85108">
        <ele>2385.8</ele>
        <time>2021-03-26T10:43:33Z</time>
      </trkpt>
      <trkpt lat="45.67485" lon="6.85108">
        <ele>2385.9</ele>
        <time>2021-03-26T10:43:34Z</time>
      </trkpt>
      <trkpt lat="45.67486" lon="6.85107">
        <ele>2386</ele>
        <time>2021-03-26T10:43:35Z</time>
      </trkpt>
      <trkpt lat="45.67487" lon="6.85107">
        <ele>2386</ele>
        <time>2021-03-26T10:43:36Z</time>
      </trkpt>
      <trkpt lat="45.67488" lon="6.85106">
        <ele>2386.1</ele>
        <time>2021-03-26T10:43:37Z</time>
      </trkpt>
      <trkpt lat="45.67489" lon="6.85105">
        <ele>2386.2</ele>
        <time>2021-03-26T10:43:38Z</time>
      </trkpt>
      <trkpt lat="45.6749" lon="6.85104">
        <ele>2386.2</ele>
        <time>2021-03-26T10:43:39Z</time>
      </trkpt>
      <trkpt lat="45.6749" lon="6.85103">
        <ele>2386.3</ele>
        <time>2021-03-26T10:43:40Z</time>
      </trkpt>
      <trkpt lat="45.67491" lon="6.85103">
        <ele>2386.4</ele>
        <time>2021-03-26T10:43:41Z</time>
      </trkpt>
      <trkpt lat="45.67492" lon="6.85102">
        <ele>2386.4</ele>
        <time>2021-03-26T10:43:42Z</time>
      </trkpt>
      <trkpt lat="45.67492" lon="6.85101">
        <ele>2386.5</ele>
        <time>2021-03-26T10:43:43Z</time>
      </trkpt>
      <trkpt lat="45.67493" lon="6.85101">
        <ele>2386.5</ele>
        <time>2021-03-26T10:43:44Z</time>
      </trkpt>
      <trkpt lat="45.67494" lon="6.851">
        <ele>2386.6</ele>
        <time>2021-03-26T10:43:45Z</time>
      </trkpt>
      <trkpt lat="45.67494" lon="6.85099">
        <ele>2386.6</ele>
        <time>2021-03-26T10:43:46Z</time>
      </trkpt>
      <trkpt lat="45.67495" lon="6.85098">
        <ele>2386.7</ele>
        <time>2021-03-26T10:43:47Z</time>
      </trkpt>
      <trkpt lat="45.67496" lon="6.85098">
        <ele>2386.7</ele>
        <time>2021-03-26T10:43:48Z</time>
      </trkpt>
      <trkpt lat="45.67497" lon="6.85097">
        <ele>2386.8</ele>
        <time>2021-03-26T10:43:49Z</time>
      </trkpt>
      <trkpt lat="45.67497" lon="6.85096">
        <ele>2386.9</ele>
        <time>2021-03-26T10:43:50Z</time>
      </trkpt>
      <trkpt lat="45.67498" lon="6.85095">
        <ele>2386.9</ele>
        <time>2021-03-26T10:43:51Z</time>
      </trkpt>
      <trkpt lat="45.67499" lon="6.85094">
        <ele>2387</ele>
        <time>2021-03-26T10:43:52Z</time>
      </trkpt>
      <trkpt lat="45.675" lon="6.85094">
        <ele>2387</ele>
        <time>2021-03-26T10:43:53Z</time>
      </trkpt>
      <trkpt lat="45.675" lon="6.85093">
        <ele>2387.1</ele>
        <time>2021-03-26T10:43:54Z</time>
      </trkpt>
      <trkpt lat="45.67501" lon="6.85092">
        <ele>2387.1</ele>
        <time>2021-03-26T10:43:55Z</time>
      </trkpt>
      <trkpt lat="45.67502" lon="6.85092">
        <ele>2387.2</ele>
        <time>2021-03-26T10:43:56Z</time>
      </trkpt>
      <trkpt lat="45.67503" lon="6.85091">
        <ele>2387.6</ele>
        <time>2021-03-26T10:43:57Z</time>
      </trkpt>
      <trkpt lat="45.67504" lon="6.8509">
        <ele>2387.7</ele>
        <time>2021-03-26T10:43:58Z</time>
      </trkpt>
      <trkpt lat="45.67504" lon="6.8509">
        <ele>2387.8</ele>
        <time>2021-03-26T10:43:59Z</time>
      </trkpt>
      <trkpt lat="45.67505" lon="6.85089">
        <ele>2388</ele>
        <time>2021-03-26T10:44:00Z</time>
      </trkpt>
      <trkpt lat="45.67506" lon="6.85088">
        <ele>2388.1</ele>
        <time>2021-03-26T10:44:01Z</time>
      </trkpt>
      <trkpt lat="45.67507" lon="6.85087">
        <ele>2388.3</ele>
        <time>2021-03-26T10:44:02Z</time>
      </trkpt>
      <trkpt lat="45.67508" lon="6.85086">
        <ele>2388.4</ele>
        <time>2021-03-26T10:44:03Z</time>
      </trkpt>
      <trkpt lat="45.67509" lon="6.85086">
        <ele>2388.6</ele>
        <time>2021-03-26T10:44:04Z</time>
      </trkpt>
      <trkpt lat="45.67509" lon="6.85085">
        <ele>2388.7</ele>
        <time>2021-03-26T10:44:05Z</time>
      </trkpt>
      <trkpt lat="45.6751" lon="6.85084">
        <ele>2388.9</ele>
        <time>2021-03-26T10:44:06Z</time>
      </trkpt>
      <trkpt lat="45.67511" lon="6.85084">
        <ele>2389</ele>
        <time>2021-03-26T10:44:07Z</time>
      </trkpt>
      <trkpt lat="45.67512" lon="6.85083">
        <ele>2389.2</ele>
        <time>2021-03-26T10:44:08Z</time>
      </trkpt>
      <trkpt lat="45.67513" lon="6.85082">
        <ele>2389.4</ele>
        <time>2021-03-26T10:44:09Z</time>
      </trkpt>
      <trkpt lat="45.67513" lon="6.85082">
        <ele>2389.5</ele>
        <time>2021-03-26T10:44:10Z</time>
      </trkpt>
      <trkpt lat="45.67514" lon="6.85081">
        <ele>2389.7</ele>
        <time>2021-03-26T10:44:11Z</time>
      </trkpt>
      <trkpt lat="45.67515" lon="6.85081">
        <ele>2389.9</ele>
        <time>2021-03-26T10:44:12Z</time>
      </trkpt>
      <trkpt lat="45.67516" lon="6.8508">
        <ele>2390.2</ele>
        <time>2021-03-26T10:44:13Z</time>
      </trkpt>
      <trkpt lat="45.67517" lon="6.8508">
        <ele>2390.4</ele>
        <time>2021-03-26T10:44:14Z</time>
      </trkpt>
      <trkpt lat="45.67518" lon="6.8508">
        <ele>2390.6</ele>
        <time>2021-03-26T10:44:15Z</time>
      </trkpt>
      <trkpt lat="45.67519" lon="6.85079">
        <ele>2390.8</ele>
        <time>2021-03-26T10:44:16Z</time>
      </trkpt>
      <trkpt lat="45.6752" lon="6.85079">
        <ele>2391</ele>
        <time>2021-03-26T10:44:17Z</time>
      </trkpt>
      <trkpt lat="45.6752" lon="6.85078">
        <ele>2391.3</ele>
        <time>2021-03-26T10:44:18Z</time>
      </trkpt>
      <trkpt lat="45.67521" lon="6.85078">
        <ele>2391.5</ele>
        <time>2021-03-26T10:44:19Z</time>
      </trkpt>
      <trkpt lat="45.67522" lon="6.85077">
        <ele>2391.7</ele>
        <time>2021-03-26T10:44:20Z</time>
      </trkpt>
      <trkpt lat="45.67522" lon="6.85077">
        <ele>2391.9</ele>
        <time>2021-03-26T10:44:21Z</time>
      </trkpt>
      <trkpt lat="45.67523" lon="6.85076">
        <ele>2392.2</ele>
        <time>2021-03-26T10:44:22Z</time>
      </trkpt>
      <trkpt lat="45.67524" lon="6.85076">
        <ele>2392.4</ele>
        <time>2021-03-26T10:44:23Z</time>
      </trkpt>
      <trkpt lat="45.67525" lon="6.85075">
        <ele>2392.7</ele>
        <time>2021-03-26T10:44:24Z</time>
      </trkpt>
      <trkpt lat="45.67525" lon="6.85074">
        <ele>2392.9</ele>
        <time>2021-03-26T10:44:25Z</time>
      </trkpt>
      <trkpt lat="45.67526" lon="6.85074">
        <ele>2393.2</ele>
        <time>2021-03-26T10:44:26Z</time>
      </trkpt>
      <trkpt lat="45.67526" lon="6.85073">
        <ele>2393.4</ele>
        <time>2021-03-26T10:44:27Z</time>
      </trkpt>
      <trkpt lat="45.67527" lon="6.85073">
        <ele>2393.6</ele>
        <time>2021-03-26T10:44:28Z</time>
      </trkpt>
      <trkpt lat="45.67528" lon="6.85072">
        <ele>2393.9</ele>
        <time>2021-03-26T10:44:29Z</time>
      </trkpt>
      <trkpt lat="45.67529" lon="6.85072">
        <ele>2394.2</ele>
        <time>2021-03-26T10:44:30Z</time>
      </trkpt>
      <trkpt lat="45.67529" lon="6.85072">
        <ele>2394.5</ele>
        <time>2021-03-26T10:44:31Z</time>
      </trkpt>
      <trkpt lat="45.6753" lon="6.85072">
        <ele>2394.8</ele>
        <time>2021-03-26T10:44:32Z</time>
      </trkpt>
      <trkpt lat="45.67531" lon="6.85071">
        <ele>2395.1</ele>
        <time>2021-03-26T10:44:33Z</time>
      </trkpt>
      <trkpt lat="45.67532" lon="6.85071">
        <ele>2395.3</ele>
        <time>2021-03-26T10:44:34Z</time>
      </trkpt>
      <trkpt lat="45.67533" lon="6.85071">
        <ele>2395.6</ele>
        <time>2021-03-26T10:44:35Z</time>
      </trkpt>
      <trkpt lat="45.67533" lon="6.8507">
        <ele>2395.9</ele>
        <time>2021-03-26T10:44:36Z</time>
      </trkpt>
      <trkpt lat="45.67534" lon="6.8507">
        <ele>2396.2</ele>
        <time>2021-03-26T10:44:37Z</time>
      </trkpt>
      <trkpt lat="45.67535" lon="6.8507">
        <ele>2396.5</ele>
        <time>2021-03-26T10:44:38Z</time>
      </trkpt>
      <trkpt lat="45.67536" lon="6.8507">
        <ele>2396.7</ele>
        <time>2021-03-26T10:44:39Z</time>
      </trkpt>
      <trkpt lat="45.67537" lon="6.8507">
        <ele>2397</ele>
        <time>2021-03-26T10:44:40Z</time>
      </trkpt>
      <trkpt lat="45.67537" lon="6.8507">
        <ele>2397.3</ele>
        <time>2021-03-26T10:44:41Z</time>
      </trkpt>
      <trkpt lat="45.67538" lon="6.85069">
        <ele>2397.6</ele>
        <time>2021-03-26T10:44:42Z</time>
      </trkpt>
      <trkpt lat="45.67539" lon="6.85069">
        <ele>2397.9</ele>
        <time>2021-03-26T10:44:43Z</time>
      </trkpt>
      <trkpt lat="45.6754" lon="6.85069">
        <ele>2398.2</ele>
        <time>2021-03-26T10:44:44Z</time>
      </trkpt>
      <trkpt lat="45.67541" lon="6.85069">
        <ele>2398.6</ele>
        <time>2021-03-26T10:44:45Z</time>
      </trkpt>
      <trkpt lat="45.67542" lon="6.85068">
        <ele>2398.9</ele>
        <time>2021-03-26T10:44:46Z</time>
      </trkpt>
      <trkpt lat="45.67542" lon="6.85068">
        <ele>2399.2</ele>
        <time>2021-03-26T10:44:47Z</time>
      </trkpt>
      <trkpt lat="45.67543" lon="6.85068">
        <ele>2399.4</ele>
        <time>2021-03-26T10:44:48Z</time>
      </trkpt>
      <trkpt lat="45.67544" lon="6.85068">
        <ele>2399.7</ele>
        <time>2021-03-26T10:44:49Z</time>
      </trkpt>
      <trkpt lat="45.67545" lon="6.85068">
        <ele>2399.9</ele>
        <time>2021-03-26T10:44:50Z</time>
      </trkpt>
      <trkpt lat="45.67545" lon="6.85068">
        <ele>2400.2</ele>
        <time>2021-03-26T10:44:51Z</time>
      </trkpt>
      <trkpt lat="45.67546" lon="6.85068">
        <ele>2400.4</ele>
        <time>2021-03-26T10:44:52Z</time>
      </trkpt>
      <trkpt lat="45.67546" lon="6.85067">
        <ele>2400.6</ele>
        <time>2021-03-26T10:44:53Z</time>
      </trkpt>
      <trkpt lat="45.67547" lon="6.85067">
        <ele>2400.8</ele>
        <time>2021-03-26T10:44:54Z</time>
      </trkpt>
      <trkpt lat="45.67548" lon="6.85067">
        <ele>2401.1</ele>
        <time>2021-03-26T10:44:55Z</time>
      </trkpt>
      <trkpt lat="45.67548" lon="6.85067">
        <ele>2401.3</ele>
        <time>2021-03-26T10:44:56Z</time>
      </trkpt>
      <trkpt lat="45.67549" lon="6.85067">
        <ele>2401.6</ele>
        <time>2021-03-26T10:44:57Z</time>
      </trkpt>
      <trkpt lat="45.6755" lon="6.85067">
        <ele>2401.8</ele>
        <time>2021-03-26T10:44:58Z</time>
      </trkpt>
      <trkpt lat="45.6755" lon="6.85067">
        <ele>2402</ele>
        <time>2021-03-26T10:44:59Z</time>
      </trkpt>
      <trkpt lat="45.67551" lon="6.85067">
        <ele>2402.2</ele>
        <time>2021-03-26T10:45:00Z</time>
      </trkpt>
      <trkpt lat="45.67551" lon="6.85067">
        <ele>2402.5</ele>
        <time>2021-03-26T10:45:01Z</time>
      </trkpt>
      <trkpt lat="45.67552" lon="6.85067">
        <ele>2402.7</ele>
        <time>2021-03-26T10:45:02Z</time>
      </trkpt>
      <trkpt lat="45.67553" lon="6.85066">
        <ele>2402.9</ele>
        <time>2021-03-26T10:45:03Z</time>
      </trkpt>
      <trkpt lat="45.67553" lon="6.85066">
        <ele>2403.1</ele>
        <time>2021-03-26T10:45:04Z</time>
      </trkpt>
      <trkpt lat="45.67554" lon="6.85066">
        <ele>2403.2</ele>
        <time>2021-03-26T10:45:05Z</time>
      </trkpt>
      <trkpt lat="45.67554" lon="6.85066">
        <ele>2403.4</ele>
        <time>2021-03-26T10:45:06Z</time>
      </trkpt>
      <trkpt lat="45.67554" lon="6.85066">
        <ele>2403.6</ele>
        <time>2021-03-26T10:45:07Z</time>
      </trkpt>
      <trkpt lat="45.67555" lon="6.85065">
        <ele>2403.8</ele>
        <time>2021-03-26T10:45:08Z</time>
      </trkpt>
      <trkpt lat="45.67555" lon="6.85065">
        <ele>2404</ele>
        <time>2021-03-26T10:45:09Z</time>
      </trkpt>
      <trkpt lat="45.67556" lon="6.85065">
        <ele>2404.2</ele>
        <time>2021-03-26T10:45:10Z</time>
      </trkpt>
      <trkpt lat="45.67556" lon="6.85065">
        <ele>2404.4</ele>
        <time>2021-03-26T10:45:11Z</time>
      </trkpt>
      <trkpt lat="45.67557" lon="6.85064">
        <ele>2404.6</ele>
        <time>2021-03-26T10:45:12Z</time>
      </trkpt>
      <trkpt lat="45.67558" lon="6.85064">
        <ele>2404.8</ele>
        <time>2021-03-26T10:45:13Z</time>
      </trkpt>
      <trkpt lat="45.67558" lon="6.85064">
        <ele>2405.1</ele>
        <time>2021-03-26T10:45:14Z</time>
      </trkpt>
      <trkpt lat="45.67559" lon="6.85063">
        <ele>2405.3</ele>
        <time>2021-03-26T10:45:15Z</time>
      </trkpt>
      <trkpt lat="45.6756" lon="6.85063">
        <ele>2405.6</ele>
        <time>2021-03-26T10:45:16Z</time>
      </trkpt>
      <trkpt lat="45.6756" lon="6.85063">
        <ele>2405.8</ele>
        <time>2021-03-26T10:45:17Z</time>
      </trkpt>
      <trkpt lat="45.67561" lon="6.85062">
        <ele>2406</ele>
        <time>2021-03-26T10:45:18Z</time>
      </trkpt>
      <trkpt lat="45.67561" lon="6.85062">
        <ele>2406.2</ele>
        <time>2021-03-26T10:45:19Z</time>
      </trkpt>
      <trkpt lat="45.67562" lon="6.85062">
        <ele>2406.4</ele>
        <time>2021-03-26T10:45:20Z</time>
      </trkpt>
      <trkpt lat="45.67562" lon="6.85061">
        <ele>2406.6</ele>
        <time>2021-03-26T10:45:21Z</time>
      </trkpt>
      <trkpt lat="45.67563" lon="6.85061">
        <ele>2406.8</ele>
        <time>2021-03-26T10:45:22Z</time>
      </trkpt>
      <trkpt lat="45.67563" lon="6.85061">
        <ele>2407</ele>
        <time>2021-03-26T10:45:23Z</time>
      </trkpt>
      <trkpt lat="45.67563" lon="6.8506">
        <ele>2407.1</ele>
        <time>2021-03-26T10:45:24Z</time>
      </trkpt>
      <trkpt lat="45.67564" lon="6.8506">
        <ele>2407.4</ele>
        <time>2021-03-26T10:45:25Z</time>
      </trkpt>
      <trkpt lat="45.67564" lon="6.85059">
        <ele>2407.5</ele>
        <time>2021-03-26T10:45:26Z</time>
      </trkpt>
      <trkpt lat="45.67565" lon="6.85059">
        <ele>2407.8</ele>
        <time>2021-03-26T10:45:27Z</time>
      </trkpt>
      <trkpt lat="45.67565" lon="6.85059">
        <ele>2408</ele>
        <time>2021-03-26T10:45:28Z</time>
      </trkpt>
      <trkpt lat="45.67566" lon="6.85058">
        <ele>2408.2</ele>
        <time>2021-03-26T10:45:29Z</time>
      </trkpt>
      <trkpt lat="45.67566" lon="6.85058">
        <ele>2408.4</ele>
        <time>2021-03-26T10:45:30Z</time>
      </trkpt>
      <trkpt lat="45.67567" lon="6.85057">
        <ele>2408.6</ele>
        <time>2021-03-26T10:45:31Z</time>
      </trkpt>
      <trkpt lat="45.67567" lon="6.85057">
        <ele>2408.9</ele>
        <time>2021-03-26T10:45:32Z</time>
      </trkpt>
      <trkpt lat="45.67568" lon="6.85056">
        <ele>2409.2</ele>
        <time>2021-03-26T10:45:33Z</time>
      </trkpt>
      <trkpt lat="45.67569" lon="6.85056">
        <ele>2409.4</ele>
        <time>2021-03-26T10:45:34Z</time>
      </trkpt>
      <trkpt lat="45.67569" lon="6.85055">
        <ele>2409.7</ele>
        <time>2021-03-26T10:45:35Z</time>
      </trkpt>
      <trkpt lat="45.6757" lon="6.85055">
        <ele>2409.9</ele>
        <time>2021-03-26T10:45:36Z</time>
      </trkpt>
      <trkpt lat="45.6757" lon="6.85054">
        <ele>2410.1</ele>
        <time>2021-03-26T10:45:37Z</time>
      </trkpt>
      <trkpt lat="45.67571" lon="6.85054">
        <ele>2410.3</ele>
        <time>2021-03-26T10:45:38Z</time>
      </trkpt>
      <trkpt lat="45.67571" lon="6.85054">
        <ele>2410.5</ele>
        <time>2021-03-26T10:45:39Z</time>
      </trkpt>
      <trkpt lat="45.67572" lon="6.85053">
        <ele>2410.8</ele>
        <time>2021-03-26T10:45:40Z</time>
      </trkpt>
      <trkpt lat="45.67572" lon="6.85053">
        <ele>2410.9</ele>
        <time>2021-03-26T10:45:41Z</time>
      </trkpt>
      <trkpt lat="45.67573" lon="6.85053">
        <ele>2411.1</ele>
        <time>2021-03-26T10:45:42Z</time>
      </trkpt>
      <trkpt lat="45.67573" lon="6.85052">
        <ele>2411.4</ele>
        <time>2021-03-26T10:45:43Z</time>
      </trkpt>
      <trkpt lat="45.67574" lon="6.85052">
        <ele>2411.5</ele>
        <time>2021-03-26T10:45:44Z</time>
      </trkpt>
      <trkpt lat="45.67574" lon="6.85052">
        <ele>2411.7</ele>
        <time>2021-03-26T10:45:45Z</time>
      </trkpt>
      <trkpt lat="45.67575" lon="6.85051">
        <ele>2411.8</ele>
        <time>2021-03-26T10:45:46Z</time>
      </trkpt>
      <trkpt lat="45.67575" lon="6.85051">
        <ele>2412</ele>
        <time>2021-03-26T10:45:47Z</time>
      </trkpt>
      <trkpt lat="45.67575" lon="6.85051">
        <ele>2412.2</ele>
        <time>2021-03-26T10:45:48Z</time>
      </trkpt>
      <trkpt lat="45.67576" lon="6.85051">
        <ele>2412.3</ele>
        <time>2021-03-26T10:45:49Z</time>
      </trkpt>
      <trkpt lat="45.67576" lon="6.8505">
        <ele>2412.5</ele>
        <time>2021-03-26T10:45:50Z</time>
      </trkpt>
      <trkpt lat="45.67576" lon="6.8505">
        <ele>2412.5</ele>
        <time>2021-03-26T10:45:51Z</time>
      </trkpt>
      <trkpt lat="45.67577" lon="6.8505">
        <ele>2412.9</ele>
        <time>2021-03-26T10:45:52Z</time>
      </trkpt>
      <trkpt lat="45.67578" lon="6.8505">
        <ele>2413.1</ele>
        <time>2021-03-26T10:45:53Z</time>
      </trkpt>
      <trkpt lat="45.67578" lon="6.85049">
        <ele>2413.2</ele>
        <time>2021-03-26T10:45:54Z</time>
      </trkpt>
      <trkpt lat="45.67579" lon="6.85049">
        <ele>2413.5</ele>
        <time>2021-03-26T10:45:55Z</time>
      </trkpt>
      <trkpt lat="45.67579" lon="6.85049">
        <ele>2413.6</ele>
        <time>2021-03-26T10:45:56Z</time>
      </trkpt>
      <trkpt lat="45.6758" lon="6.85048">
        <ele>2413.8</ele>
        <time>2021-03-26T10:45:57Z</time>
      </trkpt>
      <trkpt lat="45.6758" lon="6.85048">
        <ele>2414</ele>
        <time>2021-03-26T10:45:58Z</time>
      </trkpt>
      <trkpt lat="45.6758" lon="6.85048">
        <ele>2414.1</ele>
        <time>2021-03-26T10:45:59Z</time>
      </trkpt>
      <trkpt lat="45.67581" lon="6.85047">
        <ele>2414.3</ele>
        <time>2021-03-26T10:46:00Z</time>
      </trkpt>
      <trkpt lat="45.67581" lon="6.85047">
        <ele>2414.4</ele>
        <time>2021-03-26T10:46:01Z</time>
      </trkpt>
      <trkpt lat="45.67582" lon="6.85047">
        <ele>2414.6</ele>
        <time>2021-03-26T10:46:02Z</time>
      </trkpt>
      <trkpt lat="45.67582" lon="6.85047">
        <ele>2414.7</ele>
        <time>2021-03-26T10:46:03Z</time>
      </trkpt>
      <trkpt lat="45.67582" lon="6.85047">
        <ele>2414.8</ele>
        <time>2021-03-26T10:46:04Z</time>
      </trkpt>
      <trkpt lat="45.67583" lon="6.85046">
        <ele>2415</ele>
        <time>2021-03-26T10:46:05Z</time>
      </trkpt>
      <trkpt lat="45.67583" lon="6.85046">
        <ele>2415.1</ele>
        <time>2021-03-26T10:46:06Z</time>
      </trkpt>
      <trkpt lat="45.67584" lon="6.85046">
        <ele>2415.3</ele>
        <time>2021-03-26T10:46:07Z</time>
      </trkpt>
      <trkpt lat="45.67584" lon="6.85046">
        <ele>2415.4</ele>
        <time>2021-03-26T10:46:08Z</time>
      </trkpt>
      <trkpt lat="45.67584" lon="6.85046">
        <ele>2415.6</ele>
        <time>2021-03-26T10:46:09Z</time>
      </trkpt>
      <trkpt lat="45.67585" lon="6.85046">
        <ele>2415.7</ele>
        <time>2021-03-26T10:46:10Z</time>
      </trkpt>
      <trkpt lat="45.67585" lon="6.85045">
        <ele>2415.9</ele>
        <time>2021-03-26T10:46:11Z</time>
      </trkpt>
      <trkpt lat="45.67586" lon="6.85045">
        <ele>2416.1</ele>
        <time>2021-03-26T10:46:12Z</time>
      </trkpt>
      <trkpt lat="45.67586" lon="6.85044">
        <ele>2416.2</ele>
        <time>2021-03-26T10:46:13Z</time>
      </trkpt>
      <trkpt lat="45.67587" lon="6.85044">
        <ele>2416.4</ele>
        <time>2021-03-26T10:46:14Z</time>
      </trkpt>
      <trkpt lat="45.67587" lon="6.85043">
        <ele>2416.6</ele>
        <time>2021-03-26T10:46:15Z</time>
      </trkpt>
      <trkpt lat="45.67588" lon="6.85043">
        <ele>2416.8</ele>
        <time>2021-03-26T10:46:16Z</time>
      </trkpt>
      <trkpt lat="45.67588" lon="6.85042">
        <ele>2417.1</ele>
        <time>2021-03-26T10:46:17Z</time>
      </trkpt>
      <trkpt lat="45.67589" lon="6.85042">
        <ele>2417.2</ele>
        <time>2021-03-26T10:46:18Z</time>
      </trkpt>
      <trkpt lat="45.67589" lon="6.85042">
        <ele>2417.4</ele>
        <time>2021-03-26T10:46:19Z</time>
      </trkpt>
      <trkpt lat="45.67589" lon="6.85042">
        <ele>2417.5</ele>
        <time>2021-03-26T10:46:20Z</time>
      </trkpt>
      <trkpt lat="45.6759" lon="6.85041">
        <ele>2417.6</ele>
        <time>2021-03-26T10:46:21Z</time>
      </trkpt>
      <trkpt lat="45.6759" lon="6.85041">
        <ele>2417.8</ele>
        <time>2021-03-26T10:46:22Z</time>
      </trkpt>
      <trkpt lat="45.67591" lon="6.8504">
        <ele>2418</ele>
        <time>2021-03-26T10:46:23Z</time>
      </trkpt>
      <trkpt lat="45.67591" lon="6.8504">
        <ele>2418.2</ele>
        <time>2021-03-26T10:46:24Z</time>
      </trkpt>
      <trkpt lat="45.67592" lon="6.85039">
        <ele>2418.4</ele>
        <time>2021-03-26T10:46:25Z</time>
      </trkpt>
      <trkpt lat="45.67592" lon="6.85039">
        <ele>2418.5</ele>
        <time>2021-03-26T10:46:26Z</time>
      </trkpt>
      <trkpt lat="45.67593" lon="6.85039">
        <ele>2418.7</ele>
        <time>2021-03-26T10:46:27Z</time>
      </trkpt>
      <trkpt lat="45.67594" lon="6.85039">
        <ele>2418.9</ele>
        <time>2021-03-26T10:46:28Z</time>
      </trkpt>
      <trkpt lat="45.67594" lon="6.85038">
        <ele>2419</ele>
        <time>2021-03-26T10:46:29Z</time>
      </trkpt>
      <trkpt lat="45.67594" lon="6.85038">
        <ele>2419.1</ele>
        <time>2021-03-26T10:46:30Z</time>
      </trkpt>
      <trkpt lat="45.67595" lon="6.85038">
        <ele>2419.2</ele>
        <time>2021-03-26T10:46:31Z</time>
      </trkpt>
      <trkpt lat="45.67595" lon="6.85038">
        <ele>2419.3</ele>
        <time>2021-03-26T10:46:32Z</time>
      </trkpt>
      <trkpt lat="45.67595" lon="6.85037">
        <ele>2419.5</ele>
        <time>2021-03-26T10:46:33Z</time>
      </trkpt>
      <trkpt lat="45.67596" lon="6.85037">
        <ele>2419.6</ele>
        <time>2021-03-26T10:46:34Z</time>
      </trkpt>
      <trkpt lat="45.67596" lon="6.85037">
        <ele>2419.7</ele>
        <time>2021-03-26T10:46:35Z</time>
      </trkpt>
      <trkpt lat="45.67597" lon="6.85036">
        <ele>2420</ele>
        <time>2021-03-26T10:46:36Z</time>
      </trkpt>
      <trkpt lat="45.67597" lon="6.85036">
        <ele>2420.1</ele>
        <time>2021-03-26T10:46:37Z</time>
      </trkpt>
      <trkpt lat="45.67598" lon="6.85035">
        <ele>2420.3</ele>
        <time>2021-03-26T10:46:38Z</time>
      </trkpt>
      <trkpt lat="45.67598" lon="6.85035">
        <ele>2420.4</ele>
        <time>2021-03-26T10:46:39Z</time>
      </trkpt>
      <trkpt lat="45.67598" lon="6.85035">
        <ele>2420.5</ele>
        <time>2021-03-26T10:46:40Z</time>
      </trkpt>
      <trkpt lat="45.67599" lon="6.85034">
        <ele>2420.6</ele>
        <time>2021-03-26T10:46:41Z</time>
      </trkpt>
      <trkpt lat="45.67599" lon="6.85034">
        <ele>2420.8</ele>
        <time>2021-03-26T10:46:42Z</time>
      </trkpt>
      <trkpt lat="45.676" lon="6.85034">
        <ele>2420.9</ele>
        <time>2021-03-26T10:46:43Z</time>
      </trkpt>
      <trkpt lat="45.676" lon="6.85034">
        <ele>2421.1</ele>
        <time>2021-03-26T10:46:44Z</time>
      </trkpt>
      <trkpt lat="45.67601" lon="6.85033">
        <ele>2421.3</ele>
        <time>2021-03-26T10:46:45Z</time>
      </trkpt>
      <trkpt lat="45.67601" lon="6.85033">
        <ele>2421.3</ele>
        <time>2021-03-26T10:46:46Z</time>
      </trkpt>
      <trkpt lat="45.67602" lon="6.85033">
        <ele>2421.6</ele>
        <time>2021-03-26T10:46:47Z</time>
      </trkpt>
      <trkpt lat="45.67602" lon="6.85032">
        <ele>2421.7</ele>
        <time>2021-03-26T10:46:48Z</time>
      </trkpt>
      <trkpt lat="45.67603" lon="6.85032">
        <ele>2421.8</ele>
        <time>2021-03-26T10:46:49Z</time>
      </trkpt>
      <trkpt lat="45.67603" lon="6.85032">
        <ele>2422</ele>
        <time>2021-03-26T10:46:50Z</time>
      </trkpt>
      <trkpt lat="45.67603" lon="6.85032">
        <ele>2422.1</ele>
        <time>2021-03-26T10:46:51Z</time>
      </trkpt>
      <trkpt lat="45.67604" lon="6.85031">
        <ele>2422.3</ele>
        <time>2021-03-26T10:46:52Z</time>
      </trkpt>
      <trkpt lat="45.67605" lon="6.85031">
        <ele>2422.5</ele>
        <time>2021-03-26T10:46:53Z</time>
      </trkpt>
      <trkpt lat="45.67605" lon="6.8503">
        <ele>2422.7</ele>
        <time>2021-03-26T10:46:54Z</time>
      </trkpt>
      <trkpt lat="45.67606" lon="6.8503">
        <ele>2422.8</ele>
        <time>2021-03-26T10:46:55Z</time>
      </trkpt>
      <trkpt lat="45.67606" lon="6.8503">
        <ele>2422.9</ele>
        <time>2021-03-26T10:46:56Z</time>
      </trkpt>
      <trkpt lat="45.67606" lon="6.85029">
        <ele>2423.1</ele>
        <time>2021-03-26T10:46:57Z</time>
      </trkpt>
      <trkpt lat="45.67607" lon="6.85029">
        <ele>2423.2</ele>
        <time>2021-03-26T10:46:58Z</time>
      </trkpt>
      <trkpt lat="45.67607" lon="6.85028">
        <ele>2423.4</ele>
        <time>2021-03-26T10:46:59Z</time>
      </trkpt>
      <trkpt lat="45.67608" lon="6.85028">
        <ele>2423.5</ele>
        <time>2021-03-26T10:47:00Z</time>
      </trkpt>
      <trkpt lat="45.67608" lon="6.85028">
        <ele>2423.6</ele>
        <time>2021-03-26T10:47:01Z</time>
      </trkpt>
      <trkpt lat="45.67608" lon="6.85027">
        <ele>2423.8</ele>
        <time>2021-03-26T10:47:02Z</time>
      </trkpt>
      <trkpt lat="45.67609" lon="6.85027">
        <ele>2423.9</ele>
        <time>2021-03-26T10:47:03Z</time>
      </trkpt>
      <trkpt lat="45.67609" lon="6.85027">
        <ele>2424.1</ele>
        <time>2021-03-26T10:47:04Z</time>
      </trkpt>
      <trkpt lat="45.6761" lon="6.85026">
        <ele>2424.2</ele>
        <time>2021-03-26T10:47:05Z</time>
      </trkpt>
      <trkpt lat="45.6761" lon="6.85026">
        <ele>2424.4</ele>
        <time>2021-03-26T10:47:06Z</time>
      </trkpt>
      <trkpt lat="45.67611" lon="6.85026">
        <ele>2424.5</ele>
        <time>2021-03-26T10:47:07Z</time>
      </trkpt>
      <trkpt lat="45.67611" lon="6.85025">
        <ele>2424.6</ele>
        <time>2021-03-26T10:47:08Z</time>
      </trkpt>
      <trkpt lat="45.67611" lon="6.85025">
        <ele>2424.8</ele>
        <time>2021-03-26T10:47:09Z</time>
      </trkpt>
      <trkpt lat="45.67611" lon="6.85025">
        <ele>2424.8</ele>
        <time>2021-03-26T10:47:10Z</time>
      </trkpt>
      <trkpt lat="45.67612" lon="6.85024">
        <ele>2425</ele>
        <time>2021-03-26T10:47:11Z</time>
      </trkpt>
      <trkpt lat="45.67612" lon="6.85024">
        <ele>2425.2</ele>
        <time>2021-03-26T10:47:12Z</time>
      </trkpt>
      <trkpt lat="45.67613" lon="6.85023">
        <ele>2425.3</ele>
        <time>2021-03-26T10:47:13Z</time>
      </trkpt>
      <trkpt lat="45.67613" lon="6.85023">
        <ele>2425.5</ele>
        <time>2021-03-26T10:47:14Z</time>
      </trkpt>
      <trkpt lat="45.67614" lon="6.85022">
        <ele>2425.6</ele>
        <time>2021-03-26T10:47:15Z</time>
      </trkpt>
      <trkpt lat="45.67614" lon="6.85022">
        <ele>2425.8</ele>
        <time>2021-03-26T10:47:16Z</time>
      </trkpt>
      <trkpt lat="45.67614" lon="6.85021">
        <ele>2425.9</ele>
        <time>2021-03-26T10:47:17Z</time>
      </trkpt>
      <trkpt lat="45.67615" lon="6.85021">
        <ele>2426.1</ele>
        <time>2021-03-26T10:47:18Z</time>
      </trkpt>
      <trkpt lat="45.67615" lon="6.8502">
        <ele>2426.3</ele>
        <time>2021-03-26T10:47:19Z</time>
      </trkpt>
      <trkpt lat="45.67616" lon="6.8502">
        <ele>2426.4</ele>
        <time>2021-03-26T10:47:20Z</time>
      </trkpt>
      <trkpt lat="45.67616" lon="6.85019">
        <ele>2426.5</ele>
        <time>2021-03-26T10:47:21Z</time>
      </trkpt>
      <trkpt lat="45.67616" lon="6.85019">
        <ele>2426.6</ele>
        <time>2021-03-26T10:47:22Z</time>
      </trkpt>
      <trkpt lat="45.67617" lon="6.85019">
        <ele>2426.8</ele>
        <time>2021-03-26T10:47:23Z</time>
      </trkpt>
      <trkpt lat="45.67617" lon="6.85018">
        <ele>2426.9</ele>
        <time>2021-03-26T10:47:24Z</time>
      </trkpt>
      <trkpt lat="45.67617" lon="6.85018">
        <ele>2427.1</ele>
        <time>2021-03-26T10:47:25Z</time>
      </trkpt>
      <trkpt lat="45.67618" lon="6.85017">
        <ele>2427.2</ele>
        <time>2021-03-26T10:47:26Z</time>
      </trkpt>
      <trkpt lat="45.67618" lon="6.85017">
        <ele>2427.2</ele>
        <time>2021-03-26T10:47:27Z</time>
      </trkpt>
      <trkpt lat="45.67618" lon="6.85017">
        <ele>2427.4</ele>
        <time>2021-03-26T10:47:28Z</time>
      </trkpt>
      <trkpt lat="45.67619" lon="6.85016">
        <ele>2427.5</ele>
        <time>2021-03-26T10:47:29Z</time>
      </trkpt>
      <trkpt lat="45.67619" lon="6.85016">
        <ele>2427.5</ele>
        <time>2021-03-26T10:47:30Z</time>
      </trkpt>
      <trkpt lat="45.67619" lon="6.85016">
        <ele>2427.7</ele>
        <time>2021-03-26T10:47:31Z</time>
      </trkpt>
      <trkpt lat="45.67619" lon="6.85015">
        <ele>2427.8</ele>
        <time>2021-03-26T10:47:32Z</time>
      </trkpt>
      <trkpt lat="45.6762" lon="6.85015">
        <ele>2427.9</ele>
        <time>2021-03-26T10:47:33Z</time>
      </trkpt>
      <trkpt lat="45.6762" lon="6.85015">
        <ele>2428</ele>
        <time>2021-03-26T10:47:34Z</time>
      </trkpt>
      <trkpt lat="45.6762" lon="6.85014">
        <ele>2428.1</ele>
        <time>2021-03-26T10:47:35Z</time>
      </trkpt>
      <trkpt lat="45.67621" lon="6.85014">
        <ele>2428.2</ele>
        <time>2021-03-26T10:47:36Z</time>
      </trkpt>
      <trkpt lat="45.67621" lon="6.85014">
        <ele>2428.2</ele>
        <time>2021-03-26T10:47:37Z</time>
      </trkpt>
      <trkpt lat="45.67622" lon="6.85014">
        <ele>2428.5</ele>
        <time>2021-03-26T10:47:38Z</time>
      </trkpt>
      <trkpt lat="45.67622" lon="6.85013">
        <ele>2428.6</ele>
        <time>2021-03-26T10:47:39Z</time>
      </trkpt>
      <trkpt lat="45.67622" lon="6.85013">
        <ele>2428.7</ele>
        <time>2021-03-26T10:47:40Z</time>
      </trkpt>
      <trkpt lat="45.67623" lon="6.85013">
        <ele>2428.8</ele>
        <time>2021-03-26T10:47:41Z</time>
      </trkpt>
      <trkpt lat="45.67623" lon="6.85013">
        <ele>2428.8</ele>
        <time>2021-03-26T10:47:42Z</time>
      </trkpt>
      <trkpt lat="45.67623" lon="6.85013">
        <ele>2428.9</ele>
        <time>2021-03-26T10:47:43Z</time>
      </trkpt>
      <trkpt lat="45.67623" lon="6.85013">
        <ele>2429</ele>
        <time>2021-03-26T10:47:44Z</time>
      </trkpt>
      <trkpt lat="45.67624" lon="6.85013">
        <ele>2429</ele>
        <time>2021-03-26T10:47:45Z</time>
      </trkpt>
      <trkpt lat="45.67624" lon="6.85012">
        <ele>2429.1</ele>
        <time>2021-03-26T10:47:46Z</time>
      </trkpt>
      <trkpt lat="45.67624" lon="6.85012">
        <ele>2429.2</ele>
        <time>2021-03-26T10:47:47Z</time>
      </trkpt>
      <trkpt lat="45.67625" lon="6.85012">
        <ele>2429.4</ele>
        <time>2021-03-26T10:47:48Z</time>
      </trkpt>
      <trkpt lat="45.67625" lon="6.85012">
        <ele>2429.5</ele>
        <time>2021-03-26T10:47:49Z</time>
      </trkpt>
      <trkpt lat="45.67625" lon="6.85011">
        <ele>2429.6</ele>
        <time>2021-03-26T10:47:50Z</time>
      </trkpt>
      <trkpt lat="45.67626" lon="6.85011">
        <ele>2429.7</ele>
        <time>2021-03-26T10:47:51Z</time>
      </trkpt>
      <trkpt lat="45.67626" lon="6.85011">
        <ele>2429.9</ele>
        <time>2021-03-26T10:47:52Z</time>
      </trkpt>
      <trkpt lat="45.67627" lon="6.8501">
        <ele>2430</ele>
        <time>2021-03-26T10:47:53Z</time>
      </trkpt>
      <trkpt lat="45.67627" lon="6.8501">
        <ele>2430.2</ele>
        <time>2021-03-26T10:47:54Z</time>
      </trkpt>
      <trkpt lat="45.67628" lon="6.85009">
        <ele>2430.3</ele>
        <time>2021-03-26T10:47:55Z</time>
      </trkpt>
      <trkpt lat="45.67628" lon="6.85009">
        <ele>2430.4</ele>
        <time>2021-03-26T10:47:56Z</time>
      </trkpt>
      <trkpt lat="45.67629" lon="6.85009">
        <ele>2430.5</ele>
        <time>2021-03-26T10:47:57Z</time>
      </trkpt>
      <trkpt lat="45.67629" lon="6.85008">
        <ele>2430.7</ele>
        <time>2021-03-26T10:47:58Z</time>
      </trkpt>
      <trkpt lat="45.67629" lon="6.85008">
        <ele>2430.7</ele>
        <time>2021-03-26T10:47:59Z</time>
      </trkpt>
      <trkpt lat="45.6763" lon="6.85008">
        <ele>2430.8</ele>
        <time>2021-03-26T10:48:00Z</time>
      </trkpt>
      <trkpt lat="45.6763" lon="6.85007">
        <ele>2431</ele>
        <time>2021-03-26T10:48:01Z</time>
      </trkpt>
      <trkpt lat="45.6763" lon="6.85007">
        <ele>2431</ele>
        <time>2021-03-26T10:48:02Z</time>
      </trkpt>
      <trkpt lat="45.67631" lon="6.85006">
        <ele>2431.2</ele>
        <time>2021-03-26T10:48:03Z</time>
      </trkpt>
      <trkpt lat="45.67631" lon="6.85006">
        <ele>2431.3</ele>
        <time>2021-03-26T10:48:04Z</time>
      </trkpt>
      <trkpt lat="45.67631" lon="6.85005">
        <ele>2431.3</ele>
        <time>2021-03-26T10:48:05Z</time>
      </trkpt>
      <trkpt lat="45.67632" lon="6.85005">
        <ele>2431.3</ele>
        <time>2021-03-26T10:48:06Z</time>
      </trkpt>
      <trkpt lat="45.67632" lon="6.85004">
        <ele>2431.3</ele>
        <time>2021-03-26T10:48:07Z</time>
      </trkpt>
      <trkpt lat="45.67632" lon="6.85004">
        <ele>2430.9</ele>
        <time>2021-03-26T10:48:08Z</time>
      </trkpt>
      <trkpt lat="45.67633" lon="6.85004">
        <ele>2430.9</ele>
        <time>2021-03-26T10:48:09Z</time>
      </trkpt>
      <trkpt lat="45.67633" lon="6.85003">
        <ele>2430.9</ele>
        <time>2021-03-26T10:48:10Z</time>
      </trkpt>
      <trkpt lat="45.67633" lon="6.85003">
        <ele>2430.9</ele>
        <time>2021-03-26T10:48:11Z</time>
      </trkpt>
      <trkpt lat="45.67634" lon="6.85003">
        <ele>2430.9</ele>
        <time>2021-03-26T10:48:12Z</time>
      </trkpt>
      <trkpt lat="45.67634" lon="6.85003">
        <ele>2430.9</ele>
        <time>2021-03-26T10:48:13Z</time>
      </trkpt>
      <trkpt lat="45.67634" lon="6.85002">
        <ele>2430.9</ele>
        <time>2021-03-26T10:48:14Z</time>
      </trkpt>
      <trkpt lat="45.67635" lon="6.85002">
        <ele>2432.6</ele>
        <time>2021-03-26T10:48:15Z</time>
      </trkpt>
      <trkpt lat="45.67635" lon="6.85001">
        <ele>2432.6</ele>
        <time>2021-03-26T10:48:16Z</time>
      </trkpt>
      <trkpt lat="45.67636" lon="6.85001">
        <ele>2432.1</ele>
        <time>2021-03-26T10:48:17Z</time>
      </trkpt>
      <trkpt lat="45.67636" lon="6.85001">
        <ele>2432.1</ele>
        <time>2021-03-26T10:48:18Z</time>
      </trkpt>
      <trkpt lat="45.67636" lon="6.84999">
        <ele>2432.1</ele>
        <time>2021-03-26T10:48:19Z</time>
      </trkpt>
      <trkpt lat="45.67637" lon="6.84999">
        <ele>2432.1</ele>
        <time>2021-03-26T10:48:20Z</time>
      </trkpt>
      <trkpt lat="45.67637" lon="6.84998">
        <ele>2432.1</ele>
        <time>2021-03-26T10:48:21Z</time>
      </trkpt>
      <trkpt lat="45.67637" lon="6.84998">
        <ele>2432.1</ele>
        <time>2021-03-26T10:48:22Z</time>
      </trkpt>
      <trkpt lat="45.67637" lon="6.84997">
        <ele>2433.9</ele>
        <time>2021-03-26T10:48:23Z</time>
      </trkpt>
      <trkpt lat="45.67638" lon="6.84996">
        <ele>2433.9</ele>
        <time>2021-03-26T10:48:24Z</time>
      </trkpt>
      <trkpt lat="45.67638" lon="6.84995">
        <ele>2433.9</ele>
        <time>2021-03-26T10:48:25Z</time>
      </trkpt>
      <trkpt lat="45.67638" lon="6.84995">
        <ele>2433.9</ele>
        <time>2021-03-26T10:48:26Z</time>
      </trkpt>
      <trkpt lat="45.67638" lon="6.84995">
        <ele>2433.9</ele>
        <time>2021-03-26T10:48:27Z</time>
      </trkpt>
      <trkpt lat="45.67638" lon="6.84995">
        <ele>2433.9</ele>
        <time>2021-03-26T10:48:28Z</time>
      </trkpt>
      <trkpt lat="45.67638" lon="6.84995">
        <ele>2433.9</ele>
        <time>2021-03-26T10:48:29Z</time>
      </trkpt>
      <trkpt lat="45.67638" lon="6.84995">
        <ele>2433.9</ele>
        <time>2021-03-26T10:48:30Z</time>
      </trkpt>
      <trkpt lat="45.67638" lon="6.84995">
        <ele>2433.9</ele>
        <time>2021-03-26T10:48:31Z</time>
      </trkpt>
      <trkpt lat="45.67638" lon="6.84995">
        <ele>2433.9</ele>
        <time>2021-03-26T10:48:32Z</time>
      </trkpt>
      <trkpt lat="45.67638" lon="6.84994">
        <ele>2433.9</ele>
        <time>2021-03-26T10:48:33Z</time>
      </trkpt>
      <trkpt lat="45.67638" lon="6.84994">
        <ele>2433.9</ele>
        <time>2021-03-26T10:48:34Z</time>
      </trkpt>
      <trkpt lat="45.6764" lon="6.84992">
        <ele>2435.2</ele>
        <time>2021-03-26T10:48:39Z</time>
      </trkpt>
      <trkpt lat="45.6764" lon="6.84992">
        <ele>2435.2</ele>
        <time>2021-03-26T10:48:40Z</time>
      </trkpt>
      <trkpt lat="45.6764" lon="6.84991">
        <ele>2435.2</ele>
        <time>2021-03-26T10:48:41Z</time>
      </trkpt>
      <trkpt lat="45.6764" lon="6.84991">
        <ele>2435.2</ele>
        <time>2021-03-26T10:48:42Z</time>
      </trkpt>
      <trkpt lat="45.6764" lon="6.84991">
        <ele>2435.2</ele>
        <time>2021-03-26T10:48:43Z</time>
      </trkpt>
      <trkpt lat="45.67641" lon="6.84991">
        <ele>2435.2</ele>
        <time>2021-03-26T10:48:44Z</time>
      </trkpt>
      <trkpt lat="45.67641" lon="6.84991">
        <ele>2435.2</ele>
        <time>2021-03-26T10:48:45Z</time>
      </trkpt>
      <trkpt lat="45.67642" lon="6.8499">
        <ele>2434.8</ele>
        <time>2021-03-26T10:48:46Z</time>
      </trkpt>
      <trkpt lat="45.67642" lon="6.8499">
        <ele>2434.8</ele>
        <time>2021-03-26T10:48:47Z</time>
      </trkpt>
      <trkpt lat="45.67643" lon="6.8499">
        <ele>2434.8</ele>
        <time>2021-03-26T10:48:48Z</time>
      </trkpt>
      <trkpt lat="45.67643" lon="6.8499">
        <ele>2434.8</ele>
        <time>2021-03-26T10:48:49Z</time>
      </trkpt>
      <trkpt lat="45.67643" lon="6.84989">
        <ele>2434.8</ele>
        <time>2021-03-26T10:48:50Z</time>
      </trkpt>
      <trkpt lat="45.67644" lon="6.84989">
        <ele>2434.8</ele>
        <time>2021-03-26T10:48:51Z</time>
      </trkpt>
      <trkpt lat="45.67644" lon="6.84989">
        <ele>2434.8</ele>
        <time>2021-03-26T10:48:52Z</time>
      </trkpt>
      <trkpt lat="45.67644" lon="6.84989">
        <ele>2434.8</ele>
        <time>2021-03-26T10:48:53Z</time>
      </trkpt>
      <trkpt lat="45.67646" lon="6.84984">
        <ele>2437.8</ele>
        <time>2021-03-26T10:51:33Z</time>
      </trkpt>
      <trkpt lat="45.67646" lon="6.84983">
        <ele>2437.8</ele>
        <time>2021-03-26T10:51:34Z</time>
      </trkpt>
      <trkpt lat="45.67646" lon="6.84983">
        <ele>2437.8</ele>
        <time>2021-03-26T10:51:35Z</time>
      </trkpt>
      <trkpt lat="45.67646" lon="6.84982">
        <ele>2437.8</ele>
        <time>2021-03-26T10:51:36Z</time>
      </trkpt>
      <trkpt lat="45.67647" lon="6.84982">
        <ele>2437.8</ele>
        <time>2021-03-26T10:51:37Z</time>
      </trkpt>
      <trkpt lat="45.67647" lon="6.84981">
        <ele>2437.8</ele>
        <time>2021-03-26T10:51:38Z</time>
      </trkpt>
      <trkpt lat="45.67647" lon="6.84981">
        <ele>2437.8</ele>
        <time>2021-03-26T10:51:39Z</time>
      </trkpt>
      <trkpt lat="45.67648" lon="6.84979">
        <ele>2439.1</ele>
        <time>2021-03-26T10:51:40Z</time>
      </trkpt>
      <trkpt lat="45.67649" lon="6.84978">
        <ele>2439.1</ele>
        <time>2021-03-26T10:51:41Z</time>
      </trkpt>
      <trkpt lat="45.67649" lon="6.84978">
        <ele>2439.1</ele>
        <time>2021-03-26T10:51:42Z</time>
      </trkpt>
      <trkpt lat="45.67649" lon="6.84978">
        <ele>2439.1</ele>
        <time>2021-03-26T10:51:43Z</time>
      </trkpt>
      <trkpt lat="45.6765" lon="6.84978">
        <ele>2439.1</ele>
        <time>2021-03-26T10:51:44Z</time>
      </trkpt>
      <trkpt lat="45.6765" lon="6.84978">
        <ele>2439.1</ele>
        <time>2021-03-26T10:51:45Z</time>
      </trkpt>
      <trkpt lat="45.6765" lon="6.84978">
        <ele>2439.1</ele>
        <time>2021-03-26T10:51:46Z</time>
      </trkpt>
      <trkpt lat="45.6765" lon="6.84978">
        <ele>2439.1</ele>
        <time>2021-03-26T10:51:47Z</time>
      </trkpt>
      <trkpt lat="45.6765" lon="6.84978">
        <ele>2439.1</ele>
        <time>2021-03-26T10:51:48Z</time>
      </trkpt>
      <trkpt lat="45.6765" lon="6.84978">
        <ele>2439.1</ele>
        <time>2021-03-26T10:51:49Z</time>
      </trkpt>
      <trkpt lat="45.67649" lon="6.84978">
        <ele>2439.1</ele>
        <time>2021-03-26T10:51:50Z</time>
      </trkpt>
      <trkpt lat="45.67648" lon="6.84978">
        <ele>2439.1</ele>
        <time>2021-03-26T10:51:51Z</time>
      </trkpt>
      <trkpt lat="45.67647" lon="6.84978">
        <ele>2439.5</ele>
        <time>2021-03-26T10:51:52Z</time>
      </trkpt>
      <trkpt lat="45.67646" lon="6.84978">
        <ele>2439.5</ele>
        <time>2021-03-26T10:51:53Z</time>
      </trkpt>
      <trkpt lat="45.67645" lon="6.84978">
        <ele>2439.5</ele>
        <time>2021-03-26T10:51:54Z</time>
      </trkpt>
      <trkpt lat="45.67645" lon="6.84977">
        <ele>2439.5</ele>
        <time>2021-03-26T10:51:55Z</time>
      </trkpt>
      <trkpt lat="45.67644" lon="6.84977">
        <ele>2440</ele>
        <time>2021-03-26T10:51:56Z</time>
      </trkpt>
      <trkpt lat="45.67643" lon="6.84977">
        <ele>2440</ele>
        <time>2021-03-26T10:51:57Z</time>
      </trkpt>
      <trkpt lat="45.67642" lon="6.84977">
        <ele>2440</ele>
        <time>2021-03-26T10:51:58Z</time>
      </trkpt>
      <trkpt lat="45.67642" lon="6.84977">
        <ele>2440</ele>
        <time>2021-03-26T10:51:59Z</time>
      </trkpt>
      <trkpt lat="45.67641" lon="6.84977">
        <ele>2440.6</ele>
        <time>2021-03-26T10:52:00Z</time>
      </trkpt>
      <trkpt lat="45.67641" lon="6.84977">
        <ele>2440.6</ele>
        <time>2021-03-26T10:52:01Z</time>
      </trkpt>
      <trkpt lat="45.6764" lon="6.84977">
        <ele>2440.6</ele>
        <time>2021-03-26T10:52:02Z</time>
      </trkpt>
      <trkpt lat="45.6764" lon="6.84976">
        <ele>2440.6</ele>
        <time>2021-03-26T10:52:03Z</time>
      </trkpt>
      <trkpt lat="45.67639" lon="6.84976">
        <ele>2442.4</ele>
        <time>2021-03-26T10:52:04Z</time>
      </trkpt>
      <trkpt lat="45.67639" lon="6.84976">
        <ele>2442.4</ele>
        <time>2021-03-26T10:52:05Z</time>
      </trkpt>
      <trkpt lat="45.67638" lon="6.84975">
        <ele>2442.4</ele>
        <time>2021-03-26T10:52:06Z</time>
      </trkpt>
      <trkpt lat="45.67638" lon="6.84975">
        <ele>2443</ele>
        <time>2021-03-26T10:52:07Z</time>
      </trkpt>
      <trkpt lat="45.67638" lon="6.84975">
        <ele>2443</ele>
        <time>2021-03-26T10:52:08Z</time>
      </trkpt>
      <trkpt lat="45.67637" lon="6.84974">
        <ele>2443</ele>
        <time>2021-03-26T10:52:09Z</time>
      </trkpt>
      <trkpt lat="45.67637" lon="6.84974">
        <ele>2443</ele>
        <time>2021-03-26T10:52:10Z</time>
      </trkpt>
      <trkpt lat="45.67637" lon="6.84973">
        <ele>2443</ele>
        <time>2021-03-26T10:52:11Z</time>
      </trkpt>
      <trkpt lat="45.67637" lon="6.84972">
        <ele>2443</ele>
        <time>2021-03-26T10:52:12Z</time>
      </trkpt>
      <trkpt lat="45.67637" lon="6.84972">
        <ele>2444.9</ele>
        <time>2021-03-26T10:52:13Z</time>
      </trkpt>
      <trkpt lat="45.67637" lon="6.84972">
        <ele>2444.9</ele>
        <time>2021-03-26T10:52:14Z</time>
      </trkpt>
      <trkpt lat="45.67637" lon="6.84972">
        <ele>2444.9</ele>
        <time>2021-03-26T10:52:15Z</time>
      </trkpt>
      <trkpt lat="45.67637" lon="6.84972">
        <ele>2444.9</ele>
        <time>2021-03-26T10:52:16Z</time>
      </trkpt>
      <trkpt lat="45.67637" lon="6.84972">
        <ele>2444.9</ele>
        <time>2021-03-26T10:52:17Z</time>
      </trkpt>
      <trkpt lat="45.67637" lon="6.84972">
        <ele>2444.9</ele>
        <time>2021-03-26T10:52:18Z</time>
      </trkpt>
      <trkpt lat="45.67647" lon="6.84964">
        <ele>2444.8</ele>
        <time>2021-03-26T10:52:41Z</time>
      </trkpt>
      <trkpt lat="45.67647" lon="6.84963">
        <ele>2446.1</ele>
        <time>2021-03-26T10:52:42Z</time>
      </trkpt>
      <trkpt lat="45.67648" lon="6.84962">
        <ele>2446.1</ele>
        <time>2021-03-26T10:52:43Z</time>
      </trkpt>
      <trkpt lat="45.67649" lon="6.84962">
        <ele>2446.1</ele>
        <time>2021-03-26T10:52:44Z</time>
      </trkpt>
      <trkpt lat="45.67649" lon="6.84961">
        <ele>2446.1</ele>
        <time>2021-03-26T10:52:45Z</time>
      </trkpt>
      <trkpt lat="45.6765" lon="6.84961">
        <ele>2446.1</ele>
        <time>2021-03-26T10:52:46Z</time>
      </trkpt>
      <trkpt lat="45.6765" lon="6.8496">
        <ele>2445.6</ele>
        <time>2021-03-26T10:52:47Z</time>
      </trkpt>
      <trkpt lat="45.67651" lon="6.8496">
        <ele>2445.6</ele>
        <time>2021-03-26T10:52:48Z</time>
      </trkpt>
      <trkpt lat="45.67651" lon="6.84959">
        <ele>2445.6</ele>
        <time>2021-03-26T10:52:49Z</time>
      </trkpt>
      <trkpt lat="45.67652" lon="6.84958">
        <ele>2447.4</ele>
        <time>2021-03-26T10:52:50Z</time>
      </trkpt>
      <trkpt lat="45.67652" lon="6.84958">
        <ele>2447.4</ele>
        <time>2021-03-26T10:52:51Z</time>
      </trkpt>
      <trkpt lat="45.67652" lon="6.84957">
        <ele>2447.4</ele>
        <time>2021-03-26T10:52:52Z</time>
      </trkpt>
      <trkpt lat="45.67653" lon="6.84956">
        <ele>2447.4</ele>
        <time>2021-03-26T10:52:53Z</time>
      </trkpt>
      <trkpt lat="45.67653" lon="6.84956">
        <ele>2447.4</ele>
        <time>2021-03-26T10:52:54Z</time>
      </trkpt>
      <trkpt lat="45.67653" lon="6.84955">
        <ele>2446.9</ele>
        <time>2021-03-26T10:52:55Z</time>
      </trkpt>
      <trkpt lat="45.67653" lon="6.84955">
        <ele>2448.8</ele>
        <time>2021-03-26T10:52:56Z</time>
      </trkpt>
      <trkpt lat="45.67654" lon="6.84954">
        <ele>2448.8</ele>
        <time>2021-03-26T10:52:57Z</time>
      </trkpt>
      <trkpt lat="45.67654" lon="6.84953">
        <ele>2448.8</ele>
        <time>2021-03-26T10:52:58Z</time>
      </trkpt>
      <trkpt lat="45.67654" lon="6.84953">
        <ele>2448.8</ele>
        <time>2021-03-26T10:52:59Z</time>
      </trkpt>
      <trkpt lat="45.67655" lon="6.84952">
        <ele>2448.8</ele>
        <time>2021-03-26T10:53:00Z</time>
      </trkpt>
      <trkpt lat="45.67655" lon="6.84951">
        <ele>2448.8</ele>
        <time>2021-03-26T10:53:01Z</time>
      </trkpt>
      <trkpt lat="45.67656" lon="6.84951">
        <ele>2448.8</ele>
        <time>2021-03-26T10:53:02Z</time>
      </trkpt>
      <trkpt lat="45.67656" lon="6.8495">
        <ele>2450.8</ele>
        <time>2021-03-26T10:53:03Z</time>
      </trkpt>
      <trkpt lat="45.67656" lon="6.84949">
        <ele>2450.2</ele>
        <time>2021-03-26T10:53:04Z</time>
      </trkpt>
      <trkpt lat="45.67657" lon="6.84949">
        <ele>2450.2</ele>
        <time>2021-03-26T10:53:05Z</time>
      </trkpt>
      <trkpt lat="45.67657" lon="6.84948">
        <ele>2450.2</ele>
        <time>2021-03-26T10:53:06Z</time>
      </trkpt>
      <trkpt lat="45.67658" lon="6.84948">
        <ele>2450.2</ele>
        <time>2021-03-26T10:53:07Z</time>
      </trkpt>
      <trkpt lat="45.67658" lon="6.84947">
        <ele>2450.2</ele>
        <time>2021-03-26T10:53:08Z</time>
      </trkpt>
      <trkpt lat="45.67659" lon="6.84947">
        <ele>2450.2</ele>
        <time>2021-03-26T10:53:09Z</time>
      </trkpt>
      <trkpt lat="45.67659" lon="6.84946">
        <ele>2449.7</ele>
        <time>2021-03-26T10:53:10Z</time>
      </trkpt>
      <trkpt lat="45.6766" lon="6.84946">
        <ele>2451.6</ele>
        <time>2021-03-26T10:53:11Z</time>
      </trkpt>
      <trkpt lat="45.6766" lon="6.84945">
        <ele>2451.6</ele>
        <time>2021-03-26T10:53:12Z</time>
      </trkpt>
      <trkpt lat="45.67661" lon="6.84945">
        <ele>2451.6</ele>
        <time>2021-03-26T10:53:13Z</time>
      </trkpt>
      <trkpt lat="45.67661" lon="6.84945">
        <ele>2451.6</ele>
        <time>2021-03-26T10:53:14Z</time>
      </trkpt>
      <trkpt lat="45.67662" lon="6.84944">
        <ele>2451.6</ele>
        <time>2021-03-26T10:53:15Z</time>
      </trkpt>
      <trkpt lat="45.67662" lon="6.84944">
        <ele>2451.1</ele>
        <time>2021-03-26T10:53:16Z</time>
      </trkpt>
      <trkpt lat="45.67663" lon="6.84943">
        <ele>2451.1</ele>
        <time>2021-03-26T10:53:17Z</time>
      </trkpt>
      <trkpt lat="45.67663" lon="6.84942">
        <ele>2451.1</ele>
        <time>2021-03-26T10:53:18Z</time>
      </trkpt>
      <trkpt lat="45.67664" lon="6.84942">
        <ele>2453</ele>
        <time>2021-03-26T10:53:19Z</time>
      </trkpt>
      <trkpt lat="45.67664" lon="6.84941">
        <ele>2453</ele>
        <time>2021-03-26T10:53:20Z</time>
      </trkpt>
      <trkpt lat="45.67664" lon="6.84941">
        <ele>2453</ele>
        <time>2021-03-26T10:53:21Z</time>
      </trkpt>
      <trkpt lat="45.67665" lon="6.8494">
        <ele>2453</ele>
        <time>2021-03-26T10:53:22Z</time>
      </trkpt>
      <trkpt lat="45.67665" lon="6.8494">
        <ele>2453</ele>
        <time>2021-03-26T10:53:23Z</time>
      </trkpt>
      <trkpt lat="45.67665" lon="6.84939">
        <ele>2452.4</ele>
        <time>2021-03-26T10:53:24Z</time>
      </trkpt>
      <trkpt lat="45.67665" lon="6.84939">
        <ele>2452.4</ele>
        <time>2021-03-26T10:53:25Z</time>
      </trkpt>
      <trkpt lat="45.67666" lon="6.84939">
        <ele>2452.4</ele>
        <time>2021-03-26T10:53:26Z</time>
      </trkpt>
      <trkpt lat="45.67666" lon="6.84938">
        <ele>2452.4</ele>
        <time>2021-03-26T10:53:27Z</time>
      </trkpt>
      <trkpt lat="45.67666" lon="6.84938">
        <ele>2452.4</ele>
        <time>2021-03-26T10:53:28Z</time>
      </trkpt>
      <trkpt lat="45.67667" lon="6.84937">
        <ele>2454.2</ele>
        <time>2021-03-26T10:53:29Z</time>
      </trkpt>
      <trkpt lat="45.67667" lon="6.84937">
        <ele>2454.2</ele>
        <time>2021-03-26T10:53:30Z</time>
      </trkpt>
      <trkpt lat="45.67667" lon="6.84936">
        <ele>2454.2</ele>
        <time>2021-03-26T10:53:31Z</time>
      </trkpt>
      <trkpt lat="45.67667" lon="6.84935">
        <ele>2454.2</ele>
        <time>2021-03-26T10:53:32Z</time>
      </trkpt>
      <trkpt lat="45.67667" lon="6.84935">
        <ele>2454.2</ele>
        <time>2021-03-26T10:53:33Z</time>
      </trkpt>
      <trkpt lat="45.67668" lon="6.84934">
        <ele>2454.2</ele>
        <time>2021-03-26T10:53:34Z</time>
      </trkpt>
      <trkpt lat="45.67668" lon="6.84934">
        <ele>2454.2</ele>
        <time>2021-03-26T10:53:35Z</time>
      </trkpt>
      <trkpt lat="45.67668" lon="6.84933">
        <ele>2454.2</ele>
        <time>2021-03-26T10:53:36Z</time>
      </trkpt>
      <trkpt lat="45.67668" lon="6.84933">
        <ele>2456</ele>
        <time>2021-03-26T10:53:37Z</time>
      </trkpt>
      <trkpt lat="45.67668" lon="6.84933">
        <ele>2456</ele>
        <time>2021-03-26T10:53:38Z</time>
      </trkpt>
      <trkpt lat="45.67668" lon="6.84932">
        <ele>2456</ele>
        <time>2021-03-26T10:53:39Z</time>
      </trkpt>
      <trkpt lat="45.67668" lon="6.84932">
        <ele>2456</ele>
        <time>2021-03-26T10:53:40Z</time>
      </trkpt>
      <trkpt lat="45.67669" lon="6.84931">
        <ele>2455.4</ele>
        <time>2021-03-26T10:53:41Z</time>
      </trkpt>
      <trkpt lat="45.67669" lon="6.84931">
        <ele>2455.4</ele>
        <time>2021-03-26T10:53:42Z</time>
      </trkpt>
      <trkpt lat="45.67669" lon="6.8493">
        <ele>2455.4</ele>
        <time>2021-03-26T10:53:43Z</time>
      </trkpt>
      <trkpt lat="45.6767" lon="6.8493">
        <ele>2455.4</ele>
        <time>2021-03-26T10:53:44Z</time>
      </trkpt>
      <trkpt lat="45.6767" lon="6.84929">
        <ele>2455.4</ele>
        <time>2021-03-26T10:53:45Z</time>
      </trkpt>
      <trkpt lat="45.6767" lon="6.84928">
        <ele>2457.2</ele>
        <time>2021-03-26T10:53:46Z</time>
      </trkpt>
      <trkpt lat="45.67671" lon="6.84928">
        <ele>2457.2</ele>
        <time>2021-03-26T10:53:47Z</time>
      </trkpt>
      <trkpt lat="45.67671" lon="6.84927">
        <ele>2457.2</ele>
        <time>2021-03-26T10:53:48Z</time>
      </trkpt>
      <trkpt lat="45.67671" lon="6.84927">
        <ele>2457.2</ele>
        <time>2021-03-26T10:53:49Z</time>
      </trkpt>
      <trkpt lat="45.67671" lon="6.84926">
        <ele>2456.7</ele>
        <time>2021-03-26T10:53:50Z</time>
      </trkpt>
      <trkpt lat="45.67672" lon="6.84926">
        <ele>2456.7</ele>
        <time>2021-03-26T10:53:51Z</time>
      </trkpt>
      <trkpt lat="45.67672" lon="6.84925">
        <ele>2456.7</ele>
        <time>2021-03-26T10:53:52Z</time>
      </trkpt>
      <trkpt lat="45.67672" lon="6.84924">
        <ele>2458.5</ele>
        <time>2021-03-26T10:53:53Z</time>
      </trkpt>
      <trkpt lat="45.67672" lon="6.84924">
        <ele>2458.5</ele>
        <time>2021-03-26T10:53:54Z</time>
      </trkpt>
      <trkpt lat="45.67673" lon="6.84923">
        <ele>2458.5</ele>
        <time>2021-03-26T10:53:55Z</time>
      </trkpt>
      <trkpt lat="45.67673" lon="6.84923">
        <ele>2458.5</ele>
        <time>2021-03-26T10:53:56Z</time>
      </trkpt>
      <trkpt lat="45.67673" lon="6.84922">
        <ele>2458.5</ele>
        <time>2021-03-26T10:53:57Z</time>
      </trkpt>
      <trkpt lat="45.67673" lon="6.84922">
        <ele>2458.5</ele>
        <time>2021-03-26T10:53:58Z</time>
      </trkpt>
      <trkpt lat="45.67673" lon="6.84921">
        <ele>2458.5</ele>
        <time>2021-03-26T10:53:59Z</time>
      </trkpt>
      <trkpt lat="45.67674" lon="6.84921">
        <ele>2458.5</ele>
        <time>2021-03-26T10:54:00Z</time>
      </trkpt>
      <trkpt lat="45.67674" lon="6.8492">
        <ele>2460.4</ele>
        <time>2021-03-26T10:54:01Z</time>
      </trkpt>
      <trkpt lat="45.67674" lon="6.8492">
        <ele>2460.4</ele>
        <time>2021-03-26T10:54:02Z</time>
      </trkpt>
      <trkpt lat="45.67674" lon="6.84919">
        <ele>2459.9</ele>
        <time>2021-03-26T10:54:03Z</time>
      </trkpt>
      <trkpt lat="45.67675" lon="6.84919">
        <ele>2459.9</ele>
        <time>2021-03-26T10:54:04Z</time>
      </trkpt>
      <trkpt lat="45.67675" lon="6.84919">
        <ele>2459.9</ele>
        <time>2021-03-26T10:54:05Z</time>
      </trkpt>
      <trkpt lat="45.67676" lon="6.84918">
        <ele>2459.9</ele>
        <time>2021-03-26T10:54:06Z</time>
      </trkpt>
      <trkpt lat="45.67676" lon="6.84918">
        <ele>2459.9</ele>
        <time>2021-03-26T10:54:07Z</time>
      </trkpt>
      <trkpt lat="45.67676" lon="6.84917">
        <ele>2459.9</ele>
        <time>2021-03-26T10:54:08Z</time>
      </trkpt>
      <trkpt lat="45.67677" lon="6.84917">
        <ele>2459.9</ele>
        <time>2021-03-26T10:54:09Z</time>
      </trkpt>
      <trkpt lat="45.67677" lon="6.84916">
        <ele>2461.5</ele>
        <time>2021-03-26T10:54:10Z</time>
      </trkpt>
      <trkpt lat="45.67678" lon="6.84915">
        <ele>2461.5</ele>
        <time>2021-03-26T10:54:11Z</time>
      </trkpt>
      <trkpt lat="45.67678" lon="6.84915">
        <ele>2461.5</ele>
        <time>2021-03-26T10:54:12Z</time>
      </trkpt>
      <trkpt lat="45.67678" lon="6.84914">
        <ele>2461.5</ele>
        <time>2021-03-26T10:54:13Z</time>
      </trkpt>
      <trkpt lat="45.67679" lon="6.84914">
        <ele>2461.5</ele>
        <time>2021-03-26T10:54:14Z</time>
      </trkpt>
      <trkpt lat="45.67679" lon="6.84913">
        <ele>2461.5</ele>
        <time>2021-03-26T10:54:15Z</time>
      </trkpt>
      <trkpt lat="45.67679" lon="6.84913">
        <ele>2461.5</ele>
        <time>2021-03-26T10:54:16Z</time>
      </trkpt>
      <trkpt lat="45.6768" lon="6.84913">
        <ele>2461.5</ele>
        <time>2021-03-26T10:54:17Z</time>
      </trkpt>
      <trkpt lat="45.6768" lon="6.84912">
        <ele>2461.2</ele>
        <time>2021-03-26T10:54:18Z</time>
      </trkpt>
      <trkpt lat="45.67681" lon="6.84911">
        <ele>2463.2</ele>
        <time>2021-03-26T10:54:19Z</time>
      </trkpt>
      <trkpt lat="45.67681" lon="6.84911">
        <ele>2463.2</ele>
        <time>2021-03-26T10:54:20Z</time>
      </trkpt>
      <trkpt lat="45.67681" lon="6.8491">
        <ele>2463.2</ele>
        <time>2021-03-26T10:54:21Z</time>
      </trkpt>
      <trkpt lat="45.67682" lon="6.8491">
        <ele>2463.2</ele>
        <time>2021-03-26T10:54:22Z</time>
      </trkpt>
      <trkpt lat="45.67682" lon="6.84909">
        <ele>2463.2</ele>
        <time>2021-03-26T10:54:23Z</time>
      </trkpt>
      <trkpt lat="45.67683" lon="6.84908">
        <ele>2463.2</ele>
        <time>2021-03-26T10:54:24Z</time>
      </trkpt>
      <trkpt lat="45.67683" lon="6.84907">
        <ele>2465.2</ele>
        <time>2021-03-26T10:54:25Z</time>
      </trkpt>
      <trkpt lat="45.67684" lon="6.84906">
        <ele>2464.8</ele>
        <time>2021-03-26T10:54:26Z</time>
      </trkpt>
      <trkpt lat="45.67684" lon="6.84905">
        <ele>2464.8</ele>
        <time>2021-03-26T10:54:27Z</time>
      </trkpt>
      <trkpt lat="45.67684" lon="6.84905">
        <ele>2464.8</ele>
        <time>2021-03-26T10:54:28Z</time>
      </trkpt>
      <trkpt lat="45.67685" lon="6.84904">
        <ele>2464.8</ele>
        <time>2021-03-26T10:54:29Z</time>
      </trkpt>
      <trkpt lat="45.67685" lon="6.84904">
        <ele>2464.8</ele>
        <time>2021-03-26T10:54:30Z</time>
      </trkpt>
      <trkpt lat="45.67686" lon="6.84903">
        <ele>2464.8</ele>
        <time>2021-03-26T10:54:31Z</time>
      </trkpt>
      <trkpt lat="45.67687" lon="6.84903">
        <ele>2466.4</ele>
        <time>2021-03-26T10:54:32Z</time>
      </trkpt>
      <trkpt lat="45.67687" lon="6.84902">
        <ele>2466.4</ele>
        <time>2021-03-26T10:54:33Z</time>
      </trkpt>
      <trkpt lat="45.67688" lon="6.84902">
        <ele>2466.4</ele>
        <time>2021-03-26T10:54:34Z</time>
      </trkpt>
      <trkpt lat="45.67688" lon="6.84901">
        <ele>2466.4</ele>
        <time>2021-03-26T10:54:35Z</time>
      </trkpt>
      <trkpt lat="45.67689" lon="6.849">
        <ele>2466.4</ele>
        <time>2021-03-26T10:54:36Z</time>
      </trkpt>
      <trkpt lat="45.67689" lon="6.849">
        <ele>2466</ele>
        <time>2021-03-26T10:54:37Z</time>
      </trkpt>
      <trkpt lat="45.6769" lon="6.84899">
        <ele>2466</ele>
        <time>2021-03-26T10:54:38Z</time>
      </trkpt>
      <trkpt lat="45.6769" lon="6.84899">
        <ele>2467.9</ele>
        <time>2021-03-26T10:54:39Z</time>
      </trkpt>
      <trkpt lat="45.67691" lon="6.84898">
        <ele>2467.9</ele>
        <time>2021-03-26T10:54:40Z</time>
      </trkpt>
      <trkpt lat="45.67691" lon="6.84898">
        <ele>2467.9</ele>
        <time>2021-03-26T10:54:41Z</time>
      </trkpt>
      <trkpt lat="45.67692" lon="6.84897">
        <ele>2467.9</ele>
        <time>2021-03-26T10:54:42Z</time>
      </trkpt>
      <trkpt lat="45.67692" lon="6.84897">
        <ele>2467.5</ele>
        <time>2021-03-26T10:54:43Z</time>
      </trkpt>
      <trkpt lat="45.67693" lon="6.84896">
        <ele>2467.5</ele>
        <time>2021-03-26T10:54:44Z</time>
      </trkpt>
      <trkpt lat="45.67693" lon="6.84896">
        <ele>2467.5</ele>
        <time>2021-03-26T10:54:45Z</time>
      </trkpt>
      <trkpt lat="45.67694" lon="6.84896">
        <ele>2467.5</ele>
        <time>2021-03-26T10:54:46Z</time>
      </trkpt>
      <trkpt lat="45.67694" lon="6.84895">
        <ele>2467.5</ele>
        <time>2021-03-26T10:54:47Z</time>
      </trkpt>
      <trkpt lat="45.67694" lon="6.84895">
        <ele>2467.5</ele>
        <time>2021-03-26T10:54:48Z</time>
      </trkpt>
      <trkpt lat="45.67695" lon="6.84894">
        <ele>2469.4</ele>
        <time>2021-03-26T10:54:49Z</time>
      </trkpt>
      <trkpt lat="45.67695" lon="6.84894">
        <ele>2469.4</ele>
        <time>2021-03-26T10:54:50Z</time>
      </trkpt>
      <trkpt lat="45.67695" lon="6.84893">
        <ele>2469.4</ele>
        <time>2021-03-26T10:54:51Z</time>
      </trkpt>
      <trkpt lat="45.67695" lon="6.84892">
        <ele>2469.4</ele>
        <time>2021-03-26T10:54:52Z</time>
      </trkpt>
      <trkpt lat="45.67695" lon="6.84892">
        <ele>2469</ele>
        <time>2021-03-26T10:54:53Z</time>
      </trkpt>
      <trkpt lat="45.67696" lon="6.84891">
        <ele>2469</ele>
        <time>2021-03-26T10:54:54Z</time>
      </trkpt>
      <trkpt lat="45.67696" lon="6.84891">
        <ele>2469</ele>
        <time>2021-03-26T10:54:55Z</time>
      </trkpt>
      <trkpt lat="45.67696" lon="6.8489">
        <ele>2470.8</ele>
        <time>2021-03-26T10:54:56Z</time>
      </trkpt>
      <trkpt lat="45.67696" lon="6.8489">
        <ele>2470.8</ele>
        <time>2021-03-26T10:54:57Z</time>
      </trkpt>
      <trkpt lat="45.67697" lon="6.84889">
        <ele>2470.8</ele>
        <time>2021-03-26T10:54:58Z</time>
      </trkpt>
      <trkpt lat="45.67697" lon="6.84888">
        <ele>2470.8</ele>
        <time>2021-03-26T10:54:59Z</time>
      </trkpt>
      <trkpt lat="45.67697" lon="6.84888">
        <ele>2470.8</ele>
        <time>2021-03-26T10:55:00Z</time>
      </trkpt>
      <trkpt lat="45.67697" lon="6.84887">
        <ele>2470.8</ele>
        <time>2021-03-26T10:55:01Z</time>
      </trkpt>
      <trkpt lat="45.67698" lon="6.84886">
        <ele>2470.8</ele>
        <time>2021-03-26T10:55:02Z</time>
      </trkpt>
      <trkpt lat="45.67698" lon="6.84885">
        <ele>2472.2</ele>
        <time>2021-03-26T10:55:03Z</time>
      </trkpt>
      <trkpt lat="45.67699" lon="6.84885">
        <ele>2472.2</ele>
        <time>2021-03-26T10:55:04Z</time>
      </trkpt>
      <trkpt lat="45.67699" lon="6.84884">
        <ele>2472.2</ele>
        <time>2021-03-26T10:55:05Z</time>
      </trkpt>
      <trkpt lat="45.677" lon="6.84883">
        <ele>2472.2</ele>
        <time>2021-03-26T10:55:06Z</time>
      </trkpt>
      <trkpt lat="45.677" lon="6.84882">
        <ele>2472.2</ele>
        <time>2021-03-26T10:55:07Z</time>
      </trkpt>
      <trkpt lat="45.677" lon="6.84882">
        <ele>2472.2</ele>
        <time>2021-03-26T10:55:08Z</time>
      </trkpt>
      <trkpt lat="45.67701" lon="6.84881">
        <ele>2474</ele>
        <time>2021-03-26T10:55:09Z</time>
      </trkpt>
      <trkpt lat="45.67701" lon="6.8488">
        <ele>2473.6</ele>
        <time>2021-03-26T10:55:10Z</time>
      </trkpt>
      <trkpt lat="45.67702" lon="6.8488">
        <ele>2473.6</ele>
        <time>2021-03-26T10:55:11Z</time>
      </trkpt>
      <trkpt lat="45.67702" lon="6.84879">
        <ele>2473.6</ele>
        <time>2021-03-26T10:55:12Z</time>
      </trkpt>
      <trkpt lat="45.67703" lon="6.84879">
        <ele>2473.6</ele>
        <time>2021-03-26T10:55:13Z</time>
      </trkpt>
      <trkpt lat="45.67703" lon="6.84878">
        <ele>2473.6</ele>
        <time>2021-03-26T10:55:14Z</time>
      </trkpt>
      <trkpt lat="45.67703" lon="6.84878">
        <ele>2473.6</ele>
        <time>2021-03-26T10:55:15Z</time>
      </trkpt>
      <trkpt lat="45.67704" lon="6.84877">
        <ele>2475.4</ele>
        <time>2021-03-26T10:55:16Z</time>
      </trkpt>
      <trkpt lat="45.67704" lon="6.84877">
        <ele>2475.4</ele>
        <time>2021-03-26T10:55:17Z</time>
      </trkpt>
      <trkpt lat="45.67704" lon="6.84876">
        <ele>2475</ele>
        <time>2021-03-26T10:55:18Z</time>
      </trkpt>
      <trkpt lat="45.67705" lon="6.84876">
        <ele>2475</ele>
        <time>2021-03-26T10:55:19Z</time>
      </trkpt>
      <trkpt lat="45.67705" lon="6.84875">
        <ele>2475</ele>
        <time>2021-03-26T10:55:20Z</time>
      </trkpt>
      <trkpt lat="45.67706" lon="6.84875">
        <ele>2475</ele>
        <time>2021-03-26T10:55:21Z</time>
      </trkpt>
      <trkpt lat="45.67706" lon="6.84874">
        <ele>2475</ele>
        <time>2021-03-26T10:55:22Z</time>
      </trkpt>
      <trkpt lat="45.67706" lon="6.84874">
        <ele>2475</ele>
        <time>2021-03-26T10:55:23Z</time>
      </trkpt>
      <trkpt lat="45.67707" lon="6.84874">
        <ele>2475</ele>
        <time>2021-03-26T10:55:24Z</time>
      </trkpt>
      <trkpt lat="45.67707" lon="6.84873">
        <ele>2476.5</ele>
        <time>2021-03-26T10:55:25Z</time>
      </trkpt>
      <trkpt lat="45.67708" lon="6.84873">
        <ele>2476.5</ele>
        <time>2021-03-26T10:55:26Z</time>
      </trkpt>
      <trkpt lat="45.67708" lon="6.84872">
        <ele>2476.5</ele>
        <time>2021-03-26T10:55:27Z</time>
      </trkpt>
      <trkpt lat="45.67708" lon="6.84871">
        <ele>2476.5</ele>
        <time>2021-03-26T10:55:28Z</time>
      </trkpt>
      <trkpt lat="45.67709" lon="6.84871">
        <ele>2476.5</ele>
        <time>2021-03-26T10:55:29Z</time>
      </trkpt>
      <trkpt lat="45.67709" lon="6.8487">
        <ele>2476.5</ele>
        <time>2021-03-26T10:55:30Z</time>
      </trkpt>
      <trkpt lat="45.6771" lon="6.8487">
        <ele>2476.5</ele>
        <time>2021-03-26T10:55:31Z</time>
      </trkpt>
      <trkpt lat="45.6771" lon="6.84869">
        <ele>2476.5</ele>
        <time>2021-03-26T10:55:32Z</time>
      </trkpt>
      <trkpt lat="45.6771" lon="6.84869">
        <ele>2478</ele>
        <time>2021-03-26T10:55:33Z</time>
      </trkpt>
      <trkpt lat="45.67711" lon="6.84868">
        <ele>2478</ele>
        <time>2021-03-26T10:55:34Z</time>
      </trkpt>
      <trkpt lat="45.67711" lon="6.84868">
        <ele>2478</ele>
        <time>2021-03-26T10:55:35Z</time>
      </trkpt>
      <trkpt lat="45.67712" lon="6.84868">
        <ele>2478</ele>
        <time>2021-03-26T10:55:36Z</time>
      </trkpt>
      <trkpt lat="45.67712" lon="6.84867">
        <ele>2478</ele>
        <time>2021-03-26T10:55:37Z</time>
      </trkpt>
      <trkpt lat="45.67713" lon="6.84867">
        <ele>2478</ele>
        <time>2021-03-26T10:55:38Z</time>
      </trkpt>
      <trkpt lat="45.67713" lon="6.84866">
        <ele>2478</ele>
        <time>2021-03-26T10:55:39Z</time>
      </trkpt>
      <trkpt lat="45.67713" lon="6.84866">
        <ele>2477.6</ele>
        <time>2021-03-26T10:55:40Z</time>
      </trkpt>
      <trkpt lat="45.67714" lon="6.84865">
        <ele>2477.6</ele>
        <time>2021-03-26T10:55:41Z</time>
      </trkpt>
      <trkpt lat="45.67714" lon="6.84865">
        <ele>2477.6</ele>
        <time>2021-03-26T10:55:42Z</time>
      </trkpt>
      <trkpt lat="45.67715" lon="6.84865">
        <ele>2477.6</ele>
        <time>2021-03-26T10:55:43Z</time>
      </trkpt>
      <trkpt lat="45.67715" lon="6.84864">
        <ele>2479.6</ele>
        <time>2021-03-26T10:55:44Z</time>
      </trkpt>
      <trkpt lat="45.67716" lon="6.84864">
        <ele>2479.6</ele>
        <time>2021-03-26T10:55:45Z</time>
      </trkpt>
      <trkpt lat="45.67716" lon="6.84864">
        <ele>2479.6</ele>
        <time>2021-03-26T10:55:46Z</time>
      </trkpt>
      <trkpt lat="45.67716" lon="6.84864">
        <ele>2479.2</ele>
        <time>2021-03-26T10:55:47Z</time>
      </trkpt>
      <trkpt lat="45.67717" lon="6.84863">
        <ele>2479.2</ele>
        <time>2021-03-26T10:55:48Z</time>
      </trkpt>
      <trkpt lat="45.67718" lon="6.84863">
        <ele>2479.2</ele>
        <time>2021-03-26T10:55:49Z</time>
      </trkpt>
      <trkpt lat="45.67718" lon="6.84863">
        <ele>2479.2</ele>
        <time>2021-03-26T10:55:50Z</time>
      </trkpt>
      <trkpt lat="45.67719" lon="6.84862">
        <ele>2479.2</ele>
        <time>2021-03-26T10:55:51Z</time>
      </trkpt>
      <trkpt lat="45.67719" lon="6.84862">
        <ele>2479.2</ele>
        <time>2021-03-26T10:55:52Z</time>
      </trkpt>
      <trkpt lat="45.6772" lon="6.84862">
        <ele>2478.9</ele>
        <time>2021-03-26T10:55:53Z</time>
      </trkpt>
      <trkpt lat="45.6772" lon="6.84861">
        <ele>2478.9</ele>
        <time>2021-03-26T10:55:54Z</time>
      </trkpt>
      <trkpt lat="45.6772" lon="6.84861">
        <ele>2478.9</ele>
        <time>2021-03-26T10:55:55Z</time>
      </trkpt>
      <trkpt lat="45.6772" lon="6.8486">
        <ele>2480.8</ele>
        <time>2021-03-26T10:55:56Z</time>
      </trkpt>
      <trkpt lat="45.67721" lon="6.84859">
        <ele>2480.8</ele>
        <time>2021-03-26T10:55:57Z</time>
      </trkpt>
      <trkpt lat="45.67721" lon="6.84859">
        <ele>2480.8</ele>
        <time>2021-03-26T10:55:58Z</time>
      </trkpt>
      <trkpt lat="45.67721" lon="6.84858">
        <ele>2480.8</ele>
        <time>2021-03-26T10:55:59Z</time>
      </trkpt>
      <trkpt lat="45.67722" lon="6.84858">
        <ele>2480.8</ele>
        <time>2021-03-26T10:56:00Z</time>
      </trkpt>
      <trkpt lat="45.67722" lon="6.84857">
        <ele>2480.8</ele>
        <time>2021-03-26T10:56:01Z</time>
      </trkpt>
      <trkpt lat="45.67722" lon="6.84857">
        <ele>2480.5</ele>
        <time>2021-03-26T10:56:02Z</time>
      </trkpt>
      <trkpt lat="45.67723" lon="6.84856">
        <ele>2480.5</ele>
        <time>2021-03-26T10:56:03Z</time>
      </trkpt>
      <trkpt lat="45.67723" lon="6.84856">
        <ele>2482.4</ele>
        <time>2021-03-26T10:56:04Z</time>
      </trkpt>
      <trkpt lat="45.67723" lon="6.84855">
        <ele>2482.4</ele>
        <time>2021-03-26T10:56:05Z</time>
      </trkpt>
      <trkpt lat="45.67724" lon="6.84855">
        <ele>2482.4</ele>
        <time>2021-03-26T10:56:06Z</time>
      </trkpt>
      <trkpt lat="45.67724" lon="6.84854">
        <ele>2482.4</ele>
        <time>2021-03-26T10:56:07Z</time>
      </trkpt>
      <trkpt lat="45.67725" lon="6.84854">
        <ele>2482.4</ele>
        <time>2021-03-26T10:56:08Z</time>
      </trkpt>
      <trkpt lat="45.67725" lon="6.84854">
        <ele>2482.4</ele>
        <time>2021-03-26T10:56:09Z</time>
      </trkpt>
      <trkpt lat="45.67725" lon="6.84854">
        <ele>2482.1</ele>
        <time>2021-03-26T10:56:10Z</time>
      </trkpt>
      <trkpt lat="45.67726" lon="6.84853">
        <ele>2482.1</ele>
        <time>2021-03-26T10:56:11Z</time>
      </trkpt>
      <trkpt lat="45.67726" lon="6.84853">
        <ele>2482.1</ele>
        <time>2021-03-26T10:56:12Z</time>
      </trkpt>
      <trkpt lat="45.67727" lon="6.84853">
        <ele>2482.1</ele>
        <time>2021-03-26T10:56:13Z</time>
      </trkpt>
      <trkpt lat="45.67727" lon="6.84853">
        <ele>2482.1</ele>
        <time>2021-03-26T10:56:14Z</time>
      </trkpt>
      <trkpt lat="45.67728" lon="6.84853">
        <ele>2482.1</ele>
        <time>2021-03-26T10:56:15Z</time>
      </trkpt>
      <trkpt lat="45.67728" lon="6.84853">
        <ele>2482.1</ele>
        <time>2021-03-26T10:56:16Z</time>
      </trkpt>
      <trkpt lat="45.67729" lon="6.84853">
        <ele>2481.9</ele>
        <time>2021-03-26T10:56:17Z</time>
      </trkpt>
      <trkpt lat="45.67729" lon="6.84853">
        <ele>2481.9</ele>
        <time>2021-03-26T10:56:18Z</time>
      </trkpt>
      <trkpt lat="45.6773" lon="6.84852">
        <ele>2481.9</ele>
        <time>2021-03-26T10:56:19Z</time>
      </trkpt>
      <trkpt lat="45.6773" lon="6.84852">
        <ele>2481.9</ele>
        <time>2021-03-26T10:56:20Z</time>
      </trkpt>
      <trkpt lat="45.67731" lon="6.84852">
        <ele>2483.7</ele>
        <time>2021-03-26T10:56:21Z</time>
      </trkpt>
      <trkpt lat="45.67731" lon="6.84851">
        <ele>2483.7</ele>
        <time>2021-03-26T10:56:22Z</time>
      </trkpt>
      <trkpt lat="45.67731" lon="6.84851">
        <ele>2483.5</ele>
        <time>2021-03-26T10:56:23Z</time>
      </trkpt>
      <trkpt lat="45.67731" lon="6.84851">
        <ele>2483.5</ele>
        <time>2021-03-26T10:56:24Z</time>
      </trkpt>
      <trkpt lat="45.67732" lon="6.8485">
        <ele>2483.5</ele>
        <time>2021-03-26T10:56:25Z</time>
      </trkpt>
      <trkpt lat="45.67733" lon="6.8485">
        <ele>2483.5</ele>
        <time>2021-03-26T10:56:26Z</time>
      </trkpt>
      <trkpt lat="45.67733" lon="6.8485">
        <ele>2483.5</ele>
        <time>2021-03-26T10:56:27Z</time>
      </trkpt>
      <trkpt lat="45.67734" lon="6.84849">
        <ele>2483.5</ele>
        <time>2021-03-26T10:56:28Z</time>
      </trkpt>
      <trkpt lat="45.67734" lon="6.84849">
        <ele>2483.5</ele>
        <time>2021-03-26T10:56:29Z</time>
      </trkpt>
      <trkpt lat="45.67734" lon="6.84849">
        <ele>2483.3</ele>
        <time>2021-03-26T10:56:30Z</time>
      </trkpt>
      <trkpt lat="45.67735" lon="6.84849">
        <ele>2483.3</ele>
        <time>2021-03-26T10:56:31Z</time>
      </trkpt>
      <trkpt lat="45.67735" lon="6.84848">
        <ele>2483.3</ele>
        <time>2021-03-26T10:56:32Z</time>
      </trkpt>
      <trkpt lat="45.67736" lon="6.84847">
        <ele>2483.3</ele>
        <time>2021-03-26T10:56:33Z</time>
      </trkpt>
      <trkpt lat="45.67737" lon="6.84847">
        <ele>2485.1</ele>
        <time>2021-03-26T10:56:34Z</time>
      </trkpt>
      <trkpt lat="45.67737" lon="6.84846">
        <ele>2485.1</ele>
        <time>2021-03-26T10:56:35Z</time>
      </trkpt>
      <trkpt lat="45.67738" lon="6.84846">
        <ele>2484.9</ele>
        <time>2021-03-26T10:56:36Z</time>
      </trkpt>
      <trkpt lat="45.67738" lon="6.84845">
        <ele>2484.9</ele>
        <time>2021-03-26T10:56:37Z</time>
      </trkpt>
      <trkpt lat="45.67739" lon="6.84845">
        <ele>2484.9</ele>
        <time>2021-03-26T10:56:38Z</time>
      </trkpt>
      <trkpt lat="45.67739" lon="6.84844">
        <ele>2484.9</ele>
        <time>2021-03-26T10:56:39Z</time>
      </trkpt>
      <trkpt lat="45.6774" lon="6.84844">
        <ele>2484.9</ele>
        <time>2021-03-26T10:56:40Z</time>
      </trkpt>
      <trkpt lat="45.6774" lon="6.84843">
        <ele>2486.5</ele>
        <time>2021-03-26T10:56:41Z</time>
      </trkpt>
      <trkpt lat="45.67741" lon="6.84842">
        <ele>2486.5</ele>
        <time>2021-03-26T10:56:42Z</time>
      </trkpt>
      <trkpt lat="45.67741" lon="6.84842">
        <ele>2486.5</ele>
        <time>2021-03-26T10:56:43Z</time>
      </trkpt>
      <trkpt lat="45.67742" lon="6.84841">
        <ele>2486.5</ele>
        <time>2021-03-26T10:56:44Z</time>
      </trkpt>
      <trkpt lat="45.67742" lon="6.84841">
        <ele>2486.5</ele>
        <time>2021-03-26T10:56:45Z</time>
      </trkpt>
      <trkpt lat="45.67743" lon="6.8484">
        <ele>2486.5</ele>
        <time>2021-03-26T10:56:46Z</time>
      </trkpt>
      <trkpt lat="45.67743" lon="6.8484">
        <ele>2486.5</ele>
        <time>2021-03-26T10:56:47Z</time>
      </trkpt>
      <trkpt lat="45.67743" lon="6.84839">
        <ele>2486.4</ele>
        <time>2021-03-26T10:56:48Z</time>
      </trkpt>
      <trkpt lat="45.67744" lon="6.84839">
        <ele>2488.1</ele>
        <time>2021-03-26T10:56:49Z</time>
      </trkpt>
      <trkpt lat="45.67744" lon="6.84838">
        <ele>2488.1</ele>
        <time>2021-03-26T10:56:50Z</time>
      </trkpt>
      <trkpt lat="45.67745" lon="6.84838">
        <ele>2488.2</ele>
        <time>2021-03-26T10:56:51Z</time>
      </trkpt>
      <trkpt lat="45.67745" lon="6.84837">
        <ele>2488.3</ele>
        <time>2021-03-26T10:56:52Z</time>
      </trkpt>
      <trkpt lat="45.67745" lon="6.84837">
        <ele>2488.4</ele>
        <time>2021-03-26T10:56:53Z</time>
      </trkpt>
      <trkpt lat="45.67746" lon="6.84837">
        <ele>2488.5</ele>
        <time>2021-03-26T10:56:54Z</time>
      </trkpt>
      <trkpt lat="45.67746" lon="6.84836">
        <ele>2488.4</ele>
        <time>2021-03-26T10:56:55Z</time>
      </trkpt>
      <trkpt lat="45.67747" lon="6.84836">
        <ele>2488.5</ele>
        <time>2021-03-26T10:56:56Z</time>
      </trkpt>
      <trkpt lat="45.67747" lon="6.84836">
        <ele>2488.6</ele>
        <time>2021-03-26T10:56:57Z</time>
      </trkpt>
      <trkpt lat="45.67747" lon="6.84835">
        <ele>2488.7</ele>
        <time>2021-03-26T10:56:58Z</time>
      </trkpt>
      <trkpt lat="45.67748" lon="6.84835">
        <ele>2488.8</ele>
        <time>2021-03-26T10:56:59Z</time>
      </trkpt>
      <trkpt lat="45.67748" lon="6.84835">
        <ele>2488.9</ele>
        <time>2021-03-26T10:57:00Z</time>
      </trkpt>
      <trkpt lat="45.67748" lon="6.84834">
        <ele>2490.7</ele>
        <time>2021-03-26T10:57:01Z</time>
      </trkpt>
      <trkpt lat="45.67749" lon="6.84834">
        <ele>2490.8</ele>
        <time>2021-03-26T10:57:02Z</time>
      </trkpt>
      <trkpt lat="45.67749" lon="6.84834">
        <ele>2490.8</ele>
        <time>2021-03-26T10:57:03Z</time>
      </trkpt>
      <trkpt lat="45.6775" lon="6.84833">
        <ele>2490.9</ele>
        <time>2021-03-26T10:57:04Z</time>
      </trkpt>
      <trkpt lat="45.6775" lon="6.84833">
        <ele>2491</ele>
        <time>2021-03-26T10:57:05Z</time>
      </trkpt>
      <trkpt lat="45.67751" lon="6.84832">
        <ele>2491.1</ele>
        <time>2021-03-26T10:57:06Z</time>
      </trkpt>
      <trkpt lat="45.67751" lon="6.84832">
        <ele>2491.1</ele>
        <time>2021-03-26T10:57:07Z</time>
      </trkpt>
      <trkpt lat="45.67752" lon="6.84831">
        <ele>2491.2</ele>
        <time>2021-03-26T10:57:08Z</time>
      </trkpt>
      <trkpt lat="45.67753" lon="6.84831">
        <ele>2491.2</ele>
        <time>2021-03-26T10:57:09Z</time>
      </trkpt>
      <trkpt lat="45.67753" lon="6.8483">
        <ele>2493.1</ele>
        <time>2021-03-26T10:57:10Z</time>
      </trkpt>
      <trkpt lat="45.67754" lon="6.8483">
        <ele>2493.2</ele>
        <time>2021-03-26T10:57:11Z</time>
      </trkpt>
      <trkpt lat="45.67754" lon="6.8483">
        <ele>2493.3</ele>
        <time>2021-03-26T10:57:12Z</time>
      </trkpt>
      <trkpt lat="45.67755" lon="6.84829">
        <ele>2493.4</ele>
        <time>2021-03-26T10:57:13Z</time>
      </trkpt>
      <trkpt lat="45.67755" lon="6.84829">
        <ele>2493.5</ele>
        <time>2021-03-26T10:57:14Z</time>
      </trkpt>
      <trkpt lat="45.67755" lon="6.84828">
        <ele>2493.5</ele>
        <time>2021-03-26T10:57:15Z</time>
      </trkpt>
      <trkpt lat="45.67756" lon="6.84828">
        <ele>2493.6</ele>
        <time>2021-03-26T10:57:16Z</time>
      </trkpt>
      <trkpt lat="45.67756" lon="6.84828">
        <ele>2493.7</ele>
        <time>2021-03-26T10:57:17Z</time>
      </trkpt>
      <trkpt lat="45.67757" lon="6.84827">
        <ele>2493.8</ele>
        <time>2021-03-26T10:57:18Z</time>
      </trkpt>
      <trkpt lat="45.67757" lon="6.84826">
        <ele>2493.9</ele>
        <time>2021-03-26T10:57:19Z</time>
      </trkpt>
      <trkpt lat="45.67757" lon="6.84826">
        <ele>2494</ele>
        <time>2021-03-26T10:57:20Z</time>
      </trkpt>
      <trkpt lat="45.67758" lon="6.84825">
        <ele>2495.8</ele>
        <time>2021-03-26T10:57:21Z</time>
      </trkpt>
      <trkpt lat="45.67758" lon="6.84825">
        <ele>2495.9</ele>
        <time>2021-03-26T10:57:22Z</time>
      </trkpt>
      <trkpt lat="45.67759" lon="6.84824">
        <ele>2496</ele>
        <time>2021-03-26T10:57:23Z</time>
      </trkpt>
      <trkpt lat="45.67759" lon="6.84824">
        <ele>2496.1</ele>
        <time>2021-03-26T10:57:24Z</time>
      </trkpt>
      <trkpt lat="45.6776" lon="6.84824">
        <ele>2496.2</ele>
        <time>2021-03-26T10:57:25Z</time>
      </trkpt>
      <trkpt lat="45.67761" lon="6.84823">
        <ele>2496.3</ele>
        <time>2021-03-26T10:57:26Z</time>
      </trkpt>
      <trkpt lat="45.67761" lon="6.84823">
        <ele>2496.4</ele>
        <time>2021-03-26T10:57:27Z</time>
      </trkpt>
      <trkpt lat="45.67762" lon="6.84823">
        <ele>2496.4</ele>
        <time>2021-03-26T10:57:28Z</time>
      </trkpt>
      <trkpt lat="45.67762" lon="6.84822">
        <ele>2496.5</ele>
        <time>2021-03-26T10:57:29Z</time>
      </trkpt>
      <trkpt lat="45.67763" lon="6.84822">
        <ele>2496.6</ele>
        <time>2021-03-26T10:57:30Z</time>
      </trkpt>
      <trkpt lat="45.67763" lon="6.84821">
        <ele>2498.5</ele>
        <time>2021-03-26T10:57:31Z</time>
      </trkpt>
      <trkpt lat="45.67763" lon="6.84821">
        <ele>2498.6</ele>
        <time>2021-03-26T10:57:32Z</time>
      </trkpt>
      <trkpt lat="45.67763" lon="6.84821">
        <ele>2498.7</ele>
        <time>2021-03-26T10:57:33Z</time>
      </trkpt>
      <trkpt lat="45.67763" lon="6.84821">
        <ele>2498.8</ele>
        <time>2021-03-26T10:57:34Z</time>
      </trkpt>
      <trkpt lat="45.67763" lon="6.84821">
        <ele>2498.9</ele>
        <time>2021-03-26T10:57:35Z</time>
      </trkpt>
      <trkpt lat="45.67763" lon="6.84821">
        <ele>2499</ele>
        <time>2021-03-26T10:57:36Z</time>
      </trkpt>
      <trkpt lat="45.67763" lon="6.84821">
        <ele>2499.1</ele>
        <time>2021-03-26T10:57:37Z</time>
      </trkpt>
      <trkpt lat="45.67763" lon="6.84821">
        <ele>2499.2</ele>
        <time>2021-03-26T10:57:38Z</time>
      </trkpt>
      <trkpt lat="45.67763" lon="6.84821">
        <ele>2499.3</ele>
        <time>2021-03-26T10:57:39Z</time>
      </trkpt>
      <trkpt lat="45.67763" lon="6.84821">
        <ele>2499.4</ele>
        <time>2021-03-26T10:57:40Z</time>
      </trkpt>
      <trkpt lat="45.67763" lon="6.84821">
        <ele>2499.5</ele>
        <time>2021-03-26T10:57:41Z</time>
      </trkpt>
      <trkpt lat="45.67766" lon="6.8482">
        <ele>2499.6</ele>
        <time>2021-03-26T10:57:45Z</time>
      </trkpt>
      <trkpt lat="45.67766" lon="6.84819">
        <ele>2499.7</ele>
        <time>2021-03-26T10:57:46Z</time>
      </trkpt>
      <trkpt lat="45.67767" lon="6.84819">
        <ele>2499.8</ele>
        <time>2021-03-26T10:57:47Z</time>
      </trkpt>
      <trkpt lat="45.67767" lon="6.84819">
        <ele>2499.9</ele>
        <time>2021-03-26T10:57:48Z</time>
      </trkpt>
      <trkpt lat="45.67768" lon="6.84819">
        <ele>2500</ele>
        <time>2021-03-26T10:57:49Z</time>
      </trkpt>
      <trkpt lat="45.67768" lon="6.84819">
        <ele>2500.1</ele>
        <time>2021-03-26T10:57:50Z</time>
      </trkpt>
      <trkpt lat="45.67769" lon="6.84819">
        <ele>2500.2</ele>
        <time>2021-03-26T10:57:51Z</time>
      </trkpt>
      <trkpt lat="45.67769" lon="6.84819">
        <ele>2500.3</ele>
        <time>2021-03-26T10:57:52Z</time>
      </trkpt>
      <trkpt lat="45.6777" lon="6.84818">
        <ele>2500.4</ele>
        <time>2021-03-26T10:57:53Z</time>
      </trkpt>
      <trkpt lat="45.6777" lon="6.84818">
        <ele>2500.6</ele>
        <time>2021-03-26T10:57:54Z</time>
      </trkpt>
      <trkpt lat="45.67771" lon="6.84818">
        <ele>2500.7</ele>
        <time>2021-03-26T10:57:55Z</time>
      </trkpt>
      <trkpt lat="45.67771" lon="6.84818">
        <ele>2500.7</ele>
        <time>2021-03-26T10:57:56Z</time>
      </trkpt>
      <trkpt lat="45.67772" lon="6.84818">
        <ele>2500.8</ele>
        <time>2021-03-26T10:57:57Z</time>
      </trkpt>
      <trkpt lat="45.67772" lon="6.84818">
        <ele>2500.9</ele>
        <time>2021-03-26T10:57:58Z</time>
      </trkpt>
      <trkpt lat="45.67773" lon="6.84818">
        <ele>2501</ele>
        <time>2021-03-26T10:57:59Z</time>
      </trkpt>
      <trkpt lat="45.67774" lon="6.84818">
        <ele>2501.1</ele>
        <time>2021-03-26T10:58:00Z</time>
      </trkpt>
      <trkpt lat="45.67774" lon="6.84818">
        <ele>2501.2</ele>
        <time>2021-03-26T10:58:01Z</time>
      </trkpt>
      <trkpt lat="45.67775" lon="6.84818">
        <ele>2501.3</ele>
        <time>2021-03-26T10:58:02Z</time>
      </trkpt>
      <trkpt lat="45.67776" lon="6.84818">
        <ele>2501.4</ele>
        <time>2021-03-26T10:58:03Z</time>
      </trkpt>
      <trkpt lat="45.67776" lon="6.84818">
        <ele>2501.5</ele>
        <time>2021-03-26T10:58:04Z</time>
      </trkpt>
      <trkpt lat="45.67777" lon="6.84818">
        <ele>2501.6</ele>
        <time>2021-03-26T10:58:05Z</time>
      </trkpt>
      <trkpt lat="45.67777" lon="6.84818">
        <ele>2501.7</ele>
        <time>2021-03-26T10:58:06Z</time>
      </trkpt>
      <trkpt lat="45.67778" lon="6.84817">
        <ele>2501.8</ele>
        <time>2021-03-26T10:58:07Z</time>
      </trkpt>
      <trkpt lat="45.67778" lon="6.84817">
        <ele>2501.9</ele>
        <time>2021-03-26T10:58:08Z</time>
      </trkpt>
      <trkpt lat="45.67779" lon="6.84817">
        <ele>2503.8</ele>
        <time>2021-03-26T10:58:09Z</time>
      </trkpt>
      <trkpt lat="45.67779" lon="6.84817">
        <ele>2503.9</ele>
        <time>2021-03-26T10:58:10Z</time>
      </trkpt>
      <trkpt lat="45.6778" lon="6.84817">
        <ele>2504</ele>
        <time>2021-03-26T10:58:11Z</time>
      </trkpt>
      <trkpt lat="45.6778" lon="6.84817">
        <ele>2504.1</ele>
        <time>2021-03-26T10:58:12Z</time>
      </trkpt>
      <trkpt lat="45.67781" lon="6.84817">
        <ele>2504.2</ele>
        <time>2021-03-26T10:58:13Z</time>
      </trkpt>
      <trkpt lat="45.67781" lon="6.84817">
        <ele>2504.3</ele>
        <time>2021-03-26T10:58:14Z</time>
      </trkpt>
      <trkpt lat="45.67782" lon="6.84817">
        <ele>2504.4</ele>
        <time>2021-03-26T10:58:15Z</time>
      </trkpt>
      <trkpt lat="45.67782" lon="6.84817">
        <ele>2504.6</ele>
        <time>2021-03-26T10:58:16Z</time>
      </trkpt>
      <trkpt lat="45.67783" lon="6.84817">
        <ele>2504.6</ele>
        <time>2021-03-26T10:58:17Z</time>
      </trkpt>
      <trkpt lat="45.67783" lon="6.84817">
        <ele>2503</ele>
        <time>2021-03-26T10:58:18Z</time>
      </trkpt>
      <trkpt lat="45.67784" lon="6.84818">
        <ele>2503.1</ele>
        <time>2021-03-26T10:58:19Z</time>
      </trkpt>
      <trkpt lat="45.67784" lon="6.84818">
        <ele>2503.2</ele>
        <time>2021-03-26T10:58:20Z</time>
      </trkpt>
      <trkpt lat="45.67784" lon="6.84818">
        <ele>2503.3</ele>
        <time>2021-03-26T10:58:21Z</time>
      </trkpt>
      <trkpt lat="45.67784" lon="6.84818">
        <ele>2503.4</ele>
        <time>2021-03-26T10:58:22Z</time>
      </trkpt>
      <trkpt lat="45.67784" lon="6.84818">
        <ele>2503.5</ele>
        <time>2021-03-26T10:58:23Z</time>
      </trkpt>
      <trkpt lat="45.67784" lon="6.84818">
        <ele>2503.6</ele>
        <time>2021-03-26T10:58:24Z</time>
      </trkpt>
      <trkpt lat="45.67784" lon="6.84818">
        <ele>2503.7</ele>
        <time>2021-03-26T10:58:25Z</time>
      </trkpt>
      <trkpt lat="45.67784" lon="6.84818">
        <ele>2503.8</ele>
        <time>2021-03-26T10:58:26Z</time>
      </trkpt>
      <trkpt lat="45.67784" lon="6.84818">
        <ele>2503.9</ele>
        <time>2021-03-26T10:58:27Z</time>
      </trkpt>
      <trkpt lat="45.67784" lon="6.84818">
        <ele>2504</ele>
        <time>2021-03-26T10:58:28Z</time>
      </trkpt>
      <trkpt lat="45.67778" lon="6.84806">
        <ele>2509.3</ele>
        <time>2021-03-26T10:58:58Z</time>
      </trkpt>
      <trkpt lat="45.67777" lon="6.84805">
        <ele>2509.4</ele>
        <time>2021-03-26T10:58:59Z</time>
      </trkpt>
      <trkpt lat="45.67777" lon="6.84804">
        <ele>2511.3</ele>
        <time>2021-03-26T10:59:00Z</time>
      </trkpt>
      <trkpt lat="45.67777" lon="6.84803">
        <ele>2511.4</ele>
        <time>2021-03-26T10:59:01Z</time>
      </trkpt>
      <trkpt lat="45.67776" lon="6.84803">
        <ele>2511.5</ele>
        <time>2021-03-26T10:59:02Z</time>
      </trkpt>
      <trkpt lat="45.67776" lon="6.84802">
        <ele>2511.5</ele>
        <time>2021-03-26T10:59:03Z</time>
      </trkpt>
      <trkpt lat="45.67775" lon="6.84801">
        <ele>2511.5</ele>
        <time>2021-03-26T10:59:04Z</time>
      </trkpt>
      <trkpt lat="45.67775" lon="6.848">
        <ele>2511.5</ele>
        <time>2021-03-26T10:59:05Z</time>
      </trkpt>
      <trkpt lat="45.67774" lon="6.848">
        <ele>2513.3</ele>
        <time>2021-03-26T10:59:06Z</time>
      </trkpt>
      <trkpt lat="45.67774" lon="6.84799">
        <ele>2513.3</ele>
        <time>2021-03-26T10:59:07Z</time>
      </trkpt>
      <trkpt lat="45.67774" lon="6.84798">
        <ele>2513.3</ele>
        <time>2021-03-26T10:59:08Z</time>
      </trkpt>
      <trkpt lat="45.67774" lon="6.84797">
        <ele>2513.3</ele>
        <time>2021-03-26T10:59:09Z</time>
      </trkpt>
      <trkpt lat="45.67774" lon="6.84796">
        <ele>2513.3</ele>
        <time>2021-03-26T10:59:10Z</time>
      </trkpt>
      <trkpt lat="45.67774" lon="6.84795">
        <ele>2514.9</ele>
        <time>2021-03-26T10:59:11Z</time>
      </trkpt>
      <trkpt lat="45.67773" lon="6.84795">
        <ele>2515.1</ele>
        <time>2021-03-26T10:59:12Z</time>
      </trkpt>
      <trkpt lat="45.67772" lon="6.84794">
        <ele>2515.1</ele>
        <time>2021-03-26T10:59:13Z</time>
      </trkpt>
      <trkpt lat="45.67772" lon="6.84793">
        <ele>2515.1</ele>
        <time>2021-03-26T10:59:14Z</time>
      </trkpt>
      <trkpt lat="45.67771" lon="6.84793">
        <ele>2515.1</ele>
        <time>2021-03-26T10:59:15Z</time>
      </trkpt>
      <trkpt lat="45.67771" lon="6.84793">
        <ele>2515.1</ele>
        <time>2021-03-26T10:59:16Z</time>
      </trkpt>
      <trkpt lat="45.67771" lon="6.84792">
        <ele>2515.1</ele>
        <time>2021-03-26T10:59:17Z</time>
      </trkpt>
      <trkpt lat="45.6777" lon="6.84791">
        <ele>2516.7</ele>
        <time>2021-03-26T10:59:18Z</time>
      </trkpt>
      <trkpt lat="45.6777" lon="6.84791">
        <ele>2516.9</ele>
        <time>2021-03-26T10:59:19Z</time>
      </trkpt>
      <trkpt lat="45.6777" lon="6.8479">
        <ele>2516.9</ele>
        <time>2021-03-26T10:59:20Z</time>
      </trkpt>
      <trkpt lat="45.6777" lon="6.8479">
        <ele>2516.9</ele>
        <time>2021-03-26T10:59:21Z</time>
      </trkpt>
      <trkpt lat="45.67769" lon="6.84789">
        <ele>2516.9</ele>
        <time>2021-03-26T10:59:22Z</time>
      </trkpt>
      <trkpt lat="45.67769" lon="6.84789">
        <ele>2516.9</ele>
        <time>2021-03-26T10:59:23Z</time>
      </trkpt>
      <trkpt lat="45.67768" lon="6.84789">
        <ele>2516.9</ele>
        <time>2021-03-26T10:59:24Z</time>
      </trkpt>
      <trkpt lat="45.67767" lon="6.84789">
        <ele>2517</ele>
        <time>2021-03-26T10:59:25Z</time>
      </trkpt>
      <trkpt lat="45.67767" lon="6.84788">
        <ele>2517</ele>
        <time>2021-03-26T10:59:26Z</time>
      </trkpt>
      <trkpt lat="45.67766" lon="6.84788">
        <ele>2517</ele>
        <time>2021-03-26T10:59:27Z</time>
      </trkpt>
      <trkpt lat="45.67766" lon="6.84787">
        <ele>2517</ele>
        <time>2021-03-26T10:59:28Z</time>
      </trkpt>
      <trkpt lat="45.67766" lon="6.84787">
        <ele>2518.7</ele>
        <time>2021-03-26T10:59:29Z</time>
      </trkpt>
      <trkpt lat="45.67766" lon="6.84786">
        <ele>2518.7</ele>
        <time>2021-03-26T10:59:30Z</time>
      </trkpt>
      <trkpt lat="45.67765" lon="6.84786">
        <ele>2518.7</ele>
        <time>2021-03-26T10:59:31Z</time>
      </trkpt>
      <trkpt lat="45.67765" lon="6.84785">
        <ele>2518.7</ele>
        <time>2021-03-26T10:59:32Z</time>
      </trkpt>
      <trkpt lat="45.67765" lon="6.84784">
        <ele>2518.7</ele>
        <time>2021-03-26T10:59:33Z</time>
      </trkpt>
      <trkpt lat="45.67765" lon="6.84783">
        <ele>2518.7</ele>
        <time>2021-03-26T10:59:34Z</time>
      </trkpt>
      <trkpt lat="45.67764" lon="6.84783">
        <ele>2520.6</ele>
        <time>2021-03-26T10:59:35Z</time>
      </trkpt>
      <trkpt lat="45.67764" lon="6.84782">
        <ele>2520.6</ele>
        <time>2021-03-26T10:59:36Z</time>
      </trkpt>
      <trkpt lat="45.67765" lon="6.84781">
        <ele>2520.6</ele>
        <time>2021-03-26T10:59:37Z</time>
      </trkpt>
      <trkpt lat="45.67765" lon="6.8478">
        <ele>2520.6</ele>
        <time>2021-03-26T10:59:38Z</time>
      </trkpt>
      <trkpt lat="45.67765" lon="6.84779">
        <ele>2522.6</ele>
        <time>2021-03-26T10:59:39Z</time>
      </trkpt>
      <trkpt lat="45.67765" lon="6.84778">
        <ele>2522.6</ele>
        <time>2021-03-26T10:59:40Z</time>
      </trkpt>
      <trkpt lat="45.67765" lon="6.84777">
        <ele>2522.6</ele>
        <time>2021-03-26T10:59:41Z</time>
      </trkpt>
      <trkpt lat="45.67764" lon="6.84776">
        <ele>2522.6</ele>
        <time>2021-03-26T10:59:42Z</time>
      </trkpt>
      <trkpt lat="45.67764" lon="6.84775">
        <ele>2522.6</ele>
        <time>2021-03-26T10:59:43Z</time>
      </trkpt>
      <trkpt lat="45.67764" lon="6.84774">
        <ele>2524.7</ele>
        <time>2021-03-26T10:59:44Z</time>
      </trkpt>
      <trkpt lat="45.67764" lon="6.84773">
        <ele>2524.7</ele>
        <time>2021-03-26T10:59:45Z</time>
      </trkpt>
      <trkpt lat="45.67764" lon="6.84772">
        <ele>2524.7</ele>
        <time>2021-03-26T10:59:46Z</time>
      </trkpt>
      <trkpt lat="45.67765" lon="6.84771">
        <ele>2524.7</ele>
        <time>2021-03-26T10:59:47Z</time>
      </trkpt>
      <trkpt lat="45.67765" lon="6.84771">
        <ele>2524.7</ele>
        <time>2021-03-26T10:59:48Z</time>
      </trkpt>
      <trkpt lat="45.67766" lon="6.8477">
        <ele>2524.7</ele>
        <time>2021-03-26T10:59:49Z</time>
      </trkpt>
      <trkpt lat="45.67766" lon="6.8477">
        <ele>2526.8</ele>
        <time>2021-03-26T10:59:50Z</time>
      </trkpt>
      <trkpt lat="45.67766" lon="6.8477">
        <ele>2526.8</ele>
        <time>2021-03-26T10:59:51Z</time>
      </trkpt>
      <trkpt lat="45.67767" lon="6.84769">
        <ele>2526.8</ele>
        <time>2021-03-26T10:59:52Z</time>
      </trkpt>
      <trkpt lat="45.67767" lon="6.84769">
        <ele>2526.8</ele>
        <time>2021-03-26T10:59:53Z</time>
      </trkpt>
      <trkpt lat="45.67767" lon="6.84769">
        <ele>2526.6</ele>
        <time>2021-03-26T10:59:54Z</time>
      </trkpt>
      <trkpt lat="45.67768" lon="6.84768">
        <ele>2526.6</ele>
        <time>2021-03-26T10:59:55Z</time>
      </trkpt>
      <trkpt lat="45.67768" lon="6.84768">
        <ele>2526.6</ele>
        <time>2021-03-26T10:59:56Z</time>
      </trkpt>
      <trkpt lat="45.67768" lon="6.84768">
        <ele>2526.6</ele>
        <time>2021-03-26T10:59:57Z</time>
      </trkpt>
      <trkpt lat="45.67769" lon="6.84768">
        <ele>2526.6</ele>
        <time>2021-03-26T10:59:58Z</time>
      </trkpt>
      <trkpt lat="45.67769" lon="6.84768">
        <ele>2526.6</ele>
        <time>2021-03-26T10:59:59Z</time>
      </trkpt>
      <trkpt lat="45.67769" lon="6.84768">
        <ele>2526.6</ele>
        <time>2021-03-26T11:00:00Z</time>
      </trkpt>
      <trkpt lat="45.6777" lon="6.84768">
        <ele>2526.6</ele>
        <time>2021-03-26T11:00:01Z</time>
      </trkpt>
      <trkpt lat="45.6777" lon="6.84769">
        <ele>2526.6</ele>
        <time>2021-03-26T11:00:02Z</time>
      </trkpt>
      <trkpt lat="45.6777" lon="6.84769">
        <ele>2526.6</ele>
        <time>2021-03-26T11:00:03Z</time>
      </trkpt>
      <trkpt lat="45.67771" lon="6.84769">
        <ele>2526.4</ele>
        <time>2021-03-26T11:00:04Z</time>
      </trkpt>
      <trkpt lat="45.67771" lon="6.8477">
        <ele>2526.4</ele>
        <time>2021-03-26T11:00:05Z</time>
      </trkpt>
      <trkpt lat="45.67771" lon="6.8477">
        <ele>2526.4</ele>
        <time>2021-03-26T11:00:06Z</time>
      </trkpt>
      <trkpt lat="45.67771" lon="6.8477">
        <ele>2526.4</ele>
        <time>2021-03-26T11:00:07Z</time>
      </trkpt>
      <trkpt lat="45.67772" lon="6.8477">
        <ele>2524.3</ele>
        <time>2021-03-26T11:00:08Z</time>
      </trkpt>
      <trkpt lat="45.67772" lon="6.8477">
        <ele>2524.3</ele>
        <time>2021-03-26T11:00:09Z</time>
      </trkpt>
      <trkpt lat="45.67772" lon="6.84771">
        <ele>2524.3</ele>
        <time>2021-03-26T11:00:10Z</time>
      </trkpt>
      <trkpt lat="45.67772" lon="6.84771">
        <ele>2524.3</ele>
        <time>2021-03-26T11:00:11Z</time>
      </trkpt>
      <trkpt lat="45.67773" lon="6.84771">
        <ele>2524.3</ele>
        <time>2021-03-26T11:00:12Z</time>
      </trkpt>
      <trkpt lat="45.67773" lon="6.84771">
        <ele>2524.1</ele>
        <time>2021-03-26T11:00:13Z</time>
      </trkpt>
      <trkpt lat="45.67774" lon="6.84771">
        <ele>2524.1</ele>
        <time>2021-03-26T11:00:14Z</time>
      </trkpt>
      <trkpt lat="45.67774" lon="6.84771">
        <ele>2524.1</ele>
        <time>2021-03-26T11:00:15Z</time>
      </trkpt>
      <trkpt lat="45.67775" lon="6.84772">
        <ele>2524.1</ele>
        <time>2021-03-26T11:00:16Z</time>
      </trkpt>
      <trkpt lat="45.67775" lon="6.84772">
        <ele>2524.1</ele>
        <time>2021-03-26T11:00:17Z</time>
      </trkpt>
      <trkpt lat="45.67775" lon="6.84772">
        <ele>2524.1</ele>
        <time>2021-03-26T11:00:18Z</time>
      </trkpt>
      <trkpt lat="45.67775" lon="6.84772">
        <ele>2524.1</ele>
        <time>2021-03-26T11:00:19Z</time>
      </trkpt>
      <trkpt lat="45.67776" lon="6.84773">
        <ele>2524.1</ele>
        <time>2021-03-26T11:00:20Z</time>
      </trkpt>
      <trkpt lat="45.67777" lon="6.84773">
        <ele>2524</ele>
        <time>2021-03-26T11:00:21Z</time>
      </trkpt>
      <trkpt lat="45.67777" lon="6.84773">
        <ele>2524</ele>
        <time>2021-03-26T11:00:22Z</time>
      </trkpt>
      <trkpt lat="45.67777" lon="6.84773">
        <ele>2524</ele>
        <time>2021-03-26T11:00:23Z</time>
      </trkpt>
      <trkpt lat="45.67777" lon="6.84773">
        <ele>2524</ele>
        <time>2021-03-26T11:00:24Z</time>
      </trkpt>
      <trkpt lat="45.67778" lon="6.84772">
        <ele>2524</ele>
        <time>2021-03-26T11:00:25Z</time>
      </trkpt>
      <trkpt lat="45.67779" lon="6.84773">
        <ele>2524</ele>
        <time>2021-03-26T11:00:26Z</time>
      </trkpt>
      <trkpt lat="45.67779" lon="6.84773">
        <ele>2524</ele>
        <time>2021-03-26T11:00:27Z</time>
      </trkpt>
      <trkpt lat="45.6778" lon="6.84772">
        <ele>2523.8</ele>
        <time>2021-03-26T11:00:28Z</time>
      </trkpt>
      <trkpt lat="45.6778" lon="6.84772">
        <ele>2523.8</ele>
        <time>2021-03-26T11:00:29Z</time>
      </trkpt>
      <trkpt lat="45.6778" lon="6.84772">
        <ele>2523.8</ele>
        <time>2021-03-26T11:00:30Z</time>
      </trkpt>
      <trkpt lat="45.67781" lon="6.84772">
        <ele>2523.8</ele>
        <time>2021-03-26T11:00:31Z</time>
      </trkpt>
      <trkpt lat="45.67782" lon="6.84771">
        <ele>2523.8</ele>
        <time>2021-03-26T11:00:32Z</time>
      </trkpt>
      <trkpt lat="45.67782" lon="6.84771">
        <ele>2523.8</ele>
        <time>2021-03-26T11:00:33Z</time>
      </trkpt>
      <trkpt lat="45.67783" lon="6.84771">
        <ele>2523.7</ele>
        <time>2021-03-26T11:00:34Z</time>
      </trkpt>
      <trkpt lat="45.67783" lon="6.84771">
        <ele>2523.7</ele>
        <time>2021-03-26T11:00:35Z</time>
      </trkpt>
      <trkpt lat="45.67784" lon="6.84771">
        <ele>2523.7</ele>
        <time>2021-03-26T11:00:36Z</time>
      </trkpt>
      <trkpt lat="45.67784" lon="6.8477">
        <ele>2523.7</ele>
        <time>2021-03-26T11:00:37Z</time>
      </trkpt>
      <trkpt lat="45.67785" lon="6.8477">
        <ele>2523.7</ele>
        <time>2021-03-26T11:00:38Z</time>
      </trkpt>
      <trkpt lat="45.67785" lon="6.8477">
        <ele>2525.8</ele>
        <time>2021-03-26T11:00:39Z</time>
      </trkpt>
      <trkpt lat="45.67786" lon="6.8477">
        <ele>2525.7</ele>
        <time>2021-03-26T11:00:40Z</time>
      </trkpt>
      <trkpt lat="45.67786" lon="6.8477">
        <ele>2525.7</ele>
        <time>2021-03-26T11:00:41Z</time>
      </trkpt>
      <trkpt lat="45.67786" lon="6.84769">
        <ele>2525.7</ele>
        <time>2021-03-26T11:00:42Z</time>
      </trkpt>
      <trkpt lat="45.67787" lon="6.84769">
        <ele>2525.7</ele>
        <time>2021-03-26T11:00:43Z</time>
      </trkpt>
      <trkpt lat="45.67787" lon="6.84768">
        <ele>2525.7</ele>
        <time>2021-03-26T11:00:44Z</time>
      </trkpt>
      <trkpt lat="45.67788" lon="6.84768">
        <ele>2525.7</ele>
        <time>2021-03-26T11:00:45Z</time>
      </trkpt>
      <trkpt lat="45.67788" lon="6.84768">
        <ele>2525.7</ele>
        <time>2021-03-26T11:00:46Z</time>
      </trkpt>
      <trkpt lat="45.67788" lon="6.84768">
        <ele>2525.6</ele>
        <time>2021-03-26T11:00:47Z</time>
      </trkpt>
      <trkpt lat="45.67789" lon="6.84767">
        <ele>2525.6</ele>
        <time>2021-03-26T11:00:48Z</time>
      </trkpt>
      <trkpt lat="45.67789" lon="6.84767">
        <ele>2525.6</ele>
        <time>2021-03-26T11:00:49Z</time>
      </trkpt>
      <trkpt lat="45.6779" lon="6.84767">
        <ele>2525.6</ele>
        <time>2021-03-26T11:00:50Z</time>
      </trkpt>
      <trkpt lat="45.6779" lon="6.84767">
        <ele>2525.6</ele>
        <time>2021-03-26T11:00:51Z</time>
      </trkpt>
      <trkpt lat="45.67791" lon="6.84767">
        <ele>2525.6</ele>
        <time>2021-03-26T11:00:52Z</time>
      </trkpt>
      <trkpt lat="45.67791" lon="6.84767">
        <ele>2525.5</ele>
        <time>2021-03-26T11:00:53Z</time>
      </trkpt>
      <trkpt lat="45.67792" lon="6.84766">
        <ele>2525.5</ele>
        <time>2021-03-26T11:00:54Z</time>
      </trkpt>
      <trkpt lat="45.67792" lon="6.84765">
        <ele>2527.6</ele>
        <time>2021-03-26T11:00:55Z</time>
      </trkpt>
      <trkpt lat="45.67793" lon="6.84765">
        <ele>2527.6</ele>
        <time>2021-03-26T11:00:56Z</time>
      </trkpt>
      <trkpt lat="45.67793" lon="6.84764">
        <ele>2527.6</ele>
        <time>2021-03-26T11:00:57Z</time>
      </trkpt>
      <trkpt lat="45.67793" lon="6.84764">
        <ele>2527.6</ele>
        <time>2021-03-26T11:00:58Z</time>
      </trkpt>
      <trkpt lat="45.67794" lon="6.84764">
        <ele>2527.6</ele>
        <time>2021-03-26T11:00:59Z</time>
      </trkpt>
      <trkpt lat="45.67794" lon="6.84763">
        <ele>2527.6</ele>
        <time>2021-03-26T11:01:00Z</time>
      </trkpt>
      <trkpt lat="45.67794" lon="6.84763">
        <ele>2527.5</ele>
        <time>2021-03-26T11:01:01Z</time>
      </trkpt>
      <trkpt lat="45.67795" lon="6.84762">
        <ele>2527.5</ele>
        <time>2021-03-26T11:01:02Z</time>
      </trkpt>
      <trkpt lat="45.67795" lon="6.84762">
        <ele>2527.5</ele>
        <time>2021-03-26T11:01:03Z</time>
      </trkpt>
      <trkpt lat="45.67796" lon="6.84762">
        <ele>2529.5</ele>
        <time>2021-03-26T11:01:04Z</time>
      </trkpt>
      <trkpt lat="45.67796" lon="6.84762">
        <ele>2529.5</ele>
        <time>2021-03-26T11:01:05Z</time>
      </trkpt>
      <trkpt lat="45.67796" lon="6.84761">
        <ele>2529.5</ele>
        <time>2021-03-26T11:01:06Z</time>
      </trkpt>
      <trkpt lat="45.67796" lon="6.84761">
        <ele>2529.5</ele>
        <time>2021-03-26T11:01:07Z</time>
      </trkpt>
      <trkpt lat="45.67796" lon="6.84761">
        <ele>2529.5</ele>
        <time>2021-03-26T11:01:08Z</time>
      </trkpt>
      <trkpt lat="45.67796" lon="6.84761">
        <ele>2529.5</ele>
        <time>2021-03-26T11:01:09Z</time>
      </trkpt>
      <trkpt lat="45.67796" lon="6.84761">
        <ele>2529.5</ele>
        <time>2021-03-26T11:01:10Z</time>
      </trkpt>
      <trkpt lat="45.67788" lon="6.84753">
        <ele>2531.7</ele>
        <time>2021-03-26T11:01:33Z</time>
      </trkpt>
      <trkpt lat="45.67788" lon="6.84753">
        <ele>2533.9</ele>
        <time>2021-03-26T11:01:34Z</time>
      </trkpt>
      <trkpt lat="45.67788" lon="6.84753">
        <ele>2533.9</ele>
        <time>2021-03-26T11:01:35Z</time>
      </trkpt>
      <trkpt lat="45.67787" lon="6.84752">
        <ele>2533.9</ele>
        <time>2021-03-26T11:01:36Z</time>
      </trkpt>
      <trkpt lat="45.67787" lon="6.84752">
        <ele>2533.9</ele>
        <time>2021-03-26T11:01:37Z</time>
      </trkpt>
      <trkpt lat="45.67786" lon="6.84751">
        <ele>2533.9</ele>
        <time>2021-03-26T11:01:38Z</time>
      </trkpt>
      <trkpt lat="45.67785" lon="6.84751">
        <ele>2533.9</ele>
        <time>2021-03-26T11:01:39Z</time>
      </trkpt>
      <trkpt lat="45.67785" lon="6.84751">
        <ele>2534</ele>
        <time>2021-03-26T11:01:40Z</time>
      </trkpt>
      <trkpt lat="45.67784" lon="6.8475">
        <ele>2534</ele>
        <time>2021-03-26T11:01:41Z</time>
      </trkpt>
      <trkpt lat="45.67784" lon="6.8475">
        <ele>2534</ele>
        <time>2021-03-26T11:01:42Z</time>
      </trkpt>
      <trkpt lat="45.67784" lon="6.8475">
        <ele>2534</ele>
        <time>2021-03-26T11:01:43Z</time>
      </trkpt>
      <trkpt lat="45.67783" lon="6.84749">
        <ele>2534</ele>
        <time>2021-03-26T11:01:44Z</time>
      </trkpt>
      <trkpt lat="45.67783" lon="6.84749">
        <ele>2536</ele>
        <time>2021-03-26T11:01:45Z</time>
      </trkpt>
      <trkpt lat="45.67782" lon="6.84748">
        <ele>2536</ele>
        <time>2021-03-26T11:01:46Z</time>
      </trkpt>
      <trkpt lat="45.67782" lon="6.84748">
        <ele>2536.1</ele>
        <time>2021-03-26T11:01:47Z</time>
      </trkpt>
      <trkpt lat="45.67782" lon="6.84747">
        <ele>2536.1</ele>
        <time>2021-03-26T11:01:48Z</time>
      </trkpt>
      <trkpt lat="45.67781" lon="6.84747">
        <ele>2536.1</ele>
        <time>2021-03-26T11:01:49Z</time>
      </trkpt>
      <trkpt lat="45.67781" lon="6.84747">
        <ele>2536.1</ele>
        <time>2021-03-26T11:01:50Z</time>
      </trkpt>
      <trkpt lat="45.6778" lon="6.84746">
        <ele>2536.1</ele>
        <time>2021-03-26T11:01:51Z</time>
      </trkpt>
      <trkpt lat="45.6778" lon="6.84746">
        <ele>2536.1</ele>
        <time>2021-03-26T11:01:52Z</time>
      </trkpt>
      <trkpt lat="45.67779" lon="6.84745">
        <ele>2536.3</ele>
        <time>2021-03-26T11:01:53Z</time>
      </trkpt>
      <trkpt lat="45.67778" lon="6.84745">
        <ele>2536.3</ele>
        <time>2021-03-26T11:01:54Z</time>
      </trkpt>
      <trkpt lat="45.67778" lon="6.84744">
        <ele>2538.3</ele>
        <time>2021-03-26T11:01:55Z</time>
      </trkpt>
      <trkpt lat="45.67778" lon="6.84744">
        <ele>2538.3</ele>
        <time>2021-03-26T11:01:56Z</time>
      </trkpt>
      <trkpt lat="45.67777" lon="6.84743">
        <ele>2538.3</ele>
        <time>2021-03-26T11:01:57Z</time>
      </trkpt>
      <trkpt lat="45.67777" lon="6.84743">
        <ele>2538.3</ele>
        <time>2021-03-26T11:01:58Z</time>
      </trkpt>
      <trkpt lat="45.67777" lon="6.84743">
        <ele>2538.3</ele>
        <time>2021-03-26T11:01:59Z</time>
      </trkpt>
      <trkpt lat="45.67776" lon="6.84742">
        <ele>2538.6</ele>
        <time>2021-03-26T11:02:00Z</time>
      </trkpt>
      <trkpt lat="45.67775" lon="6.84742">
        <ele>2538.6</ele>
        <time>2021-03-26T11:02:01Z</time>
      </trkpt>
      <trkpt lat="45.67775" lon="6.84741">
        <ele>2538.6</ele>
        <time>2021-03-26T11:02:02Z</time>
      </trkpt>
      <trkpt lat="45.67774" lon="6.84741">
        <ele>2538.6</ele>
        <time>2021-03-26T11:02:03Z</time>
      </trkpt>
      <trkpt lat="45.67774" lon="6.84741">
        <ele>2538.6</ele>
        <time>2021-03-26T11:02:04Z</time>
      </trkpt>
      <trkpt lat="45.67773" lon="6.84741">
        <ele>2538.6</ele>
        <time>2021-03-26T11:02:05Z</time>
      </trkpt>
      <trkpt lat="45.67773" lon="6.84741">
        <ele>2538.8</ele>
        <time>2021-03-26T11:02:06Z</time>
      </trkpt>
      <trkpt lat="45.67773" lon="6.84741">
        <ele>2538.8</ele>
        <time>2021-03-26T11:02:07Z</time>
      </trkpt>
      <trkpt lat="45.67773" lon="6.84741">
        <ele>2538.8</ele>
        <time>2021-03-26T11:02:08Z</time>
      </trkpt>
      <trkpt lat="45.67773" lon="6.84741">
        <ele>2538.8</ele>
        <time>2021-03-26T11:02:09Z</time>
      </trkpt>
      <trkpt lat="45.67773" lon="6.84741">
        <ele>2538.8</ele>
        <time>2021-03-26T11:02:10Z</time>
      </trkpt>
      <trkpt lat="45.67773" lon="6.84741">
        <ele>2538.8</ele>
        <time>2021-03-26T11:02:11Z</time>
      </trkpt>
      <trkpt lat="45.67773" lon="6.84741">
        <ele>2538.8</ele>
        <time>2021-03-26T11:02:12Z</time>
      </trkpt>
      <trkpt lat="45.67773" lon="6.84741">
        <ele>2538.8</ele>
        <time>2021-03-26T11:02:13Z</time>
      </trkpt>
      <trkpt lat="45.67774" lon="6.84741">
        <ele>2538.6</ele>
        <time>2021-03-26T11:02:14Z</time>
      </trkpt>
      <trkpt lat="45.67775" lon="6.8474">
        <ele>2540.6</ele>
        <time>2021-03-26T11:02:15Z</time>
      </trkpt>
      <trkpt lat="45.6778" lon="6.84738">
        <ele>2540.3</ele>
        <time>2021-03-26T11:02:24Z</time>
      </trkpt>
      <trkpt lat="45.6778" lon="6.84737">
        <ele>2540.3</ele>
        <time>2021-03-26T11:02:25Z</time>
      </trkpt>
      <trkpt lat="45.6778" lon="6.84737">
        <ele>2540.3</ele>
        <time>2021-03-26T11:02:26Z</time>
      </trkpt>
      <trkpt lat="45.67781" lon="6.84737">
        <ele>2540.3</ele>
        <time>2021-03-26T11:02:27Z</time>
      </trkpt>
      <trkpt lat="45.67781" lon="6.84737">
        <ele>2540.3</ele>
        <time>2021-03-26T11:02:28Z</time>
      </trkpt>
      <trkpt lat="45.67782" lon="6.84737">
        <ele>2540.3</ele>
        <time>2021-03-26T11:02:29Z</time>
      </trkpt>
      <trkpt lat="45.67782" lon="6.84736">
        <ele>2540.3</ele>
        <time>2021-03-26T11:02:30Z</time>
      </trkpt>
      <trkpt lat="45.67782" lon="6.84736">
        <ele>2542.3</ele>
        <time>2021-03-26T11:02:31Z</time>
      </trkpt>
      <trkpt lat="45.67783" lon="6.84735">
        <ele>2542.3</ele>
        <time>2021-03-26T11:02:32Z</time>
      </trkpt>
      <trkpt lat="45.67783" lon="6.84735">
        <ele>2542.3</ele>
        <time>2021-03-26T11:02:33Z</time>
      </trkpt>
      <trkpt lat="45.67784" lon="6.84734">
        <ele>2542.3</ele>
        <time>2021-03-26T11:02:34Z</time>
      </trkpt>
      <trkpt lat="45.67784" lon="6.84734">
        <ele>2542.3</ele>
        <time>2021-03-26T11:02:35Z</time>
      </trkpt>
      <trkpt lat="45.67784" lon="6.84733">
        <ele>2542.3</ele>
        <time>2021-03-26T11:02:36Z</time>
      </trkpt>
      <trkpt lat="45.67785" lon="6.84733">
        <ele>2542.3</ele>
        <time>2021-03-26T11:02:37Z</time>
      </trkpt>
      <trkpt lat="45.67785" lon="6.84733">
        <ele>2542.3</ele>
        <time>2021-03-26T11:02:38Z</time>
      </trkpt>
      <trkpt lat="45.67786" lon="6.84732">
        <ele>2542.2</ele>
        <time>2021-03-26T11:02:39Z</time>
      </trkpt>
      <trkpt lat="45.67786" lon="6.84732">
        <ele>2542.2</ele>
        <time>2021-03-26T11:02:40Z</time>
      </trkpt>
      <trkpt lat="45.67786" lon="6.84732">
        <ele>2542.2</ele>
        <time>2021-03-26T11:02:41Z</time>
      </trkpt>
      <trkpt lat="45.67786" lon="6.84732">
        <ele>2542.2</ele>
        <time>2021-03-26T11:02:42Z</time>
      </trkpt>
      <trkpt lat="45.67786" lon="6.84732">
        <ele>2542.2</ele>
        <time>2021-03-26T11:02:43Z</time>
      </trkpt>
      <trkpt lat="45.67787" lon="6.84732">
        <ele>2542.2</ele>
        <time>2021-03-26T11:02:44Z</time>
      </trkpt>
      <trkpt lat="45.67788" lon="6.84731">
        <ele>2544.5</ele>
        <time>2021-03-26T11:02:45Z</time>
      </trkpt>
      <trkpt lat="45.67788" lon="6.84731">
        <ele>2544.5</ele>
        <time>2021-03-26T11:02:46Z</time>
      </trkpt>
      <trkpt lat="45.67788" lon="6.84731">
        <ele>2544.5</ele>
        <time>2021-03-26T11:02:47Z</time>
      </trkpt>
      <trkpt lat="45.67788" lon="6.8473">
        <ele>2544.4</ele>
        <time>2021-03-26T11:02:48Z</time>
      </trkpt>
      <trkpt lat="45.67789" lon="6.8473">
        <ele>2544.4</ele>
        <time>2021-03-26T11:02:49Z</time>
      </trkpt>
      <trkpt lat="45.6779" lon="6.84728">
        <ele>2544.4</ele>
        <time>2021-03-26T11:02:52Z</time>
      </trkpt>
      <trkpt lat="45.6779" lon="6.84727">
        <ele>2544.4</ele>
        <time>2021-03-26T11:02:53Z</time>
      </trkpt>
      <trkpt lat="45.6779" lon="6.84727">
        <ele>2546.9</ele>
        <time>2021-03-26T11:02:54Z</time>
      </trkpt>
      <trkpt lat="45.6779" lon="6.84726">
        <ele>2546.9</ele>
        <time>2021-03-26T11:02:55Z</time>
      </trkpt>
      <trkpt lat="45.67791" lon="6.84726">
        <ele>2546.9</ele>
        <time>2021-03-26T11:02:56Z</time>
      </trkpt>
      <trkpt lat="45.67791" lon="6.84726">
        <ele>2546.9</ele>
        <time>2021-03-26T11:02:57Z</time>
      </trkpt>
      <trkpt lat="45.67791" lon="6.84725">
        <ele>2546.7</ele>
        <time>2021-03-26T11:02:58Z</time>
      </trkpt>
      <trkpt lat="45.67792" lon="6.84725">
        <ele>2546.7</ele>
        <time>2021-03-26T11:02:59Z</time>
      </trkpt>
      <trkpt lat="45.67792" lon="6.84724">
        <ele>2546.7</ele>
        <time>2021-03-26T11:03:00Z</time>
      </trkpt>
      <trkpt lat="45.67792" lon="6.84724">
        <ele>2546.7</ele>
        <time>2021-03-26T11:03:01Z</time>
      </trkpt>
      <trkpt lat="45.67793" lon="6.84723">
        <ele>2546.7</ele>
        <time>2021-03-26T11:03:02Z</time>
      </trkpt>
      <trkpt lat="45.67793" lon="6.84723">
        <ele>2549.3</ele>
        <time>2021-03-26T11:03:03Z</time>
      </trkpt>
      <trkpt lat="45.67793" lon="6.84723">
        <ele>2549.3</ele>
        <time>2021-03-26T11:03:04Z</time>
      </trkpt>
      <trkpt lat="45.67794" lon="6.84722">
        <ele>2549.1</ele>
        <time>2021-03-26T11:03:05Z</time>
      </trkpt>
      <trkpt lat="45.67795" lon="6.84722">
        <ele>2549.1</ele>
        <time>2021-03-26T11:03:06Z</time>
      </trkpt>
      <trkpt lat="45.67795" lon="6.84721">
        <ele>2549.1</ele>
        <time>2021-03-26T11:03:07Z</time>
      </trkpt>
      <trkpt lat="45.67795" lon="6.84721">
        <ele>2549.1</ele>
        <time>2021-03-26T11:03:08Z</time>
      </trkpt>
      <trkpt lat="45.67795" lon="6.8472">
        <ele>2549.1</ele>
        <time>2021-03-26T11:03:09Z</time>
      </trkpt>
      <trkpt lat="45.67796" lon="6.8472">
        <ele>2549.1</ele>
        <time>2021-03-26T11:03:10Z</time>
      </trkpt>
      <trkpt lat="45.67796" lon="6.84719">
        <ele>2549.1</ele>
        <time>2021-03-26T11:03:11Z</time>
      </trkpt>
      <trkpt lat="45.67796" lon="6.84719">
        <ele>2551.6</ele>
        <time>2021-03-26T11:03:12Z</time>
      </trkpt>
      <trkpt lat="45.67797" lon="6.84718">
        <ele>2551.6</ele>
        <time>2021-03-26T11:03:13Z</time>
      </trkpt>
      <trkpt lat="45.67797" lon="6.84718">
        <ele>2551.6</ele>
        <time>2021-03-26T11:03:14Z</time>
      </trkpt>
      <trkpt lat="45.67797" lon="6.84717">
        <ele>2551.6</ele>
        <time>2021-03-26T11:03:15Z</time>
      </trkpt>
      <trkpt lat="45.67797" lon="6.84717">
        <ele>2551.4</ele>
        <time>2021-03-26T11:03:16Z</time>
      </trkpt>
      <trkpt lat="45.67797" lon="6.84716">
        <ele>2551.4</ele>
        <time>2021-03-26T11:03:17Z</time>
      </trkpt>
      <trkpt lat="45.67798" lon="6.84716">
        <ele>2551.4</ele>
        <time>2021-03-26T11:03:18Z</time>
      </trkpt>
      <trkpt lat="45.67798" lon="6.84715">
        <ele>2551.4</ele>
        <time>2021-03-26T11:03:19Z</time>
      </trkpt>
      <trkpt lat="45.67798" lon="6.84715">
        <ele>2551.4</ele>
        <time>2021-03-26T11:03:20Z</time>
      </trkpt>
      <trkpt lat="45.67798" lon="6.84715">
        <ele>2551.4</ele>
        <time>2021-03-26T11:03:21Z</time>
      </trkpt>
      <trkpt lat="45.67798" lon="6.84714">
        <ele>2553.9</ele>
        <time>2021-03-26T11:03:22Z</time>
      </trkpt>
      <trkpt lat="45.67799" lon="6.84714">
        <ele>2553.9</ele>
        <time>2021-03-26T11:03:23Z</time>
      </trkpt>
      <trkpt lat="45.67799" lon="6.84713">
        <ele>2553.9</ele>
        <time>2021-03-26T11:03:24Z</time>
      </trkpt>
      <trkpt lat="45.67799" lon="6.84713">
        <ele>2553.9</ele>
        <time>2021-03-26T11:03:25Z</time>
      </trkpt>
      <trkpt lat="45.67799" lon="6.84712">
        <ele>2553.9</ele>
        <time>2021-03-26T11:03:26Z</time>
      </trkpt>
      <trkpt lat="45.67799" lon="6.84712">
        <ele>2553.9</ele>
        <time>2021-03-26T11:03:27Z</time>
      </trkpt>
      <trkpt lat="45.678" lon="6.84711">
        <ele>2553.9</ele>
        <time>2021-03-26T11:03:28Z</time>
      </trkpt>
      <trkpt lat="45.678" lon="6.84711">
        <ele>2553.9</ele>
        <time>2021-03-26T11:03:29Z</time>
      </trkpt>
      <trkpt lat="45.678" lon="6.84711">
        <ele>2553.9</ele>
        <time>2021-03-26T11:03:30Z</time>
      </trkpt>
      <trkpt lat="45.678" lon="6.8471">
        <ele>2553.9</ele>
        <time>2021-03-26T11:03:31Z</time>
      </trkpt>
      <trkpt lat="45.678" lon="6.8471">
        <ele>2556.3</ele>
        <time>2021-03-26T11:03:32Z</time>
      </trkpt>
      <trkpt lat="45.678" lon="6.84709">
        <ele>2556</ele>
        <time>2021-03-26T11:03:33Z</time>
      </trkpt>
      <trkpt lat="45.67801" lon="6.84709">
        <ele>2556</ele>
        <time>2021-03-26T11:03:34Z</time>
      </trkpt>
      <trkpt lat="45.67801" lon="6.84708">
        <ele>2556</ele>
        <time>2021-03-26T11:03:35Z</time>
      </trkpt>
      <trkpt lat="45.67801" lon="6.84708">
        <ele>2556</ele>
        <time>2021-03-26T11:03:36Z</time>
      </trkpt>
      <trkpt lat="45.67801" lon="6.84708">
        <ele>2556</ele>
        <time>2021-03-26T11:03:37Z</time>
      </trkpt>
      <trkpt lat="45.67802" lon="6.84707">
        <ele>2556</ele>
        <time>2021-03-26T11:03:38Z</time>
      </trkpt>
      <trkpt lat="45.67802" lon="6.84707">
        <ele>2556</ele>
        <time>2021-03-26T11:03:39Z</time>
      </trkpt>
      <trkpt lat="45.67802" lon="6.84707">
        <ele>2556</ele>
        <time>2021-03-26T11:03:40Z</time>
      </trkpt>
      <trkpt lat="45.67802" lon="6.84707">
        <ele>2556</ele>
        <time>2021-03-26T11:03:41Z</time>
      </trkpt>
      <trkpt lat="45.67802" lon="6.84706">
        <ele>2556</ele>
        <time>2021-03-26T11:03:42Z</time>
      </trkpt>
      <trkpt lat="45.67802" lon="6.84706">
        <ele>2558.4</ele>
        <time>2021-03-26T11:03:43Z</time>
      </trkpt>
      <trkpt lat="45.67803" lon="6.84705">
        <ele>2558.4</ele>
        <time>2021-03-26T11:03:44Z</time>
      </trkpt>
      <trkpt lat="45.67803" lon="6.84705">
        <ele>2558.4</ele>
        <time>2021-03-26T11:03:45Z</time>
      </trkpt>
      <trkpt lat="45.67803" lon="6.84704">
        <ele>2558</ele>
        <time>2021-03-26T11:03:46Z</time>
      </trkpt>
      <trkpt lat="45.67803" lon="6.84704">
        <ele>2558</ele>
        <time>2021-03-26T11:03:47Z</time>
      </trkpt>
      <trkpt lat="45.67804" lon="6.84703">
        <ele>2558</ele>
        <time>2021-03-26T11:03:48Z</time>
      </trkpt>
      <trkpt lat="45.67804" lon="6.84702">
        <ele>2558</ele>
        <time>2021-03-26T11:03:49Z</time>
      </trkpt>
      <trkpt lat="45.67804" lon="6.84702">
        <ele>2558</ele>
        <time>2021-03-26T11:03:50Z</time>
      </trkpt>
      <trkpt lat="45.67805" lon="6.84701">
        <ele>2560.4</ele>
        <time>2021-03-26T11:03:51Z</time>
      </trkpt>
      <trkpt lat="45.67805" lon="6.84701">
        <ele>2560.4</ele>
        <time>2021-03-26T11:03:52Z</time>
      </trkpt>
      <trkpt lat="45.67806" lon="6.847">
        <ele>2560.4</ele>
        <time>2021-03-26T11:03:53Z</time>
      </trkpt>
      <trkpt lat="45.67806" lon="6.847">
        <ele>2560.4</ele>
        <time>2021-03-26T11:03:54Z</time>
      </trkpt>
      <trkpt lat="45.67806" lon="6.84699">
        <ele>2560.1</ele>
        <time>2021-03-26T11:03:55Z</time>
      </trkpt>
      <trkpt lat="45.67807" lon="6.84699">
        <ele>2560.1</ele>
        <time>2021-03-26T11:03:56Z</time>
      </trkpt>
      <trkpt lat="45.67807" lon="6.84698">
        <ele>2560.1</ele>
        <time>2021-03-26T11:03:57Z</time>
      </trkpt>
      <trkpt lat="45.67807" lon="6.84698">
        <ele>2560.1</ele>
        <time>2021-03-26T11:03:58Z</time>
      </trkpt>
      <trkpt lat="45.67807" lon="6.84698">
        <ele>2560.1</ele>
        <time>2021-03-26T11:03:59Z</time>
      </trkpt>
      <trkpt lat="45.67807" lon="6.84697">
        <ele>2560.1</ele>
        <time>2021-03-26T11:04:00Z</time>
      </trkpt>
      <trkpt lat="45.67807" lon="6.84697">
        <ele>2560.1</ele>
        <time>2021-03-26T11:04:01Z</time>
      </trkpt>
      <trkpt lat="45.67808" lon="6.84697">
        <ele>2562.6</ele>
        <time>2021-03-26T11:04:02Z</time>
      </trkpt>
      <trkpt lat="45.67808" lon="6.84697">
        <ele>2562.6</ele>
        <time>2021-03-26T11:04:03Z</time>
      </trkpt>
      <trkpt lat="45.67808" lon="6.84697">
        <ele>2562.6</ele>
        <time>2021-03-26T11:04:04Z</time>
      </trkpt>
      <trkpt lat="45.67808" lon="6.84697">
        <ele>2562.6</ele>
        <time>2021-03-26T11:04:05Z</time>
      </trkpt>
      <trkpt lat="45.67809" lon="6.84696">
        <ele>2562.6</ele>
        <time>2021-03-26T11:04:06Z</time>
      </trkpt>
      <trkpt lat="45.67809" lon="6.84696">
        <ele>2562.6</ele>
        <time>2021-03-26T11:04:07Z</time>
      </trkpt>
      <trkpt lat="45.67809" lon="6.84695">
        <ele>2562.1</ele>
        <time>2021-03-26T11:04:08Z</time>
      </trkpt>
      <trkpt lat="45.6781" lon="6.84695">
        <ele>2562.1</ele>
        <time>2021-03-26T11:04:09Z</time>
      </trkpt>
      <trkpt lat="45.6781" lon="6.84694">
        <ele>2562.1</ele>
        <time>2021-03-26T11:04:10Z</time>
      </trkpt>
      <trkpt lat="45.67811" lon="6.84694">
        <ele>2562.1</ele>
        <time>2021-03-26T11:04:11Z</time>
      </trkpt>
      <trkpt lat="45.67811" lon="6.84693">
        <ele>2562.1</ele>
        <time>2021-03-26T11:04:12Z</time>
      </trkpt>
      <trkpt lat="45.67811" lon="6.84693">
        <ele>2562.1</ele>
        <time>2021-03-26T11:04:13Z</time>
      </trkpt>
      <trkpt lat="45.67812" lon="6.84693">
        <ele>2564.7</ele>
        <time>2021-03-26T11:04:14Z</time>
      </trkpt>
      <trkpt lat="45.67812" lon="6.84692">
        <ele>2564.7</ele>
        <time>2021-03-26T11:04:15Z</time>
      </trkpt>
      <trkpt lat="45.67812" lon="6.84692">
        <ele>2564.3</ele>
        <time>2021-03-26T11:04:16Z</time>
      </trkpt>
      <trkpt lat="45.67813" lon="6.84691">
        <ele>2564.3</ele>
        <time>2021-03-26T11:04:17Z</time>
      </trkpt>
      <trkpt lat="45.67813" lon="6.8469">
        <ele>2564.3</ele>
        <time>2021-03-26T11:04:18Z</time>
      </trkpt>
      <trkpt lat="45.67814" lon="6.8469">
        <ele>2564.3</ele>
        <time>2021-03-26T11:04:19Z</time>
      </trkpt>
      <trkpt lat="45.67814" lon="6.84689">
        <ele>2564.3</ele>
        <time>2021-03-26T11:04:20Z</time>
      </trkpt>
      <trkpt lat="45.67815" lon="6.84689">
        <ele>2564.3</ele>
        <time>2021-03-26T11:04:21Z</time>
      </trkpt>
      <trkpt lat="45.67815" lon="6.84688">
        <ele>2567</ele>
        <time>2021-03-26T11:04:22Z</time>
      </trkpt>
      <trkpt lat="45.67815" lon="6.84687">
        <ele>2566.5</ele>
        <time>2021-03-26T11:04:23Z</time>
      </trkpt>
      <trkpt lat="45.67816" lon="6.84686">
        <ele>2566.5</ele>
        <time>2021-03-26T11:04:24Z</time>
      </trkpt>
      <trkpt lat="45.67816" lon="6.84686">
        <ele>2566.5</ele>
        <time>2021-03-26T11:04:25Z</time>
      </trkpt>
      <trkpt lat="45.67817" lon="6.84685">
        <ele>2566.5</ele>
        <time>2021-03-26T11:04:26Z</time>
      </trkpt>
      <trkpt lat="45.67817" lon="6.84684">
        <ele>2566.5</ele>
        <time>2021-03-26T11:04:27Z</time>
      </trkpt>
      <trkpt lat="45.67818" lon="6.84684">
        <ele>2569.3</ele>
        <time>2021-03-26T11:04:28Z</time>
      </trkpt>
      <trkpt lat="45.67818" lon="6.84684">
        <ele>2569.3</ele>
        <time>2021-03-26T11:04:29Z</time>
      </trkpt>
      <trkpt lat="45.67818" lon="6.84683">
        <ele>2568.9</ele>
        <time>2021-03-26T11:04:30Z</time>
      </trkpt>
      <trkpt lat="45.67819" lon="6.84683">
        <ele>2568.9</ele>
        <time>2021-03-26T11:04:31Z</time>
      </trkpt>
      <trkpt lat="45.67819" lon="6.84682">
        <ele>2568.9</ele>
        <time>2021-03-26T11:04:32Z</time>
      </trkpt>
      <trkpt lat="45.6782" lon="6.84682">
        <ele>2568.9</ele>
        <time>2021-03-26T11:04:33Z</time>
      </trkpt>
      <trkpt lat="45.6782" lon="6.84681">
        <ele>2568.9</ele>
        <time>2021-03-26T11:04:34Z</time>
      </trkpt>
      <trkpt lat="45.6782" lon="6.8468">
        <ele>2568.9</ele>
        <time>2021-03-26T11:04:35Z</time>
      </trkpt>
      <trkpt lat="45.67821" lon="6.8468">
        <ele>2568.9</ele>
        <time>2021-03-26T11:04:36Z</time>
      </trkpt>
      <trkpt lat="45.67821" lon="6.84679">
        <ele>2571.3</ele>
        <time>2021-03-26T11:04:37Z</time>
      </trkpt>
      <trkpt lat="45.67821" lon="6.84679">
        <ele>2571.3</ele>
        <time>2021-03-26T11:04:38Z</time>
      </trkpt>
      <trkpt lat="45.67822" lon="6.84678">
        <ele>2571.3</ele>
        <time>2021-03-26T11:04:39Z</time>
      </trkpt>
      <trkpt lat="45.67822" lon="6.84678">
        <ele>2571.3</ele>
        <time>2021-03-26T11:04:40Z</time>
      </trkpt>
      <trkpt lat="45.67822" lon="6.84677">
        <ele>2571.3</ele>
        <time>2021-03-26T11:04:41Z</time>
      </trkpt>
      <trkpt lat="45.67823" lon="6.84676">
        <ele>2571.3</ele>
        <time>2021-03-26T11:04:42Z</time>
      </trkpt>
      <trkpt lat="45.67823" lon="6.84676">
        <ele>2574.2</ele>
        <time>2021-03-26T11:04:43Z</time>
      </trkpt>
      <trkpt lat="45.67823" lon="6.84675">
        <ele>2574.2</ele>
        <time>2021-03-26T11:04:44Z</time>
      </trkpt>
      <trkpt lat="45.67824" lon="6.84674">
        <ele>2574.2</ele>
        <time>2021-03-26T11:04:45Z</time>
      </trkpt>
      <trkpt lat="45.67824" lon="6.84673">
        <ele>2574.2</ele>
        <time>2021-03-26T11:04:46Z</time>
      </trkpt>
      <trkpt lat="45.67824" lon="6.84673">
        <ele>2573.8</ele>
        <time>2021-03-26T11:04:47Z</time>
      </trkpt>
      <trkpt lat="45.67825" lon="6.84673">
        <ele>2573.8</ele>
        <time>2021-03-26T11:04:48Z</time>
      </trkpt>
      <trkpt lat="45.67825" lon="6.84672">
        <ele>2573.8</ele>
        <time>2021-03-26T11:04:49Z</time>
      </trkpt>
      <trkpt lat="45.67825" lon="6.84671">
        <ele>2576.8</ele>
        <time>2021-03-26T11:04:50Z</time>
      </trkpt>
      <trkpt lat="45.67826" lon="6.84671">
        <ele>2576.8</ele>
        <time>2021-03-26T11:04:51Z</time>
      </trkpt>
      <trkpt lat="45.67826" lon="6.8467">
        <ele>2576.8</ele>
        <time>2021-03-26T11:04:52Z</time>
      </trkpt>
      <trkpt lat="45.67827" lon="6.8467">
        <ele>2576.8</ele>
        <time>2021-03-26T11:04:53Z</time>
      </trkpt>
      <trkpt lat="45.67827" lon="6.84669">
        <ele>2576.4</ele>
        <time>2021-03-26T11:04:54Z</time>
      </trkpt>
      <trkpt lat="45.67828" lon="6.84668">
        <ele>2576.4</ele>
        <time>2021-03-26T11:04:55Z</time>
      </trkpt>
      <trkpt lat="45.67828" lon="6.84668">
        <ele>2576.4</ele>
        <time>2021-03-26T11:04:56Z</time>
      </trkpt>
      <trkpt lat="45.67828" lon="6.84667">
        <ele>2576.4</ele>
        <time>2021-03-26T11:04:57Z</time>
      </trkpt>
      <trkpt lat="45.67829" lon="6.84667">
        <ele>2579.2</ele>
        <time>2021-03-26T11:04:58Z</time>
      </trkpt>
      <trkpt lat="45.67829" lon="6.84666">
        <ele>2579.2</ele>
        <time>2021-03-26T11:04:59Z</time>
      </trkpt>
      <trkpt lat="45.67829" lon="6.84665">
        <ele>2579.2</ele>
        <time>2021-03-26T11:05:00Z</time>
      </trkpt>
      <trkpt lat="45.67829" lon="6.84665">
        <ele>2579.2</ele>
        <time>2021-03-26T11:05:01Z</time>
      </trkpt>
      <trkpt lat="45.67829" lon="6.84665">
        <ele>2579.2</ele>
        <time>2021-03-26T11:05:02Z</time>
      </trkpt>
      <trkpt lat="45.6783" lon="6.84664">
        <ele>2579.2</ele>
        <time>2021-03-26T11:05:03Z</time>
      </trkpt>
      <trkpt lat="45.6783" lon="6.84663">
        <ele>2579.2</ele>
        <time>2021-03-26T11:05:04Z</time>
      </trkpt>
      <trkpt lat="45.6783" lon="6.84663">
        <ele>2579.2</ele>
        <time>2021-03-26T11:05:05Z</time>
      </trkpt>
      <trkpt lat="45.6783" lon="6.84663">
        <ele>2582</ele>
        <time>2021-03-26T11:05:06Z</time>
      </trkpt>
      <trkpt lat="45.6783" lon="6.84662">
        <ele>2581.6</ele>
        <time>2021-03-26T11:05:07Z</time>
      </trkpt>
      <trkpt lat="45.6783" lon="6.84662">
        <ele>2581.6</ele>
        <time>2021-03-26T11:05:08Z</time>
      </trkpt>
      <trkpt lat="45.67831" lon="6.84661">
        <ele>2581.6</ele>
        <time>2021-03-26T11:05:09Z</time>
      </trkpt>
      <trkpt lat="45.67831" lon="6.84661">
        <ele>2581.6</ele>
        <time>2021-03-26T11:05:10Z</time>
      </trkpt>
      <trkpt lat="45.67846" lon="6.84646">
        <ele>2590.5</ele>
        <time>2021-03-26T11:05:58Z</time>
      </trkpt>
      <trkpt lat="45.67846" lon="6.84646">
        <ele>2590.5</ele>
        <time>2021-03-26T11:05:59Z</time>
      </trkpt>
      <trkpt lat="45.67846" lon="6.84646">
        <ele>2590.5</ele>
        <time>2021-03-26T11:06:00Z</time>
      </trkpt>
      <trkpt lat="45.67847" lon="6.84645">
        <ele>2590.5</ele>
        <time>2021-03-26T11:06:01Z</time>
      </trkpt>
      <trkpt lat="45.67847" lon="6.84645">
        <ele>2590.5</ele>
        <time>2021-03-26T11:06:02Z</time>
      </trkpt>
      <trkpt lat="45.67847" lon="6.84645">
        <ele>2590.5</ele>
        <time>2021-03-26T11:06:03Z</time>
      </trkpt>
      <trkpt lat="45.67847" lon="6.84645">
        <ele>2590.5</ele>
        <time>2021-03-26T11:06:04Z</time>
      </trkpt>
      <trkpt lat="45.67848" lon="6.84645">
        <ele>2590.5</ele>
        <time>2021-03-26T11:06:05Z</time>
      </trkpt>
      <trkpt lat="45.67848" lon="6.84644">
        <ele>2590.1</ele>
        <time>2021-03-26T11:06:06Z</time>
      </trkpt>
      <trkpt lat="45.67849" lon="6.84644">
        <ele>2590.1</ele>
        <time>2021-03-26T11:06:07Z</time>
      </trkpt>
      <trkpt lat="45.67854" lon="6.84641">
        <ele>2592.9</ele>
        <time>2021-03-26T11:06:32Z</time>
      </trkpt>
      <trkpt lat="45.67854" lon="6.84641">
        <ele>2592.9</ele>
        <time>2021-03-26T11:06:33Z</time>
      </trkpt>
      <trkpt lat="45.67854" lon="6.84641">
        <ele>2592.9</ele>
        <time>2021-03-26T11:06:34Z</time>
      </trkpt>
      <trkpt lat="45.67854" lon="6.84641">
        <ele>2592.9</ele>
        <time>2021-03-26T11:06:35Z</time>
      </trkpt>
      <trkpt lat="45.67854" lon="6.84641">
        <ele>2592.9</ele>
        <time>2021-03-26T11:06:36Z</time>
      </trkpt>
      <trkpt lat="45.67854" lon="6.8464">
        <ele>2592.4</ele>
        <time>2021-03-26T11:06:37Z</time>
      </trkpt>
      <trkpt lat="45.67854" lon="6.8464">
        <ele>2592.4</ele>
        <time>2021-03-26T11:06:38Z</time>
      </trkpt>
      <trkpt lat="45.67855" lon="6.8464">
        <ele>2592.4</ele>
        <time>2021-03-26T11:06:39Z</time>
      </trkpt>
      <trkpt lat="45.67855" lon="6.8464">
        <ele>2592.4</ele>
        <time>2021-03-26T11:06:40Z</time>
      </trkpt>
      <trkpt lat="45.67855" lon="6.8464">
        <ele>2592.4</ele>
        <time>2021-03-26T11:06:41Z</time>
      </trkpt>
      <trkpt lat="45.67841" lon="6.84627">
        <ele>2604.2</ele>
        <time>2021-03-26T11:08:08Z</time>
      </trkpt>
      <trkpt lat="45.67841" lon="6.84627">
        <ele>2604.2</ele>
        <time>2021-03-26T11:08:09Z</time>
      </trkpt>
      <trkpt lat="45.6784" lon="6.84627">
        <ele>2604.2</ele>
        <time>2021-03-26T11:08:10Z</time>
      </trkpt>
      <trkpt lat="45.6784" lon="6.84627">
        <ele>2604.2</ele>
        <time>2021-03-26T11:08:11Z</time>
      </trkpt>
      <trkpt lat="45.6784" lon="6.84627">
        <ele>2604.2</ele>
        <time>2021-03-26T11:08:12Z</time>
      </trkpt>
      <trkpt lat="45.6784" lon="6.84626">
        <ele>2604.2</ele>
        <time>2021-03-26T11:08:13Z</time>
      </trkpt>
      <trkpt lat="45.6784" lon="6.84626">
        <ele>2604.2</ele>
        <time>2021-03-26T11:08:14Z</time>
      </trkpt>
      <trkpt lat="45.6784" lon="6.84626">
        <ele>2604.2</ele>
        <time>2021-03-26T11:08:15Z</time>
      </trkpt>
      <trkpt lat="45.6784" lon="6.84626">
        <ele>2604.2</ele>
        <time>2021-03-26T11:08:16Z</time>
      </trkpt>
      <trkpt lat="45.6784" lon="6.84626">
        <ele>2604.2</ele>
        <time>2021-03-26T11:08:17Z</time>
      </trkpt>
      <trkpt lat="45.67839" lon="6.84625">
        <ele>2604.2</ele>
        <time>2021-03-26T11:08:50Z</time>
      </trkpt>
      <trkpt lat="45.6784" lon="6.84625">
        <ele>2604.2</ele>
        <time>2021-03-26T11:08:51Z</time>
      </trkpt>
      <trkpt lat="45.67841" lon="6.84625">
        <ele>2604.2</ele>
        <time>2021-03-26T11:08:52Z</time>
      </trkpt>
      <trkpt lat="45.67841" lon="6.84625">
        <ele>2604.2</ele>
        <time>2021-03-26T11:08:53Z</time>
      </trkpt>
      <trkpt lat="45.67842" lon="6.84624">
        <ele>2607.4</ele>
        <time>2021-03-26T11:08:54Z</time>
      </trkpt>
      <trkpt lat="45.67842" lon="6.84624">
        <ele>2606.9</ele>
        <time>2021-03-26T11:08:55Z</time>
      </trkpt>
      <trkpt lat="45.67842" lon="6.84624">
        <ele>2606.9</ele>
        <time>2021-03-26T11:08:56Z</time>
      </trkpt>
      <trkpt lat="45.67842" lon="6.84624">
        <ele>2606.9</ele>
        <time>2021-03-26T11:08:57Z</time>
      </trkpt>
      <trkpt lat="45.67842" lon="6.84624">
        <ele>2606.9</ele>
        <time>2021-03-26T11:08:58Z</time>
      </trkpt>
      <trkpt lat="45.67842" lon="6.84624">
        <ele>2606.9</ele>
        <time>2021-03-26T11:08:59Z</time>
      </trkpt>
      <trkpt lat="45.67842" lon="6.84624">
        <ele>2606.9</ele>
        <time>2021-03-26T11:09:00Z</time>
      </trkpt>
      <trkpt lat="45.67842" lon="6.84624">
        <ele>2606.9</ele>
        <time>2021-03-26T11:09:01Z</time>
      </trkpt>
      <trkpt lat="45.67846" lon="6.84621">
        <ele>2606.5</ele>
        <time>2021-03-26T11:09:32Z</time>
      </trkpt>
      <trkpt lat="45.67846" lon="6.84621">
        <ele>2606.5</ele>
        <time>2021-03-26T11:09:33Z</time>
      </trkpt>
      <trkpt lat="45.67847" lon="6.84621">
        <ele>2606.5</ele>
        <time>2021-03-26T11:09:34Z</time>
      </trkpt>
      <trkpt lat="45.67848" lon="6.84621">
        <ele>2606.5</ele>
        <time>2021-03-26T11:09:35Z</time>
      </trkpt>
      <trkpt lat="45.67848" lon="6.8462">
        <ele>2606.1</ele>
        <time>2021-03-26T11:09:36Z</time>
      </trkpt>
      <trkpt lat="45.67849" lon="6.8462">
        <ele>2609.2</ele>
        <time>2021-03-26T11:09:37Z</time>
      </trkpt>
      <trkpt lat="45.67849" lon="6.84619">
        <ele>2609.2</ele>
        <time>2021-03-26T11:09:38Z</time>
      </trkpt>
      <trkpt lat="45.6785" lon="6.84619">
        <ele>2609.2</ele>
        <time>2021-03-26T11:09:39Z</time>
      </trkpt>
      <trkpt lat="45.67851" lon="6.84619">
        <ele>2609.2</ele>
        <time>2021-03-26T11:09:40Z</time>
      </trkpt>
      <trkpt lat="45.67852" lon="6.84619">
        <ele>2608.8</ele>
        <time>2021-03-26T11:09:41Z</time>
      </trkpt>
      <trkpt lat="45.67852" lon="6.84618">
        <ele>2608.8</ele>
        <time>2021-03-26T11:09:42Z</time>
      </trkpt>
      <trkpt lat="45.67853" lon="6.84618">
        <ele>2608.8</ele>
        <time>2021-03-26T11:09:43Z</time>
      </trkpt>
      <trkpt lat="45.67853" lon="6.84618">
        <ele>2608.8</ele>
        <time>2021-03-26T11:09:44Z</time>
      </trkpt>
      <trkpt lat="45.67854" lon="6.84618">
        <ele>2608.8</ele>
        <time>2021-03-26T11:09:45Z</time>
      </trkpt>
      <trkpt lat="45.67854" lon="6.84617">
        <ele>2608.4</ele>
        <time>2021-03-26T11:09:46Z</time>
      </trkpt>
      <trkpt lat="45.67855" lon="6.84617">
        <ele>2608.4</ele>
        <time>2021-03-26T11:09:47Z</time>
      </trkpt>
      <trkpt lat="45.67855" lon="6.84617">
        <ele>2608.4</ele>
        <time>2021-03-26T11:09:48Z</time>
      </trkpt>
      <trkpt lat="45.67855" lon="6.84617">
        <ele>2608.4</ele>
        <time>2021-03-26T11:09:49Z</time>
      </trkpt>
      <trkpt lat="45.67855" lon="6.84617">
        <ele>2608.4</ele>
        <time>2021-03-26T11:09:50Z</time>
      </trkpt>
      <trkpt lat="45.67855" lon="6.84617">
        <ele>2608.4</ele>
        <time>2021-03-26T11:09:51Z</time>
      </trkpt>
      <trkpt lat="45.67855" lon="6.84617">
        <ele>2608.4</ele>
        <time>2021-03-26T11:09:52Z</time>
      </trkpt>
      <trkpt lat="45.67855" lon="6.84617">
        <ele>2608.4</ele>
        <time>2021-03-26T11:09:53Z</time>
      </trkpt>
      <trkpt lat="45.67855" lon="6.84617">
        <ele>2608.4</ele>
        <time>2021-03-26T11:09:54Z</time>
      </trkpt>
      <trkpt lat="45.67855" lon="6.84617">
        <ele>2608.4</ele>
        <time>2021-03-26T11:09:55Z</time>
      </trkpt>
      <trkpt lat="45.67855" lon="6.84617">
        <ele>2608.4</ele>
        <time>2021-03-26T11:09:56Z</time>
      </trkpt>
      <trkpt lat="45.67855" lon="6.84617">
        <ele>2608.4</ele>
        <time>2021-03-26T11:09:57Z</time>
      </trkpt>
      <trkpt lat="45.6786" lon="6.84617">
        <ele>2607.5</ele>
        <time>2021-03-26T11:10:25Z</time>
      </trkpt>
      <trkpt lat="45.67861" lon="6.84617">
        <ele>2607.5</ele>
        <time>2021-03-26T11:10:26Z</time>
      </trkpt>
      <trkpt lat="45.67861" lon="6.84617">
        <ele>2607.5</ele>
        <time>2021-03-26T11:10:27Z</time>
      </trkpt>
      <trkpt lat="45.67861" lon="6.84618">
        <ele>2607.5</ele>
        <time>2021-03-26T11:10:28Z</time>
      </trkpt>
      <trkpt lat="45.67861" lon="6.84618">
        <ele>2607.5</ele>
        <time>2021-03-26T11:10:29Z</time>
      </trkpt>
      <trkpt lat="45.67861" lon="6.84618">
        <ele>2607.5</ele>
        <time>2021-03-26T11:10:30Z</time>
      </trkpt>
      <trkpt lat="45.67861" lon="6.84618">
        <ele>2607.5</ele>
        <time>2021-03-26T11:10:31Z</time>
      </trkpt>
      <trkpt lat="45.67861" lon="6.84618">
        <ele>2607.5</ele>
        <time>2021-03-26T11:10:32Z</time>
      </trkpt>
      <trkpt lat="45.67861" lon="6.84618">
        <ele>2607.5</ele>
        <time>2021-03-26T11:10:33Z</time>
      </trkpt>
      <trkpt lat="45.67861" lon="6.84618">
        <ele>2607.5</ele>
        <time>2021-03-26T11:10:34Z</time>
      </trkpt>
      <trkpt lat="45.67861" lon="6.84618">
        <ele>2607.5</ele>
        <time>2021-03-26T11:10:35Z</time>
      </trkpt>
      <trkpt lat="45.67861" lon="6.84618">
        <ele>2607.5</ele>
        <time>2021-03-26T11:10:36Z</time>
      </trkpt>
      <trkpt lat="45.67862" lon="6.84617">
        <ele>2607.5</ele>
        <time>2021-03-26T11:10:37Z</time>
      </trkpt>
      <trkpt lat="45.67866" lon="6.84619">
        <ele>2607</ele>
        <time>2021-03-26T11:10:47Z</time>
      </trkpt>
      <trkpt lat="45.67867" lon="6.84619">
        <ele>2606.5</ele>
        <time>2021-03-26T11:10:48Z</time>
      </trkpt>
      <trkpt lat="45.67867" lon="6.84619">
        <ele>2606.5</ele>
        <time>2021-03-26T11:10:49Z</time>
      </trkpt>
      <trkpt lat="45.67868" lon="6.84619">
        <ele>2606.5</ele>
        <time>2021-03-26T11:10:50Z</time>
      </trkpt>
      <trkpt lat="45.67868" lon="6.84619">
        <ele>2606.5</ele>
        <time>2021-03-26T11:10:51Z</time>
      </trkpt>
      <trkpt lat="45.67869" lon="6.84619">
        <ele>2606.5</ele>
        <time>2021-03-26T11:10:52Z</time>
      </trkpt>
      <trkpt lat="45.6787" lon="6.84619">
        <ele>2606.1</ele>
        <time>2021-03-26T11:10:53Z</time>
      </trkpt>
      <trkpt lat="45.6787" lon="6.84619">
        <ele>2606.1</ele>
        <time>2021-03-26T11:10:54Z</time>
      </trkpt>
      <trkpt lat="45.6787" lon="6.84618">
        <ele>2606.1</ele>
        <time>2021-03-26T11:10:55Z</time>
      </trkpt>
      <trkpt lat="45.67871" lon="6.84618">
        <ele>2606.1</ele>
        <time>2021-03-26T11:10:56Z</time>
      </trkpt>
      <trkpt lat="45.67872" lon="6.84618">
        <ele>2606.1</ele>
        <time>2021-03-26T11:10:57Z</time>
      </trkpt>
      <trkpt lat="45.67872" lon="6.84619">
        <ele>2605.7</ele>
        <time>2021-03-26T11:10:58Z</time>
      </trkpt>
      <trkpt lat="45.67873" lon="6.84619">
        <ele>2605.7</ele>
        <time>2021-03-26T11:10:59Z</time>
      </trkpt>
      <trkpt lat="45.67873" lon="6.84619">
        <ele>2605.7</ele>
        <time>2021-03-26T11:11:00Z</time>
      </trkpt>
      <trkpt lat="45.67873" lon="6.84619">
        <ele>2605.7</ele>
        <time>2021-03-26T11:11:01Z</time>
      </trkpt>
      <trkpt lat="45.67873" lon="6.84619">
        <ele>2605.7</ele>
        <time>2021-03-26T11:11:02Z</time>
      </trkpt>
      <trkpt lat="45.67873" lon="6.84619">
        <ele>2605.7</ele>
        <time>2021-03-26T11:11:03Z</time>
      </trkpt>
      <trkpt lat="45.67873" lon="6.84619">
        <ele>2605.7</ele>
        <time>2021-03-26T11:11:04Z</time>
      </trkpt>
      <trkpt lat="45.67873" lon="6.84619">
        <ele>2605.7</ele>
        <time>2021-03-26T11:11:05Z</time>
      </trkpt>
      <trkpt lat="45.67873" lon="6.84619">
        <ele>2605.7</ele>
        <time>2021-03-26T11:11:06Z</time>
      </trkpt>
      <trkpt lat="45.67873" lon="6.84619">
        <ele>2605.7</ele>
        <time>2021-03-26T11:11:07Z</time>
      </trkpt>
      <trkpt lat="45.67873" lon="6.84619">
        <ele>2605.7</ele>
        <time>2021-03-26T11:11:08Z</time>
      </trkpt>
      <trkpt lat="45.67868" lon="6.84611">
        <ele>2612.7</ele>
        <time>2021-03-26T11:11:42Z</time>
      </trkpt>
      <trkpt lat="45.67867" lon="6.8461">
        <ele>2612.7</ele>
        <time>2021-03-26T11:11:43Z</time>
      </trkpt>
      <trkpt lat="45.67867" lon="6.8461">
        <ele>2612.7</ele>
        <time>2021-03-26T11:11:44Z</time>
      </trkpt>
      <trkpt lat="45.67866" lon="6.8461">
        <ele>2613.2</ele>
        <time>2021-03-26T11:11:45Z</time>
      </trkpt>
      <trkpt lat="45.67865" lon="6.84609">
        <ele>2613.2</ele>
        <time>2021-03-26T11:11:46Z</time>
      </trkpt>
      <trkpt lat="45.67864" lon="6.84609">
        <ele>2613.2</ele>
        <time>2021-03-26T11:11:47Z</time>
      </trkpt>
      <trkpt lat="45.67864" lon="6.84609">
        <ele>2613.2</ele>
        <time>2021-03-26T11:11:48Z</time>
      </trkpt>
      <trkpt lat="45.67863" lon="6.84608">
        <ele>2613.7</ele>
        <time>2021-03-26T11:11:49Z</time>
      </trkpt>
      <trkpt lat="45.67863" lon="6.84608">
        <ele>2613.7</ele>
        <time>2021-03-26T11:11:50Z</time>
      </trkpt>
      <trkpt lat="45.67862" lon="6.84607">
        <ele>2613.7</ele>
        <time>2021-03-26T11:11:51Z</time>
      </trkpt>
      <trkpt lat="45.67862" lon="6.84607">
        <ele>2616.9</ele>
        <time>2021-03-26T11:11:52Z</time>
      </trkpt>
      <trkpt lat="45.67861" lon="6.84606">
        <ele>2616.9</ele>
        <time>2021-03-26T11:11:53Z</time>
      </trkpt>
      <trkpt lat="45.67861" lon="6.84605">
        <ele>2616.9</ele>
        <time>2021-03-26T11:11:54Z</time>
      </trkpt>
      <trkpt lat="45.67861" lon="6.84604">
        <ele>2616.9</ele>
        <time>2021-03-26T11:11:55Z</time>
      </trkpt>
      <trkpt lat="45.67861" lon="6.84604">
        <ele>2616.9</ele>
        <time>2021-03-26T11:11:56Z</time>
      </trkpt>
      <trkpt lat="45.6786" lon="6.84603">
        <ele>2616.9</ele>
        <time>2021-03-26T11:11:57Z</time>
      </trkpt>
      <trkpt lat="45.6786" lon="6.84603">
        <ele>2620.7</ele>
        <time>2021-03-26T11:11:58Z</time>
      </trkpt>
      <trkpt lat="45.6786" lon="6.84603">
        <ele>2620.7</ele>
        <time>2021-03-26T11:11:59Z</time>
      </trkpt>
      <trkpt lat="45.6786" lon="6.84603">
        <ele>2620.7</ele>
        <time>2021-03-26T11:12:00Z</time>
      </trkpt>
      <trkpt lat="45.6786" lon="6.84603">
        <ele>2620.7</ele>
        <time>2021-03-26T11:12:01Z</time>
      </trkpt>
      <trkpt lat="45.6786" lon="6.84603">
        <ele>2620.7</ele>
        <time>2021-03-26T11:12:02Z</time>
      </trkpt>
      <trkpt lat="45.6786" lon="6.84603">
        <ele>2620.7</ele>
        <time>2021-03-26T11:12:03Z</time>
      </trkpt>
      <trkpt lat="45.6786" lon="6.84603">
        <ele>2620.7</ele>
        <time>2021-03-26T11:12:04Z</time>
      </trkpt>
      <trkpt lat="45.6786" lon="6.84603">
        <ele>2620.7</ele>
        <time>2021-03-26T11:12:05Z</time>
      </trkpt>
      <trkpt lat="45.6786" lon="6.84603">
        <ele>2620.7</ele>
        <time>2021-03-26T11:12:06Z</time>
      </trkpt>
      <trkpt lat="45.67868" lon="6.846">
        <ele>2619.1</ele>
        <time>2021-03-26T11:13:26Z</time>
      </trkpt>
      <trkpt lat="45.67868" lon="6.846">
        <ele>2619.1</ele>
        <time>2021-03-26T11:13:27Z</time>
      </trkpt>
      <trkpt lat="45.67869" lon="6.846">
        <ele>2619.1</ele>
        <time>2021-03-26T11:13:28Z</time>
      </trkpt>
      <trkpt lat="45.6787" lon="6.846">
        <ele>2618.6</ele>
        <time>2021-03-26T11:13:29Z</time>
      </trkpt>
      <trkpt lat="45.6787" lon="6.846">
        <ele>2618.6</ele>
        <time>2021-03-26T11:13:30Z</time>
      </trkpt>
      <trkpt lat="45.6787" lon="6.846">
        <ele>2618.6</ele>
        <time>2021-03-26T11:13:31Z</time>
      </trkpt>
      <trkpt lat="45.67871" lon="6.846">
        <ele>2618.6</ele>
        <time>2021-03-26T11:13:32Z</time>
      </trkpt>
      <trkpt lat="45.67872" lon="6.846">
        <ele>2618</ele>
        <time>2021-03-26T11:13:33Z</time>
      </trkpt>
      <trkpt lat="45.67873" lon="6.846">
        <ele>2618</ele>
        <time>2021-03-26T11:13:34Z</time>
      </trkpt>
      <trkpt lat="45.67873" lon="6.846">
        <ele>2618</ele>
        <time>2021-03-26T11:13:35Z</time>
      </trkpt>
      <trkpt lat="45.67873" lon="6.846">
        <ele>2618</ele>
        <time>2021-03-26T11:13:36Z</time>
      </trkpt>
      <trkpt lat="45.67874" lon="6.84599">
        <ele>2618</ele>
        <time>2021-03-26T11:13:37Z</time>
      </trkpt>
      <trkpt lat="45.67875" lon="6.84599">
        <ele>2618</ele>
        <time>2021-03-26T11:13:38Z</time>
      </trkpt>
      <trkpt lat="45.67875" lon="6.84599">
        <ele>2617.5</ele>
        <time>2021-03-26T11:13:39Z</time>
      </trkpt>
      <trkpt lat="45.67876" lon="6.84599">
        <ele>2617.5</ele>
        <time>2021-03-26T11:13:40Z</time>
      </trkpt>
      <trkpt lat="45.67877" lon="6.84599">
        <ele>2617.5</ele>
        <time>2021-03-26T11:13:41Z</time>
      </trkpt>
      <trkpt lat="45.67877" lon="6.84599">
        <ele>2617.5</ele>
        <time>2021-03-26T11:13:42Z</time>
      </trkpt>
      <trkpt lat="45.67877" lon="6.84599">
        <ele>2617.5</ele>
        <time>2021-03-26T11:13:43Z</time>
      </trkpt>
      <trkpt lat="45.67877" lon="6.84599">
        <ele>2617.5</ele>
        <time>2021-03-26T11:13:44Z</time>
      </trkpt>
      <trkpt lat="45.67877" lon="6.84599">
        <ele>2617.5</ele>
        <time>2021-03-26T11:13:45Z</time>
      </trkpt>
      <trkpt lat="45.67877" lon="6.84599">
        <ele>2617.5</ele>
        <time>2021-03-26T11:13:46Z</time>
      </trkpt>
      <trkpt lat="45.67877" lon="6.846">
        <ele>2617.5</ele>
        <time>2021-03-26T11:13:47Z</time>
      </trkpt>
      <trkpt lat="45.67878" lon="6.846">
        <ele>2617.5</ele>
        <time>2021-03-26T11:13:48Z</time>
      </trkpt>
      <trkpt lat="45.67878" lon="6.846">
        <ele>2616.9</ele>
        <time>2021-03-26T11:13:49Z</time>
      </trkpt>
      <trkpt lat="45.67879" lon="6.84599">
        <ele>2616.9</ele>
        <time>2021-03-26T11:13:50Z</time>
      </trkpt>
      <trkpt lat="45.67879" lon="6.84599">
        <ele>2616.9</ele>
        <time>2021-03-26T11:13:51Z</time>
      </trkpt>
      <trkpt lat="45.6788" lon="6.84599">
        <ele>2616.9</ele>
        <time>2021-03-26T11:13:52Z</time>
      </trkpt>
      <trkpt lat="45.6788" lon="6.84599">
        <ele>2616.9</ele>
        <time>2021-03-26T11:13:53Z</time>
      </trkpt>
      <trkpt lat="45.67881" lon="6.84599">
        <ele>2616.9</ele>
        <time>2021-03-26T11:13:54Z</time>
      </trkpt>
      <trkpt lat="45.67881" lon="6.84599">
        <ele>2616.3</ele>
        <time>2021-03-26T11:13:55Z</time>
      </trkpt>
      <trkpt lat="45.67882" lon="6.84599">
        <ele>2616.3</ele>
        <time>2021-03-26T11:13:56Z</time>
      </trkpt>
      <trkpt lat="45.67882" lon="6.84599">
        <ele>2616.3</ele>
        <time>2021-03-26T11:13:57Z</time>
      </trkpt>
      <trkpt lat="45.67883" lon="6.84599">
        <ele>2616.3</ele>
        <time>2021-03-26T11:13:58Z</time>
      </trkpt>
      <trkpt lat="45.67884" lon="6.84599">
        <ele>2616.3</ele>
        <time>2021-03-26T11:13:59Z</time>
      </trkpt>
      <trkpt lat="45.67884" lon="6.84599">
        <ele>2616.3</ele>
        <time>2021-03-26T11:14:00Z</time>
      </trkpt>
      <trkpt lat="45.67884" lon="6.84599">
        <ele>2615.7</ele>
        <time>2021-03-26T11:14:01Z</time>
      </trkpt>
      <trkpt lat="45.67885" lon="6.84599">
        <ele>2615.7</ele>
        <time>2021-03-26T11:14:02Z</time>
      </trkpt>
      <trkpt lat="45.67885" lon="6.84599">
        <ele>2615.7</ele>
        <time>2021-03-26T11:14:03Z</time>
      </trkpt>
      <trkpt lat="45.67886" lon="6.84599">
        <ele>2615.7</ele>
        <time>2021-03-26T11:14:04Z</time>
      </trkpt>
      <trkpt lat="45.67886" lon="6.84599">
        <ele>2615.7</ele>
        <time>2021-03-26T11:14:05Z</time>
      </trkpt>
      <trkpt lat="45.67886" lon="6.84599">
        <ele>2615.7</ele>
        <time>2021-03-26T11:14:06Z</time>
      </trkpt>
      <trkpt lat="45.67886" lon="6.84599">
        <ele>2615.7</ele>
        <time>2021-03-26T11:14:07Z</time>
      </trkpt>
      <trkpt lat="45.67886" lon="6.84599">
        <ele>2615.7</ele>
        <time>2021-03-26T11:14:08Z</time>
      </trkpt>
      <trkpt lat="45.67883" lon="6.84592">
        <ele>2622.5</ele>
        <time>2021-03-26T11:14:41Z</time>
      </trkpt>
      <trkpt lat="45.67883" lon="6.84591">
        <ele>2622.5</ele>
        <time>2021-03-26T11:14:42Z</time>
      </trkpt>
      <trkpt lat="45.67882" lon="6.84591">
        <ele>2622.5</ele>
        <time>2021-03-26T11:14:43Z</time>
      </trkpt>
      <trkpt lat="45.67881" lon="6.84591">
        <ele>2623.2</ele>
        <time>2021-03-26T11:14:44Z</time>
      </trkpt>
      <trkpt lat="45.6788" lon="6.84591">
        <ele>2623.2</ele>
        <time>2021-03-26T11:14:45Z</time>
      </trkpt>
      <trkpt lat="45.6788" lon="6.84592">
        <ele>2623.2</ele>
        <time>2021-03-26T11:14:46Z</time>
      </trkpt>
      <trkpt lat="45.67879" lon="6.84592">
        <ele>2623.2</ele>
        <time>2021-03-26T11:14:47Z</time>
      </trkpt>
      <trkpt lat="45.67879" lon="6.84592">
        <ele>2623.2</ele>
        <time>2021-03-26T11:14:48Z</time>
      </trkpt>
      <trkpt lat="45.67879" lon="6.84592">
        <ele>2623.2</ele>
        <time>2021-03-26T11:14:49Z</time>
      </trkpt>
      <trkpt lat="45.67879" lon="6.84591">
        <ele>2623.2</ele>
        <time>2021-03-26T11:14:50Z</time>
      </trkpt>
      <trkpt lat="45.67879" lon="6.84591">
        <ele>2623.2</ele>
        <time>2021-03-26T11:14:51Z</time>
      </trkpt>
      <trkpt lat="45.67879" lon="6.84591">
        <ele>2623.2</ele>
        <time>2021-03-26T11:14:52Z</time>
      </trkpt>
      <trkpt lat="45.67879" lon="6.8459">
        <ele>2626.4</ele>
        <time>2021-03-26T11:14:53Z</time>
      </trkpt>
      <trkpt lat="45.67886" lon="6.84577">
        <ele>2630.8</ele>
        <time>2021-03-26T11:16:01Z</time>
      </trkpt>
      <trkpt lat="45.67886" lon="6.84577">
        <ele>2630.8</ele>
        <time>2021-03-26T11:16:02Z</time>
      </trkpt>
      <trkpt lat="45.67887" lon="6.84578">
        <ele>2629.9</ele>
        <time>2021-03-26T11:16:03Z</time>
      </trkpt>
      <trkpt lat="45.67888" lon="6.84577">
        <ele>2629.9</ele>
        <time>2021-03-26T11:16:04Z</time>
      </trkpt>
      <trkpt lat="45.67889" lon="6.84577">
        <ele>2629.9</ele>
        <time>2021-03-26T11:16:05Z</time>
      </trkpt>
      <trkpt lat="45.67889" lon="6.84577">
        <ele>2629.9</ele>
        <time>2021-03-26T11:16:06Z</time>
      </trkpt>
      <trkpt lat="45.6789" lon="6.84577">
        <ele>2629.9</ele>
        <time>2021-03-26T11:16:07Z</time>
      </trkpt>
      <trkpt lat="45.6789" lon="6.84577">
        <ele>2629</ele>
        <time>2021-03-26T11:16:08Z</time>
      </trkpt>
      <trkpt lat="45.67891" lon="6.84577">
        <ele>2629</ele>
        <time>2021-03-26T11:16:09Z</time>
      </trkpt>
      <trkpt lat="45.67891" lon="6.84577">
        <ele>2629</ele>
        <time>2021-03-26T11:16:10Z</time>
      </trkpt>
      <trkpt lat="45.67891" lon="6.84577">
        <ele>2629</ele>
        <time>2021-03-26T11:16:11Z</time>
      </trkpt>
      <trkpt lat="45.67891" lon="6.84577">
        <ele>2629</ele>
        <time>2021-03-26T11:16:12Z</time>
      </trkpt>
      <trkpt lat="45.67892" lon="6.84578">
        <ele>2629</ele>
        <time>2021-03-26T11:16:13Z</time>
      </trkpt>
      <trkpt lat="45.67893" lon="6.84578">
        <ele>2629</ele>
        <time>2021-03-26T11:16:14Z</time>
      </trkpt>
      <trkpt lat="45.67893" lon="6.84579">
        <ele>2628.2</ele>
        <time>2021-03-26T11:16:15Z</time>
      </trkpt>
      <trkpt lat="45.67894" lon="6.84579">
        <ele>2628.2</ele>
        <time>2021-03-26T11:16:16Z</time>
      </trkpt>
      <trkpt lat="45.67894" lon="6.84579">
        <ele>2628.2</ele>
        <time>2021-03-26T11:16:17Z</time>
      </trkpt>
      <trkpt lat="45.67895" lon="6.84579">
        <ele>2628.2</ele>
        <time>2021-03-26T11:16:18Z</time>
      </trkpt>
      <trkpt lat="45.67895" lon="6.8458">
        <ele>2628.2</ele>
        <time>2021-03-26T11:16:19Z</time>
      </trkpt>
      <trkpt lat="45.67896" lon="6.8458">
        <ele>2628.2</ele>
        <time>2021-03-26T11:16:20Z</time>
      </trkpt>
      <trkpt lat="45.67896" lon="6.84581">
        <ele>2628.2</ele>
        <time>2021-03-26T11:16:21Z</time>
      </trkpt>
      <trkpt lat="45.67896" lon="6.84581">
        <ele>2627.4</ele>
        <time>2021-03-26T11:16:22Z</time>
      </trkpt>
      <trkpt lat="45.67897" lon="6.84581">
        <ele>2624.7</ele>
        <time>2021-03-26T11:16:23Z</time>
      </trkpt>
      <trkpt lat="45.67897" lon="6.84581">
        <ele>2624.7</ele>
        <time>2021-03-26T11:16:24Z</time>
      </trkpt>
      <trkpt lat="45.67898" lon="6.84582">
        <ele>2624.7</ele>
        <time>2021-03-26T11:16:25Z</time>
      </trkpt>
      <trkpt lat="45.67898" lon="6.84582">
        <ele>2624.7</ele>
        <time>2021-03-26T11:16:26Z</time>
      </trkpt>
      <trkpt lat="45.67898" lon="6.84582">
        <ele>2624.7</ele>
        <time>2021-03-26T11:16:27Z</time>
      </trkpt>
      <trkpt lat="45.67899" lon="6.84582">
        <ele>2624.7</ele>
        <time>2021-03-26T11:16:28Z</time>
      </trkpt>
      <trkpt lat="45.679" lon="6.84582">
        <ele>2623.9</ele>
        <time>2021-03-26T11:16:29Z</time>
      </trkpt>
      <trkpt lat="45.679" lon="6.84582">
        <ele>2623.9</ele>
        <time>2021-03-26T11:16:30Z</time>
      </trkpt>
      <trkpt lat="45.67901" lon="6.84583">
        <ele>2623.9</ele>
        <time>2021-03-26T11:16:31Z</time>
      </trkpt>
      <trkpt lat="45.67901" lon="6.84583">
        <ele>2623.9</ele>
        <time>2021-03-26T11:16:32Z</time>
      </trkpt>
      <trkpt lat="45.67901" lon="6.84583">
        <ele>2623.9</ele>
        <time>2021-03-26T11:16:33Z</time>
      </trkpt>
      <trkpt lat="45.67902" lon="6.84584">
        <ele>2623.9</ele>
        <time>2021-03-26T11:16:34Z</time>
      </trkpt>
      <trkpt lat="45.67903" lon="6.84585">
        <ele>2623.2</ele>
        <time>2021-03-26T11:16:35Z</time>
      </trkpt>
      <trkpt lat="45.67903" lon="6.84585">
        <ele>2623.2</ele>
        <time>2021-03-26T11:16:36Z</time>
      </trkpt>
      <trkpt lat="45.67904" lon="6.84585">
        <ele>2623.2</ele>
        <time>2021-03-26T11:16:37Z</time>
      </trkpt>
      <trkpt lat="45.67904" lon="6.84585">
        <ele>2623.2</ele>
        <time>2021-03-26T11:16:38Z</time>
      </trkpt>
      <trkpt lat="45.67905" lon="6.84586">
        <ele>2620.5</ele>
        <time>2021-03-26T11:16:39Z</time>
      </trkpt>
      <trkpt lat="45.67905" lon="6.84586">
        <ele>2620.5</ele>
        <time>2021-03-26T11:16:40Z</time>
      </trkpt>
      <trkpt lat="45.67905" lon="6.84586">
        <ele>2619.9</ele>
        <time>2021-03-26T11:16:41Z</time>
      </trkpt>
      <trkpt lat="45.67906" lon="6.84586">
        <ele>2619.9</ele>
        <time>2021-03-26T11:16:42Z</time>
      </trkpt>
      <trkpt lat="45.67906" lon="6.84587">
        <ele>2619.9</ele>
        <time>2021-03-26T11:16:43Z</time>
      </trkpt>
      <trkpt lat="45.67907" lon="6.84587">
        <ele>2619.9</ele>
        <time>2021-03-26T11:16:44Z</time>
      </trkpt>
      <trkpt lat="45.67907" lon="6.84587">
        <ele>2619.9</ele>
        <time>2021-03-26T11:16:45Z</time>
      </trkpt>
      <trkpt lat="45.67908" lon="6.84587">
        <ele>2619.9</ele>
        <time>2021-03-26T11:16:46Z</time>
      </trkpt>
      <trkpt lat="45.67909" lon="6.84587">
        <ele>2619.3</ele>
        <time>2021-03-26T11:16:47Z</time>
      </trkpt>
      <trkpt lat="45.67909" lon="6.84587">
        <ele>2619.3</ele>
        <time>2021-03-26T11:16:48Z</time>
      </trkpt>
      <trkpt lat="45.6791" lon="6.84587">
        <ele>2619.3</ele>
        <time>2021-03-26T11:16:49Z</time>
      </trkpt>
      <trkpt lat="45.6791" lon="6.84587">
        <ele>2619.3</ele>
        <time>2021-03-26T11:16:50Z</time>
      </trkpt>
      <trkpt lat="45.6791" lon="6.84587">
        <ele>2619.3</ele>
        <time>2021-03-26T11:16:51Z</time>
      </trkpt>
      <trkpt lat="45.6791" lon="6.84587">
        <ele>2619.3</ele>
        <time>2021-03-26T11:16:52Z</time>
      </trkpt>
      <trkpt lat="45.6791" lon="6.84587">
        <ele>2619.3</ele>
        <time>2021-03-26T11:16:53Z</time>
      </trkpt>
      <trkpt lat="45.6791" lon="6.84587">
        <ele>2619.3</ele>
        <time>2021-03-26T11:16:54Z</time>
      </trkpt>
      <trkpt lat="45.6791" lon="6.84587">
        <ele>2619.3</ele>
        <time>2021-03-26T11:16:55Z</time>
      </trkpt>
      <trkpt lat="45.6791" lon="6.84587">
        <ele>2619.3</ele>
        <time>2021-03-26T11:16:56Z</time>
      </trkpt>
      <trkpt lat="45.67907" lon="6.84583">
        <ele>2622.6</ele>
        <time>2021-03-26T11:17:09Z</time>
      </trkpt>
      <trkpt lat="45.67906" lon="6.84583">
        <ele>2622.6</ele>
        <time>2021-03-26T11:17:10Z</time>
      </trkpt>
      <trkpt lat="45.67905" lon="6.84582">
        <ele>2622.6</ele>
        <time>2021-03-26T11:17:11Z</time>
      </trkpt>
      <trkpt lat="45.67905" lon="6.84581">
        <ele>2623.2</ele>
        <time>2021-03-26T11:17:12Z</time>
      </trkpt>
      <trkpt lat="45.67904" lon="6.8458">
        <ele>2625.8</ele>
        <time>2021-03-26T11:17:13Z</time>
      </trkpt>
      <trkpt lat="45.67904" lon="6.8458">
        <ele>2625.8</ele>
        <time>2021-03-26T11:17:14Z</time>
      </trkpt>
      <trkpt lat="45.67903" lon="6.84579">
        <ele>2625.8</ele>
        <time>2021-03-26T11:17:15Z</time>
      </trkpt>
      <trkpt lat="45.67903" lon="6.84578">
        <ele>2625.8</ele>
        <time>2021-03-26T11:17:16Z</time>
      </trkpt>
      <trkpt lat="45.67903" lon="6.84578">
        <ele>2625.8</ele>
        <time>2021-03-26T11:17:17Z</time>
      </trkpt>
      <trkpt lat="45.67902" lon="6.84578">
        <ele>2625.8</ele>
        <time>2021-03-26T11:17:18Z</time>
      </trkpt>
      <trkpt lat="45.67902" lon="6.84577">
        <ele>2629.1</ele>
        <time>2021-03-26T11:17:19Z</time>
      </trkpt>
      <trkpt lat="45.67902" lon="6.84576">
        <ele>2629.1</ele>
        <time>2021-03-26T11:17:20Z</time>
      </trkpt>
      <trkpt lat="45.67902" lon="6.84575">
        <ele>2629.1</ele>
        <time>2021-03-26T11:17:21Z</time>
      </trkpt>
      <trkpt lat="45.67902" lon="6.84575">
        <ele>2629.1</ele>
        <time>2021-03-26T11:17:22Z</time>
      </trkpt>
      <trkpt lat="45.67902" lon="6.84574">
        <ele>2629.1</ele>
        <time>2021-03-26T11:17:23Z</time>
      </trkpt>
      <trkpt lat="45.67902" lon="6.84573">
        <ele>2629.1</ele>
        <time>2021-03-26T11:17:24Z</time>
      </trkpt>
      <trkpt lat="45.67902" lon="6.84573">
        <ele>2631.4</ele>
        <time>2021-03-26T11:17:25Z</time>
      </trkpt>
      <trkpt lat="45.67901" lon="6.84572">
        <ele>2631.4</ele>
        <time>2021-03-26T11:17:26Z</time>
      </trkpt>
      <trkpt lat="45.67901" lon="6.84571">
        <ele>2631.4</ele>
        <time>2021-03-26T11:17:27Z</time>
      </trkpt>
      <trkpt lat="45.679" lon="6.8457">
        <ele>2631.4</ele>
        <time>2021-03-26T11:17:28Z</time>
      </trkpt>
      <trkpt lat="45.679" lon="6.8457">
        <ele>2631.4</ele>
        <time>2021-03-26T11:17:29Z</time>
      </trkpt>
      <trkpt lat="45.679" lon="6.84569">
        <ele>2631.4</ele>
        <time>2021-03-26T11:17:30Z</time>
      </trkpt>
      <trkpt lat="45.67899" lon="6.84569">
        <ele>2631.4</ele>
        <time>2021-03-26T11:17:31Z</time>
      </trkpt>
      <trkpt lat="45.67899" lon="6.84569">
        <ele>2631.4</ele>
        <time>2021-03-26T11:17:32Z</time>
      </trkpt>
      <trkpt lat="45.67899" lon="6.84568">
        <ele>2633.6</ele>
        <time>2021-03-26T11:17:33Z</time>
      </trkpt>
      <trkpt lat="45.67899" lon="6.84567">
        <ele>2634.5</ele>
        <time>2021-03-26T11:17:34Z</time>
      </trkpt>
      <trkpt lat="45.67899" lon="6.84567">
        <ele>2634.5</ele>
        <time>2021-03-26T11:17:35Z</time>
      </trkpt>
      <trkpt lat="45.67899" lon="6.84566">
        <ele>2634.5</ele>
        <time>2021-03-26T11:17:36Z</time>
      </trkpt>
      <trkpt lat="45.67899" lon="6.84566">
        <ele>2634.5</ele>
        <time>2021-03-26T11:17:37Z</time>
      </trkpt>
      <trkpt lat="45.67899" lon="6.84565">
        <ele>2634.5</ele>
        <time>2021-03-26T11:17:38Z</time>
      </trkpt>
      <trkpt lat="45.67898" lon="6.84564">
        <ele>2634.5</ele>
        <time>2021-03-26T11:17:39Z</time>
      </trkpt>
      <trkpt lat="45.67898" lon="6.84564">
        <ele>2634.5</ele>
        <time>2021-03-26T11:17:40Z</time>
      </trkpt>
      <trkpt lat="45.67898" lon="6.84564">
        <ele>2636.8</ele>
        <time>2021-03-26T11:17:41Z</time>
      </trkpt>
      <trkpt lat="45.67897" lon="6.84563">
        <ele>2636.8</ele>
        <time>2021-03-26T11:17:42Z</time>
      </trkpt>
      <trkpt lat="45.67897" lon="6.84563">
        <ele>2636.8</ele>
        <time>2021-03-26T11:17:43Z</time>
      </trkpt>
      <trkpt lat="45.67897" lon="6.84562">
        <ele>2636.8</ele>
        <time>2021-03-26T11:17:44Z</time>
      </trkpt>
      <trkpt lat="45.67897" lon="6.84562">
        <ele>2636.8</ele>
        <time>2021-03-26T11:17:45Z</time>
      </trkpt>
      <trkpt lat="45.67897" lon="6.84562">
        <ele>2636.8</ele>
        <time>2021-03-26T11:17:46Z</time>
      </trkpt>
      <trkpt lat="45.67896" lon="6.84561">
        <ele>2636.8</ele>
        <time>2021-03-26T11:17:47Z</time>
      </trkpt>
      <trkpt lat="45.67896" lon="6.8456">
        <ele>2636.8</ele>
        <time>2021-03-26T11:17:48Z</time>
      </trkpt>
      <trkpt lat="45.67896" lon="6.84559">
        <ele>2639</ele>
        <time>2021-03-26T11:17:49Z</time>
      </trkpt>
      <trkpt lat="45.67896" lon="6.84559">
        <ele>2639</ele>
        <time>2021-03-26T11:17:50Z</time>
      </trkpt>
      <trkpt lat="45.67896" lon="6.84559">
        <ele>2639</ele>
        <time>2021-03-26T11:17:51Z</time>
      </trkpt>
      <trkpt lat="45.67896" lon="6.84558">
        <ele>2640</ele>
        <time>2021-03-26T11:17:52Z</time>
      </trkpt>
      <trkpt lat="45.67896" lon="6.84558">
        <ele>2640</ele>
        <time>2021-03-26T11:17:53Z</time>
      </trkpt>
      <trkpt lat="45.67895" lon="6.84557">
        <ele>2640</ele>
        <time>2021-03-26T11:17:54Z</time>
      </trkpt>
      <trkpt lat="45.67895" lon="6.84557">
        <ele>2640</ele>
        <time>2021-03-26T11:17:55Z</time>
      </trkpt>
      <trkpt lat="45.67895" lon="6.84556">
        <ele>2640</ele>
        <time>2021-03-26T11:17:56Z</time>
      </trkpt>
      <trkpt lat="45.67895" lon="6.84555">
        <ele>2642.4</ele>
        <time>2021-03-26T11:17:57Z</time>
      </trkpt>
      <trkpt lat="45.67894" lon="6.84554">
        <ele>2642.4</ele>
        <time>2021-03-26T11:17:58Z</time>
      </trkpt>
      <trkpt lat="45.67894" lon="6.84554">
        <ele>2642.4</ele>
        <time>2021-03-26T11:17:59Z</time>
      </trkpt>
      <trkpt lat="45.67893" lon="6.84553">
        <ele>2642.4</ele>
        <time>2021-03-26T11:18:00Z</time>
      </trkpt>
      <trkpt lat="45.67893" lon="6.84552">
        <ele>2642.4</ele>
        <time>2021-03-26T11:18:01Z</time>
      </trkpt>
      <trkpt lat="45.67893" lon="6.84552">
        <ele>2643.5</ele>
        <time>2021-03-26T11:18:02Z</time>
      </trkpt>
      <trkpt lat="45.67893" lon="6.84552">
        <ele>2643.5</ele>
        <time>2021-03-26T11:18:03Z</time>
      </trkpt>
      <trkpt lat="45.67893" lon="6.84552">
        <ele>2643.5</ele>
        <time>2021-03-26T11:18:04Z</time>
      </trkpt>
      <trkpt lat="45.67893" lon="6.84552">
        <ele>2643.5</ele>
        <time>2021-03-26T11:18:05Z</time>
      </trkpt>
      <trkpt lat="45.67893" lon="6.84552">
        <ele>2643.5</ele>
        <time>2021-03-26T11:18:06Z</time>
      </trkpt>
      <trkpt lat="45.67893" lon="6.84552">
        <ele>2643.5</ele>
        <time>2021-03-26T11:18:07Z</time>
      </trkpt>
      <trkpt lat="45.67894" lon="6.84551">
        <ele>2642.4</ele>
        <time>2021-03-26T11:18:08Z</time>
      </trkpt>
      <trkpt lat="45.67888" lon="6.84542">
        <ele>2651.6</ele>
        <time>2021-03-26T11:18:28Z</time>
      </trkpt>
      <trkpt lat="45.67888" lon="6.84542">
        <ele>2651.6</ele>
        <time>2021-03-26T11:18:29Z</time>
      </trkpt>
      <trkpt lat="45.67887" lon="6.84542">
        <ele>2651.6</ele>
        <time>2021-03-26T11:18:30Z</time>
      </trkpt>
      <trkpt lat="45.67887" lon="6.84541">
        <ele>2652.8</ele>
        <time>2021-03-26T11:18:31Z</time>
      </trkpt>
      <trkpt lat="45.67887" lon="6.8454">
        <ele>2652.8</ele>
        <time>2021-03-26T11:18:32Z</time>
      </trkpt>
      <trkpt lat="45.67886" lon="6.8454">
        <ele>2652.8</ele>
        <time>2021-03-26T11:18:33Z</time>
      </trkpt>
      <trkpt lat="45.67886" lon="6.8454">
        <ele>2652.8</ele>
        <time>2021-03-26T11:18:34Z</time>
      </trkpt>
      <trkpt lat="45.67887" lon="6.8454">
        <ele>2652.8</ele>
        <time>2021-03-26T11:18:35Z</time>
      </trkpt>
      <trkpt lat="45.67887" lon="6.8454">
        <ele>2652.8</ele>
        <time>2021-03-26T11:18:36Z</time>
      </trkpt>
      <trkpt lat="45.67887" lon="6.84539">
        <ele>2652.8</ele>
        <time>2021-03-26T11:18:37Z</time>
      </trkpt>
      <trkpt lat="45.67887" lon="6.8454">
        <ele>2652.8</ele>
        <time>2021-03-26T11:18:38Z</time>
      </trkpt>
      <trkpt lat="45.67886" lon="6.84541">
        <ele>2652.8</ele>
        <time>2021-03-26T11:18:39Z</time>
      </trkpt>
      <trkpt lat="45.67886" lon="6.84541">
        <ele>2652.8</ele>
        <time>2021-03-26T11:18:40Z</time>
      </trkpt>
      <trkpt lat="45.67886" lon="6.84541">
        <ele>2652.8</ele>
        <time>2021-03-26T11:18:41Z</time>
      </trkpt>
      <trkpt lat="45.67886" lon="6.84541">
        <ele>2652.8</ele>
        <time>2021-03-26T11:18:42Z</time>
      </trkpt>
      <trkpt lat="45.67886" lon="6.84541">
        <ele>2652.8</ele>
        <time>2021-03-26T11:18:43Z</time>
      </trkpt>
      <trkpt lat="45.67886" lon="6.84541">
        <ele>2652.8</ele>
        <time>2021-03-26T11:18:44Z</time>
      </trkpt>
      <trkpt lat="45.67886" lon="6.84541">
        <ele>2652.8</ele>
        <time>2021-03-26T11:18:45Z</time>
      </trkpt>
      <trkpt lat="45.67886" lon="6.84541">
        <ele>2652.8</ele>
        <time>2021-03-26T11:18:46Z</time>
      </trkpt>
      <trkpt lat="45.67886" lon="6.84541">
        <ele>2652.8</ele>
        <time>2021-03-26T11:18:47Z</time>
      </trkpt>
      <trkpt lat="45.67886" lon="6.84541">
        <ele>2652.8</ele>
        <time>2021-03-26T11:18:48Z</time>
      </trkpt>
      <trkpt lat="45.6791" lon="6.84548">
        <ele>2640.2</ele>
        <time>2021-03-26T11:19:39Z</time>
      </trkpt>
      <trkpt lat="45.6791" lon="6.84548">
        <ele>2640.2</ele>
        <time>2021-03-26T11:19:40Z</time>
      </trkpt>
      <trkpt lat="45.67911" lon="6.84549">
        <ele>2640.2</ele>
        <time>2021-03-26T11:19:41Z</time>
      </trkpt>
      <trkpt lat="45.67911" lon="6.84549">
        <ele>2639.5</ele>
        <time>2021-03-26T11:19:42Z</time>
      </trkpt>
      <trkpt lat="45.67912" lon="6.84549">
        <ele>2639.5</ele>
        <time>2021-03-26T11:19:43Z</time>
      </trkpt>
      <trkpt lat="45.67912" lon="6.84549">
        <ele>2639.5</ele>
        <time>2021-03-26T11:19:44Z</time>
      </trkpt>
      <trkpt lat="45.67913" lon="6.84549">
        <ele>2639.5</ele>
        <time>2021-03-26T11:19:45Z</time>
      </trkpt>
      <trkpt lat="45.67913" lon="6.8455">
        <ele>2639.5</ele>
        <time>2021-03-26T11:19:46Z</time>
      </trkpt>
      <trkpt lat="45.67914" lon="6.8455">
        <ele>2639.5</ele>
        <time>2021-03-26T11:19:47Z</time>
      </trkpt>
      <trkpt lat="45.67914" lon="6.8455">
        <ele>2639.5</ele>
        <time>2021-03-26T11:19:48Z</time>
      </trkpt>
      <trkpt lat="45.67915" lon="6.8455">
        <ele>2638.9</ele>
        <time>2021-03-26T11:19:49Z</time>
      </trkpt>
      <trkpt lat="45.67915" lon="6.8455">
        <ele>2638.9</ele>
        <time>2021-03-26T11:19:50Z</time>
      </trkpt>
      <trkpt lat="45.67916" lon="6.8455">
        <ele>2638.9</ele>
        <time>2021-03-26T11:19:51Z</time>
      </trkpt>
      <trkpt lat="45.67916" lon="6.8455">
        <ele>2638.9</ele>
        <time>2021-03-26T11:19:52Z</time>
      </trkpt>
      <trkpt lat="45.67916" lon="6.8455">
        <ele>2638.9</ele>
        <time>2021-03-26T11:19:53Z</time>
      </trkpt>
      <trkpt lat="45.67933" lon="6.84561">
        <ele>2631.4</ele>
        <time>2021-03-26T11:20:27Z</time>
      </trkpt>
      <trkpt lat="45.67933" lon="6.84561">
        <ele>2631.4</ele>
        <time>2021-03-26T11:20:28Z</time>
      </trkpt>
      <trkpt lat="45.67933" lon="6.84561">
        <ele>2631.4</ele>
        <time>2021-03-26T11:20:29Z</time>
      </trkpt>
      <trkpt lat="45.67934" lon="6.84561">
        <ele>2631.4</ele>
        <time>2021-03-26T11:20:30Z</time>
      </trkpt>
      <trkpt lat="45.67934" lon="6.84561">
        <ele>2631.4</ele>
        <time>2021-03-26T11:20:31Z</time>
      </trkpt>
      <trkpt lat="45.67934" lon="6.84561">
        <ele>2631.4</ele>
        <time>2021-03-26T11:20:32Z</time>
      </trkpt>
      <trkpt lat="45.67935" lon="6.84561">
        <ele>2631.4</ele>
        <time>2021-03-26T11:20:33Z</time>
      </trkpt>
      <trkpt lat="45.67935" lon="6.84561">
        <ele>2631.4</ele>
        <time>2021-03-26T11:20:34Z</time>
      </trkpt>
      <trkpt lat="45.67935" lon="6.84561">
        <ele>2631.7</ele>
        <time>2021-03-26T11:20:35Z</time>
      </trkpt>
      <trkpt lat="45.67936" lon="6.84561">
        <ele>2631.7</ele>
        <time>2021-03-26T11:20:36Z</time>
      </trkpt>
      <trkpt lat="45.67932" lon="6.84553">
        <ele>2635.9</ele>
        <time>2021-03-26T11:20:59Z</time>
      </trkpt>
      <trkpt lat="45.67932" lon="6.84553">
        <ele>2635.7</ele>
        <time>2021-03-26T11:21:00Z</time>
      </trkpt>
      <trkpt lat="45.67932" lon="6.84552">
        <ele>2635.7</ele>
        <time>2021-03-26T11:21:01Z</time>
      </trkpt>
      <trkpt lat="45.67931" lon="6.84552">
        <ele>2635.7</ele>
        <time>2021-03-26T11:21:02Z</time>
      </trkpt>
      <trkpt lat="45.67931" lon="6.84552">
        <ele>2635.7</ele>
        <time>2021-03-26T11:21:03Z</time>
      </trkpt>
      <trkpt lat="45.6793" lon="6.84551">
        <ele>2638.1</ele>
        <time>2021-03-26T11:21:04Z</time>
      </trkpt>
      <trkpt lat="45.6793" lon="6.84551">
        <ele>2638.1</ele>
        <time>2021-03-26T11:21:05Z</time>
      </trkpt>
      <trkpt lat="45.6793" lon="6.8455">
        <ele>2638.1</ele>
        <time>2021-03-26T11:21:06Z</time>
      </trkpt>
      <trkpt lat="45.6793" lon="6.84549">
        <ele>2638.1</ele>
        <time>2021-03-26T11:21:07Z</time>
      </trkpt>
      <trkpt lat="45.6793" lon="6.84549">
        <ele>2638.1</ele>
        <time>2021-03-26T11:21:08Z</time>
      </trkpt>
      <trkpt lat="45.67929" lon="6.84548">
        <ele>2638.1</ele>
        <time>2021-03-26T11:21:09Z</time>
      </trkpt>
      <trkpt lat="45.67929" lon="6.84548">
        <ele>2638.1</ele>
        <time>2021-03-26T11:21:10Z</time>
      </trkpt>
      <trkpt lat="45.67929" lon="6.84547">
        <ele>2640.5</ele>
        <time>2021-03-26T11:21:11Z</time>
      </trkpt>
      <trkpt lat="45.67929" lon="6.84546">
        <ele>2640.5</ele>
        <time>2021-03-26T11:21:12Z</time>
      </trkpt>
      <trkpt lat="45.67929" lon="6.84546">
        <ele>2640.4</ele>
        <time>2021-03-26T11:21:13Z</time>
      </trkpt>
      <trkpt lat="45.67929" lon="6.84545">
        <ele>2640.4</ele>
        <time>2021-03-26T11:21:14Z</time>
      </trkpt>
      <trkpt lat="45.67928" lon="6.84545">
        <ele>2640.4</ele>
        <time>2021-03-26T11:21:15Z</time>
      </trkpt>
      <trkpt lat="45.67928" lon="6.84544">
        <ele>2640.4</ele>
        <time>2021-03-26T11:21:16Z</time>
      </trkpt>
      <trkpt lat="45.67928" lon="6.84544">
        <ele>2640.4</ele>
        <time>2021-03-26T11:21:17Z</time>
      </trkpt>
      <trkpt lat="45.67928" lon="6.84543">
        <ele>2640.4</ele>
        <time>2021-03-26T11:21:18Z</time>
      </trkpt>
      <trkpt lat="45.67928" lon="6.84542">
        <ele>2642.9</ele>
        <time>2021-03-26T11:21:19Z</time>
      </trkpt>
      <trkpt lat="45.67928" lon="6.84542">
        <ele>2642.9</ele>
        <time>2021-03-26T11:21:20Z</time>
      </trkpt>
      <trkpt lat="45.67928" lon="6.84541">
        <ele>2642.9</ele>
        <time>2021-03-26T11:21:21Z</time>
      </trkpt>
      <trkpt lat="45.67928" lon="6.84541">
        <ele>2642.9</ele>
        <time>2021-03-26T11:21:22Z</time>
      </trkpt>
      <trkpt lat="45.67927" lon="6.84541">
        <ele>2642.9</ele>
        <time>2021-03-26T11:21:23Z</time>
      </trkpt>
      <trkpt lat="45.67927" lon="6.8454">
        <ele>2642.9</ele>
        <time>2021-03-26T11:21:24Z</time>
      </trkpt>
      <trkpt lat="45.67927" lon="6.8454">
        <ele>2642.9</ele>
        <time>2021-03-26T11:21:25Z</time>
      </trkpt>
      <trkpt lat="45.67926" lon="6.84539">
        <ele>2642.9</ele>
        <time>2021-03-26T11:21:26Z</time>
      </trkpt>
      <trkpt lat="45.67926" lon="6.84539">
        <ele>2642.9</ele>
        <time>2021-03-26T11:21:27Z</time>
      </trkpt>
      <trkpt lat="45.67926" lon="6.84538">
        <ele>2645.4</ele>
        <time>2021-03-26T11:21:28Z</time>
      </trkpt>
      <trkpt lat="45.67925" lon="6.84537">
        <ele>2645.4</ele>
        <time>2021-03-26T11:21:29Z</time>
      </trkpt>
      <trkpt lat="45.67925" lon="6.84536">
        <ele>2645.4</ele>
        <time>2021-03-26T11:21:30Z</time>
      </trkpt>
      <trkpt lat="45.67924" lon="6.84536">
        <ele>2645.4</ele>
        <time>2021-03-26T11:21:31Z</time>
      </trkpt>
      <trkpt lat="45.67924" lon="6.84536">
        <ele>2645.4</ele>
        <time>2021-03-26T11:21:32Z</time>
      </trkpt>
      <trkpt lat="45.67923" lon="6.84535">
        <ele>2645.4</ele>
        <time>2021-03-26T11:21:33Z</time>
      </trkpt>
      <trkpt lat="45.67923" lon="6.84534">
        <ele>2645.5</ele>
        <time>2021-03-26T11:21:34Z</time>
      </trkpt>
      <trkpt lat="45.67922" lon="6.84534">
        <ele>2645.5</ele>
        <time>2021-03-26T11:21:35Z</time>
      </trkpt>
      <trkpt lat="45.67922" lon="6.84534">
        <ele>2645.5</ele>
        <time>2021-03-26T11:21:36Z</time>
      </trkpt>
      <trkpt lat="45.67922" lon="6.84534">
        <ele>2645.5</ele>
        <time>2021-03-26T11:21:37Z</time>
      </trkpt>
      <trkpt lat="45.67921" lon="6.84535">
        <ele>2645.5</ele>
        <time>2021-03-26T11:21:38Z</time>
      </trkpt>
      <trkpt lat="45.67921" lon="6.84535">
        <ele>2645.5</ele>
        <time>2021-03-26T11:21:39Z</time>
      </trkpt>
      <trkpt lat="45.67921" lon="6.84535">
        <ele>2645.5</ele>
        <time>2021-03-26T11:21:40Z</time>
      </trkpt>
      <trkpt lat="45.67921" lon="6.84535">
        <ele>2645.5</ele>
        <time>2021-03-26T11:21:41Z</time>
      </trkpt>
      <trkpt lat="45.67921" lon="6.84535">
        <ele>2645.5</ele>
        <time>2021-03-26T11:21:42Z</time>
      </trkpt>
      <trkpt lat="45.67921" lon="6.84534">
        <ele>2645.5</ele>
        <time>2021-03-26T11:21:43Z</time>
      </trkpt>
      <trkpt lat="45.67935" lon="6.84537">
        <ele>2645.9</ele>
        <time>2021-03-26T11:22:14Z</time>
      </trkpt>
      <trkpt lat="45.67936" lon="6.84537">
        <ele>2645.9</ele>
        <time>2021-03-26T11:22:15Z</time>
      </trkpt>
      <trkpt lat="45.67936" lon="6.84537">
        <ele>2645.9</ele>
        <time>2021-03-26T11:22:16Z</time>
      </trkpt>
      <trkpt lat="45.67936" lon="6.84537">
        <ele>2645.9</ele>
        <time>2021-03-26T11:22:17Z</time>
      </trkpt>
      <trkpt lat="45.67937" lon="6.84537">
        <ele>2645.9</ele>
        <time>2021-03-26T11:22:18Z</time>
      </trkpt>
      <trkpt lat="45.67937" lon="6.84538">
        <ele>2645.9</ele>
        <time>2021-03-26T11:22:19Z</time>
      </trkpt>
      <trkpt lat="45.67937" lon="6.84538">
        <ele>2645.9</ele>
        <time>2021-03-26T11:22:20Z</time>
      </trkpt>
      <trkpt lat="45.67938" lon="6.84538">
        <ele>2646.2</ele>
        <time>2021-03-26T11:22:21Z</time>
      </trkpt>
      <trkpt lat="45.67939" lon="6.84539">
        <ele>2643.8</ele>
        <time>2021-03-26T11:22:22Z</time>
      </trkpt>
      <trkpt lat="45.67939" lon="6.84539">
        <ele>2643.8</ele>
        <time>2021-03-26T11:22:23Z</time>
      </trkpt>
      <trkpt lat="45.6794" lon="6.84535">
        <ele>2646.2</ele>
        <time>2021-03-26T11:22:32Z</time>
      </trkpt>
      <trkpt lat="45.6794" lon="6.84535">
        <ele>2646.2</ele>
        <time>2021-03-26T11:22:33Z</time>
      </trkpt>
      <trkpt lat="45.6794" lon="6.84534">
        <ele>2648.6</ele>
        <time>2021-03-26T11:22:34Z</time>
      </trkpt>
      <trkpt lat="45.67939" lon="6.84533">
        <ele>2648.6</ele>
        <time>2021-03-26T11:22:35Z</time>
      </trkpt>
      <trkpt lat="45.67939" lon="6.84533">
        <ele>2648.6</ele>
        <time>2021-03-26T11:22:36Z</time>
      </trkpt>
      <trkpt lat="45.67939" lon="6.84532">
        <ele>2648.6</ele>
        <time>2021-03-26T11:22:37Z</time>
      </trkpt>
      <trkpt lat="45.67939" lon="6.84532">
        <ele>2648.6</ele>
        <time>2021-03-26T11:22:38Z</time>
      </trkpt>
      <trkpt lat="45.67939" lon="6.84532">
        <ele>2648.6</ele>
        <time>2021-03-26T11:22:39Z</time>
      </trkpt>
      <trkpt lat="45.67939" lon="6.84532">
        <ele>2648.6</ele>
        <time>2021-03-26T11:22:40Z</time>
      </trkpt>
      <trkpt lat="45.67939" lon="6.84532">
        <ele>2648.6</ele>
        <time>2021-03-26T11:22:41Z</time>
      </trkpt>
      <trkpt lat="45.67939" lon="6.84532">
        <ele>2648.6</ele>
        <time>2021-03-26T11:22:42Z</time>
      </trkpt>
      <trkpt lat="45.67938" lon="6.84531">
        <ele>2648.6</ele>
        <time>2021-03-26T11:22:43Z</time>
      </trkpt>
      <trkpt lat="45.67938" lon="6.84531">
        <ele>2648.6</ele>
        <time>2021-03-26T11:22:44Z</time>
      </trkpt>
      <trkpt lat="45.67938" lon="6.8453">
        <ele>2648.3</ele>
        <time>2021-03-26T11:22:45Z</time>
      </trkpt>
      <trkpt lat="45.67937" lon="6.84529">
        <ele>2650.6</ele>
        <time>2021-03-26T11:22:46Z</time>
      </trkpt>
      <trkpt lat="45.67938" lon="6.84514">
        <ele>2657.3</ele>
        <time>2021-03-26T11:35:01Z</time>
      </trkpt>
      <trkpt lat="45.67937" lon="6.84514">
        <ele>2657.3</ele>
        <time>2021-03-26T11:35:02Z</time>
      </trkpt>
      <trkpt lat="45.67937" lon="6.84514">
        <ele>2657.3</ele>
        <time>2021-03-26T11:35:03Z</time>
      </trkpt>
      <trkpt lat="45.67937" lon="6.84514">
        <ele>2657.3</ele>
        <time>2021-03-26T11:35:04Z</time>
      </trkpt>
      <trkpt lat="45.67937" lon="6.84514">
        <ele>2657.3</ele>
        <time>2021-03-26T11:35:05Z</time>
      </trkpt>
      <trkpt lat="45.67937" lon="6.84514">
        <ele>2657.3</ele>
        <time>2021-03-26T11:35:06Z</time>
      </trkpt>
      <trkpt lat="45.67937" lon="6.84514">
        <ele>2657.3</ele>
        <time>2021-03-26T11:35:07Z</time>
      </trkpt>
      <trkpt lat="45.67937" lon="6.84514">
        <ele>2657.3</ele>
        <time>2021-03-26T11:35:08Z</time>
      </trkpt>
      <trkpt lat="45.67937" lon="6.84514">
        <ele>2657.3</ele>
        <time>2021-03-26T11:35:09Z</time>
      </trkpt>
      <trkpt lat="45.67937" lon="6.84514">
        <ele>2657.3</ele>
        <time>2021-03-26T11:35:10Z</time>
      </trkpt>
      <trkpt lat="45.67935" lon="6.84511">
        <ele>2659.4</ele>
        <time>2021-03-26T11:35:31Z</time>
      </trkpt>
      <trkpt lat="45.67934" lon="6.8451">
        <ele>2659.4</ele>
        <time>2021-03-26T11:35:32Z</time>
      </trkpt>
      <trkpt lat="45.67934" lon="6.8451">
        <ele>2659.4</ele>
        <time>2021-03-26T11:35:33Z</time>
      </trkpt>
      <trkpt lat="45.67934" lon="6.84509">
        <ele>2659.4</ele>
        <time>2021-03-26T11:35:34Z</time>
      </trkpt>
      <trkpt lat="45.67933" lon="6.84508">
        <ele>2659.4</ele>
        <time>2021-03-26T11:35:35Z</time>
      </trkpt>
      <trkpt lat="45.67933" lon="6.84508">
        <ele>2661.7</ele>
        <time>2021-03-26T11:35:36Z</time>
      </trkpt>
      <trkpt lat="45.67933" lon="6.84507">
        <ele>2661.7</ele>
        <time>2021-03-26T11:35:37Z</time>
      </trkpt>
      <trkpt lat="45.67932" lon="6.84506">
        <ele>2661.7</ele>
        <time>2021-03-26T11:35:38Z</time>
      </trkpt>
      <trkpt lat="45.67932" lon="6.84506">
        <ele>2661.6</ele>
        <time>2021-03-26T11:35:39Z</time>
      </trkpt>
      <trkpt lat="45.67931" lon="6.84505">
        <ele>2661.6</ele>
        <time>2021-03-26T11:35:40Z</time>
      </trkpt>
      <trkpt lat="45.67931" lon="6.84505">
        <ele>2661.6</ele>
        <time>2021-03-26T11:35:41Z</time>
      </trkpt>
      <trkpt lat="45.6793" lon="6.84504">
        <ele>2664</ele>
        <time>2021-03-26T11:35:42Z</time>
      </trkpt>
      <trkpt lat="45.6793" lon="6.84504">
        <ele>2664</ele>
        <time>2021-03-26T11:35:43Z</time>
      </trkpt>
      <trkpt lat="45.67929" lon="6.84503">
        <ele>2664</ele>
        <time>2021-03-26T11:35:44Z</time>
      </trkpt>
      <trkpt lat="45.67929" lon="6.84502">
        <ele>2664</ele>
        <time>2021-03-26T11:35:45Z</time>
      </trkpt>
      <trkpt lat="45.67929" lon="6.84502">
        <ele>2664</ele>
        <time>2021-03-26T11:35:46Z</time>
      </trkpt>
      <trkpt lat="45.67928" lon="6.84501">
        <ele>2664</ele>
        <time>2021-03-26T11:35:47Z</time>
      </trkpt>
      <trkpt lat="45.67928" lon="6.845">
        <ele>2664</ele>
        <time>2021-03-26T11:35:48Z</time>
      </trkpt>
      <trkpt lat="45.67927" lon="6.84499">
        <ele>2666.4</ele>
        <time>2021-03-26T11:35:49Z</time>
      </trkpt>
      <trkpt lat="45.67927" lon="6.84498">
        <ele>2666.4</ele>
        <time>2021-03-26T11:35:50Z</time>
      </trkpt>
      <trkpt lat="45.67927" lon="6.84497">
        <ele>2666.4</ele>
        <time>2021-03-26T11:35:51Z</time>
      </trkpt>
      <trkpt lat="45.67927" lon="6.84496">
        <ele>2666.4</ele>
        <time>2021-03-26T11:35:52Z</time>
      </trkpt>
      <trkpt lat="45.67926" lon="6.84495">
        <ele>2668.8</ele>
        <time>2021-03-26T11:35:53Z</time>
      </trkpt>
      <trkpt lat="45.67926" lon="6.84494">
        <ele>2668.8</ele>
        <time>2021-03-26T11:35:54Z</time>
      </trkpt>
      <trkpt lat="45.67926" lon="6.84493">
        <ele>2668.8</ele>
        <time>2021-03-26T11:35:55Z</time>
      </trkpt>
      <trkpt lat="45.67927" lon="6.84493">
        <ele>2668.8</ele>
        <time>2021-03-26T11:35:56Z</time>
      </trkpt>
      <trkpt lat="45.67926" lon="6.84492">
        <ele>2668.8</ele>
        <time>2021-03-26T11:35:57Z</time>
      </trkpt>
      <trkpt lat="45.67926" lon="6.84492">
        <ele>2668.8</ele>
        <time>2021-03-26T11:35:58Z</time>
      </trkpt>
      <trkpt lat="45.67926" lon="6.84492">
        <ele>2668.8</ele>
        <time>2021-03-26T11:35:59Z</time>
      </trkpt>
      <trkpt lat="45.67925" lon="6.84491">
        <ele>2668.8</ele>
        <time>2021-03-26T11:36:00Z</time>
      </trkpt>
      <trkpt lat="45.67925" lon="6.84491">
        <ele>2668.8</ele>
        <time>2021-03-26T11:36:01Z</time>
      </trkpt>
      <trkpt lat="45.67924" lon="6.84491">
        <ele>2671</ele>
        <time>2021-03-26T11:36:02Z</time>
      </trkpt>
      <trkpt lat="45.67923" lon="6.84491">
        <ele>2671.1</ele>
        <time>2021-03-26T11:36:03Z</time>
      </trkpt>
      <trkpt lat="45.67922" lon="6.84491">
        <ele>2671.1</ele>
        <time>2021-03-26T11:36:04Z</time>
      </trkpt>
      <trkpt lat="45.67922" lon="6.8449">
        <ele>2671.1</ele>
        <time>2021-03-26T11:36:05Z</time>
      </trkpt>
      <trkpt lat="45.67922" lon="6.8449">
        <ele>2671.1</ele>
        <time>2021-03-26T11:36:06Z</time>
      </trkpt>
      <trkpt lat="45.67921" lon="6.8449">
        <ele>2671.1</ele>
        <time>2021-03-26T11:36:07Z</time>
      </trkpt>
      <trkpt lat="45.67921" lon="6.84489">
        <ele>2671.1</ele>
        <time>2021-03-26T11:36:08Z</time>
      </trkpt>
      <trkpt lat="45.6792" lon="6.84489">
        <ele>2671.1</ele>
        <time>2021-03-26T11:36:09Z</time>
      </trkpt>
      <trkpt lat="45.6792" lon="6.84489">
        <ele>2671.3</ele>
        <time>2021-03-26T11:36:10Z</time>
      </trkpt>
      <trkpt lat="45.67919" lon="6.84489">
        <ele>2671.3</ele>
        <time>2021-03-26T11:36:11Z</time>
      </trkpt>
      <trkpt lat="45.67919" lon="6.84488">
        <ele>2671.3</ele>
        <time>2021-03-26T11:36:12Z</time>
      </trkpt>
      <trkpt lat="45.67918" lon="6.84488">
        <ele>2671.3</ele>
        <time>2021-03-26T11:36:13Z</time>
      </trkpt>
      <trkpt lat="45.67918" lon="6.84488">
        <ele>2671.3</ele>
        <time>2021-03-26T11:36:14Z</time>
      </trkpt>
      <trkpt lat="45.67917" lon="6.84488">
        <ele>2671.5</ele>
        <time>2021-03-26T11:36:15Z</time>
      </trkpt>
      <trkpt lat="45.67916" lon="6.84487">
        <ele>2671.5</ele>
        <time>2021-03-26T11:36:16Z</time>
      </trkpt>
      <trkpt lat="45.67916" lon="6.84487">
        <ele>2671.5</ele>
        <time>2021-03-26T11:36:17Z</time>
      </trkpt>
      <trkpt lat="45.67915" lon="6.84487">
        <ele>2673.6</ele>
        <time>2021-03-26T11:36:18Z</time>
      </trkpt>
      <trkpt lat="45.67914" lon="6.84486">
        <ele>2673.6</ele>
        <time>2021-03-26T11:36:19Z</time>
      </trkpt>
      <trkpt lat="45.67914" lon="6.84485">
        <ele>2673.8</ele>
        <time>2021-03-26T11:36:20Z</time>
      </trkpt>
      <trkpt lat="45.67913" lon="6.84485">
        <ele>2673.8</ele>
        <time>2021-03-26T11:36:21Z</time>
      </trkpt>
      <trkpt lat="45.67912" lon="6.84484">
        <ele>2673.8</ele>
        <time>2021-03-26T11:36:22Z</time>
      </trkpt>
      <trkpt lat="45.67911" lon="6.84484">
        <ele>2673.8</ele>
        <time>2021-03-26T11:36:23Z</time>
      </trkpt>
      <trkpt lat="45.67911" lon="6.84484">
        <ele>2674</ele>
        <time>2021-03-26T11:36:24Z</time>
      </trkpt>
      <trkpt lat="45.6791" lon="6.84483">
        <ele>2674</ele>
        <time>2021-03-26T11:36:25Z</time>
      </trkpt>
      <trkpt lat="45.6791" lon="6.84483">
        <ele>2674</ele>
        <time>2021-03-26T11:36:26Z</time>
      </trkpt>
      <trkpt lat="45.67909" lon="6.84483">
        <ele>2674</ele>
        <time>2021-03-26T11:36:27Z</time>
      </trkpt>
      <trkpt lat="45.67909" lon="6.84483">
        <ele>2674</ele>
        <time>2021-03-26T11:36:28Z</time>
      </trkpt>
      <trkpt lat="45.67909" lon="6.84482">
        <ele>2676</ele>
        <time>2021-03-26T11:36:29Z</time>
      </trkpt>
      <trkpt lat="45.67909" lon="6.84482">
        <ele>2676</ele>
        <time>2021-03-26T11:36:30Z</time>
      </trkpt>
      <trkpt lat="45.67908" lon="6.84482">
        <ele>2676</ele>
        <time>2021-03-26T11:36:31Z</time>
      </trkpt>
      <trkpt lat="45.67908" lon="6.84481">
        <ele>2676.2</ele>
        <time>2021-03-26T11:36:32Z</time>
      </trkpt>
      <trkpt lat="45.67908" lon="6.8448">
        <ele>2676.2</ele>
        <time>2021-03-26T11:36:33Z</time>
      </trkpt>
      <trkpt lat="45.67908" lon="6.84479">
        <ele>2676.2</ele>
        <time>2021-03-26T11:36:34Z</time>
      </trkpt>
      <trkpt lat="45.67908" lon="6.84478">
        <ele>2678.1</ele>
        <time>2021-03-26T11:36:35Z</time>
      </trkpt>
      <trkpt lat="45.67908" lon="6.84477">
        <ele>2678.1</ele>
        <time>2021-03-26T11:36:36Z</time>
      </trkpt>
      <trkpt lat="45.67908" lon="6.84476">
        <ele>2678.1</ele>
        <time>2021-03-26T11:36:37Z</time>
      </trkpt>
      <trkpt lat="45.67908" lon="6.84475">
        <ele>2678.1</ele>
        <time>2021-03-26T11:36:38Z</time>
      </trkpt>
      <trkpt lat="45.67908" lon="6.84474">
        <ele>2677.9</ele>
        <time>2021-03-26T11:36:39Z</time>
      </trkpt>
      <trkpt lat="45.67908" lon="6.84474">
        <ele>2679.8</ele>
        <time>2021-03-26T11:36:40Z</time>
      </trkpt>
      <trkpt lat="45.67909" lon="6.84473">
        <ele>2679.8</ele>
        <time>2021-03-26T11:36:41Z</time>
      </trkpt>
      <trkpt lat="45.67909" lon="6.84472">
        <ele>2679.8</ele>
        <time>2021-03-26T11:36:42Z</time>
      </trkpt>
      <trkpt lat="45.6791" lon="6.84471">
        <ele>2679.8</ele>
        <time>2021-03-26T11:36:43Z</time>
      </trkpt>
      <trkpt lat="45.6791" lon="6.8447">
        <ele>2681.6</ele>
        <time>2021-03-26T11:36:44Z</time>
      </trkpt>
      <trkpt lat="45.67911" lon="6.84468">
        <ele>2681.6</ele>
        <time>2021-03-26T11:36:45Z</time>
      </trkpt>
      <trkpt lat="45.67912" lon="6.84467">
        <ele>2681.4</ele>
        <time>2021-03-26T11:36:46Z</time>
      </trkpt>
      <trkpt lat="45.67912" lon="6.84466">
        <ele>2681.4</ele>
        <time>2021-03-26T11:36:47Z</time>
      </trkpt>
      <trkpt lat="45.67912" lon="6.84466">
        <ele>2681.4</ele>
        <time>2021-03-26T11:36:48Z</time>
      </trkpt>
      <trkpt lat="45.67913" lon="6.84466">
        <ele>2681.4</ele>
        <time>2021-03-26T11:36:49Z</time>
      </trkpt>
      <trkpt lat="45.67913" lon="6.84465">
        <ele>2683.2</ele>
        <time>2021-03-26T11:36:50Z</time>
      </trkpt>
      <trkpt lat="45.67914" lon="6.84464">
        <ele>2683.2</ele>
        <time>2021-03-26T11:36:51Z</time>
      </trkpt>
      <trkpt lat="45.67914" lon="6.84463">
        <ele>2683</ele>
        <time>2021-03-26T11:36:52Z</time>
      </trkpt>
      <trkpt lat="45.67915" lon="6.84463">
        <ele>2683</ele>
        <time>2021-03-26T11:36:53Z</time>
      </trkpt>
      <trkpt lat="45.67915" lon="6.84462">
        <ele>2683</ele>
        <time>2021-03-26T11:36:54Z</time>
      </trkpt>
      <trkpt lat="45.67915" lon="6.84461">
        <ele>2683</ele>
        <time>2021-03-26T11:36:55Z</time>
      </trkpt>
      <trkpt lat="45.67915" lon="6.84461">
        <ele>2684.8</ele>
        <time>2021-03-26T11:36:56Z</time>
      </trkpt>
      <trkpt lat="45.67915" lon="6.8446">
        <ele>2684.8</ele>
        <time>2021-03-26T11:36:57Z</time>
      </trkpt>
      <trkpt lat="45.67915" lon="6.8446">
        <ele>2684.8</ele>
        <time>2021-03-26T11:36:58Z</time>
      </trkpt>
      <trkpt lat="45.67915" lon="6.84459">
        <ele>2684.8</ele>
        <time>2021-03-26T11:36:59Z</time>
      </trkpt>
      <trkpt lat="45.67916" lon="6.84459">
        <ele>2684.8</ele>
        <time>2021-03-26T11:37:00Z</time>
      </trkpt>
      <trkpt lat="45.67916" lon="6.84459">
        <ele>2684.8</ele>
        <time>2021-03-26T11:37:01Z</time>
      </trkpt>
      <trkpt lat="45.67916" lon="6.84459">
        <ele>2684.8</ele>
        <time>2021-03-26T11:37:02Z</time>
      </trkpt>
      <trkpt lat="45.67917" lon="6.84458">
        <ele>2684.8</ele>
        <time>2021-03-26T11:37:03Z</time>
      </trkpt>
      <trkpt lat="45.67917" lon="6.84458">
        <ele>2684.5</ele>
        <time>2021-03-26T11:37:04Z</time>
      </trkpt>
      <trkpt lat="45.67918" lon="6.84458">
        <ele>2684.5</ele>
        <time>2021-03-26T11:37:05Z</time>
      </trkpt>
      <trkpt lat="45.67918" lon="6.84457">
        <ele>2684.5</ele>
        <time>2021-03-26T11:37:06Z</time>
      </trkpt>
      <trkpt lat="45.67919" lon="6.84457">
        <ele>2684.5</ele>
        <time>2021-03-26T11:37:07Z</time>
      </trkpt>
      <trkpt lat="45.67919" lon="6.84457">
        <ele>2684.5</ele>
        <time>2021-03-26T11:37:08Z</time>
      </trkpt>
      <trkpt lat="45.67919" lon="6.84457">
        <ele>2686.3</ele>
        <time>2021-03-26T11:37:09Z</time>
      </trkpt>
      <trkpt lat="45.67919" lon="6.84456">
        <ele>2686.3</ele>
        <time>2021-03-26T11:37:10Z</time>
      </trkpt>
      <trkpt lat="45.6792" lon="6.84455">
        <ele>2686.3</ele>
        <time>2021-03-26T11:37:11Z</time>
      </trkpt>
      <trkpt lat="45.6792" lon="6.84455">
        <ele>2686.3</ele>
        <time>2021-03-26T11:37:12Z</time>
      </trkpt>
      <trkpt lat="45.6792" lon="6.84455">
        <ele>2686.3</ele>
        <time>2021-03-26T11:37:13Z</time>
      </trkpt>
      <trkpt lat="45.67921" lon="6.84454">
        <ele>2686.1</ele>
        <time>2021-03-26T11:37:14Z</time>
      </trkpt>
      <trkpt lat="45.67921" lon="6.84454">
        <ele>2686.1</ele>
        <time>2021-03-26T11:37:15Z</time>
      </trkpt>
      <trkpt lat="45.67922" lon="6.84453">
        <ele>2686.1</ele>
        <time>2021-03-26T11:37:16Z</time>
      </trkpt>
      <trkpt lat="45.67922" lon="6.84453">
        <ele>2686.1</ele>
        <time>2021-03-26T11:37:17Z</time>
      </trkpt>
      <trkpt lat="45.67922" lon="6.84452">
        <ele>2687.9</ele>
        <time>2021-03-26T11:37:18Z</time>
      </trkpt>
      <trkpt lat="45.67923" lon="6.84451">
        <ele>2687.9</ele>
        <time>2021-03-26T11:37:19Z</time>
      </trkpt>
      <trkpt lat="45.67923" lon="6.84451">
        <ele>2687.9</ele>
        <time>2021-03-26T11:37:20Z</time>
      </trkpt>
      <trkpt lat="45.67923" lon="6.8445">
        <ele>2687.7</ele>
        <time>2021-03-26T11:37:21Z</time>
      </trkpt>
      <trkpt lat="45.67924" lon="6.8445">
        <ele>2687.7</ele>
        <time>2021-03-26T11:37:22Z</time>
      </trkpt>
      <trkpt lat="45.67924" lon="6.84449">
        <ele>2687.7</ele>
        <time>2021-03-26T11:37:23Z</time>
      </trkpt>
      <trkpt lat="45.67924" lon="6.84449">
        <ele>2687.7</ele>
        <time>2021-03-26T11:37:24Z</time>
      </trkpt>
      <trkpt lat="45.67925" lon="6.84449">
        <ele>2687.7</ele>
        <time>2021-03-26T11:37:25Z</time>
      </trkpt>
      <trkpt lat="45.67925" lon="6.84449">
        <ele>2687.7</ele>
        <time>2021-03-26T11:37:26Z</time>
      </trkpt>
      <trkpt lat="45.67925" lon="6.84448">
        <ele>2690.5</ele>
        <time>2021-03-26T11:37:27Z</time>
      </trkpt>
      <trkpt lat="45.67926" lon="6.84448">
        <ele>2690.5</ele>
        <time>2021-03-26T11:37:28Z</time>
      </trkpt>
      <trkpt lat="45.67926" lon="6.84448">
        <ele>2690.5</ele>
        <time>2021-03-26T11:37:29Z</time>
      </trkpt>
      <trkpt lat="45.67926" lon="6.84447">
        <ele>2690.5</ele>
        <time>2021-03-26T11:37:30Z</time>
      </trkpt>
      <trkpt lat="45.67926" lon="6.84447">
        <ele>2690.5</ele>
        <time>2021-03-26T11:37:31Z</time>
      </trkpt>
      <trkpt lat="45.67926" lon="6.84446">
        <ele>2690.5</ele>
        <time>2021-03-26T11:37:32Z</time>
      </trkpt>
      <trkpt lat="45.67926" lon="6.84445">
        <ele>2690.3</ele>
        <time>2021-03-26T11:37:33Z</time>
      </trkpt>
      <trkpt lat="45.67927" lon="6.84444">
        <ele>2690.3</ele>
        <time>2021-03-26T11:37:34Z</time>
      </trkpt>
      <trkpt lat="45.67927" lon="6.84444">
        <ele>2691.9</ele>
        <time>2021-03-26T11:37:35Z</time>
      </trkpt>
      <trkpt lat="45.67927" lon="6.84443">
        <ele>2691.9</ele>
        <time>2021-03-26T11:37:36Z</time>
      </trkpt>
      <trkpt lat="45.67928" lon="6.84442">
        <ele>2691.9</ele>
        <time>2021-03-26T11:37:37Z</time>
      </trkpt>
      <trkpt lat="45.67928" lon="6.84442">
        <ele>2691.9</ele>
        <time>2021-03-26T11:37:38Z</time>
      </trkpt>
      <trkpt lat="45.67928" lon="6.84441">
        <ele>2691.9</ele>
        <time>2021-03-26T11:37:39Z</time>
      </trkpt>
      <trkpt lat="45.67928" lon="6.8444">
        <ele>2691.9</ele>
        <time>2021-03-26T11:37:40Z</time>
      </trkpt>
      <trkpt lat="45.67929" lon="6.8444">
        <ele>2693.4</ele>
        <time>2021-03-26T11:37:41Z</time>
      </trkpt>
      <trkpt lat="45.67929" lon="6.84439">
        <ele>2693.4</ele>
        <time>2021-03-26T11:37:42Z</time>
      </trkpt>
      <trkpt lat="45.67928" lon="6.84438">
        <ele>2693.4</ele>
        <time>2021-03-26T11:37:43Z</time>
      </trkpt>
      <trkpt lat="45.67928" lon="6.84437">
        <ele>2693.4</ele>
        <time>2021-03-26T11:37:44Z</time>
      </trkpt>
      <trkpt lat="45.67928" lon="6.84437">
        <ele>2693.4</ele>
        <time>2021-03-26T11:37:45Z</time>
      </trkpt>
      <trkpt lat="45.67928" lon="6.84436">
        <ele>2693.4</ele>
        <time>2021-03-26T11:37:46Z</time>
      </trkpt>
      <trkpt lat="45.67928" lon="6.84436">
        <ele>2693.4</ele>
        <time>2021-03-26T11:37:47Z</time>
      </trkpt>
      <trkpt lat="45.67927" lon="6.84436">
        <ele>2693.4</ele>
        <time>2021-03-26T11:37:48Z</time>
      </trkpt>
      <trkpt lat="45.67927" lon="6.84436">
        <ele>2693.4</ele>
        <time>2021-03-26T11:37:49Z</time>
      </trkpt>
      <trkpt lat="45.67926" lon="6.84435">
        <ele>2693.4</ele>
        <time>2021-03-26T11:37:50Z</time>
      </trkpt>
      <trkpt lat="45.67926" lon="6.84436">
        <ele>2693.6</ele>
        <time>2021-03-26T11:37:51Z</time>
      </trkpt>
      <trkpt lat="45.67926" lon="6.84436">
        <ele>2693.6</ele>
        <time>2021-03-26T11:37:52Z</time>
      </trkpt>
      <trkpt lat="45.67926" lon="6.84436">
        <ele>2693.6</ele>
        <time>2021-03-26T11:37:53Z</time>
      </trkpt>
      <trkpt lat="45.67926" lon="6.84436">
        <ele>2693.6</ele>
        <time>2021-03-26T11:37:54Z</time>
      </trkpt>
      <trkpt lat="45.67925" lon="6.84436">
        <ele>2693.6</ele>
        <time>2021-03-26T11:37:55Z</time>
      </trkpt>
      <trkpt lat="45.67925" lon="6.84436">
        <ele>2693.6</ele>
        <time>2021-03-26T11:37:56Z</time>
      </trkpt>
      <trkpt lat="45.67924" lon="6.84436">
        <ele>2693.6</ele>
        <time>2021-03-26T11:37:57Z</time>
      </trkpt>
      <trkpt lat="45.67923" lon="6.84436">
        <ele>2693.8</ele>
        <time>2021-03-26T11:37:58Z</time>
      </trkpt>
      <trkpt lat="45.67922" lon="6.84435">
        <ele>2695.2</ele>
        <time>2021-03-26T11:37:59Z</time>
      </trkpt>
      <trkpt lat="45.67922" lon="6.84435">
        <ele>2695.2</ele>
        <time>2021-03-26T11:38:00Z</time>
      </trkpt>
      <trkpt lat="45.67922" lon="6.84435">
        <ele>2695.2</ele>
        <time>2021-03-26T11:38:01Z</time>
      </trkpt>
      <trkpt lat="45.67921" lon="6.84434">
        <ele>2695.2</ele>
        <time>2021-03-26T11:38:02Z</time>
      </trkpt>
      <trkpt lat="45.67921" lon="6.84434">
        <ele>2695.2</ele>
        <time>2021-03-26T11:38:03Z</time>
      </trkpt>
      <trkpt lat="45.6792" lon="6.84434">
        <ele>2695.4</ele>
        <time>2021-03-26T11:38:04Z</time>
      </trkpt>
      <trkpt lat="45.6792" lon="6.84434">
        <ele>2695.4</ele>
        <time>2021-03-26T11:38:05Z</time>
      </trkpt>
      <trkpt lat="45.67919" lon="6.84434">
        <ele>2695.4</ele>
        <time>2021-03-26T11:38:06Z</time>
      </trkpt>
      <trkpt lat="45.67919" lon="6.84433">
        <ele>2695.4</ele>
        <time>2021-03-26T11:38:07Z</time>
      </trkpt>
      <trkpt lat="45.67918" lon="6.84433">
        <ele>2695.4</ele>
        <time>2021-03-26T11:38:08Z</time>
      </trkpt>
      <trkpt lat="45.67918" lon="6.84433">
        <ele>2695.4</ele>
        <time>2021-03-26T11:38:09Z</time>
      </trkpt>
      <trkpt lat="45.67917" lon="6.84433">
        <ele>2695.4</ele>
        <time>2021-03-26T11:38:10Z</time>
      </trkpt>
      <trkpt lat="45.67917" lon="6.84433">
        <ele>2695.6</ele>
        <time>2021-03-26T11:38:11Z</time>
      </trkpt>
      <trkpt lat="45.67916" lon="6.84433">
        <ele>2695.6</ele>
        <time>2021-03-26T11:38:12Z</time>
      </trkpt>
      <trkpt lat="45.67916" lon="6.84433">
        <ele>2695.6</ele>
        <time>2021-03-26T11:38:13Z</time>
      </trkpt>
      <trkpt lat="45.67915" lon="6.84433">
        <ele>2695.6</ele>
        <time>2021-03-26T11:38:14Z</time>
      </trkpt>
      <trkpt lat="45.67915" lon="6.84432">
        <ele>2695.6</ele>
        <time>2021-03-26T11:38:15Z</time>
      </trkpt>
      <trkpt lat="45.67914" lon="6.84432">
        <ele>2695.6</ele>
        <time>2021-03-26T11:38:16Z</time>
      </trkpt>
      <trkpt lat="45.67914" lon="6.84432">
        <ele>2695.6</ele>
        <time>2021-03-26T11:38:17Z</time>
      </trkpt>
      <trkpt lat="45.67914" lon="6.84432">
        <ele>2695.8</ele>
        <time>2021-03-26T11:38:18Z</time>
      </trkpt>
      <trkpt lat="45.67913" lon="6.84432">
        <ele>2695.8</ele>
        <time>2021-03-26T11:38:19Z</time>
      </trkpt>
      <trkpt lat="45.67912" lon="6.84432">
        <ele>2695.8</ele>
        <time>2021-03-26T11:38:20Z</time>
      </trkpt>
      <trkpt lat="45.67912" lon="6.84432">
        <ele>2695.8</ele>
        <time>2021-03-26T11:38:21Z</time>
      </trkpt>
      <trkpt lat="45.67911" lon="6.84433">
        <ele>2695.8</ele>
        <time>2021-03-26T11:38:22Z</time>
      </trkpt>
      <trkpt lat="45.67911" lon="6.84433">
        <ele>2695.9</ele>
        <time>2021-03-26T11:38:23Z</time>
      </trkpt>
      <trkpt lat="45.6791" lon="6.84433">
        <ele>2695.9</ele>
        <time>2021-03-26T11:38:24Z</time>
      </trkpt>
      <trkpt lat="45.6791" lon="6.84433">
        <ele>2695.9</ele>
        <time>2021-03-26T11:38:25Z</time>
      </trkpt>
      <trkpt lat="45.6791" lon="6.84434">
        <ele>2695.9</ele>
        <time>2021-03-26T11:38:26Z</time>
      </trkpt>
      <trkpt lat="45.6791" lon="6.84435">
        <ele>2695.9</ele>
        <time>2021-03-26T11:38:27Z</time>
      </trkpt>
      <trkpt lat="45.6791" lon="6.84436">
        <ele>2694.5</ele>
        <time>2021-03-26T11:38:28Z</time>
      </trkpt>
      <trkpt lat="45.6791" lon="6.84436">
        <ele>2694.5</ele>
        <time>2021-03-26T11:38:29Z</time>
      </trkpt>
      <trkpt lat="45.67909" lon="6.84436">
        <ele>2694.5</ele>
        <time>2021-03-26T11:38:30Z</time>
      </trkpt>
      <trkpt lat="45.67909" lon="6.84436">
        <ele>2694.5</ele>
        <time>2021-03-26T11:38:31Z</time>
      </trkpt>
      <trkpt lat="45.67908" lon="6.84436">
        <ele>2694.6</ele>
        <time>2021-03-26T11:38:32Z</time>
      </trkpt>
      <trkpt lat="45.67907" lon="6.84436">
        <ele>2694.6</ele>
        <time>2021-03-26T11:38:33Z</time>
      </trkpt>
      <trkpt lat="45.67907" lon="6.84412">
        <ele>2703.4</ele>
        <time>2021-03-26T11:39:05Z</time>
      </trkpt>
      <trkpt lat="45.67907" lon="6.84412">
        <ele>2703.4</ele>
        <time>2021-03-26T11:39:06Z</time>
      </trkpt>
      <trkpt lat="45.67908" lon="6.84411">
        <ele>2703.4</ele>
        <time>2021-03-26T11:39:07Z</time>
      </trkpt>
      <trkpt lat="45.67908" lon="6.8441">
        <ele>2703.3</ele>
        <time>2021-03-26T11:39:08Z</time>
      </trkpt>
      <trkpt lat="45.67909" lon="6.84409">
        <ele>2704.9</ele>
        <time>2021-03-26T11:39:09Z</time>
      </trkpt>
      <trkpt lat="45.67909" lon="6.84408">
        <ele>2704.9</ele>
        <time>2021-03-26T11:39:10Z</time>
      </trkpt>
      <trkpt lat="45.67909" lon="6.84407">
        <ele>2704.9</ele>
        <time>2021-03-26T11:39:11Z</time>
      </trkpt>
      <trkpt lat="45.6791" lon="6.84406">
        <ele>2704.9</ele>
        <time>2021-03-26T11:39:12Z</time>
      </trkpt>
      <trkpt lat="45.6791" lon="6.84406">
        <ele>2704.9</ele>
        <time>2021-03-26T11:39:13Z</time>
      </trkpt>
      <trkpt lat="45.67911" lon="6.84405">
        <ele>2706.5</ele>
        <time>2021-03-26T11:39:14Z</time>
      </trkpt>
      <trkpt lat="45.67912" lon="6.84404">
        <ele>2706.3</ele>
        <time>2021-03-26T11:39:15Z</time>
      </trkpt>
      <trkpt lat="45.67912" lon="6.84403">
        <ele>2706.3</ele>
        <time>2021-03-26T11:39:16Z</time>
      </trkpt>
      <trkpt lat="45.67913" lon="6.84403">
        <ele>2706.3</ele>
        <time>2021-03-26T11:39:17Z</time>
      </trkpt>
      <trkpt lat="45.67913" lon="6.84402">
        <ele>2706.3</ele>
        <time>2021-03-26T11:39:18Z</time>
      </trkpt>
      <trkpt lat="45.67914" lon="6.84401">
        <ele>2707.8</ele>
        <time>2021-03-26T11:39:19Z</time>
      </trkpt>
      <trkpt lat="45.67914" lon="6.844">
        <ele>2707.5</ele>
        <time>2021-03-26T11:39:20Z</time>
      </trkpt>
      <trkpt lat="45.67915" lon="6.84399">
        <ele>2707.5</ele>
        <time>2021-03-26T11:39:21Z</time>
      </trkpt>
      <trkpt lat="45.67915" lon="6.84399">
        <ele>2707.5</ele>
        <time>2021-03-26T11:39:22Z</time>
      </trkpt>
      <trkpt lat="45.67916" lon="6.84398">
        <ele>2707.5</ele>
        <time>2021-03-26T11:39:23Z</time>
      </trkpt>
      <trkpt lat="45.67916" lon="6.84398">
        <ele>2707.5</ele>
        <time>2021-03-26T11:39:24Z</time>
      </trkpt>
      <trkpt lat="45.67917" lon="6.84397">
        <ele>2707.5</ele>
        <time>2021-03-26T11:39:25Z</time>
      </trkpt>
      <trkpt lat="45.67917" lon="6.84397">
        <ele>2709</ele>
        <time>2021-03-26T11:39:26Z</time>
      </trkpt>
      <trkpt lat="45.67917" lon="6.84396">
        <ele>2708.6</ele>
        <time>2021-03-26T11:39:27Z</time>
      </trkpt>
      <trkpt lat="45.67918" lon="6.84396">
        <ele>2708.6</ele>
        <time>2021-03-26T11:39:28Z</time>
      </trkpt>
      <trkpt lat="45.67919" lon="6.84395">
        <ele>2708.6</ele>
        <time>2021-03-26T11:39:29Z</time>
      </trkpt>
      <trkpt lat="45.67919" lon="6.84395">
        <ele>2708.6</ele>
        <time>2021-03-26T11:39:30Z</time>
      </trkpt>
      <trkpt lat="45.67919" lon="6.84394">
        <ele>2708.6</ele>
        <time>2021-03-26T11:39:31Z</time>
      </trkpt>
      <trkpt lat="45.6792" lon="6.84394">
        <ele>2708.6</ele>
        <time>2021-03-26T11:39:32Z</time>
      </trkpt>
      <trkpt lat="45.6792" lon="6.84394">
        <ele>2708.2</ele>
        <time>2021-03-26T11:39:33Z</time>
      </trkpt>
      <trkpt lat="45.67921" lon="6.84394">
        <ele>2708.2</ele>
        <time>2021-03-26T11:39:34Z</time>
      </trkpt>
      <trkpt lat="45.67921" lon="6.84394">
        <ele>2708.2</ele>
        <time>2021-03-26T11:39:35Z</time>
      </trkpt>
      <trkpt lat="45.67921" lon="6.84393">
        <ele>2708.2</ele>
        <time>2021-03-26T11:39:36Z</time>
      </trkpt>
      <trkpt lat="45.67922" lon="6.84393">
        <ele>2708.2</ele>
        <time>2021-03-26T11:39:37Z</time>
      </trkpt>
      <trkpt lat="45.67923" lon="6.84393">
        <ele>2708.2</ele>
        <time>2021-03-26T11:39:38Z</time>
      </trkpt>
      <trkpt lat="45.67923" lon="6.84393">
        <ele>2707.8</ele>
        <time>2021-03-26T11:39:39Z</time>
      </trkpt>
      <trkpt lat="45.67924" lon="6.84393">
        <ele>2707.8</ele>
        <time>2021-03-26T11:39:40Z</time>
      </trkpt>
      <trkpt lat="45.67924" lon="6.84392">
        <ele>2709.2</ele>
        <time>2021-03-26T11:39:41Z</time>
      </trkpt>
      <trkpt lat="45.67925" lon="6.84392">
        <ele>2709.2</ele>
        <time>2021-03-26T11:39:42Z</time>
      </trkpt>
      <trkpt lat="45.67926" lon="6.84392">
        <ele>2709.2</ele>
        <time>2021-03-26T11:39:43Z</time>
      </trkpt>
      <trkpt lat="45.67926" lon="6.84391">
        <ele>2708.8</ele>
        <time>2021-03-26T11:39:44Z</time>
      </trkpt>
      <trkpt lat="45.67927" lon="6.84391">
        <ele>2708.8</ele>
        <time>2021-03-26T11:39:45Z</time>
      </trkpt>
      <trkpt lat="45.67927" lon="6.84391">
        <ele>2708.8</ele>
        <time>2021-03-26T11:39:46Z</time>
      </trkpt>
      <trkpt lat="45.67928" lon="6.8439">
        <ele>2708.8</ele>
        <time>2021-03-26T11:39:47Z</time>
      </trkpt>
      <trkpt lat="45.67929" lon="6.8439">
        <ele>2708.8</ele>
        <time>2021-03-26T11:39:48Z</time>
      </trkpt>
      <trkpt lat="45.67929" lon="6.8439">
        <ele>2708.4</ele>
        <time>2021-03-26T11:39:49Z</time>
      </trkpt>
      <trkpt lat="45.6793" lon="6.8439">
        <ele>2708.4</ele>
        <time>2021-03-26T11:39:50Z</time>
      </trkpt>
      <trkpt lat="45.67931" lon="6.8439">
        <ele>2708.4</ele>
        <time>2021-03-26T11:39:51Z</time>
      </trkpt>
      <trkpt lat="45.67932" lon="6.8439">
        <ele>2708.4</ele>
        <time>2021-03-26T11:39:52Z</time>
      </trkpt>
      <trkpt lat="45.67932" lon="6.8439">
        <ele>2708.1</ele>
        <time>2021-03-26T11:39:53Z</time>
      </trkpt>
      <trkpt lat="45.67933" lon="6.84389">
        <ele>2708.1</ele>
        <time>2021-03-26T11:39:54Z</time>
      </trkpt>
      <trkpt lat="45.67933" lon="6.84389">
        <ele>2708.1</ele>
        <time>2021-03-26T11:39:55Z</time>
      </trkpt>
      <trkpt lat="45.67934" lon="6.84389">
        <ele>2708.1</ele>
        <time>2021-03-26T11:39:56Z</time>
      </trkpt>
      <trkpt lat="45.67935" lon="6.84389">
        <ele>2708.1</ele>
        <time>2021-03-26T11:39:57Z</time>
      </trkpt>
      <trkpt lat="45.67935" lon="6.84389">
        <ele>2708.1</ele>
        <time>2021-03-26T11:39:58Z</time>
      </trkpt>
      <trkpt lat="45.67936" lon="6.84389">
        <ele>2707.7</ele>
        <time>2021-03-26T11:39:59Z</time>
      </trkpt>
      <trkpt lat="45.67936" lon="6.84389">
        <ele>2707.7</ele>
        <time>2021-03-26T11:40:00Z</time>
      </trkpt>
      <trkpt lat="45.67937" lon="6.84389">
        <ele>2707.7</ele>
        <time>2021-03-26T11:40:01Z</time>
      </trkpt>
      <trkpt lat="45.67937" lon="6.84389">
        <ele>2707.7</ele>
        <time>2021-03-26T11:40:02Z</time>
      </trkpt>
      <trkpt lat="45.67938" lon="6.84389">
        <ele>2707.7</ele>
        <time>2021-03-26T11:40:03Z</time>
      </trkpt>
      <trkpt lat="45.67938" lon="6.84389">
        <ele>2707.3</ele>
        <time>2021-03-26T11:40:04Z</time>
      </trkpt>
      <trkpt lat="45.67939" lon="6.84389">
        <ele>2707.3</ele>
        <time>2021-03-26T11:40:05Z</time>
      </trkpt>
      <trkpt lat="45.67939" lon="6.84389">
        <ele>2707.3</ele>
        <time>2021-03-26T11:40:06Z</time>
      </trkpt>
      <trkpt lat="45.6794" lon="6.84389">
        <ele>2707.3</ele>
        <time>2021-03-26T11:40:07Z</time>
      </trkpt>
      <trkpt lat="45.67941" lon="6.84388">
        <ele>2707.3</ele>
        <time>2021-03-26T11:40:08Z</time>
      </trkpt>
      <trkpt lat="45.67941" lon="6.84388">
        <ele>2707.3</ele>
        <time>2021-03-26T11:40:09Z</time>
      </trkpt>
      <trkpt lat="45.67941" lon="6.84388">
        <ele>2706.9</ele>
        <time>2021-03-26T11:40:10Z</time>
      </trkpt>
      <trkpt lat="45.67942" lon="6.84388">
        <ele>2706.9</ele>
        <time>2021-03-26T11:40:11Z</time>
      </trkpt>
      <trkpt lat="45.67942" lon="6.84388">
        <ele>2706.9</ele>
        <time>2021-03-26T11:40:12Z</time>
      </trkpt>
      <trkpt lat="45.67943" lon="6.84388">
        <ele>2708.2</ele>
        <time>2021-03-26T11:40:13Z</time>
      </trkpt>
      <trkpt lat="45.67943" lon="6.84388">
        <ele>2708.2</ele>
        <time>2021-03-26T11:40:14Z</time>
      </trkpt>
      <trkpt lat="45.67944" lon="6.84388">
        <ele>2708.2</ele>
        <time>2021-03-26T11:40:15Z</time>
      </trkpt>
      <trkpt lat="45.67944" lon="6.84388">
        <ele>2707.8</ele>
        <time>2021-03-26T11:40:16Z</time>
      </trkpt>
      <trkpt lat="45.67945" lon="6.84388">
        <ele>2707.8</ele>
        <time>2021-03-26T11:40:17Z</time>
      </trkpt>
      <trkpt lat="45.67945" lon="6.84388">
        <ele>2707.8</ele>
        <time>2021-03-26T11:40:18Z</time>
      </trkpt>
      <trkpt lat="45.67945" lon="6.84388">
        <ele>2706.6</ele>
        <time>2021-03-26T11:40:19Z</time>
      </trkpt>
      <trkpt lat="45.67946" lon="6.84389">
        <ele>2706.6</ele>
        <time>2021-03-26T11:40:20Z</time>
      </trkpt>
      <trkpt lat="45.67946" lon="6.84389">
        <ele>2706.6</ele>
        <time>2021-03-26T11:40:21Z</time>
      </trkpt>
      <trkpt lat="45.67947" lon="6.84389">
        <ele>2706.6</ele>
        <time>2021-03-26T11:40:22Z</time>
      </trkpt>
      <trkpt lat="45.67947" lon="6.84389">
        <ele>2706.6</ele>
        <time>2021-03-26T11:40:23Z</time>
      </trkpt>
      <trkpt lat="45.67947" lon="6.8439">
        <ele>2706.2</ele>
        <time>2021-03-26T11:40:24Z</time>
      </trkpt>
      <trkpt lat="45.67948" lon="6.8439">
        <ele>2706.2</ele>
        <time>2021-03-26T11:40:25Z</time>
      </trkpt>
      <trkpt lat="45.67948" lon="6.8439">
        <ele>2706.2</ele>
        <time>2021-03-26T11:40:26Z</time>
      </trkpt>
      <trkpt lat="45.67949" lon="6.8439">
        <ele>2706.2</ele>
        <time>2021-03-26T11:40:27Z</time>
      </trkpt>
      <trkpt lat="45.67949" lon="6.8439">
        <ele>2706.2</ele>
        <time>2021-03-26T11:40:28Z</time>
      </trkpt>
      <trkpt lat="45.6795" lon="6.8439">
        <ele>2706.2</ele>
        <time>2021-03-26T11:40:29Z</time>
      </trkpt>
      <trkpt lat="45.6795" lon="6.8439">
        <ele>2705.8</ele>
        <time>2021-03-26T11:40:30Z</time>
      </trkpt>
      <trkpt lat="45.67951" lon="6.8439">
        <ele>2705.8</ele>
        <time>2021-03-26T11:40:31Z</time>
      </trkpt>
      <trkpt lat="45.67951" lon="6.8439">
        <ele>2705.8</ele>
        <time>2021-03-26T11:40:32Z</time>
      </trkpt>
      <trkpt lat="45.67952" lon="6.8439">
        <ele>2705.8</ele>
        <time>2021-03-26T11:40:33Z</time>
      </trkpt>
      <trkpt lat="45.67952" lon="6.8439">
        <ele>2705.8</ele>
        <time>2021-03-26T11:40:34Z</time>
      </trkpt>
      <trkpt lat="45.67952" lon="6.8439">
        <ele>2705.8</ele>
        <time>2021-03-26T11:40:35Z</time>
      </trkpt>
      <trkpt lat="45.67952" lon="6.8439">
        <ele>2705.8</ele>
        <time>2021-03-26T11:40:36Z</time>
      </trkpt>
      <trkpt lat="45.67953" lon="6.8439">
        <ele>2705.8</ele>
        <time>2021-03-26T11:40:37Z</time>
      </trkpt>
      <trkpt lat="45.67953" lon="6.8439">
        <ele>2705.5</ele>
        <time>2021-03-26T11:40:38Z</time>
      </trkpt>
      <trkpt lat="45.67954" lon="6.8439">
        <ele>2705.5</ele>
        <time>2021-03-26T11:40:39Z</time>
      </trkpt>
      <trkpt lat="45.67954" lon="6.84389">
        <ele>2705.5</ele>
        <time>2021-03-26T11:40:40Z</time>
      </trkpt>
      <trkpt lat="45.67955" lon="6.84389">
        <ele>2705.5</ele>
        <time>2021-03-26T11:40:41Z</time>
      </trkpt>
      <trkpt lat="45.67955" lon="6.84389">
        <ele>2705.5</ele>
        <time>2021-03-26T11:40:42Z</time>
      </trkpt>
      <trkpt lat="45.67955" lon="6.84389">
        <ele>2705.5</ele>
        <time>2021-03-26T11:40:43Z</time>
      </trkpt>
      <trkpt lat="45.67956" lon="6.84389">
        <ele>2705.5</ele>
        <time>2021-03-26T11:40:44Z</time>
      </trkpt>
      <trkpt lat="45.67956" lon="6.84389">
        <ele>2705.1</ele>
        <time>2021-03-26T11:40:45Z</time>
      </trkpt>
      <trkpt lat="45.67956" lon="6.84389">
        <ele>2705.1</ele>
        <time>2021-03-26T11:40:46Z</time>
      </trkpt>
      <trkpt lat="45.67957" lon="6.84388">
        <ele>2706.4</ele>
        <time>2021-03-26T11:40:47Z</time>
      </trkpt>
      <trkpt lat="45.67957" lon="6.84388">
        <ele>2706.4</ele>
        <time>2021-03-26T11:40:48Z</time>
      </trkpt>
      <trkpt lat="45.67958" lon="6.84387">
        <ele>2706.4</ele>
        <time>2021-03-26T11:40:49Z</time>
      </trkpt>
      <trkpt lat="45.67958" lon="6.84387">
        <ele>2706.4</ele>
        <time>2021-03-26T11:40:50Z</time>
      </trkpt>
      <trkpt lat="45.67959" lon="6.84387">
        <ele>2706.4</ele>
        <time>2021-03-26T11:40:51Z</time>
      </trkpt>
      <trkpt lat="45.67959" lon="6.84386">
        <ele>2706.1</ele>
        <time>2021-03-26T11:40:52Z</time>
      </trkpt>
      <trkpt lat="45.6796" lon="6.84386">
        <ele>2706.1</ele>
        <time>2021-03-26T11:40:53Z</time>
      </trkpt>
      <trkpt lat="45.6796" lon="6.84386">
        <ele>2706.1</ele>
        <time>2021-03-26T11:40:54Z</time>
      </trkpt>
      <trkpt lat="45.6796" lon="6.84386">
        <ele>2706.1</ele>
        <time>2021-03-26T11:40:55Z</time>
      </trkpt>
      <trkpt lat="45.67961" lon="6.84386">
        <ele>2706.1</ele>
        <time>2021-03-26T11:40:56Z</time>
      </trkpt>
      <trkpt lat="45.67961" lon="6.84386">
        <ele>2706.1</ele>
        <time>2021-03-26T11:40:57Z</time>
      </trkpt>
      <trkpt lat="45.67961" lon="6.84386">
        <ele>2706.1</ele>
        <time>2021-03-26T11:40:58Z</time>
      </trkpt>
      <trkpt lat="45.67962" lon="6.84386">
        <ele>2705.7</ele>
        <time>2021-03-26T11:40:59Z</time>
      </trkpt>
      <trkpt lat="45.67963" lon="6.84386">
        <ele>2705.7</ele>
        <time>2021-03-26T11:41:00Z</time>
      </trkpt>
      <trkpt lat="45.67963" lon="6.84386">
        <ele>2705.7</ele>
        <time>2021-03-26T11:41:01Z</time>
      </trkpt>
      <trkpt lat="45.67964" lon="6.84386">
        <ele>2705.7</ele>
        <time>2021-03-26T11:41:02Z</time>
      </trkpt>
      <trkpt lat="45.67964" lon="6.84386">
        <ele>2705.7</ele>
        <time>2021-03-26T11:41:03Z</time>
      </trkpt>
      <trkpt lat="45.67964" lon="6.84385">
        <ele>2705.7</ele>
        <time>2021-03-26T11:41:04Z</time>
      </trkpt>
      <trkpt lat="45.67965" lon="6.84385">
        <ele>2705.7</ele>
        <time>2021-03-26T11:41:05Z</time>
      </trkpt>
      <trkpt lat="45.67965" lon="6.84384">
        <ele>2705.7</ele>
        <time>2021-03-26T11:41:06Z</time>
      </trkpt>
      <trkpt lat="45.67965" lon="6.84384">
        <ele>2706.6</ele>
        <time>2021-03-26T11:41:07Z</time>
      </trkpt>
      <trkpt lat="45.67965" lon="6.84383">
        <ele>2706.6</ele>
        <time>2021-03-26T11:41:08Z</time>
      </trkpt>
      <trkpt lat="45.67966" lon="6.84383">
        <ele>2706.6</ele>
        <time>2021-03-26T11:41:09Z</time>
      </trkpt>
      <trkpt lat="45.67966" lon="6.84381">
        <ele>2706.6</ele>
        <time>2021-03-26T11:41:12Z</time>
      </trkpt>
      <trkpt lat="45.67966" lon="6.84381">
        <ele>2706.6</ele>
        <time>2021-03-26T11:41:13Z</time>
      </trkpt>
      <trkpt lat="45.67966" lon="6.8438">
        <ele>2706.6</ele>
        <time>2021-03-26T11:41:14Z</time>
      </trkpt>
      <trkpt lat="45.67965" lon="6.84379">
        <ele>2707.9</ele>
        <time>2021-03-26T11:41:15Z</time>
      </trkpt>
      <trkpt lat="45.67965" lon="6.84378">
        <ele>2707.9</ele>
        <time>2021-03-26T11:41:16Z</time>
      </trkpt>
      <trkpt lat="45.67965" lon="6.84377">
        <ele>2708.3</ele>
        <time>2021-03-26T11:41:17Z</time>
      </trkpt>
      <trkpt lat="45.67965" lon="6.84376">
        <ele>2708.3</ele>
        <time>2021-03-26T11:41:18Z</time>
      </trkpt>
      <trkpt lat="45.67964" lon="6.84376">
        <ele>2708.3</ele>
        <time>2021-03-26T11:41:19Z</time>
      </trkpt>
      <trkpt lat="45.67964" lon="6.84375">
        <ele>2709.7</ele>
        <time>2021-03-26T11:41:20Z</time>
      </trkpt>
      <trkpt lat="45.67963" lon="6.84374">
        <ele>2709.7</ele>
        <time>2021-03-26T11:41:21Z</time>
      </trkpt>
      <trkpt lat="45.67963" lon="6.84374">
        <ele>2709.7</ele>
        <time>2021-03-26T11:41:22Z</time>
      </trkpt>
      <trkpt lat="45.67962" lon="6.84373">
        <ele>2709.7</ele>
        <time>2021-03-26T11:41:23Z</time>
      </trkpt>
      <trkpt lat="45.67962" lon="6.84372">
        <ele>2710.1</ele>
        <time>2021-03-26T11:41:24Z</time>
      </trkpt>
      <trkpt lat="45.67962" lon="6.84372">
        <ele>2710.1</ele>
        <time>2021-03-26T11:41:25Z</time>
      </trkpt>
      <trkpt lat="45.67962" lon="6.84372">
        <ele>2710.1</ele>
        <time>2021-03-26T11:41:26Z</time>
      </trkpt>
      <trkpt lat="45.67961" lon="6.84371">
        <ele>2711.7</ele>
        <time>2021-03-26T11:41:27Z</time>
      </trkpt>
      <trkpt lat="45.67961" lon="6.8437">
        <ele>2711.7</ele>
        <time>2021-03-26T11:41:28Z</time>
      </trkpt>
      <trkpt lat="45.6796" lon="6.84369">
        <ele>2711.7</ele>
        <time>2021-03-26T11:41:29Z</time>
      </trkpt>
      <trkpt lat="45.6796" lon="6.84368">
        <ele>2711.7</ele>
        <time>2021-03-26T11:41:30Z</time>
      </trkpt>
      <trkpt lat="45.67959" lon="6.84367">
        <ele>2711.7</ele>
        <time>2021-03-26T11:41:31Z</time>
      </trkpt>
      <trkpt lat="45.67959" lon="6.84366">
        <ele>2713.7</ele>
        <time>2021-03-26T11:41:32Z</time>
      </trkpt>
      <trkpt lat="45.67959" lon="6.84365">
        <ele>2713.7</ele>
        <time>2021-03-26T11:41:33Z</time>
      </trkpt>
      <trkpt lat="45.67959" lon="6.84364">
        <ele>2713.7</ele>
        <time>2021-03-26T11:41:34Z</time>
      </trkpt>
      <trkpt lat="45.67958" lon="6.84364">
        <ele>2713.7</ele>
        <time>2021-03-26T11:41:35Z</time>
      </trkpt>
      <trkpt lat="45.67958" lon="6.84363">
        <ele>2713.7</ele>
        <time>2021-03-26T11:41:36Z</time>
      </trkpt>
      <trkpt lat="45.67958" lon="6.84362">
        <ele>2715.4</ele>
        <time>2021-03-26T11:41:37Z</time>
      </trkpt>
      <trkpt lat="45.67957" lon="6.84361">
        <ele>2715.4</ele>
        <time>2021-03-26T11:41:38Z</time>
      </trkpt>
      <trkpt lat="45.67957" lon="6.84361">
        <ele>2715.4</ele>
        <time>2021-03-26T11:41:39Z</time>
      </trkpt>
      <trkpt lat="45.67957" lon="6.8436">
        <ele>2715.4</ele>
        <time>2021-03-26T11:41:40Z</time>
      </trkpt>
      <trkpt lat="45.67956" lon="6.8436">
        <ele>2715.4</ele>
        <time>2021-03-26T11:41:41Z</time>
      </trkpt>
      <trkpt lat="45.67956" lon="6.84359">
        <ele>2715.8</ele>
        <time>2021-03-26T11:41:42Z</time>
      </trkpt>
      <trkpt lat="45.67956" lon="6.84358">
        <ele>2715.8</ele>
        <time>2021-03-26T11:41:43Z</time>
      </trkpt>
      <trkpt lat="45.67956" lon="6.84358">
        <ele>2717.5</ele>
        <time>2021-03-26T11:41:44Z</time>
      </trkpt>
      <trkpt lat="45.67956" lon="6.84358">
        <ele>2717.5</ele>
        <time>2021-03-26T11:41:45Z</time>
      </trkpt>
      <trkpt lat="45.67956" lon="6.84358">
        <ele>2717.5</ele>
        <time>2021-03-26T11:41:46Z</time>
      </trkpt>
      <trkpt lat="45.67956" lon="6.84358">
        <ele>2717.5</ele>
        <time>2021-03-26T11:41:47Z</time>
      </trkpt>
      <trkpt lat="45.67955" lon="6.84357">
        <ele>2717.5</ele>
        <time>2021-03-26T11:41:48Z</time>
      </trkpt>
      <trkpt lat="45.67955" lon="6.84357">
        <ele>2717.5</ele>
        <time>2021-03-26T11:41:49Z</time>
      </trkpt>
      <trkpt lat="45.67955" lon="6.84357">
        <ele>2717.5</ele>
        <time>2021-03-26T11:41:50Z</time>
      </trkpt>
      <trkpt lat="45.67955" lon="6.84357">
        <ele>2717.5</ele>
        <time>2021-03-26T11:41:51Z</time>
      </trkpt>
      <trkpt lat="45.67955" lon="6.84357">
        <ele>2717.5</ele>
        <time>2021-03-26T11:41:52Z</time>
      </trkpt>
      <trkpt lat="45.6795" lon="6.8435">
        <ele>2719.6</ele>
        <time>2021-03-26T11:42:05Z</time>
      </trkpt>
      <trkpt lat="45.6795" lon="6.84349">
        <ele>2721.7</ele>
        <time>2021-03-26T11:42:06Z</time>
      </trkpt>
      <trkpt lat="45.6795" lon="6.84349">
        <ele>2721.7</ele>
        <time>2021-03-26T11:42:07Z</time>
      </trkpt>
      <trkpt lat="45.67949" lon="6.84348">
        <ele>2721.7</ele>
        <time>2021-03-26T11:42:08Z</time>
      </trkpt>
      <trkpt lat="45.67949" lon="6.84348">
        <ele>2721.7</ele>
        <time>2021-03-26T11:42:09Z</time>
      </trkpt>
      <trkpt lat="45.67948" lon="6.84347">
        <ele>2721.7</ele>
        <time>2021-03-26T11:42:10Z</time>
      </trkpt>
      <trkpt lat="45.67948" lon="6.84347">
        <ele>2721.7</ele>
        <time>2021-03-26T11:42:11Z</time>
      </trkpt>
      <trkpt lat="45.67948" lon="6.84347">
        <ele>2721.7</ele>
        <time>2021-03-26T11:42:12Z</time>
      </trkpt>
      <trkpt lat="45.67948" lon="6.84347">
        <ele>2721.7</ele>
        <time>2021-03-26T11:42:13Z</time>
      </trkpt>
      <trkpt lat="45.67948" lon="6.84347">
        <ele>2721.7</ele>
        <time>2021-03-26T11:42:14Z</time>
      </trkpt>
      <trkpt lat="45.67948" lon="6.84347">
        <ele>2721.7</ele>
        <time>2021-03-26T11:42:15Z</time>
      </trkpt>
      <trkpt lat="45.67948" lon="6.84345">
        <ele>2723.3</ele>
        <time>2021-03-26T11:42:16Z</time>
      </trkpt>
      <trkpt lat="45.67948" lon="6.84345">
        <ele>2723.3</ele>
        <time>2021-03-26T11:42:17Z</time>
      </trkpt>
      <trkpt lat="45.67948" lon="6.84344">
        <ele>2723.3</ele>
        <time>2021-03-26T11:42:18Z</time>
      </trkpt>
      <trkpt lat="45.67948" lon="6.84344">
        <ele>2723.3</ele>
        <time>2021-03-26T11:42:19Z</time>
      </trkpt>
      <trkpt lat="45.67948" lon="6.84343">
        <ele>2723.3</ele>
        <time>2021-03-26T11:42:20Z</time>
      </trkpt>
      <trkpt lat="45.67947" lon="6.84343">
        <ele>2723.3</ele>
        <time>2021-03-26T11:42:21Z</time>
      </trkpt>
      <trkpt lat="45.67947" lon="6.84342">
        <ele>2723.3</ele>
        <time>2021-03-26T11:42:22Z</time>
      </trkpt>
      <trkpt lat="45.67947" lon="6.84342">
        <ele>2723.9</ele>
        <time>2021-03-26T11:42:23Z</time>
      </trkpt>
      <trkpt lat="45.67946" lon="6.84342">
        <ele>2723.9</ele>
        <time>2021-03-26T11:42:24Z</time>
      </trkpt>
      <trkpt lat="45.67946" lon="6.84341">
        <ele>2723.9</ele>
        <time>2021-03-26T11:42:25Z</time>
      </trkpt>
      <trkpt lat="45.67946" lon="6.84341">
        <ele>2725.7</ele>
        <time>2021-03-26T11:42:26Z</time>
      </trkpt>
      <trkpt lat="45.67945" lon="6.8434">
        <ele>2725.7</ele>
        <time>2021-03-26T11:42:27Z</time>
      </trkpt>
      <trkpt lat="45.67945" lon="6.8434">
        <ele>2725.7</ele>
        <time>2021-03-26T11:42:28Z</time>
      </trkpt>
      <trkpt lat="45.67945" lon="6.8434">
        <ele>2725.7</ele>
        <time>2021-03-26T11:42:29Z</time>
      </trkpt>
      <trkpt lat="45.67944" lon="6.84339">
        <ele>2725.7</ele>
        <time>2021-03-26T11:42:30Z</time>
      </trkpt>
      <trkpt lat="45.67944" lon="6.84339">
        <ele>2726.3</ele>
        <time>2021-03-26T11:42:31Z</time>
      </trkpt>
      <trkpt lat="45.67943" lon="6.84338">
        <ele>2726.3</ele>
        <time>2021-03-26T11:42:32Z</time>
      </trkpt>
      <trkpt lat="45.67943" lon="6.84338">
        <ele>2726.3</ele>
        <time>2021-03-26T11:42:33Z</time>
      </trkpt>
      <trkpt lat="45.67942" lon="6.84337">
        <ele>2726.3</ele>
        <time>2021-03-26T11:42:34Z</time>
      </trkpt>
      <trkpt lat="45.67942" lon="6.84337">
        <ele>2728.2</ele>
        <time>2021-03-26T11:42:35Z</time>
      </trkpt>
      <trkpt lat="45.67942" lon="6.84336">
        <ele>2728.2</ele>
        <time>2021-03-26T11:42:36Z</time>
      </trkpt>
      <trkpt lat="45.67942" lon="6.84336">
        <ele>2728.2</ele>
        <time>2021-03-26T11:42:37Z</time>
      </trkpt>
      <trkpt lat="45.67941" lon="6.84336">
        <ele>2728.2</ele>
        <time>2021-03-26T11:42:38Z</time>
      </trkpt>
      <trkpt lat="45.67941" lon="6.84335">
        <ele>2728.8</ele>
        <time>2021-03-26T11:42:39Z</time>
      </trkpt>
      <trkpt lat="45.67941" lon="6.84335">
        <ele>2728.8</ele>
        <time>2021-03-26T11:42:40Z</time>
      </trkpt>
      <trkpt lat="45.6794" lon="6.84334">
        <ele>2728.8</ele>
        <time>2021-03-26T11:42:41Z</time>
      </trkpt>
      <trkpt lat="45.6794" lon="6.84334">
        <ele>2728.8</ele>
        <time>2021-03-26T11:42:42Z</time>
      </trkpt>
      <trkpt lat="45.6794" lon="6.84333">
        <ele>2728.8</ele>
        <time>2021-03-26T11:42:43Z</time>
      </trkpt>
      <trkpt lat="45.6794" lon="6.84333">
        <ele>2728.8</ele>
        <time>2021-03-26T11:42:44Z</time>
      </trkpt>
      <trkpt lat="45.67941" lon="6.84328">
        <ele>2730.2</ele>
        <time>2021-03-26T11:43:06Z</time>
      </trkpt>
      <trkpt lat="45.67942" lon="6.84327">
        <ele>2732.2</ele>
        <time>2021-03-26T11:43:07Z</time>
      </trkpt>
      <trkpt lat="45.67942" lon="6.84327">
        <ele>2732.2</ele>
        <time>2021-03-26T11:43:08Z</time>
      </trkpt>
      <trkpt lat="45.67943" lon="6.84326">
        <ele>2732.2</ele>
        <time>2021-03-26T11:43:09Z</time>
      </trkpt>
      <trkpt lat="45.67943" lon="6.84326">
        <ele>2732.2</ele>
        <time>2021-03-26T11:43:10Z</time>
      </trkpt>
      <trkpt lat="45.67943" lon="6.84326">
        <ele>2732.2</ele>
        <time>2021-03-26T11:43:11Z</time>
      </trkpt>
      <trkpt lat="45.67943" lon="6.84325">
        <ele>2732.2</ele>
        <time>2021-03-26T11:43:12Z</time>
      </trkpt>
      <trkpt lat="45.67944" lon="6.84325">
        <ele>2732.2</ele>
        <time>2021-03-26T11:43:13Z</time>
      </trkpt>
      <trkpt lat="45.67944" lon="6.84325">
        <ele>2732.2</ele>
        <time>2021-03-26T11:43:14Z</time>
      </trkpt>
      <trkpt lat="45.67944" lon="6.84324">
        <ele>2731.4</ele>
        <time>2021-03-26T11:43:15Z</time>
      </trkpt>
      <trkpt lat="45.67945" lon="6.84324">
        <ele>2731.4</ele>
        <time>2021-03-26T11:43:16Z</time>
      </trkpt>
      <trkpt lat="45.67946" lon="6.84324">
        <ele>2733.4</ele>
        <time>2021-03-26T11:43:17Z</time>
      </trkpt>
      <trkpt lat="45.67946" lon="6.84323">
        <ele>2733.4</ele>
        <time>2021-03-26T11:43:18Z</time>
      </trkpt>
      <trkpt lat="45.67947" lon="6.84323">
        <ele>2733.4</ele>
        <time>2021-03-26T11:43:19Z</time>
      </trkpt>
      <trkpt lat="45.67947" lon="6.84322">
        <ele>2732.6</ele>
        <time>2021-03-26T11:43:20Z</time>
      </trkpt>
      <trkpt lat="45.67947" lon="6.84322">
        <ele>2732.6</ele>
        <time>2021-03-26T11:43:21Z</time>
      </trkpt>
      <trkpt lat="45.67948" lon="6.84321">
        <ele>2732.6</ele>
        <time>2021-03-26T11:43:22Z</time>
      </trkpt>
      <trkpt lat="45.67948" lon="6.8432">
        <ele>2732.6</ele>
        <time>2021-03-26T11:43:23Z</time>
      </trkpt>
      <trkpt lat="45.67948" lon="6.8432">
        <ele>2732.6</ele>
        <time>2021-03-26T11:43:24Z</time>
      </trkpt>
      <trkpt lat="45.67948" lon="6.84319">
        <ele>2734.6</ele>
        <time>2021-03-26T11:43:25Z</time>
      </trkpt>
      <trkpt lat="45.67949" lon="6.84319">
        <ele>2734.6</ele>
        <time>2021-03-26T11:43:26Z</time>
      </trkpt>
      <trkpt lat="45.67949" lon="6.84318">
        <ele>2734.6</ele>
        <time>2021-03-26T11:43:27Z</time>
      </trkpt>
      <trkpt lat="45.67949" lon="6.84318">
        <ele>2734.6</ele>
        <time>2021-03-26T11:43:28Z</time>
      </trkpt>
      <trkpt lat="45.67949" lon="6.84317">
        <ele>2734.6</ele>
        <time>2021-03-26T11:43:29Z</time>
      </trkpt>
      <trkpt lat="45.67949" lon="6.84317">
        <ele>2734.6</ele>
        <time>2021-03-26T11:43:30Z</time>
      </trkpt>
      <trkpt lat="45.67949" lon="6.84316">
        <ele>2734.6</ele>
        <time>2021-03-26T11:43:31Z</time>
      </trkpt>
      <trkpt lat="45.67949" lon="6.84315">
        <ele>2734.6</ele>
        <time>2021-03-26T11:43:32Z</time>
      </trkpt>
      <trkpt lat="45.67949" lon="6.84315">
        <ele>2736.5</ele>
        <time>2021-03-26T11:43:33Z</time>
      </trkpt>
      <trkpt lat="45.6795" lon="6.84314">
        <ele>2736.5</ele>
        <time>2021-03-26T11:43:34Z</time>
      </trkpt>
      <trkpt lat="45.6795" lon="6.84313">
        <ele>2736.5</ele>
        <time>2021-03-26T11:43:35Z</time>
      </trkpt>
      <trkpt lat="45.6795" lon="6.84313">
        <ele>2735.6</ele>
        <time>2021-03-26T11:43:36Z</time>
      </trkpt>
      <trkpt lat="45.67951" lon="6.84312">
        <ele>2735.6</ele>
        <time>2021-03-26T11:43:37Z</time>
      </trkpt>
      <trkpt lat="45.67951" lon="6.84311">
        <ele>2735.6</ele>
        <time>2021-03-26T11:43:38Z</time>
      </trkpt>
      <trkpt lat="45.67951" lon="6.8431">
        <ele>2737.5</ele>
        <time>2021-03-26T11:43:39Z</time>
      </trkpt>
      <trkpt lat="45.67951" lon="6.8431">
        <ele>2737.5</ele>
        <time>2021-03-26T11:43:40Z</time>
      </trkpt>
      <trkpt lat="45.67951" lon="6.84309">
        <ele>2737.5</ele>
        <time>2021-03-26T11:43:41Z</time>
      </trkpt>
      <trkpt lat="45.67951" lon="6.84309">
        <ele>2737.5</ele>
        <time>2021-03-26T11:43:42Z</time>
      </trkpt>
      <trkpt lat="45.67951" lon="6.84308">
        <ele>2737.5</ele>
        <time>2021-03-26T11:43:43Z</time>
      </trkpt>
      <trkpt lat="45.67951" lon="6.84308">
        <ele>2737.5</ele>
        <time>2021-03-26T11:43:44Z</time>
      </trkpt>
      <trkpt lat="45.67951" lon="6.84307">
        <ele>2737.5</ele>
        <time>2021-03-26T11:43:45Z</time>
      </trkpt>
      <trkpt lat="45.67951" lon="6.84307">
        <ele>2739.3</ele>
        <time>2021-03-26T11:43:46Z</time>
      </trkpt>
      <trkpt lat="45.67951" lon="6.84306">
        <ele>2739.3</ele>
        <time>2021-03-26T11:43:47Z</time>
      </trkpt>
      <trkpt lat="45.67951" lon="6.84305">
        <ele>2739.3</ele>
        <time>2021-03-26T11:43:48Z</time>
      </trkpt>
      <trkpt lat="45.67952" lon="6.84304">
        <ele>2739.3</ele>
        <time>2021-03-26T11:43:49Z</time>
      </trkpt>
      <trkpt lat="45.67952" lon="6.84304">
        <ele>2739.3</ele>
        <time>2021-03-26T11:43:50Z</time>
      </trkpt>
      <trkpt lat="45.67952" lon="6.84303">
        <ele>2739.3</ele>
        <time>2021-03-26T11:43:51Z</time>
      </trkpt>
      <trkpt lat="45.67952" lon="6.84302">
        <ele>2739.3</ele>
        <time>2021-03-26T11:43:52Z</time>
      </trkpt>
      <trkpt lat="45.67952" lon="6.84302">
        <ele>2741</ele>
        <time>2021-03-26T11:43:53Z</time>
      </trkpt>
      <trkpt lat="45.67952" lon="6.84301">
        <ele>2741</ele>
        <time>2021-03-26T11:43:54Z</time>
      </trkpt>
      <trkpt lat="45.67953" lon="6.843">
        <ele>2741</ele>
        <time>2021-03-26T11:43:55Z</time>
      </trkpt>
      <trkpt lat="45.67953" lon="6.84299">
        <ele>2741</ele>
        <time>2021-03-26T11:43:56Z</time>
      </trkpt>
      <trkpt lat="45.67953" lon="6.84298">
        <ele>2741</ele>
        <time>2021-03-26T11:43:57Z</time>
      </trkpt>
      <trkpt lat="45.67953" lon="6.84298">
        <ele>2742.7</ele>
        <time>2021-03-26T11:43:58Z</time>
      </trkpt>
      <trkpt lat="45.67953" lon="6.84297">
        <ele>2742.7</ele>
        <time>2021-03-26T11:43:59Z</time>
      </trkpt>
      <trkpt lat="45.67953" lon="6.84296">
        <ele>2742.7</ele>
        <time>2021-03-26T11:44:00Z</time>
      </trkpt>
      <trkpt lat="45.67953" lon="6.84295">
        <ele>2742.7</ele>
        <time>2021-03-26T11:44:01Z</time>
      </trkpt>
      <trkpt lat="45.67953" lon="6.84294">
        <ele>2741.7</ele>
        <time>2021-03-26T11:44:02Z</time>
      </trkpt>
      <trkpt lat="45.67953" lon="6.84294">
        <ele>2744.4</ele>
        <time>2021-03-26T11:44:03Z</time>
      </trkpt>
      <trkpt lat="45.67953" lon="6.84293">
        <ele>2744.4</ele>
        <time>2021-03-26T11:44:04Z</time>
      </trkpt>
      <trkpt lat="45.67953" lon="6.84292">
        <ele>2744.4</ele>
        <time>2021-03-26T11:44:05Z</time>
      </trkpt>
      <trkpt lat="45.67953" lon="6.84291">
        <ele>2743.4</ele>
        <time>2021-03-26T11:44:06Z</time>
      </trkpt>
      <trkpt lat="45.67953" lon="6.8429">
        <ele>2743.4</ele>
        <time>2021-03-26T11:44:07Z</time>
      </trkpt>
      <trkpt lat="45.67953" lon="6.8429">
        <ele>2743.4</ele>
        <time>2021-03-26T11:44:08Z</time>
      </trkpt>
      <trkpt lat="45.67953" lon="6.84289">
        <ele>2745.2</ele>
        <time>2021-03-26T11:44:09Z</time>
      </trkpt>
      <trkpt lat="45.67953" lon="6.84288">
        <ele>2745.2</ele>
        <time>2021-03-26T11:44:10Z</time>
      </trkpt>
      <trkpt lat="45.67953" lon="6.84287">
        <ele>2745.2</ele>
        <time>2021-03-26T11:44:11Z</time>
      </trkpt>
      <trkpt lat="45.67953" lon="6.84287">
        <ele>2745.2</ele>
        <time>2021-03-26T11:44:12Z</time>
      </trkpt>
      <trkpt lat="45.67953" lon="6.84286">
        <ele>2745.2</ele>
        <time>2021-03-26T11:44:13Z</time>
      </trkpt>
      <trkpt lat="45.67954" lon="6.84285">
        <ele>2747</ele>
        <time>2021-03-26T11:44:14Z</time>
      </trkpt>
      <trkpt lat="45.67954" lon="6.84285">
        <ele>2747</ele>
        <time>2021-03-26T11:44:15Z</time>
      </trkpt>
      <trkpt lat="45.67954" lon="6.84284">
        <ele>2747</ele>
        <time>2021-03-26T11:44:16Z</time>
      </trkpt>
      <trkpt lat="45.67954" lon="6.84284">
        <ele>2747</ele>
        <time>2021-03-26T11:44:17Z</time>
      </trkpt>
      <trkpt lat="45.67954" lon="6.84284">
        <ele>2747</ele>
        <time>2021-03-26T11:44:18Z</time>
      </trkpt>
      <trkpt lat="45.67954" lon="6.84284">
        <ele>2747</ele>
        <time>2021-03-26T11:44:19Z</time>
      </trkpt>
      <trkpt lat="45.67954" lon="6.84284">
        <ele>2747</ele>
        <time>2021-03-26T11:44:20Z</time>
      </trkpt>
      <trkpt lat="45.67954" lon="6.84284">
        <ele>2747</ele>
        <time>2021-03-26T11:44:21Z</time>
      </trkpt>
      <trkpt lat="45.67955" lon="6.84284">
        <ele>2747</ele>
        <time>2021-03-26T11:44:22Z</time>
      </trkpt>
      <trkpt lat="45.67955" lon="6.84284">
        <ele>2747</ele>
        <time>2021-03-26T11:44:23Z</time>
      </trkpt>
      <trkpt lat="45.67951" lon="6.84282">
        <ele>2748.1</ele>
        <time>2021-03-26T11:44:37Z</time>
      </trkpt>
      <trkpt lat="45.67951" lon="6.84282">
        <ele>2748.1</ele>
        <time>2021-03-26T11:44:38Z</time>
      </trkpt>
      <trkpt lat="45.6795" lon="6.84282">
        <ele>2749.2</ele>
        <time>2021-03-26T11:44:39Z</time>
      </trkpt>
      <trkpt lat="45.67949" lon="6.84282">
        <ele>2749.2</ele>
        <time>2021-03-26T11:44:40Z</time>
      </trkpt>
      <trkpt lat="45.67949" lon="6.84282">
        <ele>2749.2</ele>
        <time>2021-03-26T11:44:41Z</time>
      </trkpt>
      <trkpt lat="45.67948" lon="6.84282">
        <ele>2749.2</ele>
        <time>2021-03-26T11:44:42Z</time>
      </trkpt>
      <trkpt lat="45.67948" lon="6.84282">
        <ele>2749.2</ele>
        <time>2021-03-26T11:44:43Z</time>
      </trkpt>
      <trkpt lat="45.67948" lon="6.84282">
        <ele>2749.2</ele>
        <time>2021-03-26T11:44:44Z</time>
      </trkpt>
      <trkpt lat="45.67947" lon="6.84282">
        <ele>2749.2</ele>
        <time>2021-03-26T11:44:45Z</time>
      </trkpt>
      <trkpt lat="45.67947" lon="6.84283">
        <ele>2750.3</ele>
        <time>2021-03-26T11:44:46Z</time>
      </trkpt>
      <trkpt lat="45.67947" lon="6.84283">
        <ele>2750.3</ele>
        <time>2021-03-26T11:44:47Z</time>
      </trkpt>
      <trkpt lat="45.67946" lon="6.84283">
        <ele>2750.3</ele>
        <time>2021-03-26T11:44:48Z</time>
      </trkpt>
      <trkpt lat="45.67946" lon="6.84283">
        <ele>2750.3</ele>
        <time>2021-03-26T11:44:49Z</time>
      </trkpt>
      <trkpt lat="45.67946" lon="6.84283">
        <ele>2750.3</ele>
        <time>2021-03-26T11:44:50Z</time>
      </trkpt>
      <trkpt lat="45.67946" lon="6.84283">
        <ele>2750.3</ele>
        <time>2021-03-26T11:44:51Z</time>
      </trkpt>
      <trkpt lat="45.67946" lon="6.84283">
        <ele>2750.3</ele>
        <time>2021-03-26T11:44:52Z</time>
      </trkpt>
      <trkpt lat="45.6793" lon="6.8428">
        <ele>2757.4</ele>
        <time>2021-03-26T11:46:07Z</time>
      </trkpt>
      <trkpt lat="45.67931" lon="6.84279">
        <ele>2757.4</ele>
        <time>2021-03-26T11:46:08Z</time>
      </trkpt>
      <trkpt lat="45.67931" lon="6.84279">
        <ele>2757.4</ele>
        <time>2021-03-26T11:46:09Z</time>
      </trkpt>
      <trkpt lat="45.67931" lon="6.84279">
        <ele>2757.4</ele>
        <time>2021-03-26T11:46:10Z</time>
      </trkpt>
      <trkpt lat="45.67931" lon="6.84279">
        <ele>2757.4</ele>
        <time>2021-03-26T11:46:11Z</time>
      </trkpt>
      <trkpt lat="45.67931" lon="6.84278">
        <ele>2757.4</ele>
        <time>2021-03-26T11:46:12Z</time>
      </trkpt>
      <trkpt lat="45.67931" lon="6.84277">
        <ele>2757.4</ele>
        <time>2021-03-26T11:46:13Z</time>
      </trkpt>
      <trkpt lat="45.67931" lon="6.84277">
        <ele>2757.4</ele>
        <time>2021-03-26T11:46:14Z</time>
      </trkpt>
      <trkpt lat="45.6793" lon="6.84276">
        <ele>2759.5</ele>
        <time>2021-03-26T11:46:15Z</time>
      </trkpt>
      <trkpt lat="45.6793" lon="6.84276">
        <ele>2759.5</ele>
        <time>2021-03-26T11:46:16Z</time>
      </trkpt>
      <trkpt lat="45.6793" lon="6.84276">
        <ele>2759.5</ele>
        <time>2021-03-26T11:46:17Z</time>
      </trkpt>
      <trkpt lat="45.6793" lon="6.84275">
        <ele>2759.5</ele>
        <time>2021-03-26T11:46:18Z</time>
      </trkpt>
      <trkpt lat="45.67931" lon="6.84275">
        <ele>2759.5</ele>
        <time>2021-03-26T11:46:19Z</time>
      </trkpt>
      <trkpt lat="45.67931" lon="6.84274">
        <ele>2759.5</ele>
        <time>2021-03-26T11:46:20Z</time>
      </trkpt>
      <trkpt lat="45.67931" lon="6.84273">
        <ele>2759.5</ele>
        <time>2021-03-26T11:46:21Z</time>
      </trkpt>
      <trkpt lat="45.67932" lon="6.84272">
        <ele>2759.5</ele>
        <time>2021-03-26T11:46:22Z</time>
      </trkpt>
      <trkpt lat="45.67932" lon="6.84272">
        <ele>2761.5</ele>
        <time>2021-03-26T11:46:23Z</time>
      </trkpt>
      <trkpt lat="45.67932" lon="6.84271">
        <ele>2761.5</ele>
        <time>2021-03-26T11:46:24Z</time>
      </trkpt>
      <trkpt lat="45.67932" lon="6.8427">
        <ele>2760.6</ele>
        <time>2021-03-26T11:46:25Z</time>
      </trkpt>
      <trkpt lat="45.67933" lon="6.84269">
        <ele>2760.6</ele>
        <time>2021-03-26T11:46:26Z</time>
      </trkpt>
      <trkpt lat="45.67933" lon="6.84268">
        <ele>2760.6</ele>
        <time>2021-03-26T11:46:27Z</time>
      </trkpt>
      <trkpt lat="45.67933" lon="6.84268">
        <ele>2762.5</ele>
        <time>2021-03-26T11:46:28Z</time>
      </trkpt>
      <trkpt lat="45.67934" lon="6.84267">
        <ele>2762.5</ele>
        <time>2021-03-26T11:46:29Z</time>
      </trkpt>
      <trkpt lat="45.67934" lon="6.84266">
        <ele>2762.5</ele>
        <time>2021-03-26T11:46:30Z</time>
      </trkpt>
      <trkpt lat="45.67934" lon="6.84265">
        <ele>2762.5</ele>
        <time>2021-03-26T11:46:31Z</time>
      </trkpt>
      <trkpt lat="45.67935" lon="6.84264">
        <ele>2762.5</ele>
        <time>2021-03-26T11:46:32Z</time>
      </trkpt>
      <trkpt lat="45.67935" lon="6.84263">
        <ele>2764.3</ele>
        <time>2021-03-26T11:46:33Z</time>
      </trkpt>
      <trkpt lat="45.67935" lon="6.84262">
        <ele>2763.4</ele>
        <time>2021-03-26T11:46:34Z</time>
      </trkpt>
      <trkpt lat="45.67936" lon="6.84261">
        <ele>2763.4</ele>
        <time>2021-03-26T11:46:35Z</time>
      </trkpt>
      <trkpt lat="45.67936" lon="6.8426">
        <ele>2763.4</ele>
        <time>2021-03-26T11:46:36Z</time>
      </trkpt>
      <trkpt lat="45.67936" lon="6.84259">
        <ele>2765.1</ele>
        <time>2021-03-26T11:46:37Z</time>
      </trkpt>
      <trkpt lat="45.67936" lon="6.84259">
        <ele>2765.1</ele>
        <time>2021-03-26T11:46:38Z</time>
      </trkpt>
      <trkpt lat="45.67936" lon="6.84258">
        <ele>2765.1</ele>
        <time>2021-03-26T11:46:39Z</time>
      </trkpt>
      <trkpt lat="45.67936" lon="6.84257">
        <ele>2765.1</ele>
        <time>2021-03-26T11:46:40Z</time>
      </trkpt>
      <trkpt lat="45.67936" lon="6.84256">
        <ele>2765.1</ele>
        <time>2021-03-26T11:46:41Z</time>
      </trkpt>
      <trkpt lat="45.67936" lon="6.84255">
        <ele>2765.1</ele>
        <time>2021-03-26T11:46:42Z</time>
      </trkpt>
      <trkpt lat="45.67937" lon="6.84255">
        <ele>2766.8</ele>
        <time>2021-03-26T11:46:43Z</time>
      </trkpt>
      <trkpt lat="45.67937" lon="6.84254">
        <ele>2766.8</ele>
        <time>2021-03-26T11:46:44Z</time>
      </trkpt>
      <trkpt lat="45.67937" lon="6.84253">
        <ele>2766.8</ele>
        <time>2021-03-26T11:46:45Z</time>
      </trkpt>
      <trkpt lat="45.67937" lon="6.84253">
        <ele>2766.8</ele>
        <time>2021-03-26T11:46:46Z</time>
      </trkpt>
      <trkpt lat="45.67937" lon="6.84252">
        <ele>2766.8</ele>
        <time>2021-03-26T11:46:47Z</time>
      </trkpt>
      <trkpt lat="45.67937" lon="6.84251">
        <ele>2766.8</ele>
        <time>2021-03-26T11:46:48Z</time>
      </trkpt>
      <trkpt lat="45.67938" lon="6.84251">
        <ele>2768.5</ele>
        <time>2021-03-26T11:46:49Z</time>
      </trkpt>
      <trkpt lat="45.67938" lon="6.8425">
        <ele>2768.5</ele>
        <time>2021-03-26T11:46:50Z</time>
      </trkpt>
      <trkpt lat="45.67938" lon="6.84249">
        <ele>2768.5</ele>
        <time>2021-03-26T11:46:51Z</time>
      </trkpt>
      <trkpt lat="45.67938" lon="6.84248">
        <ele>2767.5</ele>
        <time>2021-03-26T11:46:52Z</time>
      </trkpt>
      <trkpt lat="45.67938" lon="6.84248">
        <ele>2767.5</ele>
        <time>2021-03-26T11:46:53Z</time>
      </trkpt>
      <trkpt lat="45.67939" lon="6.84247">
        <ele>2767.5</ele>
        <time>2021-03-26T11:46:54Z</time>
      </trkpt>
      <trkpt lat="45.67939" lon="6.84247">
        <ele>2767.5</ele>
        <time>2021-03-26T11:46:55Z</time>
      </trkpt>
      <trkpt lat="45.67939" lon="6.84246">
        <ele>2769.2</ele>
        <time>2021-03-26T11:46:56Z</time>
      </trkpt>
      <trkpt lat="45.6794" lon="6.84246">
        <ele>2769.2</ele>
        <time>2021-03-26T11:46:57Z</time>
      </trkpt>
      <trkpt lat="45.6794" lon="6.84245">
        <ele>2769.2</ele>
        <time>2021-03-26T11:46:58Z</time>
      </trkpt>
      <trkpt lat="45.6794" lon="6.84245">
        <ele>2769.2</ele>
        <time>2021-03-26T11:46:59Z</time>
      </trkpt>
      <trkpt lat="45.67941" lon="6.84245">
        <ele>2769.2</ele>
        <time>2021-03-26T11:47:00Z</time>
      </trkpt>
      <trkpt lat="45.67941" lon="6.84244">
        <ele>2768.1</ele>
        <time>2021-03-26T11:47:01Z</time>
      </trkpt>
      <trkpt lat="45.67942" lon="6.84243">
        <ele>2768.1</ele>
        <time>2021-03-26T11:47:02Z</time>
      </trkpt>
      <trkpt lat="45.67942" lon="6.84243">
        <ele>2768.1</ele>
        <time>2021-03-26T11:47:03Z</time>
      </trkpt>
      <trkpt lat="45.67942" lon="6.84242">
        <ele>2769.9</ele>
        <time>2021-03-26T11:47:04Z</time>
      </trkpt>
      <trkpt lat="45.67943" lon="6.84242">
        <ele>2769.9</ele>
        <time>2021-03-26T11:47:05Z</time>
      </trkpt>
      <trkpt lat="45.67943" lon="6.84242">
        <ele>2769.9</ele>
        <time>2021-03-26T11:47:06Z</time>
      </trkpt>
      <trkpt lat="45.67943" lon="6.84241">
        <ele>2769.9</ele>
        <time>2021-03-26T11:47:07Z</time>
      </trkpt>
      <trkpt lat="45.67943" lon="6.84241">
        <ele>2769.9</ele>
        <time>2021-03-26T11:47:08Z</time>
      </trkpt>
      <trkpt lat="45.67943" lon="6.84241">
        <ele>2769.9</ele>
        <time>2021-03-26T11:47:09Z</time>
      </trkpt>
      <trkpt lat="45.67944" lon="6.8424">
        <ele>2769.9</ele>
        <time>2021-03-26T11:47:10Z</time>
      </trkpt>
      <trkpt lat="45.67944" lon="6.8424">
        <ele>2769.9</ele>
        <time>2021-03-26T11:47:11Z</time>
      </trkpt>
      <trkpt lat="45.67944" lon="6.8424">
        <ele>2769.9</ele>
        <time>2021-03-26T11:47:12Z</time>
      </trkpt>
      <trkpt lat="45.67944" lon="6.8424">
        <ele>2769.9</ele>
        <time>2021-03-26T11:47:13Z</time>
      </trkpt>
      <trkpt lat="45.67939" lon="6.84237">
        <ele>2772.7</ele>
        <time>2021-03-26T11:48:29Z</time>
      </trkpt>
      <trkpt lat="45.67939" lon="6.84237">
        <ele>2772.7</ele>
        <time>2021-03-26T11:48:30Z</time>
      </trkpt>
      <trkpt lat="45.67939" lon="6.84236">
        <ele>2772.7</ele>
        <time>2021-03-26T11:48:31Z</time>
      </trkpt>
      <trkpt lat="45.67939" lon="6.84236">
        <ele>2772.7</ele>
        <time>2021-03-26T11:48:32Z</time>
      </trkpt>
      <trkpt lat="45.67939" lon="6.84235">
        <ele>2772.7</ele>
        <time>2021-03-26T11:48:33Z</time>
      </trkpt>
      <trkpt lat="45.67939" lon="6.84235">
        <ele>2772.7</ele>
        <time>2021-03-26T11:48:34Z</time>
      </trkpt>
      <trkpt lat="45.67939" lon="6.84235">
        <ele>2772.7</ele>
        <time>2021-03-26T11:48:35Z</time>
      </trkpt>
      <trkpt lat="45.67939" lon="6.84234">
        <ele>2772.7</ele>
        <time>2021-03-26T11:48:36Z</time>
      </trkpt>
      <trkpt lat="45.67939" lon="6.84233">
        <ele>2774.5</ele>
        <time>2021-03-26T11:48:37Z</time>
      </trkpt>
      <trkpt lat="45.67939" lon="6.84232">
        <ele>2774.5</ele>
        <time>2021-03-26T11:48:38Z</time>
      </trkpt>
      <trkpt lat="45.6794" lon="6.84232">
        <ele>2774.5</ele>
        <time>2021-03-26T11:48:39Z</time>
      </trkpt>
      <trkpt lat="45.6794" lon="6.84232">
        <ele>2774.5</ele>
        <time>2021-03-26T11:48:40Z</time>
      </trkpt>
      <trkpt lat="45.6794" lon="6.84231">
        <ele>2774.5</ele>
        <time>2021-03-26T11:48:41Z</time>
      </trkpt>
      <trkpt lat="45.6794" lon="6.84231">
        <ele>2774.5</ele>
        <time>2021-03-26T11:48:42Z</time>
      </trkpt>
      <trkpt lat="45.6794" lon="6.8423">
        <ele>2774.5</ele>
        <time>2021-03-26T11:48:43Z</time>
      </trkpt>
      <trkpt lat="45.6794" lon="6.8423">
        <ele>2774.5</ele>
        <time>2021-03-26T11:48:44Z</time>
      </trkpt>
      <trkpt lat="45.6794" lon="6.84229">
        <ele>2776.2</ele>
        <time>2021-03-26T11:48:45Z</time>
      </trkpt>
      <trkpt lat="45.6794" lon="6.84229">
        <ele>2776.2</ele>
        <time>2021-03-26T11:48:46Z</time>
      </trkpt>
      <trkpt lat="45.6794" lon="6.84229">
        <ele>2776.2</ele>
        <time>2021-03-26T11:48:47Z</time>
      </trkpt>
      <trkpt lat="45.6794" lon="6.84228">
        <ele>2776.2</ele>
        <time>2021-03-26T11:48:48Z</time>
      </trkpt>
      <trkpt lat="45.6794" lon="6.84228">
        <ele>2776.2</ele>
        <time>2021-03-26T11:48:49Z</time>
      </trkpt>
      <trkpt lat="45.6794" lon="6.84228">
        <ele>2776.2</ele>
        <time>2021-03-26T11:48:50Z</time>
      </trkpt>
      <trkpt lat="45.6794" lon="6.84227">
        <ele>2776.2</ele>
        <time>2021-03-26T11:48:51Z</time>
      </trkpt>
      <trkpt lat="45.6794" lon="6.84226">
        <ele>2776.2</ele>
        <time>2021-03-26T11:48:52Z</time>
      </trkpt>
      <trkpt lat="45.6794" lon="6.84226">
        <ele>2776.2</ele>
        <time>2021-03-26T11:48:53Z</time>
      </trkpt>
      <trkpt lat="45.6794" lon="6.84225">
        <ele>2778</ele>
        <time>2021-03-26T11:48:54Z</time>
      </trkpt>
      <trkpt lat="45.6794" lon="6.84224">
        <ele>2778</ele>
        <time>2021-03-26T11:48:55Z</time>
      </trkpt>
      <trkpt lat="45.6794" lon="6.84224">
        <ele>2778</ele>
        <time>2021-03-26T11:48:56Z</time>
      </trkpt>
      <trkpt lat="45.6794" lon="6.84223">
        <ele>2778</ele>
        <time>2021-03-26T11:48:57Z</time>
      </trkpt>
      <trkpt lat="45.67939" lon="6.84223">
        <ele>2778</ele>
        <time>2021-03-26T11:48:58Z</time>
      </trkpt>
      <trkpt lat="45.67939" lon="6.84222">
        <ele>2778</ele>
        <time>2021-03-26T11:48:59Z</time>
      </trkpt>
      <trkpt lat="45.67939" lon="6.84222">
        <ele>2778</ele>
        <time>2021-03-26T11:49:00Z</time>
      </trkpt>
      <trkpt lat="45.67939" lon="6.84221">
        <ele>2778</ele>
        <time>2021-03-26T11:49:01Z</time>
      </trkpt>
      <trkpt lat="45.67939" lon="6.8422">
        <ele>2779.7</ele>
        <time>2021-03-26T11:49:02Z</time>
      </trkpt>
      <trkpt lat="45.67939" lon="6.8422">
        <ele>2779.7</ele>
        <time>2021-03-26T11:49:03Z</time>
      </trkpt>
      <trkpt lat="45.67939" lon="6.84219">
        <ele>2779.7</ele>
        <time>2021-03-26T11:49:04Z</time>
      </trkpt>
      <trkpt lat="45.67939" lon="6.84219">
        <ele>2779.7</ele>
        <time>2021-03-26T11:49:05Z</time>
      </trkpt>
      <trkpt lat="45.67939" lon="6.84219">
        <ele>2779.7</ele>
        <time>2021-03-26T11:49:06Z</time>
      </trkpt>
      <trkpt lat="45.67928" lon="6.84225">
        <ele>2779.5</ele>
        <time>2021-03-26T11:50:00Z</time>
      </trkpt>
      <trkpt lat="45.67928" lon="6.84226">
        <ele>2779.5</ele>
        <time>2021-03-26T11:50:01Z</time>
      </trkpt>
      <trkpt lat="45.67927" lon="6.84226">
        <ele>2779.5</ele>
        <time>2021-03-26T11:50:02Z</time>
      </trkpt>
      <trkpt lat="45.67927" lon="6.84226">
        <ele>2779.5</ele>
        <time>2021-03-26T11:50:03Z</time>
      </trkpt>
      <trkpt lat="45.67927" lon="6.84227">
        <ele>2779.5</ele>
        <time>2021-03-26T11:50:04Z</time>
      </trkpt>
      <trkpt lat="45.67926" lon="6.84227">
        <ele>2780.3</ele>
        <time>2021-03-26T11:50:05Z</time>
      </trkpt>
      <trkpt lat="45.67926" lon="6.84228">
        <ele>2780.3</ele>
        <time>2021-03-26T11:50:06Z</time>
      </trkpt>
      <trkpt lat="45.67925" lon="6.84228">
        <ele>2780.3</ele>
        <time>2021-03-26T11:50:07Z</time>
      </trkpt>
      <trkpt lat="45.67925" lon="6.84229">
        <ele>2780.3</ele>
        <time>2021-03-26T11:50:08Z</time>
      </trkpt>
      <trkpt lat="45.67925" lon="6.84229">
        <ele>2778.5</ele>
        <time>2021-03-26T11:50:09Z</time>
      </trkpt>
      <trkpt lat="45.67915" lon="6.84235">
        <ele>2779.2</ele>
        <time>2021-03-26T11:50:33Z</time>
      </trkpt>
      <trkpt lat="45.67914" lon="6.84235">
        <ele>2779.9</ele>
        <time>2021-03-26T11:50:34Z</time>
      </trkpt>
      <trkpt lat="45.67914" lon="6.84236">
        <ele>2779.9</ele>
        <time>2021-03-26T11:50:35Z</time>
      </trkpt>
      <trkpt lat="45.67913" lon="6.84236">
        <ele>2779.9</ele>
        <time>2021-03-26T11:50:36Z</time>
      </trkpt>
      <trkpt lat="45.67913" lon="6.84236">
        <ele>2779.9</ele>
        <time>2021-03-26T11:50:37Z</time>
      </trkpt>
      <trkpt lat="45.67912" lon="6.84236">
        <ele>2779.9</ele>
        <time>2021-03-26T11:50:38Z</time>
      </trkpt>
      <trkpt lat="45.67912" lon="6.84235">
        <ele>2779.9</ele>
        <time>2021-03-26T11:50:39Z</time>
      </trkpt>
      <trkpt lat="45.67911" lon="6.84235">
        <ele>2779.9</ele>
        <time>2021-03-26T11:50:40Z</time>
      </trkpt>
      <trkpt lat="45.67911" lon="6.84234">
        <ele>2780.6</ele>
        <time>2021-03-26T11:50:41Z</time>
      </trkpt>
      <trkpt lat="45.67911" lon="6.84234">
        <ele>2780.6</ele>
        <time>2021-03-26T11:50:42Z</time>
      </trkpt>
      <trkpt lat="45.67896" lon="6.84214">
        <ele>2791.3</ele>
        <time>2021-03-26T11:51:38Z</time>
      </trkpt>
      <trkpt lat="45.67895" lon="6.84214">
        <ele>2791.3</ele>
        <time>2021-03-26T11:51:39Z</time>
      </trkpt>
      <trkpt lat="45.67895" lon="6.84214">
        <ele>2791.3</ele>
        <time>2021-03-26T11:51:40Z</time>
      </trkpt>
      <trkpt lat="45.67895" lon="6.84214">
        <ele>2791.3</ele>
        <time>2021-03-26T11:51:41Z</time>
      </trkpt>
      <trkpt lat="45.67895" lon="6.84213">
        <ele>2791.3</ele>
        <time>2021-03-26T11:51:42Z</time>
      </trkpt>
      <trkpt lat="45.67894" lon="6.84213">
        <ele>2791.3</ele>
        <time>2021-03-26T11:51:43Z</time>
      </trkpt>
      <trkpt lat="45.67894" lon="6.84212">
        <ele>2792.6</ele>
        <time>2021-03-26T11:51:44Z</time>
      </trkpt>
      <trkpt lat="45.67894" lon="6.84212">
        <ele>2792.6</ele>
        <time>2021-03-26T11:51:45Z</time>
      </trkpt>
      <trkpt lat="45.67894" lon="6.84211">
        <ele>2792.6</ele>
        <time>2021-03-26T11:51:46Z</time>
      </trkpt>
      <trkpt lat="45.67895" lon="6.84211">
        <ele>2792.6</ele>
        <time>2021-03-26T11:51:47Z</time>
      </trkpt>
      <trkpt lat="45.67896" lon="6.84206">
        <ele>2793.8</ele>
        <time>2021-03-26T11:51:54Z</time>
      </trkpt>
      <trkpt lat="45.67896" lon="6.84205">
        <ele>2793.8</ele>
        <time>2021-03-26T11:51:55Z</time>
      </trkpt>
      <trkpt lat="45.67896" lon="6.84205">
        <ele>2793.4</ele>
        <time>2021-03-26T11:51:56Z</time>
      </trkpt>
      <trkpt lat="45.67896" lon="6.84204">
        <ele>2793.4</ele>
        <time>2021-03-26T11:51:57Z</time>
      </trkpt>
      <trkpt lat="45.67896" lon="6.84204">
        <ele>2794.7</ele>
        <time>2021-03-26T11:51:58Z</time>
      </trkpt>
      <trkpt lat="45.67897" lon="6.84203">
        <ele>2794.7</ele>
        <time>2021-03-26T11:51:59Z</time>
      </trkpt>
      <trkpt lat="45.67897" lon="6.84202">
        <ele>2794.7</ele>
        <time>2021-03-26T11:52:00Z</time>
      </trkpt>
      <trkpt lat="45.67897" lon="6.84202">
        <ele>2794.7</ele>
        <time>2021-03-26T11:52:01Z</time>
      </trkpt>
      <trkpt lat="45.67897" lon="6.84201">
        <ele>2794.7</ele>
        <time>2021-03-26T11:52:02Z</time>
      </trkpt>
      <trkpt lat="45.67897" lon="6.84201">
        <ele>2794.7</ele>
        <time>2021-03-26T11:52:03Z</time>
      </trkpt>
      <trkpt lat="45.67897" lon="6.842">
        <ele>2794.7</ele>
        <time>2021-03-26T11:52:04Z</time>
      </trkpt>
      <trkpt lat="45.67897" lon="6.842">
        <ele>2794.7</ele>
        <time>2021-03-26T11:52:05Z</time>
      </trkpt>
      <trkpt lat="45.67897" lon="6.84199">
        <ele>2795.9</ele>
        <time>2021-03-26T11:52:06Z</time>
      </trkpt>
      <trkpt lat="45.67897" lon="6.84198">
        <ele>2795.9</ele>
        <time>2021-03-26T11:52:07Z</time>
      </trkpt>
      <trkpt lat="45.67897" lon="6.84198">
        <ele>2795.9</ele>
        <time>2021-03-26T11:52:08Z</time>
      </trkpt>
      <trkpt lat="45.67898" lon="6.84197">
        <ele>2795.9</ele>
        <time>2021-03-26T11:52:09Z</time>
      </trkpt>
      <trkpt lat="45.67899" lon="6.84194">
        <ele>2797.2</ele>
        <time>2021-03-26T11:52:13Z</time>
      </trkpt>
      <trkpt lat="45.67899" lon="6.84193">
        <ele>2797.2</ele>
        <time>2021-03-26T11:52:14Z</time>
      </trkpt>
      <trkpt lat="45.67899" lon="6.84193">
        <ele>2796.8</ele>
        <time>2021-03-26T11:52:15Z</time>
      </trkpt>
      <trkpt lat="45.67899" lon="6.84192">
        <ele>2796.8</ele>
        <time>2021-03-26T11:52:16Z</time>
      </trkpt>
      <trkpt lat="45.679" lon="6.84191">
        <ele>2796.8</ele>
        <time>2021-03-26T11:52:17Z</time>
      </trkpt>
      <trkpt lat="45.679" lon="6.84191">
        <ele>2798</ele>
        <time>2021-03-26T11:52:18Z</time>
      </trkpt>
      <trkpt lat="45.679" lon="6.8419">
        <ele>2798</ele>
        <time>2021-03-26T11:52:19Z</time>
      </trkpt>
      <trkpt lat="45.679" lon="6.84189">
        <ele>2798</ele>
        <time>2021-03-26T11:52:20Z</time>
      </trkpt>
      <trkpt lat="45.67901" lon="6.84188">
        <ele>2798</ele>
        <time>2021-03-26T11:52:21Z</time>
      </trkpt>
      <trkpt lat="45.67901" lon="6.84188">
        <ele>2798</ele>
        <time>2021-03-26T11:52:22Z</time>
      </trkpt>
      <trkpt lat="45.67901" lon="6.84187">
        <ele>2798</ele>
        <time>2021-03-26T11:52:23Z</time>
      </trkpt>
      <trkpt lat="45.67901" lon="6.84186">
        <ele>2799.3</ele>
        <time>2021-03-26T11:52:24Z</time>
      </trkpt>
      <trkpt lat="45.67901" lon="6.84186">
        <ele>2799.3</ele>
        <time>2021-03-26T11:52:25Z</time>
      </trkpt>
      <trkpt lat="45.67902" lon="6.84185">
        <ele>2799.3</ele>
        <time>2021-03-26T11:52:26Z</time>
      </trkpt>
      <trkpt lat="45.67902" lon="6.84185">
        <ele>2799.3</ele>
        <time>2021-03-26T11:52:27Z</time>
      </trkpt>
      <trkpt lat="45.67902" lon="6.84184">
        <ele>2799.3</ele>
        <time>2021-03-26T11:52:28Z</time>
      </trkpt>
      <trkpt lat="45.67902" lon="6.84184">
        <ele>2798.8</ele>
        <time>2021-03-26T11:52:29Z</time>
      </trkpt>
      <trkpt lat="45.67903" lon="6.84183">
        <ele>2798.8</ele>
        <time>2021-03-26T11:52:30Z</time>
      </trkpt>
      <trkpt lat="45.67903" lon="6.84182">
        <ele>2798.8</ele>
        <time>2021-03-26T11:52:31Z</time>
      </trkpt>
      <trkpt lat="45.67903" lon="6.84182">
        <ele>2800</ele>
        <time>2021-03-26T11:52:32Z</time>
      </trkpt>
      <trkpt lat="45.67903" lon="6.84181">
        <ele>2800</ele>
        <time>2021-03-26T11:52:33Z</time>
      </trkpt>
      <trkpt lat="45.67903" lon="6.84181">
        <ele>2800</ele>
        <time>2021-03-26T11:52:34Z</time>
      </trkpt>
      <trkpt lat="45.67903" lon="6.8418">
        <ele>2800</ele>
        <time>2021-03-26T11:52:35Z</time>
      </trkpt>
      <trkpt lat="45.67904" lon="6.8418">
        <ele>2800</ele>
        <time>2021-03-26T11:52:36Z</time>
      </trkpt>
      <trkpt lat="45.67904" lon="6.84179">
        <ele>2800</ele>
        <time>2021-03-26T11:52:37Z</time>
      </trkpt>
      <trkpt lat="45.67904" lon="6.84179">
        <ele>2800</ele>
        <time>2021-03-26T11:52:38Z</time>
      </trkpt>
      <trkpt lat="45.67904" lon="6.84178">
        <ele>2800</ele>
        <time>2021-03-26T11:52:39Z</time>
      </trkpt>
      <trkpt lat="45.67905" lon="6.84178">
        <ele>2800</ele>
        <time>2021-03-26T11:52:40Z</time>
      </trkpt>
      <trkpt lat="45.67905" lon="6.84177">
        <ele>2801.1</ele>
        <time>2021-03-26T11:52:41Z</time>
      </trkpt>
      <trkpt lat="45.67905" lon="6.84177">
        <ele>2801.1</ele>
        <time>2021-03-26T11:52:42Z</time>
      </trkpt>
      <trkpt lat="45.67905" lon="6.84176">
        <ele>2801.1</ele>
        <time>2021-03-26T11:52:43Z</time>
      </trkpt>
      <trkpt lat="45.67905" lon="6.84176">
        <ele>2801.1</ele>
        <time>2021-03-26T11:52:44Z</time>
      </trkpt>
      <trkpt lat="45.67905" lon="6.84175">
        <ele>2800.6</ele>
        <time>2021-03-26T11:52:45Z</time>
      </trkpt>
      <trkpt lat="45.67905" lon="6.84175">
        <ele>2800.6</ele>
        <time>2021-03-26T11:52:46Z</time>
      </trkpt>
      <trkpt lat="45.67906" lon="6.84175">
        <ele>2800.6</ele>
        <time>2021-03-26T11:52:47Z</time>
      </trkpt>
      <trkpt lat="45.67906" lon="6.84174">
        <ele>2800.6</ele>
        <time>2021-03-26T11:52:48Z</time>
      </trkpt>
      <trkpt lat="45.67906" lon="6.84174">
        <ele>2800.6</ele>
        <time>2021-03-26T11:52:49Z</time>
      </trkpt>
      <trkpt lat="45.67907" lon="6.84173">
        <ele>2801.6</ele>
        <time>2021-03-26T11:52:50Z</time>
      </trkpt>
      <trkpt lat="45.67907" lon="6.84173">
        <ele>2801.6</ele>
        <time>2021-03-26T11:52:51Z</time>
      </trkpt>
      <trkpt lat="45.67907" lon="6.84172">
        <ele>2801.6</ele>
        <time>2021-03-26T11:52:52Z</time>
      </trkpt>
      <trkpt lat="45.67896" lon="6.84165">
        <ele>2805.7</ele>
        <time>2021-03-26T11:53:24Z</time>
      </trkpt>
      <trkpt lat="45.67896" lon="6.84165">
        <ele>2805.7</ele>
        <time>2021-03-26T11:53:25Z</time>
      </trkpt>
      <trkpt lat="45.67896" lon="6.84164">
        <ele>2805.7</ele>
        <time>2021-03-26T11:53:26Z</time>
      </trkpt>
      <trkpt lat="45.67895" lon="6.84164">
        <ele>2805.7</ele>
        <time>2021-03-26T11:53:27Z</time>
      </trkpt>
      <trkpt lat="45.67895" lon="6.84164">
        <ele>2805.7</ele>
        <time>2021-03-26T11:53:28Z</time>
      </trkpt>
      <trkpt lat="45.67895" lon="6.84164">
        <ele>2805.7</ele>
        <time>2021-03-26T11:53:29Z</time>
      </trkpt>
      <trkpt lat="45.67894" lon="6.84164">
        <ele>2805.7</ele>
        <time>2021-03-26T11:53:30Z</time>
      </trkpt>
      <trkpt lat="45.67894" lon="6.84163">
        <ele>2805.7</ele>
        <time>2021-03-26T11:53:31Z</time>
      </trkpt>
      <trkpt lat="45.67894" lon="6.84163">
        <ele>2805.7</ele>
        <time>2021-03-26T11:53:32Z</time>
      </trkpt>
      <trkpt lat="45.67894" lon="6.84164">
        <ele>2805.7</ele>
        <time>2021-03-26T11:53:33Z</time>
      </trkpt>
      <trkpt lat="45.67893" lon="6.84164">
        <ele>2805.7</ele>
        <time>2021-03-26T11:53:34Z</time>
      </trkpt>
      <trkpt lat="45.67893" lon="6.84164">
        <ele>2806.2</ele>
        <time>2021-03-26T11:53:35Z</time>
      </trkpt>
      <trkpt lat="45.67892" lon="6.84164">
        <ele>2806.2</ele>
        <time>2021-03-26T11:53:36Z</time>
      </trkpt>
      <trkpt lat="45.67892" lon="6.84164">
        <ele>2806.2</ele>
        <time>2021-03-26T11:53:37Z</time>
      </trkpt>
      <trkpt lat="45.67891" lon="6.84164">
        <ele>2806.2</ele>
        <time>2021-03-26T11:53:39Z</time>
      </trkpt>
      <trkpt lat="45.6789" lon="6.84164">
        <ele>2806.2</ele>
        <time>2021-03-26T11:53:40Z</time>
      </trkpt>
      <trkpt lat="45.6789" lon="6.84163">
        <ele>2806.8</ele>
        <time>2021-03-26T11:53:41Z</time>
      </trkpt>
      <trkpt lat="45.6789" lon="6.84163">
        <ele>2806.8</ele>
        <time>2021-03-26T11:53:42Z</time>
      </trkpt>
      <trkpt lat="45.6789" lon="6.84163">
        <ele>2806.8</ele>
        <time>2021-03-26T11:53:43Z</time>
      </trkpt>
      <trkpt lat="45.67889" lon="6.84162">
        <ele>2806.8</ele>
        <time>2021-03-26T11:53:44Z</time>
      </trkpt>
      <trkpt lat="45.67889" lon="6.84161">
        <ele>2806.8</ele>
        <time>2021-03-26T11:53:45Z</time>
      </trkpt>
      <trkpt lat="45.67888" lon="6.84161">
        <ele>2807.8</ele>
        <time>2021-03-26T11:53:46Z</time>
      </trkpt>
      <trkpt lat="45.67888" lon="6.8416">
        <ele>2807.8</ele>
        <time>2021-03-26T11:53:47Z</time>
      </trkpt>
      <trkpt lat="45.67887" lon="6.8416">
        <ele>2807.8</ele>
        <time>2021-03-26T11:53:48Z</time>
      </trkpt>
      <trkpt lat="45.67885" lon="6.84159">
        <ele>2808.3</ele>
        <time>2021-03-26T11:53:52Z</time>
      </trkpt>
      <trkpt lat="45.67885" lon="6.84158">
        <ele>2808.3</ele>
        <time>2021-03-26T11:53:53Z</time>
      </trkpt>
      <trkpt lat="45.67885" lon="6.84158">
        <ele>2808.3</ele>
        <time>2021-03-26T11:53:54Z</time>
      </trkpt>
      <trkpt lat="45.67884" lon="6.84158">
        <ele>2808.3</ele>
        <time>2021-03-26T11:53:55Z</time>
      </trkpt>
      <trkpt lat="45.67884" lon="6.84157">
        <ele>2808.8</ele>
        <time>2021-03-26T11:53:56Z</time>
      </trkpt>
      <trkpt lat="45.67883" lon="6.84157">
        <ele>2808.8</ele>
        <time>2021-03-26T11:53:57Z</time>
      </trkpt>
      <trkpt lat="45.67882" lon="6.84157">
        <ele>2808.8</ele>
        <time>2021-03-26T11:53:58Z</time>
      </trkpt>
      <trkpt lat="45.67882" lon="6.84156">
        <ele>2809.9</ele>
        <time>2021-03-26T11:53:59Z</time>
      </trkpt>
      <trkpt lat="45.67882" lon="6.84156">
        <ele>2809.9</ele>
        <time>2021-03-26T11:54:00Z</time>
      </trkpt>
      <trkpt lat="45.67881" lon="6.84156">
        <ele>2809.9</ele>
        <time>2021-03-26T11:54:01Z</time>
      </trkpt>
      <trkpt lat="45.67881" lon="6.84155">
        <ele>2810.3</ele>
        <time>2021-03-26T11:54:02Z</time>
      </trkpt>
      <trkpt lat="45.6788" lon="6.84155">
        <ele>2810.3</ele>
        <time>2021-03-26T11:54:03Z</time>
      </trkpt>
      <trkpt lat="45.6788" lon="6.84154">
        <ele>2810.3</ele>
        <time>2021-03-26T11:54:04Z</time>
      </trkpt>
      <trkpt lat="45.67879" lon="6.84154">
        <ele>2810.3</ele>
        <time>2021-03-26T11:54:05Z</time>
      </trkpt>
      <trkpt lat="45.67879" lon="6.84154">
        <ele>2810.3</ele>
        <time>2021-03-26T11:54:06Z</time>
      </trkpt>
      <trkpt lat="45.67878" lon="6.84154">
        <ele>2810.3</ele>
        <time>2021-03-26T11:54:07Z</time>
      </trkpt>
      <trkpt lat="45.67878" lon="6.84154">
        <ele>2810.3</ele>
        <time>2021-03-26T11:54:08Z</time>
      </trkpt>
      <trkpt lat="45.67878" lon="6.84154">
        <ele>2810.3</ele>
        <time>2021-03-26T11:54:09Z</time>
      </trkpt>
      <trkpt lat="45.67886" lon="6.84144">
        <ele>2811.4</ele>
        <time>2021-03-26T11:54:32Z</time>
      </trkpt>
      <trkpt lat="45.67886" lon="6.84144">
        <ele>2812.4</ele>
        <time>2021-03-26T11:54:33Z</time>
      </trkpt>
      <trkpt lat="45.67886" lon="6.84143">
        <ele>2812.4</ele>
        <time>2021-03-26T11:54:34Z</time>
      </trkpt>
      <trkpt lat="45.67887" lon="6.84142">
        <ele>2812.4</ele>
        <time>2021-03-26T11:54:35Z</time>
      </trkpt>
      <trkpt lat="45.67887" lon="6.84142">
        <ele>2812.4</ele>
        <time>2021-03-26T11:54:36Z</time>
      </trkpt>
      <trkpt lat="45.67887" lon="6.84141">
        <ele>2811.9</ele>
        <time>2021-03-26T11:54:37Z</time>
      </trkpt>
      <trkpt lat="45.67888" lon="6.84141">
        <ele>2811.9</ele>
        <time>2021-03-26T11:54:38Z</time>
      </trkpt>
      <trkpt lat="45.67888" lon="6.8414">
        <ele>2811.9</ele>
        <time>2021-03-26T11:54:39Z</time>
      </trkpt>
      <trkpt lat="45.67889" lon="6.84139">
        <ele>2811.9</ele>
        <time>2021-03-26T11:54:40Z</time>
      </trkpt>
      <trkpt lat="45.67889" lon="6.84139">
        <ele>2812.9</ele>
        <time>2021-03-26T11:54:41Z</time>
      </trkpt>
      <trkpt lat="45.67889" lon="6.84138">
        <ele>2812.9</ele>
        <time>2021-03-26T11:54:42Z</time>
      </trkpt>
      <trkpt lat="45.6789" lon="6.84137">
        <ele>2812.9</ele>
        <time>2021-03-26T11:54:43Z</time>
      </trkpt>
      <trkpt lat="45.6789" lon="6.84136">
        <ele>2812.3</ele>
        <time>2021-03-26T11:54:44Z</time>
      </trkpt>
      <trkpt lat="45.6789" lon="6.84136">
        <ele>2812.3</ele>
        <time>2021-03-26T11:54:45Z</time>
      </trkpt>
      <trkpt lat="45.67891" lon="6.84135">
        <ele>2813.2</ele>
        <time>2021-03-26T11:54:46Z</time>
      </trkpt>
      <trkpt lat="45.67891" lon="6.84134">
        <ele>2813.2</ele>
        <time>2021-03-26T11:54:47Z</time>
      </trkpt>
      <trkpt lat="45.67892" lon="6.84134">
        <ele>2813.2</ele>
        <time>2021-03-26T11:54:48Z</time>
      </trkpt>
      <trkpt lat="45.67892" lon="6.84133">
        <ele>2813.2</ele>
        <time>2021-03-26T11:54:49Z</time>
      </trkpt>
      <trkpt lat="45.67892" lon="6.84133">
        <ele>2813.2</ele>
        <time>2021-03-26T11:54:50Z</time>
      </trkpt>
      <trkpt lat="45.67893" lon="6.84132">
        <ele>2813.2</ele>
        <time>2021-03-26T11:54:51Z</time>
      </trkpt>
      <trkpt lat="45.67893" lon="6.84132">
        <ele>2813.2</ele>
        <time>2021-03-26T11:54:52Z</time>
      </trkpt>
      <trkpt lat="45.67893" lon="6.84132">
        <ele>2812.6</ele>
        <time>2021-03-26T11:54:53Z</time>
      </trkpt>
      <trkpt lat="45.67893" lon="6.84131">
        <ele>2812.6</ele>
        <time>2021-03-26T11:54:54Z</time>
      </trkpt>
      <trkpt lat="45.67894" lon="6.84131">
        <ele>2812.6</ele>
        <time>2021-03-26T11:54:55Z</time>
      </trkpt>
      <trkpt lat="45.67894" lon="6.8413">
        <ele>2813.5</ele>
        <time>2021-03-26T11:54:56Z</time>
      </trkpt>
      <trkpt lat="45.67895" lon="6.8413">
        <ele>2813.5</ele>
        <time>2021-03-26T11:54:57Z</time>
      </trkpt>
      <trkpt lat="45.67895" lon="6.84129">
        <ele>2813.5</ele>
        <time>2021-03-26T11:54:58Z</time>
      </trkpt>
      <trkpt lat="45.67896" lon="6.84129">
        <ele>2813.5</ele>
        <time>2021-03-26T11:54:59Z</time>
      </trkpt>
      <trkpt lat="45.67896" lon="6.84128">
        <ele>2812.9</ele>
        <time>2021-03-26T11:55:00Z</time>
      </trkpt>
      <trkpt lat="45.67897" lon="6.84128">
        <ele>2812.9</ele>
        <time>2021-03-26T11:55:01Z</time>
      </trkpt>
      <trkpt lat="45.67898" lon="6.84127">
        <ele>2812.9</ele>
        <time>2021-03-26T11:55:02Z</time>
      </trkpt>
      <trkpt lat="45.67898" lon="6.84127">
        <ele>2812.9</ele>
        <time>2021-03-26T11:55:03Z</time>
      </trkpt>
      <trkpt lat="45.67899" lon="6.84126">
        <ele>2812.9</ele>
        <time>2021-03-26T11:55:04Z</time>
      </trkpt>
      <trkpt lat="45.67899" lon="6.84126">
        <ele>2813.6</ele>
        <time>2021-03-26T11:55:05Z</time>
      </trkpt>
      <trkpt lat="45.67899" lon="6.84126">
        <ele>2813</ele>
        <time>2021-03-26T11:55:06Z</time>
      </trkpt>
      <trkpt lat="45.679" lon="6.84126">
        <ele>2813</ele>
        <time>2021-03-26T11:55:07Z</time>
      </trkpt>
      <trkpt lat="45.679" lon="6.84126">
        <ele>2813</ele>
        <time>2021-03-26T11:55:08Z</time>
      </trkpt>
      <trkpt lat="45.67901" lon="6.84125">
        <ele>2813</ele>
        <time>2021-03-26T11:55:09Z</time>
      </trkpt>
      <trkpt lat="45.67901" lon="6.84125">
        <ele>2813</ele>
        <time>2021-03-26T11:55:10Z</time>
      </trkpt>
      <trkpt lat="45.67901" lon="6.84124">
        <ele>2813</ele>
        <time>2021-03-26T11:55:11Z</time>
      </trkpt>
      <trkpt lat="45.67901" lon="6.84124">
        <ele>2813</ele>
        <time>2021-03-26T11:55:12Z</time>
      </trkpt>
      <trkpt lat="45.67902" lon="6.84124">
        <ele>2813</ele>
        <time>2021-03-26T11:55:13Z</time>
      </trkpt>
      <trkpt lat="45.67902" lon="6.84123">
        <ele>2813</ele>
        <time>2021-03-26T11:55:14Z</time>
      </trkpt>
      <trkpt lat="45.67902" lon="6.84123">
        <ele>2812.4</ele>
        <time>2021-03-26T11:55:15Z</time>
      </trkpt>
      <trkpt lat="45.67903" lon="6.84123">
        <ele>2812.4</ele>
        <time>2021-03-26T11:55:16Z</time>
      </trkpt>
      <trkpt lat="45.67903" lon="6.84122">
        <ele>2812.4</ele>
        <time>2021-03-26T11:55:17Z</time>
      </trkpt>
      <trkpt lat="45.67904" lon="6.84122">
        <ele>2813</ele>
        <time>2021-03-26T11:55:18Z</time>
      </trkpt>
      <trkpt lat="45.67904" lon="6.84121">
        <ele>2813</ele>
        <time>2021-03-26T11:55:19Z</time>
      </trkpt>
      <trkpt lat="45.67905" lon="6.84121">
        <ele>2813</ele>
        <time>2021-03-26T11:55:20Z</time>
      </trkpt>
      <trkpt lat="45.67905" lon="6.8412">
        <ele>2812.4</ele>
        <time>2021-03-26T11:55:21Z</time>
      </trkpt>
      <trkpt lat="45.67906" lon="6.8412">
        <ele>2812.4</ele>
        <time>2021-03-26T11:55:22Z</time>
      </trkpt>
      <trkpt lat="45.67906" lon="6.84119">
        <ele>2812.4</ele>
        <time>2021-03-26T11:55:23Z</time>
      </trkpt>
      <trkpt lat="45.67906" lon="6.84119">
        <ele>2812.4</ele>
        <time>2021-03-26T11:55:24Z</time>
      </trkpt>
      <trkpt lat="45.67907" lon="6.84119">
        <ele>2812.4</ele>
        <time>2021-03-26T11:55:25Z</time>
      </trkpt>
      <trkpt lat="45.67907" lon="6.84118">
        <ele>2812.4</ele>
        <time>2021-03-26T11:55:26Z</time>
      </trkpt>
      <trkpt lat="45.67908" lon="6.84118">
        <ele>2812.4</ele>
        <time>2021-03-26T11:55:27Z</time>
      </trkpt>
      <trkpt lat="45.67908" lon="6.84118">
        <ele>2812.3</ele>
        <time>2021-03-26T11:55:28Z</time>
      </trkpt>
      <trkpt lat="45.67909" lon="6.84117">
        <ele>2812.3</ele>
        <time>2021-03-26T11:55:29Z</time>
      </trkpt>
      <trkpt lat="45.67909" lon="6.84117">
        <ele>2812.3</ele>
        <time>2021-03-26T11:55:30Z</time>
      </trkpt>
      <trkpt lat="45.6791" lon="6.84116">
        <ele>2812.3</ele>
        <time>2021-03-26T11:55:31Z</time>
      </trkpt>
      <trkpt lat="45.6791" lon="6.84116">
        <ele>2812.3</ele>
        <time>2021-03-26T11:55:32Z</time>
      </trkpt>
      <trkpt lat="45.67911" lon="6.84115">
        <ele>2812.3</ele>
        <time>2021-03-26T11:55:33Z</time>
      </trkpt>
      <trkpt lat="45.67911" lon="6.84115">
        <ele>2812.3</ele>
        <time>2021-03-26T11:55:34Z</time>
      </trkpt>
      <trkpt lat="45.67912" lon="6.84114">
        <ele>2811.6</ele>
        <time>2021-03-26T11:55:35Z</time>
      </trkpt>
      <trkpt lat="45.67912" lon="6.84114">
        <ele>2811.6</ele>
        <time>2021-03-26T11:55:36Z</time>
      </trkpt>
      <trkpt lat="45.67913" lon="6.84114">
        <ele>2812.1</ele>
        <time>2021-03-26T11:55:37Z</time>
      </trkpt>
      <trkpt lat="45.67913" lon="6.84113">
        <ele>2812.1</ele>
        <time>2021-03-26T11:55:38Z</time>
      </trkpt>
      <trkpt lat="45.67913" lon="6.84113">
        <ele>2812.1</ele>
        <time>2021-03-26T11:55:39Z</time>
      </trkpt>
      <trkpt lat="45.67914" lon="6.84112">
        <ele>2812.1</ele>
        <time>2021-03-26T11:55:40Z</time>
      </trkpt>
      <trkpt lat="45.67914" lon="6.84112">
        <ele>2812.1</ele>
        <time>2021-03-26T11:55:41Z</time>
      </trkpt>
      <trkpt lat="45.67914" lon="6.84112">
        <ele>2811.4</ele>
        <time>2021-03-26T11:55:42Z</time>
      </trkpt>
      <trkpt lat="45.67915" lon="6.84112">
        <ele>2811.4</ele>
        <time>2021-03-26T11:55:43Z</time>
      </trkpt>
      <trkpt lat="45.67915" lon="6.84112">
        <ele>2811.4</ele>
        <time>2021-03-26T11:55:44Z</time>
      </trkpt>
      <trkpt lat="45.67915" lon="6.84112">
        <ele>2811.4</ele>
        <time>2021-03-26T11:55:45Z</time>
      </trkpt>
      <trkpt lat="45.67916" lon="6.84112">
        <ele>2811.4</ele>
        <time>2021-03-26T11:55:46Z</time>
      </trkpt>
      <trkpt lat="45.67916" lon="6.84112">
        <ele>2811.4</ele>
        <time>2021-03-26T11:55:47Z</time>
      </trkpt>
      <trkpt lat="45.67916" lon="6.84112">
        <ele>2811.4</ele>
        <time>2021-03-26T11:55:48Z</time>
      </trkpt>
      <trkpt lat="45.67917" lon="6.84112">
        <ele>2811.4</ele>
        <time>2021-03-26T11:55:49Z</time>
      </trkpt>
      <trkpt lat="45.67917" lon="6.84112">
        <ele>2811.4</ele>
        <time>2021-03-26T11:55:50Z</time>
      </trkpt>
      <trkpt lat="45.67917" lon="6.84111">
        <ele>2810.7</ele>
        <time>2021-03-26T11:55:51Z</time>
      </trkpt>
      <trkpt lat="45.67918" lon="6.84111">
        <ele>2810.7</ele>
        <time>2021-03-26T11:55:52Z</time>
      </trkpt>
      <trkpt lat="45.67918" lon="6.8411">
        <ele>2810.7</ele>
        <time>2021-03-26T11:55:53Z</time>
      </trkpt>
      <trkpt lat="45.67918" lon="6.8411">
        <ele>2810.7</ele>
        <time>2021-03-26T11:55:54Z</time>
      </trkpt>
      <trkpt lat="45.67919" lon="6.8411">
        <ele>2810.7</ele>
        <time>2021-03-26T11:55:55Z</time>
      </trkpt>
      <trkpt lat="45.67919" lon="6.8411">
        <ele>2810.7</ele>
        <time>2021-03-26T11:55:56Z</time>
      </trkpt>
      <trkpt lat="45.67919" lon="6.8411">
        <ele>2810.7</ele>
        <time>2021-03-26T11:55:57Z</time>
      </trkpt>
      <trkpt lat="45.67919" lon="6.84109">
        <ele>2810.7</ele>
        <time>2021-03-26T11:55:58Z</time>
      </trkpt>
      <trkpt lat="45.6792" lon="6.84109">
        <ele>2811.1</ele>
        <time>2021-03-26T11:55:59Z</time>
      </trkpt>
      <trkpt lat="45.6792" lon="6.84109">
        <ele>2811.1</ele>
        <time>2021-03-26T11:56:00Z</time>
      </trkpt>
      <trkpt lat="45.6792" lon="6.84108">
        <ele>2810.4</ele>
        <time>2021-03-26T11:56:01Z</time>
      </trkpt>
      <trkpt lat="45.6792" lon="6.84108">
        <ele>2810.4</ele>
        <time>2021-03-26T11:56:02Z</time>
      </trkpt>
      <trkpt lat="45.67921" lon="6.84108">
        <ele>2810.4</ele>
        <time>2021-03-26T11:56:03Z</time>
      </trkpt>
      <trkpt lat="45.67921" lon="6.84107">
        <ele>2810.4</ele>
        <time>2021-03-26T11:56:04Z</time>
      </trkpt>
      <trkpt lat="45.67921" lon="6.84107">
        <ele>2810.4</ele>
        <time>2021-03-26T11:56:05Z</time>
      </trkpt>
      <trkpt lat="45.67922" lon="6.84107">
        <ele>2810.4</ele>
        <time>2021-03-26T11:56:06Z</time>
      </trkpt>
      <trkpt lat="45.67922" lon="6.84107">
        <ele>2810.4</ele>
        <time>2021-03-26T11:56:07Z</time>
      </trkpt>
      <trkpt lat="45.67922" lon="6.84106">
        <ele>2810.4</ele>
        <time>2021-03-26T11:56:08Z</time>
      </trkpt>
      <trkpt lat="45.67923" lon="6.84106">
        <ele>2810.4</ele>
        <time>2021-03-26T11:56:09Z</time>
      </trkpt>
      <trkpt lat="45.67923" lon="6.84105">
        <ele>2810.4</ele>
        <time>2021-03-26T11:56:10Z</time>
      </trkpt>
      <trkpt lat="45.67923" lon="6.84105">
        <ele>2810.1</ele>
        <time>2021-03-26T11:56:11Z</time>
      </trkpt>
      <trkpt lat="45.67923" lon="6.84104">
        <ele>2810.1</ele>
        <time>2021-03-26T11:56:12Z</time>
      </trkpt>
      <trkpt lat="45.67924" lon="6.84104">
        <ele>2810.1</ele>
        <time>2021-03-26T11:56:13Z</time>
      </trkpt>
      <trkpt lat="45.67924" lon="6.84104">
        <ele>2810.1</ele>
        <time>2021-03-26T11:56:14Z</time>
      </trkpt>
      <trkpt lat="45.67924" lon="6.84103">
        <ele>2810.1</ele>
        <time>2021-03-26T11:56:15Z</time>
      </trkpt>
      <trkpt lat="45.67925" lon="6.84103">
        <ele>2810.1</ele>
        <time>2021-03-26T11:56:16Z</time>
      </trkpt>
      <trkpt lat="45.67925" lon="6.84103">
        <ele>2810.1</ele>
        <time>2021-03-26T11:56:17Z</time>
      </trkpt>
      <trkpt lat="45.67925" lon="6.84103">
        <ele>2810.1</ele>
        <time>2021-03-26T11:56:18Z</time>
      </trkpt>
      <trkpt lat="45.67925" lon="6.84102">
        <ele>2810.1</ele>
        <time>2021-03-26T11:56:19Z</time>
      </trkpt>
      <trkpt lat="45.67925" lon="6.84102">
        <ele>2810.1</ele>
        <time>2021-03-26T11:56:20Z</time>
      </trkpt>
      <trkpt lat="45.67925" lon="6.84102">
        <ele>2810.1</ele>
        <time>2021-03-26T11:56:21Z</time>
      </trkpt>
      <trkpt lat="45.67926" lon="6.84092">
        <ele>2810.7</ele>
        <time>2021-03-26T11:57:02Z</time>
      </trkpt>
      <trkpt lat="45.67925" lon="6.84091">
        <ele>2810.7</ele>
        <time>2021-03-26T11:57:03Z</time>
      </trkpt>
      <trkpt lat="45.67925" lon="6.84091">
        <ele>2810.7</ele>
        <time>2021-03-26T11:57:04Z</time>
      </trkpt>
      <trkpt lat="45.67924" lon="6.84091">
        <ele>2810.7</ele>
        <time>2021-03-26T11:57:05Z</time>
      </trkpt>
      <trkpt lat="45.67924" lon="6.84091">
        <ele>2810.7</ele>
        <time>2021-03-26T11:57:06Z</time>
      </trkpt>
      <trkpt lat="45.67924" lon="6.84091">
        <ele>2810.7</ele>
        <time>2021-03-26T11:57:07Z</time>
      </trkpt>
      <trkpt lat="45.67923" lon="6.84091">
        <ele>2810.7</ele>
        <time>2021-03-26T11:57:08Z</time>
      </trkpt>
      <trkpt lat="45.67923" lon="6.84091">
        <ele>2811.4</ele>
        <time>2021-03-26T11:57:09Z</time>
      </trkpt>
      <trkpt lat="45.67923" lon="6.8409">
        <ele>2811.4</ele>
        <time>2021-03-26T11:57:10Z</time>
      </trkpt>
      <trkpt lat="45.67922" lon="6.8409">
        <ele>2811.4</ele>
        <time>2021-03-26T11:57:11Z</time>
      </trkpt>
      <trkpt lat="45.67922" lon="6.8409">
        <ele>2811.4</ele>
        <time>2021-03-26T11:57:12Z</time>
      </trkpt>
      <trkpt lat="45.67922" lon="6.8409">
        <ele>2811.4</ele>
        <time>2021-03-26T11:57:13Z</time>
      </trkpt>
      <trkpt lat="45.67922" lon="6.8409">
        <ele>2811.4</ele>
        <time>2021-03-26T11:57:14Z</time>
      </trkpt>
      <trkpt lat="45.67921" lon="6.84091">
        <ele>2811.4</ele>
        <time>2021-03-26T11:57:15Z</time>
      </trkpt>
      <trkpt lat="45.67921" lon="6.84091">
        <ele>2811.4</ele>
        <time>2021-03-26T11:57:16Z</time>
      </trkpt>
      <trkpt lat="45.6792" lon="6.84091">
        <ele>2811.4</ele>
        <time>2021-03-26T11:57:17Z</time>
      </trkpt>
      <trkpt lat="45.6792" lon="6.84091">
        <ele>2812.2</ele>
        <time>2021-03-26T11:57:18Z</time>
      </trkpt>
      <trkpt lat="45.67919" lon="6.84092">
        <ele>2812.2</ele>
        <time>2021-03-26T11:57:19Z</time>
      </trkpt>
      <trkpt lat="45.67919" lon="6.84092">
        <ele>2812.2</ele>
        <time>2021-03-26T11:57:20Z</time>
      </trkpt>
      <trkpt lat="45.67918" lon="6.84092">
        <ele>2812.2</ele>
        <time>2021-03-26T11:57:21Z</time>
      </trkpt>
      <trkpt lat="45.67918" lon="6.84092">
        <ele>2812.1</ele>
        <time>2021-03-26T11:57:22Z</time>
      </trkpt>
      <trkpt lat="45.67917" lon="6.84093">
        <ele>2812.1</ele>
        <time>2021-03-26T11:57:23Z</time>
      </trkpt>
      <trkpt lat="45.67917" lon="6.84093">
        <ele>2812.9</ele>
        <time>2021-03-26T11:57:24Z</time>
      </trkpt>
      <trkpt lat="45.67916" lon="6.84093">
        <ele>2812.9</ele>
        <time>2021-03-26T11:57:25Z</time>
      </trkpt>
      <trkpt lat="45.67916" lon="6.84092">
        <ele>2812.9</ele>
        <time>2021-03-26T11:57:26Z</time>
      </trkpt>
      <trkpt lat="45.67915" lon="6.84092">
        <ele>2812.9</ele>
        <time>2021-03-26T11:57:27Z</time>
      </trkpt>
      <trkpt lat="45.67915" lon="6.84092">
        <ele>2812.9</ele>
        <time>2021-03-26T11:57:28Z</time>
      </trkpt>
      <trkpt lat="45.67914" lon="6.84092">
        <ele>2813.1</ele>
        <time>2021-03-26T11:57:29Z</time>
      </trkpt>
      <trkpt lat="45.67914" lon="6.84092">
        <ele>2813.8</ele>
        <time>2021-03-26T11:57:30Z</time>
      </trkpt>
      <trkpt lat="45.67913" lon="6.84092">
        <ele>2813.8</ele>
        <time>2021-03-26T11:57:31Z</time>
      </trkpt>
      <trkpt lat="45.67912" lon="6.84092">
        <ele>2813.8</ele>
        <time>2021-03-26T11:57:32Z</time>
      </trkpt>
      <trkpt lat="45.67912" lon="6.84092">
        <ele>2813.8</ele>
        <time>2021-03-26T11:57:33Z</time>
      </trkpt>
      <trkpt lat="45.67911" lon="6.84091">
        <ele>2814.6</ele>
        <time>2021-03-26T11:57:34Z</time>
      </trkpt>
      <trkpt lat="45.6791" lon="6.84092">
        <ele>2814.6</ele>
        <time>2021-03-26T11:57:35Z</time>
      </trkpt>
      <trkpt lat="45.6791" lon="6.84092">
        <ele>2814.6</ele>
        <time>2021-03-26T11:57:36Z</time>
      </trkpt>
      <trkpt lat="45.67909" lon="6.84092">
        <ele>2814.6</ele>
        <time>2021-03-26T11:57:37Z</time>
      </trkpt>
      <trkpt lat="45.67908" lon="6.84091">
        <ele>2814.6</ele>
        <time>2021-03-26T11:57:38Z</time>
      </trkpt>
      <trkpt lat="45.67908" lon="6.84091">
        <ele>2815.3</ele>
        <time>2021-03-26T11:57:39Z</time>
      </trkpt>
      <trkpt lat="45.67907" lon="6.84091">
        <ele>2815.3</ele>
        <time>2021-03-26T11:57:40Z</time>
      </trkpt>
      <trkpt lat="45.67907" lon="6.84091">
        <ele>2815.3</ele>
        <time>2021-03-26T11:57:41Z</time>
      </trkpt>
      <trkpt lat="45.67906" lon="6.84091">
        <ele>2815.3</ele>
        <time>2021-03-26T11:57:42Z</time>
      </trkpt>
      <trkpt lat="45.67906" lon="6.84091">
        <ele>2815.3</ele>
        <time>2021-03-26T11:57:43Z</time>
      </trkpt>
      <trkpt lat="45.67905" lon="6.84091">
        <ele>2815.3</ele>
        <time>2021-03-26T11:57:44Z</time>
      </trkpt>
      <trkpt lat="45.67905" lon="6.8409">
        <ele>2816</ele>
        <time>2021-03-26T11:57:45Z</time>
      </trkpt>
      <trkpt lat="45.67904" lon="6.8409">
        <ele>2816</ele>
        <time>2021-03-26T11:57:46Z</time>
      </trkpt>
      <trkpt lat="45.67904" lon="6.84089">
        <ele>2816</ele>
        <time>2021-03-26T11:57:47Z</time>
      </trkpt>
      <trkpt lat="45.67903" lon="6.84089">
        <ele>2816</ele>
        <time>2021-03-26T11:57:48Z</time>
      </trkpt>
      <trkpt lat="45.67883" lon="6.84078">
        <ele>2821.7</ele>
        <time>2021-03-26T11:59:30Z</time>
      </trkpt>
      <trkpt lat="45.67883" lon="6.84078">
        <ele>2821.7</ele>
        <time>2021-03-26T11:59:31Z</time>
      </trkpt>
      <trkpt lat="45.67884" lon="6.84077">
        <ele>2821.7</ele>
        <time>2021-03-26T11:59:32Z</time>
      </trkpt>
      <trkpt lat="45.67884" lon="6.84076">
        <ele>2821.7</ele>
        <time>2021-03-26T11:59:33Z</time>
      </trkpt>
      <trkpt lat="45.67884" lon="6.84075">
        <ele>2821.7</ele>
        <time>2021-03-26T11:59:34Z</time>
      </trkpt>
      <trkpt lat="45.67884" lon="6.84074">
        <ele>2821.8</ele>
        <time>2021-03-26T11:59:35Z</time>
      </trkpt>
      <trkpt lat="45.67884" lon="6.84073">
        <ele>2821.1</ele>
        <time>2021-03-26T11:59:36Z</time>
      </trkpt>
      <trkpt lat="45.67884" lon="6.84072">
        <ele>2821.1</ele>
        <time>2021-03-26T11:59:37Z</time>
      </trkpt>
      <trkpt lat="45.67885" lon="6.84072">
        <ele>2821.1</ele>
        <time>2021-03-26T11:59:38Z</time>
      </trkpt>
      <trkpt lat="45.67885" lon="6.84071">
        <ele>2821.1</ele>
        <time>2021-03-26T11:59:39Z</time>
      </trkpt>
      <trkpt lat="45.67885" lon="6.8407">
        <ele>2821.1</ele>
        <time>2021-03-26T11:59:40Z</time>
      </trkpt>
      <trkpt lat="45.67886" lon="6.84069">
        <ele>2821.1</ele>
        <time>2021-03-26T11:59:41Z</time>
      </trkpt>
      <trkpt lat="45.67886" lon="6.84069">
        <ele>2821.1</ele>
        <time>2021-03-26T11:59:42Z</time>
      </trkpt>
      <trkpt lat="45.67886" lon="6.84069">
        <ele>2821.1</ele>
        <time>2021-03-26T11:59:43Z</time>
      </trkpt>
      <trkpt lat="45.67886" lon="6.84069">
        <ele>2821.1</ele>
        <time>2021-03-26T11:59:44Z</time>
      </trkpt>
      <trkpt lat="45.67886" lon="6.84069">
        <ele>2821.1</ele>
        <time>2021-03-26T11:59:45Z</time>
      </trkpt>
      <trkpt lat="45.67886" lon="6.84069">
        <ele>2821.1</ele>
        <time>2021-03-26T11:59:46Z</time>
      </trkpt>
      <trkpt lat="45.67886" lon="6.84069">
        <ele>2821.1</ele>
        <time>2021-03-26T11:59:47Z</time>
      </trkpt>
      <trkpt lat="45.67886" lon="6.84069">
        <ele>2821.1</ele>
        <time>2021-03-26T11:59:48Z</time>
      </trkpt>
      <trkpt lat="45.67886" lon="6.84069">
        <ele>2821.1</ele>
        <time>2021-03-26T11:59:49Z</time>
      </trkpt>
      <trkpt lat="45.67886" lon="6.84069">
        <ele>2821.1</ele>
        <time>2021-03-26T11:59:50Z</time>
      </trkpt>
      <trkpt lat="45.67885" lon="6.84072">
        <ele>2821.1</ele>
        <time>2021-03-26T12:00:07Z</time>
      </trkpt>
      <trkpt lat="45.67885" lon="6.84072">
        <ele>2821.1</ele>
        <time>2021-03-26T12:00:08Z</time>
      </trkpt>
      <trkpt lat="45.67884" lon="6.84073">
        <ele>2821.1</ele>
        <time>2021-03-26T12:00:09Z</time>
      </trkpt>
      <trkpt lat="45.67884" lon="6.84073">
        <ele>2821.1</ele>
        <time>2021-03-26T12:00:10Z</time>
      </trkpt>
      <trkpt lat="45.67884" lon="6.84073">
        <ele>2821.1</ele>
        <time>2021-03-26T12:00:11Z</time>
      </trkpt>
      <trkpt lat="45.67884" lon="6.84073">
        <ele>2821.8</ele>
        <time>2021-03-26T12:00:12Z</time>
      </trkpt>
      <trkpt lat="45.67884" lon="6.84074">
        <ele>2821.8</ele>
        <time>2021-03-26T12:00:13Z</time>
      </trkpt>
      <trkpt lat="45.67884" lon="6.84074">
        <ele>2821.8</ele>
        <time>2021-03-26T12:00:14Z</time>
      </trkpt>
      <trkpt lat="45.67884" lon="6.84074">
        <ele>2821.8</ele>
        <time>2021-03-26T12:00:15Z</time>
      </trkpt>
      <trkpt lat="45.67884" lon="6.84074">
        <ele>2821.1</ele>
        <time>2021-03-26T12:00:16Z</time>
      </trkpt>
      <trkpt lat="45.67885" lon="6.84073">
        <ele>2821.1</ele>
        <time>2021-03-26T12:00:17Z</time>
      </trkpt>
      <trkpt lat="45.67885" lon="6.84073">
        <ele>2821.1</ele>
        <time>2021-03-26T12:00:18Z</time>
      </trkpt>
      <trkpt lat="45.6788" lon="6.84054">
        <ele>2822.1</ele>
        <time>2021-03-26T12:01:05Z</time>
      </trkpt>
      <trkpt lat="45.67879" lon="6.84055">
        <ele>2822.1</ele>
        <time>2021-03-26T12:01:06Z</time>
      </trkpt>
      <trkpt lat="45.67878" lon="6.84056">
        <ele>2822.1</ele>
        <time>2021-03-26T12:01:07Z</time>
      </trkpt>
      <trkpt lat="45.67878" lon="6.84056">
        <ele>2822.8</ele>
        <time>2021-03-26T12:01:08Z</time>
      </trkpt>
      <trkpt lat="45.67877" lon="6.84057">
        <ele>2822.8</ele>
        <time>2021-03-26T12:01:09Z</time>
      </trkpt>
      <trkpt lat="45.67877" lon="6.84057">
        <ele>2822.8</ele>
        <time>2021-03-26T12:01:10Z</time>
      </trkpt>
      <trkpt lat="45.67876" lon="6.84058">
        <ele>2823</ele>
        <time>2021-03-26T12:01:11Z</time>
      </trkpt>
      <trkpt lat="45.67876" lon="6.84059">
        <ele>2823</ele>
        <time>2021-03-26T12:01:12Z</time>
      </trkpt>
      <trkpt lat="45.67875" lon="6.8406">
        <ele>2823.5</ele>
        <time>2021-03-26T12:01:13Z</time>
      </trkpt>
      <trkpt lat="45.67875" lon="6.8406">
        <ele>2823.5</ele>
        <time>2021-03-26T12:01:14Z</time>
      </trkpt>
      <trkpt lat="45.67875" lon="6.8406">
        <ele>2823.5</ele>
        <time>2021-03-26T12:01:15Z</time>
      </trkpt>
      <trkpt lat="45.67874" lon="6.8406">
        <ele>2823.5</ele>
        <time>2021-03-26T12:01:16Z</time>
      </trkpt>
      <trkpt lat="45.67874" lon="6.84061">
        <ele>2823.5</ele>
        <time>2021-03-26T12:01:17Z</time>
      </trkpt>
      <trkpt lat="45.67873" lon="6.84061">
        <ele>2823.5</ele>
        <time>2021-03-26T12:01:18Z</time>
      </trkpt>
      <trkpt lat="45.67872" lon="6.84061">
        <ele>2823.5</ele>
        <time>2021-03-26T12:01:19Z</time>
      </trkpt>
      <trkpt lat="45.67872" lon="6.84062">
        <ele>2823.5</ele>
        <time>2021-03-26T12:01:20Z</time>
      </trkpt>
      <trkpt lat="45.67872" lon="6.84062">
        <ele>2823.5</ele>
        <time>2021-03-26T12:01:21Z</time>
      </trkpt>
      <trkpt lat="45.67872" lon="6.84062">
        <ele>2824</ele>
        <time>2021-03-26T12:01:22Z</time>
      </trkpt>
      <trkpt lat="45.67871" lon="6.84062">
        <ele>2824</ele>
        <time>2021-03-26T12:01:23Z</time>
      </trkpt>
      <trkpt lat="45.67871" lon="6.84062">
        <ele>2824.1</ele>
        <time>2021-03-26T12:01:24Z</time>
      </trkpt>
      <trkpt lat="45.6787" lon="6.84062">
        <ele>2824.1</ele>
        <time>2021-03-26T12:01:25Z</time>
      </trkpt>
      <trkpt lat="45.6787" lon="6.84062">
        <ele>2824.1</ele>
        <time>2021-03-26T12:01:26Z</time>
      </trkpt>
      <trkpt lat="45.6787" lon="6.84062">
        <ele>2824.1</ele>
        <time>2021-03-26T12:01:27Z</time>
      </trkpt>
      <trkpt lat="45.67869" lon="6.84062">
        <ele>2824</ele>
        <time>2021-03-26T12:01:28Z</time>
      </trkpt>
      <trkpt lat="45.67868" lon="6.84062">
        <ele>2824.5</ele>
        <time>2021-03-26T12:01:29Z</time>
      </trkpt>
      <trkpt lat="45.67867" lon="6.84062">
        <ele>2824.5</ele>
        <time>2021-03-26T12:01:32Z</time>
      </trkpt>
      <trkpt lat="45.67866" lon="6.84061">
        <ele>2825</ele>
        <time>2021-03-26T12:01:33Z</time>
      </trkpt>
      <trkpt lat="45.67865" lon="6.84061">
        <ele>2825</ele>
        <time>2021-03-26T12:01:34Z</time>
      </trkpt>
      <trkpt lat="45.67865" lon="6.84061">
        <ele>2825</ele>
        <time>2021-03-26T12:01:35Z</time>
      </trkpt>
      <trkpt lat="45.67864" lon="6.84061">
        <ele>2825</ele>
        <time>2021-03-26T12:01:36Z</time>
      </trkpt>
      <trkpt lat="45.67864" lon="6.84061">
        <ele>2825</ele>
        <time>2021-03-26T12:01:37Z</time>
      </trkpt>
      <trkpt lat="45.67863" lon="6.84061">
        <ele>2825</ele>
        <time>2021-03-26T12:01:38Z</time>
      </trkpt>
      <trkpt lat="45.67863" lon="6.84061">
        <ele>2825</ele>
        <time>2021-03-26T12:01:39Z</time>
      </trkpt>
      <trkpt lat="45.67863" lon="6.84061">
        <ele>2825.5</ele>
        <time>2021-03-26T12:01:40Z</time>
      </trkpt>
      <trkpt lat="45.67863" lon="6.84061">
        <ele>2825.5</ele>
        <time>2021-03-26T12:01:41Z</time>
      </trkpt>
      <trkpt lat="45.67863" lon="6.84062">
        <ele>2825.5</ele>
        <time>2021-03-26T12:01:42Z</time>
      </trkpt>
      <trkpt lat="45.67862" lon="6.84062">
        <ele>2825.5</ele>
        <time>2021-03-26T12:01:43Z</time>
      </trkpt>
      <trkpt lat="45.67862" lon="6.84062">
        <ele>2825.6</ele>
        <time>2021-03-26T12:01:44Z</time>
      </trkpt>
      <trkpt lat="45.67862" lon="6.84063">
        <ele>2825.6</ele>
        <time>2021-03-26T12:01:45Z</time>
      </trkpt>
      <trkpt lat="45.67862" lon="6.84063">
        <ele>2825.6</ele>
        <time>2021-03-26T12:01:46Z</time>
      </trkpt>
      <trkpt lat="45.67862" lon="6.84063">
        <ele>2825.6</ele>
        <time>2021-03-26T12:01:47Z</time>
      </trkpt>
      <trkpt lat="45.67856" lon="6.84059">
        <ele>2826.3</ele>
        <time>2021-03-26T12:02:05Z</time>
      </trkpt>
      <trkpt lat="45.67855" lon="6.84058">
        <ele>2826.3</ele>
        <time>2021-03-26T12:02:06Z</time>
      </trkpt>
      <trkpt lat="45.67855" lon="6.84058">
        <ele>2826.3</ele>
        <time>2021-03-26T12:02:07Z</time>
      </trkpt>
      <trkpt lat="45.67854" lon="6.84058">
        <ele>2826.5</ele>
        <time>2021-03-26T12:02:08Z</time>
      </trkpt>
      <trkpt lat="45.67853" lon="6.84057">
        <ele>2826.5</ele>
        <time>2021-03-26T12:02:09Z</time>
      </trkpt>
      <trkpt lat="45.67853" lon="6.84057">
        <ele>2826.5</ele>
        <time>2021-03-26T12:02:10Z</time>
      </trkpt>
      <trkpt lat="45.67852" lon="6.84057">
        <ele>2826.5</ele>
        <time>2021-03-26T12:02:11Z</time>
      </trkpt>
      <trkpt lat="45.67851" lon="6.84056">
        <ele>2826.5</ele>
        <time>2021-03-26T12:02:12Z</time>
      </trkpt>
      <trkpt lat="45.67851" lon="6.84056">
        <ele>2826.8</ele>
        <time>2021-03-26T12:02:13Z</time>
      </trkpt>
      <trkpt lat="45.6785" lon="6.84056">
        <ele>2826.8</ele>
        <time>2021-03-26T12:02:14Z</time>
      </trkpt>
      <trkpt lat="45.6785" lon="6.84055">
        <ele>2826.8</ele>
        <time>2021-03-26T12:02:15Z</time>
      </trkpt>
      <trkpt lat="45.67849" lon="6.84055">
        <ele>2826.8</ele>
        <time>2021-03-26T12:02:16Z</time>
      </trkpt>
      <trkpt lat="45.67849" lon="6.84054">
        <ele>2826.8</ele>
        <time>2021-03-26T12:02:17Z</time>
      </trkpt>
      <trkpt lat="45.67848" lon="6.84054">
        <ele>2826.8</ele>
        <time>2021-03-26T12:02:18Z</time>
      </trkpt>
      <trkpt lat="45.67848" lon="6.84054">
        <ele>2827</ele>
        <time>2021-03-26T12:02:19Z</time>
      </trkpt>
      <trkpt lat="45.67847" lon="6.84054">
        <ele>2827</ele>
        <time>2021-03-26T12:02:20Z</time>
      </trkpt>
      <trkpt lat="45.67846" lon="6.84054">
        <ele>2827</ele>
        <time>2021-03-26T12:02:21Z</time>
      </trkpt>
      <trkpt lat="45.67846" lon="6.84054">
        <ele>2827</ele>
        <time>2021-03-26T12:02:22Z</time>
      </trkpt>
      <trkpt lat="45.67845" lon="6.84054">
        <ele>2827</ele>
        <time>2021-03-26T12:02:23Z</time>
      </trkpt>
      <trkpt lat="45.67844" lon="6.84054">
        <ele>2827.2</ele>
        <time>2021-03-26T12:02:24Z</time>
      </trkpt>
      <trkpt lat="45.67844" lon="6.84054">
        <ele>2827.2</ele>
        <time>2021-03-26T12:02:25Z</time>
      </trkpt>
      <trkpt lat="45.67843" lon="6.84055">
        <ele>2827.2</ele>
        <time>2021-03-26T12:02:26Z</time>
      </trkpt>
      <trkpt lat="45.67843" lon="6.84055">
        <ele>2827.2</ele>
        <time>2021-03-26T12:02:27Z</time>
      </trkpt>
      <trkpt lat="45.67842" lon="6.84055">
        <ele>2827.2</ele>
        <time>2021-03-26T12:02:28Z</time>
      </trkpt>
      <trkpt lat="45.67842" lon="6.84055">
        <ele>2827.2</ele>
        <time>2021-03-26T12:02:29Z</time>
      </trkpt>
      <trkpt lat="45.67842" lon="6.84055">
        <ele>2827.2</ele>
        <time>2021-03-26T12:02:30Z</time>
      </trkpt>
      <trkpt lat="45.67842" lon="6.84055">
        <ele>2827.2</ele>
        <time>2021-03-26T12:02:31Z</time>
      </trkpt>
      <trkpt lat="45.67842" lon="6.84055">
        <ele>2827.2</ele>
        <time>2021-03-26T12:02:32Z</time>
      </trkpt>
      <trkpt lat="45.67842" lon="6.84055">
        <ele>2827.2</ele>
        <time>2021-03-26T12:02:33Z</time>
      </trkpt>
      <trkpt lat="45.67842" lon="6.84055">
        <ele>2827.2</ele>
        <time>2021-03-26T12:02:34Z</time>
      </trkpt>
      <trkpt lat="45.67842" lon="6.84055">
        <ele>2827.2</ele>
        <time>2021-03-26T12:02:35Z</time>
      </trkpt>
      <trkpt lat="45.67842" lon="6.84055">
        <ele>2827.2</ele>
        <time>2021-03-26T12:02:36Z</time>
      </trkpt>
      <trkpt lat="45.67845" lon="6.84043">
        <ele>2826.3</ele>
        <time>2021-03-26T12:02:57Z</time>
      </trkpt>
      <trkpt lat="45.67845" lon="6.84043">
        <ele>2826.3</ele>
        <time>2021-03-26T12:02:58Z</time>
      </trkpt>
      <trkpt lat="45.67846" lon="6.84042">
        <ele>2826.3</ele>
        <time>2021-03-26T12:02:59Z</time>
      </trkpt>
      <trkpt lat="45.67846" lon="6.84042">
        <ele>2826.3</ele>
        <time>2021-03-26T12:03:00Z</time>
      </trkpt>
      <trkpt lat="45.67846" lon="6.84042">
        <ele>2826.3</ele>
        <time>2021-03-26T12:03:01Z</time>
      </trkpt>
      <trkpt lat="45.67846" lon="6.84042">
        <ele>2826.3</ele>
        <time>2021-03-26T12:03:02Z</time>
      </trkpt>
      <trkpt lat="45.67846" lon="6.84042">
        <ele>2826.3</ele>
        <time>2021-03-26T12:03:03Z</time>
      </trkpt>
      <trkpt lat="45.67846" lon="6.84042">
        <ele>2826.3</ele>
        <time>2021-03-26T12:03:04Z</time>
      </trkpt>
      <trkpt lat="45.67846" lon="6.84042">
        <ele>2826.3</ele>
        <time>2021-03-26T12:03:05Z</time>
      </trkpt>
      <trkpt lat="45.67846" lon="6.84042">
        <ele>2826.3</ele>
        <time>2021-03-26T12:03:06Z</time>
      </trkpt>
      <trkpt lat="45.67841" lon="6.84038">
        <ele>2826.5</ele>
        <time>2021-03-26T12:03:28Z</time>
      </trkpt>
      <trkpt lat="45.6784" lon="6.84038">
        <ele>2826.5</ele>
        <time>2021-03-26T12:03:29Z</time>
      </trkpt>
      <trkpt lat="45.6784" lon="6.84039">
        <ele>2826.5</ele>
        <time>2021-03-26T12:03:30Z</time>
      </trkpt>
      <trkpt lat="45.6784" lon="6.84039">
        <ele>2826.5</ele>
        <time>2021-03-26T12:03:31Z</time>
      </trkpt>
      <trkpt lat="45.67839" lon="6.8404">
        <ele>2826.8</ele>
        <time>2021-03-26T12:03:32Z</time>
      </trkpt>
      <trkpt lat="45.67839" lon="6.8404">
        <ele>2826.8</ele>
        <time>2021-03-26T12:03:33Z</time>
      </trkpt>
      <trkpt lat="45.67838" lon="6.84041">
        <ele>2827</ele>
        <time>2021-03-26T12:03:34Z</time>
      </trkpt>
      <trkpt lat="45.67838" lon="6.84041">
        <ele>2827</ele>
        <time>2021-03-26T12:03:35Z</time>
      </trkpt>
      <trkpt lat="45.67838" lon="6.84041">
        <ele>2827</ele>
        <time>2021-03-26T12:03:36Z</time>
      </trkpt>
      <trkpt lat="45.67838" lon="6.84041">
        <ele>2827</ele>
        <time>2021-03-26T12:03:37Z</time>
      </trkpt>
      <trkpt lat="45.67838" lon="6.84042">
        <ele>2827</ele>
        <time>2021-03-26T12:03:38Z</time>
      </trkpt>
      <trkpt lat="45.67838" lon="6.84041">
        <ele>2827</ele>
        <time>2021-03-26T12:03:39Z</time>
      </trkpt>
      <trkpt lat="45.67838" lon="6.84042">
        <ele>2827</ele>
        <time>2021-03-26T12:03:40Z</time>
      </trkpt>
      <trkpt lat="45.67838" lon="6.84042">
        <ele>2827</ele>
        <time>2021-03-26T12:03:41Z</time>
      </trkpt>
      <trkpt lat="45.67838" lon="6.84043">
        <ele>2827</ele>
        <time>2021-03-26T12:03:42Z</time>
      </trkpt>
      <trkpt lat="45.67837" lon="6.84038">
        <ele>2826.8</ele>
        <time>2021-03-26T12:03:54Z</time>
      </trkpt>
      <trkpt lat="45.67837" lon="6.84037">
        <ele>2826.8</ele>
        <time>2021-03-26T12:03:55Z</time>
      </trkpt>
      <trkpt lat="45.67837" lon="6.84036">
        <ele>2826.8</ele>
        <time>2021-03-26T12:03:56Z</time>
      </trkpt>
      <trkpt lat="45.67837" lon="6.84036">
        <ele>2826.5</ele>
        <time>2021-03-26T12:03:57Z</time>
      </trkpt>
      <trkpt lat="45.67837" lon="6.84035">
        <ele>2826.5</ele>
        <time>2021-03-26T12:03:58Z</time>
      </trkpt>
      <trkpt lat="45.67837" lon="6.84035">
        <ele>2826.5</ele>
        <time>2021-03-26T12:03:59Z</time>
      </trkpt>
      <trkpt lat="45.67837" lon="6.84034">
        <ele>2826.5</ele>
        <time>2021-03-26T12:04:00Z</time>
      </trkpt>
      <trkpt lat="45.67837" lon="6.84033">
        <ele>2826.5</ele>
        <time>2021-03-26T12:04:01Z</time>
      </trkpt>
      <trkpt lat="45.67837" lon="6.84032">
        <ele>2826.5</ele>
        <time>2021-03-26T12:04:02Z</time>
      </trkpt>
      <trkpt lat="45.67837" lon="6.84031">
        <ele>2826.3</ele>
        <time>2021-03-26T12:04:03Z</time>
      </trkpt>
      <trkpt lat="45.67837" lon="6.8403">
        <ele>2826.3</ele>
        <time>2021-03-26T12:04:04Z</time>
      </trkpt>
      <trkpt lat="45.67837" lon="6.8403">
        <ele>2826.3</ele>
        <time>2021-03-26T12:04:05Z</time>
      </trkpt>
      <trkpt lat="45.67837" lon="6.84029">
        <ele>2826.3</ele>
        <time>2021-03-26T12:04:06Z</time>
      </trkpt>
      <trkpt lat="45.67837" lon="6.84028">
        <ele>2826.3</ele>
        <time>2021-03-26T12:04:07Z</time>
      </trkpt>
      <trkpt lat="45.67837" lon="6.84026">
        <ele>2826.1</ele>
        <time>2021-03-26T12:04:10Z</time>
      </trkpt>
      <trkpt lat="45.67837" lon="6.84025">
        <ele>2826.1</ele>
        <time>2021-03-26T12:04:11Z</time>
      </trkpt>
      <trkpt lat="45.67837" lon="6.84025">
        <ele>2826.1</ele>
        <time>2021-03-26T12:04:12Z</time>
      </trkpt>
      <trkpt lat="45.67837" lon="6.84024">
        <ele>2826.1</ele>
        <time>2021-03-26T12:04:13Z</time>
      </trkpt>
      <trkpt lat="45.67837" lon="6.84023">
        <ele>2826.1</ele>
        <time>2021-03-26T12:04:14Z</time>
      </trkpt>
      <trkpt lat="45.67837" lon="6.84023">
        <ele>2825.8</ele>
        <time>2021-03-26T12:04:15Z</time>
      </trkpt>
      <trkpt lat="45.67837" lon="6.84022">
        <ele>2825.8</ele>
        <time>2021-03-26T12:04:16Z</time>
      </trkpt>
      <trkpt lat="45.67837" lon="6.84022">
        <ele>2825.8</ele>
        <time>2021-03-26T12:04:17Z</time>
      </trkpt>
      <trkpt lat="45.67837" lon="6.84021">
        <ele>2825.8</ele>
        <time>2021-03-26T12:04:18Z</time>
      </trkpt>
      <trkpt lat="45.67837" lon="6.84021">
        <ele>2825.8</ele>
        <time>2021-03-26T12:04:19Z</time>
      </trkpt>
      <trkpt lat="45.67837" lon="6.8402">
        <ele>2825.8</ele>
        <time>2021-03-26T12:04:20Z</time>
      </trkpt>
      <trkpt lat="45.67837" lon="6.84019">
        <ele>2825.8</ele>
        <time>2021-03-26T12:04:21Z</time>
      </trkpt>
      <trkpt lat="45.67837" lon="6.84019">
        <ele>2825.8</ele>
        <time>2021-03-26T12:04:22Z</time>
      </trkpt>
      <trkpt lat="45.67837" lon="6.84018">
        <ele>2825.5</ele>
        <time>2021-03-26T12:04:23Z</time>
      </trkpt>
      <trkpt lat="45.67837" lon="6.84018">
        <ele>2825.5</ele>
        <time>2021-03-26T12:04:24Z</time>
      </trkpt>
      <trkpt lat="45.67837" lon="6.84017">
        <ele>2825.5</ele>
        <time>2021-03-26T12:04:25Z</time>
      </trkpt>
      <trkpt lat="45.67837" lon="6.84016">
        <ele>2825.5</ele>
        <time>2021-03-26T12:04:26Z</time>
      </trkpt>
      <trkpt lat="45.67836" lon="6.84016">
        <ele>2825.5</ele>
        <time>2021-03-26T12:04:27Z</time>
      </trkpt>
      <trkpt lat="45.67836" lon="6.84015">
        <ele>2825.5</ele>
        <time>2021-03-26T12:04:28Z</time>
      </trkpt>
      <trkpt lat="45.67836" lon="6.84015">
        <ele>2825.5</ele>
        <time>2021-03-26T12:04:29Z</time>
      </trkpt>
      <trkpt lat="45.67836" lon="6.84014">
        <ele>2825.1</ele>
        <time>2021-03-26T12:04:30Z</time>
      </trkpt>
      <trkpt lat="45.67836" lon="6.84014">
        <ele>2825.1</ele>
        <time>2021-03-26T12:04:31Z</time>
      </trkpt>
      <trkpt lat="45.67836" lon="6.84013">
        <ele>2825.1</ele>
        <time>2021-03-26T12:04:32Z</time>
      </trkpt>
      <trkpt lat="45.67836" lon="6.84013">
        <ele>2825.1</ele>
        <time>2021-03-26T12:04:33Z</time>
      </trkpt>
      <trkpt lat="45.67836" lon="6.84013">
        <ele>2825.1</ele>
        <time>2021-03-26T12:04:34Z</time>
      </trkpt>
      <trkpt lat="45.67836" lon="6.84013">
        <ele>2825.1</ele>
        <time>2021-03-26T12:04:35Z</time>
      </trkpt>
      <trkpt lat="45.67835" lon="6.84015">
        <ele>2825.8</ele>
        <time>2021-03-26T12:23:04Z</time>
      </trkpt>
      <trkpt lat="45.67835" lon="6.84016">
        <ele>2825.8</ele>
        <time>2021-03-26T12:23:05Z</time>
      </trkpt>
      <trkpt lat="45.67835" lon="6.84016">
        <ele>2825.8</ele>
        <time>2021-03-26T12:23:06Z</time>
      </trkpt>
      <trkpt lat="45.67835" lon="6.84016">
        <ele>2825.8</ele>
        <time>2021-03-26T12:23:07Z</time>
      </trkpt>
      <trkpt lat="45.67835" lon="6.84016">
        <ele>2825.8</ele>
        <time>2021-03-26T12:23:08Z</time>
      </trkpt>
      <trkpt lat="45.67835" lon="6.84016">
        <ele>2825.8</ele>
        <time>2021-03-26T12:23:09Z</time>
      </trkpt>
      <trkpt lat="45.67835" lon="6.84016">
        <ele>2825.8</ele>
        <time>2021-03-26T12:23:10Z</time>
      </trkpt>
      <trkpt lat="45.67835" lon="6.84016">
        <ele>2825.8</ele>
        <time>2021-03-26T12:23:11Z</time>
      </trkpt>
      <trkpt lat="45.67835" lon="6.84016">
        <ele>2825.8</ele>
        <time>2021-03-26T12:23:12Z</time>
      </trkpt>
      <trkpt lat="45.67835" lon="6.84016">
        <ele>2825.8</ele>
        <time>2021-03-26T12:23:13Z</time>
      </trkpt>
      <trkpt lat="45.67835" lon="6.84016">
        <ele>2825.8</ele>
        <time>2021-03-26T12:23:14Z</time>
      </trkpt>
      <trkpt lat="45.67832" lon="6.84022">
        <ele>2826.4</ele>
        <time>2021-03-26T12:27:11Z</time>
      </trkpt>
      <trkpt lat="45.67832" lon="6.84023">
        <ele>2826.4</ele>
        <time>2021-03-26T12:27:12Z</time>
      </trkpt>
      <trkpt lat="45.67832" lon="6.84023">
        <ele>2826.4</ele>
        <time>2021-03-26T12:27:13Z</time>
      </trkpt>
      <trkpt lat="45.67832" lon="6.84024">
        <ele>2826.6</ele>
        <time>2021-03-26T12:27:14Z</time>
      </trkpt>
      <trkpt lat="45.67832" lon="6.84026">
        <ele>2826.6</ele>
        <time>2021-03-26T12:27:15Z</time>
      </trkpt>
      <trkpt lat="45.67832" lon="6.84028">
        <ele>2826.6</ele>
        <time>2021-03-26T12:27:16Z</time>
      </trkpt>
      <trkpt lat="45.67832" lon="6.84028">
        <ele>2826.6</ele>
        <time>2021-03-26T12:27:17Z</time>
      </trkpt>
      <trkpt lat="45.67832" lon="6.84028">
        <ele>2826.8</ele>
        <time>2021-03-26T12:27:18Z</time>
      </trkpt>
      <trkpt lat="45.67832" lon="6.84029">
        <ele>2826.8</ele>
        <time>2021-03-26T12:27:19Z</time>
      </trkpt>
      <trkpt lat="45.67832" lon="6.84029">
        <ele>2826.8</ele>
        <time>2021-03-26T12:27:20Z</time>
      </trkpt>
      <trkpt lat="45.67832" lon="6.84031">
        <ele>2826.8</ele>
        <time>2021-03-26T12:27:21Z</time>
      </trkpt>
      <trkpt lat="45.67832" lon="6.84036">
        <ele>2827.2</ele>
        <time>2021-03-26T12:27:22Z</time>
      </trkpt>
      <trkpt lat="45.67832" lon="6.84039">
        <ele>2827.2</ele>
        <time>2021-03-26T12:27:23Z</time>
      </trkpt>
      <trkpt lat="45.67831" lon="6.84042">
        <ele>2827.4</ele>
        <time>2021-03-26T12:27:24Z</time>
      </trkpt>
      <trkpt lat="45.6783" lon="6.84044">
        <ele>2827.6</ele>
        <time>2021-03-26T12:27:25Z</time>
      </trkpt>
      <trkpt lat="45.67829" lon="6.84044">
        <ele>2827.6</ele>
        <time>2021-03-26T12:27:26Z</time>
      </trkpt>
      <trkpt lat="45.67828" lon="6.84044">
        <ele>2827.6</ele>
        <time>2021-03-26T12:27:27Z</time>
      </trkpt>
      <trkpt lat="45.67828" lon="6.84044">
        <ele>2827.6</ele>
        <time>2021-03-26T12:27:28Z</time>
      </trkpt>
      <trkpt lat="45.67827" lon="6.84043">
        <ele>2827.6</ele>
        <time>2021-03-26T12:27:29Z</time>
      </trkpt>
      <trkpt lat="45.67827" lon="6.84043">
        <ele>2827.6</ele>
        <time>2021-03-26T12:27:30Z</time>
      </trkpt>
      <trkpt lat="45.67827" lon="6.84043">
        <ele>2827.7</ele>
        <time>2021-03-26T12:27:31Z</time>
      </trkpt>
      <trkpt lat="45.67827" lon="6.84042">
        <ele>2827.7</ele>
        <time>2021-03-26T12:27:32Z</time>
      </trkpt>
      <trkpt lat="45.67826" lon="6.84042">
        <ele>2827.7</ele>
        <time>2021-03-26T12:27:33Z</time>
      </trkpt>
      <trkpt lat="45.67826" lon="6.84042">
        <ele>2827.7</ele>
        <time>2021-03-26T12:27:34Z</time>
      </trkpt>
      <trkpt lat="45.67826" lon="6.84041">
        <ele>2827.7</ele>
        <time>2021-03-26T12:27:35Z</time>
      </trkpt>
      <trkpt lat="45.67825" lon="6.84041">
        <ele>2827.7</ele>
        <time>2021-03-26T12:27:36Z</time>
      </trkpt>
      <trkpt lat="45.67825" lon="6.84041">
        <ele>2827.7</ele>
        <time>2021-03-26T12:27:37Z</time>
      </trkpt>
      <trkpt lat="45.67825" lon="6.8404">
        <ele>2827.5</ele>
        <time>2021-03-26T12:28:15Z</time>
      </trkpt>
      <trkpt lat="45.67824" lon="6.8404">
        <ele>2827.5</ele>
        <time>2021-03-26T12:28:16Z</time>
      </trkpt>
      <trkpt lat="45.67824" lon="6.8404">
        <ele>2827.6</ele>
        <time>2021-03-26T12:28:17Z</time>
      </trkpt>
      <trkpt lat="45.67824" lon="6.8404">
        <ele>2827.6</ele>
        <time>2021-03-26T12:28:18Z</time>
      </trkpt>
      <trkpt lat="45.67823" lon="6.84039">
        <ele>2827.6</ele>
        <time>2021-03-26T12:28:19Z</time>
      </trkpt>
      <trkpt lat="45.67823" lon="6.84039">
        <ele>2827.6</ele>
        <time>2021-03-26T12:28:20Z</time>
      </trkpt>
      <trkpt lat="45.67823" lon="6.84039">
        <ele>2827.6</ele>
        <time>2021-03-26T12:28:21Z</time>
      </trkpt>
      <trkpt lat="45.67823" lon="6.84038">
        <ele>2827.6</ele>
        <time>2021-03-26T12:28:22Z</time>
      </trkpt>
      <trkpt lat="45.67822" lon="6.84038">
        <ele>2827.6</ele>
        <time>2021-03-26T12:28:23Z</time>
      </trkpt>
      <trkpt lat="45.67821" lon="6.8404">
        <ele>2827.7</ele>
        <time>2021-03-26T12:28:24Z</time>
      </trkpt>
      <trkpt lat="45.6782" lon="6.84042">
        <ele>2827.9</ele>
        <time>2021-03-26T12:28:25Z</time>
      </trkpt>
      <trkpt lat="45.6782" lon="6.84044">
        <ele>2827.9</ele>
        <time>2021-03-26T12:28:26Z</time>
      </trkpt>
      <trkpt lat="45.6782" lon="6.84045">
        <ele>2828</ele>
        <time>2021-03-26T12:28:27Z</time>
      </trkpt>
      <trkpt lat="45.6782" lon="6.84047">
        <ele>2828</ele>
        <time>2021-03-26T12:28:28Z</time>
      </trkpt>
      <trkpt lat="45.6782" lon="6.84048">
        <ele>2828</ele>
        <time>2021-03-26T12:28:29Z</time>
      </trkpt>
      <trkpt lat="45.67819" lon="6.84052">
        <ele>2828.1</ele>
        <time>2021-03-26T12:28:30Z</time>
      </trkpt>
      <trkpt lat="45.67819" lon="6.84054">
        <ele>2828.1</ele>
        <time>2021-03-26T12:28:31Z</time>
      </trkpt>
      <trkpt lat="45.67818" lon="6.84059">
        <ele>2828.1</ele>
        <time>2021-03-26T12:28:32Z</time>
      </trkpt>
      <trkpt lat="45.67818" lon="6.8406">
        <ele>2828.1</ele>
        <time>2021-03-26T12:28:33Z</time>
      </trkpt>
      <trkpt lat="45.67818" lon="6.84061">
        <ele>2828.1</ele>
        <time>2021-03-26T12:28:34Z</time>
      </trkpt>
      <trkpt lat="45.67818" lon="6.84061">
        <ele>2828.1</ele>
        <time>2021-03-26T12:28:35Z</time>
      </trkpt>
      <trkpt lat="45.67818" lon="6.84061">
        <ele>2828.1</ele>
        <time>2021-03-26T12:28:36Z</time>
      </trkpt>
      <trkpt lat="45.67818" lon="6.84061">
        <ele>2828.1</ele>
        <time>2021-03-26T12:28:37Z</time>
      </trkpt>
      <trkpt lat="45.67818" lon="6.84061">
        <ele>2828.1</ele>
        <time>2021-03-26T12:28:38Z</time>
      </trkpt>
      <trkpt lat="45.67817" lon="6.84063">
        <ele>2828.1</ele>
        <time>2021-03-26T12:28:39Z</time>
      </trkpt>
      <trkpt lat="45.67817" lon="6.84064">
        <ele>2828.1</ele>
        <time>2021-03-26T12:28:40Z</time>
      </trkpt>
      <trkpt lat="45.67817" lon="6.84065">
        <ele>2828.1</ele>
        <time>2021-03-26T12:28:41Z</time>
      </trkpt>
      <trkpt lat="45.67817" lon="6.84066">
        <ele>2828.1</ele>
        <time>2021-03-26T12:28:42Z</time>
      </trkpt>
      <trkpt lat="45.67816" lon="6.84067">
        <ele>2828</ele>
        <time>2021-03-26T12:28:43Z</time>
      </trkpt>
      <trkpt lat="45.67816" lon="6.84068">
        <ele>2828</ele>
        <time>2021-03-26T12:28:44Z</time>
      </trkpt>
      <trkpt lat="45.67817" lon="6.84073">
        <ele>2827.9</ele>
        <time>2021-03-26T12:28:45Z</time>
      </trkpt>
      <trkpt lat="45.67817" lon="6.84074">
        <ele>2827.9</ele>
        <time>2021-03-26T12:28:46Z</time>
      </trkpt>
      <trkpt lat="45.67817" lon="6.84077">
        <ele>2827.8</ele>
        <time>2021-03-26T12:28:47Z</time>
      </trkpt>
      <trkpt lat="45.67817" lon="6.84078">
        <ele>2827.8</ele>
        <time>2021-03-26T12:28:48Z</time>
      </trkpt>
      <trkpt lat="45.67816" lon="6.84079">
        <ele>2827.8</ele>
        <time>2021-03-26T12:28:49Z</time>
      </trkpt>
      <trkpt lat="45.67815" lon="6.84078">
        <ele>2827.8</ele>
        <time>2021-03-26T12:28:50Z</time>
      </trkpt>
      <trkpt lat="45.67815" lon="6.84078">
        <ele>2827.8</ele>
        <time>2021-03-26T12:28:51Z</time>
      </trkpt>
      <trkpt lat="45.67815" lon="6.84077">
        <ele>2827.8</ele>
        <time>2021-03-26T12:28:52Z</time>
      </trkpt>
      <trkpt lat="45.67815" lon="6.84077">
        <ele>2827.8</ele>
        <time>2021-03-26T12:28:53Z</time>
      </trkpt>
      <trkpt lat="45.67815" lon="6.84078">
        <ele>2827.8</ele>
        <time>2021-03-26T12:28:54Z</time>
      </trkpt>
      <trkpt lat="45.67815" lon="6.84078">
        <ele>2827.8</ele>
        <time>2021-03-26T12:28:55Z</time>
      </trkpt>
      <trkpt lat="45.67815" lon="6.84078">
        <ele>2827.8</ele>
        <time>2021-03-26T12:28:56Z</time>
      </trkpt>
      <trkpt lat="45.67814" lon="6.84078">
        <ele>2827.8</ele>
        <time>2021-03-26T12:28:57Z</time>
      </trkpt>
      <trkpt lat="45.67813" lon="6.84077">
        <ele>2827.8</ele>
        <time>2021-03-26T12:28:58Z</time>
      </trkpt>
      <trkpt lat="45.67813" lon="6.84077">
        <ele>2827.8</ele>
        <time>2021-03-26T12:28:59Z</time>
      </trkpt>
      <trkpt lat="45.67813" lon="6.84077">
        <ele>2827.8</ele>
        <time>2021-03-26T12:29:00Z</time>
      </trkpt>
      <trkpt lat="45.67813" lon="6.84077">
        <ele>2827.8</ele>
        <time>2021-03-26T12:29:01Z</time>
      </trkpt>
      <trkpt lat="45.67813" lon="6.84077">
        <ele>2827.8</ele>
        <time>2021-03-26T12:29:02Z</time>
      </trkpt>
      <trkpt lat="45.67813" lon="6.84077">
        <ele>2827.8</ele>
        <time>2021-03-26T12:29:03Z</time>
      </trkpt>
      <trkpt lat="45.67812" lon="6.84075">
        <ele>2827.8</ele>
        <time>2021-03-26T12:29:04Z</time>
      </trkpt>
      <trkpt lat="45.67812" lon="6.84075">
        <ele>2827.8</ele>
        <time>2021-03-26T12:29:05Z</time>
      </trkpt>
      <trkpt lat="45.67812" lon="6.84075">
        <ele>2827.8</ele>
        <time>2021-03-26T12:29:06Z</time>
      </trkpt>
      <trkpt lat="45.67812" lon="6.84075">
        <ele>2827.8</ele>
        <time>2021-03-26T12:29:07Z</time>
      </trkpt>
      <trkpt lat="45.67812" lon="6.84075">
        <ele>2827.8</ele>
        <time>2021-03-26T12:29:08Z</time>
      </trkpt>
      <trkpt lat="45.67809" lon="6.84068">
        <ele>2827.9</ele>
        <time>2021-03-26T12:29:17Z</time>
      </trkpt>
      <trkpt lat="45.67809" lon="6.84065">
        <ele>2827.9</ele>
        <time>2021-03-26T12:29:18Z</time>
      </trkpt>
      <trkpt lat="45.67808" lon="6.84063">
        <ele>2827.9</ele>
        <time>2021-03-26T12:29:19Z</time>
      </trkpt>
      <trkpt lat="45.67809" lon="6.84062">
        <ele>2828</ele>
        <time>2021-03-26T12:29:20Z</time>
      </trkpt>
      <trkpt lat="45.67809" lon="6.84061">
        <ele>2828</ele>
        <time>2021-03-26T12:29:21Z</time>
      </trkpt>
      <trkpt lat="45.67807" lon="6.84059">
        <ele>2828</ele>
        <time>2021-03-26T12:29:22Z</time>
      </trkpt>
      <trkpt lat="45.67805" lon="6.84058">
        <ele>2827.8</ele>
        <time>2021-03-26T12:29:23Z</time>
      </trkpt>
      <trkpt lat="45.67803" lon="6.84059">
        <ele>2827.6</ele>
        <time>2021-03-26T12:29:24Z</time>
      </trkpt>
      <trkpt lat="45.678" lon="6.84062">
        <ele>2827.6</ele>
        <time>2021-03-26T12:29:25Z</time>
      </trkpt>
      <trkpt lat="45.67799" lon="6.84067">
        <ele>2827.3</ele>
        <time>2021-03-26T12:29:26Z</time>
      </trkpt>
      <trkpt lat="45.67798" lon="6.84071">
        <ele>2827.2</ele>
        <time>2021-03-26T12:29:27Z</time>
      </trkpt>
      <trkpt lat="45.67797" lon="6.84077">
        <ele>2826.8</ele>
        <time>2021-03-26T12:29:28Z</time>
      </trkpt>
      <trkpt lat="45.67795" lon="6.84083">
        <ele>2826.7</ele>
        <time>2021-03-26T12:29:29Z</time>
      </trkpt>
      <trkpt lat="45.67794" lon="6.84089">
        <ele>2826.5</ele>
        <time>2021-03-26T12:29:30Z</time>
      </trkpt>
      <trkpt lat="45.67793" lon="6.84094">
        <ele>2826</ele>
        <time>2021-03-26T12:29:31Z</time>
      </trkpt>
      <trkpt lat="45.67792" lon="6.84098">
        <ele>2825.8</ele>
        <time>2021-03-26T12:29:32Z</time>
      </trkpt>
      <trkpt lat="45.67792" lon="6.841">
        <ele>2825.8</ele>
        <time>2021-03-26T12:29:33Z</time>
      </trkpt>
      <trkpt lat="45.67791" lon="6.84102">
        <ele>2825.6</ele>
        <time>2021-03-26T12:29:34Z</time>
      </trkpt>
      <trkpt lat="45.67791" lon="6.84103">
        <ele>2825.2</ele>
        <time>2021-03-26T12:29:35Z</time>
      </trkpt>
      <trkpt lat="45.67789" lon="6.84098">
        <ele>2825.5</ele>
        <time>2021-03-26T12:29:36Z</time>
      </trkpt>
      <trkpt lat="45.67788" lon="6.84096">
        <ele>2825.3</ele>
        <time>2021-03-26T12:29:37Z</time>
      </trkpt>
      <trkpt lat="45.67788" lon="6.84091">
        <ele>2825.5</ele>
        <time>2021-03-26T12:29:38Z</time>
      </trkpt>
      <trkpt lat="45.67788" lon="6.84086">
        <ele>2825.6</ele>
        <time>2021-03-26T12:29:39Z</time>
      </trkpt>
      <trkpt lat="45.67788" lon="6.84082">
        <ele>2825.7</ele>
        <time>2021-03-26T12:29:40Z</time>
      </trkpt>
      <trkpt lat="45.67788" lon="6.84076">
        <ele>2826.2</ele>
        <time>2021-03-26T12:29:41Z</time>
      </trkpt>
      <trkpt lat="45.67788" lon="6.84074">
        <ele>2825.9</ele>
        <time>2021-03-26T12:29:42Z</time>
      </trkpt>
      <trkpt lat="45.67788" lon="6.84069">
        <ele>2826</ele>
        <time>2021-03-26T12:29:43Z</time>
      </trkpt>
      <trkpt lat="45.67788" lon="6.84065">
        <ele>2826.1</ele>
        <time>2021-03-26T12:29:44Z</time>
      </trkpt>
      <trkpt lat="45.67787" lon="6.84061">
        <ele>2826.1</ele>
        <time>2021-03-26T12:29:45Z</time>
      </trkpt>
      <trkpt lat="45.67786" lon="6.84059">
        <ele>2826.1</ele>
        <time>2021-03-26T12:29:46Z</time>
      </trkpt>
      <trkpt lat="45.67785" lon="6.84059">
        <ele>2825.6</ele>
        <time>2021-03-26T12:29:47Z</time>
      </trkpt>
      <trkpt lat="45.67782" lon="6.84063">
        <ele>2825.6</ele>
        <time>2021-03-26T12:29:48Z</time>
      </trkpt>
      <trkpt lat="45.67782" lon="6.84064">
        <ele>2824.9</ele>
        <time>2021-03-26T12:29:49Z</time>
      </trkpt>
      <trkpt lat="45.6778" lon="6.84065">
        <ele>2824.9</ele>
        <time>2021-03-26T12:29:50Z</time>
      </trkpt>
      <trkpt lat="45.67778" lon="6.84064">
        <ele>2824.2</ele>
        <time>2021-03-26T12:29:51Z</time>
      </trkpt>
      <trkpt lat="45.67777" lon="6.84064">
        <ele>2824.2</ele>
        <time>2021-03-26T12:29:52Z</time>
      </trkpt>
      <trkpt lat="45.67776" lon="6.84062">
        <ele>2823.3</ele>
        <time>2021-03-26T12:29:53Z</time>
      </trkpt>
      <trkpt lat="45.67774" lon="6.84061">
        <ele>2823.3</ele>
        <time>2021-03-26T12:29:54Z</time>
      </trkpt>
      <trkpt lat="45.67772" lon="6.8406">
        <ele>2822.4</ele>
        <time>2021-03-26T12:29:55Z</time>
      </trkpt>
      <trkpt lat="45.67772" lon="6.84059">
        <ele>2822.4</ele>
        <time>2021-03-26T12:29:56Z</time>
      </trkpt>
      <trkpt lat="45.67771" lon="6.84057">
        <ele>2822.3</ele>
        <time>2021-03-26T12:29:57Z</time>
      </trkpt>
      <trkpt lat="45.6777" lon="6.84056">
        <ele>2822.3</ele>
        <time>2021-03-26T12:29:58Z</time>
      </trkpt>
      <trkpt lat="45.67769" lon="6.84054">
        <ele>2821.4</ele>
        <time>2021-03-26T12:29:59Z</time>
      </trkpt>
      <trkpt lat="45.67766" lon="6.84051">
        <ele>2820.4</ele>
        <time>2021-03-26T12:30:00Z</time>
      </trkpt>
      <trkpt lat="45.67765" lon="6.8405">
        <ele>2820.4</ele>
        <time>2021-03-26T12:30:01Z</time>
      </trkpt>
      <trkpt lat="45.67762" lon="6.84048">
        <ele>2819.3</ele>
        <time>2021-03-26T12:30:02Z</time>
      </trkpt>
      <trkpt lat="45.6776" lon="6.84047">
        <ele>2818.4</ele>
        <time>2021-03-26T12:30:03Z</time>
      </trkpt>
      <trkpt lat="45.67758" lon="6.84045">
        <ele>2817.1</ele>
        <time>2021-03-26T12:30:04Z</time>
      </trkpt>
      <trkpt lat="45.67754" lon="6.84044">
        <ele>2815.8</ele>
        <time>2021-03-26T12:30:05Z</time>
      </trkpt>
      <trkpt lat="45.67753" lon="6.84044">
        <ele>2815.8</ele>
        <time>2021-03-26T12:30:06Z</time>
      </trkpt>
      <trkpt lat="45.6775" lon="6.84046">
        <ele>2814.6</ele>
        <time>2021-03-26T12:30:07Z</time>
      </trkpt>
      <trkpt lat="45.67748" lon="6.84047">
        <ele>2813.2</ele>
        <time>2021-03-26T12:30:08Z</time>
      </trkpt>
      <trkpt lat="45.67746" lon="6.8405">
        <ele>2813.2</ele>
        <time>2021-03-26T12:30:09Z</time>
      </trkpt>
      <trkpt lat="45.67745" lon="6.84056">
        <ele>2811.9</ele>
        <time>2021-03-26T12:30:10Z</time>
      </trkpt>
      <trkpt lat="45.67745" lon="6.84058">
        <ele>2811.9</ele>
        <time>2021-03-26T12:30:11Z</time>
      </trkpt>
      <trkpt lat="45.67744" lon="6.8406">
        <ele>2811.9</ele>
        <time>2021-03-26T12:30:12Z</time>
      </trkpt>
      <trkpt lat="45.67744" lon="6.84063">
        <ele>2811.9</ele>
        <time>2021-03-26T12:30:13Z</time>
      </trkpt>
      <trkpt lat="45.67744" lon="6.84063">
        <ele>2811.9</ele>
        <time>2021-03-26T12:30:14Z</time>
      </trkpt>
      <trkpt lat="45.67744" lon="6.84063">
        <ele>2811.9</ele>
        <time>2021-03-26T12:30:15Z</time>
      </trkpt>
      <trkpt lat="45.67744" lon="6.84063">
        <ele>2811.9</ele>
        <time>2021-03-26T12:30:16Z</time>
      </trkpt>
      <trkpt lat="45.67744" lon="6.84063">
        <ele>2811.9</ele>
        <time>2021-03-26T12:30:17Z</time>
      </trkpt>
      <trkpt lat="45.67744" lon="6.84063">
        <ele>2811.9</ele>
        <time>2021-03-26T12:30:18Z</time>
      </trkpt>
      <trkpt lat="45.67744" lon="6.84063">
        <ele>2811.9</ele>
        <time>2021-03-26T12:30:19Z</time>
      </trkpt>
      <trkpt lat="45.67739" lon="6.84076">
        <ele>2809.2</ele>
        <time>2021-03-26T12:31:05Z</time>
      </trkpt>
      <trkpt lat="45.67739" lon="6.84077">
        <ele>2809.2</ele>
        <time>2021-03-26T12:31:06Z</time>
      </trkpt>
      <trkpt lat="45.67736" lon="6.84074">
        <ele>2807.9</ele>
        <time>2021-03-26T12:31:07Z</time>
      </trkpt>
      <trkpt lat="45.67735" lon="6.84073">
        <ele>2807.9</ele>
        <time>2021-03-26T12:31:08Z</time>
      </trkpt>
      <trkpt lat="45.67733" lon="6.8407">
        <ele>2806.5</ele>
        <time>2021-03-26T12:31:09Z</time>
      </trkpt>
      <trkpt lat="45.67732" lon="6.84069">
        <ele>2806.5</ele>
        <time>2021-03-26T12:31:10Z</time>
      </trkpt>
      <trkpt lat="45.67729" lon="6.84065">
        <ele>2805</ele>
        <time>2021-03-26T12:31:11Z</time>
      </trkpt>
      <trkpt lat="45.67727" lon="6.84059">
        <ele>2803.4</ele>
        <time>2021-03-26T12:31:12Z</time>
      </trkpt>
      <trkpt lat="45.67725" lon="6.84054">
        <ele>2801.5</ele>
        <time>2021-03-26T12:31:13Z</time>
      </trkpt>
      <trkpt lat="45.67723" lon="6.84049">
        <ele>2801.3</ele>
        <time>2021-03-26T12:31:14Z</time>
      </trkpt>
      <trkpt lat="45.67722" lon="6.84048">
        <ele>2799.2</ele>
        <time>2021-03-26T12:31:15Z</time>
      </trkpt>
      <trkpt lat="45.67719" lon="6.84046">
        <ele>2797.2</ele>
        <time>2021-03-26T12:31:16Z</time>
      </trkpt>
      <trkpt lat="45.67716" lon="6.84046">
        <ele>2795.2</ele>
        <time>2021-03-26T12:31:17Z</time>
      </trkpt>
      <trkpt lat="45.67712" lon="6.84047">
        <ele>2793.1</ele>
        <time>2021-03-26T12:31:18Z</time>
      </trkpt>
      <trkpt lat="45.67711" lon="6.84047">
        <ele>2793.1</ele>
        <time>2021-03-26T12:31:19Z</time>
      </trkpt>
      <trkpt lat="45.67707" lon="6.84046">
        <ele>2789</ele>
        <time>2021-03-26T12:31:20Z</time>
      </trkpt>
      <trkpt lat="45.67704" lon="6.84044">
        <ele>2786.3</ele>
        <time>2021-03-26T12:31:21Z</time>
      </trkpt>
      <trkpt lat="45.67701" lon="6.84044">
        <ele>2784</ele>
        <time>2021-03-26T12:31:22Z</time>
      </trkpt>
      <trkpt lat="45.67699" lon="6.84044">
        <ele>2784</ele>
        <time>2021-03-26T12:31:23Z</time>
      </trkpt>
      <trkpt lat="45.67696" lon="6.84046">
        <ele>2782.3</ele>
        <time>2021-03-26T12:31:24Z</time>
      </trkpt>
      <trkpt lat="45.67695" lon="6.84047">
        <ele>2779.6</ele>
        <time>2021-03-26T12:31:25Z</time>
      </trkpt>
      <trkpt lat="45.67691" lon="6.8405">
        <ele>2777.8</ele>
        <time>2021-03-26T12:31:26Z</time>
      </trkpt>
      <trkpt lat="45.67691" lon="6.84051">
        <ele>2777.8</ele>
        <time>2021-03-26T12:31:27Z</time>
      </trkpt>
      <trkpt lat="45.67688" lon="6.84055">
        <ele>2776</ele>
        <time>2021-03-26T12:31:28Z</time>
      </trkpt>
      <trkpt lat="45.67687" lon="6.84056">
        <ele>2776</ele>
        <time>2021-03-26T12:31:29Z</time>
      </trkpt>
      <trkpt lat="45.67684" lon="6.84055">
        <ele>2773.4</ele>
        <time>2021-03-26T12:31:30Z</time>
      </trkpt>
      <trkpt lat="45.67683" lon="6.84054">
        <ele>2771</ele>
        <time>2021-03-26T12:31:31Z</time>
      </trkpt>
      <trkpt lat="45.67681" lon="6.8405">
        <ele>2770</ele>
        <time>2021-03-26T12:31:32Z</time>
      </trkpt>
      <trkpt lat="45.67679" lon="6.84047">
        <ele>2766.5</ele>
        <time>2021-03-26T12:31:33Z</time>
      </trkpt>
      <trkpt lat="45.67675" lon="6.84048">
        <ele>2763.9</ele>
        <time>2021-03-26T12:31:34Z</time>
      </trkpt>
      <trkpt lat="45.67674" lon="6.84049">
        <ele>2762.3</ele>
        <time>2021-03-26T12:31:35Z</time>
      </trkpt>
      <trkpt lat="45.67671" lon="6.84052">
        <ele>2759.5</ele>
        <time>2021-03-26T12:31:36Z</time>
      </trkpt>
      <trkpt lat="45.67668" lon="6.84054">
        <ele>2757.7</ele>
        <time>2021-03-26T12:31:37Z</time>
      </trkpt>
      <trkpt lat="45.67666" lon="6.84055">
        <ele>2757.7</ele>
        <time>2021-03-26T12:31:38Z</time>
      </trkpt>
      <trkpt lat="45.67661" lon="6.84055">
        <ele>2752.1</ele>
        <time>2021-03-26T12:31:39Z</time>
      </trkpt>
      <trkpt lat="45.6766" lon="6.84055">
        <ele>2752.1</ele>
        <time>2021-03-26T12:31:40Z</time>
      </trkpt>
      <trkpt lat="45.67657" lon="6.84056">
        <ele>2749.5</ele>
        <time>2021-03-26T12:31:41Z</time>
      </trkpt>
      <trkpt lat="45.67654" lon="6.84057">
        <ele>2747.2</ele>
        <time>2021-03-26T12:31:42Z</time>
      </trkpt>
      <trkpt lat="45.67651" lon="6.84058">
        <ele>2746.1</ele>
        <time>2021-03-26T12:31:43Z</time>
      </trkpt>
      <trkpt lat="45.67647" lon="6.84058">
        <ele>2743.7</ele>
        <time>2021-03-26T12:31:44Z</time>
      </trkpt>
      <trkpt lat="45.67643" lon="6.8406">
        <ele>2738.9</ele>
        <time>2021-03-26T12:31:45Z</time>
      </trkpt>
      <trkpt lat="45.6764" lon="6.84064">
        <ele>2737.8</ele>
        <time>2021-03-26T12:31:46Z</time>
      </trkpt>
      <trkpt lat="45.67638" lon="6.84069">
        <ele>2736.7</ele>
        <time>2021-03-26T12:31:47Z</time>
      </trkpt>
      <trkpt lat="45.67636" lon="6.84075">
        <ele>2737.9</ele>
        <time>2021-03-26T12:31:48Z</time>
      </trkpt>
      <trkpt lat="45.67635" lon="6.84079">
        <ele>2739.3</ele>
        <time>2021-03-26T12:31:49Z</time>
      </trkpt>
      <trkpt lat="45.67634" lon="6.84082">
        <ele>2738.4</ele>
        <time>2021-03-26T12:31:50Z</time>
      </trkpt>
      <trkpt lat="45.67631" lon="6.84083">
        <ele>2736.2</ele>
        <time>2021-03-26T12:31:51Z</time>
      </trkpt>
      <trkpt lat="45.67629" lon="6.84083">
        <ele>2736.2</ele>
        <time>2021-03-26T12:31:52Z</time>
      </trkpt>
      <trkpt lat="45.67626" lon="6.84082">
        <ele>2732.1</ele>
        <time>2021-03-26T12:31:53Z</time>
      </trkpt>
      <trkpt lat="45.67625" lon="6.84083">
        <ele>2732.1</ele>
        <time>2021-03-26T12:31:54Z</time>
      </trkpt>
      <trkpt lat="45.67623" lon="6.84086">
        <ele>2731.6</ele>
        <time>2021-03-26T12:31:55Z</time>
      </trkpt>
      <trkpt lat="45.67621" lon="6.84089">
        <ele>2732.9</ele>
        <time>2021-03-26T12:31:56Z</time>
      </trkpt>
      <trkpt lat="45.67619" lon="6.8409">
        <ele>2731</ele>
        <time>2021-03-26T12:31:57Z</time>
      </trkpt>
      <trkpt lat="45.67618" lon="6.84088">
        <ele>2731</ele>
        <time>2021-03-26T12:31:58Z</time>
      </trkpt>
      <trkpt lat="45.67615" lon="6.84086">
        <ele>2727.8</ele>
        <time>2021-03-26T12:31:59Z</time>
      </trkpt>
      <trkpt lat="45.67612" lon="6.84086">
        <ele>2725.8</ele>
        <time>2021-03-26T12:32:00Z</time>
      </trkpt>
      <trkpt lat="45.6761" lon="6.84087">
        <ele>2723.8</ele>
        <time>2021-03-26T12:32:01Z</time>
      </trkpt>
      <trkpt lat="45.67609" lon="6.84088">
        <ele>2724.9</ele>
        <time>2021-03-26T12:32:02Z</time>
      </trkpt>
      <trkpt lat="45.67607" lon="6.84087">
        <ele>2721.8</ele>
        <time>2021-03-26T12:32:03Z</time>
      </trkpt>
      <trkpt lat="45.67605" lon="6.84084">
        <ele>2719.9</ele>
        <time>2021-03-26T12:32:04Z</time>
      </trkpt>
      <trkpt lat="45.67601" lon="6.84082">
        <ele>2717.3</ele>
        <time>2021-03-26T12:32:05Z</time>
      </trkpt>
      <trkpt lat="45.676" lon="6.84083">
        <ele>2717.3</ele>
        <time>2021-03-26T12:32:06Z</time>
      </trkpt>
      <trkpt lat="45.67598" lon="6.84088">
        <ele>2717.3</ele>
        <time>2021-03-26T12:32:07Z</time>
      </trkpt>
      <trkpt lat="45.67597" lon="6.84091">
        <ele>2717.3</ele>
        <time>2021-03-26T12:32:08Z</time>
      </trkpt>
      <trkpt lat="45.67594" lon="6.84094">
        <ele>2716.5</ele>
        <time>2021-03-26T12:32:09Z</time>
      </trkpt>
      <trkpt lat="45.67591" lon="6.84097">
        <ele>2715.7</ele>
        <time>2021-03-26T12:32:10Z</time>
      </trkpt>
      <trkpt lat="45.67589" lon="6.84099">
        <ele>2713.9</ele>
        <time>2021-03-26T12:32:11Z</time>
      </trkpt>
      <trkpt lat="45.67585" lon="6.84099">
        <ele>2712</ele>
        <time>2021-03-26T12:32:12Z</time>
      </trkpt>
      <trkpt lat="45.67582" lon="6.841">
        <ele>2710</ele>
        <time>2021-03-26T12:32:13Z</time>
      </trkpt>
      <trkpt lat="45.67579" lon="6.84101">
        <ele>2708.8</ele>
        <time>2021-03-26T12:32:14Z</time>
      </trkpt>
      <trkpt lat="45.67576" lon="6.84103">
        <ele>2707</ele>
        <time>2021-03-26T12:32:15Z</time>
      </trkpt>
      <trkpt lat="45.67573" lon="6.84105">
        <ele>2706.3</ele>
        <time>2021-03-26T12:32:16Z</time>
      </trkpt>
      <trkpt lat="45.6757" lon="6.84108">
        <ele>2704.8</ele>
        <time>2021-03-26T12:32:17Z</time>
      </trkpt>
      <trkpt lat="45.6757" lon="6.84108">
        <ele>2704.8</ele>
        <time>2021-03-26T12:32:18Z</time>
      </trkpt>
      <trkpt lat="45.6757" lon="6.84108">
        <ele>2704.8</ele>
        <time>2021-03-26T12:32:19Z</time>
      </trkpt>
      <trkpt lat="45.6757" lon="6.84108">
        <ele>2704.8</ele>
        <time>2021-03-26T12:32:20Z</time>
      </trkpt>
      <trkpt lat="45.6757" lon="6.84108">
        <ele>2704.8</ele>
        <time>2021-03-26T12:32:21Z</time>
      </trkpt>
      <trkpt lat="45.6757" lon="6.84108">
        <ele>2704.8</ele>
        <time>2021-03-26T12:32:22Z</time>
      </trkpt>
      <trkpt lat="45.6757" lon="6.84108">
        <ele>2704.8</ele>
        <time>2021-03-26T12:32:23Z</time>
      </trkpt>
      <trkpt lat="45.6757" lon="6.84108">
        <ele>2704.8</ele>
        <time>2021-03-26T12:32:24Z</time>
      </trkpt>
      <trkpt lat="45.6757" lon="6.84108">
        <ele>2704.8</ele>
        <time>2021-03-26T12:32:25Z</time>
      </trkpt>
      <trkpt lat="45.6757" lon="6.84108">
        <ele>2704.8</ele>
        <time>2021-03-26T12:32:26Z</time>
      </trkpt>
      <trkpt lat="45.6757" lon="6.84108">
        <ele>2704.8</ele>
        <time>2021-03-26T12:32:27Z</time>
      </trkpt>
      <trkpt lat="45.67573" lon="6.84102">
        <ele>2705.4</ele>
        <time>2021-03-26T12:33:48Z</time>
      </trkpt>
      <trkpt lat="45.67573" lon="6.84097">
        <ele>2704.7</ele>
        <time>2021-03-26T12:33:49Z</time>
      </trkpt>
      <trkpt lat="45.67574" lon="6.84093">
        <ele>2704</ele>
        <time>2021-03-26T12:33:50Z</time>
      </trkpt>
      <trkpt lat="45.67574" lon="6.84088">
        <ele>2702.9</ele>
        <time>2021-03-26T12:33:51Z</time>
      </trkpt>
      <trkpt lat="45.67573" lon="6.84086">
        <ele>2702.9</ele>
        <time>2021-03-26T12:33:52Z</time>
      </trkpt>
      <trkpt lat="45.67573" lon="6.84081">
        <ele>2702.5</ele>
        <time>2021-03-26T12:33:53Z</time>
      </trkpt>
      <trkpt lat="45.6757" lon="6.84077">
        <ele>2700.8</ele>
        <time>2021-03-26T12:33:54Z</time>
      </trkpt>
      <trkpt lat="45.67567" lon="6.84075">
        <ele>2699.5</ele>
        <time>2021-03-26T12:33:55Z</time>
      </trkpt>
      <trkpt lat="45.67563" lon="6.84075">
        <ele>2698.1</ele>
        <time>2021-03-26T12:33:56Z</time>
      </trkpt>
      <trkpt lat="45.6756" lon="6.84074">
        <ele>2696.4</ele>
        <time>2021-03-26T12:33:57Z</time>
      </trkpt>
      <trkpt lat="45.67557" lon="6.84073">
        <ele>2693.4</ele>
        <time>2021-03-26T12:33:58Z</time>
      </trkpt>
      <trkpt lat="45.67553" lon="6.84073">
        <ele>2691.8</ele>
        <time>2021-03-26T12:33:59Z</time>
      </trkpt>
      <trkpt lat="45.6755" lon="6.84073">
        <ele>2690.4</ele>
        <time>2021-03-26T12:34:00Z</time>
      </trkpt>
      <trkpt lat="45.67548" lon="6.84073">
        <ele>2688.1</ele>
        <time>2021-03-26T12:34:01Z</time>
      </trkpt>
      <trkpt lat="45.67544" lon="6.84072">
        <ele>2686.7</ele>
        <time>2021-03-26T12:34:02Z</time>
      </trkpt>
      <trkpt lat="45.67541" lon="6.8407">
        <ele>2685</ele>
        <time>2021-03-26T12:34:03Z</time>
      </trkpt>
      <trkpt lat="45.67538" lon="6.84067">
        <ele>2683.6</ele>
        <time>2021-03-26T12:34:04Z</time>
      </trkpt>
      <trkpt lat="45.67535" lon="6.84062">
        <ele>2681.4</ele>
        <time>2021-03-26T12:34:05Z</time>
      </trkpt>
      <trkpt lat="45.67532" lon="6.84059">
        <ele>2679.9</ele>
        <time>2021-03-26T12:34:06Z</time>
      </trkpt>
      <trkpt lat="45.67529" lon="6.84056">
        <ele>2677.9</ele>
        <time>2021-03-26T12:34:07Z</time>
      </trkpt>
      <trkpt lat="45.67526" lon="6.84055">
        <ele>2676.2</ele>
        <time>2021-03-26T12:34:08Z</time>
      </trkpt>
      <trkpt lat="45.67523" lon="6.84053">
        <ele>2674.2</ele>
        <time>2021-03-26T12:34:09Z</time>
      </trkpt>
      <trkpt lat="45.6752" lon="6.84064">
        <ele>2673.8</ele>
        <time>2021-03-26T12:34:10Z</time>
      </trkpt>
      <trkpt lat="45.67516" lon="6.84069">
        <ele>2672.7</ele>
        <time>2021-03-26T12:34:11Z</time>
      </trkpt>
      <trkpt lat="45.67515" lon="6.84063">
        <ele>2670.8</ele>
        <time>2021-03-26T12:34:12Z</time>
      </trkpt>
      <trkpt lat="45.67512" lon="6.84055">
        <ele>2668.6</ele>
        <time>2021-03-26T12:34:13Z</time>
      </trkpt>
      <trkpt lat="45.67509" lon="6.8405">
        <ele>2668.3</ele>
        <time>2021-03-26T12:34:14Z</time>
      </trkpt>
      <trkpt lat="45.67505" lon="6.84062">
        <ele>2665.8</ele>
        <time>2021-03-26T12:34:15Z</time>
      </trkpt>
      <trkpt lat="45.67502" lon="6.84065">
        <ele>2664.5</ele>
        <time>2021-03-26T12:34:16Z</time>
      </trkpt>
      <trkpt lat="45.675" lon="6.84062">
        <ele>2662.3</ele>
        <time>2021-03-26T12:34:17Z</time>
      </trkpt>
      <trkpt lat="45.67496" lon="6.84064">
        <ele>2661</ele>
        <time>2021-03-26T12:34:18Z</time>
      </trkpt>
      <trkpt lat="45.67494" lon="6.84067">
        <ele>2661.5</ele>
        <time>2021-03-26T12:34:19Z</time>
      </trkpt>
      <trkpt lat="45.67492" lon="6.84064">
        <ele>2659.5</ele>
        <time>2021-03-26T12:34:20Z</time>
      </trkpt>
      <trkpt lat="45.6749" lon="6.84062">
        <ele>2657.7</ele>
        <time>2021-03-26T12:34:21Z</time>
      </trkpt>
      <trkpt lat="45.67489" lon="6.84054">
        <ele>2657.4</ele>
        <time>2021-03-26T12:34:22Z</time>
      </trkpt>
      <trkpt lat="45.67483" lon="6.84055">
        <ele>2654.7</ele>
        <time>2021-03-26T12:34:23Z</time>
      </trkpt>
      <trkpt lat="45.6748" lon="6.84056">
        <ele>2653.4</ele>
        <time>2021-03-26T12:34:24Z</time>
      </trkpt>
      <trkpt lat="45.67479" lon="6.84057">
        <ele>2651.9</ele>
        <time>2021-03-26T12:34:25Z</time>
      </trkpt>
      <trkpt lat="45.67478" lon="6.84057">
        <ele>2651.9</ele>
        <time>2021-03-26T12:34:26Z</time>
      </trkpt>
      <trkpt lat="45.67478" lon="6.84057">
        <ele>2651.9</ele>
        <time>2021-03-26T12:34:27Z</time>
      </trkpt>
      <trkpt lat="45.67477" lon="6.84057">
        <ele>2651.9</ele>
        <time>2021-03-26T12:34:28Z</time>
      </trkpt>
      <trkpt lat="45.67477" lon="6.84057">
        <ele>2651.9</ele>
        <time>2021-03-26T12:34:29Z</time>
      </trkpt>
      <trkpt lat="45.67476" lon="6.84057">
        <ele>2650.5</ele>
        <time>2021-03-26T12:34:30Z</time>
      </trkpt>
      <trkpt lat="45.67475" lon="6.84058">
        <ele>2650.5</ele>
        <time>2021-03-26T12:34:31Z</time>
      </trkpt>
      <trkpt lat="45.67475" lon="6.84058">
        <ele>2650.5</ele>
        <time>2021-03-26T12:34:32Z</time>
      </trkpt>
      <trkpt lat="45.67474" lon="6.84058">
        <ele>2650.7</ele>
        <time>2021-03-26T12:34:33Z</time>
      </trkpt>
      <trkpt lat="45.67473" lon="6.84062">
        <ele>2649.6</ele>
        <time>2021-03-26T12:34:34Z</time>
      </trkpt>
      <trkpt lat="45.67471" lon="6.84067">
        <ele>2650</ele>
        <time>2021-03-26T12:34:35Z</time>
      </trkpt>
      <trkpt lat="45.6747" lon="6.84072">
        <ele>2649</ele>
        <time>2021-03-26T12:39:04Z</time>
      </trkpt>
      <trkpt lat="45.67468" lon="6.84076">
        <ele>2649.5</ele>
        <time>2021-03-26T12:39:05Z</time>
      </trkpt>
      <trkpt lat="45.67464" lon="6.84082">
        <ele>2648.8</ele>
        <time>2021-03-26T12:39:06Z</time>
      </trkpt>
      <trkpt lat="45.6746" lon="6.84088">
        <ele>2647.7</ele>
        <time>2021-03-26T12:39:07Z</time>
      </trkpt>
      <trkpt lat="45.67455" lon="6.84094">
        <ele>2646.1</ele>
        <time>2021-03-26T12:39:08Z</time>
      </trkpt>
      <trkpt lat="45.67451" lon="6.841">
        <ele>2645.7</ele>
        <time>2021-03-26T12:39:09Z</time>
      </trkpt>
      <trkpt lat="45.67449" lon="6.84104">
        <ele>2645.4</ele>
        <time>2021-03-26T12:39:10Z</time>
      </trkpt>
      <trkpt lat="45.67445" lon="6.84104">
        <ele>2644.1</ele>
        <time>2021-03-26T12:39:11Z</time>
      </trkpt>
      <trkpt lat="45.67437" lon="6.84102">
        <ele>2640.4</ele>
        <time>2021-03-26T12:39:12Z</time>
      </trkpt>
      <trkpt lat="45.67433" lon="6.84106">
        <ele>2640.2</ele>
        <time>2021-03-26T12:39:13Z</time>
      </trkpt>
      <trkpt lat="45.67429" lon="6.84113">
        <ele>2640.1</ele>
        <time>2021-03-26T12:39:14Z</time>
      </trkpt>
      <trkpt lat="45.67424" lon="6.8412">
        <ele>2640.1</ele>
        <time>2021-03-26T12:39:15Z</time>
      </trkpt>
      <trkpt lat="45.67419" lon="6.84126">
        <ele>2638.9</ele>
        <time>2021-03-26T12:39:16Z</time>
      </trkpt>
      <trkpt lat="45.67414" lon="6.8413">
        <ele>2639</ele>
        <time>2021-03-26T12:39:17Z</time>
      </trkpt>
      <trkpt lat="45.67409" lon="6.84136">
        <ele>2639.7</ele>
        <time>2021-03-26T12:39:18Z</time>
      </trkpt>
      <trkpt lat="45.67404" lon="6.8414">
        <ele>2639.2</ele>
        <time>2021-03-26T12:39:19Z</time>
      </trkpt>
      <trkpt lat="45.674" lon="6.84141">
        <ele>2638.2</ele>
        <time>2021-03-26T12:39:20Z</time>
      </trkpt>
      <trkpt lat="45.67396" lon="6.84126">
        <ele>2631.5</ele>
        <time>2021-03-26T12:39:21Z</time>
      </trkpt>
      <trkpt lat="45.67391" lon="6.84119">
        <ele>2628.1</ele>
        <time>2021-03-26T12:39:22Z</time>
      </trkpt>
      <trkpt lat="45.67385" lon="6.84127">
        <ele>2628.3</ele>
        <time>2021-03-26T12:39:23Z</time>
      </trkpt>
      <trkpt lat="45.6738" lon="6.84129">
        <ele>2626.5</ele>
        <time>2021-03-26T12:39:24Z</time>
      </trkpt>
      <trkpt lat="45.67376" lon="6.84122">
        <ele>2623.6</ele>
        <time>2021-03-26T12:39:25Z</time>
      </trkpt>
      <trkpt lat="45.6737" lon="6.84123">
        <ele>2623</ele>
        <time>2021-03-26T12:39:26Z</time>
      </trkpt>
      <trkpt lat="45.67364" lon="6.84123">
        <ele>2621.4</ele>
        <time>2021-03-26T12:39:27Z</time>
      </trkpt>
      <trkpt lat="45.67359" lon="6.84126">
        <ele>2619.9</ele>
        <time>2021-03-26T12:39:28Z</time>
      </trkpt>
      <trkpt lat="45.67354" lon="6.84117">
        <ele>2617.4</ele>
        <time>2021-03-26T12:39:29Z</time>
      </trkpt>
      <trkpt lat="45.67347" lon="6.84118">
        <ele>2616.3</ele>
        <time>2021-03-26T12:39:30Z</time>
      </trkpt>
      <trkpt lat="45.67341" lon="6.84123">
        <ele>2615.9</ele>
        <time>2021-03-26T12:39:31Z</time>
      </trkpt>
      <trkpt lat="45.67336" lon="6.84128">
        <ele>2616.2</ele>
        <time>2021-03-26T12:39:32Z</time>
      </trkpt>
      <trkpt lat="45.67332" lon="6.84132">
        <ele>2615.7</ele>
        <time>2021-03-26T12:39:33Z</time>
      </trkpt>
      <trkpt lat="45.67325" lon="6.84119">
        <ele>2611.4</ele>
        <time>2021-03-26T12:39:34Z</time>
      </trkpt>
      <trkpt lat="45.67318" lon="6.84118">
        <ele>2610.2</ele>
        <time>2021-03-26T12:39:35Z</time>
      </trkpt>
      <trkpt lat="45.67312" lon="6.84119">
        <ele>2608.9</ele>
        <time>2021-03-26T12:39:36Z</time>
      </trkpt>
      <trkpt lat="45.67306" lon="6.84115">
        <ele>2606.8</ele>
        <time>2021-03-26T12:39:37Z</time>
      </trkpt>
      <trkpt lat="45.67299" lon="6.84114">
        <ele>2604.7</ele>
        <time>2021-03-26T12:39:38Z</time>
      </trkpt>
      <trkpt lat="45.67292" lon="6.84117">
        <ele>2603.5</ele>
        <time>2021-03-26T12:39:39Z</time>
      </trkpt>
      <trkpt lat="45.67284" lon="6.84122">
        <ele>2602</ele>
        <time>2021-03-26T12:39:40Z</time>
      </trkpt>
      <trkpt lat="45.67277" lon="6.84127">
        <ele>2601.8</ele>
        <time>2021-03-26T12:39:41Z</time>
      </trkpt>
      <trkpt lat="45.6727" lon="6.84133">
        <ele>2601</ele>
        <time>2021-03-26T12:39:42Z</time>
      </trkpt>
      <trkpt lat="45.67264" lon="6.84138">
        <ele>2600.3</ele>
        <time>2021-03-26T12:39:43Z</time>
      </trkpt>
      <trkpt lat="45.67258" lon="6.84141">
        <ele>2599.7</ele>
        <time>2021-03-26T12:39:44Z</time>
      </trkpt>
      <trkpt lat="45.67252" lon="6.84126">
        <ele>2595.1</ele>
        <time>2021-03-26T12:39:45Z</time>
      </trkpt>
      <trkpt lat="45.67244" lon="6.84125">
        <ele>2592.5</ele>
        <time>2021-03-26T12:39:46Z</time>
      </trkpt>
      <trkpt lat="45.67238" lon="6.84127">
        <ele>2591.8</ele>
        <time>2021-03-26T12:39:47Z</time>
      </trkpt>
      <trkpt lat="45.67231" lon="6.84131">
        <ele>2590.4</ele>
        <time>2021-03-26T12:39:48Z</time>
      </trkpt>
      <trkpt lat="45.67225" lon="6.84132">
        <ele>2589.5</ele>
        <time>2021-03-26T12:39:49Z</time>
      </trkpt>
      <trkpt lat="45.67219" lon="6.84131">
        <ele>2587.6</ele>
        <time>2021-03-26T12:39:50Z</time>
      </trkpt>
      <trkpt lat="45.67213" lon="6.8412">
        <ele>2583.5</ele>
        <time>2021-03-26T12:39:51Z</time>
      </trkpt>
      <trkpt lat="45.67207" lon="6.8412">
        <ele>2581.8</ele>
        <time>2021-03-26T12:39:52Z</time>
      </trkpt>
      <trkpt lat="45.67201" lon="6.84123">
        <ele>2580.8</ele>
        <time>2021-03-26T12:39:53Z</time>
      </trkpt>
      <trkpt lat="45.67195" lon="6.84126">
        <ele>2578.7</ele>
        <time>2021-03-26T12:39:54Z</time>
      </trkpt>
      <trkpt lat="45.67191" lon="6.84117">
        <ele>2575.2</ele>
        <time>2021-03-26T12:39:55Z</time>
      </trkpt>
      <trkpt lat="45.67185" lon="6.84114">
        <ele>2573</ele>
        <time>2021-03-26T12:39:56Z</time>
      </trkpt>
      <trkpt lat="45.67178" lon="6.84115">
        <ele>2570.8</ele>
        <time>2021-03-26T12:39:57Z</time>
      </trkpt>
      <trkpt lat="45.67173" lon="6.84118">
        <ele>2569.1</ele>
        <time>2021-03-26T12:39:58Z</time>
      </trkpt>
      <trkpt lat="45.67166" lon="6.84133">
        <ele>2568.3</ele>
        <time>2021-03-26T12:39:59Z</time>
      </trkpt>
      <trkpt lat="45.67162" lon="6.84132">
        <ele>2566.9</ele>
        <time>2021-03-26T12:40:00Z</time>
      </trkpt>
      <trkpt lat="45.67154" lon="6.84128">
        <ele>2562.5</ele>
        <time>2021-03-26T12:40:01Z</time>
      </trkpt>
      <trkpt lat="45.67148" lon="6.84133">
        <ele>2560.9</ele>
        <time>2021-03-26T12:40:02Z</time>
      </trkpt>
      <trkpt lat="45.67143" lon="6.84137">
        <ele>2559.2</ele>
        <time>2021-03-26T12:40:03Z</time>
      </trkpt>
      <trkpt lat="45.67138" lon="6.84147">
        <ele>2559.3</ele>
        <time>2021-03-26T12:40:04Z</time>
      </trkpt>
      <trkpt lat="45.67133" lon="6.8415">
        <ele>2557.6</ele>
        <time>2021-03-26T12:40:05Z</time>
      </trkpt>
      <trkpt lat="45.67129" lon="6.84152">
        <ele>2556.6</ele>
        <time>2021-03-26T12:40:06Z</time>
      </trkpt>
      <trkpt lat="45.67122" lon="6.84147">
        <ele>2553.1</ele>
        <time>2021-03-26T12:40:07Z</time>
      </trkpt>
      <trkpt lat="45.67116" lon="6.84149">
        <ele>2551.7</ele>
        <time>2021-03-26T12:40:08Z</time>
      </trkpt>
      <trkpt lat="45.6711" lon="6.8416">
        <ele>2551</ele>
        <time>2021-03-26T12:40:09Z</time>
      </trkpt>
      <trkpt lat="45.67107" lon="6.84171">
        <ele>2552.2</ele>
        <time>2021-03-26T12:40:10Z</time>
      </trkpt>
      <trkpt lat="45.67102" lon="6.84172">
        <ele>2551.4</ele>
        <time>2021-03-26T12:40:11Z</time>
      </trkpt>
      <trkpt lat="45.67097" lon="6.84174">
        <ele>2550.4</ele>
        <time>2021-03-26T12:40:12Z</time>
      </trkpt>
      <trkpt lat="45.67091" lon="6.84181">
        <ele>2549.5</ele>
        <time>2021-03-26T12:40:13Z</time>
      </trkpt>
      <trkpt lat="45.67087" lon="6.84186">
        <ele>2549.4</ele>
        <time>2021-03-26T12:40:14Z</time>
      </trkpt>
      <trkpt lat="45.67084" lon="6.84181">
        <ele>2547.7</ele>
        <time>2021-03-26T12:40:15Z</time>
      </trkpt>
      <trkpt lat="45.67082" lon="6.84181">
        <ele>2546.8</ele>
        <time>2021-03-26T12:40:16Z</time>
      </trkpt>
      <trkpt lat="45.67082" lon="6.84178">
        <ele>2546.8</ele>
        <time>2021-03-26T12:40:17Z</time>
      </trkpt>
      <trkpt lat="45.67082" lon="6.8418">
        <ele>2546.8</ele>
        <time>2021-03-26T12:40:18Z</time>
      </trkpt>
      <trkpt lat="45.67082" lon="6.8418">
        <ele>2546.8</ele>
        <time>2021-03-26T12:40:19Z</time>
      </trkpt>
      <trkpt lat="45.67082" lon="6.8418">
        <ele>2546.8</ele>
        <time>2021-03-26T12:40:20Z</time>
      </trkpt>
      <trkpt lat="45.67082" lon="6.8418">
        <ele>2546.8</ele>
        <time>2021-03-26T12:40:21Z</time>
      </trkpt>
      <trkpt lat="45.67082" lon="6.8418">
        <ele>2546.8</ele>
        <time>2021-03-26T12:40:22Z</time>
      </trkpt>
      <trkpt lat="45.67082" lon="6.8418">
        <ele>2546.8</ele>
        <time>2021-03-26T12:40:23Z</time>
      </trkpt>
      <trkpt lat="45.67082" lon="6.8418">
        <ele>2546.8</ele>
        <time>2021-03-26T12:40:24Z</time>
      </trkpt>
      <trkpt lat="45.67082" lon="6.8418">
        <ele>2546.8</ele>
        <time>2021-03-26T12:40:25Z</time>
      </trkpt>
      <trkpt lat="45.67082" lon="6.8418">
        <ele>2546.8</ele>
        <time>2021-03-26T12:40:26Z</time>
      </trkpt>
      <trkpt lat="45.67082" lon="6.8418">
        <ele>2546.8</ele>
        <time>2021-03-26T12:40:27Z</time>
      </trkpt>
      <trkpt lat="45.67082" lon="6.8418">
        <ele>2546.8</ele>
        <time>2021-03-26T12:40:28Z</time>
      </trkpt>
      <trkpt lat="45.67076" lon="6.84176">
        <ele>2544.3</ele>
        <time>2021-03-26T12:40:48Z</time>
      </trkpt>
      <trkpt lat="45.67073" lon="6.84175">
        <ele>2543.5</ele>
        <time>2021-03-26T12:40:49Z</time>
      </trkpt>
      <trkpt lat="45.6707" lon="6.84174">
        <ele>2542.3</ele>
        <time>2021-03-26T12:40:50Z</time>
      </trkpt>
      <trkpt lat="45.67066" lon="6.84172">
        <ele>2541.7</ele>
        <time>2021-03-26T12:40:51Z</time>
      </trkpt>
      <trkpt lat="45.67063" lon="6.84171">
        <ele>2541.2</ele>
        <time>2021-03-26T12:40:52Z</time>
      </trkpt>
      <trkpt lat="45.6706" lon="6.8417">
        <ele>2540.5</ele>
        <time>2021-03-26T12:40:53Z</time>
      </trkpt>
      <trkpt lat="45.67057" lon="6.8417">
        <ele>2539.9</ele>
        <time>2021-03-26T12:40:54Z</time>
      </trkpt>
      <trkpt lat="45.67054" lon="6.8417">
        <ele>2539.2</ele>
        <time>2021-03-26T12:40:55Z</time>
      </trkpt>
      <trkpt lat="45.67051" lon="6.84169">
        <ele>2538.1</ele>
        <time>2021-03-26T12:40:56Z</time>
      </trkpt>
      <trkpt lat="45.67048" lon="6.84168">
        <ele>2537.5</ele>
        <time>2021-03-26T12:40:57Z</time>
      </trkpt>
      <trkpt lat="45.67045" lon="6.84167">
        <ele>2537</ele>
        <time>2021-03-26T12:40:58Z</time>
      </trkpt>
      <trkpt lat="45.67043" lon="6.84166">
        <ele>2536.5</ele>
        <time>2021-03-26T12:40:59Z</time>
      </trkpt>
      <trkpt lat="45.67039" lon="6.84164">
        <ele>2535.5</ele>
        <time>2021-03-26T12:41:00Z</time>
      </trkpt>
      <trkpt lat="45.67038" lon="6.84163">
        <ele>2535</ele>
        <time>2021-03-26T12:41:01Z</time>
      </trkpt>
      <trkpt lat="45.67037" lon="6.84162">
        <ele>2535</ele>
        <time>2021-03-26T12:41:02Z</time>
      </trkpt>
      <trkpt lat="45.67036" lon="6.8416">
        <ele>2534.6</ele>
        <time>2021-03-26T12:41:03Z</time>
      </trkpt>
      <trkpt lat="45.67035" lon="6.84158">
        <ele>2533.9</ele>
        <time>2021-03-26T12:41:04Z</time>
      </trkpt>
      <trkpt lat="45.67034" lon="6.84158">
        <ele>2533.9</ele>
        <time>2021-03-26T12:41:05Z</time>
      </trkpt>
      <trkpt lat="45.67034" lon="6.84157">
        <ele>2533.9</ele>
        <time>2021-03-26T12:41:06Z</time>
      </trkpt>
      <trkpt lat="45.67034" lon="6.84157">
        <ele>2533.9</ele>
        <time>2021-03-26T12:41:07Z</time>
      </trkpt>
      <trkpt lat="45.67033" lon="6.84158">
        <ele>2533.9</ele>
        <time>2021-03-26T12:41:08Z</time>
      </trkpt>
      <trkpt lat="45.67033" lon="6.84158">
        <ele>2533.9</ele>
        <time>2021-03-26T12:41:09Z</time>
      </trkpt>
      <trkpt lat="45.67033" lon="6.84158">
        <ele>2533.9</ele>
        <time>2021-03-26T12:41:10Z</time>
      </trkpt>
      <trkpt lat="45.67033" lon="6.84158">
        <ele>2533.9</ele>
        <time>2021-03-26T12:41:11Z</time>
      </trkpt>
      <trkpt lat="45.67033" lon="6.84158">
        <ele>2533.9</ele>
        <time>2021-03-26T12:41:12Z</time>
      </trkpt>
      <trkpt lat="45.67033" lon="6.84158">
        <ele>2533.9</ele>
        <time>2021-03-26T12:41:13Z</time>
      </trkpt>
      <trkpt lat="45.67033" lon="6.84158">
        <ele>2533.9</ele>
        <time>2021-03-26T12:41:14Z</time>
      </trkpt>
      <trkpt lat="45.67033" lon="6.84158">
        <ele>2533.9</ele>
        <time>2021-03-26T12:41:15Z</time>
      </trkpt>
      <trkpt lat="45.67033" lon="6.84158">
        <ele>2533.9</ele>
        <time>2021-03-26T12:41:16Z</time>
      </trkpt>
      <trkpt lat="45.67036" lon="6.84144">
        <ele>2533.2</ele>
        <time>2021-03-26T12:42:03Z</time>
      </trkpt>
      <trkpt lat="45.67036" lon="6.84143">
        <ele>2532.7</ele>
        <time>2021-03-26T12:42:04Z</time>
      </trkpt>
      <trkpt lat="45.67037" lon="6.84141">
        <ele>2532.7</ele>
        <time>2021-03-26T12:42:05Z</time>
      </trkpt>
      <trkpt lat="45.67038" lon="6.84139">
        <ele>2532.2</ele>
        <time>2021-03-26T12:42:06Z</time>
      </trkpt>
      <trkpt lat="45.67039" lon="6.84138">
        <ele>2532.7</ele>
        <time>2021-03-26T12:42:07Z</time>
      </trkpt>
      <trkpt lat="45.67039" lon="6.84137">
        <ele>2532.7</ele>
        <time>2021-03-26T12:42:08Z</time>
      </trkpt>
      <trkpt lat="45.67039" lon="6.84132">
        <ele>2532.2</ele>
        <time>2021-03-26T12:42:09Z</time>
      </trkpt>
      <trkpt lat="45.67038" lon="6.84131">
        <ele>2531.2</ele>
        <time>2021-03-26T12:42:10Z</time>
      </trkpt>
      <trkpt lat="45.67038" lon="6.84127">
        <ele>2531.2</ele>
        <time>2021-03-26T12:42:11Z</time>
      </trkpt>
      <trkpt lat="45.67038" lon="6.84123">
        <ele>2530.8</ele>
        <time>2021-03-26T12:42:12Z</time>
      </trkpt>
      <trkpt lat="45.67039" lon="6.84118">
        <ele>2531</ele>
        <time>2021-03-26T12:42:13Z</time>
      </trkpt>
      <trkpt lat="45.6704" lon="6.84113">
        <ele>2530.4</ele>
        <time>2021-03-26T12:42:14Z</time>
      </trkpt>
      <trkpt lat="45.6704" lon="6.84108">
        <ele>2530.1</ele>
        <time>2021-03-26T12:42:15Z</time>
      </trkpt>
      <trkpt lat="45.67039" lon="6.84103">
        <ele>2529.8</ele>
        <time>2021-03-26T12:42:16Z</time>
      </trkpt>
      <trkpt lat="45.67038" lon="6.84102">
        <ele>2529.3</ele>
        <time>2021-03-26T12:42:17Z</time>
      </trkpt>
      <trkpt lat="45.67035" lon="6.84099">
        <ele>2528.5</ele>
        <time>2021-03-26T12:42:18Z</time>
      </trkpt>
      <trkpt lat="45.67033" lon="6.84098">
        <ele>2528.5</ele>
        <time>2021-03-26T12:42:19Z</time>
      </trkpt>
      <trkpt lat="45.67031" lon="6.84094">
        <ele>2527.7</ele>
        <time>2021-03-26T12:42:20Z</time>
      </trkpt>
      <trkpt lat="45.6703" lon="6.84092">
        <ele>2527.6</ele>
        <time>2021-03-26T12:42:21Z</time>
      </trkpt>
      <trkpt lat="45.67027" lon="6.84088">
        <ele>2526.9</ele>
        <time>2021-03-26T12:42:22Z</time>
      </trkpt>
      <trkpt lat="45.67026" lon="6.84086">
        <ele>2526.4</ele>
        <time>2021-03-26T12:42:23Z</time>
      </trkpt>
      <trkpt lat="45.67025" lon="6.84083">
        <ele>2526.3</ele>
        <time>2021-03-26T12:42:24Z</time>
      </trkpt>
      <trkpt lat="45.67022" lon="6.84079">
        <ele>2525.8</ele>
        <time>2021-03-26T12:42:25Z</time>
      </trkpt>
      <trkpt lat="45.6702" lon="6.84078">
        <ele>2525.4</ele>
        <time>2021-03-26T12:42:26Z</time>
      </trkpt>
      <trkpt lat="45.67017" lon="6.84079">
        <ele>2525.1</ele>
        <time>2021-03-26T12:42:27Z</time>
      </trkpt>
      <trkpt lat="45.67014" lon="6.84082">
        <ele>2524.7</ele>
        <time>2021-03-26T12:42:28Z</time>
      </trkpt>
      <trkpt lat="45.67013" lon="6.84085">
        <ele>2524.7</ele>
        <time>2021-03-26T12:42:29Z</time>
      </trkpt>
      <trkpt lat="45.67011" lon="6.84089">
        <ele>2524.3</ele>
        <time>2021-03-26T12:42:30Z</time>
      </trkpt>
      <trkpt lat="45.6701" lon="6.8409">
        <ele>2524.3</ele>
        <time>2021-03-26T12:42:31Z</time>
      </trkpt>
      <trkpt lat="45.67008" lon="6.84093">
        <ele>2524</ele>
        <time>2021-03-26T12:42:32Z</time>
      </trkpt>
      <trkpt lat="45.67006" lon="6.84096">
        <ele>2524</ele>
        <time>2021-03-26T12:42:33Z</time>
      </trkpt>
      <trkpt lat="45.67003" lon="6.84099">
        <ele>2523.7</ele>
        <time>2021-03-26T12:42:34Z</time>
      </trkpt>
      <trkpt lat="45.67001" lon="6.84101">
        <ele>2523.4</ele>
        <time>2021-03-26T12:42:35Z</time>
      </trkpt>
      <trkpt lat="45.66999" lon="6.84103">
        <ele>2522.9</ele>
        <time>2021-03-26T12:42:36Z</time>
      </trkpt>
      <trkpt lat="45.66997" lon="6.84106">
        <ele>2523</ele>
        <time>2021-03-26T12:42:37Z</time>
      </trkpt>
      <trkpt lat="45.66994" lon="6.84109">
        <ele>2522.6</ele>
        <time>2021-03-26T12:42:38Z</time>
      </trkpt>
      <trkpt lat="45.66993" lon="6.84109">
        <ele>2522.1</ele>
        <time>2021-03-26T12:42:39Z</time>
      </trkpt>
      <trkpt lat="45.66993" lon="6.8411">
        <ele>2522.3</ele>
        <time>2021-03-26T12:42:40Z</time>
      </trkpt>
      <trkpt lat="45.66993" lon="6.8411">
        <ele>2522.3</ele>
        <time>2021-03-26T12:42:41Z</time>
      </trkpt>
      <trkpt lat="45.66993" lon="6.8411">
        <ele>2522.3</ele>
        <time>2021-03-26T12:42:42Z</time>
      </trkpt>
      <trkpt lat="45.66993" lon="6.8411">
        <ele>2522.3</ele>
        <time>2021-03-26T12:42:43Z</time>
      </trkpt>
      <trkpt lat="45.66993" lon="6.8411">
        <ele>2522.3</ele>
        <time>2021-03-26T12:42:44Z</time>
      </trkpt>
      <trkpt lat="45.66993" lon="6.8411">
        <ele>2522.3</ele>
        <time>2021-03-26T12:42:45Z</time>
      </trkpt>
      <trkpt lat="45.66993" lon="6.8411">
        <ele>2522.3</ele>
        <time>2021-03-26T12:42:46Z</time>
      </trkpt>
      <trkpt lat="45.66993" lon="6.8411">
        <ele>2522.3</ele>
        <time>2021-03-26T12:42:47Z</time>
      </trkpt>
      <trkpt lat="45.66993" lon="6.8411">
        <ele>2522.3</ele>
        <time>2021-03-26T12:42:48Z</time>
      </trkpt>
      <trkpt lat="45.66993" lon="6.8411">
        <ele>2522.3</ele>
        <time>2021-03-26T12:42:49Z</time>
      </trkpt>
      <trkpt lat="45.66993" lon="6.8411">
        <ele>2522.3</ele>
        <time>2021-03-26T12:42:50Z</time>
      </trkpt>
      <trkpt lat="45.66993" lon="6.8411">
        <ele>2522.3</ele>
        <time>2021-03-26T12:42:51Z</time>
      </trkpt>
      <trkpt lat="45.66982" lon="6.8411">
        <ele>2521.1</ele>
        <time>2021-03-26T12:43:32Z</time>
      </trkpt>
      <trkpt lat="45.66979" lon="6.84111">
        <ele>2520.7</ele>
        <time>2021-03-26T12:43:33Z</time>
      </trkpt>
      <trkpt lat="45.66977" lon="6.84112">
        <ele>2520.2</ele>
        <time>2021-03-26T12:43:34Z</time>
      </trkpt>
      <trkpt lat="45.66976" lon="6.84112">
        <ele>2520.2</ele>
        <time>2021-03-26T12:43:35Z</time>
      </trkpt>
      <trkpt lat="45.66974" lon="6.84113">
        <ele>2519.7</ele>
        <time>2021-03-26T12:43:36Z</time>
      </trkpt>
      <trkpt lat="45.66973" lon="6.84115">
        <ele>2519.7</ele>
        <time>2021-03-26T12:43:37Z</time>
      </trkpt>
      <trkpt lat="45.66971" lon="6.84118">
        <ele>2519.1</ele>
        <time>2021-03-26T12:43:38Z</time>
      </trkpt>
      <trkpt lat="45.6697" lon="6.84119">
        <ele>2519.1</ele>
        <time>2021-03-26T12:43:39Z</time>
      </trkpt>
      <trkpt lat="45.66969" lon="6.84123">
        <ele>2518.4</ele>
        <time>2021-03-26T12:43:40Z</time>
      </trkpt>
      <trkpt lat="45.66968" lon="6.84128">
        <ele>2518.3</ele>
        <time>2021-03-26T12:43:41Z</time>
      </trkpt>
      <trkpt lat="45.66967" lon="6.84134">
        <ele>2518.2</ele>
        <time>2021-03-26T12:43:42Z</time>
      </trkpt>
      <trkpt lat="45.66966" lon="6.84141">
        <ele>2517.4</ele>
        <time>2021-03-26T12:43:43Z</time>
      </trkpt>
      <trkpt lat="45.66965" lon="6.84147">
        <ele>2517.4</ele>
        <time>2021-03-26T12:43:44Z</time>
      </trkpt>
      <trkpt lat="45.66963" lon="6.84152">
        <ele>2516.6</ele>
        <time>2021-03-26T12:43:45Z</time>
      </trkpt>
      <trkpt lat="45.66961" lon="6.84156">
        <ele>2516.6</ele>
        <time>2021-03-26T12:43:46Z</time>
      </trkpt>
      <trkpt lat="45.66956" lon="6.84164">
        <ele>2515.2</ele>
        <time>2021-03-26T12:43:47Z</time>
      </trkpt>
      <trkpt lat="45.66952" lon="6.84172">
        <ele>2514.6</ele>
        <time>2021-03-26T12:43:48Z</time>
      </trkpt>
      <trkpt lat="45.66948" lon="6.8418">
        <ele>2513.4</ele>
        <time>2021-03-26T12:43:49Z</time>
      </trkpt>
      <trkpt lat="45.66943" lon="6.84185">
        <ele>2512.9</ele>
        <time>2021-03-26T12:43:50Z</time>
      </trkpt>
      <trkpt lat="45.66939" lon="6.84186">
        <ele>2511.3</ele>
        <time>2021-03-26T12:43:51Z</time>
      </trkpt>
      <trkpt lat="45.66935" lon="6.84179">
        <ele>2510.3</ele>
        <time>2021-03-26T12:43:52Z</time>
      </trkpt>
      <trkpt lat="45.66931" lon="6.8417">
        <ele>2509.3</ele>
        <time>2021-03-26T12:43:53Z</time>
      </trkpt>
      <trkpt lat="45.66929" lon="6.84154">
        <ele>2508.7</ele>
        <time>2021-03-26T12:43:54Z</time>
      </trkpt>
      <trkpt lat="45.66926" lon="6.84147">
        <ele>2508.4</ele>
        <time>2021-03-26T12:43:55Z</time>
      </trkpt>
      <trkpt lat="45.66924" lon="6.84141">
        <ele>2508</ele>
        <time>2021-03-26T12:43:56Z</time>
      </trkpt>
      <trkpt lat="45.6692" lon="6.8414">
        <ele>2507.3</ele>
        <time>2021-03-26T12:43:57Z</time>
      </trkpt>
      <trkpt lat="45.66915" lon="6.84141">
        <ele>2505.9</ele>
        <time>2021-03-26T12:43:58Z</time>
      </trkpt>
      <trkpt lat="45.66914" lon="6.84136">
        <ele>2506</ele>
        <time>2021-03-26T12:43:59Z</time>
      </trkpt>
      <trkpt lat="45.6691" lon="6.84131">
        <ele>2505.3</ele>
        <time>2021-03-26T12:44:00Z</time>
      </trkpt>
      <trkpt lat="45.66905" lon="6.8413">
        <ele>2503.8</ele>
        <time>2021-03-26T12:44:01Z</time>
      </trkpt>
      <trkpt lat="45.66899" lon="6.84127">
        <ele>2502.4</ele>
        <time>2021-03-26T12:44:02Z</time>
      </trkpt>
      <trkpt lat="45.66894" lon="6.84136">
        <ele>2501.1</ele>
        <time>2021-03-26T12:44:03Z</time>
      </trkpt>
      <trkpt lat="45.66888" lon="6.84137">
        <ele>2499.5</ele>
        <time>2021-03-26T12:44:04Z</time>
      </trkpt>
      <trkpt lat="45.66884" lon="6.84149">
        <ele>2499.5</ele>
        <time>2021-03-26T12:44:05Z</time>
      </trkpt>
      <trkpt lat="45.66879" lon="6.84151">
        <ele>2498.2</ele>
        <time>2021-03-26T12:44:06Z</time>
      </trkpt>
      <trkpt lat="45.6688" lon="6.84146">
        <ele>2498.6</ele>
        <time>2021-03-26T12:44:07Z</time>
      </trkpt>
      <trkpt lat="45.6688" lon="6.84143">
        <ele>2498.3</ele>
        <time>2021-03-26T12:44:08Z</time>
      </trkpt>
      <trkpt lat="45.66879" lon="6.8414">
        <ele>2497.6</ele>
        <time>2021-03-26T12:44:09Z</time>
      </trkpt>
      <trkpt lat="45.66877" lon="6.84134">
        <ele>2497</ele>
        <time>2021-03-26T12:44:10Z</time>
      </trkpt>
      <trkpt lat="45.66876" lon="6.84133">
        <ele>2496.3</ele>
        <time>2021-03-26T12:44:11Z</time>
      </trkpt>
      <trkpt lat="45.66873" lon="6.8413">
        <ele>2495.3</ele>
        <time>2021-03-26T12:44:12Z</time>
      </trkpt>
      <trkpt lat="45.66869" lon="6.84133">
        <ele>2494.9</ele>
        <time>2021-03-26T12:44:13Z</time>
      </trkpt>
      <trkpt lat="45.66867" lon="6.84134">
        <ele>2494.1</ele>
        <time>2021-03-26T12:44:14Z</time>
      </trkpt>
      <trkpt lat="45.66863" lon="6.84134">
        <ele>2493.2</ele>
        <time>2021-03-26T12:44:15Z</time>
      </trkpt>
      <trkpt lat="45.66854" lon="6.84134">
        <ele>2490.8</ele>
        <time>2021-03-26T12:44:16Z</time>
      </trkpt>
      <trkpt lat="45.66848" lon="6.84135">
        <ele>2490</ele>
        <time>2021-03-26T12:44:17Z</time>
      </trkpt>
      <trkpt lat="45.66843" lon="6.84135">
        <ele>2488.2</ele>
        <time>2021-03-26T12:44:18Z</time>
      </trkpt>
      <trkpt lat="45.66837" lon="6.84134">
        <ele>2486.9</ele>
        <time>2021-03-26T12:44:19Z</time>
      </trkpt>
      <trkpt lat="45.66831" lon="6.84135">
        <ele>2486.1</ele>
        <time>2021-03-26T12:44:20Z</time>
      </trkpt>
      <trkpt lat="45.66826" lon="6.84135">
        <ele>2484.9</ele>
        <time>2021-03-26T12:44:21Z</time>
      </trkpt>
      <trkpt lat="45.66822" lon="6.84136">
        <ele>2484.1</ele>
        <time>2021-03-26T12:44:22Z</time>
      </trkpt>
      <trkpt lat="45.66817" lon="6.84135">
        <ele>2483.5</ele>
        <time>2021-03-26T12:44:23Z</time>
      </trkpt>
      <trkpt lat="45.66812" lon="6.84136">
        <ele>2482.3</ele>
        <time>2021-03-26T12:44:24Z</time>
      </trkpt>
      <trkpt lat="45.66807" lon="6.84136">
        <ele>2480.6</ele>
        <time>2021-03-26T12:44:25Z</time>
      </trkpt>
      <trkpt lat="45.66802" lon="6.84134">
        <ele>2479.1</ele>
        <time>2021-03-26T12:44:26Z</time>
      </trkpt>
      <trkpt lat="45.66798" lon="6.84133">
        <ele>2477.3</ele>
        <time>2021-03-26T12:44:27Z</time>
      </trkpt>
      <trkpt lat="45.66792" lon="6.84131">
        <ele>2475.7</ele>
        <time>2021-03-26T12:44:28Z</time>
      </trkpt>
      <trkpt lat="45.66787" lon="6.84129">
        <ele>2474.4</ele>
        <time>2021-03-26T12:44:29Z</time>
      </trkpt>
      <trkpt lat="45.66782" lon="6.84127">
        <ele>2472.5</ele>
        <time>2021-03-26T12:44:30Z</time>
      </trkpt>
      <trkpt lat="45.66777" lon="6.84124">
        <ele>2469.3</ele>
        <time>2021-03-26T12:44:31Z</time>
      </trkpt>
      <trkpt lat="45.66772" lon="6.84124">
        <ele>2468.2</ele>
        <time>2021-03-26T12:44:32Z</time>
      </trkpt>
      <trkpt lat="45.66768" lon="6.84124">
        <ele>2466.1</ele>
        <time>2021-03-26T12:44:33Z</time>
      </trkpt>
      <trkpt lat="45.66766" lon="6.84124">
        <ele>2466.1</ele>
        <time>2021-03-26T12:44:34Z</time>
      </trkpt>
      <trkpt lat="45.66765" lon="6.84124">
        <ele>2465</ele>
        <time>2021-03-26T12:44:35Z</time>
      </trkpt>
      <trkpt lat="45.66765" lon="6.84125">
        <ele>2465</ele>
        <time>2021-03-26T12:44:36Z</time>
      </trkpt>
      <trkpt lat="45.66764" lon="6.84125">
        <ele>2465</ele>
        <time>2021-03-26T12:44:37Z</time>
      </trkpt>
      <trkpt lat="45.66763" lon="6.84126">
        <ele>2465</ele>
        <time>2021-03-26T12:44:38Z</time>
      </trkpt>
      <trkpt lat="45.66761" lon="6.84126">
        <ele>2463.9</ele>
        <time>2021-03-26T12:44:39Z</time>
      </trkpt>
      <trkpt lat="45.6676" lon="6.84126">
        <ele>2463.9</ele>
        <time>2021-03-26T12:44:40Z</time>
      </trkpt>
      <trkpt lat="45.6676" lon="6.84126">
        <ele>2463.9</ele>
        <time>2021-03-26T12:44:41Z</time>
      </trkpt>
      <trkpt lat="45.6676" lon="6.84126">
        <ele>2463.9</ele>
        <time>2021-03-26T12:44:42Z</time>
      </trkpt>
      <trkpt lat="45.66759" lon="6.84128">
        <ele>2463</ele>
        <time>2021-03-26T12:44:43Z</time>
      </trkpt>
      <trkpt lat="45.66759" lon="6.8413">
        <ele>2463</ele>
        <time>2021-03-26T12:44:44Z</time>
      </trkpt>
      <trkpt lat="45.66758" lon="6.84131">
        <ele>2463.3</ele>
        <time>2021-03-26T12:44:45Z</time>
      </trkpt>
      <trkpt lat="45.66758" lon="6.84131">
        <ele>2463.3</ele>
        <time>2021-03-26T12:44:46Z</time>
      </trkpt>
      <trkpt lat="45.66758" lon="6.84131">
        <ele>2463.3</ele>
        <time>2021-03-26T12:44:47Z</time>
      </trkpt>
      <trkpt lat="45.66758" lon="6.84131">
        <ele>2463.3</ele>
        <time>2021-03-26T12:44:48Z</time>
      </trkpt>
      <trkpt lat="45.66758" lon="6.84131">
        <ele>2463.3</ele>
        <time>2021-03-26T12:44:49Z</time>
      </trkpt>
      <trkpt lat="45.66758" lon="6.84131">
        <ele>2463.3</ele>
        <time>2021-03-26T12:44:50Z</time>
      </trkpt>
      <trkpt lat="45.66758" lon="6.84131">
        <ele>2463.3</ele>
        <time>2021-03-26T12:44:51Z</time>
      </trkpt>
      <trkpt lat="45.66749" lon="6.84127">
        <ele>2458.8</ele>
        <time>2021-03-26T12:45:39Z</time>
      </trkpt>
      <trkpt lat="45.66749" lon="6.84126">
        <ele>2458.8</ele>
        <time>2021-03-26T12:45:40Z</time>
      </trkpt>
      <trkpt lat="45.66749" lon="6.84126">
        <ele>2458.8</ele>
        <time>2021-03-26T12:45:41Z</time>
      </trkpt>
      <trkpt lat="45.66749" lon="6.84126">
        <ele>2458.8</ele>
        <time>2021-03-26T12:45:42Z</time>
      </trkpt>
      <trkpt lat="45.66749" lon="6.84126">
        <ele>2458.8</ele>
        <time>2021-03-26T12:45:43Z</time>
      </trkpt>
      <trkpt lat="45.66749" lon="6.84126">
        <ele>2458.8</ele>
        <time>2021-03-26T12:45:44Z</time>
      </trkpt>
      <trkpt lat="45.66749" lon="6.84126">
        <ele>2458.8</ele>
        <time>2021-03-26T12:45:45Z</time>
      </trkpt>
      <trkpt lat="45.66751" lon="6.84126">
        <ele>2460.3</ele>
        <time>2021-03-26T12:45:46Z</time>
      </trkpt>
      <trkpt lat="45.66752" lon="6.84126">
        <ele>2460</ele>
        <time>2021-03-26T12:45:47Z</time>
      </trkpt>
      <trkpt lat="45.66752" lon="6.84122">
        <ele>2459.7</ele>
        <time>2021-03-26T12:45:48Z</time>
      </trkpt>
      <trkpt lat="45.66752" lon="6.8412">
        <ele>2459.7</ele>
        <time>2021-03-26T12:45:49Z</time>
      </trkpt>
      <trkpt lat="45.6675" lon="6.84116">
        <ele>2458</ele>
        <time>2021-03-26T12:45:50Z</time>
      </trkpt>
      <trkpt lat="45.66749" lon="6.84115">
        <ele>2458</ele>
        <time>2021-03-26T12:45:51Z</time>
      </trkpt>
      <trkpt lat="45.66746" lon="6.84113">
        <ele>2456.4</ele>
        <time>2021-03-26T12:45:52Z</time>
      </trkpt>
      <trkpt lat="45.66745" lon="6.84112">
        <ele>2456.4</ele>
        <time>2021-03-26T12:45:53Z</time>
      </trkpt>
      <trkpt lat="45.66742" lon="6.84109">
        <ele>2455</ele>
        <time>2021-03-26T12:45:54Z</time>
      </trkpt>
      <trkpt lat="45.66741" lon="6.84108">
        <ele>2453.3</ele>
        <time>2021-03-26T12:45:55Z</time>
      </trkpt>
      <trkpt lat="45.66739" lon="6.84104">
        <ele>2453.1</ele>
        <time>2021-03-26T12:45:56Z</time>
      </trkpt>
      <trkpt lat="45.66739" lon="6.84102">
        <ele>2453.1</ele>
        <time>2021-03-26T12:45:57Z</time>
      </trkpt>
      <trkpt lat="45.66741" lon="6.84099">
        <ele>2452.8</ele>
        <time>2021-03-26T12:45:58Z</time>
      </trkpt>
      <trkpt lat="45.66742" lon="6.84099">
        <ele>2454.1</ele>
        <time>2021-03-26T12:45:59Z</time>
      </trkpt>
      <trkpt lat="45.66745" lon="6.84099">
        <ele>2455.4</ele>
        <time>2021-03-26T12:46:00Z</time>
      </trkpt>
      <trkpt lat="45.66748" lon="6.841">
        <ele>2456.8</ele>
        <time>2021-03-26T12:46:01Z</time>
      </trkpt>
      <trkpt lat="45.66752" lon="6.841">
        <ele>2458.1</ele>
        <time>2021-03-26T12:46:02Z</time>
      </trkpt>
      <trkpt lat="45.66754" lon="6.841">
        <ele>2459.4</ele>
        <time>2021-03-26T12:46:03Z</time>
      </trkpt>
      <trkpt lat="45.66757" lon="6.84098">
        <ele>2460.6</ele>
        <time>2021-03-26T12:46:04Z</time>
      </trkpt>
      <trkpt lat="45.66759" lon="6.84095">
        <ele>2460.2</ele>
        <time>2021-03-26T12:46:05Z</time>
      </trkpt>
      <trkpt lat="45.6676" lon="6.84093">
        <ele>2461.3</ele>
        <time>2021-03-26T12:46:06Z</time>
      </trkpt>
      <trkpt lat="45.6676" lon="6.84091">
        <ele>2460.9</ele>
        <time>2021-03-26T12:46:07Z</time>
      </trkpt>
      <trkpt lat="45.66761" lon="6.84087">
        <ele>2460.4</ele>
        <time>2021-03-26T12:46:08Z</time>
      </trkpt>
      <trkpt lat="45.66762" lon="6.84085">
        <ele>2460.4</ele>
        <time>2021-03-26T12:46:09Z</time>
      </trkpt>
      <trkpt lat="45.6676" lon="6.84081">
        <ele>2460</ele>
        <time>2021-03-26T12:46:10Z</time>
      </trkpt>
      <trkpt lat="45.66759" lon="6.8408">
        <ele>2458.9</ele>
        <time>2021-03-26T12:46:11Z</time>
      </trkpt>
      <trkpt lat="45.66756" lon="6.84078">
        <ele>2457.3</ele>
        <time>2021-03-26T12:46:12Z</time>
      </trkpt>
      <trkpt lat="45.66753" lon="6.84075">
        <ele>2456</ele>
        <time>2021-03-26T12:46:13Z</time>
      </trkpt>
      <trkpt lat="45.66751" lon="6.84073">
        <ele>2455.7</ele>
        <time>2021-03-26T12:46:14Z</time>
      </trkpt>
      <trkpt lat="45.66749" lon="6.8407">
        <ele>2454.1</ele>
        <time>2021-03-26T12:46:15Z</time>
      </trkpt>
      <trkpt lat="45.66747" lon="6.84066">
        <ele>2452.5</ele>
        <time>2021-03-26T12:46:16Z</time>
      </trkpt>
      <trkpt lat="45.66747" lon="6.84062">
        <ele>2452.5</ele>
        <time>2021-03-26T12:46:17Z</time>
      </trkpt>
      <trkpt lat="45.66748" lon="6.84058">
        <ele>2453</ele>
        <time>2021-03-26T12:46:18Z</time>
      </trkpt>
      <trkpt lat="45.66749" lon="6.84056">
        <ele>2453</ele>
        <time>2021-03-26T12:46:19Z</time>
      </trkpt>
      <trkpt lat="45.66749" lon="6.84052">
        <ele>2452.7</ele>
        <time>2021-03-26T12:46:20Z</time>
      </trkpt>
      <trkpt lat="45.66746" lon="6.84047">
        <ele>2451.2</ele>
        <time>2021-03-26T12:46:21Z</time>
      </trkpt>
      <trkpt lat="45.66744" lon="6.84046">
        <ele>2450.1</ele>
        <time>2021-03-26T12:46:22Z</time>
      </trkpt>
      <trkpt lat="45.66741" lon="6.84045">
        <ele>2448.7</ele>
        <time>2021-03-26T12:46:23Z</time>
      </trkpt>
      <trkpt lat="45.66737" lon="6.84043">
        <ele>2447.7</ele>
        <time>2021-03-26T12:46:24Z</time>
      </trkpt>
      <trkpt lat="45.66733" lon="6.84041">
        <ele>2445.7</ele>
        <time>2021-03-26T12:46:25Z</time>
      </trkpt>
      <trkpt lat="45.66729" lon="6.84039">
        <ele>2444.4</ele>
        <time>2021-03-26T12:46:26Z</time>
      </trkpt>
      <trkpt lat="45.66726" lon="6.84037">
        <ele>2443.3</ele>
        <time>2021-03-26T12:46:27Z</time>
      </trkpt>
      <trkpt lat="45.66724" lon="6.84035">
        <ele>2441.9</ele>
        <time>2021-03-26T12:46:28Z</time>
      </trkpt>
      <trkpt lat="45.66721" lon="6.84033">
        <ele>2441.9</ele>
        <time>2021-03-26T12:46:29Z</time>
      </trkpt>
      <trkpt lat="45.6672" lon="6.8403">
        <ele>2440.5</ele>
        <time>2021-03-26T12:46:30Z</time>
      </trkpt>
      <trkpt lat="45.66721" lon="6.84028">
        <ele>2441.7</ele>
        <time>2021-03-26T12:46:31Z</time>
      </trkpt>
      <trkpt lat="45.66722" lon="6.84026">
        <ele>2441.5</ele>
        <time>2021-03-26T12:46:32Z</time>
      </trkpt>
      <trkpt lat="45.66725" lon="6.84019">
        <ele>2442.6</ele>
        <time>2021-03-26T12:46:33Z</time>
      </trkpt>
      <trkpt lat="45.66726" lon="6.84012">
        <ele>2442.4</ele>
        <time>2021-03-26T12:46:34Z</time>
      </trkpt>
      <trkpt lat="45.66725" lon="6.84006">
        <ele>2442.3</ele>
        <time>2021-03-26T12:46:35Z</time>
      </trkpt>
      <trkpt lat="45.66722" lon="6.83999">
        <ele>2441.2</ele>
        <time>2021-03-26T12:46:36Z</time>
      </trkpt>
      <trkpt lat="45.66715" lon="6.83992">
        <ele>2439.3</ele>
        <time>2021-03-26T12:46:37Z</time>
      </trkpt>
      <trkpt lat="45.66711" lon="6.83986">
        <ele>2437.7</ele>
        <time>2021-03-26T12:46:38Z</time>
      </trkpt>
      <trkpt lat="45.66708" lon="6.8398">
        <ele>2437.2</ele>
        <time>2021-03-26T12:46:39Z</time>
      </trkpt>
      <trkpt lat="45.66705" lon="6.83976">
        <ele>2436.6</ele>
        <time>2021-03-26T12:46:40Z</time>
      </trkpt>
      <trkpt lat="45.66701" lon="6.83973">
        <ele>2435.7</ele>
        <time>2021-03-26T12:46:41Z</time>
      </trkpt>
      <trkpt lat="45.66697" lon="6.83969">
        <ele>2434.8</ele>
        <time>2021-03-26T12:46:42Z</time>
      </trkpt>
      <trkpt lat="45.66692" lon="6.83968">
        <ele>2432.8</ele>
        <time>2021-03-26T12:46:43Z</time>
      </trkpt>
      <trkpt lat="45.66687" lon="6.83967">
        <ele>2431.2</ele>
        <time>2021-03-26T12:46:44Z</time>
      </trkpt>
      <trkpt lat="45.66685" lon="6.83972">
        <ele>2430.8</ele>
        <time>2021-03-26T12:46:45Z</time>
      </trkpt>
      <trkpt lat="45.66682" lon="6.83973">
        <ele>2430</ele>
        <time>2021-03-26T12:46:46Z</time>
      </trkpt>
      <trkpt lat="45.66679" lon="6.83973">
        <ele>2429.1</ele>
        <time>2021-03-26T12:46:47Z</time>
      </trkpt>
      <trkpt lat="45.66677" lon="6.8397">
        <ele>2428.4</ele>
        <time>2021-03-26T12:46:48Z</time>
      </trkpt>
      <trkpt lat="45.66673" lon="6.83969">
        <ele>2427.5</ele>
        <time>2021-03-26T12:46:49Z</time>
      </trkpt>
      <trkpt lat="45.66672" lon="6.83969">
        <ele>2426.5</ele>
        <time>2021-03-26T12:46:50Z</time>
      </trkpt>
      <trkpt lat="45.66673" lon="6.83971">
        <ele>2427.5</ele>
        <time>2021-03-26T12:46:51Z</time>
      </trkpt>
      <trkpt lat="45.66674" lon="6.83971">
        <ele>2427.5</ele>
        <time>2021-03-26T12:46:52Z</time>
      </trkpt>
      <trkpt lat="45.66675" lon="6.83972">
        <ele>2427.3</ele>
        <time>2021-03-26T12:46:53Z</time>
      </trkpt>
      <trkpt lat="45.66676" lon="6.83973">
        <ele>2428.2</ele>
        <time>2021-03-26T12:46:54Z</time>
      </trkpt>
      <trkpt lat="45.66676" lon="6.83973">
        <ele>2428.2</ele>
        <time>2021-03-26T12:46:55Z</time>
      </trkpt>
      <trkpt lat="45.66676" lon="6.83973">
        <ele>2428.2</ele>
        <time>2021-03-26T12:46:56Z</time>
      </trkpt>
      <trkpt lat="45.66676" lon="6.83973">
        <ele>2428.2</ele>
        <time>2021-03-26T12:46:57Z</time>
      </trkpt>
      <trkpt lat="45.66676" lon="6.83973">
        <ele>2428.2</ele>
        <time>2021-03-26T12:46:58Z</time>
      </trkpt>
      <trkpt lat="45.66676" lon="6.83973">
        <ele>2428.2</ele>
        <time>2021-03-26T12:46:59Z</time>
      </trkpt>
      <trkpt lat="45.66676" lon="6.83973">
        <ele>2428.2</ele>
        <time>2021-03-26T12:47:00Z</time>
      </trkpt>
      <trkpt lat="45.66676" lon="6.83973">
        <ele>2428.2</ele>
        <time>2021-03-26T12:47:01Z</time>
      </trkpt>
      <trkpt lat="45.6667" lon="6.83971">
        <ele>2426.5</ele>
        <time>2021-03-26T12:47:24Z</time>
      </trkpt>
      <trkpt lat="45.66666" lon="6.83969">
        <ele>2424.5</ele>
        <time>2021-03-26T12:47:25Z</time>
      </trkpt>
      <trkpt lat="45.66663" lon="6.83966">
        <ele>2423.8</ele>
        <time>2021-03-26T12:47:26Z</time>
      </trkpt>
      <trkpt lat="45.66657" lon="6.83966">
        <ele>2422</ele>
        <time>2021-03-26T12:47:27Z</time>
      </trkpt>
      <trkpt lat="45.66653" lon="6.83962">
        <ele>2421.4</ele>
        <time>2021-03-26T12:47:28Z</time>
      </trkpt>
      <trkpt lat="45.66648" lon="6.83958">
        <ele>2420.2</ele>
        <time>2021-03-26T12:47:29Z</time>
      </trkpt>
      <trkpt lat="45.66645" lon="6.83954">
        <ele>2419.7</ele>
        <time>2021-03-26T12:47:30Z</time>
      </trkpt>
      <trkpt lat="45.66642" lon="6.83954">
        <ele>2418.8</ele>
        <time>2021-03-26T12:47:31Z</time>
      </trkpt>
      <trkpt lat="45.6664" lon="6.83958">
        <ele>2418.4</ele>
        <time>2021-03-26T12:47:32Z</time>
      </trkpt>
      <trkpt lat="45.66638" lon="6.83961">
        <ele>2417.1</ele>
        <time>2021-03-26T12:47:33Z</time>
      </trkpt>
      <trkpt lat="45.66635" lon="6.83959">
        <ele>2416</ele>
        <time>2021-03-26T12:47:34Z</time>
      </trkpt>
      <trkpt lat="45.66631" lon="6.83959">
        <ele>2415</ele>
        <time>2021-03-26T12:47:35Z</time>
      </trkpt>
      <trkpt lat="45.66628" lon="6.83963">
        <ele>2414</ele>
        <time>2021-03-26T12:47:36Z</time>
      </trkpt>
      <trkpt lat="45.66626" lon="6.83968">
        <ele>2412.4</ele>
        <time>2021-03-26T12:47:37Z</time>
      </trkpt>
      <trkpt lat="45.66624" lon="6.83974">
        <ele>2411</ele>
        <time>2021-03-26T12:47:38Z</time>
      </trkpt>
      <trkpt lat="45.66622" lon="6.8398">
        <ele>2410.7</ele>
        <time>2021-03-26T12:47:39Z</time>
      </trkpt>
      <trkpt lat="45.66618" lon="6.83986">
        <ele>2407.6</ele>
        <time>2021-03-26T12:47:40Z</time>
      </trkpt>
      <trkpt lat="45.66614" lon="6.83988">
        <ele>2406.1</ele>
        <time>2021-03-26T12:47:41Z</time>
      </trkpt>
      <trkpt lat="45.66609" lon="6.83989">
        <ele>2403.2</ele>
        <time>2021-03-26T12:47:42Z</time>
      </trkpt>
      <trkpt lat="45.66605" lon="6.83989">
        <ele>2401.8</ele>
        <time>2021-03-26T12:47:43Z</time>
      </trkpt>
      <trkpt lat="45.66596" lon="6.83975">
        <ele>2399.4</ele>
        <time>2021-03-26T12:47:44Z</time>
      </trkpt>
      <trkpt lat="45.66591" lon="6.83979">
        <ele>2396.2</ele>
        <time>2021-03-26T12:47:45Z</time>
      </trkpt>
      <trkpt lat="45.66586" lon="6.8398">
        <ele>2394.9</ele>
        <time>2021-03-26T12:47:46Z</time>
      </trkpt>
      <trkpt lat="45.66582" lon="6.8398">
        <ele>2392.1</ele>
        <time>2021-03-26T12:47:47Z</time>
      </trkpt>
      <trkpt lat="45.6658" lon="6.83978">
        <ele>2392.1</ele>
        <time>2021-03-26T12:47:48Z</time>
      </trkpt>
      <trkpt lat="45.66576" lon="6.8398">
        <ele>2389.5</ele>
        <time>2021-03-26T12:47:49Z</time>
      </trkpt>
      <trkpt lat="45.66571" lon="6.83983">
        <ele>2387.9</ele>
        <time>2021-03-26T12:47:50Z</time>
      </trkpt>
      <trkpt lat="45.66568" lon="6.83984">
        <ele>2386.7</ele>
        <time>2021-03-26T12:47:51Z</time>
      </trkpt>
      <trkpt lat="45.66565" lon="6.83986">
        <ele>2385.2</ele>
        <time>2021-03-26T12:47:52Z</time>
      </trkpt>
      <trkpt lat="45.66558" lon="6.83989">
        <ele>2381.6</ele>
        <time>2021-03-26T12:47:53Z</time>
      </trkpt>
      <trkpt lat="45.66553" lon="6.83994">
        <ele>2379.8</ele>
        <time>2021-03-26T12:47:54Z</time>
      </trkpt>
      <trkpt lat="45.66549" lon="6.83999">
        <ele>2377.3</ele>
        <time>2021-03-26T12:47:55Z</time>
      </trkpt>
      <trkpt lat="45.66543" lon="6.83992">
        <ele>2375.9</ele>
        <time>2021-03-26T12:47:56Z</time>
      </trkpt>
      <trkpt lat="45.66537" lon="6.83994">
        <ele>2374.2</ele>
        <time>2021-03-26T12:47:57Z</time>
      </trkpt>
      <trkpt lat="45.66531" lon="6.83995">
        <ele>2372.5</ele>
        <time>2021-03-26T12:47:58Z</time>
      </trkpt>
      <trkpt lat="45.66525" lon="6.83999">
        <ele>2370.9</ele>
        <time>2021-03-26T12:47:59Z</time>
      </trkpt>
      <trkpt lat="45.66521" lon="6.83999">
        <ele>2370.3</ele>
        <time>2021-03-26T12:48:00Z</time>
      </trkpt>
      <trkpt lat="45.66515" lon="6.83995">
        <ele>2369.2</ele>
        <time>2021-03-26T12:48:01Z</time>
      </trkpt>
      <trkpt lat="45.6651" lon="6.84006">
        <ele>2368.3</ele>
        <time>2021-03-26T12:48:02Z</time>
      </trkpt>
      <trkpt lat="45.66505" lon="6.8401">
        <ele>2367.9</ele>
        <time>2021-03-26T12:48:03Z</time>
      </trkpt>
      <trkpt lat="45.66499" lon="6.84005">
        <ele>2366.5</ele>
        <time>2021-03-26T12:48:04Z</time>
      </trkpt>
      <trkpt lat="45.66496" lon="6.83998">
        <ele>2365.5</ele>
        <time>2021-03-26T12:48:05Z</time>
      </trkpt>
      <trkpt lat="45.66493" lon="6.83992">
        <ele>2364.8</ele>
        <time>2021-03-26T12:48:06Z</time>
      </trkpt>
      <trkpt lat="45.66493" lon="6.83988">
        <ele>2364.7</ele>
        <time>2021-03-26T12:48:07Z</time>
      </trkpt>
      <trkpt lat="45.66492" lon="6.83982">
        <ele>2364</ele>
        <time>2021-03-26T12:48:08Z</time>
      </trkpt>
      <trkpt lat="45.66493" lon="6.83983">
        <ele>2364.6</ele>
        <time>2021-03-26T12:48:09Z</time>
      </trkpt>
      <trkpt lat="45.66494" lon="6.83983">
        <ele>2364.6</ele>
        <time>2021-03-26T12:48:10Z</time>
      </trkpt>
      <trkpt lat="45.66494" lon="6.83982">
        <ele>2364.6</ele>
        <time>2021-03-26T12:48:11Z</time>
      </trkpt>
      <trkpt lat="45.66494" lon="6.83982">
        <ele>2364.6</ele>
        <time>2021-03-26T12:48:12Z</time>
      </trkpt>
      <trkpt lat="45.66494" lon="6.83982">
        <ele>2364.6</ele>
        <time>2021-03-26T12:48:13Z</time>
      </trkpt>
      <trkpt lat="45.66494" lon="6.83982">
        <ele>2364.6</ele>
        <time>2021-03-26T12:48:14Z</time>
      </trkpt>
      <trkpt lat="45.66494" lon="6.83982">
        <ele>2364.6</ele>
        <time>2021-03-26T12:48:15Z</time>
      </trkpt>
      <trkpt lat="45.66494" lon="6.83982">
        <ele>2364.6</ele>
        <time>2021-03-26T12:48:16Z</time>
      </trkpt>
      <trkpt lat="45.66494" lon="6.83982">
        <ele>2364.6</ele>
        <time>2021-03-26T12:48:17Z</time>
      </trkpt>
      <trkpt lat="45.66494" lon="6.83982">
        <ele>2364.6</ele>
        <time>2021-03-26T12:48:18Z</time>
      </trkpt>
      <trkpt lat="45.66494" lon="6.83982">
        <ele>2364.6</ele>
        <time>2021-03-26T12:48:19Z</time>
      </trkpt>
      <trkpt lat="45.66494" lon="6.83982">
        <ele>2364.6</ele>
        <time>2021-03-26T12:48:20Z</time>
      </trkpt>
      <trkpt lat="45.66494" lon="6.83982">
        <ele>2364.6</ele>
        <time>2021-03-26T12:48:21Z</time>
      </trkpt>
      <trkpt lat="45.66491" lon="6.83981">
        <ele>2364</ele>
        <time>2021-03-26T12:50:33Z</time>
      </trkpt>
      <trkpt lat="45.6649" lon="6.83978">
        <ele>2363.9</ele>
        <time>2021-03-26T12:50:34Z</time>
      </trkpt>
      <trkpt lat="45.6649" lon="6.83975">
        <ele>2363.2</ele>
        <time>2021-03-26T12:50:35Z</time>
      </trkpt>
      <trkpt lat="45.66489" lon="6.83973">
        <ele>2363.2</ele>
        <time>2021-03-26T12:50:36Z</time>
      </trkpt>
      <trkpt lat="45.66489" lon="6.83971">
        <ele>2363.1</ele>
        <time>2021-03-26T12:50:37Z</time>
      </trkpt>
      <trkpt lat="45.66489" lon="6.83969">
        <ele>2363.1</ele>
        <time>2021-03-26T12:50:38Z</time>
      </trkpt>
      <trkpt lat="45.66489" lon="6.83967">
        <ele>2363</ele>
        <time>2021-03-26T12:50:39Z</time>
      </trkpt>
      <trkpt lat="45.66489" lon="6.83965">
        <ele>2363</ele>
        <time>2021-03-26T12:50:40Z</time>
      </trkpt>
      <trkpt lat="45.66489" lon="6.83964">
        <ele>2363</ele>
        <time>2021-03-26T12:50:41Z</time>
      </trkpt>
      <trkpt lat="45.66489" lon="6.83963">
        <ele>2362.9</ele>
        <time>2021-03-26T12:50:42Z</time>
      </trkpt>
      <trkpt lat="45.66489" lon="6.83962">
        <ele>2362.9</ele>
        <time>2021-03-26T12:50:43Z</time>
      </trkpt>
      <trkpt lat="45.66489" lon="6.83962">
        <ele>2362.9</ele>
        <time>2021-03-26T12:50:44Z</time>
      </trkpt>
      <trkpt lat="45.66489" lon="6.83961">
        <ele>2362.9</ele>
        <time>2021-03-26T12:50:45Z</time>
      </trkpt>
      <trkpt lat="45.66489" lon="6.83961">
        <ele>2362.9</ele>
        <time>2021-03-26T12:50:46Z</time>
      </trkpt>
      <trkpt lat="45.66489" lon="6.8396">
        <ele>2362.9</ele>
        <time>2021-03-26T12:50:47Z</time>
      </trkpt>
      <trkpt lat="45.66489" lon="6.83958">
        <ele>2362.8</ele>
        <time>2021-03-26T12:50:48Z</time>
      </trkpt>
      <trkpt lat="45.66489" lon="6.83957">
        <ele>2362.8</ele>
        <time>2021-03-26T12:50:49Z</time>
      </trkpt>
      <trkpt lat="45.66489" lon="6.83955">
        <ele>2362.8</ele>
        <time>2021-03-26T12:50:50Z</time>
      </trkpt>
      <trkpt lat="45.66489" lon="6.83953">
        <ele>2362.7</ele>
        <time>2021-03-26T12:50:51Z</time>
      </trkpt>
      <trkpt lat="45.66489" lon="6.83951">
        <ele>2362.7</ele>
        <time>2021-03-26T12:50:52Z</time>
      </trkpt>
      <trkpt lat="45.66489" lon="6.83949">
        <ele>2362.7</ele>
        <time>2021-03-26T12:50:53Z</time>
      </trkpt>
      <trkpt lat="45.66489" lon="6.83946">
        <ele>2362.6</ele>
        <time>2021-03-26T12:50:54Z</time>
      </trkpt>
      <trkpt lat="45.66489" lon="6.83944">
        <ele>2362.6</ele>
        <time>2021-03-26T12:50:55Z</time>
      </trkpt>
      <trkpt lat="45.66489" lon="6.83942">
        <ele>2362.5</ele>
        <time>2021-03-26T12:50:56Z</time>
      </trkpt>
      <trkpt lat="45.66489" lon="6.83936">
        <ele>2362.4</ele>
        <time>2021-03-26T12:50:57Z</time>
      </trkpt>
      <trkpt lat="45.66488" lon="6.83934">
        <ele>2362.4</ele>
        <time>2021-03-26T12:50:58Z</time>
      </trkpt>
      <trkpt lat="45.66488" lon="6.8393">
        <ele>2362.3</ele>
        <time>2021-03-26T12:50:59Z</time>
      </trkpt>
      <trkpt lat="45.66487" lon="6.83926">
        <ele>2362.3</ele>
        <time>2021-03-26T12:51:00Z</time>
      </trkpt>
      <trkpt lat="45.66484" lon="6.83925">
        <ele>2361.4</ele>
        <time>2021-03-26T12:51:01Z</time>
      </trkpt>
      <trkpt lat="45.66481" lon="6.83928">
        <ele>2359.7</ele>
        <time>2021-03-26T12:51:02Z</time>
      </trkpt>
      <trkpt lat="45.66477" lon="6.83933">
        <ele>2358.9</ele>
        <time>2021-03-26T12:51:03Z</time>
      </trkpt>
      <trkpt lat="45.66475" lon="6.83937">
        <ele>2359</ele>
        <time>2021-03-26T12:51:04Z</time>
      </trkpt>
      <trkpt lat="45.66473" lon="6.83938">
        <ele>2358.2</ele>
        <time>2021-03-26T12:51:05Z</time>
      </trkpt>
      <trkpt lat="45.66472" lon="6.83936">
        <ele>2358</ele>
        <time>2021-03-26T12:51:06Z</time>
      </trkpt>
      <trkpt lat="45.66471" lon="6.8393">
        <ele>2356.9</ele>
        <time>2021-03-26T12:51:07Z</time>
      </trkpt>
      <trkpt lat="45.66472" lon="6.83924">
        <ele>2357.6</ele>
        <time>2021-03-26T12:51:08Z</time>
      </trkpt>
      <trkpt lat="45.66474" lon="6.83917">
        <ele>2357.4</ele>
        <time>2021-03-26T12:51:09Z</time>
      </trkpt>
      <trkpt lat="45.66475" lon="6.83909">
        <ele>2358.2</ele>
        <time>2021-03-26T12:51:10Z</time>
      </trkpt>
      <trkpt lat="45.66473" lon="6.83901">
        <ele>2356.8</ele>
        <time>2021-03-26T12:51:11Z</time>
      </trkpt>
      <trkpt lat="45.66468" lon="6.83897">
        <ele>2354.3</ele>
        <time>2021-03-26T12:51:12Z</time>
      </trkpt>
      <trkpt lat="45.66464" lon="6.83897">
        <ele>2353.1</ele>
        <time>2021-03-26T12:51:13Z</time>
      </trkpt>
      <trkpt lat="45.66459" lon="6.839">
        <ele>2351.3</ele>
        <time>2021-03-26T12:51:14Z</time>
      </trkpt>
      <trkpt lat="45.66456" lon="6.83912">
        <ele>2351.1</ele>
        <time>2021-03-26T12:51:15Z</time>
      </trkpt>
      <trkpt lat="45.66452" lon="6.83918">
        <ele>2350.4</ele>
        <time>2021-03-26T12:51:16Z</time>
      </trkpt>
      <trkpt lat="45.6645" lon="6.83919">
        <ele>2349.2</ele>
        <time>2021-03-26T12:51:17Z</time>
      </trkpt>
      <trkpt lat="45.66448" lon="6.83915">
        <ele>2348.9</ele>
        <time>2021-03-26T12:51:18Z</time>
      </trkpt>
      <trkpt lat="45.6645" lon="6.83903">
        <ele>2348</ele>
        <time>2021-03-26T12:51:19Z</time>
      </trkpt>
      <trkpt lat="45.66449" lon="6.83897">
        <ele>2347.7</ele>
        <time>2021-03-26T12:51:20Z</time>
      </trkpt>
      <trkpt lat="45.66446" lon="6.83893">
        <ele>2346</ele>
        <time>2021-03-26T12:51:21Z</time>
      </trkpt>
      <trkpt lat="45.66442" lon="6.83892">
        <ele>2343.1</ele>
        <time>2021-03-26T12:51:22Z</time>
      </trkpt>
      <trkpt lat="45.66438" lon="6.83893">
        <ele>2341.7</ele>
        <time>2021-03-26T12:51:23Z</time>
      </trkpt>
      <trkpt lat="45.66435" lon="6.83901">
        <ele>2341.2</ele>
        <time>2021-03-26T12:51:24Z</time>
      </trkpt>
      <trkpt lat="45.66432" lon="6.83905">
        <ele>2340.4</ele>
        <time>2021-03-26T12:51:25Z</time>
      </trkpt>
      <trkpt lat="45.66429" lon="6.83908">
        <ele>2339.6</ele>
        <time>2021-03-26T12:51:26Z</time>
      </trkpt>
      <trkpt lat="45.66427" lon="6.83904">
        <ele>2339.2</ele>
        <time>2021-03-26T12:51:27Z</time>
      </trkpt>
      <trkpt lat="45.66427" lon="6.83898">
        <ele>2338.3</ele>
        <time>2021-03-26T12:51:28Z</time>
      </trkpt>
      <trkpt lat="45.66426" lon="6.83892">
        <ele>2336.6</ele>
        <time>2021-03-26T12:51:29Z</time>
      </trkpt>
      <trkpt lat="45.66424" lon="6.83887">
        <ele>2336.1</ele>
        <time>2021-03-26T12:51:30Z</time>
      </trkpt>
      <trkpt lat="45.66422" lon="6.83884">
        <ele>2334.2</ele>
        <time>2021-03-26T12:51:31Z</time>
      </trkpt>
      <trkpt lat="45.66418" lon="6.83886">
        <ele>2332.5</ele>
        <time>2021-03-26T12:51:32Z</time>
      </trkpt>
      <trkpt lat="45.66417" lon="6.83888">
        <ele>2331.4</ele>
        <time>2021-03-26T12:51:33Z</time>
      </trkpt>
      <trkpt lat="45.66414" lon="6.8389">
        <ele>2329.8</ele>
        <time>2021-03-26T12:51:34Z</time>
      </trkpt>
      <trkpt lat="45.66411" lon="6.83889">
        <ele>2328.3</ele>
        <time>2021-03-26T12:51:35Z</time>
      </trkpt>
      <trkpt lat="45.66409" lon="6.83888">
        <ele>2328.3</ele>
        <time>2021-03-26T12:51:36Z</time>
      </trkpt>
      <trkpt lat="45.66407" lon="6.83884">
        <ele>2326.3</ele>
        <time>2021-03-26T12:51:37Z</time>
      </trkpt>
      <trkpt lat="45.66403" lon="6.83882">
        <ele>2324.8</ele>
        <time>2021-03-26T12:51:38Z</time>
      </trkpt>
      <trkpt lat="45.664" lon="6.83882">
        <ele>2321.7</ele>
        <time>2021-03-26T12:51:39Z</time>
      </trkpt>
      <trkpt lat="45.66395" lon="6.83882">
        <ele>2320.2</ele>
        <time>2021-03-26T12:51:40Z</time>
      </trkpt>
      <trkpt lat="45.66392" lon="6.83882">
        <ele>2318.2</ele>
        <time>2021-03-26T12:51:41Z</time>
      </trkpt>
      <trkpt lat="45.66391" lon="6.83878">
        <ele>2316.6</ele>
        <time>2021-03-26T12:51:42Z</time>
      </trkpt>
      <trkpt lat="45.6639" lon="6.83877">
        <ele>2316.2</ele>
        <time>2021-03-26T12:51:43Z</time>
      </trkpt>
      <trkpt lat="45.66391" lon="6.83871">
        <ele>2317.4</ele>
        <time>2021-03-26T12:51:44Z</time>
      </trkpt>
      <trkpt lat="45.66391" lon="6.83869">
        <ele>2317.4</ele>
        <time>2021-03-26T12:51:45Z</time>
      </trkpt>
      <trkpt lat="45.66391" lon="6.83865">
        <ele>2317.1</ele>
        <time>2021-03-26T12:51:46Z</time>
      </trkpt>
      <trkpt lat="45.66389" lon="6.83861">
        <ele>2315.3</ele>
        <time>2021-03-26T12:51:47Z</time>
      </trkpt>
      <trkpt lat="45.66386" lon="6.8386">
        <ele>2313.6</ele>
        <time>2021-03-26T12:51:48Z</time>
      </trkpt>
      <trkpt lat="45.66385" lon="6.83861">
        <ele>2313.8</ele>
        <time>2021-03-26T12:51:49Z</time>
      </trkpt>
      <trkpt lat="45.66382" lon="6.83865">
        <ele>2312.5</ele>
        <time>2021-03-26T12:51:50Z</time>
      </trkpt>
      <trkpt lat="45.66379" lon="6.8387">
        <ele>2311.2</ele>
        <time>2021-03-26T12:51:51Z</time>
      </trkpt>
      <trkpt lat="45.66376" lon="6.83873">
        <ele>2310.1</ele>
        <time>2021-03-26T12:51:52Z</time>
      </trkpt>
      <trkpt lat="45.66374" lon="6.83873">
        <ele>2308.7</ele>
        <time>2021-03-26T12:51:53Z</time>
      </trkpt>
      <trkpt lat="45.6637" lon="6.83873">
        <ele>2307.3</ele>
        <time>2021-03-26T12:51:54Z</time>
      </trkpt>
      <trkpt lat="45.66366" lon="6.83873">
        <ele>2304.6</ele>
        <time>2021-03-26T12:51:55Z</time>
      </trkpt>
      <trkpt lat="45.66362" lon="6.83873">
        <ele>2303.2</ele>
        <time>2021-03-26T12:51:56Z</time>
      </trkpt>
      <trkpt lat="45.66354" lon="6.83894">
        <ele>2298.8</ele>
        <time>2021-03-26T12:51:57Z</time>
      </trkpt>
      <trkpt lat="45.66353" lon="6.83897">
        <ele>2298.8</ele>
        <time>2021-03-26T12:51:58Z</time>
      </trkpt>
      <trkpt lat="45.66348" lon="6.83906">
        <ele>2296.2</ele>
        <time>2021-03-26T12:51:59Z</time>
      </trkpt>
      <trkpt lat="45.66344" lon="6.83912">
        <ele>2295</ele>
        <time>2021-03-26T12:52:00Z</time>
      </trkpt>
      <trkpt lat="45.66343" lon="6.83917">
        <ele>2295.2</ele>
        <time>2021-03-26T12:52:01Z</time>
      </trkpt>
      <trkpt lat="45.6634" lon="6.83922">
        <ele>2293.8</ele>
        <time>2021-03-26T12:52:02Z</time>
      </trkpt>
      <trkpt lat="45.66338" lon="6.83929">
        <ele>2292.4</ele>
        <time>2021-03-26T12:52:03Z</time>
      </trkpt>
      <trkpt lat="45.66334" lon="6.83931">
        <ele>2290.9</ele>
        <time>2021-03-26T12:52:04Z</time>
      </trkpt>
      <trkpt lat="45.66333" lon="6.83933">
        <ele>2289.3</ele>
        <time>2021-03-26T12:52:05Z</time>
      </trkpt>
      <trkpt lat="45.66326" lon="6.83938">
        <ele>2286.7</ele>
        <time>2021-03-26T12:52:06Z</time>
      </trkpt>
      <trkpt lat="45.66318" lon="6.8392">
        <ele>2282.6</ele>
        <time>2021-03-26T12:52:07Z</time>
      </trkpt>
      <trkpt lat="45.66311" lon="6.83912">
        <ele>2280.4</ele>
        <time>2021-03-26T12:52:08Z</time>
      </trkpt>
      <trkpt lat="45.66305" lon="6.83908">
        <ele>2278.2</ele>
        <time>2021-03-26T12:52:09Z</time>
      </trkpt>
      <trkpt lat="45.663" lon="6.83906">
        <ele>2276</ele>
        <time>2021-03-26T12:52:10Z</time>
      </trkpt>
      <trkpt lat="45.66295" lon="6.83907">
        <ele>2274.9</ele>
        <time>2021-03-26T12:52:11Z</time>
      </trkpt>
      <trkpt lat="45.66291" lon="6.83908">
        <ele>2272.5</ele>
        <time>2021-03-26T12:52:12Z</time>
      </trkpt>
      <trkpt lat="45.66289" lon="6.83913">
        <ele>2272.1</ele>
        <time>2021-03-26T12:52:13Z</time>
      </trkpt>
      <trkpt lat="45.66287" lon="6.83919">
        <ele>2270.9</ele>
        <time>2021-03-26T12:52:14Z</time>
      </trkpt>
      <trkpt lat="45.66284" lon="6.83926">
        <ele>2269.4</ele>
        <time>2021-03-26T12:52:15Z</time>
      </trkpt>
      <trkpt lat="45.66281" lon="6.83934">
        <ele>2268</ele>
        <time>2021-03-26T12:52:16Z</time>
      </trkpt>
      <trkpt lat="45.6628" lon="6.83932">
        <ele>2268.1</ele>
        <time>2021-03-26T12:52:17Z</time>
      </trkpt>
      <trkpt lat="45.6628" lon="6.83931">
        <ele>2268.1</ele>
        <time>2021-03-26T12:52:18Z</time>
      </trkpt>
      <trkpt lat="45.66279" lon="6.83929">
        <ele>2266.8</ele>
        <time>2021-03-26T12:52:19Z</time>
      </trkpt>
      <trkpt lat="45.66279" lon="6.83928">
        <ele>2267</ele>
        <time>2021-03-26T12:52:20Z</time>
      </trkpt>
      <trkpt lat="45.66278" lon="6.83926">
        <ele>2267</ele>
        <time>2021-03-26T12:52:21Z</time>
      </trkpt>
      <trkpt lat="45.66277" lon="6.83925">
        <ele>2267</ele>
        <time>2021-03-26T12:52:22Z</time>
      </trkpt>
      <trkpt lat="45.66276" lon="6.83923">
        <ele>2266</ele>
        <time>2021-03-26T12:52:23Z</time>
      </trkpt>
      <trkpt lat="45.66275" lon="6.83922">
        <ele>2266</ele>
        <time>2021-03-26T12:52:24Z</time>
      </trkpt>
      <trkpt lat="45.66274" lon="6.83921">
        <ele>2266</ele>
        <time>2021-03-26T12:52:25Z</time>
      </trkpt>
      <trkpt lat="45.66273" lon="6.83919">
        <ele>2265.2</ele>
        <time>2021-03-26T12:52:26Z</time>
      </trkpt>
      <trkpt lat="45.66272" lon="6.83918">
        <ele>2265.2</ele>
        <time>2021-03-26T12:52:27Z</time>
      </trkpt>
      <trkpt lat="45.66271" lon="6.83916">
        <ele>2265.2</ele>
        <time>2021-03-26T12:52:28Z</time>
      </trkpt>
      <trkpt lat="45.6627" lon="6.83915">
        <ele>2264.6</ele>
        <time>2021-03-26T12:54:15Z</time>
      </trkpt>
      <trkpt lat="45.6627" lon="6.83913">
        <ele>2264.6</ele>
        <time>2021-03-26T12:54:16Z</time>
      </trkpt>
      <trkpt lat="45.66268" lon="6.83909">
        <ele>2264.1</ele>
        <time>2021-03-26T12:54:17Z</time>
      </trkpt>
      <trkpt lat="45.66265" lon="6.83911">
        <ele>2264.1</ele>
        <time>2021-03-26T12:54:18Z</time>
      </trkpt>
      <trkpt lat="45.66264" lon="6.83914">
        <ele>2262.7</ele>
        <time>2021-03-26T12:54:19Z</time>
      </trkpt>
      <trkpt lat="45.66263" lon="6.83923">
        <ele>2261.8</ele>
        <time>2021-03-26T12:54:20Z</time>
      </trkpt>
      <trkpt lat="45.66263" lon="6.83931">
        <ele>2261.1</ele>
        <time>2021-03-26T12:54:21Z</time>
      </trkpt>
      <trkpt lat="45.66261" lon="6.83937">
        <ele>2259.8</ele>
        <time>2021-03-26T12:54:22Z</time>
      </trkpt>
      <trkpt lat="45.66259" lon="6.83942">
        <ele>2259.3</ele>
        <time>2021-03-26T12:54:23Z</time>
      </trkpt>
      <trkpt lat="45.66254" lon="6.83947">
        <ele>2256.5</ele>
        <time>2021-03-26T12:54:24Z</time>
      </trkpt>
      <trkpt lat="45.66251" lon="6.83951">
        <ele>2254.7</ele>
        <time>2021-03-26T12:54:25Z</time>
      </trkpt>
      <trkpt lat="45.66249" lon="6.83954">
        <ele>2253.3</ele>
        <time>2021-03-26T12:54:26Z</time>
      </trkpt>
      <trkpt lat="45.66248" lon="6.83949">
        <ele>2253.8</ele>
        <time>2021-03-26T12:54:27Z</time>
      </trkpt>
      <trkpt lat="45.66245" lon="6.83944">
        <ele>2253</ele>
        <time>2021-03-26T12:54:28Z</time>
      </trkpt>
      <trkpt lat="45.66243" lon="6.83938">
        <ele>2252.3</ele>
        <time>2021-03-26T12:54:29Z</time>
      </trkpt>
      <trkpt lat="45.6624" lon="6.83933">
        <ele>2252.2</ele>
        <time>2021-03-26T12:54:30Z</time>
      </trkpt>
      <trkpt lat="45.66239" lon="6.83928">
        <ele>2252.7</ele>
        <time>2021-03-26T12:54:31Z</time>
      </trkpt>
      <trkpt lat="45.66238" lon="6.83926">
        <ele>2251.8</ele>
        <time>2021-03-26T12:54:32Z</time>
      </trkpt>
      <trkpt lat="45.66236" lon="6.83938">
        <ele>2250.2</ele>
        <time>2021-03-26T12:54:33Z</time>
      </trkpt>
      <trkpt lat="45.66236" lon="6.83939">
        <ele>2250.2</ele>
        <time>2021-03-26T12:54:34Z</time>
      </trkpt>
      <trkpt lat="45.66237" lon="6.83939">
        <ele>2250.2</ele>
        <time>2021-03-26T12:54:35Z</time>
      </trkpt>
      <trkpt lat="45.66237" lon="6.83939">
        <ele>2250.2</ele>
        <time>2021-03-26T12:54:36Z</time>
      </trkpt>
      <trkpt lat="45.66237" lon="6.83939">
        <ele>2250.2</ele>
        <time>2021-03-26T12:54:37Z</time>
      </trkpt>
      <trkpt lat="45.66237" lon="6.83939">
        <ele>2250.2</ele>
        <time>2021-03-26T12:54:38Z</time>
      </trkpt>
      <trkpt lat="45.6624" lon="6.83939">
        <ele>2251.3</ele>
        <time>2021-03-26T12:54:39Z</time>
      </trkpt>
      <trkpt lat="45.6624" lon="6.83941">
        <ele>2251.3</ele>
        <time>2021-03-26T12:54:40Z</time>
      </trkpt>
      <trkpt lat="45.66238" lon="6.83943">
        <ele>2250.8</ele>
        <time>2021-03-26T12:54:41Z</time>
      </trkpt>
      <trkpt lat="45.66237" lon="6.83946">
        <ele>2249</ele>
        <time>2021-03-26T12:54:42Z</time>
      </trkpt>
      <trkpt lat="45.66237" lon="6.83948">
        <ele>2249</ele>
        <time>2021-03-26T12:54:43Z</time>
      </trkpt>
      <trkpt lat="45.66236" lon="6.83953">
        <ele>2248.4</ele>
        <time>2021-03-26T12:54:44Z</time>
      </trkpt>
      <trkpt lat="45.66235" lon="6.83954">
        <ele>2248.4</ele>
        <time>2021-03-26T12:54:45Z</time>
      </trkpt>
      <trkpt lat="45.66234" lon="6.8396">
        <ele>2245.5</ele>
        <time>2021-03-26T12:54:46Z</time>
      </trkpt>
      <trkpt lat="45.66233" lon="6.83962">
        <ele>2245.5</ele>
        <time>2021-03-26T12:54:47Z</time>
      </trkpt>
      <trkpt lat="45.66232" lon="6.83966">
        <ele>2244.6</ele>
        <time>2021-03-26T12:54:48Z</time>
      </trkpt>
      <trkpt lat="45.6623" lon="6.83969">
        <ele>2242.3</ele>
        <time>2021-03-26T12:54:49Z</time>
      </trkpt>
      <trkpt lat="45.66228" lon="6.83974">
        <ele>2239.8</ele>
        <time>2021-03-26T12:54:50Z</time>
      </trkpt>
      <trkpt lat="45.66228" lon="6.83976">
        <ele>2239.8</ele>
        <time>2021-03-26T12:54:51Z</time>
      </trkpt>
      <trkpt lat="45.66226" lon="6.8398">
        <ele>2238.9</ele>
        <time>2021-03-26T12:54:52Z</time>
      </trkpt>
      <trkpt lat="45.66226" lon="6.83982">
        <ele>2238.1</ele>
        <time>2021-03-26T12:54:53Z</time>
      </trkpt>
      <trkpt lat="45.66224" lon="6.83987">
        <ele>2235.8</ele>
        <time>2021-03-26T12:54:54Z</time>
      </trkpt>
      <trkpt lat="45.66223" lon="6.83989">
        <ele>2235.1</ele>
        <time>2021-03-26T12:54:55Z</time>
      </trkpt>
      <trkpt lat="45.66221" lon="6.83992">
        <ele>2233.4</ele>
        <time>2021-03-26T12:54:56Z</time>
      </trkpt>
      <trkpt lat="45.66218" lon="6.83994">
        <ele>2231.3</ele>
        <time>2021-03-26T12:54:57Z</time>
      </trkpt>
      <trkpt lat="45.66214" lon="6.83995">
        <ele>2229.7</ele>
        <time>2021-03-26T12:54:58Z</time>
      </trkpt>
      <trkpt lat="45.66211" lon="6.83996">
        <ele>2228.2</ele>
        <time>2021-03-26T12:54:59Z</time>
      </trkpt>
      <trkpt lat="45.66207" lon="6.83997">
        <ele>2225.5</ele>
        <time>2021-03-26T12:55:00Z</time>
      </trkpt>
      <trkpt lat="45.66205" lon="6.83996">
        <ele>2225.5</ele>
        <time>2021-03-26T12:55:01Z</time>
      </trkpt>
      <trkpt lat="45.66204" lon="6.83996">
        <ele>2224.2</ele>
        <time>2021-03-26T12:55:02Z</time>
      </trkpt>
      <trkpt lat="45.66204" lon="6.83996">
        <ele>2224.2</ele>
        <time>2021-03-26T12:55:03Z</time>
      </trkpt>
      <trkpt lat="45.66203" lon="6.83995">
        <ele>2224.2</ele>
        <time>2021-03-26T12:55:04Z</time>
      </trkpt>
      <trkpt lat="45.66202" lon="6.83995">
        <ele>2224.2</ele>
        <time>2021-03-26T12:55:05Z</time>
      </trkpt>
      <trkpt lat="45.66202" lon="6.83994">
        <ele>2224.2</ele>
        <time>2021-03-26T12:55:06Z</time>
      </trkpt>
      <trkpt lat="45.66201" lon="6.83994">
        <ele>2223</ele>
        <time>2021-03-26T12:55:07Z</time>
      </trkpt>
      <trkpt lat="45.66201" lon="6.83994">
        <ele>2223</ele>
        <time>2021-03-26T12:55:08Z</time>
      </trkpt>
      <trkpt lat="45.662" lon="6.83993">
        <ele>2223.5</ele>
        <time>2021-03-26T12:55:09Z</time>
      </trkpt>
      <trkpt lat="45.66199" lon="6.83993">
        <ele>2223.5</ele>
        <time>2021-03-26T12:55:10Z</time>
      </trkpt>
      <trkpt lat="45.66199" lon="6.83993">
        <ele>2222.2</ele>
        <time>2021-03-26T12:55:11Z</time>
      </trkpt>
      <trkpt lat="45.66198" lon="6.83992">
        <ele>2222.2</ele>
        <time>2021-03-26T12:55:12Z</time>
      </trkpt>
      <trkpt lat="45.66197" lon="6.83992">
        <ele>2222.2</ele>
        <time>2021-03-26T12:55:39Z</time>
      </trkpt>
      <trkpt lat="45.66197" lon="6.83991">
        <ele>2222.2</ele>
        <time>2021-03-26T12:55:40Z</time>
      </trkpt>
      <trkpt lat="45.66196" lon="6.83991">
        <ele>2222.2</ele>
        <time>2021-03-26T12:55:41Z</time>
      </trkpt>
      <trkpt lat="45.66194" lon="6.83997">
        <ele>2220.4</ele>
        <time>2021-03-26T12:55:42Z</time>
      </trkpt>
      <trkpt lat="45.66193" lon="6.84002">
        <ele>2219.6</ele>
        <time>2021-03-26T12:55:43Z</time>
      </trkpt>
      <trkpt lat="45.66192" lon="6.84007">
        <ele>2218</ele>
        <time>2021-03-26T12:55:44Z</time>
      </trkpt>
      <trkpt lat="45.66191" lon="6.84012">
        <ele>2217.8</ele>
        <time>2021-03-26T12:55:45Z</time>
      </trkpt>
      <trkpt lat="45.66189" lon="6.84016">
        <ele>2216.5</ele>
        <time>2021-03-26T12:55:46Z</time>
      </trkpt>
      <trkpt lat="45.66188" lon="6.8402">
        <ele>2216.4</ele>
        <time>2021-03-26T12:55:47Z</time>
      </trkpt>
      <trkpt lat="45.66186" lon="6.84025">
        <ele>2215.4</ele>
        <time>2021-03-26T12:55:48Z</time>
      </trkpt>
      <trkpt lat="45.66185" lon="6.84029">
        <ele>2215.4</ele>
        <time>2021-03-26T12:55:49Z</time>
      </trkpt>
      <trkpt lat="45.66185" lon="6.84034">
        <ele>2215.3</ele>
        <time>2021-03-26T12:55:50Z</time>
      </trkpt>
      <trkpt lat="45.66184" lon="6.84039">
        <ele>2215.3</ele>
        <time>2021-03-26T12:55:51Z</time>
      </trkpt>
      <trkpt lat="45.66182" lon="6.84042">
        <ele>2214.4</ele>
        <time>2021-03-26T12:55:52Z</time>
      </trkpt>
      <trkpt lat="45.66179" lon="6.84043">
        <ele>2213.7</ele>
        <time>2021-03-26T12:55:53Z</time>
      </trkpt>
      <trkpt lat="45.66175" lon="6.84044">
        <ele>2213</ele>
        <time>2021-03-26T12:55:54Z</time>
      </trkpt>
      <trkpt lat="45.66172" lon="6.84045">
        <ele>2212.2</ele>
        <time>2021-03-26T12:55:55Z</time>
      </trkpt>
      <trkpt lat="45.66169" lon="6.84048">
        <ele>2211.4</ele>
        <time>2021-03-26T12:55:56Z</time>
      </trkpt>
      <trkpt lat="45.66168" lon="6.84052">
        <ele>2210.5</ele>
        <time>2021-03-26T12:55:57Z</time>
      </trkpt>
      <trkpt lat="45.66168" lon="6.84057">
        <ele>2210.4</ele>
        <time>2021-03-26T12:55:58Z</time>
      </trkpt>
      <trkpt lat="45.66168" lon="6.84063">
        <ele>2210</ele>
        <time>2021-03-26T12:55:59Z</time>
      </trkpt>
      <trkpt lat="45.66168" lon="6.84066">
        <ele>2209.8</ele>
        <time>2021-03-26T12:56:00Z</time>
      </trkpt>
      <trkpt lat="45.66167" lon="6.84067">
        <ele>2209.8</ele>
        <time>2021-03-26T12:56:01Z</time>
      </trkpt>
      <trkpt lat="45.66165" lon="6.84066">
        <ele>2209.2</ele>
        <time>2021-03-26T12:56:02Z</time>
      </trkpt>
      <trkpt lat="45.66161" lon="6.84064">
        <ele>2208.6</ele>
        <time>2021-03-26T12:56:03Z</time>
      </trkpt>
      <trkpt lat="45.66157" lon="6.84063">
        <ele>2208</ele>
        <time>2021-03-26T12:56:04Z</time>
      </trkpt>
      <trkpt lat="45.66153" lon="6.84062">
        <ele>2207.2</ele>
        <time>2021-03-26T12:56:05Z</time>
      </trkpt>
      <trkpt lat="45.66149" lon="6.84061">
        <ele>2206.7</ele>
        <time>2021-03-26T12:56:06Z</time>
      </trkpt>
      <trkpt lat="45.66146" lon="6.84061">
        <ele>2206.1</ele>
        <time>2021-03-26T12:56:07Z</time>
      </trkpt>
      <trkpt lat="45.66142" lon="6.84061">
        <ele>2205.4</ele>
        <time>2021-03-26T12:56:08Z</time>
      </trkpt>
      <trkpt lat="45.66138" lon="6.84063">
        <ele>2203.8</ele>
        <time>2021-03-26T12:56:09Z</time>
      </trkpt>
      <trkpt lat="45.66135" lon="6.84065">
        <ele>2203</ele>
        <time>2021-03-26T12:56:10Z</time>
      </trkpt>
      <trkpt lat="45.66131" lon="6.84067">
        <ele>2202</ele>
        <time>2021-03-26T12:56:11Z</time>
      </trkpt>
      <trkpt lat="45.66127" lon="6.84069">
        <ele>2201.3</ele>
        <time>2021-03-26T12:56:12Z</time>
      </trkpt>
      <trkpt lat="45.66124" lon="6.84072">
        <ele>2199.6</ele>
        <time>2021-03-26T12:56:13Z</time>
      </trkpt>
      <trkpt lat="45.6612" lon="6.84075">
        <ele>2198.9</ele>
        <time>2021-03-26T12:56:14Z</time>
      </trkpt>
      <trkpt lat="45.66117" lon="6.84077">
        <ele>2197.8</ele>
        <time>2021-03-26T12:56:15Z</time>
      </trkpt>
      <trkpt lat="45.66114" lon="6.8408">
        <ele>2196.6</ele>
        <time>2021-03-26T12:56:16Z</time>
      </trkpt>
      <trkpt lat="45.66111" lon="6.84082">
        <ele>2195.6</ele>
        <time>2021-03-26T12:56:17Z</time>
      </trkpt>
      <trkpt lat="45.66109" lon="6.84085">
        <ele>2194.2</ele>
        <time>2021-03-26T12:56:18Z</time>
      </trkpt>
      <trkpt lat="45.66107" lon="6.84088">
        <ele>2193.8</ele>
        <time>2021-03-26T12:56:19Z</time>
      </trkpt>
      <trkpt lat="45.66107" lon="6.84089">
        <ele>2193.8</ele>
        <time>2021-03-26T12:56:20Z</time>
      </trkpt>
      <trkpt lat="45.66108" lon="6.84091">
        <ele>2193.8</ele>
        <time>2021-03-26T12:56:21Z</time>
      </trkpt>
      <trkpt lat="45.66108" lon="6.84091">
        <ele>2193.8</ele>
        <time>2021-03-26T12:56:22Z</time>
      </trkpt>
      <trkpt lat="45.66107" lon="6.84089">
        <ele>2193.8</ele>
        <time>2021-03-26T12:56:23Z</time>
      </trkpt>
      <trkpt lat="45.66107" lon="6.84089">
        <ele>2193.8</ele>
        <time>2021-03-26T12:56:24Z</time>
      </trkpt>
      <trkpt lat="45.66107" lon="6.84089">
        <ele>2193.8</ele>
        <time>2021-03-26T12:56:25Z</time>
      </trkpt>
      <trkpt lat="45.66107" lon="6.84091">
        <ele>2193.8</ele>
        <time>2021-03-26T12:56:26Z</time>
      </trkpt>
      <trkpt lat="45.66106" lon="6.84094">
        <ele>2193.4</ele>
        <time>2021-03-26T12:56:27Z</time>
      </trkpt>
      <trkpt lat="45.66104" lon="6.84098">
        <ele>2191.8</ele>
        <time>2021-03-26T12:56:28Z</time>
      </trkpt>
      <trkpt lat="45.66103" lon="6.841">
        <ele>2190.9</ele>
        <time>2021-03-26T12:56:29Z</time>
      </trkpt>
      <trkpt lat="45.66099" lon="6.84104">
        <ele>2189.5</ele>
        <time>2021-03-26T12:56:30Z</time>
      </trkpt>
      <trkpt lat="45.66096" lon="6.84107">
        <ele>2188.2</ele>
        <time>2021-03-26T12:56:31Z</time>
      </trkpt>
      <trkpt lat="45.66093" lon="6.84111">
        <ele>2186.9</ele>
        <time>2021-03-26T12:56:32Z</time>
      </trkpt>
      <trkpt lat="45.66091" lon="6.84115">
        <ele>2186.4</ele>
        <time>2021-03-26T12:56:33Z</time>
      </trkpt>
      <trkpt lat="45.66088" lon="6.84121">
        <ele>2185</ele>
        <time>2021-03-26T12:56:34Z</time>
      </trkpt>
      <trkpt lat="45.66085" lon="6.84126">
        <ele>2182.5</ele>
        <time>2021-03-26T12:56:35Z</time>
      </trkpt>
      <trkpt lat="45.66075" lon="6.84125">
        <ele>2179.5</ele>
        <time>2021-03-26T12:56:36Z</time>
      </trkpt>
      <trkpt lat="45.6607" lon="6.8412">
        <ele>2179</ele>
        <time>2021-03-26T12:56:37Z</time>
      </trkpt>
      <trkpt lat="45.66066" lon="6.84119">
        <ele>2177</ele>
        <time>2021-03-26T12:56:38Z</time>
      </trkpt>
      <trkpt lat="45.66063" lon="6.84121">
        <ele>2175.8</ele>
        <time>2021-03-26T12:56:39Z</time>
      </trkpt>
      <trkpt lat="45.66059" lon="6.84123">
        <ele>2174.2</ele>
        <time>2021-03-26T12:56:40Z</time>
      </trkpt>
      <trkpt lat="45.66054" lon="6.84122">
        <ele>2171.5</ele>
        <time>2021-03-26T12:56:41Z</time>
      </trkpt>
      <trkpt lat="45.66053" lon="6.84122">
        <ele>2172</ele>
        <time>2021-03-26T12:56:42Z</time>
      </trkpt>
      <trkpt lat="45.66052" lon="6.8412">
        <ele>2170.6</ele>
        <time>2021-03-26T12:56:43Z</time>
      </trkpt>
      <trkpt lat="45.66051" lon="6.84118">
        <ele>2170.6</ele>
        <time>2021-03-26T12:56:44Z</time>
      </trkpt>
      <trkpt lat="45.66051" lon="6.84118">
        <ele>2171</ele>
        <time>2021-03-26T12:56:45Z</time>
      </trkpt>
      <trkpt lat="45.66051" lon="6.84118">
        <ele>2171</ele>
        <time>2021-03-26T12:56:46Z</time>
      </trkpt>
      <trkpt lat="45.66051" lon="6.84118">
        <ele>2171</ele>
        <time>2021-03-26T12:56:47Z</time>
      </trkpt>
      <trkpt lat="45.66051" lon="6.84118">
        <ele>2171</ele>
        <time>2021-03-26T12:56:48Z</time>
      </trkpt>
      <trkpt lat="45.66051" lon="6.84118">
        <ele>2171</ele>
        <time>2021-03-26T12:56:49Z</time>
      </trkpt>
      <trkpt lat="45.66051" lon="6.84118">
        <ele>2171</ele>
        <time>2021-03-26T12:56:50Z</time>
      </trkpt>
      <trkpt lat="45.66051" lon="6.84118">
        <ele>2171</ele>
        <time>2021-03-26T12:56:51Z</time>
      </trkpt>
      <trkpt lat="45.66051" lon="6.84118">
        <ele>2171</ele>
        <time>2021-03-26T12:56:52Z</time>
      </trkpt>
      <trkpt lat="45.66051" lon="6.84118">
        <ele>2171</ele>
        <time>2021-03-26T12:56:53Z</time>
      </trkpt>
      <trkpt lat="45.66044" lon="6.84123">
        <ele>2167.6</ele>
        <time>2021-03-26T12:57:11Z</time>
      </trkpt>
      <trkpt lat="45.66042" lon="6.84127">
        <ele>2165.7</ele>
        <time>2021-03-26T12:57:12Z</time>
      </trkpt>
      <trkpt lat="45.66043" lon="6.84132">
        <ele>2165.1</ele>
        <time>2021-03-26T12:57:13Z</time>
      </trkpt>
      <trkpt lat="45.66043" lon="6.84133">
        <ele>2166.3</ele>
        <time>2021-03-26T12:57:14Z</time>
      </trkpt>
      <trkpt lat="45.66044" lon="6.84135">
        <ele>2166.3</ele>
        <time>2021-03-26T12:57:15Z</time>
      </trkpt>
      <trkpt lat="45.66044" lon="6.84135">
        <ele>2166.3</ele>
        <time>2021-03-26T12:57:16Z</time>
      </trkpt>
      <trkpt lat="45.66044" lon="6.84135">
        <ele>2166.3</ele>
        <time>2021-03-26T12:57:17Z</time>
      </trkpt>
      <trkpt lat="45.66044" lon="6.84135">
        <ele>2166.3</ele>
        <time>2021-03-26T12:57:18Z</time>
      </trkpt>
      <trkpt lat="45.66044" lon="6.84135">
        <ele>2166.3</ele>
        <time>2021-03-26T12:57:19Z</time>
      </trkpt>
      <trkpt lat="45.66044" lon="6.84135">
        <ele>2166.3</ele>
        <time>2021-03-26T12:57:20Z</time>
      </trkpt>
      <trkpt lat="45.66044" lon="6.84135">
        <ele>2166.3</ele>
        <time>2021-03-26T12:57:21Z</time>
      </trkpt>
      <trkpt lat="45.66044" lon="6.84135">
        <ele>2166.3</ele>
        <time>2021-03-26T12:57:22Z</time>
      </trkpt>
      <trkpt lat="45.66044" lon="6.84135">
        <ele>2166.3</ele>
        <time>2021-03-26T12:57:23Z</time>
      </trkpt>
      <trkpt lat="45.66044" lon="6.84135">
        <ele>2166.3</ele>
        <time>2021-03-26T12:57:24Z</time>
      </trkpt>
      <trkpt lat="45.66044" lon="6.84135">
        <ele>2166.3</ele>
        <time>2021-03-26T12:57:25Z</time>
      </trkpt>
      <trkpt lat="45.66039" lon="6.84148">
        <ele>2160.4</ele>
        <time>2021-03-26T12:57:46Z</time>
      </trkpt>
      <trkpt lat="45.66038" lon="6.84148">
        <ele>2160.4</ele>
        <time>2021-03-26T12:57:47Z</time>
      </trkpt>
      <trkpt lat="45.66036" lon="6.84144">
        <ele>2160.1</ele>
        <time>2021-03-26T12:57:48Z</time>
      </trkpt>
      <trkpt lat="45.66035" lon="6.84143">
        <ele>2161</ele>
        <time>2021-03-26T12:57:49Z</time>
      </trkpt>
      <trkpt lat="45.66035" lon="6.8414">
        <ele>2161</ele>
        <time>2021-03-26T12:57:50Z</time>
      </trkpt>
      <trkpt lat="45.66036" lon="6.84139">
        <ele>2161</ele>
        <time>2021-03-26T12:57:51Z</time>
      </trkpt>
      <trkpt lat="45.66036" lon="6.84139">
        <ele>2161.8</ele>
        <time>2021-03-26T12:57:52Z</time>
      </trkpt>
      <trkpt lat="45.66036" lon="6.84138">
        <ele>2161.8</ele>
        <time>2021-03-26T12:57:53Z</time>
      </trkpt>
      <trkpt lat="45.66037" lon="6.84138">
        <ele>2161.8</ele>
        <time>2021-03-26T12:57:54Z</time>
      </trkpt>
      <trkpt lat="45.66037" lon="6.84137">
        <ele>2163</ele>
        <time>2021-03-26T12:57:55Z</time>
      </trkpt>
      <trkpt lat="45.66037" lon="6.84136">
        <ele>2163</ele>
        <time>2021-03-26T12:57:56Z</time>
      </trkpt>
      <trkpt lat="45.66038" lon="6.84136">
        <ele>2163</ele>
        <time>2021-03-26T12:57:57Z</time>
      </trkpt>
      <trkpt lat="45.66038" lon="6.84135">
        <ele>2163</ele>
        <time>2021-03-26T12:57:58Z</time>
      </trkpt>
      <trkpt lat="45.66038" lon="6.84135">
        <ele>2163.8</ele>
        <time>2021-03-26T12:57:59Z</time>
      </trkpt>
      <trkpt lat="45.66039" lon="6.84134">
        <ele>2163.8</ele>
        <time>2021-03-26T12:58:00Z</time>
      </trkpt>
      <trkpt lat="45.66039" lon="6.84134">
        <ele>2163.8</ele>
        <time>2021-03-26T12:58:01Z</time>
      </trkpt>
      <trkpt lat="45.66031" lon="6.84135">
        <ele>2161.3</ele>
        <time>2021-03-26T12:58:58Z</time>
      </trkpt>
      <trkpt lat="45.66028" lon="6.84134">
        <ele>2158.7</ele>
        <time>2021-03-26T12:58:59Z</time>
      </trkpt>
      <trkpt lat="45.66023" lon="6.84132">
        <ele>2157.3</ele>
        <time>2021-03-26T12:59:00Z</time>
      </trkpt>
      <trkpt lat="45.66018" lon="6.84129">
        <ele>2155.4</ele>
        <time>2021-03-26T12:59:01Z</time>
      </trkpt>
      <trkpt lat="45.66008" lon="6.84125">
        <ele>2152.2</ele>
        <time>2021-03-26T12:59:02Z</time>
      </trkpt>
      <trkpt lat="45.66005" lon="6.84124">
        <ele>2151.1</ele>
        <time>2021-03-26T12:59:03Z</time>
      </trkpt>
      <trkpt lat="45.66006" lon="6.84139">
        <ele>2149.3</ele>
        <time>2021-03-26T12:59:04Z</time>
      </trkpt>
      <trkpt lat="45.66003" lon="6.84143">
        <ele>2147.3</ele>
        <time>2021-03-26T12:59:05Z</time>
      </trkpt>
      <trkpt lat="45.66001" lon="6.84149">
        <ele>2145.8</ele>
        <time>2021-03-26T12:59:06Z</time>
      </trkpt>
      <trkpt lat="45.65996" lon="6.8415">
        <ele>2143.3</ele>
        <time>2021-03-26T12:59:07Z</time>
      </trkpt>
      <trkpt lat="45.65991" lon="6.84155">
        <ele>2140.2</ele>
        <time>2021-03-26T12:59:08Z</time>
      </trkpt>
      <trkpt lat="45.65985" lon="6.84152">
        <ele>2137.9</ele>
        <time>2021-03-26T12:59:09Z</time>
      </trkpt>
      <trkpt lat="45.65983" lon="6.84161">
        <ele>2135.1</ele>
        <time>2021-03-26T12:59:10Z</time>
      </trkpt>
      <trkpt lat="45.65979" lon="6.84164">
        <ele>2133.7</ele>
        <time>2021-03-26T12:59:11Z</time>
      </trkpt>
      <trkpt lat="45.65974" lon="6.84166">
        <ele>2131.6</ele>
        <time>2021-03-26T12:59:12Z</time>
      </trkpt>
      <trkpt lat="45.65971" lon="6.84169">
        <ele>2128.6</ele>
        <time>2021-03-26T12:59:13Z</time>
      </trkpt>
      <trkpt lat="45.65966" lon="6.84173">
        <ele>2126.6</ele>
        <time>2021-03-26T12:59:14Z</time>
      </trkpt>
      <trkpt lat="45.65962" lon="6.84172">
        <ele>2125.2</ele>
        <time>2021-03-26T12:59:15Z</time>
      </trkpt>
      <trkpt lat="45.65959" lon="6.84175">
        <ele>2123.4</ele>
        <time>2021-03-26T12:59:16Z</time>
      </trkpt>
      <trkpt lat="45.65957" lon="6.8418">
        <ele>2121.5</ele>
        <time>2021-03-26T12:59:17Z</time>
      </trkpt>
      <trkpt lat="45.65954" lon="6.84183">
        <ele>2119.7</ele>
        <time>2021-03-26T12:59:18Z</time>
      </trkpt>
      <trkpt lat="45.6595" lon="6.84188">
        <ele>2117.9</ele>
        <time>2021-03-26T12:59:19Z</time>
      </trkpt>
      <trkpt lat="45.65948" lon="6.84191">
        <ele>2116.1</ele>
        <time>2021-03-26T12:59:20Z</time>
      </trkpt>
      <trkpt lat="45.65942" lon="6.84192">
        <ele>2113.3</ele>
        <time>2021-03-26T12:59:21Z</time>
      </trkpt>
      <trkpt lat="45.6594" lon="6.84198">
        <ele>2111.4</ele>
        <time>2021-03-26T12:59:22Z</time>
      </trkpt>
      <trkpt lat="45.65941" lon="6.84207">
        <ele>2110.3</ele>
        <time>2021-03-26T12:59:23Z</time>
      </trkpt>
      <trkpt lat="45.65938" lon="6.84212">
        <ele>2109.8</ele>
        <time>2021-03-26T12:59:24Z</time>
      </trkpt>
      <trkpt lat="45.65933" lon="6.84213">
        <ele>2106.6</ele>
        <time>2021-03-26T12:59:25Z</time>
      </trkpt>
      <trkpt lat="45.65928" lon="6.84217">
        <ele>2103.6</ele>
        <time>2021-03-26T12:59:26Z</time>
      </trkpt>
      <trkpt lat="45.65925" lon="6.84222">
        <ele>2101.7</ele>
        <time>2021-03-26T12:59:27Z</time>
      </trkpt>
      <trkpt lat="45.65921" lon="6.84224">
        <ele>2100.3</ele>
        <time>2021-03-26T12:59:28Z</time>
      </trkpt>
      <trkpt lat="45.65917" lon="6.84228">
        <ele>2098.1</ele>
        <time>2021-03-26T12:59:29Z</time>
      </trkpt>
      <trkpt lat="45.65915" lon="6.8423">
        <ele>2095.9</ele>
        <time>2021-03-26T12:59:30Z</time>
      </trkpt>
      <trkpt lat="45.65911" lon="6.8423">
        <ele>2093.1</ele>
        <time>2021-03-26T12:59:31Z</time>
      </trkpt>
      <trkpt lat="45.65906" lon="6.84231">
        <ele>2091.8</ele>
        <time>2021-03-26T12:59:32Z</time>
      </trkpt>
      <trkpt lat="45.65903" lon="6.8424">
        <ele>2089.3</ele>
        <time>2021-03-26T12:59:33Z</time>
      </trkpt>
      <trkpt lat="45.659" lon="6.84239">
        <ele>2087.9</ele>
        <time>2021-03-26T12:59:34Z</time>
      </trkpt>
      <trkpt lat="45.65904" lon="6.84239">
        <ele>2089.3</ele>
        <time>2021-03-26T12:59:35Z</time>
      </trkpt>
      <trkpt lat="45.65903" lon="6.84239">
        <ele>2089.3</ele>
        <time>2021-03-26T12:59:36Z</time>
      </trkpt>
      <trkpt lat="45.65902" lon="6.84239">
        <ele>2089.3</ele>
        <time>2021-03-26T12:59:37Z</time>
      </trkpt>
      <trkpt lat="45.65901" lon="6.84238">
        <ele>2087.9</ele>
        <time>2021-03-26T12:59:38Z</time>
      </trkpt>
      <trkpt lat="45.659" lon="6.84238">
        <ele>2087.9</ele>
        <time>2021-03-26T12:59:39Z</time>
      </trkpt>
      <trkpt lat="45.659" lon="6.84238">
        <ele>2088.5</ele>
        <time>2021-03-26T12:59:40Z</time>
      </trkpt>
      <trkpt lat="45.65899" lon="6.84238">
        <ele>2087</ele>
        <time>2021-03-26T12:59:41Z</time>
      </trkpt>
      <trkpt lat="45.65898" lon="6.84238">
        <ele>2087</ele>
        <time>2021-03-26T12:59:42Z</time>
      </trkpt>
      <trkpt lat="45.65897" lon="6.84237">
        <ele>2087</ele>
        <time>2021-03-26T12:59:43Z</time>
      </trkpt>
      <trkpt lat="45.65896" lon="6.84237">
        <ele>2087</ele>
        <time>2021-03-26T12:59:44Z</time>
      </trkpt>
      <trkpt lat="45.65895" lon="6.84237">
        <ele>2085.4</ele>
        <time>2021-03-26T12:59:45Z</time>
      </trkpt>
      <trkpt lat="45.65894" lon="6.84237">
        <ele>2085.4</ele>
        <time>2021-03-26T13:04:01Z</time>
      </trkpt>
      <trkpt lat="45.65893" lon="6.84237">
        <ele>2085.4</ele>
        <time>2021-03-26T13:04:02Z</time>
      </trkpt>
      <trkpt lat="45.65891" lon="6.84232">
        <ele>2084.2</ele>
        <time>2021-03-26T13:04:03Z</time>
      </trkpt>
      <trkpt lat="45.6589" lon="6.84231">
        <ele>2084.2</ele>
        <time>2021-03-26T13:04:04Z</time>
      </trkpt>
      <trkpt lat="45.65888" lon="6.84227">
        <ele>2083</ele>
        <time>2021-03-26T13:04:05Z</time>
      </trkpt>
      <trkpt lat="45.65887" lon="6.84224">
        <ele>2083.6</ele>
        <time>2021-03-26T13:04:06Z</time>
      </trkpt>
      <trkpt lat="45.65885" lon="6.8422">
        <ele>2082.4</ele>
        <time>2021-03-26T13:04:07Z</time>
      </trkpt>
      <trkpt lat="45.65884" lon="6.84217">
        <ele>2080.7</ele>
        <time>2021-03-26T13:04:08Z</time>
      </trkpt>
      <trkpt lat="45.65882" lon="6.84213">
        <ele>2081.2</ele>
        <time>2021-03-26T13:04:09Z</time>
      </trkpt>
      <trkpt lat="45.6588" lon="6.84208">
        <ele>2080</ele>
        <time>2021-03-26T13:04:10Z</time>
      </trkpt>
      <trkpt lat="45.6588" lon="6.84207">
        <ele>2080.5</ele>
        <time>2021-03-26T13:04:11Z</time>
      </trkpt>
      <trkpt lat="45.65878" lon="6.84202">
        <ele>2079.4</ele>
        <time>2021-03-26T13:04:12Z</time>
      </trkpt>
      <trkpt lat="45.65877" lon="6.84201">
        <ele>2079.4</ele>
        <time>2021-03-26T13:04:13Z</time>
      </trkpt>
      <trkpt lat="45.65875" lon="6.84199">
        <ele>2079.9</ele>
        <time>2021-03-26T13:04:14Z</time>
      </trkpt>
      <trkpt lat="45.65872" lon="6.84196">
        <ele>2078.3</ele>
        <time>2021-03-26T13:04:15Z</time>
      </trkpt>
      <trkpt lat="45.6587" lon="6.84193">
        <ele>2077.2</ele>
        <time>2021-03-26T13:04:16Z</time>
      </trkpt>
      <trkpt lat="45.65868" lon="6.8419">
        <ele>2076.2</ele>
        <time>2021-03-26T13:04:17Z</time>
      </trkpt>
      <trkpt lat="45.65866" lon="6.84187">
        <ele>2074.4</ele>
        <time>2021-03-26T13:04:18Z</time>
      </trkpt>
      <trkpt lat="45.65864" lon="6.84183">
        <ele>2075.1</ele>
        <time>2021-03-26T13:04:19Z</time>
      </trkpt>
      <trkpt lat="45.65863" lon="6.8418">
        <ele>2074</ele>
        <time>2021-03-26T13:04:20Z</time>
      </trkpt>
      <trkpt lat="45.65862" lon="6.84179">
        <ele>2074</ele>
        <time>2021-03-26T13:04:21Z</time>
      </trkpt>
      <trkpt lat="45.65862" lon="6.84178">
        <ele>2074.7</ele>
        <time>2021-03-26T13:04:22Z</time>
      </trkpt>
      <trkpt lat="45.65861" lon="6.84178">
        <ele>2074.7</ele>
        <time>2021-03-26T13:04:23Z</time>
      </trkpt>
      <trkpt lat="45.65861" lon="6.84178">
        <ele>2074</ele>
        <time>2021-03-26T13:04:24Z</time>
      </trkpt>
      <trkpt lat="45.65861" lon="6.84178">
        <ele>2074</ele>
        <time>2021-03-26T13:04:25Z</time>
      </trkpt>
      <trkpt lat="45.6586" lon="6.84179">
        <ele>2074</ele>
        <time>2021-03-26T13:04:26Z</time>
      </trkpt>
      <trkpt lat="45.6586" lon="6.84179">
        <ele>2074</ele>
        <time>2021-03-26T13:04:27Z</time>
      </trkpt>
      <trkpt lat="45.6586" lon="6.84179">
        <ele>2072.1</ele>
        <time>2021-03-26T13:04:28Z</time>
      </trkpt>
      <trkpt lat="45.65859" lon="6.8418">
        <ele>2072.1</ele>
        <time>2021-03-26T13:04:29Z</time>
      </trkpt>
      <trkpt lat="45.65859" lon="6.8418">
        <ele>2072.1</ele>
        <time>2021-03-26T13:04:30Z</time>
      </trkpt>
      <trkpt lat="45.65859" lon="6.8418">
        <ele>2072.1</ele>
        <time>2021-03-26T13:04:31Z</time>
      </trkpt>
      <trkpt lat="45.65858" lon="6.8418">
        <ele>2072.1</ele>
        <time>2021-03-26T13:04:32Z</time>
      </trkpt>
      <trkpt lat="45.65858" lon="6.84181">
        <ele>2072.1</ele>
        <time>2021-03-26T13:04:33Z</time>
      </trkpt>
      <trkpt lat="45.65856" lon="6.84185">
        <ele>2069.5</ele>
        <time>2021-03-26T13:04:34Z</time>
      </trkpt>
      <trkpt lat="45.65855" lon="6.8419">
        <ele>2068.8</ele>
        <time>2021-03-26T13:04:35Z</time>
      </trkpt>
      <trkpt lat="45.65854" lon="6.84194">
        <ele>2068</ele>
        <time>2021-03-26T13:04:36Z</time>
      </trkpt>
      <trkpt lat="45.65853" lon="6.84196">
        <ele>2065.4</ele>
        <time>2021-03-26T13:04:37Z</time>
      </trkpt>
      <trkpt lat="45.65852" lon="6.84195">
        <ele>2065.4</ele>
        <time>2021-03-26T13:04:38Z</time>
      </trkpt>
      <trkpt lat="45.65848" lon="6.84193">
        <ele>2064.4</ele>
        <time>2021-03-26T13:04:39Z</time>
      </trkpt>
      <trkpt lat="45.65844" lon="6.8419">
        <ele>2061.8</ele>
        <time>2021-03-26T13:04:40Z</time>
      </trkpt>
      <trkpt lat="45.65841" lon="6.84189">
        <ele>2060</ele>
        <time>2021-03-26T13:04:41Z</time>
      </trkpt>
      <trkpt lat="45.65839" lon="6.84189">
        <ele>2060</ele>
        <time>2021-03-26T13:04:42Z</time>
      </trkpt>
      <trkpt lat="45.65838" lon="6.8419">
        <ele>2058.1</ele>
        <time>2021-03-26T13:04:43Z</time>
      </trkpt>
      <trkpt lat="45.65837" lon="6.84192">
        <ele>2057.3</ele>
        <time>2021-03-26T13:04:44Z</time>
      </trkpt>
      <trkpt lat="45.65837" lon="6.84195">
        <ele>2057.3</ele>
        <time>2021-03-26T13:04:45Z</time>
      </trkpt>
      <trkpt lat="45.65838" lon="6.84196">
        <ele>2056.6</ele>
        <time>2021-03-26T13:04:46Z</time>
      </trkpt>
      <trkpt lat="45.65838" lon="6.84198">
        <ele>2056.6</ele>
        <time>2021-03-26T13:04:47Z</time>
      </trkpt>
      <trkpt lat="45.65838" lon="6.84199">
        <ele>2056.6</ele>
        <time>2021-03-26T13:04:48Z</time>
      </trkpt>
      <trkpt lat="45.65838" lon="6.84199">
        <ele>2056.6</ele>
        <time>2021-03-26T13:04:49Z</time>
      </trkpt>
      <trkpt lat="45.65838" lon="6.84199">
        <ele>2056.6</ele>
        <time>2021-03-26T13:04:50Z</time>
      </trkpt>
      <trkpt lat="45.65838" lon="6.842">
        <ele>2055.9</ele>
        <time>2021-03-26T13:04:51Z</time>
      </trkpt>
      <trkpt lat="45.65838" lon="6.842">
        <ele>2055.9</ele>
        <time>2021-03-26T13:04:52Z</time>
      </trkpt>
      <trkpt lat="45.65838" lon="6.842">
        <ele>2055.9</ele>
        <time>2021-03-26T13:04:53Z</time>
      </trkpt>
      <trkpt lat="45.65838" lon="6.842">
        <ele>2055.9</ele>
        <time>2021-03-26T13:04:54Z</time>
      </trkpt>
      <trkpt lat="45.65838" lon="6.842">
        <ele>2055.9</ele>
        <time>2021-03-26T13:04:55Z</time>
      </trkpt>
      <trkpt lat="45.65838" lon="6.842">
        <ele>2055.9</ele>
        <time>2021-03-26T13:04:56Z</time>
      </trkpt>
      <trkpt lat="45.65838" lon="6.842">
        <ele>2055.9</ele>
        <time>2021-03-26T13:04:57Z</time>
      </trkpt>
      <trkpt lat="45.65831" lon="6.84207">
        <ele>2051.1</ele>
        <time>2021-03-26T13:05:13Z</time>
      </trkpt>
      <trkpt lat="45.6583" lon="6.84207">
        <ele>2049.1</ele>
        <time>2021-03-26T13:05:14Z</time>
      </trkpt>
      <trkpt lat="45.65828" lon="6.84207">
        <ele>2049.1</ele>
        <time>2021-03-26T13:05:15Z</time>
      </trkpt>
      <trkpt lat="45.65827" lon="6.8421">
        <ele>2048.5</ele>
        <time>2021-03-26T13:05:16Z</time>
      </trkpt>
      <trkpt lat="45.65827" lon="6.84215">
        <ele>2047.9</ele>
        <time>2021-03-26T13:05:17Z</time>
      </trkpt>
      <trkpt lat="45.65826" lon="6.84221">
        <ele>2045.5</ele>
        <time>2021-03-26T13:05:18Z</time>
      </trkpt>
      <trkpt lat="45.65826" lon="6.84226">
        <ele>2044.2</ele>
        <time>2021-03-26T13:05:19Z</time>
      </trkpt>
      <trkpt lat="45.65825" lon="6.84231">
        <ele>2043.5</ele>
        <time>2021-03-26T13:05:20Z</time>
      </trkpt>
      <trkpt lat="45.65825" lon="6.84237">
        <ele>2042.8</ele>
        <time>2021-03-26T13:05:21Z</time>
      </trkpt>
      <trkpt lat="45.65823" lon="6.84234">
        <ele>2041.1</ele>
        <time>2021-03-26T13:05:22Z</time>
      </trkpt>
      <trkpt lat="45.65822" lon="6.84232">
        <ele>2041.8</ele>
        <time>2021-03-26T13:05:23Z</time>
      </trkpt>
      <trkpt lat="45.65821" lon="6.8423">
        <ele>2041.8</ele>
        <time>2021-03-26T13:05:24Z</time>
      </trkpt>
      <trkpt lat="45.65818" lon="6.84224">
        <ele>2041.5</ele>
        <time>2021-03-26T13:05:25Z</time>
      </trkpt>
      <trkpt lat="45.65816" lon="6.84217">
        <ele>2040.4</ele>
        <time>2021-03-26T13:05:26Z</time>
      </trkpt>
      <trkpt lat="45.65814" lon="6.84211">
        <ele>2039.8</ele>
        <time>2021-03-26T13:05:27Z</time>
      </trkpt>
      <trkpt lat="45.65813" lon="6.84205">
        <ele>2040.3</ele>
        <time>2021-03-26T13:05:28Z</time>
      </trkpt>
      <trkpt lat="45.65812" lon="6.842">
        <ele>2040.9</ele>
        <time>2021-03-26T13:05:29Z</time>
      </trkpt>
      <trkpt lat="45.65812" lon="6.84195">
        <ele>2040.3</ele>
        <time>2021-03-26T13:05:30Z</time>
      </trkpt>
      <trkpt lat="45.65811" lon="6.84191">
        <ele>2040.9</ele>
        <time>2021-03-26T13:05:31Z</time>
      </trkpt>
      <trkpt lat="45.6581" lon="6.84187">
        <ele>2040.9</ele>
        <time>2021-03-26T13:05:32Z</time>
      </trkpt>
      <trkpt lat="45.65809" lon="6.84181">
        <ele>2040.2</ele>
        <time>2021-03-26T13:05:33Z</time>
      </trkpt>
      <trkpt lat="45.65808" lon="6.84179">
        <ele>2040.2</ele>
        <time>2021-03-26T13:05:34Z</time>
      </trkpt>
      <trkpt lat="45.65805" lon="6.84177">
        <ele>2038.7</ele>
        <time>2021-03-26T13:05:35Z</time>
      </trkpt>
      <trkpt lat="45.65802" lon="6.84176">
        <ele>2036.8</ele>
        <time>2021-03-26T13:05:36Z</time>
      </trkpt>
      <trkpt lat="45.65799" lon="6.84177">
        <ele>2035</ele>
        <time>2021-03-26T13:05:37Z</time>
      </trkpt>
      <trkpt lat="45.65796" lon="6.84178">
        <ele>2032.6</ele>
        <time>2021-03-26T13:05:38Z</time>
      </trkpt>
      <trkpt lat="45.65793" lon="6.84177">
        <ele>2031.5</ele>
        <time>2021-03-26T13:05:39Z</time>
      </trkpt>
      <trkpt lat="45.65792" lon="6.84176">
        <ele>2031.5</ele>
        <time>2021-03-26T13:05:40Z</time>
      </trkpt>
      <trkpt lat="45.65792" lon="6.8417">
        <ele>2032</ele>
        <time>2021-03-26T13:05:41Z</time>
      </trkpt>
      <trkpt lat="45.65792" lon="6.84167">
        <ele>2032.5</ele>
        <time>2021-03-26T13:05:42Z</time>
      </trkpt>
      <trkpt lat="45.65791" lon="6.84163">
        <ele>2032.9</ele>
        <time>2021-03-26T13:05:43Z</time>
      </trkpt>
      <trkpt lat="45.65789" lon="6.84159">
        <ele>2031.6</ele>
        <time>2021-03-26T13:05:44Z</time>
      </trkpt>
      <trkpt lat="45.65785" lon="6.84159">
        <ele>2029.8</ele>
        <time>2021-03-26T13:05:45Z</time>
      </trkpt>
      <trkpt lat="45.65783" lon="6.8416">
        <ele>2027.9</ele>
        <time>2021-03-26T13:05:46Z</time>
      </trkpt>
      <trkpt lat="45.65779" lon="6.84164">
        <ele>2025.7</ele>
        <time>2021-03-26T13:05:47Z</time>
      </trkpt>
      <trkpt lat="45.65776" lon="6.84169">
        <ele>2021.1</ele>
        <time>2021-03-26T13:05:48Z</time>
      </trkpt>
      <trkpt lat="45.65772" lon="6.84174">
        <ele>2018.9</ele>
        <time>2021-03-26T13:05:49Z</time>
      </trkpt>
      <trkpt lat="45.65769" lon="6.84177">
        <ele>2017.3</ele>
        <time>2021-03-26T13:05:50Z</time>
      </trkpt>
      <trkpt lat="45.65768" lon="6.84174">
        <ele>2017.3</ele>
        <time>2021-03-26T13:05:51Z</time>
      </trkpt>
      <trkpt lat="45.65767" lon="6.84172">
        <ele>2017.7</ele>
        <time>2021-03-26T13:05:52Z</time>
      </trkpt>
      <trkpt lat="45.65767" lon="6.84168">
        <ele>2018.1</ele>
        <time>2021-03-26T13:05:53Z</time>
      </trkpt>
      <trkpt lat="45.65767" lon="6.84166">
        <ele>2016.6</ele>
        <time>2021-03-26T13:05:54Z</time>
      </trkpt>
      <trkpt lat="45.65766" lon="6.84167">
        <ele>2016.6</ele>
        <time>2021-03-26T13:05:55Z</time>
      </trkpt>
      <trkpt lat="45.65766" lon="6.84167">
        <ele>2016.6</ele>
        <time>2021-03-26T13:05:56Z</time>
      </trkpt>
      <trkpt lat="45.65766" lon="6.84168">
        <ele>2016.6</ele>
        <time>2021-03-26T13:05:57Z</time>
      </trkpt>
      <trkpt lat="45.65766" lon="6.84168">
        <ele>2016.6</ele>
        <time>2021-03-26T13:05:58Z</time>
      </trkpt>
      <trkpt lat="45.65765" lon="6.84169">
        <ele>2016.6</ele>
        <time>2021-03-26T13:05:59Z</time>
      </trkpt>
      <trkpt lat="45.65765" lon="6.84169">
        <ele>2016.6</ele>
        <time>2021-03-26T13:06:00Z</time>
      </trkpt>
      <trkpt lat="45.65765" lon="6.8417">
        <ele>2016.1</ele>
        <time>2021-03-26T13:06:01Z</time>
      </trkpt>
      <trkpt lat="45.65764" lon="6.8417">
        <ele>2016.1</ele>
        <time>2021-03-26T13:06:02Z</time>
      </trkpt>
      <trkpt lat="45.65764" lon="6.84171">
        <ele>2016.1</ele>
        <time>2021-03-26T13:06:03Z</time>
      </trkpt>
      <trkpt lat="45.65764" lon="6.84171">
        <ele>2016.1</ele>
        <time>2021-03-26T13:06:04Z</time>
      </trkpt>
      <trkpt lat="45.65764" lon="6.84172">
        <ele>2014.7</ele>
        <time>2021-03-26T13:06:05Z</time>
      </trkpt>
      <trkpt lat="45.65763" lon="6.84172">
        <ele>2014.7</ele>
        <time>2021-03-26T13:06:30Z</time>
      </trkpt>
      <trkpt lat="45.65763" lon="6.84173">
        <ele>2014.7</ele>
        <time>2021-03-26T13:06:31Z</time>
      </trkpt>
      <trkpt lat="45.65763" lon="6.84173">
        <ele>2014.7</ele>
        <time>2021-03-26T13:06:32Z</time>
      </trkpt>
      <trkpt lat="45.6576" lon="6.84173">
        <ele>2013.3</ele>
        <time>2021-03-26T13:06:33Z</time>
      </trkpt>
      <trkpt lat="45.65756" lon="6.84172">
        <ele>2011.9</ele>
        <time>2021-03-26T13:06:34Z</time>
      </trkpt>
      <trkpt lat="45.65755" lon="6.84171">
        <ele>2011.9</ele>
        <time>2021-03-26T13:06:35Z</time>
      </trkpt>
      <trkpt lat="45.65752" lon="6.84171">
        <ele>2010.4</ele>
        <time>2021-03-26T13:06:36Z</time>
      </trkpt>
      <trkpt lat="45.65749" lon="6.8417">
        <ele>2008.9</ele>
        <time>2021-03-26T13:06:37Z</time>
      </trkpt>
      <trkpt lat="45.65748" lon="6.8416">
        <ele>2008.8</ele>
        <time>2021-03-26T13:06:38Z</time>
      </trkpt>
      <trkpt lat="45.65748" lon="6.84151">
        <ele>2009.8</ele>
        <time>2021-03-26T13:06:39Z</time>
      </trkpt>
      <trkpt lat="45.65738" lon="6.84142">
        <ele>2007.3</ele>
        <time>2021-03-26T13:06:40Z</time>
      </trkpt>
      <trkpt lat="45.65734" lon="6.84135">
        <ele>2007.7</ele>
        <time>2021-03-26T13:06:41Z</time>
      </trkpt>
      <trkpt lat="45.65731" lon="6.84132">
        <ele>2006.7</ele>
        <time>2021-03-26T13:06:42Z</time>
      </trkpt>
      <trkpt lat="45.65725" lon="6.84128">
        <ele>2004.1</ele>
        <time>2021-03-26T13:06:43Z</time>
      </trkpt>
      <trkpt lat="45.65718" lon="6.84125">
        <ele>2002.9</ele>
        <time>2021-03-26T13:06:44Z</time>
      </trkpt>
      <trkpt lat="45.65712" lon="6.84122">
        <ele>2001.4</ele>
        <time>2021-03-26T13:06:45Z</time>
      </trkpt>
      <trkpt lat="45.65708" lon="6.84124">
        <ele>2000.8</ele>
        <time>2021-03-26T13:06:46Z</time>
      </trkpt>
      <trkpt lat="45.65703" lon="6.8412">
        <ele>2000.1</ele>
        <time>2021-03-26T13:06:47Z</time>
      </trkpt>
      <trkpt lat="45.65702" lon="6.8412">
        <ele>2000.1</ele>
        <time>2021-03-26T13:06:48Z</time>
      </trkpt>
      <trkpt lat="45.65702" lon="6.84123">
        <ele>1999.5</ele>
        <time>2021-03-26T13:06:49Z</time>
      </trkpt>
      <trkpt lat="45.65702" lon="6.84121">
        <ele>2000.1</ele>
        <time>2021-03-26T13:06:50Z</time>
      </trkpt>
      <trkpt lat="45.65702" lon="6.84121">
        <ele>2000.1</ele>
        <time>2021-03-26T13:06:51Z</time>
      </trkpt>
      <trkpt lat="45.65702" lon="6.8412">
        <ele>2000.1</ele>
        <time>2021-03-26T13:06:52Z</time>
      </trkpt>
      <trkpt lat="45.65701" lon="6.8412">
        <ele>2000.1</ele>
        <time>2021-03-26T13:06:53Z</time>
      </trkpt>
      <trkpt lat="45.65701" lon="6.84119">
        <ele>2000.1</ele>
        <time>2021-03-26T13:06:54Z</time>
      </trkpt>
      <trkpt lat="45.65701" lon="6.84119">
        <ele>2000.1</ele>
        <time>2021-03-26T13:06:55Z</time>
      </trkpt>
      <trkpt lat="45.65701" lon="6.84118">
        <ele>2000.1</ele>
        <time>2021-03-26T13:06:56Z</time>
      </trkpt>
      <trkpt lat="45.657" lon="6.84116">
        <ele>2000.1</ele>
        <time>2021-03-26T13:06:57Z</time>
      </trkpt>
      <trkpt lat="45.65699" lon="6.84113">
        <ele>2000.8</ele>
        <time>2021-03-26T13:06:58Z</time>
      </trkpt>
      <trkpt lat="45.65698" lon="6.84109">
        <ele>2000.8</ele>
        <time>2021-03-26T13:06:59Z</time>
      </trkpt>
      <trkpt lat="45.65697" lon="6.84108">
        <ele>2000.8</ele>
        <time>2021-03-26T13:07:00Z</time>
      </trkpt>
      <trkpt lat="45.65696" lon="6.84106">
        <ele>2000.8</ele>
        <time>2021-03-26T13:07:01Z</time>
      </trkpt>
      <trkpt lat="45.65696" lon="6.84104">
        <ele>2001.5</ele>
        <time>2021-03-26T13:07:02Z</time>
      </trkpt>
      <trkpt lat="45.65695" lon="6.84102">
        <ele>2001.5</ele>
        <time>2021-03-26T13:07:03Z</time>
      </trkpt>
      <trkpt lat="45.65694" lon="6.841">
        <ele>2001.6</ele>
        <time>2021-03-26T13:07:04Z</time>
      </trkpt>
      <trkpt lat="45.65692" lon="6.84095">
        <ele>2002.3</ele>
        <time>2021-03-26T13:07:05Z</time>
      </trkpt>
      <trkpt lat="45.65692" lon="6.84093">
        <ele>2001.7</ele>
        <time>2021-03-26T13:07:06Z</time>
      </trkpt>
      <trkpt lat="45.6569" lon="6.84089">
        <ele>2002.4</ele>
        <time>2021-03-26T13:07:07Z</time>
      </trkpt>
      <trkpt lat="45.65689" lon="6.84085">
        <ele>2002.6</ele>
        <time>2021-03-26T13:07:08Z</time>
      </trkpt>
      <trkpt lat="45.65687" lon="6.84079">
        <ele>2003.3</ele>
        <time>2021-03-26T13:07:09Z</time>
      </trkpt>
      <trkpt lat="45.65684" lon="6.84074">
        <ele>2003.9</ele>
        <time>2021-03-26T13:07:10Z</time>
      </trkpt>
      <trkpt lat="45.65681" lon="6.8407">
        <ele>2004</ele>
        <time>2021-03-26T13:07:11Z</time>
      </trkpt>
      <trkpt lat="45.65679" lon="6.84065">
        <ele>2004.1</ele>
        <time>2021-03-26T13:07:12Z</time>
      </trkpt>
      <trkpt lat="45.65678" lon="6.84064">
        <ele>2004.1</ele>
        <time>2021-03-26T13:07:13Z</time>
      </trkpt>
      <trkpt lat="45.65675" lon="6.84061">
        <ele>2004.2</ele>
        <time>2021-03-26T13:07:14Z</time>
      </trkpt>
      <trkpt lat="45.65672" lon="6.84059">
        <ele>2003.7</ele>
        <time>2021-03-26T13:07:15Z</time>
      </trkpt>
      <trkpt lat="45.65671" lon="6.84058">
        <ele>2003.7</ele>
        <time>2021-03-26T13:07:16Z</time>
      </trkpt>
      <trkpt lat="45.65671" lon="6.84056">
        <ele>2003.8</ele>
        <time>2021-03-26T13:07:17Z</time>
      </trkpt>
      <trkpt lat="45.65669" lon="6.84054">
        <ele>2003.8</ele>
        <time>2021-03-26T13:07:18Z</time>
      </trkpt>
      <trkpt lat="45.65667" lon="6.84051">
        <ele>2003.8</ele>
        <time>2021-03-26T13:07:19Z</time>
      </trkpt>
      <trkpt lat="45.65666" lon="6.8405">
        <ele>2003.8</ele>
        <time>2021-03-26T13:07:20Z</time>
      </trkpt>
      <trkpt lat="45.65663" lon="6.84047">
        <ele>2003.7</ele>
        <time>2021-03-26T13:07:21Z</time>
      </trkpt>
      <trkpt lat="45.65662" lon="6.84046">
        <ele>2003.7</ele>
        <time>2021-03-26T13:07:22Z</time>
      </trkpt>
      <trkpt lat="45.6566" lon="6.84044">
        <ele>2003.7</ele>
        <time>2021-03-26T13:07:23Z</time>
      </trkpt>
      <trkpt lat="45.65656" lon="6.84043">
        <ele>2003.1</ele>
        <time>2021-03-26T13:07:24Z</time>
      </trkpt>
      <trkpt lat="45.65655" lon="6.84043">
        <ele>2002.7</ele>
        <time>2021-03-26T13:07:25Z</time>
      </trkpt>
      <trkpt lat="45.65653" lon="6.84043">
        <ele>2002.7</ele>
        <time>2021-03-26T13:07:26Z</time>
      </trkpt>
      <trkpt lat="45.65652" lon="6.84044">
        <ele>2002.2</ele>
        <time>2021-03-26T13:07:27Z</time>
      </trkpt>
      <trkpt lat="45.6565" lon="6.84047">
        <ele>2001.2</ele>
        <time>2021-03-26T13:07:28Z</time>
      </trkpt>
      <trkpt lat="45.65649" lon="6.84049">
        <ele>2001.2</ele>
        <time>2021-03-26T13:07:29Z</time>
      </trkpt>
      <trkpt lat="45.65648" lon="6.84054">
        <ele>2000.2</ele>
        <time>2021-03-26T13:07:30Z</time>
      </trkpt>
      <trkpt lat="45.65648" lon="6.84055">
        <ele>2000.2</ele>
        <time>2021-03-26T13:07:31Z</time>
      </trkpt>
      <trkpt lat="45.65646" lon="6.84059">
        <ele>1999.1</ele>
        <time>2021-03-26T13:07:32Z</time>
      </trkpt>
      <trkpt lat="45.65646" lon="6.84063">
        <ele>1998.6</ele>
        <time>2021-03-26T13:07:33Z</time>
      </trkpt>
      <trkpt lat="45.65645" lon="6.84067">
        <ele>1998.1</ele>
        <time>2021-03-26T13:07:34Z</time>
      </trkpt>
      <trkpt lat="45.65645" lon="6.84073">
        <ele>1997.6</ele>
        <time>2021-03-26T13:07:35Z</time>
      </trkpt>
      <trkpt lat="45.65644" lon="6.84075">
        <ele>1997.6</ele>
        <time>2021-03-26T13:07:36Z</time>
      </trkpt>
      <trkpt lat="45.65644" lon="6.8408">
        <ele>1996.6</ele>
        <time>2021-03-26T13:07:37Z</time>
      </trkpt>
      <trkpt lat="45.65644" lon="6.84082">
        <ele>1996.1</ele>
        <time>2021-03-26T13:07:38Z</time>
      </trkpt>
      <trkpt lat="45.65643" lon="6.84087">
        <ele>1995.6</ele>
        <time>2021-03-26T13:07:39Z</time>
      </trkpt>
      <trkpt lat="45.65642" lon="6.84089">
        <ele>1995.1</ele>
        <time>2021-03-26T13:07:40Z</time>
      </trkpt>
      <trkpt lat="45.65641" lon="6.84095">
        <ele>1994.6</ele>
        <time>2021-03-26T13:07:41Z</time>
      </trkpt>
      <trkpt lat="45.6564" lon="6.84097">
        <ele>1993.5</ele>
        <time>2021-03-26T13:07:42Z</time>
      </trkpt>
      <trkpt lat="45.65639" lon="6.84101">
        <ele>1993</ele>
        <time>2021-03-26T13:07:43Z</time>
      </trkpt>
      <trkpt lat="45.65639" lon="6.84103">
        <ele>1993</ele>
        <time>2021-03-26T13:07:44Z</time>
      </trkpt>
      <trkpt lat="45.65638" lon="6.84107">
        <ele>1992.4</ele>
        <time>2021-03-26T13:07:45Z</time>
      </trkpt>
      <trkpt lat="45.65638" lon="6.84109">
        <ele>1992.4</ele>
        <time>2021-03-26T13:07:46Z</time>
      </trkpt>
      <trkpt lat="45.65638" lon="6.84111">
        <ele>1991.8</ele>
        <time>2021-03-26T13:07:47Z</time>
      </trkpt>
      <trkpt lat="45.65638" lon="6.84114">
        <ele>1991.3</ele>
        <time>2021-03-26T13:07:48Z</time>
      </trkpt>
      <trkpt lat="45.65638" lon="6.84117">
        <ele>1990.8</ele>
        <time>2021-03-26T13:07:49Z</time>
      </trkpt>
      <trkpt lat="45.65637" lon="6.84118">
        <ele>1990.2</ele>
        <time>2021-03-26T13:07:50Z</time>
      </trkpt>
      <trkpt lat="45.65637" lon="6.84119">
        <ele>1990.2</ele>
        <time>2021-03-26T13:07:51Z</time>
      </trkpt>
      <trkpt lat="45.65637" lon="6.84121">
        <ele>1990.2</ele>
        <time>2021-03-26T13:07:52Z</time>
      </trkpt>
      <trkpt lat="45.65636" lon="6.84123">
        <ele>1989.7</ele>
        <time>2021-03-26T13:07:53Z</time>
      </trkpt>
      <trkpt lat="45.65635" lon="6.84127">
        <ele>1989.1</ele>
        <time>2021-03-26T13:07:54Z</time>
      </trkpt>
      <trkpt lat="45.65634" lon="6.84128">
        <ele>1988.6</ele>
        <time>2021-03-26T13:07:55Z</time>
      </trkpt>
      <trkpt lat="45.65632" lon="6.84131">
        <ele>1987.9</ele>
        <time>2021-03-26T13:07:56Z</time>
      </trkpt>
      <trkpt lat="45.65631" lon="6.84132">
        <ele>1987.4</ele>
        <time>2021-03-26T13:07:57Z</time>
      </trkpt>
      <trkpt lat="45.65629" lon="6.84135">
        <ele>1986.9</ele>
        <time>2021-03-26T13:07:58Z</time>
      </trkpt>
      <trkpt lat="45.65626" lon="6.84137">
        <ele>1986.2</ele>
        <time>2021-03-26T13:07:59Z</time>
      </trkpt>
      <trkpt lat="45.65623" lon="6.84138">
        <ele>1985</ele>
        <time>2021-03-26T13:08:00Z</time>
      </trkpt>
      <trkpt lat="45.65622" lon="6.84139">
        <ele>1985</ele>
        <time>2021-03-26T13:08:01Z</time>
      </trkpt>
      <trkpt lat="45.6562" lon="6.84139">
        <ele>1985</ele>
        <time>2021-03-26T13:08:02Z</time>
      </trkpt>
      <trkpt lat="45.65619" lon="6.84139">
        <ele>1984.4</ele>
        <time>2021-03-26T13:08:03Z</time>
      </trkpt>
      <trkpt lat="45.65615" lon="6.84139">
        <ele>1983.7</ele>
        <time>2021-03-26T13:08:04Z</time>
      </trkpt>
      <trkpt lat="45.65614" lon="6.84139">
        <ele>1983.7</ele>
        <time>2021-03-26T13:08:05Z</time>
      </trkpt>
      <trkpt lat="45.65611" lon="6.84139">
        <ele>1982.9</ele>
        <time>2021-03-26T13:08:06Z</time>
      </trkpt>
      <trkpt lat="45.6561" lon="6.84139">
        <ele>1982.1</ele>
        <time>2021-03-26T13:08:07Z</time>
      </trkpt>
      <trkpt lat="45.65607" lon="6.84138">
        <ele>1981.3</ele>
        <time>2021-03-26T13:08:08Z</time>
      </trkpt>
      <trkpt lat="45.65606" lon="6.84138">
        <ele>1981.3</ele>
        <time>2021-03-26T13:08:09Z</time>
      </trkpt>
      <trkpt lat="45.65603" lon="6.84136">
        <ele>1980.4</ele>
        <time>2021-03-26T13:08:10Z</time>
      </trkpt>
      <trkpt lat="45.65601" lon="6.84135">
        <ele>1979.6</ele>
        <time>2021-03-26T13:08:11Z</time>
      </trkpt>
      <trkpt lat="45.65598" lon="6.84133">
        <ele>1979.8</ele>
        <time>2021-03-26T13:08:12Z</time>
      </trkpt>
      <trkpt lat="45.65597" lon="6.84132">
        <ele>1979.8</ele>
        <time>2021-03-26T13:08:13Z</time>
      </trkpt>
      <trkpt lat="45.65594" lon="6.84129">
        <ele>1979.9</ele>
        <time>2021-03-26T13:08:14Z</time>
      </trkpt>
      <trkpt lat="45.65594" lon="6.84129">
        <ele>1979.9</ele>
        <time>2021-03-26T13:08:15Z</time>
      </trkpt>
      <trkpt lat="45.65592" lon="6.84127">
        <ele>1979.1</ele>
        <time>2021-03-26T13:08:16Z</time>
      </trkpt>
      <trkpt lat="45.65591" lon="6.84125">
        <ele>1979.9</ele>
        <time>2021-03-26T13:08:17Z</time>
      </trkpt>
      <trkpt lat="45.6559" lon="6.84124">
        <ele>1979</ele>
        <time>2021-03-26T13:08:18Z</time>
      </trkpt>
      <trkpt lat="45.65589" lon="6.84122">
        <ele>1979.9</ele>
        <time>2021-03-26T13:08:19Z</time>
      </trkpt>
      <trkpt lat="45.65586" lon="6.84119">
        <ele>1978.8</ele>
        <time>2021-03-26T13:08:20Z</time>
      </trkpt>
      <trkpt lat="45.65585" lon="6.84118">
        <ele>1978.8</ele>
        <time>2021-03-26T13:08:21Z</time>
      </trkpt>
      <trkpt lat="45.65584" lon="6.84116">
        <ele>1979.6</ele>
        <time>2021-03-26T13:08:22Z</time>
      </trkpt>
      <trkpt lat="45.65583" lon="6.84114">
        <ele>1978.5</ele>
        <time>2021-03-26T13:08:23Z</time>
      </trkpt>
      <trkpt lat="45.65581" lon="6.84112">
        <ele>1979.3</ele>
        <time>2021-03-26T13:08:24Z</time>
      </trkpt>
      <trkpt lat="45.6558" lon="6.84111">
        <ele>1978.1</ele>
        <time>2021-03-26T13:08:25Z</time>
      </trkpt>
      <trkpt lat="45.65579" lon="6.8411">
        <ele>1978.1</ele>
        <time>2021-03-26T13:08:26Z</time>
      </trkpt>
      <trkpt lat="45.65578" lon="6.84108">
        <ele>1977.7</ele>
        <time>2021-03-26T13:08:27Z</time>
      </trkpt>
      <trkpt lat="45.65576" lon="6.84107">
        <ele>1977.7</ele>
        <time>2021-03-26T13:08:28Z</time>
      </trkpt>
      <trkpt lat="45.65576" lon="6.84106">
        <ele>1977.7</ele>
        <time>2021-03-26T13:08:29Z</time>
      </trkpt>
      <trkpt lat="45.65575" lon="6.84105">
        <ele>1978.5</ele>
        <time>2021-03-26T13:08:30Z</time>
      </trkpt>
      <trkpt lat="45.65575" lon="6.84105">
        <ele>1978.5</ele>
        <time>2021-03-26T13:08:31Z</time>
      </trkpt>
      <trkpt lat="45.65575" lon="6.84105">
        <ele>1978.5</ele>
        <time>2021-03-26T13:08:32Z</time>
      </trkpt>
      <trkpt lat="45.65575" lon="6.84105">
        <ele>1978.5</ele>
        <time>2021-03-26T13:08:33Z</time>
      </trkpt>
      <trkpt lat="45.65575" lon="6.84105">
        <ele>1978.5</ele>
        <time>2021-03-26T13:08:34Z</time>
      </trkpt>
      <trkpt lat="45.65575" lon="6.84105">
        <ele>1978.5</ele>
        <time>2021-03-26T13:08:35Z</time>
      </trkpt>
      <trkpt lat="45.65575" lon="6.84105">
        <ele>1978.5</ele>
        <time>2021-03-26T13:08:36Z</time>
      </trkpt>
      <trkpt lat="45.65575" lon="6.84105">
        <ele>1978.5</ele>
        <time>2021-03-26T13:08:37Z</time>
      </trkpt>
      <trkpt lat="45.65575" lon="6.84105">
        <ele>1978.5</ele>
        <time>2021-03-26T13:08:38Z</time>
      </trkpt>
      <trkpt lat="45.65575" lon="6.84105">
        <ele>1978.5</ele>
        <time>2021-03-26T13:08:39Z</time>
      </trkpt>
      <trkpt lat="45.65575" lon="6.84105">
        <ele>1978.5</ele>
        <time>2021-03-26T13:08:40Z</time>
      </trkpt>
      <trkpt lat="45.65575" lon="6.84105">
        <ele>1978.5</ele>
        <time>2021-03-26T13:08:41Z</time>
      </trkpt>
      <trkpt lat="45.65573" lon="6.841">
        <ele>1978.2</ele>
        <time>2021-03-26T13:08:52Z</time>
      </trkpt>
      <trkpt lat="45.65572" lon="6.84099">
        <ele>1978.2</ele>
        <time>2021-03-26T13:08:53Z</time>
      </trkpt>
      <trkpt lat="45.6557" lon="6.84097">
        <ele>1977.2</ele>
        <time>2021-03-26T13:08:54Z</time>
      </trkpt>
      <trkpt lat="45.65569" lon="6.84096">
        <ele>1976.9</ele>
        <time>2021-03-26T13:08:55Z</time>
      </trkpt>
      <trkpt lat="45.65566" lon="6.84094">
        <ele>1975.8</ele>
        <time>2021-03-26T13:08:56Z</time>
      </trkpt>
      <trkpt lat="45.65565" lon="6.84093">
        <ele>1975.8</ele>
        <time>2021-03-26T13:08:57Z</time>
      </trkpt>
      <trkpt lat="45.65562" lon="6.8409">
        <ele>1975.4</ele>
        <time>2021-03-26T13:08:58Z</time>
      </trkpt>
      <trkpt lat="45.65561" lon="6.84089">
        <ele>1975.4</ele>
        <time>2021-03-26T13:08:59Z</time>
      </trkpt>
      <trkpt lat="45.65559" lon="6.84086">
        <ele>1974.9</ele>
        <time>2021-03-26T13:09:00Z</time>
      </trkpt>
      <trkpt lat="45.65558" lon="6.84085">
        <ele>1974.9</ele>
        <time>2021-03-26T13:09:01Z</time>
      </trkpt>
      <trkpt lat="45.65555" lon="6.84083">
        <ele>1974.3</ele>
        <time>2021-03-26T13:09:02Z</time>
      </trkpt>
      <trkpt lat="45.65555" lon="6.84082">
        <ele>1974.3</ele>
        <time>2021-03-26T13:09:03Z</time>
      </trkpt>
      <trkpt lat="45.65552" lon="6.8408">
        <ele>1972.9</ele>
        <time>2021-03-26T13:09:04Z</time>
      </trkpt>
      <trkpt lat="45.6555" lon="6.84078">
        <ele>1972.3</ele>
        <time>2021-03-26T13:09:05Z</time>
      </trkpt>
      <trkpt lat="45.65547" lon="6.84077">
        <ele>1971.1</ele>
        <time>2021-03-26T13:09:06Z</time>
      </trkpt>
      <trkpt lat="45.65543" lon="6.84081">
        <ele>1969.2</ele>
        <time>2021-03-26T13:09:07Z</time>
      </trkpt>
      <trkpt lat="45.65543" lon="6.84083">
        <ele>1969.2</ele>
        <time>2021-03-26T13:09:08Z</time>
      </trkpt>
      <trkpt lat="45.65542" lon="6.8409">
        <ele>1967.7</ele>
        <time>2021-03-26T13:09:09Z</time>
      </trkpt>
      <trkpt lat="45.65542" lon="6.84097">
        <ele>1964.8</ele>
        <time>2021-03-26T13:09:10Z</time>
      </trkpt>
      <trkpt lat="45.65542" lon="6.84104">
        <ele>1963.9</ele>
        <time>2021-03-26T13:09:11Z</time>
      </trkpt>
      <trkpt lat="45.65541" lon="6.84111">
        <ele>1962.1</ele>
        <time>2021-03-26T13:09:12Z</time>
      </trkpt>
      <trkpt lat="45.65538" lon="6.84112">
        <ele>1960.7</ele>
        <time>2021-03-26T13:09:13Z</time>
      </trkpt>
      <trkpt lat="45.65534" lon="6.84111">
        <ele>1959.2</ele>
        <time>2021-03-26T13:09:14Z</time>
      </trkpt>
      <trkpt lat="45.65529" lon="6.84106">
        <ele>1957.1</ele>
        <time>2021-03-26T13:09:15Z</time>
      </trkpt>
      <trkpt lat="45.65525" lon="6.84105">
        <ele>1955.6</ele>
        <time>2021-03-26T13:09:16Z</time>
      </trkpt>
      <trkpt lat="45.65522" lon="6.84107">
        <ele>1954.1</ele>
        <time>2021-03-26T13:09:17Z</time>
      </trkpt>
      <trkpt lat="45.6552" lon="6.84114">
        <ele>1950.7</ele>
        <time>2021-03-26T13:09:18Z</time>
      </trkpt>
      <trkpt lat="45.65519" lon="6.84126">
        <ele>1947.8</ele>
        <time>2021-03-26T13:09:19Z</time>
      </trkpt>
      <trkpt lat="45.65515" lon="6.84122">
        <ele>1947.4</ele>
        <time>2021-03-26T13:09:20Z</time>
      </trkpt>
      <trkpt lat="45.65513" lon="6.84117">
        <ele>1947.9</ele>
        <time>2021-03-26T13:09:21Z</time>
      </trkpt>
      <trkpt lat="45.65509" lon="6.84113">
        <ele>1947.6</ele>
        <time>2021-03-26T13:09:22Z</time>
      </trkpt>
      <trkpt lat="45.65505" lon="6.84111">
        <ele>1945.1</ele>
        <time>2021-03-26T13:09:23Z</time>
      </trkpt>
      <trkpt lat="45.65503" lon="6.84108">
        <ele>1944.8</ele>
        <time>2021-03-26T13:09:24Z</time>
      </trkpt>
      <trkpt lat="45.65502" lon="6.84107">
        <ele>1944.8</ele>
        <time>2021-03-26T13:09:25Z</time>
      </trkpt>
      <trkpt lat="45.65502" lon="6.84106">
        <ele>1944.8</ele>
        <time>2021-03-26T13:09:26Z</time>
      </trkpt>
      <trkpt lat="45.65502" lon="6.84107">
        <ele>1944.8</ele>
        <time>2021-03-26T13:09:27Z</time>
      </trkpt>
      <trkpt lat="45.65502" lon="6.84107">
        <ele>1944.8</ele>
        <time>2021-03-26T13:09:28Z</time>
      </trkpt>
      <trkpt lat="45.65499" lon="6.84105">
        <ele>1943.4</ele>
        <time>2021-03-26T13:09:29Z</time>
      </trkpt>
      <trkpt lat="45.65495" lon="6.84104">
        <ele>1943.1</ele>
        <time>2021-03-26T13:09:30Z</time>
      </trkpt>
      <trkpt lat="45.65493" lon="6.84104">
        <ele>1941.8</ele>
        <time>2021-03-26T13:09:31Z</time>
      </trkpt>
      <trkpt lat="45.65489" lon="6.84103">
        <ele>1940.6</ele>
        <time>2021-03-26T13:09:32Z</time>
      </trkpt>
      <trkpt lat="45.65486" lon="6.841">
        <ele>1940.4</ele>
        <time>2021-03-26T13:09:33Z</time>
      </trkpt>
      <trkpt lat="45.65486" lon="6.841">
        <ele>1940.4</ele>
        <time>2021-03-26T13:09:34Z</time>
      </trkpt>
      <trkpt lat="45.65486" lon="6.84099">
        <ele>1940.4</ele>
        <time>2021-03-26T13:09:35Z</time>
      </trkpt>
      <trkpt lat="45.65488" lon="6.84099">
        <ele>1940.4</ele>
        <time>2021-03-26T13:09:36Z</time>
      </trkpt>
      <trkpt lat="45.65489" lon="6.84099">
        <ele>1941.5</ele>
        <time>2021-03-26T13:09:37Z</time>
      </trkpt>
      <trkpt lat="45.6549" lon="6.841">
        <ele>1941.5</ele>
        <time>2021-03-26T13:09:38Z</time>
      </trkpt>
      <trkpt lat="45.65488" lon="6.841">
        <ele>1941.5</ele>
        <time>2021-03-26T13:09:39Z</time>
      </trkpt>
      <trkpt lat="45.65487" lon="6.841">
        <ele>1940.4</ele>
        <time>2021-03-26T13:09:40Z</time>
      </trkpt>
      <trkpt lat="45.65485" lon="6.841">
        <ele>1940.4</ele>
        <time>2021-03-26T13:09:41Z</time>
      </trkpt>
      <trkpt lat="45.65484" lon="6.841">
        <ele>1939.3</ele>
        <time>2021-03-26T13:09:42Z</time>
      </trkpt>
      <trkpt lat="45.6548" lon="6.841">
        <ele>1938.2</ele>
        <time>2021-03-26T13:09:43Z</time>
      </trkpt>
      <trkpt lat="45.65477" lon="6.84101">
        <ele>1936.1</ele>
        <time>2021-03-26T13:09:44Z</time>
      </trkpt>
      <trkpt lat="45.65474" lon="6.84103">
        <ele>1934.8</ele>
        <time>2021-03-26T13:09:45Z</time>
      </trkpt>
      <trkpt lat="45.65471" lon="6.84105">
        <ele>1932.5</ele>
        <time>2021-03-26T13:09:46Z</time>
      </trkpt>
      <trkpt lat="45.65468" lon="6.84104">
        <ele>1932.1</ele>
        <time>2021-03-26T13:09:47Z</time>
      </trkpt>
      <trkpt lat="45.65465" lon="6.84102">
        <ele>1930.9</ele>
        <time>2021-03-26T13:09:48Z</time>
      </trkpt>
      <trkpt lat="45.65458" lon="6.8409">
        <ele>1931.2</ele>
        <time>2021-03-26T13:09:49Z</time>
      </trkpt>
      <trkpt lat="45.65456" lon="6.84085">
        <ele>1930.9</ele>
        <time>2021-03-26T13:09:50Z</time>
      </trkpt>
      <trkpt lat="45.65455" lon="6.8408">
        <ele>1931.6</ele>
        <time>2021-03-26T13:09:51Z</time>
      </trkpt>
      <trkpt lat="45.65454" lon="6.84076">
        <ele>1931.3</ele>
        <time>2021-03-26T13:09:52Z</time>
      </trkpt>
      <trkpt lat="45.65448" lon="6.84071">
        <ele>1929.9</ele>
        <time>2021-03-26T13:09:53Z</time>
      </trkpt>
      <trkpt lat="45.65445" lon="6.84064">
        <ele>1930.4</ele>
        <time>2021-03-26T13:09:54Z</time>
      </trkpt>
      <trkpt lat="45.65435" lon="6.8406">
        <ele>1928.6</ele>
        <time>2021-03-26T13:09:55Z</time>
      </trkpt>
      <trkpt lat="45.65427" lon="6.84059">
        <ele>1926.3</ele>
        <time>2021-03-26T13:09:56Z</time>
      </trkpt>
      <trkpt lat="45.65418" lon="6.84058">
        <ele>1924</ele>
        <time>2021-03-26T13:09:57Z</time>
      </trkpt>
      <trkpt lat="45.65411" lon="6.84061">
        <ele>1922.4</ele>
        <time>2021-03-26T13:09:58Z</time>
      </trkpt>
      <trkpt lat="45.65407" lon="6.84062">
        <ele>1919.7</ele>
        <time>2021-03-26T13:09:59Z</time>
      </trkpt>
      <trkpt lat="45.65402" lon="6.84063">
        <ele>1919.1</ele>
        <time>2021-03-26T13:10:00Z</time>
      </trkpt>
      <trkpt lat="45.65398" lon="6.84061">
        <ele>1919.1</ele>
        <time>2021-03-26T13:10:01Z</time>
      </trkpt>
      <trkpt lat="45.65392" lon="6.84057">
        <ele>1919.1</ele>
        <time>2021-03-26T13:10:02Z</time>
      </trkpt>
      <trkpt lat="45.65386" lon="6.84055">
        <ele>1918.4</ele>
        <time>2021-03-26T13:10:03Z</time>
      </trkpt>
      <trkpt lat="45.65382" lon="6.84053">
        <ele>1918.2</ele>
        <time>2021-03-26T13:10:04Z</time>
      </trkpt>
      <trkpt lat="45.65377" lon="6.84048">
        <ele>1918.7</ele>
        <time>2021-03-26T13:10:05Z</time>
      </trkpt>
      <trkpt lat="45.65373" lon="6.84047">
        <ele>1917.5</ele>
        <time>2021-03-26T13:10:06Z</time>
      </trkpt>
      <trkpt lat="45.65368" lon="6.84045">
        <ele>1916.9</ele>
        <time>2021-03-26T13:10:07Z</time>
      </trkpt>
      <trkpt lat="45.65363" lon="6.84042">
        <ele>1916.5</ele>
        <time>2021-03-26T13:10:08Z</time>
      </trkpt>
      <trkpt lat="45.65357" lon="6.84039">
        <ele>1916</ele>
        <time>2021-03-26T13:10:09Z</time>
      </trkpt>
      <trkpt lat="45.65352" lon="6.84039">
        <ele>1914.8</ele>
        <time>2021-03-26T13:10:10Z</time>
      </trkpt>
      <trkpt lat="45.65347" lon="6.84041">
        <ele>1913.4</ele>
        <time>2021-03-26T13:10:11Z</time>
      </trkpt>
      <trkpt lat="45.65341" lon="6.84041">
        <ele>1913.1</ele>
        <time>2021-03-26T13:10:12Z</time>
      </trkpt>
      <trkpt lat="45.65335" lon="6.84046">
        <ele>1910.4</ele>
        <time>2021-03-26T13:10:13Z</time>
      </trkpt>
      <trkpt lat="45.6533" lon="6.84047">
        <ele>1909.2</ele>
        <time>2021-03-26T13:10:14Z</time>
      </trkpt>
      <trkpt lat="45.65324" lon="6.84051">
        <ele>1907.4</ele>
        <time>2021-03-26T13:10:15Z</time>
      </trkpt>
      <trkpt lat="45.65319" lon="6.84056">
        <ele>1905.8</ele>
        <time>2021-03-26T13:10:16Z</time>
      </trkpt>
      <trkpt lat="45.65313" lon="6.84059">
        <ele>1904.3</ele>
        <time>2021-03-26T13:10:17Z</time>
      </trkpt>
      <trkpt lat="45.65307" lon="6.84062">
        <ele>1902.7</ele>
        <time>2021-03-26T13:10:18Z</time>
      </trkpt>
      <trkpt lat="45.65306" lon="6.84058">
        <ele>1903.3</ele>
        <time>2021-03-26T13:10:19Z</time>
      </trkpt>
      <trkpt lat="45.65302" lon="6.84053">
        <ele>1904</ele>
        <time>2021-03-26T13:10:20Z</time>
      </trkpt>
      <trkpt lat="45.65297" lon="6.84049">
        <ele>1903.3</ele>
        <time>2021-03-26T13:10:21Z</time>
      </trkpt>
      <trkpt lat="45.65293" lon="6.84045">
        <ele>1902.8</ele>
        <time>2021-03-26T13:10:22Z</time>
      </trkpt>
      <trkpt lat="45.65289" lon="6.84041">
        <ele>1902.2</ele>
        <time>2021-03-26T13:10:23Z</time>
      </trkpt>
      <trkpt lat="45.65285" lon="6.84038">
        <ele>1902</ele>
        <time>2021-03-26T13:10:24Z</time>
      </trkpt>
      <trkpt lat="45.65278" lon="6.84034">
        <ele>1900.1</ele>
        <time>2021-03-26T13:10:25Z</time>
      </trkpt>
      <trkpt lat="45.65272" lon="6.84031">
        <ele>1899.7</ele>
        <time>2021-03-26T13:10:26Z</time>
      </trkpt>
      <trkpt lat="45.65267" lon="6.84027">
        <ele>1898.7</ele>
        <time>2021-03-26T13:10:27Z</time>
      </trkpt>
      <trkpt lat="45.65263" lon="6.84024">
        <ele>1897.3</ele>
        <time>2021-03-26T13:10:28Z</time>
      </trkpt>
      <trkpt lat="45.65261" lon="6.84023">
        <ele>1897.7</ele>
        <time>2021-03-26T13:10:29Z</time>
      </trkpt>
      <trkpt lat="45.65261" lon="6.84021">
        <ele>1897.7</ele>
        <time>2021-03-26T13:10:30Z</time>
      </trkpt>
      <trkpt lat="45.65262" lon="6.84021">
        <ele>1897.7</ele>
        <time>2021-03-26T13:10:31Z</time>
      </trkpt>
      <trkpt lat="45.65261" lon="6.8402">
        <ele>1897.7</ele>
        <time>2021-03-26T13:10:32Z</time>
      </trkpt>
      <trkpt lat="45.6526" lon="6.84019">
        <ele>1898.1</ele>
        <time>2021-03-26T13:10:33Z</time>
      </trkpt>
      <trkpt lat="45.6526" lon="6.84018">
        <ele>1897.4</ele>
        <time>2021-03-26T13:10:34Z</time>
      </trkpt>
      <trkpt lat="45.65259" lon="6.84016">
        <ele>1897.4</ele>
        <time>2021-03-26T13:10:35Z</time>
      </trkpt>
      <trkpt lat="45.65259" lon="6.84016">
        <ele>1897.4</ele>
        <time>2021-03-26T13:10:36Z</time>
      </trkpt>
      <trkpt lat="45.65259" lon="6.84016">
        <ele>1897.4</ele>
        <time>2021-03-26T13:10:37Z</time>
      </trkpt>
      <trkpt lat="45.65259" lon="6.84016">
        <ele>1897.4</ele>
        <time>2021-03-26T13:10:38Z</time>
      </trkpt>
      <trkpt lat="45.65259" lon="6.84016">
        <ele>1897.4</ele>
        <time>2021-03-26T13:10:39Z</time>
      </trkpt>
      <trkpt lat="45.65259" lon="6.84016">
        <ele>1897.4</ele>
        <time>2021-03-26T13:10:40Z</time>
      </trkpt>
      <trkpt lat="45.65259" lon="6.84016">
        <ele>1897.4</ele>
        <time>2021-03-26T13:10:41Z</time>
      </trkpt>
      <trkpt lat="45.65249" lon="6.84023">
        <ele>1894.7</ele>
        <time>2021-03-26T13:10:50Z</time>
      </trkpt>
      <trkpt lat="45.65245" lon="6.84025">
        <ele>1893.4</ele>
        <time>2021-03-26T13:10:51Z</time>
      </trkpt>
      <trkpt lat="45.65246" lon="6.84035">
        <ele>1892.5</ele>
        <time>2021-03-26T13:10:52Z</time>
      </trkpt>
      <trkpt lat="45.65246" lon="6.84038">
        <ele>1892.1</ele>
        <time>2021-03-26T13:10:53Z</time>
      </trkpt>
      <trkpt lat="45.65246" lon="6.84038">
        <ele>1892.1</ele>
        <time>2021-03-26T13:10:54Z</time>
      </trkpt>
      <trkpt lat="45.65247" lon="6.84038">
        <ele>1892.1</ele>
        <time>2021-03-26T13:10:55Z</time>
      </trkpt>
      <trkpt lat="45.65247" lon="6.84039">
        <ele>1892.1</ele>
        <time>2021-03-26T13:10:56Z</time>
      </trkpt>
      <trkpt lat="45.65247" lon="6.84039">
        <ele>1892.1</ele>
        <time>2021-03-26T13:10:57Z</time>
      </trkpt>
      <trkpt lat="45.65247" lon="6.8404">
        <ele>1892.1</ele>
        <time>2021-03-26T13:10:58Z</time>
      </trkpt>
      <trkpt lat="45.65247" lon="6.8404">
        <ele>1892.1</ele>
        <time>2021-03-26T13:10:59Z</time>
      </trkpt>
      <trkpt lat="45.65247" lon="6.8404">
        <ele>1892.1</ele>
        <time>2021-03-26T13:11:00Z</time>
      </trkpt>
      <trkpt lat="45.65246" lon="6.84042">
        <ele>1891.6</ele>
        <time>2021-03-26T13:11:01Z</time>
      </trkpt>
      <trkpt lat="45.65245" lon="6.84043">
        <ele>1891.6</ele>
        <time>2021-03-26T13:11:02Z</time>
      </trkpt>
      <trkpt lat="45.65245" lon="6.84045">
        <ele>1890.3</ele>
        <time>2021-03-26T13:11:03Z</time>
      </trkpt>
      <trkpt lat="45.65243" lon="6.84049">
        <ele>1889.8</ele>
        <time>2021-03-26T13:11:04Z</time>
      </trkpt>
      <trkpt lat="45.65242" lon="6.8405">
        <ele>1889.3</ele>
        <time>2021-03-26T13:11:05Z</time>
      </trkpt>
      <trkpt lat="45.65239" lon="6.8405">
        <ele>1888.5</ele>
        <time>2021-03-26T13:11:06Z</time>
      </trkpt>
      <trkpt lat="45.65238" lon="6.8405">
        <ele>1887.7</ele>
        <time>2021-03-26T13:11:07Z</time>
      </trkpt>
      <trkpt lat="45.65236" lon="6.84046">
        <ele>1887.5</ele>
        <time>2021-03-26T13:11:08Z</time>
      </trkpt>
      <trkpt lat="45.65233" lon="6.84045">
        <ele>1887.5</ele>
        <time>2021-03-26T13:11:09Z</time>
      </trkpt>
      <trkpt lat="45.6523" lon="6.84047">
        <ele>1886.8</ele>
        <time>2021-03-26T13:11:10Z</time>
      </trkpt>
      <trkpt lat="45.65228" lon="6.84052">
        <ele>1885.4</ele>
        <time>2021-03-26T13:11:11Z</time>
      </trkpt>
      <trkpt lat="45.65226" lon="6.84058">
        <ele>1883.3</ele>
        <time>2021-03-26T13:11:12Z</time>
      </trkpt>
      <trkpt lat="45.65222" lon="6.84061">
        <ele>1882.3</ele>
        <time>2021-03-26T13:11:13Z</time>
      </trkpt>
      <trkpt lat="45.65217" lon="6.84061">
        <ele>1880.2</ele>
        <time>2021-03-26T13:11:14Z</time>
      </trkpt>
      <trkpt lat="45.65212" lon="6.84057">
        <ele>1880.1</ele>
        <time>2021-03-26T13:11:15Z</time>
      </trkpt>
      <trkpt lat="45.65207" lon="6.84052">
        <ele>1879.2</ele>
        <time>2021-03-26T13:11:16Z</time>
      </trkpt>
      <trkpt lat="45.65202" lon="6.84048">
        <ele>1878.1</ele>
        <time>2021-03-26T13:11:17Z</time>
      </trkpt>
      <trkpt lat="45.65197" lon="6.84039">
        <ele>1878.3</ele>
        <time>2021-03-26T13:11:18Z</time>
      </trkpt>
      <trkpt lat="45.65193" lon="6.84041">
        <ele>1875.4</ele>
        <time>2021-03-26T13:11:19Z</time>
      </trkpt>
      <trkpt lat="45.65192" lon="6.84045">
        <ele>1875.4</ele>
        <time>2021-03-26T13:11:20Z</time>
      </trkpt>
      <trkpt lat="45.65192" lon="6.84049">
        <ele>1873.8</ele>
        <time>2021-03-26T13:11:21Z</time>
      </trkpt>
      <trkpt lat="45.65191" lon="6.84054">
        <ele>1871.7</ele>
        <time>2021-03-26T13:11:22Z</time>
      </trkpt>
      <trkpt lat="45.65189" lon="6.84055">
        <ele>1871.7</ele>
        <time>2021-03-26T13:11:23Z</time>
      </trkpt>
      <trkpt lat="45.65189" lon="6.84054">
        <ele>1871.7</ele>
        <time>2021-03-26T13:11:24Z</time>
      </trkpt>
      <trkpt lat="45.65189" lon="6.84054">
        <ele>1871.7</ele>
        <time>2021-03-26T13:11:25Z</time>
      </trkpt>
      <trkpt lat="45.65188" lon="6.84054">
        <ele>1871.7</ele>
        <time>2021-03-26T13:11:26Z</time>
      </trkpt>
      <trkpt lat="45.65188" lon="6.84053">
        <ele>1872.6</ele>
        <time>2021-03-26T13:11:27Z</time>
      </trkpt>
      <trkpt lat="45.65188" lon="6.84053">
        <ele>1872.6</ele>
        <time>2021-03-26T13:11:28Z</time>
      </trkpt>
      <trkpt lat="45.65188" lon="6.84052">
        <ele>1872.6</ele>
        <time>2021-03-26T13:11:29Z</time>
      </trkpt>
      <trkpt lat="45.65188" lon="6.84052">
        <ele>1871.5</ele>
        <time>2021-03-26T13:11:30Z</time>
      </trkpt>
      <trkpt lat="45.65188" lon="6.84051">
        <ele>1871.5</ele>
        <time>2021-03-26T13:11:31Z</time>
      </trkpt>
      <trkpt lat="45.65188" lon="6.84051">
        <ele>1871.5</ele>
        <time>2021-03-26T13:11:32Z</time>
      </trkpt>
      <trkpt lat="45.65187" lon="6.8405">
        <ele>1871.5</ele>
        <time>2021-03-26T13:11:33Z</time>
      </trkpt>
      <trkpt lat="45.65187" lon="6.8405">
        <ele>1871.5</ele>
        <time>2021-03-26T13:11:34Z</time>
      </trkpt>
      <trkpt lat="45.65187" lon="6.84049">
        <ele>1871.5</ele>
        <time>2021-03-26T13:11:35Z</time>
      </trkpt>
      <trkpt lat="45.65187" lon="6.84049">
        <ele>1872.4</ele>
        <time>2021-03-26T13:13:37Z</time>
      </trkpt>
      <trkpt lat="45.65187" lon="6.84049">
        <ele>1872.4</ele>
        <time>2021-03-26T13:13:38Z</time>
      </trkpt>
      <trkpt lat="45.65187" lon="6.84048">
        <ele>1872.4</ele>
        <time>2021-03-26T13:13:39Z</time>
      </trkpt>
      <trkpt lat="45.65187" lon="6.84048">
        <ele>1872.4</ele>
        <time>2021-03-26T13:13:40Z</time>
      </trkpt>
      <trkpt lat="45.65186" lon="6.84047">
        <ele>1872.4</ele>
        <time>2021-03-26T13:13:41Z</time>
      </trkpt>
      <trkpt lat="45.65186" lon="6.84047">
        <ele>1872.4</ele>
        <time>2021-03-26T13:13:42Z</time>
      </trkpt>
      <trkpt lat="45.65186" lon="6.84046">
        <ele>1872.4</ele>
        <time>2021-03-26T13:13:43Z</time>
      </trkpt>
      <trkpt lat="45.65186" lon="6.84046">
        <ele>1872.4</ele>
        <time>2021-03-26T13:13:44Z</time>
      </trkpt>
      <trkpt lat="45.65186" lon="6.84045">
        <ele>1872.4</ele>
        <time>2021-03-26T13:13:45Z</time>
      </trkpt>
      <trkpt lat="45.65186" lon="6.84045">
        <ele>1872.4</ele>
        <time>2021-03-26T13:13:46Z</time>
      </trkpt>
      <trkpt lat="45.65186" lon="6.84044">
        <ele>1873.1</ele>
        <time>2021-03-26T13:13:47Z</time>
      </trkpt>
      <trkpt lat="45.65185" lon="6.84044">
        <ele>1873.1</ele>
        <time>2021-03-26T13:14:32Z</time>
      </trkpt>
      <trkpt lat="45.65185" lon="6.84044">
        <ele>1873.1</ele>
        <time>2021-03-26T13:14:33Z</time>
      </trkpt>
      <trkpt lat="45.65182" lon="6.84046">
        <ele>1871.3</ele>
        <time>2021-03-26T13:14:34Z</time>
      </trkpt>
      <trkpt lat="45.65181" lon="6.84051">
        <ele>1869.2</ele>
        <time>2021-03-26T13:14:35Z</time>
      </trkpt>
      <trkpt lat="45.6518" lon="6.84054">
        <ele>1868.2</ele>
        <time>2021-03-26T13:14:36Z</time>
      </trkpt>
      <trkpt lat="45.6518" lon="6.84058">
        <ele>1867.2</ele>
        <time>2021-03-26T13:14:37Z</time>
      </trkpt>
      <trkpt lat="45.65178" lon="6.84061">
        <ele>1865.9</ele>
        <time>2021-03-26T13:14:38Z</time>
      </trkpt>
      <trkpt lat="45.65177" lon="6.84061">
        <ele>1865.9</ele>
        <time>2021-03-26T13:14:39Z</time>
      </trkpt>
      <trkpt lat="45.65173" lon="6.84058">
        <ele>1864.5</ele>
        <time>2021-03-26T13:14:40Z</time>
      </trkpt>
      <trkpt lat="45.65171" lon="6.84057">
        <ele>1864.2</ele>
        <time>2021-03-26T13:14:41Z</time>
      </trkpt>
      <trkpt lat="45.65168" lon="6.84055">
        <ele>1862.7</ele>
        <time>2021-03-26T13:14:42Z</time>
      </trkpt>
      <trkpt lat="45.65168" lon="6.84057">
        <ele>1862.7</ele>
        <time>2021-03-26T13:14:43Z</time>
      </trkpt>
      <trkpt lat="45.65168" lon="6.84058">
        <ele>1861.6</ele>
        <time>2021-03-26T13:14:44Z</time>
      </trkpt>
      <trkpt lat="45.65168" lon="6.84059">
        <ele>1861.6</ele>
        <time>2021-03-26T13:14:45Z</time>
      </trkpt>
      <trkpt lat="45.65168" lon="6.8406">
        <ele>1861.6</ele>
        <time>2021-03-26T13:14:46Z</time>
      </trkpt>
      <trkpt lat="45.65168" lon="6.84061">
        <ele>1861.6</ele>
        <time>2021-03-26T13:14:47Z</time>
      </trkpt>
      <trkpt lat="45.65167" lon="6.84062">
        <ele>1858.9</ele>
        <time>2021-03-26T13:14:48Z</time>
      </trkpt>
      <trkpt lat="45.65166" lon="6.84063">
        <ele>1858.9</ele>
        <time>2021-03-26T13:14:49Z</time>
      </trkpt>
      <trkpt lat="45.65165" lon="6.84063">
        <ele>1858.9</ele>
        <time>2021-03-26T13:14:50Z</time>
      </trkpt>
      <trkpt lat="45.65165" lon="6.84064">
        <ele>1858.9</ele>
        <time>2021-03-26T13:14:51Z</time>
      </trkpt>
      <trkpt lat="45.65162" lon="6.84068">
        <ele>1856.2</ele>
        <time>2021-03-26T13:14:52Z</time>
      </trkpt>
      <trkpt lat="45.65162" lon="6.84069">
        <ele>1856.2</ele>
        <time>2021-03-26T13:14:53Z</time>
      </trkpt>
      <trkpt lat="45.6516" lon="6.84073">
        <ele>1853.4</ele>
        <time>2021-03-26T13:14:54Z</time>
      </trkpt>
      <trkpt lat="45.65157" lon="6.84077">
        <ele>1850.7</ele>
        <time>2021-03-26T13:14:55Z</time>
      </trkpt>
      <trkpt lat="45.65154" lon="6.84081">
        <ele>1847.8</ele>
        <time>2021-03-26T13:14:56Z</time>
      </trkpt>
      <trkpt lat="45.65151" lon="6.84085">
        <ele>1844.8</ele>
        <time>2021-03-26T13:14:57Z</time>
      </trkpt>
      <trkpt lat="45.65148" lon="6.8409">
        <ele>1841.7</ele>
        <time>2021-03-26T13:14:58Z</time>
      </trkpt>
      <trkpt lat="45.65146" lon="6.84094">
        <ele>1839.9</ele>
        <time>2021-03-26T13:14:59Z</time>
      </trkpt>
      <trkpt lat="45.65146" lon="6.84096">
        <ele>1839.9</ele>
        <time>2021-03-26T13:15:00Z</time>
      </trkpt>
      <trkpt lat="45.65146" lon="6.84096">
        <ele>1839.9</ele>
        <time>2021-03-26T13:15:01Z</time>
      </trkpt>
      <trkpt lat="45.65146" lon="6.84096">
        <ele>1839.9</ele>
        <time>2021-03-26T13:15:02Z</time>
      </trkpt>
      <trkpt lat="45.65146" lon="6.84095">
        <ele>1839.9</ele>
        <time>2021-03-26T13:15:03Z</time>
      </trkpt>
      <trkpt lat="45.65146" lon="6.84095">
        <ele>1839.9</ele>
        <time>2021-03-26T13:15:04Z</time>
      </trkpt>
      <trkpt lat="45.65146" lon="6.84095">
        <ele>1839.9</ele>
        <time>2021-03-26T13:15:05Z</time>
      </trkpt>
      <trkpt lat="45.65146" lon="6.84095">
        <ele>1839.9</ele>
        <time>2021-03-26T13:15:06Z</time>
      </trkpt>
      <trkpt lat="45.65146" lon="6.84095">
        <ele>1839.9</ele>
        <time>2021-03-26T13:15:07Z</time>
      </trkpt>
      <trkpt lat="45.65146" lon="6.84095">
        <ele>1839.9</ele>
        <time>2021-03-26T13:15:08Z</time>
      </trkpt>
      <trkpt lat="45.65146" lon="6.84095">
        <ele>1839.9</ele>
        <time>2021-03-26T13:15:09Z</time>
      </trkpt>
      <trkpt lat="45.65148" lon="6.84093">
        <ele>1839.9</ele>
        <time>2021-03-26T13:15:10Z</time>
      </trkpt>
      <trkpt lat="45.65153" lon="6.84102">
        <ele>1839.4</ele>
        <time>2021-03-26T13:15:48Z</time>
      </trkpt>
      <trkpt lat="45.65153" lon="6.84102">
        <ele>1839.4</ele>
        <time>2021-03-26T13:15:49Z</time>
      </trkpt>
      <trkpt lat="45.65153" lon="6.84103">
        <ele>1839.4</ele>
        <time>2021-03-26T13:15:50Z</time>
      </trkpt>
      <trkpt lat="45.65154" lon="6.84104">
        <ele>1839.4</ele>
        <time>2021-03-26T13:15:51Z</time>
      </trkpt>
      <trkpt lat="45.65154" lon="6.84105">
        <ele>1839.4</ele>
        <time>2021-03-26T13:15:52Z</time>
      </trkpt>
      <trkpt lat="45.65154" lon="6.84106">
        <ele>1837.6</ele>
        <time>2021-03-26T13:15:53Z</time>
      </trkpt>
      <trkpt lat="45.65155" lon="6.84107">
        <ele>1837.6</ele>
        <time>2021-03-26T13:15:54Z</time>
      </trkpt>
      <trkpt lat="45.65155" lon="6.84109">
        <ele>1839.2</ele>
        <time>2021-03-26T13:15:55Z</time>
      </trkpt>
      <trkpt lat="45.65156" lon="6.8411">
        <ele>1837.3</ele>
        <time>2021-03-26T13:15:56Z</time>
      </trkpt>
      <trkpt lat="45.65157" lon="6.84111">
        <ele>1837.3</ele>
        <time>2021-03-26T13:15:57Z</time>
      </trkpt>
      <trkpt lat="45.65157" lon="6.84113">
        <ele>1837.3</ele>
        <time>2021-03-26T13:15:58Z</time>
      </trkpt>
      <trkpt lat="45.65158" lon="6.84114">
        <ele>1835.5</ele>
        <time>2021-03-26T13:15:59Z</time>
      </trkpt>
      <trkpt lat="45.65158" lon="6.84115">
        <ele>1837.2</ele>
        <time>2021-03-26T13:16:00Z</time>
      </trkpt>
      <trkpt lat="45.65159" lon="6.84116">
        <ele>1837.2</ele>
        <time>2021-03-26T13:16:01Z</time>
      </trkpt>
      <trkpt lat="45.6516" lon="6.84118">
        <ele>1837.2</ele>
        <time>2021-03-26T13:16:59Z</time>
      </trkpt>
      <trkpt lat="45.6516" lon="6.84119">
        <ele>1835.4</ele>
        <time>2021-03-26T13:17:00Z</time>
      </trkpt>
      <trkpt lat="45.65161" lon="6.8412">
        <ele>1835.4</ele>
        <time>2021-03-26T13:17:01Z</time>
      </trkpt>
      <trkpt lat="45.65161" lon="6.84122">
        <ele>1837.2</ele>
        <time>2021-03-26T13:17:02Z</time>
      </trkpt>
      <trkpt lat="45.65162" lon="6.84124">
        <ele>1835.4</ele>
        <time>2021-03-26T13:17:03Z</time>
      </trkpt>
      <trkpt lat="45.65163" lon="6.84125">
        <ele>1835.4</ele>
        <time>2021-03-26T13:17:04Z</time>
      </trkpt>
      <trkpt lat="45.65164" lon="6.84127">
        <ele>1833.4</ele>
        <time>2021-03-26T13:17:05Z</time>
      </trkpt>
      <trkpt lat="45.65165" lon="6.84128">
        <ele>1835.3</ele>
        <time>2021-03-26T13:17:06Z</time>
      </trkpt>
      <trkpt lat="45.65166" lon="6.84131">
        <ele>1833.3</ele>
        <time>2021-03-26T13:17:07Z</time>
      </trkpt>
      <trkpt lat="45.65167" lon="6.84132">
        <ele>1833.3</ele>
        <time>2021-03-26T13:17:08Z</time>
      </trkpt>
      <trkpt lat="45.65167" lon="6.84133">
        <ele>1835.2</ele>
        <time>2021-03-26T13:17:09Z</time>
      </trkpt>
      <trkpt lat="45.65169" lon="6.84138">
        <ele>1833</ele>
        <time>2021-03-26T13:17:10Z</time>
      </trkpt>
      <trkpt lat="45.6517" lon="6.84139">
        <ele>1833</ele>
        <time>2021-03-26T13:17:11Z</time>
      </trkpt>
      <trkpt lat="45.65172" lon="6.84143">
        <ele>1832.6</ele>
        <time>2021-03-26T13:17:12Z</time>
      </trkpt>
      <trkpt lat="45.65172" lon="6.84144">
        <ele>1830.3</ele>
        <time>2021-03-26T13:17:13Z</time>
      </trkpt>
      <trkpt lat="45.65174" lon="6.84146">
        <ele>1832.2</ele>
        <time>2021-03-26T13:17:14Z</time>
      </trkpt>
      <trkpt lat="45.65175" lon="6.84147">
        <ele>1832.2</ele>
        <time>2021-03-26T13:17:15Z</time>
      </trkpt>
      <trkpt lat="45.65176" lon="6.84148">
        <ele>1832.2</ele>
        <time>2021-03-26T13:17:16Z</time>
      </trkpt>
      <trkpt lat="45.65176" lon="6.84149">
        <ele>1831.7</ele>
        <time>2021-03-26T13:17:17Z</time>
      </trkpt>
      <trkpt lat="45.65177" lon="6.84149">
        <ele>1831.7</ele>
        <time>2021-03-26T13:17:18Z</time>
      </trkpt>
      <trkpt lat="45.65177" lon="6.8415">
        <ele>1831.7</ele>
        <time>2021-03-26T13:17:19Z</time>
      </trkpt>
      <trkpt lat="45.65178" lon="6.8415">
        <ele>1831.7</ele>
        <time>2021-03-26T13:17:20Z</time>
      </trkpt>
      <trkpt lat="45.65178" lon="6.84151">
        <ele>1831.7</ele>
        <time>2021-03-26T13:17:21Z</time>
      </trkpt>
      <trkpt lat="45.65179" lon="6.84152">
        <ele>1831.7</ele>
        <time>2021-03-26T13:17:22Z</time>
      </trkpt>
      <trkpt lat="45.65179" lon="6.84152">
        <ele>1833.4</ele>
        <time>2021-03-26T13:17:23Z</time>
      </trkpt>
      <trkpt lat="45.6518" lon="6.84152">
        <ele>1833.4</ele>
        <time>2021-03-26T13:17:24Z</time>
      </trkpt>
      <trkpt lat="45.6518" lon="6.84152">
        <ele>1831.2</ele>
        <time>2021-03-26T13:17:25Z</time>
      </trkpt>
      <trkpt lat="45.6518" lon="6.84152">
        <ele>1831.2</ele>
        <time>2021-03-26T13:17:26Z</time>
      </trkpt>
      <trkpt lat="45.65181" lon="6.84153">
        <ele>1831.2</ele>
        <time>2021-03-26T13:17:27Z</time>
      </trkpt>
      <trkpt lat="45.65181" lon="6.84153">
        <ele>1831.2</ele>
        <time>2021-03-26T13:17:28Z</time>
      </trkpt>
      <trkpt lat="45.65181" lon="6.84153">
        <ele>1831.2</ele>
        <time>2021-03-26T13:17:29Z</time>
      </trkpt>
      <trkpt lat="45.65182" lon="6.84155">
        <ele>1831.2</ele>
        <time>2021-03-26T13:17:30Z</time>
      </trkpt>
      <trkpt lat="45.65182" lon="6.84156">
        <ele>1832.9</ele>
        <time>2021-03-26T13:17:31Z</time>
      </trkpt>
      <trkpt lat="45.65182" lon="6.84157">
        <ele>1830.7</ele>
        <time>2021-03-26T13:17:32Z</time>
      </trkpt>
      <trkpt lat="45.65182" lon="6.84158">
        <ele>1830.7</ele>
        <time>2021-03-26T13:17:33Z</time>
      </trkpt>
      <trkpt lat="45.65182" lon="6.84159">
        <ele>1830.7</ele>
        <time>2021-03-26T13:17:34Z</time>
      </trkpt>
      <trkpt lat="45.65183" lon="6.84159">
        <ele>1830.7</ele>
        <time>2021-03-26T13:17:35Z</time>
      </trkpt>
      <trkpt lat="45.65183" lon="6.84159">
        <ele>1830.7</ele>
        <time>2021-03-26T13:17:36Z</time>
      </trkpt>
      <trkpt lat="45.65183" lon="6.8416">
        <ele>1830.7</ele>
        <time>2021-03-26T13:17:37Z</time>
      </trkpt>
      <trkpt lat="45.65184" lon="6.84161">
        <ele>1830.7</ele>
        <time>2021-03-26T13:17:38Z</time>
      </trkpt>
      <trkpt lat="45.65184" lon="6.84161">
        <ele>1828.5</ele>
        <time>2021-03-26T13:17:39Z</time>
      </trkpt>
      <trkpt lat="45.65184" lon="6.84162">
        <ele>1828.5</ele>
        <time>2021-03-26T13:17:40Z</time>
      </trkpt>
      <trkpt lat="45.65185" lon="6.84163">
        <ele>1830.2</ele>
        <time>2021-03-26T13:17:41Z</time>
      </trkpt>
      <trkpt lat="45.65186" lon="6.84165">
        <ele>1830.2</ele>
        <time>2021-03-26T13:17:42Z</time>
      </trkpt>
      <trkpt lat="45.65187" lon="6.84166">
        <ele>1827.9</ele>
        <time>2021-03-26T13:17:43Z</time>
      </trkpt>
      <trkpt lat="45.65188" lon="6.84167">
        <ele>1827.9</ele>
        <time>2021-03-26T13:17:44Z</time>
      </trkpt>
      <trkpt lat="45.65189" lon="6.84168">
        <ele>1829.6</ele>
        <time>2021-03-26T13:17:45Z</time>
      </trkpt>
      <trkpt lat="45.65192" lon="6.8417">
        <ele>1829.2</ele>
        <time>2021-03-26T13:17:46Z</time>
      </trkpt>
      <trkpt lat="45.65193" lon="6.84171">
        <ele>1829.2</ele>
        <time>2021-03-26T13:17:47Z</time>
      </trkpt>
      <trkpt lat="45.65196" lon="6.84175">
        <ele>1828.8</ele>
        <time>2021-03-26T13:17:48Z</time>
      </trkpt>
      <trkpt lat="45.65197" lon="6.84177">
        <ele>1830.8</ele>
        <time>2021-03-26T13:17:49Z</time>
      </trkpt>
      <trkpt lat="45.65199" lon="6.84182">
        <ele>1828.4</ele>
        <time>2021-03-26T13:17:50Z</time>
      </trkpt>
      <trkpt lat="45.65202" lon="6.84187">
        <ele>1825.5</ele>
        <time>2021-03-26T13:17:51Z</time>
      </trkpt>
      <trkpt lat="45.65204" lon="6.84191">
        <ele>1824.9</ele>
        <time>2021-03-26T13:17:52Z</time>
      </trkpt>
      <trkpt lat="45.65206" lon="6.84195">
        <ele>1826.6</ele>
        <time>2021-03-26T13:17:53Z</time>
      </trkpt>
      <trkpt lat="45.65208" lon="6.84199">
        <ele>1824.2</ele>
        <time>2021-03-26T13:17:54Z</time>
      </trkpt>
      <trkpt lat="45.6521" lon="6.84203">
        <ele>1823.6</ele>
        <time>2021-03-26T13:17:55Z</time>
      </trkpt>
      <trkpt lat="45.65212" lon="6.84207">
        <ele>1821.5</ele>
        <time>2021-03-26T13:17:56Z</time>
      </trkpt>
      <trkpt lat="45.65213" lon="6.8421">
        <ele>1821.1</ele>
        <time>2021-03-26T13:17:57Z</time>
      </trkpt>
      <trkpt lat="45.65215" lon="6.84215">
        <ele>1821</ele>
        <time>2021-03-26T13:17:58Z</time>
      </trkpt>
      <trkpt lat="45.65216" lon="6.84217">
        <ele>1818.9</ele>
        <time>2021-03-26T13:17:59Z</time>
      </trkpt>
      <trkpt lat="45.65218" lon="6.8422">
        <ele>1818.9</ele>
        <time>2021-03-26T13:18:00Z</time>
      </trkpt>
      <trkpt lat="45.6522" lon="6.84224">
        <ele>1818.9</ele>
        <time>2021-03-26T13:18:01Z</time>
      </trkpt>
      <trkpt lat="45.65222" lon="6.84229">
        <ele>1819</ele>
        <time>2021-03-26T13:18:02Z</time>
      </trkpt>
      <trkpt lat="45.65224" lon="6.84234">
        <ele>1817.2</ele>
        <time>2021-03-26T13:18:03Z</time>
      </trkpt>
      <trkpt lat="45.65226" lon="6.84239">
        <ele>1815.4</ele>
        <time>2021-03-26T13:18:04Z</time>
      </trkpt>
      <trkpt lat="45.65231" lon="6.84245">
        <ele>1817.7</ele>
        <time>2021-03-26T13:18:05Z</time>
      </trkpt>
      <trkpt lat="45.65235" lon="6.84251">
        <ele>1816.4</ele>
        <time>2021-03-26T13:18:06Z</time>
      </trkpt>
      <trkpt lat="45.65237" lon="6.84257">
        <ele>1816.7</ele>
        <time>2021-03-26T13:18:07Z</time>
      </trkpt>
      <trkpt lat="45.65239" lon="6.84261">
        <ele>1815.2</ele>
        <time>2021-03-26T13:18:08Z</time>
      </trkpt>
      <trkpt lat="45.6524" lon="6.84266">
        <ele>1815.6</ele>
        <time>2021-03-26T13:18:09Z</time>
      </trkpt>
      <trkpt lat="45.65242" lon="6.8427">
        <ele>1815.9</ele>
        <time>2021-03-26T13:18:10Z</time>
      </trkpt>
      <trkpt lat="45.65244" lon="6.84273">
        <ele>1814.3</ele>
        <time>2021-03-26T13:18:11Z</time>
      </trkpt>
      <trkpt lat="45.65247" lon="6.84277">
        <ele>1815.6</ele>
        <time>2021-03-26T13:18:12Z</time>
      </trkpt>
      <trkpt lat="45.6525" lon="6.84281">
        <ele>1815.8</ele>
        <time>2021-03-26T13:18:13Z</time>
      </trkpt>
      <trkpt lat="45.65253" lon="6.84284">
        <ele>1817.6</ele>
        <time>2021-03-26T13:18:14Z</time>
      </trkpt>
      <trkpt lat="45.65256" lon="6.84286">
        <ele>1817.6</ele>
        <time>2021-03-26T13:18:15Z</time>
      </trkpt>
      <trkpt lat="45.65257" lon="6.84287">
        <ele>1819.1</ele>
        <time>2021-03-26T13:18:16Z</time>
      </trkpt>
      <trkpt lat="45.65258" lon="6.84287">
        <ele>1819.1</ele>
        <time>2021-03-26T13:18:17Z</time>
      </trkpt>
      <trkpt lat="45.65258" lon="6.84288">
        <ele>1819.1</ele>
        <time>2021-03-26T13:18:18Z</time>
      </trkpt>
      <trkpt lat="45.65258" lon="6.84292">
        <ele>1817.5</ele>
        <time>2021-03-26T13:18:19Z</time>
      </trkpt>
      <trkpt lat="45.65258" lon="6.84293">
        <ele>1817.5</ele>
        <time>2021-03-26T13:18:20Z</time>
      </trkpt>
      <trkpt lat="45.65258" lon="6.84295">
        <ele>1815.9</ele>
        <time>2021-03-26T13:18:21Z</time>
      </trkpt>
      <trkpt lat="45.65255" lon="6.84298">
        <ele>1814.4</ele>
        <time>2021-03-26T13:18:22Z</time>
      </trkpt>
      <trkpt lat="45.65254" lon="6.84298">
        <ele>1812.8</ele>
        <time>2021-03-26T13:18:23Z</time>
      </trkpt>
      <trkpt lat="45.65252" lon="6.84298">
        <ele>1812.8</ele>
        <time>2021-03-26T13:18:24Z</time>
      </trkpt>
      <trkpt lat="45.65251" lon="6.84297">
        <ele>1811.2</ele>
        <time>2021-03-26T13:18:25Z</time>
      </trkpt>
      <trkpt lat="45.65248" lon="6.84296">
        <ele>1811.2</ele>
        <time>2021-03-26T13:18:26Z</time>
      </trkpt>
      <trkpt lat="45.65247" lon="6.84297">
        <ele>1809.5</ele>
        <time>2021-03-26T13:18:27Z</time>
      </trkpt>
      <trkpt lat="45.65245" lon="6.84299">
        <ele>1805.5</ele>
        <time>2021-03-26T13:18:28Z</time>
      </trkpt>
      <trkpt lat="45.65246" lon="6.8431">
        <ele>1805.2</ele>
        <time>2021-03-26T13:18:29Z</time>
      </trkpt>
      <trkpt lat="45.65248" lon="6.84317">
        <ele>1803.7</ele>
        <time>2021-03-26T13:18:30Z</time>
      </trkpt>
      <trkpt lat="45.6525" lon="6.84326">
        <ele>1800.7</ele>
        <time>2021-03-26T13:18:31Z</time>
      </trkpt>
      <trkpt lat="45.65251" lon="6.84333">
        <ele>1798</ele>
        <time>2021-03-26T13:18:32Z</time>
      </trkpt>
      <trkpt lat="45.65252" lon="6.84343">
        <ele>1797</ele>
        <time>2021-03-26T13:18:33Z</time>
      </trkpt>
      <trkpt lat="45.65254" lon="6.84352">
        <ele>1795.1</ele>
        <time>2021-03-26T13:18:34Z</time>
      </trkpt>
      <trkpt lat="45.65255" lon="6.8436">
        <ele>1794.5</ele>
        <time>2021-03-26T13:18:35Z</time>
      </trkpt>
      <trkpt lat="45.65252" lon="6.84369">
        <ele>1791.7</ele>
        <time>2021-03-26T13:18:36Z</time>
      </trkpt>
      <trkpt lat="45.65252" lon="6.84377">
        <ele>1790.4</ele>
        <time>2021-03-26T13:18:37Z</time>
      </trkpt>
      <trkpt lat="45.65252" lon="6.84383">
        <ele>1789.8</ele>
        <time>2021-03-26T13:18:38Z</time>
      </trkpt>
      <trkpt lat="45.65251" lon="6.84377">
        <ele>1790.4</ele>
        <time>2021-03-26T13:18:39Z</time>
      </trkpt>
      <trkpt lat="45.65251" lon="6.84369">
        <ele>1791.7</ele>
        <time>2021-03-26T13:18:40Z</time>
      </trkpt>
      <trkpt lat="45.65252" lon="6.84367">
        <ele>1792.5</ele>
        <time>2021-03-26T13:18:41Z</time>
      </trkpt>
      <trkpt lat="45.65251" lon="6.84365">
        <ele>1791.3</ele>
        <time>2021-03-26T13:18:42Z</time>
      </trkpt>
      <trkpt lat="45.6525" lon="6.84365">
        <ele>1791.3</ele>
        <time>2021-03-26T13:18:43Z</time>
      </trkpt>
      <trkpt lat="45.65249" lon="6.84365">
        <ele>1791.3</ele>
        <time>2021-03-26T13:18:44Z</time>
      </trkpt>
      <trkpt lat="45.65248" lon="6.84365">
        <ele>1791.3</ele>
        <time>2021-03-26T13:18:45Z</time>
      </trkpt>
      <trkpt lat="45.65248" lon="6.84365">
        <ele>1790.1</ele>
        <time>2021-03-26T13:18:46Z</time>
      </trkpt>
      <trkpt lat="45.65247" lon="6.84365">
        <ele>1790.1</ele>
        <time>2021-03-26T13:18:47Z</time>
      </trkpt>
      <trkpt lat="45.65246" lon="6.84365">
        <ele>1790.1</ele>
        <time>2021-03-26T13:18:48Z</time>
      </trkpt>
      <trkpt lat="45.65245" lon="6.84365">
        <ele>1790.1</ele>
        <time>2021-03-26T13:18:49Z</time>
      </trkpt>
      <trkpt lat="45.65244" lon="6.84365">
        <ele>1788.2</ele>
        <time>2021-03-26T13:18:50Z</time>
      </trkpt>
      <trkpt lat="45.65243" lon="6.84365">
        <ele>1788.2</ele>
        <time>2021-03-26T13:18:51Z</time>
      </trkpt>
      <trkpt lat="45.65243" lon="6.84365">
        <ele>1788.2</ele>
        <time>2021-03-26T13:19:09Z</time>
      </trkpt>
      <trkpt lat="45.65242" lon="6.84365">
        <ele>1787.1</ele>
        <time>2021-03-26T13:19:10Z</time>
      </trkpt>
      <trkpt lat="45.65241" lon="6.8437">
        <ele>1786.4</ele>
        <time>2021-03-26T13:19:11Z</time>
      </trkpt>
      <trkpt lat="45.6524" lon="6.84374">
        <ele>1785.8</ele>
        <time>2021-03-26T13:19:12Z</time>
      </trkpt>
      <trkpt lat="45.65241" lon="6.84376">
        <ele>1785.3</ele>
        <time>2021-03-26T13:19:13Z</time>
      </trkpt>
      <trkpt lat="45.65241" lon="6.84378">
        <ele>1785.3</ele>
        <time>2021-03-26T13:19:14Z</time>
      </trkpt>
      <trkpt lat="45.65239" lon="6.84383">
        <ele>1784.8</ele>
        <time>2021-03-26T13:19:15Z</time>
      </trkpt>
      <trkpt lat="45.65239" lon="6.84384">
        <ele>1783.4</ele>
        <time>2021-03-26T13:19:16Z</time>
      </trkpt>
      <trkpt lat="45.65238" lon="6.84385">
        <ele>1783.4</ele>
        <time>2021-03-26T13:19:17Z</time>
      </trkpt>
      <trkpt lat="45.65237" lon="6.84385">
        <ele>1783.4</ele>
        <time>2021-03-26T13:19:18Z</time>
      </trkpt>
      <trkpt lat="45.65237" lon="6.84384">
        <ele>1783.4</ele>
        <time>2021-03-26T13:19:19Z</time>
      </trkpt>
      <trkpt lat="45.65237" lon="6.84384">
        <ele>1783.8</ele>
        <time>2021-03-26T13:19:20Z</time>
      </trkpt>
      <trkpt lat="45.65237" lon="6.84384">
        <ele>1783.8</ele>
        <time>2021-03-26T13:19:21Z</time>
      </trkpt>
      <trkpt lat="45.65237" lon="6.84384">
        <ele>1783.8</ele>
        <time>2021-03-26T13:19:22Z</time>
      </trkpt>
      <trkpt lat="45.65237" lon="6.84384">
        <ele>1783.8</ele>
        <time>2021-03-26T13:19:23Z</time>
      </trkpt>
      <trkpt lat="45.65237" lon="6.84384">
        <ele>1783.8</ele>
        <time>2021-03-26T13:19:24Z</time>
      </trkpt>
      <trkpt lat="45.65237" lon="6.84384">
        <ele>1783.8</ele>
        <time>2021-03-26T13:19:25Z</time>
      </trkpt>
      <trkpt lat="45.65237" lon="6.84384">
        <ele>1783.8</ele>
        <time>2021-03-26T13:19:26Z</time>
      </trkpt>
      <trkpt lat="45.65237" lon="6.84384">
        <ele>1783.8</ele>
        <time>2021-03-26T13:19:27Z</time>
      </trkpt>
      <trkpt lat="45.65237" lon="6.84384">
        <ele>1783.8</ele>
        <time>2021-03-26T13:19:28Z</time>
      </trkpt>
      <trkpt lat="45.65237" lon="6.84384">
        <ele>1783.8</ele>
        <time>2021-03-26T13:19:29Z</time>
      </trkpt>
      <trkpt lat="45.65234" lon="6.84382">
        <ele>1782.9</ele>
        <time>2021-03-26T13:19:36Z</time>
      </trkpt>
      <trkpt lat="45.65233" lon="6.84384">
        <ele>1782.9</ele>
        <time>2021-03-26T13:19:37Z</time>
      </trkpt>
      <trkpt lat="45.65233" lon="6.84388">
        <ele>1782.5</ele>
        <time>2021-03-26T13:19:38Z</time>
      </trkpt>
      <trkpt lat="45.65233" lon="6.8439">
        <ele>1782.1</ele>
        <time>2021-03-26T13:19:39Z</time>
      </trkpt>
      <trkpt lat="45.65233" lon="6.84394">
        <ele>1781.7</ele>
        <time>2021-03-26T13:19:40Z</time>
      </trkpt>
      <trkpt lat="45.65233" lon="6.844">
        <ele>1780.4</ele>
        <time>2021-03-26T13:19:41Z</time>
      </trkpt>
      <trkpt lat="45.65233" lon="6.84406">
        <ele>1779.6</ele>
        <time>2021-03-26T13:19:42Z</time>
      </trkpt>
      <trkpt lat="45.65232" lon="6.84412">
        <ele>1779.3</ele>
        <time>2021-03-26T13:19:43Z</time>
      </trkpt>
      <trkpt lat="45.65229" lon="6.84415">
        <ele>1778.1</ele>
        <time>2021-03-26T13:19:44Z</time>
      </trkpt>
      <trkpt lat="45.65228" lon="6.84416">
        <ele>1778.1</ele>
        <time>2021-03-26T13:19:45Z</time>
      </trkpt>
      <trkpt lat="45.65226" lon="6.84413">
        <ele>1777.5</ele>
        <time>2021-03-26T13:19:46Z</time>
      </trkpt>
      <trkpt lat="45.65224" lon="6.84409">
        <ele>1776.8</ele>
        <time>2021-03-26T13:19:47Z</time>
      </trkpt>
      <trkpt lat="45.65224" lon="6.84405">
        <ele>1777.2</ele>
        <time>2021-03-26T13:19:48Z</time>
      </trkpt>
      <trkpt lat="45.65224" lon="6.84404">
        <ele>1777.2</ele>
        <time>2021-03-26T13:19:49Z</time>
      </trkpt>
      <trkpt lat="45.65224" lon="6.84404">
        <ele>1777.2</ele>
        <time>2021-03-26T13:19:50Z</time>
      </trkpt>
      <trkpt lat="45.65224" lon="6.84404">
        <ele>1777.2</ele>
        <time>2021-03-26T13:19:51Z</time>
      </trkpt>
      <trkpt lat="45.65224" lon="6.84404">
        <ele>1777.2</ele>
        <time>2021-03-26T13:19:52Z</time>
      </trkpt>
      <trkpt lat="45.65224" lon="6.84404">
        <ele>1777.2</ele>
        <time>2021-03-26T13:19:53Z</time>
      </trkpt>
      <trkpt lat="45.65224" lon="6.84404">
        <ele>1777.2</ele>
        <time>2021-03-26T13:19:54Z</time>
      </trkpt>
      <trkpt lat="45.65224" lon="6.84404">
        <ele>1777.2</ele>
        <time>2021-03-26T13:19:55Z</time>
      </trkpt>
      <trkpt lat="45.65225" lon="6.844">
        <ele>1778.5</ele>
        <time>2021-03-26T13:19:56Z</time>
      </trkpt>
      <trkpt lat="45.65225" lon="6.844">
        <ele>1778.5</ele>
        <time>2021-03-26T13:19:57Z</time>
      </trkpt>
      <trkpt lat="45.65225" lon="6.84399">
        <ele>1778.5</ele>
        <time>2021-03-26T13:19:58Z</time>
      </trkpt>
      <trkpt lat="45.65222" lon="6.84393">
        <ele>1777.8</ele>
        <time>2021-03-26T13:20:53Z</time>
      </trkpt>
      <trkpt lat="45.65221" lon="6.84391">
        <ele>1778.2</ele>
        <time>2021-03-26T13:20:54Z</time>
      </trkpt>
      <trkpt lat="45.65221" lon="6.84389">
        <ele>1777.1</ele>
        <time>2021-03-26T13:20:55Z</time>
      </trkpt>
      <trkpt lat="45.6522" lon="6.84387">
        <ele>1777.5</ele>
        <time>2021-03-26T13:20:56Z</time>
      </trkpt>
      <trkpt lat="45.6522" lon="6.84384">
        <ele>1777.8</ele>
        <time>2021-03-26T13:20:57Z</time>
      </trkpt>
      <trkpt lat="45.6522" lon="6.84383">
        <ele>1777.8</ele>
        <time>2021-03-26T13:20:58Z</time>
      </trkpt>
      <trkpt lat="45.6522" lon="6.84381">
        <ele>1777.8</ele>
        <time>2021-03-26T13:20:59Z</time>
      </trkpt>
      <trkpt lat="45.6522" lon="6.84379">
        <ele>1778.2</ele>
        <time>2021-03-26T13:21:00Z</time>
      </trkpt>
      <trkpt lat="45.6522" lon="6.84378">
        <ele>1778.2</ele>
        <time>2021-03-26T13:21:01Z</time>
      </trkpt>
      <trkpt lat="45.6522" lon="6.84377">
        <ele>1778.2</ele>
        <time>2021-03-26T13:21:02Z</time>
      </trkpt>
      <trkpt lat="45.65219" lon="6.84377">
        <ele>1778.2</ele>
        <time>2021-03-26T13:21:03Z</time>
      </trkpt>
      <trkpt lat="45.65217" lon="6.84377">
        <ele>1777.1</ele>
        <time>2021-03-26T13:21:04Z</time>
      </trkpt>
      <trkpt lat="45.65216" lon="6.84378">
        <ele>1777.1</ele>
        <time>2021-03-26T13:21:05Z</time>
      </trkpt>
      <trkpt lat="45.65215" lon="6.84379">
        <ele>1777.1</ele>
        <time>2021-03-26T13:21:06Z</time>
      </trkpt>
      <trkpt lat="45.65214" lon="6.84379">
        <ele>1776.1</ele>
        <time>2021-03-26T13:21:07Z</time>
      </trkpt>
      <trkpt lat="45.65213" lon="6.8438">
        <ele>1775.8</ele>
        <time>2021-03-26T13:21:08Z</time>
      </trkpt>
      <trkpt lat="45.65212" lon="6.84381">
        <ele>1775.8</ele>
        <time>2021-03-26T13:21:09Z</time>
      </trkpt>
      <trkpt lat="45.65211" lon="6.84381">
        <ele>1774.9</ele>
        <time>2021-03-26T13:21:10Z</time>
      </trkpt>
      <trkpt lat="45.6521" lon="6.84382">
        <ele>1774.9</ele>
        <time>2021-03-26T13:21:11Z</time>
      </trkpt>
      <trkpt lat="45.65209" lon="6.84383">
        <ele>1774</ele>
        <time>2021-03-26T13:21:12Z</time>
      </trkpt>
      <trkpt lat="45.65208" lon="6.84383">
        <ele>1774</ele>
        <time>2021-03-26T13:21:13Z</time>
      </trkpt>
      <trkpt lat="45.65207" lon="6.84384">
        <ele>1774</ele>
        <time>2021-03-26T13:22:41Z</time>
      </trkpt>
      <trkpt lat="45.65205" lon="6.84384">
        <ele>1772.9</ele>
        <time>2021-03-26T13:22:42Z</time>
      </trkpt>
      <trkpt lat="45.65203" lon="6.84392">
        <ele>1772.6</ele>
        <time>2021-03-26T13:22:43Z</time>
      </trkpt>
      <trkpt lat="45.65203" lon="6.84399">
        <ele>1771.3</ele>
        <time>2021-03-26T13:22:44Z</time>
      </trkpt>
      <trkpt lat="45.65204" lon="6.84406">
        <ele>1771.7</ele>
        <time>2021-03-26T13:22:45Z</time>
      </trkpt>
      <trkpt lat="45.65201" lon="6.84408">
        <ele>1770.9</ele>
        <time>2021-03-26T13:22:46Z</time>
      </trkpt>
      <trkpt lat="45.65199" lon="6.84411">
        <ele>1769.8</ele>
        <time>2021-03-26T13:22:47Z</time>
      </trkpt>
      <trkpt lat="45.65196" lon="6.84406">
        <ele>1769</ele>
        <time>2021-03-26T13:22:48Z</time>
      </trkpt>
      <trkpt lat="45.65195" lon="6.84402">
        <ele>1769.2</ele>
        <time>2021-03-26T13:22:49Z</time>
      </trkpt>
      <trkpt lat="45.65196" lon="6.84398">
        <ele>1769.4</ele>
        <time>2021-03-26T13:22:50Z</time>
      </trkpt>
      <trkpt lat="45.65195" lon="6.844">
        <ele>1769.4</ele>
        <time>2021-03-26T13:22:51Z</time>
      </trkpt>
      <trkpt lat="45.65194" lon="6.84402">
        <ele>1769.2</ele>
        <time>2021-03-26T13:22:52Z</time>
      </trkpt>
      <trkpt lat="45.65193" lon="6.84404">
        <ele>1768.3</ele>
        <time>2021-03-26T13:22:53Z</time>
      </trkpt>
      <trkpt lat="45.65192" lon="6.84406">
        <ele>1768.2</ele>
        <time>2021-03-26T13:22:54Z</time>
      </trkpt>
      <trkpt lat="45.65191" lon="6.84408">
        <ele>1768.2</ele>
        <time>2021-03-26T13:22:55Z</time>
      </trkpt>
      <trkpt lat="45.6519" lon="6.8441">
        <ele>1767.2</ele>
        <time>2021-03-26T13:22:56Z</time>
      </trkpt>
      <trkpt lat="45.65189" lon="6.84412">
        <ele>1767.2</ele>
        <time>2021-03-26T13:22:57Z</time>
      </trkpt>
      <trkpt lat="45.65188" lon="6.84414">
        <ele>1767</ele>
        <time>2021-03-26T13:22:58Z</time>
      </trkpt>
      <trkpt lat="45.65187" lon="6.84416">
        <ele>1766.3</ele>
        <time>2021-03-26T13:22:59Z</time>
      </trkpt>
      <trkpt lat="45.65186" lon="6.84418">
        <ele>1766.3</ele>
        <time>2021-03-26T13:23:00Z</time>
      </trkpt>
      <trkpt lat="45.65185" lon="6.8442">
        <ele>1765.4</ele>
        <time>2021-03-26T13:23:01Z</time>
      </trkpt>
      <trkpt lat="45.65184" lon="6.84422">
        <ele>1765.4</ele>
        <time>2021-03-26T13:23:07Z</time>
      </trkpt>
      <trkpt lat="45.65183" lon="6.84424">
        <ele>1765.2</ele>
        <time>2021-03-26T13:23:08Z</time>
      </trkpt>
      <trkpt lat="45.65182" lon="6.84426">
        <ele>1764.5</ele>
        <time>2021-03-26T13:23:09Z</time>
      </trkpt>
      <trkpt lat="45.65179" lon="6.84435">
        <ele>1764.1</ele>
        <time>2021-03-26T13:23:10Z</time>
      </trkpt>
      <trkpt lat="45.65177" lon="6.84445">
        <ele>1762.8</ele>
        <time>2021-03-26T13:23:11Z</time>
      </trkpt>
      <trkpt lat="45.65176" lon="6.84446">
        <ele>1762.8</ele>
        <time>2021-03-26T13:23:12Z</time>
      </trkpt>
      <trkpt lat="45.65177" lon="6.84446">
        <ele>1762.8</ele>
        <time>2021-03-26T13:23:13Z</time>
      </trkpt>
      <trkpt lat="45.65177" lon="6.84446">
        <ele>1762.8</ele>
        <time>2021-03-26T13:23:14Z</time>
      </trkpt>
      <trkpt lat="45.65177" lon="6.84447">
        <ele>1762.8</ele>
        <time>2021-03-26T13:23:15Z</time>
      </trkpt>
      <trkpt lat="45.65177" lon="6.84447">
        <ele>1762.8</ele>
        <time>2021-03-26T13:23:16Z</time>
      </trkpt>
      <trkpt lat="45.65177" lon="6.84447">
        <ele>1762.8</ele>
        <time>2021-03-26T13:23:17Z</time>
      </trkpt>
      <trkpt lat="45.65177" lon="6.84447">
        <ele>1762.8</ele>
        <time>2021-03-26T13:23:18Z</time>
      </trkpt>
      <trkpt lat="45.65177" lon="6.84447">
        <ele>1762.7</ele>
        <time>2021-03-26T13:23:19Z</time>
      </trkpt>
      <trkpt lat="45.65177" lon="6.84447">
        <ele>1762.7</ele>
        <time>2021-03-26T13:23:20Z</time>
      </trkpt>
      <trkpt lat="45.65177" lon="6.84447">
        <ele>1762.6</ele>
        <time>2021-03-26T13:23:21Z</time>
      </trkpt>
      <trkpt lat="45.65177" lon="6.84447">
        <ele>1762.6</ele>
        <time>2021-03-26T13:23:22Z</time>
      </trkpt>
      <trkpt lat="45.65177" lon="6.84447">
        <ele>1762.6</ele>
        <time>2021-03-26T13:23:23Z</time>
      </trkpt>
      <trkpt lat="45.65171" lon="6.8445">
        <ele>1760.9</ele>
        <time>2021-03-26T13:40:58Z</time>
      </trkpt>
      <trkpt lat="45.6517" lon="6.8445">
        <ele>1760.9</ele>
        <time>2021-03-26T13:40:59Z</time>
      </trkpt>
      <trkpt lat="45.6517" lon="6.8445">
        <ele>1760.9</ele>
        <time>2021-03-26T13:41:00Z</time>
      </trkpt>
      <trkpt lat="45.6517" lon="6.8445">
        <ele>1760.1</ele>
        <time>2021-03-26T13:41:01Z</time>
      </trkpt>
      <trkpt lat="45.6517" lon="6.84451">
        <ele>1760.1</ele>
        <time>2021-03-26T13:41:02Z</time>
      </trkpt>
      <trkpt lat="45.65169" lon="6.84451">
        <ele>1760</ele>
        <time>2021-03-26T13:41:03Z</time>
      </trkpt>
      <trkpt lat="45.65169" lon="6.84452">
        <ele>1760</ele>
        <time>2021-03-26T13:41:04Z</time>
      </trkpt>
      <trkpt lat="45.65169" lon="6.84452">
        <ele>1760</ele>
        <time>2021-03-26T13:41:05Z</time>
      </trkpt>
      <trkpt lat="45.65169" lon="6.84453">
        <ele>1759.8</ele>
        <time>2021-03-26T13:41:06Z</time>
      </trkpt>
      <trkpt lat="45.65169" lon="6.84453">
        <ele>1759.8</ele>
        <time>2021-03-26T13:41:07Z</time>
      </trkpt>
      <trkpt lat="45.65169" lon="6.84454">
        <ele>1759.8</ele>
        <time>2021-03-26T13:41:08Z</time>
      </trkpt>
      <trkpt lat="45.65169" lon="6.84455">
        <ele>1759.7</ele>
        <time>2021-03-26T13:41:09Z</time>
      </trkpt>
      <trkpt lat="45.65169" lon="6.84455">
        <ele>1759.7</ele>
        <time>2021-03-26T13:41:10Z</time>
      </trkpt>
      <trkpt lat="45.65169" lon="6.84455">
        <ele>1759.6</ele>
        <time>2021-03-26T13:41:11Z</time>
      </trkpt>
      <trkpt lat="45.65169" lon="6.84455">
        <ele>1759.6</ele>
        <time>2021-03-26T13:41:12Z</time>
      </trkpt>
      <trkpt lat="45.6517" lon="6.84456">
        <ele>1759.6</ele>
        <time>2021-03-26T13:41:13Z</time>
      </trkpt>
      <trkpt lat="45.65171" lon="6.84457">
        <ele>1760.2</ele>
        <time>2021-03-26T13:41:14Z</time>
      </trkpt>
      <trkpt lat="45.65171" lon="6.84457">
        <ele>1760.1</ele>
        <time>2021-03-26T13:41:15Z</time>
      </trkpt>
      <trkpt lat="45.65171" lon="6.84457">
        <ele>1760.1</ele>
        <time>2021-03-26T13:41:16Z</time>
      </trkpt>
      <trkpt lat="45.65171" lon="6.84458">
        <ele>1760</ele>
        <time>2021-03-26T13:41:17Z</time>
      </trkpt>
      <trkpt lat="45.65171" lon="6.84458">
        <ele>1760</ele>
        <time>2021-03-26T13:41:18Z</time>
      </trkpt>
      <trkpt lat="45.65171" lon="6.84458">
        <ele>1759.9</ele>
        <time>2021-03-26T13:41:19Z</time>
      </trkpt>
      <trkpt lat="45.65171" lon="6.84458">
        <ele>1759.9</ele>
        <time>2021-03-26T13:41:20Z</time>
      </trkpt>
      <trkpt lat="45.6517" lon="6.84459">
        <ele>1759.9</ele>
        <time>2021-03-26T13:41:21Z</time>
      </trkpt>
      <trkpt lat="45.6517" lon="6.84459">
        <ele>1759.8</ele>
        <time>2021-03-26T13:41:22Z</time>
      </trkpt>
      <trkpt lat="45.6517" lon="6.8446">
        <ele>1759.1</ele>
        <time>2021-03-26T13:41:23Z</time>
      </trkpt>
      <trkpt lat="45.65169" lon="6.84461">
        <ele>1759</ele>
        <time>2021-03-26T13:41:24Z</time>
      </trkpt>
      <trkpt lat="45.65169" lon="6.84461">
        <ele>1759</ele>
        <time>2021-03-26T13:41:25Z</time>
      </trkpt>
      <trkpt lat="45.65169" lon="6.84462">
        <ele>1759</ele>
        <time>2021-03-26T13:41:26Z</time>
      </trkpt>
      <trkpt lat="45.65169" lon="6.84463">
        <ele>1758.9</ele>
        <time>2021-03-26T13:41:27Z</time>
      </trkpt>
      <trkpt lat="45.65168" lon="6.84463">
        <ele>1758.9</ele>
        <time>2021-03-26T13:41:28Z</time>
      </trkpt>
      <trkpt lat="45.65168" lon="6.84464">
        <ele>1758.9</ele>
        <time>2021-03-26T13:41:29Z</time>
      </trkpt>
      <trkpt lat="45.65168" lon="6.84465">
        <ele>1758.8</ele>
        <time>2021-03-26T13:41:30Z</time>
      </trkpt>
      <trkpt lat="45.65168" lon="6.84466">
        <ele>1758.8</ele>
        <time>2021-03-26T13:41:31Z</time>
      </trkpt>
      <trkpt lat="45.65168" lon="6.84466">
        <ele>1758.7</ele>
        <time>2021-03-26T13:41:32Z</time>
      </trkpt>
      <trkpt lat="45.65168" lon="6.84466">
        <ele>1758.7</ele>
        <time>2021-03-26T13:41:33Z</time>
      </trkpt>
      <trkpt lat="45.65168" lon="6.84466">
        <ele>1758.7</ele>
        <time>2021-03-26T13:41:34Z</time>
      </trkpt>
      <trkpt lat="45.65168" lon="6.84466">
        <ele>1758.6</ele>
        <time>2021-03-26T13:41:35Z</time>
      </trkpt>
      <trkpt lat="45.65168" lon="6.84466">
        <ele>1758.6</ele>
        <time>2021-03-26T13:41:36Z</time>
      </trkpt>
      <trkpt lat="45.65168" lon="6.84466">
        <ele>1758.6</ele>
        <time>2021-03-26T13:41:37Z</time>
      </trkpt>
      <trkpt lat="45.65168" lon="6.84466">
        <ele>1758.5</ele>
        <time>2021-03-26T13:41:38Z</time>
      </trkpt>
      <trkpt lat="45.65168" lon="6.84466">
        <ele>1758.5</ele>
        <time>2021-03-26T13:41:39Z</time>
      </trkpt>
      <trkpt lat="45.65168" lon="6.84466">
        <ele>1758.4</ele>
        <time>2021-03-26T13:41:40Z</time>
      </trkpt>
      <trkpt lat="45.65168" lon="6.84466">
        <ele>1758.4</ele>
        <time>2021-03-26T13:41:41Z</time>
      </trkpt>
      <trkpt lat="45.65168" lon="6.84466">
        <ele>1758.4</ele>
        <time>2021-03-26T13:41:42Z</time>
      </trkpt>
      <trkpt lat="45.65168" lon="6.84466">
        <ele>1758.3</ele>
        <time>2021-03-26T13:41:43Z</time>
      </trkpt>
      <trkpt lat="45.65172" lon="6.84474">
        <ele>1759.1</ele>
        <time>2021-03-26T13:42:10Z</time>
      </trkpt>
      <trkpt lat="45.65173" lon="6.84474">
        <ele>1759.1</ele>
        <time>2021-03-26T13:42:11Z</time>
      </trkpt>
      <trkpt lat="45.65173" lon="6.84475">
        <ele>1759.9</ele>
        <time>2021-03-26T13:42:12Z</time>
      </trkpt>
      <trkpt lat="45.65174" lon="6.84475">
        <ele>1759.9</ele>
        <time>2021-03-26T13:42:13Z</time>
      </trkpt>
      <trkpt lat="45.65174" lon="6.84476">
        <ele>1759.8</ele>
        <time>2021-03-26T13:42:14Z</time>
      </trkpt>
      <trkpt lat="45.65175" lon="6.84477">
        <ele>1759.8</ele>
        <time>2021-03-26T13:42:15Z</time>
      </trkpt>
      <trkpt lat="45.65175" lon="6.84478">
        <ele>1759.8</ele>
        <time>2021-03-26T13:42:16Z</time>
      </trkpt>
      <trkpt lat="45.65176" lon="6.84478">
        <ele>1759.9</ele>
        <time>2021-03-26T13:42:17Z</time>
      </trkpt>
      <trkpt lat="45.65177" lon="6.8448">
        <ele>1760.7</ele>
        <time>2021-03-26T13:42:18Z</time>
      </trkpt>
      <trkpt lat="45.65177" lon="6.8448">
        <ele>1760.6</ele>
        <time>2021-03-26T13:42:19Z</time>
      </trkpt>
      <trkpt lat="45.65177" lon="6.84481">
        <ele>1760.6</ele>
        <time>2021-03-26T13:42:20Z</time>
      </trkpt>
      <trkpt lat="45.65177" lon="6.84482">
        <ele>1760.6</ele>
        <time>2021-03-26T13:42:21Z</time>
      </trkpt>
      <trkpt lat="45.65177" lon="6.84483">
        <ele>1760.8</ele>
        <time>2021-03-26T13:42:22Z</time>
      </trkpt>
      <trkpt lat="45.65178" lon="6.84484">
        <ele>1760.8</ele>
        <time>2021-03-26T13:42:23Z</time>
      </trkpt>
      <trkpt lat="45.65178" lon="6.84485">
        <ele>1760.8</ele>
        <time>2021-03-26T13:42:24Z</time>
      </trkpt>
      <trkpt lat="45.65178" lon="6.84486">
        <ele>1760.7</ele>
        <time>2021-03-26T13:42:25Z</time>
      </trkpt>
      <trkpt lat="45.65179" lon="6.84486">
        <ele>1760.7</ele>
        <time>2021-03-26T13:42:26Z</time>
      </trkpt>
      <trkpt lat="45.65179" lon="6.84487">
        <ele>1761</ele>
        <time>2021-03-26T13:42:27Z</time>
      </trkpt>
      <trkpt lat="45.65179" lon="6.84488">
        <ele>1761</ele>
        <time>2021-03-26T13:42:28Z</time>
      </trkpt>
      <trkpt lat="45.65179" lon="6.84489">
        <ele>1761</ele>
        <time>2021-03-26T13:42:29Z</time>
      </trkpt>
      <trkpt lat="45.65179" lon="6.8449">
        <ele>1760.9</ele>
        <time>2021-03-26T13:42:30Z</time>
      </trkpt>
      <trkpt lat="45.65179" lon="6.84492">
        <ele>1761.4</ele>
        <time>2021-03-26T13:42:31Z</time>
      </trkpt>
      <trkpt lat="45.65179" lon="6.84493">
        <ele>1761.4</ele>
        <time>2021-03-26T13:42:32Z</time>
      </trkpt>
      <trkpt lat="45.65178" lon="6.84494">
        <ele>1761.3</ele>
        <time>2021-03-26T13:42:33Z</time>
      </trkpt>
      <trkpt lat="45.65178" lon="6.84495">
        <ele>1761.3</ele>
        <time>2021-03-26T13:42:34Z</time>
      </trkpt>
      <trkpt lat="45.65177" lon="6.84495">
        <ele>1761.2</ele>
        <time>2021-03-26T13:42:35Z</time>
      </trkpt>
      <trkpt lat="45.65177" lon="6.84496">
        <ele>1761.8</ele>
        <time>2021-03-26T13:42:36Z</time>
      </trkpt>
      <trkpt lat="45.65176" lon="6.84497">
        <ele>1761.7</ele>
        <time>2021-03-26T13:42:37Z</time>
      </trkpt>
      <trkpt lat="45.65176" lon="6.84498">
        <ele>1760.9</ele>
        <time>2021-03-26T13:42:38Z</time>
      </trkpt>
      <trkpt lat="45.65175" lon="6.84499">
        <ele>1760.9</ele>
        <time>2021-03-26T13:42:39Z</time>
      </trkpt>
      <trkpt lat="45.65174" lon="6.845">
        <ele>1760.8</ele>
        <time>2021-03-26T13:42:40Z</time>
      </trkpt>
      <trkpt lat="45.65174" lon="6.84501">
        <ele>1761.4</ele>
        <time>2021-03-26T13:42:41Z</time>
      </trkpt>
      <trkpt lat="45.65173" lon="6.84502">
        <ele>1761.4</ele>
        <time>2021-03-26T13:42:42Z</time>
      </trkpt>
      <trkpt lat="45.65172" lon="6.84503">
        <ele>1760.6</ele>
        <time>2021-03-26T13:42:43Z</time>
      </trkpt>
      <trkpt lat="45.65172" lon="6.84504">
        <ele>1760.6</ele>
        <time>2021-03-26T13:42:44Z</time>
      </trkpt>
      <trkpt lat="45.65171" lon="6.84505">
        <ele>1761.3</ele>
        <time>2021-03-26T13:42:45Z</time>
      </trkpt>
      <trkpt lat="45.65171" lon="6.84506">
        <ele>1761.2</ele>
        <time>2021-03-26T13:42:46Z</time>
      </trkpt>
      <trkpt lat="45.6517" lon="6.84507">
        <ele>1761.2</ele>
        <time>2021-03-26T13:42:47Z</time>
      </trkpt>
      <trkpt lat="45.65169" lon="6.84508">
        <ele>1760.3</ele>
        <time>2021-03-26T13:42:48Z</time>
      </trkpt>
      <trkpt lat="45.65169" lon="6.84509">
        <ele>1761.1</ele>
        <time>2021-03-26T13:42:49Z</time>
      </trkpt>
      <trkpt lat="45.65168" lon="6.8451">
        <ele>1761.1</ele>
        <time>2021-03-26T13:42:50Z</time>
      </trkpt>
      <trkpt lat="45.65167" lon="6.8451">
        <ele>1761</ele>
        <time>2021-03-26T13:42:51Z</time>
      </trkpt>
      <trkpt lat="45.65167" lon="6.84511">
        <ele>1760.3</ele>
        <time>2021-03-26T13:42:52Z</time>
      </trkpt>
      <trkpt lat="45.65166" lon="6.84512">
        <ele>1760.3</ele>
        <time>2021-03-26T13:42:53Z</time>
      </trkpt>
      <trkpt lat="45.65166" lon="6.84513">
        <ele>1760.9</ele>
        <time>2021-03-26T13:42:54Z</time>
      </trkpt>
      <trkpt lat="45.65166" lon="6.84513">
        <ele>1760.9</ele>
        <time>2021-03-26T13:42:55Z</time>
      </trkpt>
      <trkpt lat="45.65165" lon="6.84514">
        <ele>1760.8</ele>
        <time>2021-03-26T13:42:56Z</time>
      </trkpt>
      <trkpt lat="45.65165" lon="6.84515">
        <ele>1760.8</ele>
        <time>2021-03-26T13:42:57Z</time>
      </trkpt>
      <trkpt lat="45.65165" lon="6.84516">
        <ele>1760.8</ele>
        <time>2021-03-26T13:42:58Z</time>
      </trkpt>
      <trkpt lat="45.65164" lon="6.84517">
        <ele>1760.8</ele>
        <time>2021-03-26T13:42:59Z</time>
      </trkpt>
      <trkpt lat="45.65164" lon="6.84518">
        <ele>1761</ele>
        <time>2021-03-26T13:43:00Z</time>
      </trkpt>
      <trkpt lat="45.65163" lon="6.84519">
        <ele>1761</ele>
        <time>2021-03-26T13:43:01Z</time>
      </trkpt>
      <trkpt lat="45.65163" lon="6.84519">
        <ele>1761</ele>
        <time>2021-03-26T13:43:02Z</time>
      </trkpt>
      <trkpt lat="45.65162" lon="6.8452">
        <ele>1761</ele>
        <time>2021-03-26T13:43:03Z</time>
      </trkpt>
      <trkpt lat="45.65162" lon="6.84521">
        <ele>1761</ele>
        <time>2021-03-26T13:43:04Z</time>
      </trkpt>
      <trkpt lat="45.65161" lon="6.84522">
        <ele>1761.8</ele>
        <time>2021-03-26T13:43:05Z</time>
      </trkpt>
      <trkpt lat="45.65161" lon="6.84523">
        <ele>1761.8</ele>
        <time>2021-03-26T13:43:06Z</time>
      </trkpt>
      <trkpt lat="45.6516" lon="6.84523">
        <ele>1761.2</ele>
        <time>2021-03-26T13:43:07Z</time>
      </trkpt>
      <trkpt lat="45.6516" lon="6.84524">
        <ele>1761.2</ele>
        <time>2021-03-26T13:43:08Z</time>
      </trkpt>
      <trkpt lat="45.65159" lon="6.84525">
        <ele>1761.2</ele>
        <time>2021-03-26T13:43:09Z</time>
      </trkpt>
      <trkpt lat="45.65159" lon="6.84526">
        <ele>1762.1</ele>
        <time>2021-03-26T13:43:10Z</time>
      </trkpt>
      <trkpt lat="45.65159" lon="6.84527">
        <ele>1762.1</ele>
        <time>2021-03-26T13:43:11Z</time>
      </trkpt>
      <trkpt lat="45.65158" lon="6.84528">
        <ele>1762.1</ele>
        <time>2021-03-26T13:43:12Z</time>
      </trkpt>
      <trkpt lat="45.65158" lon="6.84529">
        <ele>1761.6</ele>
        <time>2021-03-26T13:43:13Z</time>
      </trkpt>
      <trkpt lat="45.65158" lon="6.8453">
        <ele>1762.6</ele>
        <time>2021-03-26T13:43:14Z</time>
      </trkpt>
      <trkpt lat="45.65157" lon="6.84531">
        <ele>1762.6</ele>
        <time>2021-03-26T13:43:15Z</time>
      </trkpt>
      <trkpt lat="45.65157" lon="6.84532">
        <ele>1762.6</ele>
        <time>2021-03-26T13:43:16Z</time>
      </trkpt>
      <trkpt lat="45.65156" lon="6.84533">
        <ele>1762.6</ele>
        <time>2021-03-26T13:43:17Z</time>
      </trkpt>
      <trkpt lat="45.65156" lon="6.84534">
        <ele>1763.6</ele>
        <time>2021-03-26T13:43:18Z</time>
      </trkpt>
      <trkpt lat="45.65156" lon="6.84535">
        <ele>1763.6</ele>
        <time>2021-03-26T13:43:19Z</time>
      </trkpt>
      <trkpt lat="45.65155" lon="6.84536">
        <ele>1763.6</ele>
        <time>2021-03-26T13:43:20Z</time>
      </trkpt>
      <trkpt lat="45.65155" lon="6.84537">
        <ele>1763.2</ele>
        <time>2021-03-26T13:43:21Z</time>
      </trkpt>
      <trkpt lat="45.65154" lon="6.84538">
        <ele>1763.2</ele>
        <time>2021-03-26T13:43:22Z</time>
      </trkpt>
      <trkpt lat="45.65153" lon="6.84539">
        <ele>1764.3</ele>
        <time>2021-03-26T13:43:23Z</time>
      </trkpt>
      <trkpt lat="45.65153" lon="6.8454">
        <ele>1764.3</ele>
        <time>2021-03-26T13:43:24Z</time>
      </trkpt>
      <trkpt lat="45.65152" lon="6.84541">
        <ele>1764.3</ele>
        <time>2021-03-26T13:43:25Z</time>
      </trkpt>
      <trkpt lat="45.65152" lon="6.84542">
        <ele>1763.9</ele>
        <time>2021-03-26T13:43:26Z</time>
      </trkpt>
      <trkpt lat="45.65151" lon="6.84543">
        <ele>1763.9</ele>
        <time>2021-03-26T13:43:27Z</time>
      </trkpt>
      <trkpt lat="45.65151" lon="6.84544">
        <ele>1765.1</ele>
        <time>2021-03-26T13:43:28Z</time>
      </trkpt>
      <trkpt lat="45.6515" lon="6.84545">
        <ele>1765.1</ele>
        <time>2021-03-26T13:43:29Z</time>
      </trkpt>
      <trkpt lat="45.6515" lon="6.84546">
        <ele>1765.1</ele>
        <time>2021-03-26T13:43:30Z</time>
      </trkpt>
      <trkpt lat="45.65149" lon="6.84547">
        <ele>1765.1</ele>
        <time>2021-03-26T13:43:31Z</time>
      </trkpt>
      <trkpt lat="45.65149" lon="6.84548">
        <ele>1766.4</ele>
        <time>2021-03-26T13:43:32Z</time>
      </trkpt>
      <trkpt lat="45.65148" lon="6.84548">
        <ele>1766</ele>
        <time>2021-03-26T13:43:33Z</time>
      </trkpt>
      <trkpt lat="45.65148" lon="6.8455">
        <ele>1766</ele>
        <time>2021-03-26T13:43:34Z</time>
      </trkpt>
      <trkpt lat="45.65147" lon="6.84551">
        <ele>1766</ele>
        <time>2021-03-26T13:43:35Z</time>
      </trkpt>
      <trkpt lat="45.65147" lon="6.84552">
        <ele>1767.3</ele>
        <time>2021-03-26T13:43:36Z</time>
      </trkpt>
      <trkpt lat="45.65146" lon="6.84553">
        <ele>1767.3</ele>
        <time>2021-03-26T13:43:37Z</time>
      </trkpt>
      <trkpt lat="45.65146" lon="6.84553">
        <ele>1767.3</ele>
        <time>2021-03-26T13:43:38Z</time>
      </trkpt>
      <trkpt lat="45.65145" lon="6.84555">
        <ele>1766.8</ele>
        <time>2021-03-26T13:43:39Z</time>
      </trkpt>
      <trkpt lat="45.65145" lon="6.84555">
        <ele>1766.8</ele>
        <time>2021-03-26T13:43:40Z</time>
      </trkpt>
      <trkpt lat="45.65144" lon="6.84556">
        <ele>1768.1</ele>
        <time>2021-03-26T13:43:41Z</time>
      </trkpt>
      <trkpt lat="45.65144" lon="6.84557">
        <ele>1768.1</ele>
        <time>2021-03-26T13:43:42Z</time>
      </trkpt>
      <trkpt lat="45.65143" lon="6.84558">
        <ele>1768.1</ele>
        <time>2021-03-26T13:43:43Z</time>
      </trkpt>
      <trkpt lat="45.65143" lon="6.84559">
        <ele>1767.6</ele>
        <time>2021-03-26T13:43:44Z</time>
      </trkpt>
      <trkpt lat="45.65142" lon="6.84559">
        <ele>1767.6</ele>
        <time>2021-03-26T13:43:45Z</time>
      </trkpt>
      <trkpt lat="45.65141" lon="6.8456">
        <ele>1768.8</ele>
        <time>2021-03-26T13:43:46Z</time>
      </trkpt>
      <trkpt lat="45.65141" lon="6.84561">
        <ele>1768.8</ele>
        <time>2021-03-26T13:43:47Z</time>
      </trkpt>
      <trkpt lat="45.6514" lon="6.84562">
        <ele>1768.8</ele>
        <time>2021-03-26T13:43:48Z</time>
      </trkpt>
      <trkpt lat="45.6514" lon="6.84563">
        <ele>1768.2</ele>
        <time>2021-03-26T13:43:49Z</time>
      </trkpt>
      <trkpt lat="45.65139" lon="6.84563">
        <ele>1768.2</ele>
        <time>2021-03-26T13:43:50Z</time>
      </trkpt>
      <trkpt lat="45.65138" lon="6.84564">
        <ele>1768.2</ele>
        <time>2021-03-26T13:43:51Z</time>
      </trkpt>
      <trkpt lat="45.65138" lon="6.84564">
        <ele>1769.4</ele>
        <time>2021-03-26T13:43:52Z</time>
      </trkpt>
      <trkpt lat="45.65137" lon="6.84565">
        <ele>1769.4</ele>
        <time>2021-03-26T13:43:53Z</time>
      </trkpt>
      <trkpt lat="45.65136" lon="6.84566">
        <ele>1768.7</ele>
        <time>2021-03-26T13:43:54Z</time>
      </trkpt>
      <trkpt lat="45.65136" lon="6.84567">
        <ele>1768.7</ele>
        <time>2021-03-26T13:43:55Z</time>
      </trkpt>
      <trkpt lat="45.65135" lon="6.84567">
        <ele>1768.7</ele>
        <time>2021-03-26T13:43:56Z</time>
      </trkpt>
      <trkpt lat="45.65135" lon="6.84568">
        <ele>1768.7</ele>
        <time>2021-03-26T13:43:57Z</time>
      </trkpt>
      <trkpt lat="45.65134" lon="6.84569">
        <ele>1769.9</ele>
        <time>2021-03-26T13:43:58Z</time>
      </trkpt>
      <trkpt lat="45.65133" lon="6.8457">
        <ele>1769.3</ele>
        <time>2021-03-26T13:43:59Z</time>
      </trkpt>
      <trkpt lat="45.65133" lon="6.84571">
        <ele>1769.3</ele>
        <time>2021-03-26T13:44:00Z</time>
      </trkpt>
      <trkpt lat="45.65133" lon="6.84572">
        <ele>1769.3</ele>
        <time>2021-03-26T13:44:01Z</time>
      </trkpt>
      <trkpt lat="45.65132" lon="6.84572">
        <ele>1769.3</ele>
        <time>2021-03-26T13:44:02Z</time>
      </trkpt>
      <trkpt lat="45.65132" lon="6.84573">
        <ele>1770.5</ele>
        <time>2021-03-26T13:44:03Z</time>
      </trkpt>
      <trkpt lat="45.65131" lon="6.84574">
        <ele>1770.5</ele>
        <time>2021-03-26T13:44:04Z</time>
      </trkpt>
      <trkpt lat="45.65131" lon="6.84575">
        <ele>1770.5</ele>
        <time>2021-03-26T13:44:05Z</time>
      </trkpt>
      <trkpt lat="45.65131" lon="6.84576">
        <ele>1769.9</ele>
        <time>2021-03-26T13:44:06Z</time>
      </trkpt>
      <trkpt lat="45.6513" lon="6.84576">
        <ele>1769.9</ele>
        <time>2021-03-26T13:44:07Z</time>
      </trkpt>
      <trkpt lat="45.6513" lon="6.84577">
        <ele>1771.1</ele>
        <time>2021-03-26T13:44:08Z</time>
      </trkpt>
      <trkpt lat="45.65129" lon="6.84578">
        <ele>1771.1</ele>
        <time>2021-03-26T13:44:09Z</time>
      </trkpt>
      <trkpt lat="45.65129" lon="6.84578">
        <ele>1771.1</ele>
        <time>2021-03-26T13:44:10Z</time>
      </trkpt>
      <trkpt lat="45.65128" lon="6.84579">
        <ele>1771.1</ele>
        <time>2021-03-26T13:44:11Z</time>
      </trkpt>
      <trkpt lat="45.65128" lon="6.8458">
        <ele>1770.5</ele>
        <time>2021-03-26T13:44:12Z</time>
      </trkpt>
      <trkpt lat="45.65127" lon="6.84581">
        <ele>1770.5</ele>
        <time>2021-03-26T13:44:13Z</time>
      </trkpt>
      <trkpt lat="45.65127" lon="6.84581">
        <ele>1770.5</ele>
        <time>2021-03-26T13:44:14Z</time>
      </trkpt>
      <trkpt lat="45.65126" lon="6.84582">
        <ele>1771.8</ele>
        <time>2021-03-26T13:44:15Z</time>
      </trkpt>
      <trkpt lat="45.65125" lon="6.84583">
        <ele>1771.8</ele>
        <time>2021-03-26T13:44:16Z</time>
      </trkpt>
      <trkpt lat="45.65125" lon="6.84583">
        <ele>1771.3</ele>
        <time>2021-03-26T13:44:17Z</time>
      </trkpt>
      <trkpt lat="45.65124" lon="6.84584">
        <ele>1771.3</ele>
        <time>2021-03-26T13:44:18Z</time>
      </trkpt>
      <trkpt lat="45.65124" lon="6.84585">
        <ele>1771.3</ele>
        <time>2021-03-26T13:44:19Z</time>
      </trkpt>
      <trkpt lat="45.65124" lon="6.84585">
        <ele>1771.3</ele>
        <time>2021-03-26T13:44:20Z</time>
      </trkpt>
      <trkpt lat="45.65123" lon="6.84586">
        <ele>1772.5</ele>
        <time>2021-03-26T13:44:21Z</time>
      </trkpt>
      <trkpt lat="45.65123" lon="6.84587">
        <ele>1772.5</ele>
        <time>2021-03-26T13:44:22Z</time>
      </trkpt>
      <trkpt lat="45.65122" lon="6.84587">
        <ele>1772.5</ele>
        <time>2021-03-26T13:44:23Z</time>
      </trkpt>
      <trkpt lat="45.65122" lon="6.84588">
        <ele>1772</ele>
        <time>2021-03-26T13:44:24Z</time>
      </trkpt>
      <trkpt lat="45.65121" lon="6.84588">
        <ele>1772</ele>
        <time>2021-03-26T13:44:25Z</time>
      </trkpt>
      <trkpt lat="45.6512" lon="6.84589">
        <ele>1772</ele>
        <time>2021-03-26T13:44:26Z</time>
      </trkpt>
      <trkpt lat="45.6512" lon="6.8459">
        <ele>1772</ele>
        <time>2021-03-26T13:44:27Z</time>
      </trkpt>
      <trkpt lat="45.65119" lon="6.84591">
        <ele>1773.2</ele>
        <time>2021-03-26T13:44:28Z</time>
      </trkpt>
      <trkpt lat="45.65119" lon="6.84591">
        <ele>1772.6</ele>
        <time>2021-03-26T13:44:29Z</time>
      </trkpt>
      <trkpt lat="45.65118" lon="6.84592">
        <ele>1772.6</ele>
        <time>2021-03-26T13:44:30Z</time>
      </trkpt>
      <trkpt lat="45.65117" lon="6.84592">
        <ele>1772.6</ele>
        <time>2021-03-26T13:44:31Z</time>
      </trkpt>
      <trkpt lat="45.65117" lon="6.84594">
        <ele>1772.6</ele>
        <time>2021-03-26T13:44:32Z</time>
      </trkpt>
      <trkpt lat="45.65116" lon="6.84595">
        <ele>1773.8</ele>
        <time>2021-03-26T13:44:33Z</time>
      </trkpt>
      <trkpt lat="45.65116" lon="6.84596">
        <ele>1773.1</ele>
        <time>2021-03-26T13:44:34Z</time>
      </trkpt>
      <trkpt lat="45.65115" lon="6.84596">
        <ele>1773.1</ele>
        <time>2021-03-26T13:44:35Z</time>
      </trkpt>
      <trkpt lat="45.65115" lon="6.84597">
        <ele>1773.1</ele>
        <time>2021-03-26T13:44:36Z</time>
      </trkpt>
      <trkpt lat="45.65115" lon="6.84597">
        <ele>1773.1</ele>
        <time>2021-03-26T13:44:37Z</time>
      </trkpt>
      <trkpt lat="45.65115" lon="6.84598">
        <ele>1773.1</ele>
        <time>2021-03-26T13:44:38Z</time>
      </trkpt>
      <trkpt lat="45.65114" lon="6.84598">
        <ele>1773.1</ele>
        <time>2021-03-26T13:44:39Z</time>
      </trkpt>
      <trkpt lat="45.65114" lon="6.84598">
        <ele>1773.1</ele>
        <time>2021-03-26T13:44:40Z</time>
      </trkpt>
      <trkpt lat="45.65113" lon="6.84599">
        <ele>1774.3</ele>
        <time>2021-03-26T13:44:41Z</time>
      </trkpt>
      <trkpt lat="45.65113" lon="6.84599">
        <ele>1773.6</ele>
        <time>2021-03-26T13:44:42Z</time>
      </trkpt>
      <trkpt lat="45.65112" lon="6.84599">
        <ele>1773.6</ele>
        <time>2021-03-26T13:44:43Z</time>
      </trkpt>
      <trkpt lat="45.65112" lon="6.846">
        <ele>1773.6</ele>
        <time>2021-03-26T13:44:44Z</time>
      </trkpt>
      <trkpt lat="45.65112" lon="6.846">
        <ele>1773.6</ele>
        <time>2021-03-26T13:44:45Z</time>
      </trkpt>
      <trkpt lat="45.65111" lon="6.84601">
        <ele>1773.6</ele>
        <time>2021-03-26T13:44:46Z</time>
      </trkpt>
      <trkpt lat="45.65111" lon="6.84601">
        <ele>1773.6</ele>
        <time>2021-03-26T13:44:47Z</time>
      </trkpt>
      <trkpt lat="45.65111" lon="6.84602">
        <ele>1773.6</ele>
        <time>2021-03-26T13:44:48Z</time>
      </trkpt>
      <trkpt lat="45.6511" lon="6.84603">
        <ele>1774.8</ele>
        <time>2021-03-26T13:44:49Z</time>
      </trkpt>
      <trkpt lat="45.6511" lon="6.84604">
        <ele>1774.1</ele>
        <time>2021-03-26T13:44:50Z</time>
      </trkpt>
      <trkpt lat="45.65109" lon="6.84604">
        <ele>1774.1</ele>
        <time>2021-03-26T13:44:51Z</time>
      </trkpt>
      <trkpt lat="45.65109" lon="6.84605">
        <ele>1774.1</ele>
        <time>2021-03-26T13:44:52Z</time>
      </trkpt>
      <trkpt lat="45.65108" lon="6.84606">
        <ele>1774.1</ele>
        <time>2021-03-26T13:44:53Z</time>
      </trkpt>
      <trkpt lat="45.65108" lon="6.84606">
        <ele>1774.1</ele>
        <time>2021-03-26T13:44:54Z</time>
      </trkpt>
      <trkpt lat="45.65107" lon="6.84607">
        <ele>1774.1</ele>
        <time>2021-03-26T13:44:55Z</time>
      </trkpt>
      <trkpt lat="45.65107" lon="6.84607">
        <ele>1774.6</ele>
        <time>2021-03-26T13:44:56Z</time>
      </trkpt>
      <trkpt lat="45.65106" lon="6.84608">
        <ele>1774.6</ele>
        <time>2021-03-26T13:44:57Z</time>
      </trkpt>
      <trkpt lat="45.65106" lon="6.84608">
        <ele>1774.6</ele>
        <time>2021-03-26T13:44:58Z</time>
      </trkpt>
      <trkpt lat="45.65105" lon="6.84609">
        <ele>1774.6</ele>
        <time>2021-03-26T13:44:59Z</time>
      </trkpt>
      <trkpt lat="45.65105" lon="6.84609">
        <ele>1774.6</ele>
        <time>2021-03-26T13:45:00Z</time>
      </trkpt>
      <trkpt lat="45.65104" lon="6.8461">
        <ele>1774.6</ele>
        <time>2021-03-26T13:45:01Z</time>
      </trkpt>
      <trkpt lat="45.65104" lon="6.8461">
        <ele>1774.6</ele>
        <time>2021-03-26T13:45:02Z</time>
      </trkpt>
      <trkpt lat="45.65104" lon="6.84611">
        <ele>1774</ele>
        <time>2021-03-26T13:45:03Z</time>
      </trkpt>
      <trkpt lat="45.65103" lon="6.84611">
        <ele>1775.1</ele>
        <time>2021-03-26T13:45:04Z</time>
      </trkpt>
      <trkpt lat="45.65103" lon="6.84612">
        <ele>1775.1</ele>
        <time>2021-03-26T13:45:05Z</time>
      </trkpt>
      <trkpt lat="45.65103" lon="6.84612">
        <ele>1775.1</ele>
        <time>2021-03-26T13:45:06Z</time>
      </trkpt>
      <trkpt lat="45.65102" lon="6.84612">
        <ele>1775.1</ele>
        <time>2021-03-26T13:45:07Z</time>
      </trkpt>
      <trkpt lat="45.65102" lon="6.84613">
        <ele>1775.1</ele>
        <time>2021-03-26T13:45:08Z</time>
      </trkpt>
      <trkpt lat="45.65101" lon="6.84613">
        <ele>1775.1</ele>
        <time>2021-03-26T13:45:09Z</time>
      </trkpt>
      <trkpt lat="45.65101" lon="6.84614">
        <ele>1774.6</ele>
        <time>2021-03-26T13:45:10Z</time>
      </trkpt>
      <trkpt lat="45.651" lon="6.84614">
        <ele>1774.6</ele>
        <time>2021-03-26T13:45:11Z</time>
      </trkpt>
      <trkpt lat="45.651" lon="6.84615">
        <ele>1774.6</ele>
        <time>2021-03-26T13:45:12Z</time>
      </trkpt>
      <trkpt lat="45.65099" lon="6.84616">
        <ele>1774.6</ele>
        <time>2021-03-26T13:45:13Z</time>
      </trkpt>
      <trkpt lat="45.65099" lon="6.84616">
        <ele>1775.7</ele>
        <time>2021-03-26T13:45:14Z</time>
      </trkpt>
      <trkpt lat="45.65099" lon="6.84617">
        <ele>1775.7</ele>
        <time>2021-03-26T13:45:15Z</time>
      </trkpt>
      <trkpt lat="45.65098" lon="6.84617">
        <ele>1775.7</ele>
        <time>2021-03-26T13:45:16Z</time>
      </trkpt>
      <trkpt lat="45.65098" lon="6.84618">
        <ele>1775.1</ele>
        <time>2021-03-26T13:45:17Z</time>
      </trkpt>
      <trkpt lat="45.65097" lon="6.84619">
        <ele>1775.1</ele>
        <time>2021-03-26T13:45:18Z</time>
      </trkpt>
      <trkpt lat="45.65097" lon="6.84619">
        <ele>1775.1</ele>
        <time>2021-03-26T13:45:19Z</time>
      </trkpt>
      <trkpt lat="45.65097" lon="6.8462">
        <ele>1775.1</ele>
        <time>2021-03-26T13:45:20Z</time>
      </trkpt>
      <trkpt lat="45.65096" lon="6.8462">
        <ele>1776.2</ele>
        <time>2021-03-26T13:45:21Z</time>
      </trkpt>
      <trkpt lat="45.65096" lon="6.84621">
        <ele>1776.2</ele>
        <time>2021-03-26T13:45:22Z</time>
      </trkpt>
      <trkpt lat="45.65096" lon="6.84622">
        <ele>1776.2</ele>
        <time>2021-03-26T13:45:23Z</time>
      </trkpt>
      <trkpt lat="45.65095" lon="6.84622">
        <ele>1776.2</ele>
        <time>2021-03-26T13:45:24Z</time>
      </trkpt>
      <trkpt lat="45.65095" lon="6.84623">
        <ele>1776.2</ele>
        <time>2021-03-26T13:45:25Z</time>
      </trkpt>
      <trkpt lat="45.65095" lon="6.84624">
        <ele>1775.6</ele>
        <time>2021-03-26T13:45:26Z</time>
      </trkpt>
      <trkpt lat="45.65094" lon="6.84624">
        <ele>1776.7</ele>
        <time>2021-03-26T13:45:27Z</time>
      </trkpt>
      <trkpt lat="45.65094" lon="6.84625">
        <ele>1776.7</ele>
        <time>2021-03-26T13:45:28Z</time>
      </trkpt>
      <trkpt lat="45.65094" lon="6.84626">
        <ele>1776.7</ele>
        <time>2021-03-26T13:45:29Z</time>
      </trkpt>
      <trkpt lat="45.65093" lon="6.84626">
        <ele>1776.7</ele>
        <time>2021-03-26T13:45:30Z</time>
      </trkpt>
      <trkpt lat="45.65093" lon="6.84627">
        <ele>1776.7</ele>
        <time>2021-03-26T13:45:31Z</time>
      </trkpt>
      <trkpt lat="45.65093" lon="6.84628">
        <ele>1776.7</ele>
        <time>2021-03-26T13:45:32Z</time>
      </trkpt>
      <trkpt lat="45.65092" lon="6.84628">
        <ele>1776.7</ele>
        <time>2021-03-26T13:45:33Z</time>
      </trkpt>
      <trkpt lat="45.65092" lon="6.84629">
        <ele>1777.2</ele>
        <time>2021-03-26T13:45:34Z</time>
      </trkpt>
      <trkpt lat="45.65091" lon="6.8463">
        <ele>1777.2</ele>
        <time>2021-03-26T13:45:35Z</time>
      </trkpt>
      <trkpt lat="45.65091" lon="6.8463">
        <ele>1777.2</ele>
        <time>2021-03-26T13:45:36Z</time>
      </trkpt>
      <trkpt lat="45.65091" lon="6.84631">
        <ele>1777.2</ele>
        <time>2021-03-26T13:45:37Z</time>
      </trkpt>
      <trkpt lat="45.6509" lon="6.84632">
        <ele>1777.2</ele>
        <time>2021-03-26T13:45:38Z</time>
      </trkpt>
      <trkpt lat="45.6509" lon="6.84633">
        <ele>1777.2</ele>
        <time>2021-03-26T13:45:39Z</time>
      </trkpt>
      <trkpt lat="45.6509" lon="6.84633">
        <ele>1778.4</ele>
        <time>2021-03-26T13:45:40Z</time>
      </trkpt>
      <trkpt lat="45.65089" lon="6.84634">
        <ele>1778.4</ele>
        <time>2021-03-26T13:45:41Z</time>
      </trkpt>
      <trkpt lat="45.65089" lon="6.84635">
        <ele>1778.4</ele>
        <time>2021-03-26T13:45:42Z</time>
      </trkpt>
      <trkpt lat="45.65089" lon="6.84636">
        <ele>1777.8</ele>
        <time>2021-03-26T13:45:43Z</time>
      </trkpt>
      <trkpt lat="45.65088" lon="6.84636">
        <ele>1777.8</ele>
        <time>2021-03-26T13:45:44Z</time>
      </trkpt>
      <trkpt lat="45.65088" lon="6.84637">
        <ele>1779</ele>
        <time>2021-03-26T13:45:45Z</time>
      </trkpt>
      <trkpt lat="45.65087" lon="6.84638">
        <ele>1779</ele>
        <time>2021-03-26T13:45:46Z</time>
      </trkpt>
      <trkpt lat="45.65087" lon="6.84639">
        <ele>1779</ele>
        <time>2021-03-26T13:45:47Z</time>
      </trkpt>
      <trkpt lat="45.65086" lon="6.8464">
        <ele>1779</ele>
        <time>2021-03-26T13:45:48Z</time>
      </trkpt>
      <trkpt lat="45.65086" lon="6.8464">
        <ele>1778.3</ele>
        <time>2021-03-26T13:45:49Z</time>
      </trkpt>
      <trkpt lat="45.65085" lon="6.84641">
        <ele>1778.3</ele>
        <time>2021-03-26T13:45:50Z</time>
      </trkpt>
      <trkpt lat="45.65084" lon="6.84641">
        <ele>1778.3</ele>
        <time>2021-03-26T13:45:51Z</time>
      </trkpt>
      <trkpt lat="45.65084" lon="6.84642">
        <ele>1779.4</ele>
        <time>2021-03-26T13:45:52Z</time>
      </trkpt>
      <trkpt lat="45.65083" lon="6.84642">
        <ele>1779.4</ele>
        <time>2021-03-26T13:45:53Z</time>
      </trkpt>
      <trkpt lat="45.65083" lon="6.84643">
        <ele>1778.7</ele>
        <time>2021-03-26T13:45:54Z</time>
      </trkpt>
      <trkpt lat="45.65082" lon="6.84643">
        <ele>1778.7</ele>
        <time>2021-03-26T13:45:55Z</time>
      </trkpt>
      <trkpt lat="45.65081" lon="6.84644">
        <ele>1778.7</ele>
        <time>2021-03-26T13:45:56Z</time>
      </trkpt>
      <trkpt lat="45.65081" lon="6.84644">
        <ele>1778.7</ele>
        <time>2021-03-26T13:45:57Z</time>
      </trkpt>
      <trkpt lat="45.6508" lon="6.84645">
        <ele>1778.1</ele>
        <time>2021-03-26T13:45:58Z</time>
      </trkpt>
      <trkpt lat="45.65079" lon="6.84646">
        <ele>1778.1</ele>
        <time>2021-03-26T13:45:59Z</time>
      </trkpt>
      <trkpt lat="45.65078" lon="6.84646">
        <ele>1779.2</ele>
        <time>2021-03-26T13:46:00Z</time>
      </trkpt>
      <trkpt lat="45.65077" lon="6.84647">
        <ele>1779.2</ele>
        <time>2021-03-26T13:46:01Z</time>
      </trkpt>
      <trkpt lat="45.65077" lon="6.84647">
        <ele>1778.5</ele>
        <time>2021-03-26T13:46:02Z</time>
      </trkpt>
      <trkpt lat="45.65076" lon="6.84648">
        <ele>1778.5</ele>
        <time>2021-03-26T13:46:03Z</time>
      </trkpt>
      <trkpt lat="45.65076" lon="6.84649">
        <ele>1778.5</ele>
        <time>2021-03-26T13:46:04Z</time>
      </trkpt>
      <trkpt lat="45.65075" lon="6.84649">
        <ele>1778.5</ele>
        <time>2021-03-26T13:46:05Z</time>
      </trkpt>
      <trkpt lat="45.65075" lon="6.8465">
        <ele>1778.5</ele>
        <time>2021-03-26T13:46:06Z</time>
      </trkpt>
      <trkpt lat="45.65074" lon="6.8465">
        <ele>1778.9</ele>
        <time>2021-03-26T13:46:07Z</time>
      </trkpt>
      <trkpt lat="45.65073" lon="6.84651">
        <ele>1778.9</ele>
        <time>2021-03-26T13:46:08Z</time>
      </trkpt>
      <trkpt lat="45.65073" lon="6.84651">
        <ele>1778.9</ele>
        <time>2021-03-26T13:46:09Z</time>
      </trkpt>
      <trkpt lat="45.65072" lon="6.84651">
        <ele>1778.9</ele>
        <time>2021-03-26T13:46:10Z</time>
      </trkpt>
      <trkpt lat="45.65071" lon="6.84652">
        <ele>1778.9</ele>
        <time>2021-03-26T13:46:11Z</time>
      </trkpt>
      <trkpt lat="45.65071" lon="6.84652">
        <ele>1778.3</ele>
        <time>2021-03-26T13:46:12Z</time>
      </trkpt>
      <trkpt lat="45.6507" lon="6.84652">
        <ele>1778.3</ele>
        <time>2021-03-26T13:46:13Z</time>
      </trkpt>
      <trkpt lat="45.65069" lon="6.84652">
        <ele>1778.3</ele>
        <time>2021-03-26T13:46:14Z</time>
      </trkpt>
      <trkpt lat="45.65069" lon="6.84652">
        <ele>1778.3</ele>
        <time>2021-03-26T13:46:15Z</time>
      </trkpt>
      <trkpt lat="45.65068" lon="6.84653">
        <ele>1778.3</ele>
        <time>2021-03-26T13:46:16Z</time>
      </trkpt>
      <trkpt lat="45.65068" lon="6.84653">
        <ele>1777.7</ele>
        <time>2021-03-26T13:46:17Z</time>
      </trkpt>
      <trkpt lat="45.65067" lon="6.84654">
        <ele>1777.7</ele>
        <time>2021-03-26T13:46:18Z</time>
      </trkpt>
      <trkpt lat="45.65067" lon="6.84654">
        <ele>1777.7</ele>
        <time>2021-03-26T13:46:19Z</time>
      </trkpt>
      <trkpt lat="45.65066" lon="6.84655">
        <ele>1778.7</ele>
        <time>2021-03-26T13:46:20Z</time>
      </trkpt>
      <trkpt lat="45.65066" lon="6.84655">
        <ele>1778.7</ele>
        <time>2021-03-26T13:46:21Z</time>
      </trkpt>
      <trkpt lat="45.65065" lon="6.84656">
        <ele>1778.7</ele>
        <time>2021-03-26T13:46:22Z</time>
      </trkpt>
      <trkpt lat="45.65064" lon="6.84657">
        <ele>1778.1</ele>
        <time>2021-03-26T13:46:23Z</time>
      </trkpt>
      <trkpt lat="45.65064" lon="6.84657">
        <ele>1778.1</ele>
        <time>2021-03-26T13:46:24Z</time>
      </trkpt>
      <trkpt lat="45.65063" lon="6.84658">
        <ele>1778.1</ele>
        <time>2021-03-26T13:46:25Z</time>
      </trkpt>
      <trkpt lat="45.65063" lon="6.84658">
        <ele>1778.1</ele>
        <time>2021-03-26T13:46:26Z</time>
      </trkpt>
      <trkpt lat="45.65062" lon="6.84659">
        <ele>1779.1</ele>
        <time>2021-03-26T13:46:27Z</time>
      </trkpt>
      <trkpt lat="45.65062" lon="6.8466">
        <ele>1779.1</ele>
        <time>2021-03-26T13:46:28Z</time>
      </trkpt>
      <trkpt lat="45.65061" lon="6.8466">
        <ele>1778.4</ele>
        <time>2021-03-26T13:46:29Z</time>
      </trkpt>
      <trkpt lat="45.65061" lon="6.84661">
        <ele>1778.4</ele>
        <time>2021-03-26T13:46:30Z</time>
      </trkpt>
      <trkpt lat="45.6506" lon="6.84661">
        <ele>1778.4</ele>
        <time>2021-03-26T13:46:31Z</time>
      </trkpt>
      <trkpt lat="45.6506" lon="6.84661">
        <ele>1778.4</ele>
        <time>2021-03-26T13:46:32Z</time>
      </trkpt>
      <trkpt lat="45.65059" lon="6.84662">
        <ele>1777.6</ele>
        <time>2021-03-26T13:46:33Z</time>
      </trkpt>
      <trkpt lat="45.65058" lon="6.84662">
        <ele>1777.6</ele>
        <time>2021-03-26T13:46:34Z</time>
      </trkpt>
      <trkpt lat="45.65058" lon="6.84662">
        <ele>1777.6</ele>
        <time>2021-03-26T13:46:35Z</time>
      </trkpt>
      <trkpt lat="45.65058" lon="6.84663">
        <ele>1777.6</ele>
        <time>2021-03-26T13:46:36Z</time>
      </trkpt>
      <trkpt lat="45.65057" lon="6.84663">
        <ele>1778.7</ele>
        <time>2021-03-26T13:46:37Z</time>
      </trkpt>
      <trkpt lat="45.65057" lon="6.84664">
        <ele>1778.7</ele>
        <time>2021-03-26T13:46:38Z</time>
      </trkpt>
      <trkpt lat="45.65057" lon="6.84665">
        <ele>1778.7</ele>
        <time>2021-03-26T13:46:39Z</time>
      </trkpt>
      <trkpt lat="45.65056" lon="6.84666">
        <ele>1778.7</ele>
        <time>2021-03-26T13:46:40Z</time>
      </trkpt>
      <trkpt lat="45.65056" lon="6.84667">
        <ele>1778.7</ele>
        <time>2021-03-26T13:46:41Z</time>
      </trkpt>
      <trkpt lat="45.65056" lon="6.84667">
        <ele>1778.7</ele>
        <time>2021-03-26T13:46:42Z</time>
      </trkpt>
      <trkpt lat="45.65056" lon="6.84668">
        <ele>1778.8</ele>
        <time>2021-03-26T13:46:43Z</time>
      </trkpt>
      <trkpt lat="45.65056" lon="6.84669">
        <ele>1778.8</ele>
        <time>2021-03-26T13:46:44Z</time>
      </trkpt>
      <trkpt lat="45.65056" lon="6.84669">
        <ele>1778.8</ele>
        <time>2021-03-26T13:46:45Z</time>
      </trkpt>
      <trkpt lat="45.65055" lon="6.8467">
        <ele>1778.8</ele>
        <time>2021-03-26T13:46:46Z</time>
      </trkpt>
      <trkpt lat="45.65055" lon="6.84671">
        <ele>1778.8</ele>
        <time>2021-03-26T13:46:47Z</time>
      </trkpt>
      <trkpt lat="45.65055" lon="6.84671">
        <ele>1778.8</ele>
        <time>2021-03-26T13:46:48Z</time>
      </trkpt>
      <trkpt lat="45.65055" lon="6.84672">
        <ele>1779.8</ele>
        <time>2021-03-26T13:46:49Z</time>
      </trkpt>
      <trkpt lat="45.65054" lon="6.84672">
        <ele>1779.8</ele>
        <time>2021-03-26T13:46:50Z</time>
      </trkpt>
      <trkpt lat="45.65054" lon="6.84673">
        <ele>1779.8</ele>
        <time>2021-03-26T13:46:51Z</time>
      </trkpt>
      <trkpt lat="45.65053" lon="6.84674">
        <ele>1779.8</ele>
        <time>2021-03-26T13:46:52Z</time>
      </trkpt>
      <trkpt lat="45.65053" lon="6.84674">
        <ele>1778.9</ele>
        <time>2021-03-26T13:46:53Z</time>
      </trkpt>
      <trkpt lat="45.65052" lon="6.84675">
        <ele>1778.9</ele>
        <time>2021-03-26T13:46:54Z</time>
      </trkpt>
      <trkpt lat="45.65052" lon="6.84675">
        <ele>1778.9</ele>
        <time>2021-03-26T13:46:55Z</time>
      </trkpt>
      <trkpt lat="45.65052" lon="6.84676">
        <ele>1779.9</ele>
        <time>2021-03-26T13:46:56Z</time>
      </trkpt>
      <trkpt lat="45.65052" lon="6.84676">
        <ele>1779.9</ele>
        <time>2021-03-26T13:46:57Z</time>
      </trkpt>
      <trkpt lat="45.65052" lon="6.84677">
        <ele>1779.9</ele>
        <time>2021-03-26T13:46:58Z</time>
      </trkpt>
      <trkpt lat="45.65051" lon="6.84678">
        <ele>1779.9</ele>
        <time>2021-03-26T13:46:59Z</time>
      </trkpt>
      <trkpt lat="45.65051" lon="6.84678">
        <ele>1779.9</ele>
        <time>2021-03-26T13:47:00Z</time>
      </trkpt>
      <trkpt lat="45.65051" lon="6.84679">
        <ele>1779.9</ele>
        <time>2021-03-26T13:47:01Z</time>
      </trkpt>
      <trkpt lat="45.65051" lon="6.8468">
        <ele>1779.9</ele>
        <time>2021-03-26T13:47:02Z</time>
      </trkpt>
      <trkpt lat="45.65051" lon="6.84681">
        <ele>1780.9</ele>
        <time>2021-03-26T13:47:03Z</time>
      </trkpt>
      <trkpt lat="45.6505" lon="6.84682">
        <ele>1780.9</ele>
        <time>2021-03-26T13:47:04Z</time>
      </trkpt>
      <trkpt lat="45.6505" lon="6.84682">
        <ele>1780</ele>
        <time>2021-03-26T13:47:05Z</time>
      </trkpt>
      <trkpt lat="45.65049" lon="6.84683">
        <ele>1780</ele>
        <time>2021-03-26T13:47:06Z</time>
      </trkpt>
      <trkpt lat="45.65049" lon="6.84684">
        <ele>1780</ele>
        <time>2021-03-26T13:47:07Z</time>
      </trkpt>
      <trkpt lat="45.65049" lon="6.84684">
        <ele>1781</ele>
        <time>2021-03-26T13:47:08Z</time>
      </trkpt>
      <trkpt lat="45.65048" lon="6.84685">
        <ele>1781</ele>
        <time>2021-03-26T13:47:09Z</time>
      </trkpt>
      <trkpt lat="45.65048" lon="6.84686">
        <ele>1781</ele>
        <time>2021-03-26T13:47:10Z</time>
      </trkpt>
      <trkpt lat="45.65048" lon="6.84687">
        <ele>1781</ele>
        <time>2021-03-26T13:47:11Z</time>
      </trkpt>
      <trkpt lat="45.65048" lon="6.84688">
        <ele>1781</ele>
        <time>2021-03-26T13:47:12Z</time>
      </trkpt>
      <trkpt lat="45.65047" lon="6.84689">
        <ele>1781.9</ele>
        <time>2021-03-26T13:47:13Z</time>
      </trkpt>
      <trkpt lat="45.65047" lon="6.8469">
        <ele>1781.9</ele>
        <time>2021-03-26T13:47:14Z</time>
      </trkpt>
      <trkpt lat="45.65047" lon="6.84691">
        <ele>1781.1</ele>
        <time>2021-03-26T13:47:15Z</time>
      </trkpt>
      <trkpt lat="45.65047" lon="6.84691">
        <ele>1781.1</ele>
        <time>2021-03-26T13:47:16Z</time>
      </trkpt>
      <trkpt lat="45.65046" lon="6.84692">
        <ele>1781.1</ele>
        <time>2021-03-26T13:47:17Z</time>
      </trkpt>
      <trkpt lat="45.65046" lon="6.84693">
        <ele>1781.1</ele>
        <time>2021-03-26T13:47:18Z</time>
      </trkpt>
      <trkpt lat="45.65045" lon="6.84693">
        <ele>1782</ele>
        <time>2021-03-26T13:47:19Z</time>
      </trkpt>
      <trkpt lat="45.65045" lon="6.84694">
        <ele>1782</ele>
        <time>2021-03-26T13:47:20Z</time>
      </trkpt>
      <trkpt lat="45.65044" lon="6.84695">
        <ele>1782</ele>
        <time>2021-03-26T13:47:21Z</time>
      </trkpt>
      <trkpt lat="45.65044" lon="6.84695">
        <ele>1781.2</ele>
        <time>2021-03-26T13:47:22Z</time>
      </trkpt>
      <trkpt lat="45.65043" lon="6.84696">
        <ele>1781.2</ele>
        <time>2021-03-26T13:47:23Z</time>
      </trkpt>
      <trkpt lat="45.65043" lon="6.84697">
        <ele>1781.2</ele>
        <time>2021-03-26T13:47:24Z</time>
      </trkpt>
      <trkpt lat="45.65043" lon="6.84698">
        <ele>1782</ele>
        <time>2021-03-26T13:47:25Z</time>
      </trkpt>
      <trkpt lat="45.65043" lon="6.847">
        <ele>1782</ele>
        <time>2021-03-26T13:47:26Z</time>
      </trkpt>
      <trkpt lat="45.65042" lon="6.84701">
        <ele>1782</ele>
        <time>2021-03-26T13:47:27Z</time>
      </trkpt>
      <trkpt lat="45.65042" lon="6.84701">
        <ele>1782</ele>
        <time>2021-03-26T13:47:28Z</time>
      </trkpt>
      <trkpt lat="45.65042" lon="6.84702">
        <ele>1782.8</ele>
        <time>2021-03-26T13:47:29Z</time>
      </trkpt>
      <trkpt lat="45.65042" lon="6.84703">
        <ele>1782.8</ele>
        <time>2021-03-26T13:47:30Z</time>
      </trkpt>
      <trkpt lat="45.65042" lon="6.84704">
        <ele>1782.8</ele>
        <time>2021-03-26T13:47:31Z</time>
      </trkpt>
      <trkpt lat="45.65041" lon="6.84705">
        <ele>1782.8</ele>
        <time>2021-03-26T13:47:32Z</time>
      </trkpt>
      <trkpt lat="45.65041" lon="6.84706">
        <ele>1783.6</ele>
        <time>2021-03-26T13:47:33Z</time>
      </trkpt>
      <trkpt lat="45.65041" lon="6.84707">
        <ele>1782.8</ele>
        <time>2021-03-26T13:47:34Z</time>
      </trkpt>
      <trkpt lat="45.65041" lon="6.84708">
        <ele>1782.8</ele>
        <time>2021-03-26T13:47:35Z</time>
      </trkpt>
      <trkpt lat="45.6504" lon="6.84709">
        <ele>1782.8</ele>
        <time>2021-03-26T13:47:36Z</time>
      </trkpt>
      <trkpt lat="45.6504" lon="6.84709">
        <ele>1782.8</ele>
        <time>2021-03-26T13:47:37Z</time>
      </trkpt>
      <trkpt lat="45.6504" lon="6.8471">
        <ele>1782.8</ele>
        <time>2021-03-26T13:47:38Z</time>
      </trkpt>
      <trkpt lat="45.6504" lon="6.8471">
        <ele>1783.6</ele>
        <time>2021-03-26T13:47:39Z</time>
      </trkpt>
      <trkpt lat="45.65039" lon="6.84711">
        <ele>1783.6</ele>
        <time>2021-03-26T13:47:40Z</time>
      </trkpt>
      <trkpt lat="45.65039" lon="6.84712">
        <ele>1783.6</ele>
        <time>2021-03-26T13:47:41Z</time>
      </trkpt>
      <trkpt lat="45.65039" lon="6.84712">
        <ele>1783.6</ele>
        <time>2021-03-26T13:47:42Z</time>
      </trkpt>
      <trkpt lat="45.65039" lon="6.84713">
        <ele>1783.6</ele>
        <time>2021-03-26T13:47:43Z</time>
      </trkpt>
      <trkpt lat="45.65039" lon="6.84714">
        <ele>1783.6</ele>
        <time>2021-03-26T13:47:44Z</time>
      </trkpt>
      <trkpt lat="45.65039" lon="6.84714">
        <ele>1783.6</ele>
        <time>2021-03-26T13:47:45Z</time>
      </trkpt>
      <trkpt lat="45.65039" lon="6.84715">
        <ele>1784.3</ele>
        <time>2021-03-26T13:47:46Z</time>
      </trkpt>
      <trkpt lat="45.65038" lon="6.84715">
        <ele>1784.3</ele>
        <time>2021-03-26T13:47:47Z</time>
      </trkpt>
      <trkpt lat="45.65038" lon="6.84716">
        <ele>1784.3</ele>
        <time>2021-03-26T13:47:48Z</time>
      </trkpt>
      <trkpt lat="45.65039" lon="6.84717">
        <ele>1784.3</ele>
        <time>2021-03-26T13:47:49Z</time>
      </trkpt>
      <trkpt lat="45.65039" lon="6.84717">
        <ele>1784.3</ele>
        <time>2021-03-26T13:47:50Z</time>
      </trkpt>
      <trkpt lat="45.65039" lon="6.84718">
        <ele>1784.3</ele>
        <time>2021-03-26T13:47:51Z</time>
      </trkpt>
      <trkpt lat="45.65039" lon="6.84719">
        <ele>1784.3</ele>
        <time>2021-03-26T13:47:52Z</time>
      </trkpt>
      <trkpt lat="45.65039" lon="6.84719">
        <ele>1785.1</ele>
        <time>2021-03-26T13:47:53Z</time>
      </trkpt>
      <trkpt lat="45.65038" lon="6.8472">
        <ele>1785.1</ele>
        <time>2021-03-26T13:47:54Z</time>
      </trkpt>
      <trkpt lat="45.65038" lon="6.84721">
        <ele>1785.1</ele>
        <time>2021-03-26T13:47:55Z</time>
      </trkpt>
      <trkpt lat="45.65038" lon="6.84721">
        <ele>1785.1</ele>
        <time>2021-03-26T13:47:56Z</time>
      </trkpt>
      <trkpt lat="45.65038" lon="6.84722">
        <ele>1785.1</ele>
        <time>2021-03-26T13:47:57Z</time>
      </trkpt>
      <trkpt lat="45.65038" lon="6.84723">
        <ele>1785.1</ele>
        <time>2021-03-26T13:47:58Z</time>
      </trkpt>
      <trkpt lat="45.65039" lon="6.84724">
        <ele>1785.9</ele>
        <time>2021-03-26T13:47:59Z</time>
      </trkpt>
      <trkpt lat="45.65039" lon="6.84724">
        <ele>1785.9</ele>
        <time>2021-03-26T13:48:00Z</time>
      </trkpt>
      <trkpt lat="45.65039" lon="6.84725">
        <ele>1785.9</ele>
        <time>2021-03-26T13:48:01Z</time>
      </trkpt>
      <trkpt lat="45.65039" lon="6.84725">
        <ele>1785.9</ele>
        <time>2021-03-26T13:48:02Z</time>
      </trkpt>
      <trkpt lat="45.65039" lon="6.84725">
        <ele>1785.9</ele>
        <time>2021-03-26T13:48:03Z</time>
      </trkpt>
      <trkpt lat="45.65039" lon="6.84725">
        <ele>1785.9</ele>
        <time>2021-03-26T13:48:04Z</time>
      </trkpt>
      <trkpt lat="45.65039" lon="6.84725">
        <ele>1785.9</ele>
        <time>2021-03-26T13:48:05Z</time>
      </trkpt>
      <trkpt lat="45.65039" lon="6.84723">
        <ele>1785.9</ele>
        <time>2021-03-26T13:48:06Z</time>
      </trkpt>
      <trkpt lat="45.65039" lon="6.84723">
        <ele>1785.9</ele>
        <time>2021-03-26T13:48:07Z</time>
      </trkpt>
      <trkpt lat="45.65039" lon="6.84723">
        <ele>1785.9</ele>
        <time>2021-03-26T13:48:08Z</time>
      </trkpt>
      <trkpt lat="45.65039" lon="6.84723">
        <ele>1785.9</ele>
        <time>2021-03-26T13:48:09Z</time>
      </trkpt>
      <trkpt lat="45.65039" lon="6.84723">
        <ele>1785.9</ele>
        <time>2021-03-26T13:48:10Z</time>
      </trkpt>
      <trkpt lat="45.65039" lon="6.84723">
        <ele>1785.9</ele>
        <time>2021-03-26T13:48:11Z</time>
      </trkpt>
      <trkpt lat="45.65048" lon="6.84714">
        <ele>1785.8</ele>
        <time>2021-03-26T13:50:07Z</time>
      </trkpt>
      <trkpt lat="45.65049" lon="6.84714">
        <ele>1785.8</ele>
        <time>2021-03-26T13:50:08Z</time>
      </trkpt>
      <trkpt lat="45.6505" lon="6.84714">
        <ele>1785.8</ele>
        <time>2021-03-26T13:50:09Z</time>
      </trkpt>
      <trkpt lat="45.6505" lon="6.84715">
        <ele>1787.3</ele>
        <time>2021-03-26T13:50:10Z</time>
      </trkpt>
      <trkpt lat="45.65051" lon="6.84715">
        <ele>1787.3</ele>
        <time>2021-03-26T13:50:11Z</time>
      </trkpt>
      <trkpt lat="45.65052" lon="6.84716">
        <ele>1787.3</ele>
        <time>2021-03-26T13:50:12Z</time>
      </trkpt>
      <trkpt lat="45.65053" lon="6.84716">
        <ele>1787.3</ele>
        <time>2021-03-26T13:50:13Z</time>
      </trkpt>
      <trkpt lat="45.65053" lon="6.84716">
        <ele>1788.1</ele>
        <time>2021-03-26T13:50:14Z</time>
      </trkpt>
      <trkpt lat="45.65054" lon="6.84717">
        <ele>1788.1</ele>
        <time>2021-03-26T13:50:15Z</time>
      </trkpt>
      <trkpt lat="45.65055" lon="6.84717">
        <ele>1788.1</ele>
        <time>2021-03-26T13:50:16Z</time>
      </trkpt>
      <trkpt lat="45.65055" lon="6.84718">
        <ele>1788.1</ele>
        <time>2021-03-26T13:50:17Z</time>
      </trkpt>
      <trkpt lat="45.65056" lon="6.84718">
        <ele>1788.9</ele>
        <time>2021-03-26T13:50:18Z</time>
      </trkpt>
      <trkpt lat="45.65058" lon="6.84719">
        <ele>1789.7</ele>
        <time>2021-03-26T13:50:19Z</time>
      </trkpt>
      <trkpt lat="45.65059" lon="6.84719">
        <ele>1789.7</ele>
        <time>2021-03-26T13:50:20Z</time>
      </trkpt>
      <trkpt lat="45.65059" lon="6.84719">
        <ele>1790.4</ele>
        <time>2021-03-26T13:50:21Z</time>
      </trkpt>
      <trkpt lat="45.6506" lon="6.84719">
        <ele>1790.4</ele>
        <time>2021-03-26T13:50:22Z</time>
      </trkpt>
      <trkpt lat="45.65061" lon="6.84719">
        <ele>1790.4</ele>
        <time>2021-03-26T13:50:23Z</time>
      </trkpt>
      <trkpt lat="45.65062" lon="6.84719">
        <ele>1790.4</ele>
        <time>2021-03-26T13:50:24Z</time>
      </trkpt>
      <trkpt lat="45.65063" lon="6.84719">
        <ele>1791.1</ele>
        <time>2021-03-26T13:50:25Z</time>
      </trkpt>
      <trkpt lat="45.65063" lon="6.8472">
        <ele>1791.1</ele>
        <time>2021-03-26T13:50:26Z</time>
      </trkpt>
      <trkpt lat="45.65064" lon="6.84721">
        <ele>1791.1</ele>
        <time>2021-03-26T13:50:27Z</time>
      </trkpt>
      <trkpt lat="45.65064" lon="6.84722">
        <ele>1791.1</ele>
        <time>2021-03-26T13:50:28Z</time>
      </trkpt>
      <trkpt lat="45.65064" lon="6.84723">
        <ele>1791.9</ele>
        <time>2021-03-26T13:50:29Z</time>
      </trkpt>
      <trkpt lat="45.65064" lon="6.84723">
        <ele>1791.9</ele>
        <time>2021-03-26T13:50:30Z</time>
      </trkpt>
      <trkpt lat="45.65064" lon="6.84723">
        <ele>1791.9</ele>
        <time>2021-03-26T13:50:31Z</time>
      </trkpt>
      <trkpt lat="45.65064" lon="6.84723">
        <ele>1791.9</ele>
        <time>2021-03-26T13:50:32Z</time>
      </trkpt>
      <trkpt lat="45.65064" lon="6.84723">
        <ele>1791.9</ele>
        <time>2021-03-26T13:50:33Z</time>
      </trkpt>
      <trkpt lat="45.65064" lon="6.84723">
        <ele>1791.9</ele>
        <time>2021-03-26T13:50:34Z</time>
      </trkpt>
      <trkpt lat="45.65064" lon="6.84723">
        <ele>1791.9</ele>
        <time>2021-03-26T13:50:35Z</time>
      </trkpt>
      <trkpt lat="45.65062" lon="6.84726">
        <ele>1791.9</ele>
        <time>2021-03-26T13:50:36Z</time>
      </trkpt>
      <trkpt lat="45.65062" lon="6.84726">
        <ele>1791.9</ele>
        <time>2021-03-26T13:50:37Z</time>
      </trkpt>
      <trkpt lat="45.65054" lon="6.84729">
        <ele>1790.5</ele>
        <time>2021-03-26T13:51:31Z</time>
      </trkpt>
      <trkpt lat="45.65054" lon="6.84729">
        <ele>1790.5</ele>
        <time>2021-03-26T13:51:32Z</time>
      </trkpt>
      <trkpt lat="45.65054" lon="6.8473">
        <ele>1790.5</ele>
        <time>2021-03-26T13:51:33Z</time>
      </trkpt>
      <trkpt lat="45.65054" lon="6.84732">
        <ele>1791.3</ele>
        <time>2021-03-26T13:51:34Z</time>
      </trkpt>
      <trkpt lat="45.65054" lon="6.84733">
        <ele>1791.3</ele>
        <time>2021-03-26T13:51:35Z</time>
      </trkpt>
      <trkpt lat="45.65053" lon="6.84734">
        <ele>1791.3</ele>
        <time>2021-03-26T13:51:36Z</time>
      </trkpt>
      <trkpt lat="45.65053" lon="6.84736">
        <ele>1792</ele>
        <time>2021-03-26T13:51:37Z</time>
      </trkpt>
      <trkpt lat="45.65053" lon="6.84738">
        <ele>1792</ele>
        <time>2021-03-26T13:51:38Z</time>
      </trkpt>
      <trkpt lat="45.65053" lon="6.84739">
        <ele>1792</ele>
        <time>2021-03-26T13:51:39Z</time>
      </trkpt>
      <trkpt lat="45.65054" lon="6.84741">
        <ele>1792.7</ele>
        <time>2021-03-26T13:51:40Z</time>
      </trkpt>
      <trkpt lat="45.65054" lon="6.84742">
        <ele>1792.7</ele>
        <time>2021-03-26T13:51:41Z</time>
      </trkpt>
      <trkpt lat="45.65054" lon="6.84743">
        <ele>1792.7</ele>
        <time>2021-03-26T13:51:42Z</time>
      </trkpt>
      <trkpt lat="45.65054" lon="6.84745">
        <ele>1793.4</ele>
        <time>2021-03-26T13:51:43Z</time>
      </trkpt>
      <trkpt lat="45.65054" lon="6.84746">
        <ele>1793.4</ele>
        <time>2021-03-26T13:51:44Z</time>
      </trkpt>
      <trkpt lat="45.65054" lon="6.84747">
        <ele>1793.4</ele>
        <time>2021-03-26T13:51:45Z</time>
      </trkpt>
      <trkpt lat="45.65055" lon="6.84748">
        <ele>1793.4</ele>
        <time>2021-03-26T13:51:46Z</time>
      </trkpt>
      <trkpt lat="45.65055" lon="6.84749">
        <ele>1793.4</ele>
        <time>2021-03-26T13:51:47Z</time>
      </trkpt>
      <trkpt lat="45.65055" lon="6.84749">
        <ele>1793.4</ele>
        <time>2021-03-26T13:51:48Z</time>
      </trkpt>
      <trkpt lat="45.65055" lon="6.84749">
        <ele>1793.4</ele>
        <time>2021-03-26T13:51:49Z</time>
      </trkpt>
      <trkpt lat="45.65055" lon="6.84749">
        <ele>1793.4</ele>
        <time>2021-03-26T13:51:50Z</time>
      </trkpt>
      <trkpt lat="45.65055" lon="6.84749">
        <ele>1794</ele>
        <time>2021-03-26T13:51:51Z</time>
      </trkpt>
      <trkpt lat="45.65056" lon="6.84749">
        <ele>1794</ele>
        <time>2021-03-26T13:51:52Z</time>
      </trkpt>
      <trkpt lat="45.65056" lon="6.8475">
        <ele>1794.9</ele>
        <time>2021-03-26T13:51:53Z</time>
      </trkpt>
      <trkpt lat="45.65057" lon="6.8475">
        <ele>1794.9</ele>
        <time>2021-03-26T13:51:54Z</time>
      </trkpt>
      <trkpt lat="45.65057" lon="6.84751">
        <ele>1794.9</ele>
        <time>2021-03-26T13:51:55Z</time>
      </trkpt>
      <trkpt lat="45.65058" lon="6.84751">
        <ele>1794.9</ele>
        <time>2021-03-26T13:51:56Z</time>
      </trkpt>
      <trkpt lat="45.65058" lon="6.84751">
        <ele>1794.9</ele>
        <time>2021-03-26T13:51:57Z</time>
      </trkpt>
      <trkpt lat="45.65059" lon="6.84752">
        <ele>1794.9</ele>
        <time>2021-03-26T13:51:58Z</time>
      </trkpt>
      <trkpt lat="45.65059" lon="6.84752">
        <ele>1794.9</ele>
        <time>2021-03-26T13:51:59Z</time>
      </trkpt>
      <trkpt lat="45.65059" lon="6.84752">
        <ele>1794.9</ele>
        <time>2021-03-26T13:52:00Z</time>
      </trkpt>
      <trkpt lat="45.65059" lon="6.84754">
        <ele>1795.6</ele>
        <time>2021-03-26T13:52:01Z</time>
      </trkpt>
      <trkpt lat="45.65059" lon="6.84755">
        <ele>1796.4</ele>
        <time>2021-03-26T13:52:02Z</time>
      </trkpt>
      <trkpt lat="45.65059" lon="6.84757">
        <ele>1796.4</ele>
        <time>2021-03-26T13:52:03Z</time>
      </trkpt>
      <trkpt lat="45.65059" lon="6.84758">
        <ele>1797</ele>
        <time>2021-03-26T13:52:04Z</time>
      </trkpt>
      <trkpt lat="45.65059" lon="6.84759">
        <ele>1797</ele>
        <time>2021-03-26T13:52:05Z</time>
      </trkpt>
      <trkpt lat="45.6506" lon="6.84761">
        <ele>1797</ele>
        <time>2021-03-26T13:52:06Z</time>
      </trkpt>
      <trkpt lat="45.6506" lon="6.84762">
        <ele>1797.7</ele>
        <time>2021-03-26T13:52:07Z</time>
      </trkpt>
      <trkpt lat="45.6506" lon="6.84764">
        <ele>1797.7</ele>
        <time>2021-03-26T13:52:08Z</time>
      </trkpt>
      <trkpt lat="45.6506" lon="6.84765">
        <ele>1797.7</ele>
        <time>2021-03-26T13:52:09Z</time>
      </trkpt>
      <trkpt lat="45.6506" lon="6.84766">
        <ele>1798.3</ele>
        <time>2021-03-26T13:52:10Z</time>
      </trkpt>
      <trkpt lat="45.6506" lon="6.84767">
        <ele>1798.3</ele>
        <time>2021-03-26T13:52:11Z</time>
      </trkpt>
      <trkpt lat="45.6506" lon="6.84769">
        <ele>1798.3</ele>
        <time>2021-03-26T13:52:12Z</time>
      </trkpt>
      <trkpt lat="45.6506" lon="6.8477">
        <ele>1798.3</ele>
        <time>2021-03-26T13:52:13Z</time>
      </trkpt>
      <trkpt lat="45.6506" lon="6.8477">
        <ele>1798.9</ele>
        <time>2021-03-26T13:52:14Z</time>
      </trkpt>
      <trkpt lat="45.6506" lon="6.84771">
        <ele>1798.9</ele>
        <time>2021-03-26T13:52:15Z</time>
      </trkpt>
      <trkpt lat="45.6506" lon="6.84772">
        <ele>1798.9</ele>
        <time>2021-03-26T13:52:16Z</time>
      </trkpt>
      <trkpt lat="45.6506" lon="6.84773">
        <ele>1798.9</ele>
        <time>2021-03-26T13:52:17Z</time>
      </trkpt>
      <trkpt lat="45.6506" lon="6.84774">
        <ele>1798.9</ele>
        <time>2021-03-26T13:52:18Z</time>
      </trkpt>
      <trkpt lat="45.6506" lon="6.84775">
        <ele>1799.5</ele>
        <time>2021-03-26T13:52:19Z</time>
      </trkpt>
      <trkpt lat="45.6506" lon="6.84777">
        <ele>1799.5</ele>
        <time>2021-03-26T13:52:20Z</time>
      </trkpt>
      <trkpt lat="45.6506" lon="6.84778">
        <ele>1799.5</ele>
        <time>2021-03-26T13:52:21Z</time>
      </trkpt>
      <trkpt lat="45.65061" lon="6.84779">
        <ele>1800</ele>
        <time>2021-03-26T13:52:22Z</time>
      </trkpt>
      <trkpt lat="45.65061" lon="6.8478">
        <ele>1800</ele>
        <time>2021-03-26T13:52:23Z</time>
      </trkpt>
      <trkpt lat="45.65061" lon="6.8478">
        <ele>1800</ele>
        <time>2021-03-26T13:52:24Z</time>
      </trkpt>
      <trkpt lat="45.65061" lon="6.84781">
        <ele>1800</ele>
        <time>2021-03-26T13:52:25Z</time>
      </trkpt>
      <trkpt lat="45.65062" lon="6.84782">
        <ele>1800</ele>
        <time>2021-03-26T13:52:26Z</time>
      </trkpt>
      <trkpt lat="45.65062" lon="6.84782">
        <ele>1800</ele>
        <time>2021-03-26T13:52:27Z</time>
      </trkpt>
      <trkpt lat="45.65062" lon="6.84783">
        <ele>1801.3</ele>
        <time>2021-03-26T13:52:28Z</time>
      </trkpt>
      <trkpt lat="45.65062" lon="6.84784">
        <ele>1801.3</ele>
        <time>2021-03-26T13:52:29Z</time>
      </trkpt>
      <trkpt lat="45.65062" lon="6.84785">
        <ele>1801.3</ele>
        <time>2021-03-26T13:52:30Z</time>
      </trkpt>
      <trkpt lat="45.65063" lon="6.84786">
        <ele>1801.3</ele>
        <time>2021-03-26T13:52:31Z</time>
      </trkpt>
      <trkpt lat="45.65063" lon="6.84787">
        <ele>1801.8</ele>
        <time>2021-03-26T13:52:32Z</time>
      </trkpt>
      <trkpt lat="45.65064" lon="6.84788">
        <ele>1801.8</ele>
        <time>2021-03-26T13:52:33Z</time>
      </trkpt>
      <trkpt lat="45.65064" lon="6.8479">
        <ele>1801.8</ele>
        <time>2021-03-26T13:52:34Z</time>
      </trkpt>
      <trkpt lat="45.65064" lon="6.84791">
        <ele>1801.8</ele>
        <time>2021-03-26T13:52:35Z</time>
      </trkpt>
      <trkpt lat="45.65064" lon="6.84792">
        <ele>1802.3</ele>
        <time>2021-03-26T13:52:36Z</time>
      </trkpt>
      <trkpt lat="45.65065" lon="6.84793">
        <ele>1802.3</ele>
        <time>2021-03-26T13:52:37Z</time>
      </trkpt>
      <trkpt lat="45.65065" lon="6.84794">
        <ele>1802.3</ele>
        <time>2021-03-26T13:52:38Z</time>
      </trkpt>
      <trkpt lat="45.65065" lon="6.84796">
        <ele>1803</ele>
        <time>2021-03-26T13:52:39Z</time>
      </trkpt>
      <trkpt lat="45.65065" lon="6.84797">
        <ele>1803.6</ele>
        <time>2021-03-26T13:52:40Z</time>
      </trkpt>
      <trkpt lat="45.65066" lon="6.84798">
        <ele>1803.6</ele>
        <time>2021-03-26T13:52:41Z</time>
      </trkpt>
      <trkpt lat="45.65066" lon="6.84799">
        <ele>1803.6</ele>
        <time>2021-03-26T13:52:42Z</time>
      </trkpt>
      <trkpt lat="45.65066" lon="6.848">
        <ele>1803.6</ele>
        <time>2021-03-26T13:52:43Z</time>
      </trkpt>
      <trkpt lat="45.65066" lon="6.84801">
        <ele>1804.1</ele>
        <time>2021-03-26T13:52:44Z</time>
      </trkpt>
      <trkpt lat="45.65066" lon="6.84802">
        <ele>1804.1</ele>
        <time>2021-03-26T13:52:45Z</time>
      </trkpt>
      <trkpt lat="45.65067" lon="6.84803">
        <ele>1804.1</ele>
        <time>2021-03-26T13:52:46Z</time>
      </trkpt>
      <trkpt lat="45.65067" lon="6.84804">
        <ele>1804.1</ele>
        <time>2021-03-26T13:52:47Z</time>
      </trkpt>
      <trkpt lat="45.65067" lon="6.84805">
        <ele>1804.8</ele>
        <time>2021-03-26T13:52:48Z</time>
      </trkpt>
      <trkpt lat="45.65067" lon="6.84806">
        <ele>1804.8</ele>
        <time>2021-03-26T13:52:49Z</time>
      </trkpt>
      <trkpt lat="45.65067" lon="6.84807">
        <ele>1804.8</ele>
        <time>2021-03-26T13:52:50Z</time>
      </trkpt>
      <trkpt lat="45.65068" lon="6.84808">
        <ele>1804.8</ele>
        <time>2021-03-26T13:52:51Z</time>
      </trkpt>
      <trkpt lat="45.65068" lon="6.84809">
        <ele>1805.4</ele>
        <time>2021-03-26T13:52:52Z</time>
      </trkpt>
      <trkpt lat="45.65068" lon="6.84811">
        <ele>1805.4</ele>
        <time>2021-03-26T13:52:53Z</time>
      </trkpt>
      <trkpt lat="45.65068" lon="6.84812">
        <ele>1806.2</ele>
        <time>2021-03-26T13:52:54Z</time>
      </trkpt>
      <trkpt lat="45.65068" lon="6.84812">
        <ele>1806.2</ele>
        <time>2021-03-26T13:52:55Z</time>
      </trkpt>
      <trkpt lat="45.65069" lon="6.84814">
        <ele>1806.9</ele>
        <time>2021-03-26T13:52:56Z</time>
      </trkpt>
      <trkpt lat="45.65069" lon="6.84815">
        <ele>1806.9</ele>
        <time>2021-03-26T13:52:57Z</time>
      </trkpt>
      <trkpt lat="45.65069" lon="6.84816">
        <ele>1806.9</ele>
        <time>2021-03-26T13:52:58Z</time>
      </trkpt>
      <trkpt lat="45.6507" lon="6.84817">
        <ele>1806.9</ele>
        <time>2021-03-26T13:52:59Z</time>
      </trkpt>
      <trkpt lat="45.6507" lon="6.84818">
        <ele>1807.6</ele>
        <time>2021-03-26T13:53:00Z</time>
      </trkpt>
      <trkpt lat="45.6507" lon="6.84818">
        <ele>1807.6</ele>
        <time>2021-03-26T13:53:01Z</time>
      </trkpt>
      <trkpt lat="45.6507" lon="6.84818">
        <ele>1807.6</ele>
        <time>2021-03-26T13:53:02Z</time>
      </trkpt>
      <trkpt lat="45.6507" lon="6.84819">
        <ele>1807.6</ele>
        <time>2021-03-26T13:53:03Z</time>
      </trkpt>
      <trkpt lat="45.6507" lon="6.8482">
        <ele>1807.6</ele>
        <time>2021-03-26T13:53:04Z</time>
      </trkpt>
      <trkpt lat="45.6507" lon="6.8482">
        <ele>1807.6</ele>
        <time>2021-03-26T13:53:05Z</time>
      </trkpt>
      <trkpt lat="45.65071" lon="6.8482">
        <ele>1807.6</ele>
        <time>2021-03-26T13:53:06Z</time>
      </trkpt>
      <trkpt lat="45.65071" lon="6.84821">
        <ele>1808.5</ele>
        <time>2021-03-26T13:53:07Z</time>
      </trkpt>
      <trkpt lat="45.65072" lon="6.84821">
        <ele>1808.5</ele>
        <time>2021-03-26T13:53:08Z</time>
      </trkpt>
      <trkpt lat="45.65072" lon="6.84822">
        <ele>1809.1</ele>
        <time>2021-03-26T13:53:09Z</time>
      </trkpt>
      <trkpt lat="45.65073" lon="6.84823">
        <ele>1809.1</ele>
        <time>2021-03-26T13:53:10Z</time>
      </trkpt>
      <trkpt lat="45.65073" lon="6.84824">
        <ele>1809.1</ele>
        <time>2021-03-26T13:53:11Z</time>
      </trkpt>
      <trkpt lat="45.65073" lon="6.84825">
        <ele>1809.1</ele>
        <time>2021-03-26T13:53:12Z</time>
      </trkpt>
      <trkpt lat="45.65074" lon="6.84826">
        <ele>1809.7</ele>
        <time>2021-03-26T13:53:13Z</time>
      </trkpt>
      <trkpt lat="45.65074" lon="6.84829">
        <ele>1810.7</ele>
        <time>2021-03-26T13:53:14Z</time>
      </trkpt>
      <trkpt lat="45.65074" lon="6.8483">
        <ele>1811.3</ele>
        <time>2021-03-26T13:53:15Z</time>
      </trkpt>
      <trkpt lat="45.65075" lon="6.84832">
        <ele>1811.3</ele>
        <time>2021-03-26T13:53:16Z</time>
      </trkpt>
      <trkpt lat="45.65075" lon="6.84833">
        <ele>1811.3</ele>
        <time>2021-03-26T13:53:17Z</time>
      </trkpt>
      <trkpt lat="45.65075" lon="6.84834">
        <ele>1811.3</ele>
        <time>2021-03-26T13:53:18Z</time>
      </trkpt>
      <trkpt lat="45.65075" lon="6.84836">
        <ele>1811.9</ele>
        <time>2021-03-26T13:53:19Z</time>
      </trkpt>
      <trkpt lat="45.65076" lon="6.84837">
        <ele>1811.9</ele>
        <time>2021-03-26T13:53:20Z</time>
      </trkpt>
      <trkpt lat="45.65076" lon="6.84838">
        <ele>1811.9</ele>
        <time>2021-03-26T13:53:21Z</time>
      </trkpt>
      <trkpt lat="45.65076" lon="6.84839">
        <ele>1812.5</ele>
        <time>2021-03-26T13:53:22Z</time>
      </trkpt>
      <trkpt lat="45.65077" lon="6.84841">
        <ele>1812.5</ele>
        <time>2021-03-26T13:53:23Z</time>
      </trkpt>
      <trkpt lat="45.65077" lon="6.84842">
        <ele>1813.5</ele>
        <time>2021-03-26T13:53:24Z</time>
      </trkpt>
      <trkpt lat="45.65077" lon="6.84843">
        <ele>1813.5</ele>
        <time>2021-03-26T13:53:25Z</time>
      </trkpt>
      <trkpt lat="45.65078" lon="6.84844">
        <ele>1814.1</ele>
        <time>2021-03-26T13:53:26Z</time>
      </trkpt>
      <trkpt lat="45.65078" lon="6.84845">
        <ele>1814.1</ele>
        <time>2021-03-26T13:53:27Z</time>
      </trkpt>
      <trkpt lat="45.65079" lon="6.84846">
        <ele>1814.1</ele>
        <time>2021-03-26T13:53:28Z</time>
      </trkpt>
      <trkpt lat="45.65079" lon="6.84847">
        <ele>1814.1</ele>
        <time>2021-03-26T13:53:29Z</time>
      </trkpt>
      <trkpt lat="45.6508" lon="6.84848">
        <ele>1814.7</ele>
        <time>2021-03-26T13:53:30Z</time>
      </trkpt>
      <trkpt lat="45.6508" lon="6.84849">
        <ele>1815.7</ele>
        <time>2021-03-26T13:53:31Z</time>
      </trkpt>
      <trkpt lat="45.65081" lon="6.8485">
        <ele>1815.7</ele>
        <time>2021-03-26T13:53:32Z</time>
      </trkpt>
      <trkpt lat="45.65081" lon="6.8485">
        <ele>1815.7</ele>
        <time>2021-03-26T13:53:33Z</time>
      </trkpt>
      <trkpt lat="45.65082" lon="6.84851">
        <ele>1815.7</ele>
        <time>2021-03-26T13:53:34Z</time>
      </trkpt>
      <trkpt lat="45.65082" lon="6.84853">
        <ele>1816.3</ele>
        <time>2021-03-26T13:53:35Z</time>
      </trkpt>
      <trkpt lat="45.65083" lon="6.84854">
        <ele>1816.3</ele>
        <time>2021-03-26T13:53:36Z</time>
      </trkpt>
      <trkpt lat="45.65083" lon="6.84856">
        <ele>1817.3</ele>
        <time>2021-03-26T13:53:37Z</time>
      </trkpt>
      <trkpt lat="45.65084" lon="6.84857">
        <ele>1817.9</ele>
        <time>2021-03-26T13:53:38Z</time>
      </trkpt>
      <trkpt lat="45.65084" lon="6.84858">
        <ele>1817.9</ele>
        <time>2021-03-26T13:53:39Z</time>
      </trkpt>
      <trkpt lat="45.65085" lon="6.84859">
        <ele>1817.9</ele>
        <time>2021-03-26T13:53:40Z</time>
      </trkpt>
      <trkpt lat="45.65085" lon="6.8486">
        <ele>1817.9</ele>
        <time>2021-03-26T13:53:41Z</time>
      </trkpt>
      <trkpt lat="45.65086" lon="6.84861">
        <ele>1818.5</ele>
        <time>2021-03-26T13:53:42Z</time>
      </trkpt>
      <trkpt lat="45.65086" lon="6.84861">
        <ele>1819.4</ele>
        <time>2021-03-26T13:53:43Z</time>
      </trkpt>
      <trkpt lat="45.65086" lon="6.84863">
        <ele>1819.4</ele>
        <time>2021-03-26T13:53:44Z</time>
      </trkpt>
      <trkpt lat="45.65087" lon="6.84864">
        <ele>1819.4</ele>
        <time>2021-03-26T13:53:45Z</time>
      </trkpt>
      <trkpt lat="45.65087" lon="6.84866">
        <ele>1819.9</ele>
        <time>2021-03-26T13:53:46Z</time>
      </trkpt>
      <trkpt lat="45.65087" lon="6.84868">
        <ele>1819.9</ele>
        <time>2021-03-26T13:53:47Z</time>
      </trkpt>
      <trkpt lat="45.65088" lon="6.84869">
        <ele>1820.4</ele>
        <time>2021-03-26T13:53:48Z</time>
      </trkpt>
      <trkpt lat="45.65088" lon="6.84871">
        <ele>1820.4</ele>
        <time>2021-03-26T13:53:49Z</time>
      </trkpt>
      <trkpt lat="45.65088" lon="6.84872">
        <ele>1820.4</ele>
        <time>2021-03-26T13:53:50Z</time>
      </trkpt>
      <trkpt lat="45.65089" lon="6.84873">
        <ele>1820.4</ele>
        <time>2021-03-26T13:53:51Z</time>
      </trkpt>
      <trkpt lat="45.65089" lon="6.84874">
        <ele>1820.9</ele>
        <time>2021-03-26T13:53:52Z</time>
      </trkpt>
      <trkpt lat="45.65089" lon="6.84875">
        <ele>1821.6</ele>
        <time>2021-03-26T13:53:53Z</time>
      </trkpt>
      <trkpt lat="45.65089" lon="6.84876">
        <ele>1821.6</ele>
        <time>2021-03-26T13:53:54Z</time>
      </trkpt>
      <trkpt lat="45.65089" lon="6.84877">
        <ele>1820.9</ele>
        <time>2021-03-26T13:53:55Z</time>
      </trkpt>
      <trkpt lat="45.65088" lon="6.84877">
        <ele>1820.9</ele>
        <time>2021-03-26T13:53:56Z</time>
      </trkpt>
      <trkpt lat="45.65088" lon="6.84878">
        <ele>1821.3</ele>
        <time>2021-03-26T13:53:57Z</time>
      </trkpt>
      <trkpt lat="45.65088" lon="6.84878">
        <ele>1821.3</ele>
        <time>2021-03-26T13:53:58Z</time>
      </trkpt>
      <trkpt lat="45.65088" lon="6.84878">
        <ele>1821.3</ele>
        <time>2021-03-26T13:53:59Z</time>
      </trkpt>
      <trkpt lat="45.65088" lon="6.84878">
        <ele>1821.3</ele>
        <time>2021-03-26T13:54:00Z</time>
      </trkpt>
      <trkpt lat="45.65088" lon="6.84878">
        <ele>1821.3</ele>
        <time>2021-03-26T13:54:01Z</time>
      </trkpt>
      <trkpt lat="45.65088" lon="6.84878">
        <ele>1821.3</ele>
        <time>2021-03-26T13:54:02Z</time>
      </trkpt>
      <trkpt lat="45.65088" lon="6.84878">
        <ele>1821.3</ele>
        <time>2021-03-26T13:54:03Z</time>
      </trkpt>
      <trkpt lat="45.65088" lon="6.84878">
        <ele>1821.3</ele>
        <time>2021-03-26T13:54:04Z</time>
      </trkpt>
      <trkpt lat="45.65088" lon="6.84878">
        <ele>1821.3</ele>
        <time>2021-03-26T13:54:05Z</time>
      </trkpt>
      <trkpt lat="45.65085" lon="6.84883">
        <ele>1821.1</ele>
        <time>2021-03-26T13:54:24Z</time>
      </trkpt>
      <trkpt lat="45.65084" lon="6.84886">
        <ele>1821.1</ele>
        <time>2021-03-26T13:54:25Z</time>
      </trkpt>
      <trkpt lat="45.65084" lon="6.84887">
        <ele>1821.6</ele>
        <time>2021-03-26T13:54:26Z</time>
      </trkpt>
      <trkpt lat="45.65084" lon="6.8489">
        <ele>1821.6</ele>
        <time>2021-03-26T13:54:27Z</time>
      </trkpt>
      <trkpt lat="45.65084" lon="6.84892">
        <ele>1822.1</ele>
        <time>2021-03-26T13:54:28Z</time>
      </trkpt>
      <trkpt lat="45.65083" lon="6.84894">
        <ele>1822.1</ele>
        <time>2021-03-26T13:54:29Z</time>
      </trkpt>
      <trkpt lat="45.65083" lon="6.84897">
        <ele>1822</ele>
        <time>2021-03-26T13:54:30Z</time>
      </trkpt>
      <trkpt lat="45.65083" lon="6.84898">
        <ele>1822</ele>
        <time>2021-03-26T13:54:31Z</time>
      </trkpt>
      <trkpt lat="45.65083" lon="6.84899">
        <ele>1822.5</ele>
        <time>2021-03-26T13:54:32Z</time>
      </trkpt>
      <trkpt lat="45.65083" lon="6.84902">
        <ele>1822.5</ele>
        <time>2021-03-26T13:54:33Z</time>
      </trkpt>
      <trkpt lat="45.65083" lon="6.84904">
        <ele>1823</ele>
        <time>2021-03-26T13:54:34Z</time>
      </trkpt>
      <trkpt lat="45.65083" lon="6.84905">
        <ele>1823.5</ele>
        <time>2021-03-26T13:54:35Z</time>
      </trkpt>
      <trkpt lat="45.65084" lon="6.84906">
        <ele>1823.5</ele>
        <time>2021-03-26T13:54:36Z</time>
      </trkpt>
      <trkpt lat="45.65084" lon="6.84907">
        <ele>1823.5</ele>
        <time>2021-03-26T13:54:37Z</time>
      </trkpt>
      <trkpt lat="45.65085" lon="6.84908">
        <ele>1823.9</ele>
        <time>2021-03-26T13:54:38Z</time>
      </trkpt>
      <trkpt lat="45.65085" lon="6.84909">
        <ele>1823.9</ele>
        <time>2021-03-26T13:54:39Z</time>
      </trkpt>
      <trkpt lat="45.65086" lon="6.84909">
        <ele>1824.4</ele>
        <time>2021-03-26T13:54:40Z</time>
      </trkpt>
      <trkpt lat="45.65087" lon="6.84909">
        <ele>1824.4</ele>
        <time>2021-03-26T13:54:41Z</time>
      </trkpt>
      <trkpt lat="45.65088" lon="6.84909">
        <ele>1824.4</ele>
        <time>2021-03-26T13:54:42Z</time>
      </trkpt>
      <trkpt lat="45.65088" lon="6.84909">
        <ele>1824.4</ele>
        <time>2021-03-26T13:54:43Z</time>
      </trkpt>
      <trkpt lat="45.65089" lon="6.84909">
        <ele>1824.4</ele>
        <time>2021-03-26T13:54:44Z</time>
      </trkpt>
      <trkpt lat="45.65089" lon="6.84909">
        <ele>1824.8</ele>
        <time>2021-03-26T13:54:45Z</time>
      </trkpt>
      <trkpt lat="45.65089" lon="6.84909">
        <ele>1824.8</ele>
        <time>2021-03-26T13:54:46Z</time>
      </trkpt>
      <trkpt lat="45.65089" lon="6.84909">
        <ele>1824.8</ele>
        <time>2021-03-26T13:54:47Z</time>
      </trkpt>
      <trkpt lat="45.65089" lon="6.84909">
        <ele>1824.8</ele>
        <time>2021-03-26T13:54:48Z</time>
      </trkpt>
      <trkpt lat="45.65089" lon="6.84909">
        <ele>1824.8</ele>
        <time>2021-03-26T13:54:49Z</time>
      </trkpt>
      <trkpt lat="45.65089" lon="6.84909">
        <ele>1824.8</ele>
        <time>2021-03-26T13:54:50Z</time>
      </trkpt>
      <trkpt lat="45.65089" lon="6.84909">
        <ele>1824.8</ele>
        <time>2021-03-26T13:54:51Z</time>
      </trkpt>
      <trkpt lat="45.65089" lon="6.84909">
        <ele>1824.8</ele>
        <time>2021-03-26T13:54:52Z</time>
      </trkpt>
      <trkpt lat="45.65089" lon="6.84909">
        <ele>1824.8</ele>
        <time>2021-03-26T13:54:53Z</time>
      </trkpt>
      <trkpt lat="45.65089" lon="6.84909">
        <ele>1824.8</ele>
        <time>2021-03-26T13:54:54Z</time>
      </trkpt>
      <trkpt lat="45.65089" lon="6.84909">
        <ele>1824.8</ele>
        <time>2021-03-26T13:54:55Z</time>
      </trkpt>
      <trkpt lat="45.65093" lon="6.84919">
        <ele>1826</ele>
        <time>2021-03-26T13:55:41Z</time>
      </trkpt>
      <trkpt lat="45.65093" lon="6.84919">
        <ele>1826</ele>
        <time>2021-03-26T13:55:42Z</time>
      </trkpt>
      <trkpt lat="45.65093" lon="6.84919">
        <ele>1826</ele>
        <time>2021-03-26T13:55:43Z</time>
      </trkpt>
      <trkpt lat="45.65093" lon="6.84919">
        <ele>1826</ele>
        <time>2021-03-26T13:55:44Z</time>
      </trkpt>
      <trkpt lat="45.65093" lon="6.84919">
        <ele>1826</ele>
        <time>2021-03-26T13:55:45Z</time>
      </trkpt>
      <trkpt lat="45.65093" lon="6.84919">
        <ele>1826</ele>
        <time>2021-03-26T13:55:46Z</time>
      </trkpt>
      <trkpt lat="45.65093" lon="6.84921">
        <ele>1826.3</ele>
        <time>2021-03-26T13:55:47Z</time>
      </trkpt>
      <trkpt lat="45.65094" lon="6.84921">
        <ele>1826.3</ele>
        <time>2021-03-26T13:55:48Z</time>
      </trkpt>
      <trkpt lat="45.65094" lon="6.84922">
        <ele>1826.3</ele>
        <time>2021-03-26T13:55:49Z</time>
      </trkpt>
      <trkpt lat="45.65094" lon="6.84923">
        <ele>1826.3</ele>
        <time>2021-03-26T13:55:50Z</time>
      </trkpt>
      <trkpt lat="45.65095" lon="6.84923">
        <ele>1826.3</ele>
        <time>2021-03-26T13:55:51Z</time>
      </trkpt>
      <trkpt lat="45.65095" lon="6.84924">
        <ele>1826.3</ele>
        <time>2021-03-26T13:55:52Z</time>
      </trkpt>
      <trkpt lat="45.65096" lon="6.84925">
        <ele>1826.9</ele>
        <time>2021-03-26T13:55:53Z</time>
      </trkpt>
      <trkpt lat="45.65097" lon="6.84926">
        <ele>1826.9</ele>
        <time>2021-03-26T13:55:54Z</time>
      </trkpt>
      <trkpt lat="45.65098" lon="6.84927">
        <ele>1826.9</ele>
        <time>2021-03-26T13:55:55Z</time>
      </trkpt>
      <trkpt lat="45.65098" lon="6.84928">
        <ele>1827.3</ele>
        <time>2021-03-26T13:55:56Z</time>
      </trkpt>
      <trkpt lat="45.65099" lon="6.84928">
        <ele>1827.3</ele>
        <time>2021-03-26T13:55:57Z</time>
      </trkpt>
      <trkpt lat="45.65099" lon="6.84929">
        <ele>1827.3</ele>
        <time>2021-03-26T13:55:58Z</time>
      </trkpt>
      <trkpt lat="45.65099" lon="6.84929">
        <ele>1827.5</ele>
        <time>2021-03-26T13:55:59Z</time>
      </trkpt>
      <trkpt lat="45.65098" lon="6.8493">
        <ele>1827.5</ele>
        <time>2021-03-26T13:56:00Z</time>
      </trkpt>
      <trkpt lat="45.65097" lon="6.8493">
        <ele>1827.2</ele>
        <time>2021-03-26T13:56:01Z</time>
      </trkpt>
      <trkpt lat="45.65097" lon="6.8493">
        <ele>1827.2</ele>
        <time>2021-03-26T13:56:02Z</time>
      </trkpt>
      <trkpt lat="45.65096" lon="6.84931">
        <ele>1827.2</ele>
        <time>2021-03-26T13:56:03Z</time>
      </trkpt>
      <trkpt lat="45.65095" lon="6.84931">
        <ele>1827.2</ele>
        <time>2021-03-26T13:56:04Z</time>
      </trkpt>
      <trkpt lat="45.65095" lon="6.84932">
        <ele>1826.8</ele>
        <time>2021-03-26T13:56:05Z</time>
      </trkpt>
      <trkpt lat="45.65094" lon="6.84932">
        <ele>1826.8</ele>
        <time>2021-03-26T13:56:06Z</time>
      </trkpt>
      <trkpt lat="45.65093" lon="6.84933">
        <ele>1826.8</ele>
        <time>2021-03-26T13:56:07Z</time>
      </trkpt>
      <trkpt lat="45.65093" lon="6.84933">
        <ele>1826.8</ele>
        <time>2021-03-26T13:56:08Z</time>
      </trkpt>
      <trkpt lat="45.65092" lon="6.84933">
        <ele>1827.1</ele>
        <time>2021-03-26T13:56:09Z</time>
      </trkpt>
      <trkpt lat="45.65091" lon="6.84934">
        <ele>1826.8</ele>
        <time>2021-03-26T13:56:10Z</time>
      </trkpt>
      <trkpt lat="45.65091" lon="6.84934">
        <ele>1826.8</ele>
        <time>2021-03-26T13:56:11Z</time>
      </trkpt>
      <trkpt lat="45.6509" lon="6.84935">
        <ele>1826.8</ele>
        <time>2021-03-26T13:56:36Z</time>
      </trkpt>
      <trkpt lat="45.6509" lon="6.84935">
        <ele>1826.8</ele>
        <time>2021-03-26T13:56:37Z</time>
      </trkpt>
      <trkpt lat="45.65089" lon="6.84935">
        <ele>1826.4</ele>
        <time>2021-03-26T13:56:38Z</time>
      </trkpt>
      <trkpt lat="45.65088" lon="6.84937">
        <ele>1826.4</ele>
        <time>2021-03-26T13:56:39Z</time>
      </trkpt>
      <trkpt lat="45.65088" lon="6.84938">
        <ele>1826.8</ele>
        <time>2021-03-26T13:56:40Z</time>
      </trkpt>
      <trkpt lat="45.65087" lon="6.84939">
        <ele>1826.8</ele>
        <time>2021-03-26T13:56:41Z</time>
      </trkpt>
      <trkpt lat="45.65087" lon="6.8494">
        <ele>1826.8</ele>
        <time>2021-03-26T13:56:42Z</time>
      </trkpt>
      <trkpt lat="45.65086" lon="6.84941">
        <ele>1826.5</ele>
        <time>2021-03-26T13:56:43Z</time>
      </trkpt>
      <trkpt lat="45.65085" lon="6.84942">
        <ele>1826.9</ele>
        <time>2021-03-26T13:56:44Z</time>
      </trkpt>
      <trkpt lat="45.65084" lon="6.84944">
        <ele>1826.9</ele>
        <time>2021-03-26T13:56:45Z</time>
      </trkpt>
      <trkpt lat="45.65084" lon="6.84945">
        <ele>1826.9</ele>
        <time>2021-03-26T13:56:46Z</time>
      </trkpt>
      <trkpt lat="45.65083" lon="6.84945">
        <ele>1826.9</ele>
        <time>2021-03-26T13:56:47Z</time>
      </trkpt>
      <trkpt lat="45.65083" lon="6.84946">
        <ele>1827.1</ele>
        <time>2021-03-26T13:56:48Z</time>
      </trkpt>
      <trkpt lat="45.65082" lon="6.84947">
        <ele>1827.1</ele>
        <time>2021-03-26T13:56:49Z</time>
      </trkpt>
      <trkpt lat="45.65081" lon="6.84948">
        <ele>1827.1</ele>
        <time>2021-03-26T13:56:50Z</time>
      </trkpt>
      <trkpt lat="45.6508" lon="6.84948">
        <ele>1827.1</ele>
        <time>2021-03-26T13:56:51Z</time>
      </trkpt>
      <trkpt lat="45.6508" lon="6.84948">
        <ele>1826.9</ele>
        <time>2021-03-26T13:56:52Z</time>
      </trkpt>
      <trkpt lat="45.65079" lon="6.84948">
        <ele>1826.9</ele>
        <time>2021-03-26T13:56:53Z</time>
      </trkpt>
      <trkpt lat="45.65078" lon="6.84949">
        <ele>1826.9</ele>
        <time>2021-03-26T13:56:54Z</time>
      </trkpt>
      <trkpt lat="45.65077" lon="6.84949">
        <ele>1826.7</ele>
        <time>2021-03-26T13:56:55Z</time>
      </trkpt>
      <trkpt lat="45.65075" lon="6.8495">
        <ele>1826.7</ele>
        <time>2021-03-26T13:56:56Z</time>
      </trkpt>
      <trkpt lat="45.65074" lon="6.8495">
        <ele>1827.2</ele>
        <time>2021-03-26T13:56:57Z</time>
      </trkpt>
      <trkpt lat="45.65073" lon="6.84951">
        <ele>1827.1</ele>
        <time>2021-03-26T13:56:58Z</time>
      </trkpt>
      <trkpt lat="45.65071" lon="6.84951">
        <ele>1827.1</ele>
        <time>2021-03-26T13:56:59Z</time>
      </trkpt>
      <trkpt lat="45.65069" lon="6.84951">
        <ele>1826.9</ele>
        <time>2021-03-26T13:57:00Z</time>
      </trkpt>
      <trkpt lat="45.65068" lon="6.84951">
        <ele>1826.8</ele>
        <time>2021-03-26T13:57:01Z</time>
      </trkpt>
      <trkpt lat="45.65066" lon="6.84951">
        <ele>1826.8</ele>
        <time>2021-03-26T13:57:02Z</time>
      </trkpt>
      <trkpt lat="45.65065" lon="6.8495">
        <ele>1826.2</ele>
        <time>2021-03-26T13:57:03Z</time>
      </trkpt>
      <trkpt lat="45.65065" lon="6.8495">
        <ele>1826</ele>
        <time>2021-03-26T13:57:04Z</time>
      </trkpt>
      <trkpt lat="45.65064" lon="6.8495">
        <ele>1826</ele>
        <time>2021-03-26T13:57:05Z</time>
      </trkpt>
      <trkpt lat="45.65063" lon="6.8495">
        <ele>1826</ele>
        <time>2021-03-26T13:57:06Z</time>
      </trkpt>
      <trkpt lat="45.65062" lon="6.8495">
        <ele>1825.8</ele>
        <time>2021-03-26T13:57:07Z</time>
      </trkpt>
      <trkpt lat="45.65061" lon="6.8495">
        <ele>1825.8</ele>
        <time>2021-03-26T13:57:08Z</time>
      </trkpt>
      <trkpt lat="45.6506" lon="6.8495">
        <ele>1825.8</ele>
        <time>2021-03-26T13:57:09Z</time>
      </trkpt>
      <trkpt lat="45.65058" lon="6.84949">
        <ele>1825.6</ele>
        <time>2021-03-26T13:57:10Z</time>
      </trkpt>
      <trkpt lat="45.65057" lon="6.84949">
        <ele>1825.6</ele>
        <time>2021-03-26T13:57:11Z</time>
      </trkpt>
      <trkpt lat="45.65057" lon="6.84949">
        <ele>1825.5</ele>
        <time>2021-03-26T13:57:12Z</time>
      </trkpt>
      <trkpt lat="45.65056" lon="6.84948">
        <ele>1825.2</ele>
        <time>2021-03-26T13:57:13Z</time>
      </trkpt>
      <trkpt lat="45.65055" lon="6.84948">
        <ele>1825</ele>
        <time>2021-03-26T13:57:14Z</time>
      </trkpt>
      <trkpt lat="45.65054" lon="6.84948">
        <ele>1824.9</ele>
        <time>2021-03-26T13:57:15Z</time>
      </trkpt>
      <trkpt lat="45.65053" lon="6.84947">
        <ele>1824.8</ele>
        <time>2021-03-26T13:57:16Z</time>
      </trkpt>
      <trkpt lat="45.65053" lon="6.84947">
        <ele>1824.7</ele>
        <time>2021-03-26T13:57:17Z</time>
      </trkpt>
      <trkpt lat="45.65053" lon="6.84947">
        <ele>1824.7</ele>
        <time>2021-03-26T13:57:18Z</time>
      </trkpt>
      <trkpt lat="45.65053" lon="6.84947">
        <ele>1824.7</ele>
        <time>2021-03-26T13:57:19Z</time>
      </trkpt>
      <trkpt lat="45.65053" lon="6.84947">
        <ele>1824.7</ele>
        <time>2021-03-26T13:57:20Z</time>
      </trkpt>
      <trkpt lat="45.65053" lon="6.84947">
        <ele>1824.7</ele>
        <time>2021-03-26T13:57:21Z</time>
      </trkpt>
      <trkpt lat="45.65053" lon="6.84947">
        <ele>1824.7</ele>
        <time>2021-03-26T13:57:22Z</time>
      </trkpt>
      <trkpt lat="45.65053" lon="6.84947">
        <ele>1824.7</ele>
        <time>2021-03-26T13:57:23Z</time>
      </trkpt>
      <trkpt lat="45.65053" lon="6.84947">
        <ele>1824.7</ele>
        <time>2021-03-26T13:57:24Z</time>
      </trkpt>
      <trkpt lat="45.65053" lon="6.84947">
        <ele>1824.7</ele>
        <time>2021-03-26T13:57:25Z</time>
      </trkpt>
      <trkpt lat="45.65053" lon="6.84947">
        <ele>1824.7</ele>
        <time>2021-03-26T13:57:26Z</time>
      </trkpt>
      <trkpt lat="45.65053" lon="6.84947">
        <ele>1824.7</ele>
        <time>2021-03-26T13:57:27Z</time>
      </trkpt>
      <trkpt lat="45.65046" lon="6.84943">
        <ele>1823.3</ele>
        <time>2021-03-26T13:59:35Z</time>
      </trkpt>
      <trkpt lat="45.65045" lon="6.84942">
        <ele>1823.1</ele>
        <time>2021-03-26T13:59:36Z</time>
      </trkpt>
      <trkpt lat="45.65044" lon="6.84942">
        <ele>1822.9</ele>
        <time>2021-03-26T13:59:37Z</time>
      </trkpt>
      <trkpt lat="45.65043" lon="6.84941">
        <ele>1822.6</ele>
        <time>2021-03-26T13:59:38Z</time>
      </trkpt>
      <trkpt lat="45.65042" lon="6.84941">
        <ele>1822.4</ele>
        <time>2021-03-26T13:59:39Z</time>
      </trkpt>
      <trkpt lat="45.65042" lon="6.84941">
        <ele>1822.3</ele>
        <time>2021-03-26T13:59:40Z</time>
      </trkpt>
      <trkpt lat="45.65041" lon="6.8494">
        <ele>1822.2</ele>
        <time>2021-03-26T13:59:41Z</time>
      </trkpt>
      <trkpt lat="45.65039" lon="6.84939">
        <ele>1821.8</ele>
        <time>2021-03-26T13:59:42Z</time>
      </trkpt>
      <trkpt lat="45.65038" lon="6.84938">
        <ele>1821.6</ele>
        <time>2021-03-26T13:59:43Z</time>
      </trkpt>
      <trkpt lat="45.65038" lon="6.84937">
        <ele>1821.4</ele>
        <time>2021-03-26T13:59:44Z</time>
      </trkpt>
      <trkpt lat="45.65036" lon="6.84936">
        <ele>1821</ele>
        <time>2021-03-26T13:59:45Z</time>
      </trkpt>
      <trkpt lat="45.65035" lon="6.84936">
        <ele>1820.9</ele>
        <time>2021-03-26T13:59:46Z</time>
      </trkpt>
      <trkpt lat="45.65034" lon="6.84935">
        <ele>1820.7</ele>
        <time>2021-03-26T13:59:47Z</time>
      </trkpt>
      <trkpt lat="45.65033" lon="6.84935">
        <ele>1820.5</ele>
        <time>2021-03-26T13:59:48Z</time>
      </trkpt>
      <trkpt lat="45.65032" lon="6.84934">
        <ele>1820.3</ele>
        <time>2021-03-26T13:59:49Z</time>
      </trkpt>
      <trkpt lat="45.65031" lon="6.84933">
        <ele>1820.1</ele>
        <time>2021-03-26T13:59:50Z</time>
      </trkpt>
      <trkpt lat="45.6503" lon="6.84933">
        <ele>1819.9</ele>
        <time>2021-03-26T13:59:51Z</time>
      </trkpt>
      <trkpt lat="45.65029" lon="6.84932">
        <ele>1819.7</ele>
        <time>2021-03-26T13:59:52Z</time>
      </trkpt>
      <trkpt lat="45.65028" lon="6.84931">
        <ele>1819.7</ele>
        <time>2021-03-26T13:59:53Z</time>
      </trkpt>
      <trkpt lat="45.65026" lon="6.84929">
        <ele>1819.7</ele>
        <time>2021-03-26T13:59:54Z</time>
      </trkpt>
      <trkpt lat="45.65025" lon="6.84929">
        <ele>1819.7</ele>
        <time>2021-03-26T13:59:55Z</time>
      </trkpt>
      <trkpt lat="45.65024" lon="6.84928">
        <ele>1819.7</ele>
        <time>2021-03-26T13:59:56Z</time>
      </trkpt>
      <trkpt lat="45.65021" lon="6.84928">
        <ele>1819.8</ele>
        <time>2021-03-26T13:59:57Z</time>
      </trkpt>
      <trkpt lat="45.6502" lon="6.84927">
        <ele>1819.8</ele>
        <time>2021-03-26T13:59:58Z</time>
      </trkpt>
      <trkpt lat="45.65018" lon="6.84927">
        <ele>1819.8</ele>
        <time>2021-03-26T13:59:59Z</time>
      </trkpt>
      <trkpt lat="45.65017" lon="6.84927">
        <ele>1819.8</ele>
        <time>2021-03-26T14:00:00Z</time>
      </trkpt>
      <trkpt lat="45.65017" lon="6.84927">
        <ele>1819.8</ele>
        <time>2021-03-26T14:00:01Z</time>
      </trkpt>
      <trkpt lat="45.65016" lon="6.84928">
        <ele>1819.9</ele>
        <time>2021-03-26T14:00:02Z</time>
      </trkpt>
      <trkpt lat="45.65015" lon="6.84928">
        <ele>1819.9</ele>
        <time>2021-03-26T14:00:03Z</time>
      </trkpt>
      <trkpt lat="45.65015" lon="6.84928">
        <ele>1819.9</ele>
        <time>2021-03-26T14:00:04Z</time>
      </trkpt>
      <trkpt lat="45.65014" lon="6.84929">
        <ele>1819.9</ele>
        <time>2021-03-26T14:00:05Z</time>
      </trkpt>
      <trkpt lat="45.65013" lon="6.84929">
        <ele>1819.9</ele>
        <time>2021-03-26T14:00:06Z</time>
      </trkpt>
      <trkpt lat="45.65013" lon="6.84929">
        <ele>1819.9</ele>
        <time>2021-03-26T14:00:07Z</time>
      </trkpt>
      <trkpt lat="45.65012" lon="6.8493">
        <ele>1820</ele>
        <time>2021-03-26T14:00:08Z</time>
      </trkpt>
      <trkpt lat="45.65011" lon="6.8493">
        <ele>1820</ele>
        <time>2021-03-26T14:00:09Z</time>
      </trkpt>
      <trkpt lat="45.65011" lon="6.8493">
        <ele>1820</ele>
        <time>2021-03-26T14:00:10Z</time>
      </trkpt>
      <trkpt lat="45.6501" lon="6.84931">
        <ele>1820.1</ele>
        <time>2021-03-26T14:00:11Z</time>
      </trkpt>
      <trkpt lat="45.65009" lon="6.84931">
        <ele>1820.1</ele>
        <time>2021-03-26T14:00:12Z</time>
      </trkpt>
      <trkpt lat="45.65008" lon="6.84931">
        <ele>1820.1</ele>
        <time>2021-03-26T14:00:13Z</time>
      </trkpt>
      <trkpt lat="45.65007" lon="6.8493">
        <ele>1820.2</ele>
        <time>2021-03-26T14:00:14Z</time>
      </trkpt>
      <trkpt lat="45.65006" lon="6.8493">
        <ele>1820.2</ele>
        <time>2021-03-26T14:00:15Z</time>
      </trkpt>
      <trkpt lat="45.65005" lon="6.84929">
        <ele>1820.3</ele>
        <time>2021-03-26T14:00:16Z</time>
      </trkpt>
      <trkpt lat="45.65004" lon="6.84929">
        <ele>1820.3</ele>
        <time>2021-03-26T14:00:17Z</time>
      </trkpt>
      <trkpt lat="45.65003" lon="6.84929">
        <ele>1820.3</ele>
        <time>2021-03-26T14:00:18Z</time>
      </trkpt>
      <trkpt lat="45.65003" lon="6.8493">
        <ele>1820.4</ele>
        <time>2021-03-26T14:00:19Z</time>
      </trkpt>
      <trkpt lat="45.65002" lon="6.8493">
        <ele>1820.4</ele>
        <time>2021-03-26T14:00:20Z</time>
      </trkpt>
      <trkpt lat="45.65" lon="6.8493">
        <ele>1820.5</ele>
        <time>2021-03-26T14:00:21Z</time>
      </trkpt>
      <trkpt lat="45.65" lon="6.8493">
        <ele>1820.5</ele>
        <time>2021-03-26T14:00:22Z</time>
      </trkpt>
      <trkpt lat="45.64999" lon="6.8493">
        <ele>1820.6</ele>
        <time>2021-03-26T14:00:23Z</time>
      </trkpt>
      <trkpt lat="45.64998" lon="6.8493">
        <ele>1820.6</ele>
        <time>2021-03-26T14:00:24Z</time>
      </trkpt>
      <trkpt lat="45.64997" lon="6.8493">
        <ele>1820.7</ele>
        <time>2021-03-26T14:00:25Z</time>
      </trkpt>
      <trkpt lat="45.64996" lon="6.8493">
        <ele>1820.7</ele>
        <time>2021-03-26T14:00:26Z</time>
      </trkpt>
      <trkpt lat="45.64995" lon="6.84929">
        <ele>1820.8</ele>
        <time>2021-03-26T14:00:27Z</time>
      </trkpt>
      <trkpt lat="45.64994" lon="6.84929">
        <ele>1820.9</ele>
        <time>2021-03-26T14:00:28Z</time>
      </trkpt>
      <trkpt lat="45.64993" lon="6.84929">
        <ele>1820.9</ele>
        <time>2021-03-26T14:00:29Z</time>
      </trkpt>
      <trkpt lat="45.64992" lon="6.84928">
        <ele>1821</ele>
        <time>2021-03-26T14:00:30Z</time>
      </trkpt>
      <trkpt lat="45.64991" lon="6.84928">
        <ele>1821</ele>
        <time>2021-03-26T14:00:31Z</time>
      </trkpt>
      <trkpt lat="45.6499" lon="6.84928">
        <ele>1821.1</ele>
        <time>2021-03-26T14:00:32Z</time>
      </trkpt>
      <trkpt lat="45.64989" lon="6.84927">
        <ele>1821.2</ele>
        <time>2021-03-26T14:00:33Z</time>
      </trkpt>
      <trkpt lat="45.64988" lon="6.84927">
        <ele>1821.3</ele>
        <time>2021-03-26T14:00:34Z</time>
      </trkpt>
      <trkpt lat="45.64987" lon="6.84926">
        <ele>1821.3</ele>
        <time>2021-03-26T14:00:35Z</time>
      </trkpt>
      <trkpt lat="45.64985" lon="6.84926">
        <ele>1821.4</ele>
        <time>2021-03-26T14:00:36Z</time>
      </trkpt>
      <trkpt lat="45.64984" lon="6.84925">
        <ele>1821.5</ele>
        <time>2021-03-26T14:00:37Z</time>
      </trkpt>
      <trkpt lat="45.64983" lon="6.84925">
        <ele>1821.6</ele>
        <time>2021-03-26T14:00:38Z</time>
      </trkpt>
      <trkpt lat="45.64982" lon="6.84925">
        <ele>1821.6</ele>
        <time>2021-03-26T14:00:39Z</time>
      </trkpt>
      <trkpt lat="45.64981" lon="6.84924">
        <ele>1821.7</ele>
        <time>2021-03-26T14:00:40Z</time>
      </trkpt>
      <trkpt lat="45.6498" lon="6.84924">
        <ele>1821.8</ele>
        <time>2021-03-26T14:00:41Z</time>
      </trkpt>
      <trkpt lat="45.64979" lon="6.84924">
        <ele>1821.8</ele>
        <time>2021-03-26T14:00:42Z</time>
      </trkpt>
      <trkpt lat="45.64978" lon="6.84924">
        <ele>1821.9</ele>
        <time>2021-03-26T14:00:43Z</time>
      </trkpt>
      <trkpt lat="45.64977" lon="6.84923">
        <ele>1822</ele>
        <time>2021-03-26T14:00:44Z</time>
      </trkpt>
      <trkpt lat="45.64976" lon="6.84923">
        <ele>1822</ele>
        <time>2021-03-26T14:00:45Z</time>
      </trkpt>
      <trkpt lat="45.64975" lon="6.84923">
        <ele>1822.1</ele>
        <time>2021-03-26T14:00:46Z</time>
      </trkpt>
      <trkpt lat="45.64974" lon="6.84923">
        <ele>1822.1</ele>
        <time>2021-03-26T14:00:47Z</time>
      </trkpt>
      <trkpt lat="45.64973" lon="6.84922">
        <ele>1822.2</ele>
        <time>2021-03-26T14:00:48Z</time>
      </trkpt>
      <trkpt lat="45.64973" lon="6.84922">
        <ele>1822.2</ele>
        <time>2021-03-26T14:00:49Z</time>
      </trkpt>
      <trkpt lat="45.64972" lon="6.84922">
        <ele>1822.2</ele>
        <time>2021-03-26T14:00:50Z</time>
      </trkpt>
      <trkpt lat="45.64971" lon="6.84922">
        <ele>1822.3</ele>
        <time>2021-03-26T14:00:51Z</time>
      </trkpt>
      <trkpt lat="45.64971" lon="6.84922">
        <ele>1822.3</ele>
        <time>2021-03-26T14:00:52Z</time>
      </trkpt>
      <trkpt lat="45.6497" lon="6.84923">
        <ele>1822.3</ele>
        <time>2021-03-26T14:00:53Z</time>
      </trkpt>
      <trkpt lat="45.6497" lon="6.84923">
        <ele>1822.4</ele>
        <time>2021-03-26T14:00:54Z</time>
      </trkpt>
      <trkpt lat="45.64969" lon="6.84923">
        <ele>1822.4</ele>
        <time>2021-03-26T14:00:55Z</time>
      </trkpt>
      <trkpt lat="45.64968" lon="6.84923">
        <ele>1822.5</ele>
        <time>2021-03-26T14:00:56Z</time>
      </trkpt>
      <trkpt lat="45.64967" lon="6.84922">
        <ele>1822.5</ele>
        <time>2021-03-26T14:00:57Z</time>
      </trkpt>
      <trkpt lat="45.64966" lon="6.84922">
        <ele>1822.5</ele>
        <time>2021-03-26T14:00:58Z</time>
      </trkpt>
      <trkpt lat="45.64965" lon="6.84922">
        <ele>1822.6</ele>
        <time>2021-03-26T14:00:59Z</time>
      </trkpt>
      <trkpt lat="45.64964" lon="6.84921">
        <ele>1822.6</ele>
        <time>2021-03-26T14:01:00Z</time>
      </trkpt>
      <trkpt lat="45.64963" lon="6.84921">
        <ele>1822.7</ele>
        <time>2021-03-26T14:01:01Z</time>
      </trkpt>
      <trkpt lat="45.64962" lon="6.84921">
        <ele>1822.7</ele>
        <time>2021-03-26T14:01:02Z</time>
      </trkpt>
      <trkpt lat="45.64961" lon="6.8492">
        <ele>1822.7</ele>
        <time>2021-03-26T14:01:03Z</time>
      </trkpt>
      <trkpt lat="45.6496" lon="6.8492">
        <ele>1822.7</ele>
        <time>2021-03-26T14:01:04Z</time>
      </trkpt>
      <trkpt lat="45.6496" lon="6.8492">
        <ele>1822.8</ele>
        <time>2021-03-26T14:01:05Z</time>
      </trkpt>
      <trkpt lat="45.64959" lon="6.8492">
        <ele>1822.8</ele>
        <time>2021-03-26T14:01:06Z</time>
      </trkpt>
      <trkpt lat="45.64958" lon="6.84919">
        <ele>1822.8</ele>
        <time>2021-03-26T14:01:07Z</time>
      </trkpt>
      <trkpt lat="45.64958" lon="6.84919">
        <ele>1822.8</ele>
        <time>2021-03-26T14:01:08Z</time>
      </trkpt>
      <trkpt lat="45.64957" lon="6.84919">
        <ele>1822.9</ele>
        <time>2021-03-26T14:01:09Z</time>
      </trkpt>
      <trkpt lat="45.64956" lon="6.84918">
        <ele>1822.9</ele>
        <time>2021-03-26T14:01:10Z</time>
      </trkpt>
      <trkpt lat="45.64956" lon="6.84917">
        <ele>1822.9</ele>
        <time>2021-03-26T14:01:11Z</time>
      </trkpt>
      <trkpt lat="45.64955" lon="6.84917">
        <ele>1822.9</ele>
        <time>2021-03-26T14:01:12Z</time>
      </trkpt>
      <trkpt lat="45.64954" lon="6.84916">
        <ele>1823</ele>
        <time>2021-03-26T14:01:13Z</time>
      </trkpt>
      <trkpt lat="45.64953" lon="6.84915">
        <ele>1823</ele>
        <time>2021-03-26T14:01:14Z</time>
      </trkpt>
      <trkpt lat="45.64953" lon="6.84915">
        <ele>1823</ele>
        <time>2021-03-26T14:01:15Z</time>
      </trkpt>
      <trkpt lat="45.64952" lon="6.84915">
        <ele>1823</ele>
        <time>2021-03-26T14:01:16Z</time>
      </trkpt>
      <trkpt lat="45.64951" lon="6.84914">
        <ele>1823.1</ele>
        <time>2021-03-26T14:01:17Z</time>
      </trkpt>
      <trkpt lat="45.6495" lon="6.84913">
        <ele>1823.1</ele>
        <time>2021-03-26T14:01:18Z</time>
      </trkpt>
      <trkpt lat="45.64948" lon="6.84912">
        <ele>1823.1</ele>
        <time>2021-03-26T14:01:19Z</time>
      </trkpt>
      <trkpt lat="45.64948" lon="6.84911">
        <ele>1823.2</ele>
        <time>2021-03-26T14:01:20Z</time>
      </trkpt>
      <trkpt lat="45.64947" lon="6.84911">
        <ele>1823.2</ele>
        <time>2021-03-26T14:01:21Z</time>
      </trkpt>
      <trkpt lat="45.64946" lon="6.8491">
        <ele>1823.2</ele>
        <time>2021-03-26T14:01:22Z</time>
      </trkpt>
      <trkpt lat="45.64945" lon="6.8491">
        <ele>1823.2</ele>
        <time>2021-03-26T14:01:23Z</time>
      </trkpt>
      <trkpt lat="45.64943" lon="6.84909">
        <ele>1823.3</ele>
        <time>2021-03-26T14:01:24Z</time>
      </trkpt>
      <trkpt lat="45.64943" lon="6.84909">
        <ele>1823.3</ele>
        <time>2021-03-26T14:01:25Z</time>
      </trkpt>
      <trkpt lat="45.64942" lon="6.84908">
        <ele>1823.3</ele>
        <time>2021-03-26T14:01:26Z</time>
      </trkpt>
      <trkpt lat="45.64941" lon="6.84908">
        <ele>1823.3</ele>
        <time>2021-03-26T14:01:27Z</time>
      </trkpt>
      <trkpt lat="45.64941" lon="6.84907">
        <ele>1823.3</ele>
        <time>2021-03-26T14:01:28Z</time>
      </trkpt>
      <trkpt lat="45.6494" lon="6.84907">
        <ele>1823.3</ele>
        <time>2021-03-26T14:01:29Z</time>
      </trkpt>
      <trkpt lat="45.64939" lon="6.84906">
        <ele>1823.4</ele>
        <time>2021-03-26T14:01:30Z</time>
      </trkpt>
      <trkpt lat="45.64938" lon="6.84906">
        <ele>1823.4</ele>
        <time>2021-03-26T14:01:31Z</time>
      </trkpt>
      <trkpt lat="45.64937" lon="6.84905">
        <ele>1823.4</ele>
        <time>2021-03-26T14:01:32Z</time>
      </trkpt>
      <trkpt lat="45.64936" lon="6.84905">
        <ele>1823.4</ele>
        <time>2021-03-26T14:01:33Z</time>
      </trkpt>
      <trkpt lat="45.64935" lon="6.84904">
        <ele>1823.5</ele>
        <time>2021-03-26T14:01:34Z</time>
      </trkpt>
      <trkpt lat="45.64934" lon="6.84904">
        <ele>1823.5</ele>
        <time>2021-03-26T14:01:35Z</time>
      </trkpt>
      <trkpt lat="45.64934" lon="6.84903">
        <ele>1823.5</ele>
        <time>2021-03-26T14:01:36Z</time>
      </trkpt>
      <trkpt lat="45.64933" lon="6.84903">
        <ele>1823.5</ele>
        <time>2021-03-26T14:01:37Z</time>
      </trkpt>
      <trkpt lat="45.64932" lon="6.84903">
        <ele>1823.5</ele>
        <time>2021-03-26T14:01:38Z</time>
      </trkpt>
      <trkpt lat="45.64931" lon="6.84902">
        <ele>1823.6</ele>
        <time>2021-03-26T14:01:39Z</time>
      </trkpt>
      <trkpt lat="45.64931" lon="6.84902">
        <ele>1823.6</ele>
        <time>2021-03-26T14:01:40Z</time>
      </trkpt>
      <trkpt lat="45.6493" lon="6.84902">
        <ele>1823.6</ele>
        <time>2021-03-26T14:01:41Z</time>
      </trkpt>
      <trkpt lat="45.64929" lon="6.84902">
        <ele>1823.6</ele>
        <time>2021-03-26T14:01:42Z</time>
      </trkpt>
      <trkpt lat="45.64928" lon="6.84902">
        <ele>1823.6</ele>
        <time>2021-03-26T14:01:43Z</time>
      </trkpt>
      <trkpt lat="45.64927" lon="6.84902">
        <ele>1823.6</ele>
        <time>2021-03-26T14:01:44Z</time>
      </trkpt>
      <trkpt lat="45.64926" lon="6.84902">
        <ele>1823.6</ele>
        <time>2021-03-26T14:01:45Z</time>
      </trkpt>
      <trkpt lat="45.64925" lon="6.84902">
        <ele>1823.7</ele>
        <time>2021-03-26T14:01:46Z</time>
      </trkpt>
      <trkpt lat="45.64924" lon="6.84902">
        <ele>1823.7</ele>
        <time>2021-03-26T14:01:47Z</time>
      </trkpt>
      <trkpt lat="45.64923" lon="6.84902">
        <ele>1823.7</ele>
        <time>2021-03-26T14:01:48Z</time>
      </trkpt>
      <trkpt lat="45.64922" lon="6.84901">
        <ele>1823.7</ele>
        <time>2021-03-26T14:01:49Z</time>
      </trkpt>
      <trkpt lat="45.64921" lon="6.84901">
        <ele>1823.7</ele>
        <time>2021-03-26T14:01:50Z</time>
      </trkpt>
      <trkpt lat="45.6492" lon="6.849">
        <ele>1823.7</ele>
        <time>2021-03-26T14:01:51Z</time>
      </trkpt>
      <trkpt lat="45.64919" lon="6.849">
        <ele>1823.8</ele>
        <time>2021-03-26T14:01:52Z</time>
      </trkpt>
      <trkpt lat="45.64918" lon="6.84899">
        <ele>1823.8</ele>
        <time>2021-03-26T14:01:53Z</time>
      </trkpt>
      <trkpt lat="45.64917" lon="6.84899">
        <ele>1823.8</ele>
        <time>2021-03-26T14:01:54Z</time>
      </trkpt>
      <trkpt lat="45.64916" lon="6.84898">
        <ele>1823.8</ele>
        <time>2021-03-26T14:01:55Z</time>
      </trkpt>
      <trkpt lat="45.64915" lon="6.84898">
        <ele>1823.8</ele>
        <time>2021-03-26T14:01:56Z</time>
      </trkpt>
      <trkpt lat="45.64914" lon="6.84897">
        <ele>1823.9</ele>
        <time>2021-03-26T14:01:57Z</time>
      </trkpt>
      <trkpt lat="45.64913" lon="6.84896">
        <ele>1823.9</ele>
        <time>2021-03-26T14:01:58Z</time>
      </trkpt>
      <trkpt lat="45.64912" lon="6.84895">
        <ele>1823.9</ele>
        <time>2021-03-26T14:01:59Z</time>
      </trkpt>
      <trkpt lat="45.64911" lon="6.84895">
        <ele>1823.9</ele>
        <time>2021-03-26T14:02:00Z</time>
      </trkpt>
      <trkpt lat="45.6491" lon="6.84894">
        <ele>1823.9</ele>
        <time>2021-03-26T14:02:01Z</time>
      </trkpt>
      <trkpt lat="45.64909" lon="6.84894">
        <ele>1823.9</ele>
        <time>2021-03-26T14:02:02Z</time>
      </trkpt>
      <trkpt lat="45.64909" lon="6.84894">
        <ele>1824</ele>
        <time>2021-03-26T14:02:03Z</time>
      </trkpt>
      <trkpt lat="45.64908" lon="6.84893">
        <ele>1824</ele>
        <time>2021-03-26T14:02:04Z</time>
      </trkpt>
      <trkpt lat="45.64907" lon="6.84893">
        <ele>1824</ele>
        <time>2021-03-26T14:02:05Z</time>
      </trkpt>
      <trkpt lat="45.64906" lon="6.84893">
        <ele>1824</ele>
        <time>2021-03-26T14:02:06Z</time>
      </trkpt>
      <trkpt lat="45.64905" lon="6.84892">
        <ele>1824</ele>
        <time>2021-03-26T14:02:07Z</time>
      </trkpt>
      <trkpt lat="45.64904" lon="6.84892">
        <ele>1824</ele>
        <time>2021-03-26T14:02:08Z</time>
      </trkpt>
      <trkpt lat="45.64903" lon="6.84891">
        <ele>1824.1</ele>
        <time>2021-03-26T14:02:09Z</time>
      </trkpt>
      <trkpt lat="45.64902" lon="6.8489">
        <ele>1824.1</ele>
        <time>2021-03-26T14:02:10Z</time>
      </trkpt>
      <trkpt lat="45.64901" lon="6.8489">
        <ele>1824.1</ele>
        <time>2021-03-26T14:02:11Z</time>
      </trkpt>
      <trkpt lat="45.649" lon="6.8489">
        <ele>1824.1</ele>
        <time>2021-03-26T14:02:12Z</time>
      </trkpt>
      <trkpt lat="45.64899" lon="6.84889">
        <ele>1824.1</ele>
        <time>2021-03-26T14:02:13Z</time>
      </trkpt>
      <trkpt lat="45.64898" lon="6.84889">
        <ele>1824.2</ele>
        <time>2021-03-26T14:02:14Z</time>
      </trkpt>
      <trkpt lat="45.64897" lon="6.84889">
        <ele>1824.2</ele>
        <time>2021-03-26T14:02:15Z</time>
      </trkpt>
      <trkpt lat="45.64896" lon="6.84888">
        <ele>1824.2</ele>
        <time>2021-03-26T14:02:16Z</time>
      </trkpt>
      <trkpt lat="45.64895" lon="6.84888">
        <ele>1824.2</ele>
        <time>2021-03-26T14:02:17Z</time>
      </trkpt>
      <trkpt lat="45.64895" lon="6.84888">
        <ele>1824.2</ele>
        <time>2021-03-26T14:02:18Z</time>
      </trkpt>
      <trkpt lat="45.64894" lon="6.84887">
        <ele>1824.3</ele>
        <time>2021-03-26T14:02:19Z</time>
      </trkpt>
      <trkpt lat="45.64893" lon="6.84887">
        <ele>1824.3</ele>
        <time>2021-03-26T14:02:20Z</time>
      </trkpt>
      <trkpt lat="45.64892" lon="6.84886">
        <ele>1824.3</ele>
        <time>2021-03-26T14:02:21Z</time>
      </trkpt>
      <trkpt lat="45.64892" lon="6.84886">
        <ele>1824.3</ele>
        <time>2021-03-26T14:02:22Z</time>
      </trkpt>
      <trkpt lat="45.64891" lon="6.84886">
        <ele>1824.3</ele>
        <time>2021-03-26T14:02:23Z</time>
      </trkpt>
      <trkpt lat="45.6489" lon="6.84886">
        <ele>1824.3</ele>
        <time>2021-03-26T14:02:24Z</time>
      </trkpt>
      <trkpt lat="45.64889" lon="6.84885">
        <ele>1824.4</ele>
        <time>2021-03-26T14:02:25Z</time>
      </trkpt>
      <trkpt lat="45.64888" lon="6.84885">
        <ele>1824.4</ele>
        <time>2021-03-26T14:02:26Z</time>
      </trkpt>
      <trkpt lat="45.64887" lon="6.84884">
        <ele>1824.4</ele>
        <time>2021-03-26T14:02:27Z</time>
      </trkpt>
      <trkpt lat="45.64886" lon="6.84884">
        <ele>1824.4</ele>
        <time>2021-03-26T14:02:28Z</time>
      </trkpt>
      <trkpt lat="45.64886" lon="6.84884">
        <ele>1824.4</ele>
        <time>2021-03-26T14:02:29Z</time>
      </trkpt>
      <trkpt lat="45.64885" lon="6.84884">
        <ele>1824.4</ele>
        <time>2021-03-26T14:02:30Z</time>
      </trkpt>
      <trkpt lat="45.64884" lon="6.84884">
        <ele>1824.4</ele>
        <time>2021-03-26T14:02:31Z</time>
      </trkpt>
      <trkpt lat="45.64884" lon="6.84884">
        <ele>1824.5</ele>
        <time>2021-03-26T14:02:32Z</time>
      </trkpt>
      <trkpt lat="45.64883" lon="6.84884">
        <ele>1824.5</ele>
        <time>2021-03-26T14:02:33Z</time>
      </trkpt>
      <trkpt lat="45.64882" lon="6.84884">
        <ele>1824.5</ele>
        <time>2021-03-26T14:02:34Z</time>
      </trkpt>
      <trkpt lat="45.64881" lon="6.84884">
        <ele>1824.5</ele>
        <time>2021-03-26T14:02:35Z</time>
      </trkpt>
      <trkpt lat="45.6488" lon="6.84884">
        <ele>1824.5</ele>
        <time>2021-03-26T14:02:36Z</time>
      </trkpt>
      <trkpt lat="45.64879" lon="6.84884">
        <ele>1824.6</ele>
        <time>2021-03-26T14:02:37Z</time>
      </trkpt>
      <trkpt lat="45.64878" lon="6.84884">
        <ele>1824.6</ele>
        <time>2021-03-26T14:02:38Z</time>
      </trkpt>
      <trkpt lat="45.64878" lon="6.84884">
        <ele>1824.6</ele>
        <time>2021-03-26T14:02:39Z</time>
      </trkpt>
      <trkpt lat="45.64876" lon="6.84884">
        <ele>1824.6</ele>
        <time>2021-03-26T14:02:40Z</time>
      </trkpt>
      <trkpt lat="45.64875" lon="6.84884">
        <ele>1824.7</ele>
        <time>2021-03-26T14:02:41Z</time>
      </trkpt>
      <trkpt lat="45.64873" lon="6.84883">
        <ele>1824.7</ele>
        <time>2021-03-26T14:02:42Z</time>
      </trkpt>
      <trkpt lat="45.64873" lon="6.84882">
        <ele>1824.7</ele>
        <time>2021-03-26T14:02:43Z</time>
      </trkpt>
      <trkpt lat="45.64872" lon="6.84882">
        <ele>1824.8</ele>
        <time>2021-03-26T14:02:44Z</time>
      </trkpt>
      <trkpt lat="45.6487" lon="6.84881">
        <ele>1824.8</ele>
        <time>2021-03-26T14:02:45Z</time>
      </trkpt>
      <trkpt lat="45.64869" lon="6.8488">
        <ele>1824.8</ele>
        <time>2021-03-26T14:02:46Z</time>
      </trkpt>
      <trkpt lat="45.64868" lon="6.8488">
        <ele>1824.9</ele>
        <time>2021-03-26T14:02:47Z</time>
      </trkpt>
      <trkpt lat="45.64867" lon="6.84879">
        <ele>1824.9</ele>
        <time>2021-03-26T14:02:48Z</time>
      </trkpt>
      <trkpt lat="45.64866" lon="6.84879">
        <ele>1824.9</ele>
        <time>2021-03-26T14:02:49Z</time>
      </trkpt>
      <trkpt lat="45.64865" lon="6.84878">
        <ele>1824.9</ele>
        <time>2021-03-26T14:02:50Z</time>
      </trkpt>
      <trkpt lat="45.64864" lon="6.84878">
        <ele>1825</ele>
        <time>2021-03-26T14:02:51Z</time>
      </trkpt>
      <trkpt lat="45.64864" lon="6.84878">
        <ele>1825</ele>
        <time>2021-03-26T14:02:52Z</time>
      </trkpt>
      <trkpt lat="45.64863" lon="6.84878">
        <ele>1825</ele>
        <time>2021-03-26T14:02:53Z</time>
      </trkpt>
      <trkpt lat="45.64862" lon="6.84878">
        <ele>1825</ele>
        <time>2021-03-26T14:02:54Z</time>
      </trkpt>
      <trkpt lat="45.64861" lon="6.84878">
        <ele>1825.1</ele>
        <time>2021-03-26T14:02:55Z</time>
      </trkpt>
      <trkpt lat="45.6486" lon="6.84878">
        <ele>1825.1</ele>
        <time>2021-03-26T14:02:56Z</time>
      </trkpt>
      <trkpt lat="45.6486" lon="6.84877">
        <ele>1825.1</ele>
        <time>2021-03-26T14:02:57Z</time>
      </trkpt>
      <trkpt lat="45.64859" lon="6.84877">
        <ele>1825.1</ele>
        <time>2021-03-26T14:02:58Z</time>
      </trkpt>
      <trkpt lat="45.64858" lon="6.84877">
        <ele>1825.2</ele>
        <time>2021-03-26T14:02:59Z</time>
      </trkpt>
      <trkpt lat="45.64857" lon="6.84877">
        <ele>1825.2</ele>
        <time>2021-03-26T14:03:00Z</time>
      </trkpt>
      <trkpt lat="45.64857" lon="6.84876">
        <ele>1825.2</ele>
        <time>2021-03-26T14:03:01Z</time>
      </trkpt>
      <trkpt lat="45.64856" lon="6.84877">
        <ele>1825.2</ele>
        <time>2021-03-26T14:03:02Z</time>
      </trkpt>
      <trkpt lat="45.64856" lon="6.84877">
        <ele>1825.2</ele>
        <time>2021-03-26T14:03:03Z</time>
      </trkpt>
      <trkpt lat="45.64856" lon="6.84877">
        <ele>1825.2</ele>
        <time>2021-03-26T14:03:04Z</time>
      </trkpt>
      <trkpt lat="45.64856" lon="6.84877">
        <ele>1825.2</ele>
        <time>2021-03-26T14:03:05Z</time>
      </trkpt>
      <trkpt lat="45.64856" lon="6.84877">
        <ele>1825.2</ele>
        <time>2021-03-26T14:03:06Z</time>
      </trkpt>
      <trkpt lat="45.64856" lon="6.84877">
        <ele>1825.2</ele>
        <time>2021-03-26T14:03:07Z</time>
      </trkpt>
      <trkpt lat="45.64856" lon="6.84877">
        <ele>1825.2</ele>
        <time>2021-03-26T14:03:08Z</time>
      </trkpt>
      <trkpt lat="45.64856" lon="6.84877">
        <ele>1825.2</ele>
        <time>2021-03-26T14:03:09Z</time>
      </trkpt>
      <trkpt lat="45.64856" lon="6.84877">
        <ele>1825.2</ele>
        <time>2021-03-26T14:03:10Z</time>
      </trkpt>
      <trkpt lat="45.64857" lon="6.84881">
        <ele>1825.3</ele>
        <time>2021-03-26T14:03:11Z</time>
      </trkpt>
      <trkpt lat="45.64857" lon="6.84881">
        <ele>1825.3</ele>
        <time>2021-03-26T14:03:12Z</time>
      </trkpt>
      <trkpt lat="45.64857" lon="6.84881">
        <ele>1825.3</ele>
        <time>2021-03-26T14:03:13Z</time>
      </trkpt>
      <trkpt lat="45.64857" lon="6.84881">
        <ele>1825.3</ele>
        <time>2021-03-26T14:03:14Z</time>
      </trkpt>
      <trkpt lat="45.64857" lon="6.84881">
        <ele>1825.3</ele>
        <time>2021-03-26T14:03:15Z</time>
      </trkpt>
      <trkpt lat="45.6486" lon="6.84876">
        <ele>1825.5</ele>
        <time>2021-03-26T14:03:24Z</time>
      </trkpt>
      <trkpt lat="45.6486" lon="6.84876">
        <ele>1825.5</ele>
        <time>2021-03-26T14:03:25Z</time>
      </trkpt>
      <trkpt lat="45.6486" lon="6.84876">
        <ele>1825.5</ele>
        <time>2021-03-26T14:03:26Z</time>
      </trkpt>
      <trkpt lat="45.6486" lon="6.84876">
        <ele>1825.5</ele>
        <time>2021-03-26T14:03:27Z</time>
      </trkpt>
      <trkpt lat="45.6486" lon="6.84875">
        <ele>1825.5</ele>
        <time>2021-03-26T14:03:28Z</time>
      </trkpt>
      <trkpt lat="45.6486" lon="6.84875">
        <ele>1825.5</ele>
        <time>2021-03-26T14:03:29Z</time>
      </trkpt>
      <trkpt lat="45.64861" lon="6.84874">
        <ele>1825.6</ele>
        <time>2021-03-26T14:03:30Z</time>
      </trkpt>
      <trkpt lat="45.64861" lon="6.84874">
        <ele>1825.6</ele>
        <time>2021-03-26T14:03:31Z</time>
      </trkpt>
      <trkpt lat="45.64861" lon="6.84874">
        <ele>1825.6</ele>
        <time>2021-03-26T14:03:32Z</time>
      </trkpt>
      <trkpt lat="45.64861" lon="6.84874">
        <ele>1825.6</ele>
        <time>2021-03-26T14:03:33Z</time>
      </trkpt>
      <trkpt lat="45.64864" lon="6.84881">
        <ele>1825.8</ele>
        <time>2021-03-26T14:03:54Z</time>
      </trkpt>
      <trkpt lat="45.64864" lon="6.84882">
        <ele>1825.8</ele>
        <time>2021-03-26T14:03:55Z</time>
      </trkpt>
      <trkpt lat="45.64865" lon="6.84882">
        <ele>1825.9</ele>
        <time>2021-03-26T14:03:56Z</time>
      </trkpt>
      <trkpt lat="45.64866" lon="6.84882">
        <ele>1825.9</ele>
        <time>2021-03-26T14:03:57Z</time>
      </trkpt>
      <trkpt lat="45.64866" lon="6.84882">
        <ele>1825.9</ele>
        <time>2021-03-26T14:03:58Z</time>
      </trkpt>
      <trkpt lat="45.64867" lon="6.84882">
        <ele>1826</ele>
        <time>2021-03-26T14:03:59Z</time>
      </trkpt>
      <trkpt lat="45.64868" lon="6.84882">
        <ele>1826</ele>
        <time>2021-03-26T14:04:00Z</time>
      </trkpt>
      <trkpt lat="45.64868" lon="6.84882">
        <ele>1826</ele>
        <time>2021-03-26T14:04:01Z</time>
      </trkpt>
      <trkpt lat="45.64869" lon="6.84882">
        <ele>1826</ele>
        <time>2021-03-26T14:04:02Z</time>
      </trkpt>
      <trkpt lat="45.6487" lon="6.84883">
        <ele>1826.1</ele>
        <time>2021-03-26T14:04:03Z</time>
      </trkpt>
      <trkpt lat="45.6487" lon="6.84883">
        <ele>1826.1</ele>
        <time>2021-03-26T14:04:04Z</time>
      </trkpt>
      <trkpt lat="45.64871" lon="6.84884">
        <ele>1826.1</ele>
        <time>2021-03-26T14:04:05Z</time>
      </trkpt>
      <trkpt lat="45.64871" lon="6.84884">
        <ele>1826.1</ele>
        <time>2021-03-26T14:04:06Z</time>
      </trkpt>
      <trkpt lat="45.64871" lon="6.84884">
        <ele>1826.2</ele>
        <time>2021-03-26T14:04:07Z</time>
      </trkpt>
      <trkpt lat="45.64872" lon="6.84885">
        <ele>1826.2</ele>
        <time>2021-03-26T14:04:08Z</time>
      </trkpt>
      <trkpt lat="45.64873" lon="6.84885">
        <ele>1826.2</ele>
        <time>2021-03-26T14:04:09Z</time>
      </trkpt>
      <trkpt lat="45.64873" lon="6.84885">
        <ele>1826.2</ele>
        <time>2021-03-26T14:04:10Z</time>
      </trkpt>
      <trkpt lat="45.64874" lon="6.84886">
        <ele>1826.3</ele>
        <time>2021-03-26T14:04:11Z</time>
      </trkpt>
      <trkpt lat="45.64875" lon="6.84886">
        <ele>1826.3</ele>
        <time>2021-03-26T14:04:12Z</time>
      </trkpt>
      <trkpt lat="45.64875" lon="6.84886">
        <ele>1826.3</ele>
        <time>2021-03-26T14:04:13Z</time>
      </trkpt>
      <trkpt lat="45.64876" lon="6.84886">
        <ele>1826.4</ele>
        <time>2021-03-26T14:04:14Z</time>
      </trkpt>
      <trkpt lat="45.64877" lon="6.84887">
        <ele>1826.4</ele>
        <time>2021-03-26T14:04:15Z</time>
      </trkpt>
      <trkpt lat="45.64877" lon="6.84887">
        <ele>1826.4</ele>
        <time>2021-03-26T14:04:16Z</time>
      </trkpt>
      <trkpt lat="45.64878" lon="6.84887">
        <ele>1826.5</ele>
        <time>2021-03-26T14:04:17Z</time>
      </trkpt>
      <trkpt lat="45.64879" lon="6.84888">
        <ele>1826.5</ele>
        <time>2021-03-26T14:04:18Z</time>
      </trkpt>
      <trkpt lat="45.6488" lon="6.84888">
        <ele>1826.5</ele>
        <time>2021-03-26T14:04:19Z</time>
      </trkpt>
      <trkpt lat="45.6488" lon="6.84889">
        <ele>1826.6</ele>
        <time>2021-03-26T14:04:20Z</time>
      </trkpt>
      <trkpt lat="45.64881" lon="6.84889">
        <ele>1826.6</ele>
        <time>2021-03-26T14:04:21Z</time>
      </trkpt>
      <trkpt lat="45.64882" lon="6.8489">
        <ele>1826.6</ele>
        <time>2021-03-26T14:04:22Z</time>
      </trkpt>
      <trkpt lat="45.64882" lon="6.8489">
        <ele>1826.7</ele>
        <time>2021-03-26T14:04:23Z</time>
      </trkpt>
      <trkpt lat="45.64883" lon="6.8489">
        <ele>1826.7</ele>
        <time>2021-03-26T14:04:24Z</time>
      </trkpt>
      <trkpt lat="45.64884" lon="6.84891">
        <ele>1826.7</ele>
        <time>2021-03-26T14:04:25Z</time>
      </trkpt>
      <trkpt lat="45.64884" lon="6.84891">
        <ele>1826.8</ele>
        <time>2021-03-26T14:04:26Z</time>
      </trkpt>
      <trkpt lat="45.64885" lon="6.84892">
        <ele>1826.8</ele>
        <time>2021-03-26T14:04:27Z</time>
      </trkpt>
      <trkpt lat="45.64885" lon="6.84893">
        <ele>1826.8</ele>
        <time>2021-03-26T14:04:28Z</time>
      </trkpt>
      <trkpt lat="45.64885" lon="6.84893">
        <ele>1826.8</ele>
        <time>2021-03-26T14:04:29Z</time>
      </trkpt>
      <trkpt lat="45.64885" lon="6.84894">
        <ele>1826.9</ele>
        <time>2021-03-26T14:04:30Z</time>
      </trkpt>
      <trkpt lat="45.64885" lon="6.84894">
        <ele>1826.9</ele>
        <time>2021-03-26T14:04:31Z</time>
      </trkpt>
      <trkpt lat="45.64886" lon="6.84894">
        <ele>1826.9</ele>
        <time>2021-03-26T14:04:32Z</time>
      </trkpt>
      <trkpt lat="45.64886" lon="6.84894">
        <ele>1826.9</ele>
        <time>2021-03-26T14:04:33Z</time>
      </trkpt>
      <trkpt lat="45.64886" lon="6.84893">
        <ele>1826.9</ele>
        <time>2021-03-26T14:04:34Z</time>
      </trkpt>
      <trkpt lat="45.64886" lon="6.84893">
        <ele>1826.9</ele>
        <time>2021-03-26T14:04:35Z</time>
      </trkpt>
      <trkpt lat="45.64886" lon="6.84893">
        <ele>1826.9</ele>
        <time>2021-03-26T14:04:36Z</time>
      </trkpt>
      <trkpt lat="45.64885" lon="6.84893">
        <ele>1827</ele>
        <time>2021-03-26T14:04:37Z</time>
      </trkpt>
      <trkpt lat="45.64884" lon="6.84893">
        <ele>1827</ele>
        <time>2021-03-26T14:04:38Z</time>
      </trkpt>
      <trkpt lat="45.64883" lon="6.84894">
        <ele>1827</ele>
        <time>2021-03-26T14:04:39Z</time>
      </trkpt>
      <trkpt lat="45.64883" lon="6.84894">
        <ele>1827.1</ele>
        <time>2021-03-26T14:04:40Z</time>
      </trkpt>
      <trkpt lat="45.64882" lon="6.84894">
        <ele>1827.1</ele>
        <time>2021-03-26T14:04:41Z</time>
      </trkpt>
      <trkpt lat="45.64881" lon="6.84895">
        <ele>1827.2</ele>
        <time>2021-03-26T14:04:42Z</time>
      </trkpt>
      <trkpt lat="45.6488" lon="6.84895">
        <ele>1827.2</ele>
        <time>2021-03-26T14:04:43Z</time>
      </trkpt>
      <trkpt lat="45.64879" lon="6.84896">
        <ele>1827.3</ele>
        <time>2021-03-26T14:04:44Z</time>
      </trkpt>
      <trkpt lat="45.64879" lon="6.84897">
        <ele>1827.3</ele>
        <time>2021-03-26T14:04:45Z</time>
      </trkpt>
      <trkpt lat="45.64878" lon="6.84897">
        <ele>1827.3</ele>
        <time>2021-03-26T14:04:46Z</time>
      </trkpt>
      <trkpt lat="45.64877" lon="6.84898">
        <ele>1827.4</ele>
        <time>2021-03-26T14:04:47Z</time>
      </trkpt>
      <trkpt lat="45.64877" lon="6.84899">
        <ele>1827.4</ele>
        <time>2021-03-26T14:04:48Z</time>
      </trkpt>
      <trkpt lat="45.64876" lon="6.84899">
        <ele>1827.5</ele>
        <time>2021-03-26T14:04:49Z</time>
      </trkpt>
      <trkpt lat="45.64875" lon="6.849">
        <ele>1827.5</ele>
        <time>2021-03-26T14:04:50Z</time>
      </trkpt>
      <trkpt lat="45.64873" lon="6.849">
        <ele>1827.6</ele>
        <time>2021-03-26T14:04:51Z</time>
      </trkpt>
      <trkpt lat="45.64872" lon="6.84901">
        <ele>1827.7</ele>
        <time>2021-03-26T14:04:52Z</time>
      </trkpt>
      <trkpt lat="45.64871" lon="6.84902">
        <ele>1827.7</ele>
        <time>2021-03-26T14:04:53Z</time>
      </trkpt>
      <trkpt lat="45.6487" lon="6.84902">
        <ele>1827.8</ele>
        <time>2021-03-26T14:04:54Z</time>
      </trkpt>
      <trkpt lat="45.64869" lon="6.84902">
        <ele>1827.8</ele>
        <time>2021-03-26T14:04:55Z</time>
      </trkpt>
      <trkpt lat="45.64869" lon="6.84903">
        <ele>1827.9</ele>
        <time>2021-03-26T14:04:56Z</time>
      </trkpt>
      <trkpt lat="45.64868" lon="6.84903">
        <ele>1827.9</ele>
        <time>2021-03-26T14:04:57Z</time>
      </trkpt>
      <trkpt lat="45.64867" lon="6.84904">
        <ele>1828</ele>
        <time>2021-03-26T14:04:58Z</time>
      </trkpt>
      <trkpt lat="45.64866" lon="6.84904">
        <ele>1828</ele>
        <time>2021-03-26T14:04:59Z</time>
      </trkpt>
      <trkpt lat="45.64865" lon="6.84905">
        <ele>1828.1</ele>
        <time>2021-03-26T14:05:00Z</time>
      </trkpt>
      <trkpt lat="45.64864" lon="6.84906">
        <ele>1828.1</ele>
        <time>2021-03-26T14:05:01Z</time>
      </trkpt>
      <trkpt lat="45.64863" lon="6.84906">
        <ele>1828.2</ele>
        <time>2021-03-26T14:05:02Z</time>
      </trkpt>
      <trkpt lat="45.64863" lon="6.84907">
        <ele>1828.2</ele>
        <time>2021-03-26T14:05:03Z</time>
      </trkpt>
      <trkpt lat="45.64862" lon="6.84907">
        <ele>1828.3</ele>
        <time>2021-03-26T14:05:04Z</time>
      </trkpt>
      <trkpt lat="45.64861" lon="6.84907">
        <ele>1828.3</ele>
        <time>2021-03-26T14:05:05Z</time>
      </trkpt>
      <trkpt lat="45.6486" lon="6.84907">
        <ele>1828.4</ele>
        <time>2021-03-26T14:05:06Z</time>
      </trkpt>
      <trkpt lat="45.64859" lon="6.84907">
        <ele>1828.4</ele>
        <time>2021-03-26T14:05:07Z</time>
      </trkpt>
      <trkpt lat="45.64858" lon="6.84908">
        <ele>1828.5</ele>
        <time>2021-03-26T14:05:08Z</time>
      </trkpt>
      <trkpt lat="45.64857" lon="6.84908">
        <ele>1828.5</ele>
        <time>2021-03-26T14:05:09Z</time>
      </trkpt>
      <trkpt lat="45.64857" lon="6.84908">
        <ele>1828.5</ele>
        <time>2021-03-26T14:05:10Z</time>
      </trkpt>
      <trkpt lat="45.64856" lon="6.84908">
        <ele>1828.5</ele>
        <time>2021-03-26T14:05:11Z</time>
      </trkpt>
      <trkpt lat="45.64855" lon="6.84908">
        <ele>1828.6</ele>
        <time>2021-03-26T14:05:12Z</time>
      </trkpt>
      <trkpt lat="45.64854" lon="6.84908">
        <ele>1828.6</ele>
        <time>2021-03-26T14:05:13Z</time>
      </trkpt>
      <trkpt lat="45.64854" lon="6.84908">
        <ele>1828.6</ele>
        <time>2021-03-26T14:05:14Z</time>
      </trkpt>
      <trkpt lat="45.64853" lon="6.84909">
        <ele>1828.7</ele>
        <time>2021-03-26T14:05:15Z</time>
      </trkpt>
      <trkpt lat="45.64853" lon="6.84909">
        <ele>1828.7</ele>
        <time>2021-03-26T14:05:16Z</time>
      </trkpt>
      <trkpt lat="45.64852" lon="6.8491">
        <ele>1828.7</ele>
        <time>2021-03-26T14:05:17Z</time>
      </trkpt>
      <trkpt lat="45.64851" lon="6.84911">
        <ele>1828.8</ele>
        <time>2021-03-26T14:05:18Z</time>
      </trkpt>
      <trkpt lat="45.64851" lon="6.84911">
        <ele>1828.8</ele>
        <time>2021-03-26T14:05:19Z</time>
      </trkpt>
      <trkpt lat="45.6485" lon="6.84912">
        <ele>1829.2</ele>
        <time>2021-03-26T14:05:20Z</time>
      </trkpt>
      <trkpt lat="45.64849" lon="6.84912">
        <ele>1829.3</ele>
        <time>2021-03-26T14:05:21Z</time>
      </trkpt>
      <trkpt lat="45.64848" lon="6.84911">
        <ele>1829.4</ele>
        <time>2021-03-26T14:05:22Z</time>
      </trkpt>
      <trkpt lat="45.64847" lon="6.84911">
        <ele>1829.4</ele>
        <time>2021-03-26T14:05:23Z</time>
      </trkpt>
      <trkpt lat="45.64846" lon="6.84911">
        <ele>1829.5</ele>
        <time>2021-03-26T14:05:24Z</time>
      </trkpt>
      <trkpt lat="45.64845" lon="6.84911">
        <ele>1829.5</ele>
        <time>2021-03-26T14:05:25Z</time>
      </trkpt>
      <trkpt lat="45.64844" lon="6.84912">
        <ele>1829.6</ele>
        <time>2021-03-26T14:05:26Z</time>
      </trkpt>
      <trkpt lat="45.64844" lon="6.84912">
        <ele>1829.6</ele>
        <time>2021-03-26T14:05:27Z</time>
      </trkpt>
      <trkpt lat="45.64843" lon="6.84912">
        <ele>1829.7</ele>
        <time>2021-03-26T14:05:28Z</time>
      </trkpt>
      <trkpt lat="45.64842" lon="6.84912">
        <ele>1829.8</ele>
        <time>2021-03-26T14:05:29Z</time>
      </trkpt>
      <trkpt lat="45.64841" lon="6.84912">
        <ele>1829.8</ele>
        <time>2021-03-26T14:05:30Z</time>
      </trkpt>
      <trkpt lat="45.6484" lon="6.84912">
        <ele>1829.9</ele>
        <time>2021-03-26T14:05:31Z</time>
      </trkpt>
      <trkpt lat="45.6484" lon="6.84912">
        <ele>1829.9</ele>
        <time>2021-03-26T14:05:32Z</time>
      </trkpt>
      <trkpt lat="45.64839" lon="6.84912">
        <ele>1830</ele>
        <time>2021-03-26T14:05:33Z</time>
      </trkpt>
      <trkpt lat="45.64839" lon="6.84912">
        <ele>1830</ele>
        <time>2021-03-26T14:05:34Z</time>
      </trkpt>
      <trkpt lat="45.64838" lon="6.84913">
        <ele>1830.1</ele>
        <time>2021-03-26T14:05:35Z</time>
      </trkpt>
      <trkpt lat="45.64838" lon="6.84913">
        <ele>1830.1</ele>
        <time>2021-03-26T14:05:36Z</time>
      </trkpt>
      <trkpt lat="45.64837" lon="6.84914">
        <ele>1830.1</ele>
        <time>2021-03-26T14:05:37Z</time>
      </trkpt>
      <trkpt lat="45.64837" lon="6.84914">
        <ele>1830.2</ele>
        <time>2021-03-26T14:05:38Z</time>
      </trkpt>
      <trkpt lat="45.64836" lon="6.84915">
        <ele>1830.2</ele>
        <time>2021-03-26T14:05:39Z</time>
      </trkpt>
      <trkpt lat="45.64836" lon="6.84915">
        <ele>1830.3</ele>
        <time>2021-03-26T14:05:40Z</time>
      </trkpt>
      <trkpt lat="45.64835" lon="6.84915">
        <ele>1830.4</ele>
        <time>2021-03-26T14:05:41Z</time>
      </trkpt>
      <trkpt lat="45.64834" lon="6.84915">
        <ele>1830.4</ele>
        <time>2021-03-26T14:05:42Z</time>
      </trkpt>
      <trkpt lat="45.64833" lon="6.84915">
        <ele>1830.5</ele>
        <time>2021-03-26T14:05:43Z</time>
      </trkpt>
      <trkpt lat="45.64832" lon="6.84916">
        <ele>1830.6</ele>
        <time>2021-03-26T14:05:44Z</time>
      </trkpt>
      <trkpt lat="45.64832" lon="6.84916">
        <ele>1830.6</ele>
        <time>2021-03-26T14:05:45Z</time>
      </trkpt>
      <trkpt lat="45.64831" lon="6.84917">
        <ele>1830.7</ele>
        <time>2021-03-26T14:05:46Z</time>
      </trkpt>
      <trkpt lat="45.6483" lon="6.84916">
        <ele>1830.8</ele>
        <time>2021-03-26T14:05:47Z</time>
      </trkpt>
      <trkpt lat="45.64829" lon="6.84916">
        <ele>1830.9</ele>
        <time>2021-03-26T14:05:48Z</time>
      </trkpt>
      <trkpt lat="45.64827" lon="6.84915">
        <ele>1831</ele>
        <time>2021-03-26T14:05:49Z</time>
      </trkpt>
      <trkpt lat="45.64827" lon="6.84915">
        <ele>1831.1</ele>
        <time>2021-03-26T14:05:50Z</time>
      </trkpt>
      <trkpt lat="45.64826" lon="6.84915">
        <ele>1831.1</ele>
        <time>2021-03-26T14:05:51Z</time>
      </trkpt>
      <trkpt lat="45.64825" lon="6.84915">
        <ele>1831.2</ele>
        <time>2021-03-26T14:05:52Z</time>
      </trkpt>
      <trkpt lat="45.64825" lon="6.84915">
        <ele>1831.2</ele>
        <time>2021-03-26T14:05:53Z</time>
      </trkpt>
      <trkpt lat="45.64824" lon="6.84916">
        <ele>1831.3</ele>
        <time>2021-03-26T14:05:54Z</time>
      </trkpt>
      <trkpt lat="45.64824" lon="6.84916">
        <ele>1831.3</ele>
        <time>2021-03-26T14:05:55Z</time>
      </trkpt>
      <trkpt lat="45.64824" lon="6.84917">
        <ele>1831.4</ele>
        <time>2021-03-26T14:05:56Z</time>
      </trkpt>
      <trkpt lat="45.64823" lon="6.84917">
        <ele>1831.4</ele>
        <time>2021-03-26T14:05:57Z</time>
      </trkpt>
      <trkpt lat="45.64823" lon="6.84918">
        <ele>1831.4</ele>
        <time>2021-03-26T14:05:58Z</time>
      </trkpt>
      <trkpt lat="45.64822" lon="6.84918">
        <ele>1831.5</ele>
        <time>2021-03-26T14:05:59Z</time>
      </trkpt>
      <trkpt lat="45.64821" lon="6.84917">
        <ele>1831.6</ele>
        <time>2021-03-26T14:06:00Z</time>
      </trkpt>
      <trkpt lat="45.6482" lon="6.84917">
        <ele>1831.7</ele>
        <time>2021-03-26T14:06:01Z</time>
      </trkpt>
      <trkpt lat="45.64818" lon="6.84916">
        <ele>1831.8</ele>
        <time>2021-03-26T14:06:02Z</time>
      </trkpt>
      <trkpt lat="45.64817" lon="6.84916">
        <ele>1831.9</ele>
        <time>2021-03-26T14:06:03Z</time>
      </trkpt>
      <trkpt lat="45.64816" lon="6.84916">
        <ele>1832</ele>
        <time>2021-03-26T14:06:04Z</time>
      </trkpt>
      <trkpt lat="45.64815" lon="6.84916">
        <ele>1832.1</ele>
        <time>2021-03-26T14:06:05Z</time>
      </trkpt>
      <trkpt lat="45.64814" lon="6.84916">
        <ele>1832.2</ele>
        <time>2021-03-26T14:06:06Z</time>
      </trkpt>
      <trkpt lat="45.64813" lon="6.84916">
        <ele>1832.3</ele>
        <time>2021-03-26T14:06:07Z</time>
      </trkpt>
      <trkpt lat="45.64812" lon="6.84916">
        <ele>1832.4</ele>
        <time>2021-03-26T14:06:08Z</time>
      </trkpt>
      <trkpt lat="45.64811" lon="6.84917">
        <ele>1832.4</ele>
        <time>2021-03-26T14:06:09Z</time>
      </trkpt>
      <trkpt lat="45.6481" lon="6.84918">
        <ele>1832.5</ele>
        <time>2021-03-26T14:06:10Z</time>
      </trkpt>
      <trkpt lat="45.64809" lon="6.84918">
        <ele>1832.9</ele>
        <time>2021-03-26T14:06:11Z</time>
      </trkpt>
      <trkpt lat="45.64809" lon="6.84919">
        <ele>1832.9</ele>
        <time>2021-03-26T14:06:12Z</time>
      </trkpt>
      <trkpt lat="45.64808" lon="6.84919">
        <ele>1832.9</ele>
        <time>2021-03-26T14:06:13Z</time>
      </trkpt>
      <trkpt lat="45.64807" lon="6.8492">
        <ele>1833.2</ele>
        <time>2021-03-26T14:06:14Z</time>
      </trkpt>
      <trkpt lat="45.64806" lon="6.84921">
        <ele>1834.4</ele>
        <time>2021-03-26T14:06:15Z</time>
      </trkpt>
      <trkpt lat="45.64805" lon="6.84921">
        <ele>1834.4</ele>
        <time>2021-03-26T14:06:16Z</time>
      </trkpt>
      <trkpt lat="45.64804" lon="6.84921">
        <ele>1834.4</ele>
        <time>2021-03-26T14:06:17Z</time>
      </trkpt>
      <trkpt lat="45.64803" lon="6.84921">
        <ele>1834.8</ele>
        <time>2021-03-26T14:06:18Z</time>
      </trkpt>
      <trkpt lat="45.64803" lon="6.84922">
        <ele>1834.8</ele>
        <time>2021-03-26T14:06:19Z</time>
      </trkpt>
      <trkpt lat="45.64802" lon="6.84923">
        <ele>1834.8</ele>
        <time>2021-03-26T14:06:20Z</time>
      </trkpt>
      <trkpt lat="45.64802" lon="6.84923">
        <ele>1834.8</ele>
        <time>2021-03-26T14:06:21Z</time>
      </trkpt>
      <trkpt lat="45.64801" lon="6.84924">
        <ele>1834.8</ele>
        <time>2021-03-26T14:06:22Z</time>
      </trkpt>
      <trkpt lat="45.64801" lon="6.84924">
        <ele>1834.8</ele>
        <time>2021-03-26T14:06:23Z</time>
      </trkpt>
      <trkpt lat="45.64801" lon="6.84924">
        <ele>1835.1</ele>
        <time>2021-03-26T14:06:24Z</time>
      </trkpt>
      <trkpt lat="45.64801" lon="6.84925">
        <ele>1836.2</ele>
        <time>2021-03-26T14:06:25Z</time>
      </trkpt>
      <trkpt lat="45.64801" lon="6.84926">
        <ele>1836.2</ele>
        <time>2021-03-26T14:06:26Z</time>
      </trkpt>
      <trkpt lat="45.648" lon="6.84927">
        <ele>1836.2</ele>
        <time>2021-03-26T14:06:27Z</time>
      </trkpt>
      <trkpt lat="45.648" lon="6.84928">
        <ele>1836.2</ele>
        <time>2021-03-26T14:06:28Z</time>
      </trkpt>
      <trkpt lat="45.64799" lon="6.84928">
        <ele>1836.2</ele>
        <time>2021-03-26T14:06:29Z</time>
      </trkpt>
      <trkpt lat="45.64798" lon="6.84929">
        <ele>1837.2</ele>
        <time>2021-03-26T14:06:30Z</time>
      </trkpt>
      <trkpt lat="45.64798" lon="6.8493">
        <ele>1837.6</ele>
        <time>2021-03-26T14:06:31Z</time>
      </trkpt>
      <trkpt lat="45.64797" lon="6.8493">
        <ele>1837.6</ele>
        <time>2021-03-26T14:06:32Z</time>
      </trkpt>
      <trkpt lat="45.64796" lon="6.8493">
        <ele>1837.6</ele>
        <time>2021-03-26T14:06:33Z</time>
      </trkpt>
      <trkpt lat="45.64795" lon="6.8493">
        <ele>1838</ele>
        <time>2021-03-26T14:06:34Z</time>
      </trkpt>
      <trkpt lat="45.64794" lon="6.8493">
        <ele>1838</ele>
        <time>2021-03-26T14:06:35Z</time>
      </trkpt>
      <trkpt lat="45.64793" lon="6.8493">
        <ele>1838</ele>
        <time>2021-03-26T14:06:36Z</time>
      </trkpt>
      <trkpt lat="45.64792" lon="6.8493">
        <ele>1838</ele>
        <time>2021-03-26T14:06:37Z</time>
      </trkpt>
      <trkpt lat="45.64792" lon="6.8493">
        <ele>1838.3</ele>
        <time>2021-03-26T14:06:38Z</time>
      </trkpt>
      <trkpt lat="45.64791" lon="6.8493">
        <ele>1838.3</ele>
        <time>2021-03-26T14:06:39Z</time>
      </trkpt>
      <trkpt lat="45.64791" lon="6.84929">
        <ele>1838.3</ele>
        <time>2021-03-26T14:06:40Z</time>
      </trkpt>
      <trkpt lat="45.6479" lon="6.84929">
        <ele>1837.2</ele>
        <time>2021-03-26T14:06:41Z</time>
      </trkpt>
      <trkpt lat="45.6479" lon="6.84928">
        <ele>1837.2</ele>
        <time>2021-03-26T14:06:42Z</time>
      </trkpt>
      <trkpt lat="45.64789" lon="6.84927">
        <ele>1837.6</ele>
        <time>2021-03-26T14:06:43Z</time>
      </trkpt>
      <trkpt lat="45.64788" lon="6.84926">
        <ele>1837.6</ele>
        <time>2021-03-26T14:06:44Z</time>
      </trkpt>
      <trkpt lat="45.64787" lon="6.84925">
        <ele>1837.6</ele>
        <time>2021-03-26T14:06:45Z</time>
      </trkpt>
      <trkpt lat="45.64786" lon="6.84924">
        <ele>1836.5</ele>
        <time>2021-03-26T14:06:46Z</time>
      </trkpt>
      <trkpt lat="45.64785" lon="6.84924">
        <ele>1836.9</ele>
        <time>2021-03-26T14:06:47Z</time>
      </trkpt>
      <trkpt lat="45.64785" lon="6.84923">
        <ele>1836.9</ele>
        <time>2021-03-26T14:06:48Z</time>
      </trkpt>
      <trkpt lat="45.64785" lon="6.84923">
        <ele>1836.9</ele>
        <time>2021-03-26T14:06:49Z</time>
      </trkpt>
      <trkpt lat="45.64784" lon="6.84922">
        <ele>1836.9</ele>
        <time>2021-03-26T14:06:50Z</time>
      </trkpt>
      <trkpt lat="45.64784" lon="6.84922">
        <ele>1836.9</ele>
        <time>2021-03-26T14:06:51Z</time>
      </trkpt>
      <trkpt lat="45.64784" lon="6.84922">
        <ele>1836.9</ele>
        <time>2021-03-26T14:06:52Z</time>
      </trkpt>
      <trkpt lat="45.64783" lon="6.84922">
        <ele>1836.9</ele>
        <time>2021-03-26T14:06:53Z</time>
      </trkpt>
      <trkpt lat="45.64782" lon="6.84922">
        <ele>1837.3</ele>
        <time>2021-03-26T14:06:54Z</time>
      </trkpt>
      <trkpt lat="45.64781" lon="6.84921">
        <ele>1837.3</ele>
        <time>2021-03-26T14:06:55Z</time>
      </trkpt>
      <trkpt lat="45.64781" lon="6.84921">
        <ele>1837.3</ele>
        <time>2021-03-26T14:06:56Z</time>
      </trkpt>
      <trkpt lat="45.6478" lon="6.84921">
        <ele>1837.3</ele>
        <time>2021-03-26T14:06:57Z</time>
      </trkpt>
      <trkpt lat="45.64779" lon="6.8492">
        <ele>1836.6</ele>
        <time>2021-03-26T14:06:58Z</time>
      </trkpt>
      <trkpt lat="45.64779" lon="6.8492">
        <ele>1836.6</ele>
        <time>2021-03-26T14:06:59Z</time>
      </trkpt>
      <trkpt lat="45.64778" lon="6.8492">
        <ele>1836.6</ele>
        <time>2021-03-26T14:07:00Z</time>
      </trkpt>
      <trkpt lat="45.64777" lon="6.8492">
        <ele>1836.6</ele>
        <time>2021-03-26T14:07:01Z</time>
      </trkpt>
      <trkpt lat="45.64777" lon="6.8492">
        <ele>1837.1</ele>
        <time>2021-03-26T14:07:02Z</time>
      </trkpt>
      <trkpt lat="45.64776" lon="6.8492">
        <ele>1837.1</ele>
        <time>2021-03-26T14:07:03Z</time>
      </trkpt>
      <trkpt lat="45.64775" lon="6.8492">
        <ele>1837.1</ele>
        <time>2021-03-26T14:07:04Z</time>
      </trkpt>
      <trkpt lat="45.64775" lon="6.8492">
        <ele>1837.1</ele>
        <time>2021-03-26T14:07:05Z</time>
      </trkpt>
      <trkpt lat="45.64774" lon="6.8492">
        <ele>1837.7</ele>
        <time>2021-03-26T14:07:06Z</time>
      </trkpt>
      <trkpt lat="45.64773" lon="6.8492">
        <ele>1837.7</ele>
        <time>2021-03-26T14:07:07Z</time>
      </trkpt>
      <trkpt lat="45.64772" lon="6.8492">
        <ele>1837.7</ele>
        <time>2021-03-26T14:07:08Z</time>
      </trkpt>
      <trkpt lat="45.64772" lon="6.8492">
        <ele>1837.7</ele>
        <time>2021-03-26T14:07:09Z</time>
      </trkpt>
      <trkpt lat="45.64771" lon="6.8492">
        <ele>1838.2</ele>
        <time>2021-03-26T14:07:10Z</time>
      </trkpt>
      <trkpt lat="45.6477" lon="6.8492">
        <ele>1838.2</ele>
        <time>2021-03-26T14:07:11Z</time>
      </trkpt>
      <trkpt lat="45.64769" lon="6.84919">
        <ele>1838.2</ele>
        <time>2021-03-26T14:07:12Z</time>
      </trkpt>
      <trkpt lat="45.64768" lon="6.84919">
        <ele>1838.2</ele>
        <time>2021-03-26T14:07:13Z</time>
      </trkpt>
      <trkpt lat="45.64768" lon="6.84919">
        <ele>1838.6</ele>
        <time>2021-03-26T14:07:14Z</time>
      </trkpt>
      <trkpt lat="45.64767" lon="6.84919">
        <ele>1838.6</ele>
        <time>2021-03-26T14:07:15Z</time>
      </trkpt>
      <trkpt lat="45.64767" lon="6.84919">
        <ele>1838.6</ele>
        <time>2021-03-26T14:07:16Z</time>
      </trkpt>
      <trkpt lat="45.64766" lon="6.8492">
        <ele>1838.6</ele>
        <time>2021-03-26T14:07:17Z</time>
      </trkpt>
      <trkpt lat="45.64766" lon="6.8492">
        <ele>1838.6</ele>
        <time>2021-03-26T14:07:18Z</time>
      </trkpt>
      <trkpt lat="45.64765" lon="6.8492">
        <ele>1838.6</ele>
        <time>2021-03-26T14:07:19Z</time>
      </trkpt>
      <trkpt lat="45.64765" lon="6.8492">
        <ele>1839.1</ele>
        <time>2021-03-26T14:07:20Z</time>
      </trkpt>
      <trkpt lat="45.64764" lon="6.8492">
        <ele>1839.1</ele>
        <time>2021-03-26T14:07:21Z</time>
      </trkpt>
      <trkpt lat="45.64764" lon="6.8492">
        <ele>1840.3</ele>
        <time>2021-03-26T14:07:22Z</time>
      </trkpt>
      <trkpt lat="45.64763" lon="6.84921">
        <ele>1840.3</ele>
        <time>2021-03-26T14:07:23Z</time>
      </trkpt>
      <trkpt lat="45.64763" lon="6.84921">
        <ele>1840.3</ele>
        <time>2021-03-26T14:07:24Z</time>
      </trkpt>
      <trkpt lat="45.64763" lon="6.84921">
        <ele>1840.3</ele>
        <time>2021-03-26T14:07:25Z</time>
      </trkpt>
      <trkpt lat="45.64763" lon="6.84922">
        <ele>1840.3</ele>
        <time>2021-03-26T14:07:26Z</time>
      </trkpt>
      <trkpt lat="45.64762" lon="6.84923">
        <ele>1840.3</ele>
        <time>2021-03-26T14:07:27Z</time>
      </trkpt>
      <trkpt lat="45.64762" lon="6.84924">
        <ele>1840.3</ele>
        <time>2021-03-26T14:07:28Z</time>
      </trkpt>
      <trkpt lat="45.64762" lon="6.84924">
        <ele>1840.3</ele>
        <time>2021-03-26T14:07:29Z</time>
      </trkpt>
      <trkpt lat="45.64762" lon="6.84924">
        <ele>1840.3</ele>
        <time>2021-03-26T14:07:30Z</time>
      </trkpt>
      <trkpt lat="45.64762" lon="6.84925">
        <ele>1840.8</ele>
        <time>2021-03-26T14:07:31Z</time>
      </trkpt>
      <trkpt lat="45.64761" lon="6.84925">
        <ele>1841.9</ele>
        <time>2021-03-26T14:07:32Z</time>
      </trkpt>
      <trkpt lat="45.64761" lon="6.84926">
        <ele>1841.9</ele>
        <time>2021-03-26T14:07:33Z</time>
      </trkpt>
      <trkpt lat="45.64761" lon="6.84926">
        <ele>1841.9</ele>
        <time>2021-03-26T14:07:34Z</time>
      </trkpt>
      <trkpt lat="45.64761" lon="6.84927">
        <ele>1841.9</ele>
        <time>2021-03-26T14:07:35Z</time>
      </trkpt>
      <trkpt lat="45.64761" lon="6.84927">
        <ele>1841.9</ele>
        <time>2021-03-26T14:07:36Z</time>
      </trkpt>
      <trkpt lat="45.64761" lon="6.84928">
        <ele>1841.9</ele>
        <time>2021-03-26T14:07:37Z</time>
      </trkpt>
      <trkpt lat="45.64761" lon="6.84928">
        <ele>1841.9</ele>
        <time>2021-03-26T14:07:38Z</time>
      </trkpt>
      <trkpt lat="45.6476" lon="6.84928">
        <ele>1841.9</ele>
        <time>2021-03-26T14:07:39Z</time>
      </trkpt>
      <trkpt lat="45.6476" lon="6.84929">
        <ele>1841.9</ele>
        <time>2021-03-26T14:07:40Z</time>
      </trkpt>
      <trkpt lat="45.64759" lon="6.84929">
        <ele>1843.1</ele>
        <time>2021-03-26T14:07:41Z</time>
      </trkpt>
      <trkpt lat="45.64759" lon="6.8493">
        <ele>1843.1</ele>
        <time>2021-03-26T14:07:42Z</time>
      </trkpt>
      <trkpt lat="45.64759" lon="6.84931">
        <ele>1843.1</ele>
        <time>2021-03-26T14:07:43Z</time>
      </trkpt>
      <trkpt lat="45.64759" lon="6.84931">
        <ele>1843.1</ele>
        <time>2021-03-26T14:07:44Z</time>
      </trkpt>
      <trkpt lat="45.64759" lon="6.84932">
        <ele>1843.7</ele>
        <time>2021-03-26T14:07:45Z</time>
      </trkpt>
      <trkpt lat="45.64758" lon="6.84933">
        <ele>1843.7</ele>
        <time>2021-03-26T14:07:46Z</time>
      </trkpt>
      <trkpt lat="45.64758" lon="6.84934">
        <ele>1844.9</ele>
        <time>2021-03-26T14:07:47Z</time>
      </trkpt>
      <trkpt lat="45.64758" lon="6.84935">
        <ele>1844.9</ele>
        <time>2021-03-26T14:07:48Z</time>
      </trkpt>
      <trkpt lat="45.64757" lon="6.84936">
        <ele>1844.9</ele>
        <time>2021-03-26T14:07:49Z</time>
      </trkpt>
      <trkpt lat="45.64757" lon="6.84937">
        <ele>1844.9</ele>
        <time>2021-03-26T14:07:50Z</time>
      </trkpt>
      <trkpt lat="45.64757" lon="6.84938">
        <ele>1846.1</ele>
        <time>2021-03-26T14:07:51Z</time>
      </trkpt>
      <trkpt lat="45.64756" lon="6.84939">
        <ele>1846.1</ele>
        <time>2021-03-26T14:07:52Z</time>
      </trkpt>
      <trkpt lat="45.64756" lon="6.8494">
        <ele>1846.1</ele>
        <time>2021-03-26T14:07:53Z</time>
      </trkpt>
      <trkpt lat="45.64755" lon="6.84941">
        <ele>1846.9</ele>
        <time>2021-03-26T14:07:54Z</time>
      </trkpt>
      <trkpt lat="45.64755" lon="6.84941">
        <ele>1846.9</ele>
        <time>2021-03-26T14:07:55Z</time>
      </trkpt>
      <trkpt lat="45.64755" lon="6.84941">
        <ele>1846.9</ele>
        <time>2021-03-26T14:07:56Z</time>
      </trkpt>
      <trkpt lat="45.64754" lon="6.84942">
        <ele>1848.2</ele>
        <time>2021-03-26T14:07:57Z</time>
      </trkpt>
      <trkpt lat="45.64754" lon="6.84942">
        <ele>1848.2</ele>
        <time>2021-03-26T14:07:58Z</time>
      </trkpt>
      <trkpt lat="45.64753" lon="6.84943">
        <ele>1848.2</ele>
        <time>2021-03-26T14:07:59Z</time>
      </trkpt>
      <trkpt lat="45.64752" lon="6.84943">
        <ele>1849.4</ele>
        <time>2021-03-26T14:08:00Z</time>
      </trkpt>
      <trkpt lat="45.64751" lon="6.84943">
        <ele>1849.8</ele>
        <time>2021-03-26T14:08:01Z</time>
      </trkpt>
      <trkpt lat="45.6475" lon="6.84943">
        <ele>1850.2</ele>
        <time>2021-03-26T14:08:02Z</time>
      </trkpt>
      <trkpt lat="45.64749" lon="6.84943">
        <ele>1851.3</ele>
        <time>2021-03-26T14:08:03Z</time>
      </trkpt>
      <trkpt lat="45.64748" lon="6.84943">
        <ele>1851.8</ele>
        <time>2021-03-26T14:08:04Z</time>
      </trkpt>
      <trkpt lat="45.64747" lon="6.84943">
        <ele>1852.2</ele>
        <time>2021-03-26T14:08:05Z</time>
      </trkpt>
      <trkpt lat="45.64747" lon="6.84942">
        <ele>1853.3</ele>
        <time>2021-03-26T14:08:06Z</time>
      </trkpt>
      <trkpt lat="45.64746" lon="6.84942">
        <ele>1853.7</ele>
        <time>2021-03-26T14:08:07Z</time>
      </trkpt>
      <trkpt lat="45.64745" lon="6.84942">
        <ele>1854.1</ele>
        <time>2021-03-26T14:08:08Z</time>
      </trkpt>
      <trkpt lat="45.64745" lon="6.84942">
        <ele>1854.5</ele>
        <time>2021-03-26T14:08:09Z</time>
      </trkpt>
      <trkpt lat="45.64744" lon="6.84942">
        <ele>1854.9</ele>
        <time>2021-03-26T14:08:10Z</time>
      </trkpt>
      <trkpt lat="45.64744" lon="6.84942">
        <ele>1856</ele>
        <time>2021-03-26T14:08:11Z</time>
      </trkpt>
      <trkpt lat="45.64743" lon="6.84943">
        <ele>1856.4</ele>
        <time>2021-03-26T14:08:12Z</time>
      </trkpt>
      <trkpt lat="45.64742" lon="6.84942">
        <ele>1856.8</ele>
        <time>2021-03-26T14:08:13Z</time>
      </trkpt>
      <trkpt lat="45.64741" lon="6.84942">
        <ele>1857.3</ele>
        <time>2021-03-26T14:08:14Z</time>
      </trkpt>
      <trkpt lat="45.64741" lon="6.84942">
        <ele>1857.1</ele>
        <time>2021-03-26T14:08:15Z</time>
      </trkpt>
      <trkpt lat="45.6474" lon="6.84941">
        <ele>1857.5</ele>
        <time>2021-03-26T14:08:16Z</time>
      </trkpt>
      <trkpt lat="45.6474" lon="6.84941">
        <ele>1857.9</ele>
        <time>2021-03-26T14:08:17Z</time>
      </trkpt>
      <trkpt lat="45.64739" lon="6.84941">
        <ele>1858.3</ele>
        <time>2021-03-26T14:08:18Z</time>
      </trkpt>
      <trkpt lat="45.64738" lon="6.8494">
        <ele>1858.7</ele>
        <time>2021-03-26T14:08:19Z</time>
      </trkpt>
      <trkpt lat="45.64738" lon="6.84939">
        <ele>1859.1</ele>
        <time>2021-03-26T14:08:20Z</time>
      </trkpt>
      <trkpt lat="45.64738" lon="6.84938">
        <ele>1860.1</ele>
        <time>2021-03-26T14:08:21Z</time>
      </trkpt>
      <trkpt lat="45.64737" lon="6.84938">
        <ele>1860.5</ele>
        <time>2021-03-26T14:08:22Z</time>
      </trkpt>
      <trkpt lat="45.64736" lon="6.84937">
        <ele>1859.7</ele>
        <time>2021-03-26T14:08:23Z</time>
      </trkpt>
      <trkpt lat="45.64736" lon="6.84937">
        <ele>1860.2</ele>
        <time>2021-03-26T14:08:24Z</time>
      </trkpt>
      <trkpt lat="45.64735" lon="6.84937">
        <ele>1860.6</ele>
        <time>2021-03-26T14:08:25Z</time>
      </trkpt>
      <trkpt lat="45.64734" lon="6.84937">
        <ele>1861.7</ele>
        <time>2021-03-26T14:08:26Z</time>
      </trkpt>
      <trkpt lat="45.64733" lon="6.84937">
        <ele>1862.1</ele>
        <time>2021-03-26T14:08:27Z</time>
      </trkpt>
      <trkpt lat="45.64732" lon="6.84938">
        <ele>1863.7</ele>
        <time>2021-03-26T14:08:28Z</time>
      </trkpt>
      <trkpt lat="45.64732" lon="6.84938">
        <ele>1864.8</ele>
        <time>2021-03-26T14:08:29Z</time>
      </trkpt>
      <trkpt lat="45.64731" lon="6.84938">
        <ele>1865.2</ele>
        <time>2021-03-26T14:08:30Z</time>
      </trkpt>
      <trkpt lat="45.6473" lon="6.84939">
        <ele>1865.6</ele>
        <time>2021-03-26T14:08:31Z</time>
      </trkpt>
      <trkpt lat="45.64729" lon="6.84939">
        <ele>1866</ele>
        <time>2021-03-26T14:08:32Z</time>
      </trkpt>
      <trkpt lat="45.64729" lon="6.8494">
        <ele>1867.2</ele>
        <time>2021-03-26T14:08:33Z</time>
      </trkpt>
      <trkpt lat="45.64728" lon="6.8494">
        <ele>1867.6</ele>
        <time>2021-03-26T14:08:34Z</time>
      </trkpt>
      <trkpt lat="45.64727" lon="6.8494">
        <ele>1868</ele>
        <time>2021-03-26T14:08:35Z</time>
      </trkpt>
      <trkpt lat="45.64726" lon="6.8494">
        <ele>1868.4</ele>
        <time>2021-03-26T14:08:36Z</time>
      </trkpt>
      <trkpt lat="45.64725" lon="6.84939">
        <ele>1869.6</ele>
        <time>2021-03-26T14:08:37Z</time>
      </trkpt>
      <trkpt lat="45.64724" lon="6.84939">
        <ele>1870</ele>
        <time>2021-03-26T14:08:38Z</time>
      </trkpt>
      <trkpt lat="45.64723" lon="6.84939">
        <ele>1870.4</ele>
        <time>2021-03-26T14:08:39Z</time>
      </trkpt>
      <trkpt lat="45.64722" lon="6.84939">
        <ele>1871.6</ele>
        <time>2021-03-26T14:08:40Z</time>
      </trkpt>
      <trkpt lat="45.64721" lon="6.8494">
        <ele>1872</ele>
        <time>2021-03-26T14:08:41Z</time>
      </trkpt>
      <trkpt lat="45.64721" lon="6.8494">
        <ele>1872.4</ele>
        <time>2021-03-26T14:08:42Z</time>
      </trkpt>
      <trkpt lat="45.6472" lon="6.8494">
        <ele>1872.8</ele>
        <time>2021-03-26T14:08:43Z</time>
      </trkpt>
      <trkpt lat="45.64719" lon="6.84941">
        <ele>1874.2</ele>
        <time>2021-03-26T14:08:44Z</time>
      </trkpt>
      <trkpt lat="45.64718" lon="6.84941">
        <ele>1874.6</ele>
        <time>2021-03-26T14:08:45Z</time>
      </trkpt>
      <trkpt lat="45.64717" lon="6.84941">
        <ele>1875</ele>
        <time>2021-03-26T14:08:46Z</time>
      </trkpt>
      <trkpt lat="45.64717" lon="6.84941">
        <ele>1876.2</ele>
        <time>2021-03-26T14:08:47Z</time>
      </trkpt>
      <trkpt lat="45.64716" lon="6.84941">
        <ele>1876.6</ele>
        <time>2021-03-26T14:08:48Z</time>
      </trkpt>
      <trkpt lat="45.64715" lon="6.84941">
        <ele>1877</ele>
        <time>2021-03-26T14:08:49Z</time>
      </trkpt>
      <trkpt lat="45.64714" lon="6.84942">
        <ele>1877.4</ele>
        <time>2021-03-26T14:08:50Z</time>
      </trkpt>
      <trkpt lat="45.64713" lon="6.84942">
        <ele>1878.7</ele>
        <time>2021-03-26T14:08:51Z</time>
      </trkpt>
      <trkpt lat="45.64712" lon="6.84942">
        <ele>1880.5</ele>
        <time>2021-03-26T14:08:52Z</time>
      </trkpt>
      <trkpt lat="45.64711" lon="6.84942">
        <ele>1880.9</ele>
        <time>2021-03-26T14:08:53Z</time>
      </trkpt>
      <trkpt lat="45.6471" lon="6.84942">
        <ele>1882.1</ele>
        <time>2021-03-26T14:08:54Z</time>
      </trkpt>
      <trkpt lat="45.64709" lon="6.84942">
        <ele>1882.6</ele>
        <time>2021-03-26T14:08:55Z</time>
      </trkpt>
      <trkpt lat="45.64708" lon="6.84942">
        <ele>1883</ele>
        <time>2021-03-26T14:08:56Z</time>
      </trkpt>
      <trkpt lat="45.64708" lon="6.84943">
        <ele>1884.3</ele>
        <time>2021-03-26T14:08:57Z</time>
      </trkpt>
      <trkpt lat="45.64707" lon="6.84943">
        <ele>1884.7</ele>
        <time>2021-03-26T14:08:58Z</time>
      </trkpt>
      <trkpt lat="45.64706" lon="6.84943">
        <ele>1885.1</ele>
        <time>2021-03-26T14:08:59Z</time>
      </trkpt>
      <trkpt lat="45.64705" lon="6.84943">
        <ele>1885.5</ele>
        <time>2021-03-26T14:09:00Z</time>
      </trkpt>
      <trkpt lat="45.64704" lon="6.84942">
        <ele>1886.8</ele>
        <time>2021-03-26T14:09:01Z</time>
      </trkpt>
      <trkpt lat="45.64703" lon="6.84942">
        <ele>1887.2</ele>
        <time>2021-03-26T14:09:02Z</time>
      </trkpt>
      <trkpt lat="45.64702" lon="6.84942">
        <ele>1887.6</ele>
        <time>2021-03-26T14:09:03Z</time>
      </trkpt>
      <trkpt lat="45.64701" lon="6.84942">
        <ele>1889</ele>
        <time>2021-03-26T14:09:04Z</time>
      </trkpt>
      <trkpt lat="45.647" lon="6.84942">
        <ele>1889.4</ele>
        <time>2021-03-26T14:09:05Z</time>
      </trkpt>
      <trkpt lat="45.647" lon="6.84942">
        <ele>1889.8</ele>
        <time>2021-03-26T14:09:06Z</time>
      </trkpt>
      <trkpt lat="45.64699" lon="6.84942">
        <ele>1890.2</ele>
        <time>2021-03-26T14:09:07Z</time>
      </trkpt>
      <trkpt lat="45.64698" lon="6.84941">
        <ele>1890.4</ele>
        <time>2021-03-26T14:09:08Z</time>
      </trkpt>
      <trkpt lat="45.64698" lon="6.84941">
        <ele>1890.8</ele>
        <time>2021-03-26T14:09:09Z</time>
      </trkpt>
      <trkpt lat="45.64697" lon="6.8494">
        <ele>1891.2</ele>
        <time>2021-03-26T14:09:10Z</time>
      </trkpt>
      <trkpt lat="45.64697" lon="6.8494">
        <ele>1891.6</ele>
        <time>2021-03-26T14:09:11Z</time>
      </trkpt>
      <trkpt lat="45.64697" lon="6.8494">
        <ele>1892</ele>
        <time>2021-03-26T14:09:12Z</time>
      </trkpt>
      <trkpt lat="45.64697" lon="6.8494">
        <ele>1892.4</ele>
        <time>2021-03-26T14:09:13Z</time>
      </trkpt>
      <trkpt lat="45.64697" lon="6.8494">
        <ele>1892.9</ele>
        <time>2021-03-26T14:09:14Z</time>
      </trkpt>
      <trkpt lat="45.64697" lon="6.8494">
        <ele>1893.3</ele>
        <time>2021-03-26T14:09:15Z</time>
      </trkpt>
      <trkpt lat="45.64697" lon="6.8494">
        <ele>1893.7</ele>
        <time>2021-03-26T14:09:16Z</time>
      </trkpt>
      <trkpt lat="45.64696" lon="6.8494">
        <ele>1894.1</ele>
        <time>2021-03-26T14:09:17Z</time>
      </trkpt>
      <trkpt lat="45.64696" lon="6.8494">
        <ele>1895.7</ele>
        <time>2021-03-26T14:09:18Z</time>
      </trkpt>
      <trkpt lat="45.64695" lon="6.84939">
        <ele>1896.1</ele>
        <time>2021-03-26T14:09:19Z</time>
      </trkpt>
      <trkpt lat="45.64694" lon="6.84939">
        <ele>1896.5</ele>
        <time>2021-03-26T14:09:20Z</time>
      </trkpt>
      <trkpt lat="45.64694" lon="6.84939">
        <ele>1896.9</ele>
        <time>2021-03-26T14:09:21Z</time>
      </trkpt>
      <trkpt lat="45.64692" lon="6.84936">
        <ele>1897.4</ele>
        <time>2021-03-26T14:09:24Z</time>
      </trkpt>
      <trkpt lat="45.64691" lon="6.84936">
        <ele>1897.8</ele>
        <time>2021-03-26T14:09:25Z</time>
      </trkpt>
      <trkpt lat="45.64691" lon="6.84935">
        <ele>1898.3</ele>
        <time>2021-03-26T14:09:26Z</time>
      </trkpt>
      <trkpt lat="45.64691" lon="6.84935">
        <ele>1898.7</ele>
        <time>2021-03-26T14:09:27Z</time>
      </trkpt>
      <trkpt lat="45.6469" lon="6.84934">
        <ele>1900.3</ele>
        <time>2021-03-26T14:09:28Z</time>
      </trkpt>
      <trkpt lat="45.64689" lon="6.84933">
        <ele>1899.5</ele>
        <time>2021-03-26T14:09:29Z</time>
      </trkpt>
      <trkpt lat="45.64688" lon="6.84932">
        <ele>1899.9</ele>
        <time>2021-03-26T14:09:30Z</time>
      </trkpt>
      <trkpt lat="45.64687" lon="6.84931">
        <ele>1900.3</ele>
        <time>2021-03-26T14:09:31Z</time>
      </trkpt>
      <trkpt lat="45.64686" lon="6.8493">
        <ele>1901.9</ele>
        <time>2021-03-26T14:09:32Z</time>
      </trkpt>
      <trkpt lat="45.64686" lon="6.8493">
        <ele>1902.3</ele>
        <time>2021-03-26T14:09:33Z</time>
      </trkpt>
      <trkpt lat="45.64685" lon="6.84929">
        <ele>1902.7</ele>
        <time>2021-03-26T14:09:34Z</time>
      </trkpt>
      <trkpt lat="45.64684" lon="6.84929">
        <ele>1902</ele>
        <time>2021-03-26T14:09:35Z</time>
      </trkpt>
      <trkpt lat="45.64684" lon="6.84928">
        <ele>1903.5</ele>
        <time>2021-03-26T14:09:36Z</time>
      </trkpt>
      <trkpt lat="45.64683" lon="6.84927">
        <ele>1903.9</ele>
        <time>2021-03-26T14:09:37Z</time>
      </trkpt>
      <trkpt lat="45.64682" lon="6.84927">
        <ele>1904.3</ele>
        <time>2021-03-26T14:09:38Z</time>
      </trkpt>
      <trkpt lat="45.64682" lon="6.84926">
        <ele>1904.7</ele>
        <time>2021-03-26T14:09:39Z</time>
      </trkpt>
      <trkpt lat="45.64681" lon="6.84925">
        <ele>1903.9</ele>
        <time>2021-03-26T14:09:40Z</time>
      </trkpt>
      <trkpt lat="45.64681" lon="6.84924">
        <ele>1904.3</ele>
        <time>2021-03-26T14:09:41Z</time>
      </trkpt>
      <trkpt lat="45.64681" lon="6.84922">
        <ele>1905.3</ele>
        <time>2021-03-26T14:09:42Z</time>
      </trkpt>
      <trkpt lat="45.6468" lon="6.84922">
        <ele>1905.3</ele>
        <time>2021-03-26T14:09:43Z</time>
      </trkpt>
      <trkpt lat="45.6468" lon="6.8492">
        <ele>1905.3</ele>
        <time>2021-03-26T14:09:44Z</time>
      </trkpt>
      <trkpt lat="45.64679" lon="6.8492">
        <ele>1904</ele>
        <time>2021-03-26T14:09:45Z</time>
      </trkpt>
      <trkpt lat="45.64679" lon="6.84919">
        <ele>1904</ele>
        <time>2021-03-26T14:09:46Z</time>
      </trkpt>
      <trkpt lat="45.64678" lon="6.84918">
        <ele>1904</ele>
        <time>2021-03-26T14:09:47Z</time>
      </trkpt>
      <trkpt lat="45.64678" lon="6.84917">
        <ele>1904.9</ele>
        <time>2021-03-26T14:09:48Z</time>
      </trkpt>
      <trkpt lat="45.64677" lon="6.84916">
        <ele>1903.6</ele>
        <time>2021-03-26T14:09:49Z</time>
      </trkpt>
      <trkpt lat="45.64677" lon="6.84915">
        <ele>1903.6</ele>
        <time>2021-03-26T14:09:50Z</time>
      </trkpt>
      <trkpt lat="45.64677" lon="6.84915">
        <ele>1903.6</ele>
        <time>2021-03-26T14:09:51Z</time>
      </trkpt>
      <trkpt lat="45.64677" lon="6.84914">
        <ele>1903.6</ele>
        <time>2021-03-26T14:09:52Z</time>
      </trkpt>
      <trkpt lat="45.64677" lon="6.84913">
        <ele>1903.6</ele>
        <time>2021-03-26T14:09:53Z</time>
      </trkpt>
      <trkpt lat="45.64677" lon="6.84912">
        <ele>1903.6</ele>
        <time>2021-03-26T14:09:54Z</time>
      </trkpt>
      <trkpt lat="45.64677" lon="6.84911">
        <ele>1902.2</ele>
        <time>2021-03-26T14:09:55Z</time>
      </trkpt>
      <trkpt lat="45.64677" lon="6.84911">
        <ele>1902.2</ele>
        <time>2021-03-26T14:09:56Z</time>
      </trkpt>
      <trkpt lat="45.64676" lon="6.8491">
        <ele>1902.2</ele>
        <time>2021-03-26T14:09:57Z</time>
      </trkpt>
      <trkpt lat="45.64676" lon="6.8491">
        <ele>1902.2</ele>
        <time>2021-03-26T14:09:58Z</time>
      </trkpt>
      <trkpt lat="45.64676" lon="6.84909">
        <ele>1902.2</ele>
        <time>2021-03-26T14:09:59Z</time>
      </trkpt>
      <trkpt lat="45.64676" lon="6.84909">
        <ele>1902.2</ele>
        <time>2021-03-26T14:10:00Z</time>
      </trkpt>
      <trkpt lat="45.64676" lon="6.84909">
        <ele>1902.2</ele>
        <time>2021-03-26T14:10:01Z</time>
      </trkpt>
      <trkpt lat="45.64676" lon="6.84909">
        <ele>1902.2</ele>
        <time>2021-03-26T14:10:02Z</time>
      </trkpt>
      <trkpt lat="45.64676" lon="6.84909">
        <ele>1902.2</ele>
        <time>2021-03-26T14:10:03Z</time>
      </trkpt>
      <trkpt lat="45.64675" lon="6.84908">
        <ele>1902.2</ele>
        <time>2021-03-26T14:10:04Z</time>
      </trkpt>
      <trkpt lat="45.64675" lon="6.84908">
        <ele>1903.2</ele>
        <time>2021-03-26T14:10:05Z</time>
      </trkpt>
      <trkpt lat="45.64674" lon="6.84908">
        <ele>1903.2</ele>
        <time>2021-03-26T14:10:06Z</time>
      </trkpt>
      <trkpt lat="45.64674" lon="6.84907">
        <ele>1901.7</ele>
        <time>2021-03-26T14:10:07Z</time>
      </trkpt>
      <trkpt lat="45.64673" lon="6.84907">
        <ele>1901.7</ele>
        <time>2021-03-26T14:10:08Z</time>
      </trkpt>
      <trkpt lat="45.64673" lon="6.84907">
        <ele>1901.7</ele>
        <time>2021-03-26T14:10:09Z</time>
      </trkpt>
      <trkpt lat="45.64672" lon="6.84907">
        <ele>1901.7</ele>
        <time>2021-03-26T14:10:10Z</time>
      </trkpt>
      <trkpt lat="45.64672" lon="6.84906">
        <ele>1902.8</ele>
        <time>2021-03-26T14:10:11Z</time>
      </trkpt>
      <trkpt lat="45.64671" lon="6.84907">
        <ele>1902.8</ele>
        <time>2021-03-26T14:10:12Z</time>
      </trkpt>
      <trkpt lat="45.64671" lon="6.84907">
        <ele>1902.8</ele>
        <time>2021-03-26T14:10:13Z</time>
      </trkpt>
      <trkpt lat="45.6467" lon="6.84907">
        <ele>1902.8</ele>
        <time>2021-03-26T14:10:14Z</time>
      </trkpt>
      <trkpt lat="45.6467" lon="6.84907">
        <ele>1902.8</ele>
        <time>2021-03-26T14:10:15Z</time>
      </trkpt>
      <trkpt lat="45.64669" lon="6.84906">
        <ele>1902.8</ele>
        <time>2021-03-26T14:10:16Z</time>
      </trkpt>
      <trkpt lat="45.64669" lon="6.84906">
        <ele>1903.9</ele>
        <time>2021-03-26T14:10:17Z</time>
      </trkpt>
      <trkpt lat="45.64668" lon="6.84906">
        <ele>1903.9</ele>
        <time>2021-03-26T14:10:18Z</time>
      </trkpt>
      <trkpt lat="45.64667" lon="6.84906">
        <ele>1903.9</ele>
        <time>2021-03-26T14:10:19Z</time>
      </trkpt>
      <trkpt lat="45.64667" lon="6.84906">
        <ele>1903.9</ele>
        <time>2021-03-26T14:10:20Z</time>
      </trkpt>
      <trkpt lat="45.64666" lon="6.84906">
        <ele>1903.9</ele>
        <time>2021-03-26T14:10:21Z</time>
      </trkpt>
      <trkpt lat="45.64666" lon="6.84906">
        <ele>1904.9</ele>
        <time>2021-03-26T14:10:22Z</time>
      </trkpt>
      <trkpt lat="45.64665" lon="6.84906">
        <ele>1904.9</ele>
        <time>2021-03-26T14:10:23Z</time>
      </trkpt>
      <trkpt lat="45.64664" lon="6.84905">
        <ele>1904.9</ele>
        <time>2021-03-26T14:10:24Z</time>
      </trkpt>
      <trkpt lat="45.64664" lon="6.84904">
        <ele>1904.9</ele>
        <time>2021-03-26T14:10:25Z</time>
      </trkpt>
      <trkpt lat="45.64663" lon="6.84904">
        <ele>1906</ele>
        <time>2021-03-26T14:10:26Z</time>
      </trkpt>
      <trkpt lat="45.64662" lon="6.84903">
        <ele>1904.5</ele>
        <time>2021-03-26T14:10:27Z</time>
      </trkpt>
      <trkpt lat="45.64661" lon="6.84902">
        <ele>1904.5</ele>
        <time>2021-03-26T14:10:28Z</time>
      </trkpt>
      <trkpt lat="45.6466" lon="6.84901">
        <ele>1904.5</ele>
        <time>2021-03-26T14:10:29Z</time>
      </trkpt>
      <trkpt lat="45.64659" lon="6.84901">
        <ele>1905.5</ele>
        <time>2021-03-26T14:10:30Z</time>
      </trkpt>
      <trkpt lat="45.64659" lon="6.849">
        <ele>1905.5</ele>
        <time>2021-03-26T14:10:31Z</time>
      </trkpt>
      <trkpt lat="45.64658" lon="6.84899">
        <ele>1905.5</ele>
        <time>2021-03-26T14:10:32Z</time>
      </trkpt>
      <trkpt lat="45.64658" lon="6.84899">
        <ele>1904.1</ele>
        <time>2021-03-26T14:10:33Z</time>
      </trkpt>
      <trkpt lat="45.64657" lon="6.84898">
        <ele>1904.1</ele>
        <time>2021-03-26T14:10:34Z</time>
      </trkpt>
      <trkpt lat="45.64657" lon="6.84898">
        <ele>1905.1</ele>
        <time>2021-03-26T14:10:35Z</time>
      </trkpt>
      <trkpt lat="45.64656" lon="6.84897">
        <ele>1905.1</ele>
        <time>2021-03-26T14:10:36Z</time>
      </trkpt>
      <trkpt lat="45.64656" lon="6.84896">
        <ele>1905.1</ele>
        <time>2021-03-26T14:10:37Z</time>
      </trkpt>
      <trkpt lat="45.64655" lon="6.84896">
        <ele>1905.1</ele>
        <time>2021-03-26T14:10:38Z</time>
      </trkpt>
      <trkpt lat="45.64654" lon="6.84895">
        <ele>1905.1</ele>
        <time>2021-03-26T14:10:39Z</time>
      </trkpt>
      <trkpt lat="45.64653" lon="6.84895">
        <ele>1904.8</ele>
        <time>2021-03-26T14:10:40Z</time>
      </trkpt>
      <trkpt lat="45.64653" lon="6.84894">
        <ele>1904.8</ele>
        <time>2021-03-26T14:10:41Z</time>
      </trkpt>
      <trkpt lat="45.64652" lon="6.84893">
        <ele>1904.8</ele>
        <time>2021-03-26T14:10:42Z</time>
      </trkpt>
      <trkpt lat="45.64651" lon="6.84892">
        <ele>1905.9</ele>
        <time>2021-03-26T14:10:43Z</time>
      </trkpt>
      <trkpt lat="45.6465" lon="6.84891">
        <ele>1905.9</ele>
        <time>2021-03-26T14:10:44Z</time>
      </trkpt>
      <trkpt lat="45.64649" lon="6.8489">
        <ele>1904.6</ele>
        <time>2021-03-26T14:10:45Z</time>
      </trkpt>
      <trkpt lat="45.64648" lon="6.84889">
        <ele>1904.6</ele>
        <time>2021-03-26T14:10:46Z</time>
      </trkpt>
      <trkpt lat="45.64648" lon="6.84888">
        <ele>1905.8</ele>
        <time>2021-03-26T14:10:47Z</time>
      </trkpt>
      <trkpt lat="45.64647" lon="6.84887">
        <ele>1905.8</ele>
        <time>2021-03-26T14:10:48Z</time>
      </trkpt>
      <trkpt lat="45.64646" lon="6.84886">
        <ele>1905.8</ele>
        <time>2021-03-26T14:10:49Z</time>
      </trkpt>
      <trkpt lat="45.64645" lon="6.84885">
        <ele>1904.5</ele>
        <time>2021-03-26T14:10:50Z</time>
      </trkpt>
      <trkpt lat="45.64644" lon="6.84885">
        <ele>1905.8</ele>
        <time>2021-03-26T14:10:51Z</time>
      </trkpt>
      <trkpt lat="45.64643" lon="6.84884">
        <ele>1905.8</ele>
        <time>2021-03-26T14:10:52Z</time>
      </trkpt>
      <trkpt lat="45.64642" lon="6.84883">
        <ele>1905.8</ele>
        <time>2021-03-26T14:10:53Z</time>
      </trkpt>
      <trkpt lat="45.64642" lon="6.84883">
        <ele>1907.1</ele>
        <time>2021-03-26T14:10:54Z</time>
      </trkpt>
      <trkpt lat="45.64641" lon="6.84882">
        <ele>1907.1</ele>
        <time>2021-03-26T14:10:55Z</time>
      </trkpt>
      <trkpt lat="45.64641" lon="6.84882">
        <ele>1905.9</ele>
        <time>2021-03-26T14:10:56Z</time>
      </trkpt>
      <trkpt lat="45.6464" lon="6.84881">
        <ele>1905.9</ele>
        <time>2021-03-26T14:10:57Z</time>
      </trkpt>
      <trkpt lat="45.64639" lon="6.84881">
        <ele>1905.9</ele>
        <time>2021-03-26T14:10:58Z</time>
      </trkpt>
      <trkpt lat="45.64639" lon="6.8488">
        <ele>1907.2</ele>
        <time>2021-03-26T14:10:59Z</time>
      </trkpt>
      <trkpt lat="45.64638" lon="6.8488">
        <ele>1907.2</ele>
        <time>2021-03-26T14:11:00Z</time>
      </trkpt>
      <trkpt lat="45.64638" lon="6.8488">
        <ele>1907.2</ele>
        <time>2021-03-26T14:11:01Z</time>
      </trkpt>
      <trkpt lat="45.64637" lon="6.84879">
        <ele>1907.2</ele>
        <time>2021-03-26T14:11:02Z</time>
      </trkpt>
      <trkpt lat="45.64637" lon="6.84879">
        <ele>1907.2</ele>
        <time>2021-03-26T14:11:03Z</time>
      </trkpt>
      <trkpt lat="45.64636" lon="6.84879">
        <ele>1908.5</ele>
        <time>2021-03-26T14:11:04Z</time>
      </trkpt>
      <trkpt lat="45.64635" lon="6.84879">
        <ele>1908.5</ele>
        <time>2021-03-26T14:11:05Z</time>
      </trkpt>
      <trkpt lat="45.64634" lon="6.84878">
        <ele>1908.5</ele>
        <time>2021-03-26T14:11:06Z</time>
      </trkpt>
      <trkpt lat="45.64633" lon="6.84878">
        <ele>1908.5</ele>
        <time>2021-03-26T14:11:07Z</time>
      </trkpt>
      <trkpt lat="45.64633" lon="6.84877">
        <ele>1908.6</ele>
        <time>2021-03-26T14:11:08Z</time>
      </trkpt>
      <trkpt lat="45.64632" lon="6.84877">
        <ele>1908.6</ele>
        <time>2021-03-26T14:11:09Z</time>
      </trkpt>
      <trkpt lat="45.64631" lon="6.84877">
        <ele>1908.6</ele>
        <time>2021-03-26T14:11:10Z</time>
      </trkpt>
      <trkpt lat="45.64631" lon="6.84877">
        <ele>1908.6</ele>
        <time>2021-03-26T14:11:11Z</time>
      </trkpt>
      <trkpt lat="45.6463" lon="6.84878">
        <ele>1909.8</ele>
        <time>2021-03-26T14:11:12Z</time>
      </trkpt>
      <trkpt lat="45.6463" lon="6.84879">
        <ele>1909.8</ele>
        <time>2021-03-26T14:11:13Z</time>
      </trkpt>
      <trkpt lat="45.64631" lon="6.84879">
        <ele>1909.8</ele>
        <time>2021-03-26T14:11:14Z</time>
      </trkpt>
      <trkpt lat="45.64631" lon="6.8488">
        <ele>1909.8</ele>
        <time>2021-03-26T14:11:15Z</time>
      </trkpt>
      <trkpt lat="45.64631" lon="6.84881">
        <ele>1909.8</ele>
        <time>2021-03-26T14:11:16Z</time>
      </trkpt>
      <trkpt lat="45.64632" lon="6.84882">
        <ele>1911</ele>
        <time>2021-03-26T14:11:17Z</time>
      </trkpt>
      <trkpt lat="45.64632" lon="6.84884">
        <ele>1911</ele>
        <time>2021-03-26T14:11:18Z</time>
      </trkpt>
      <trkpt lat="45.64632" lon="6.84885">
        <ele>1911</ele>
        <time>2021-03-26T14:11:19Z</time>
      </trkpt>
      <trkpt lat="45.64633" lon="6.84886">
        <ele>1911</ele>
        <time>2021-03-26T14:11:20Z</time>
      </trkpt>
      <trkpt lat="45.64633" lon="6.84887">
        <ele>1911</ele>
        <time>2021-03-26T14:11:21Z</time>
      </trkpt>
      <trkpt lat="45.64633" lon="6.84888">
        <ele>1911</ele>
        <time>2021-03-26T14:11:22Z</time>
      </trkpt>
      <trkpt lat="45.64634" lon="6.84889">
        <ele>1911</ele>
        <time>2021-03-26T14:11:23Z</time>
      </trkpt>
      <trkpt lat="45.64634" lon="6.8489">
        <ele>1911</ele>
        <time>2021-03-26T14:11:24Z</time>
      </trkpt>
      <trkpt lat="45.64635" lon="6.8489">
        <ele>1912.3</ele>
        <time>2021-03-26T14:11:25Z</time>
      </trkpt>
      <trkpt lat="45.64635" lon="6.84891">
        <ele>1912.3</ele>
        <time>2021-03-26T14:11:26Z</time>
      </trkpt>
      <trkpt lat="45.64636" lon="6.84891">
        <ele>1912.3</ele>
        <time>2021-03-26T14:11:27Z</time>
      </trkpt>
      <trkpt lat="45.64636" lon="6.84892">
        <ele>1911</ele>
        <time>2021-03-26T14:11:28Z</time>
      </trkpt>
      <trkpt lat="45.64637" lon="6.84893">
        <ele>1911</ele>
        <time>2021-03-26T14:11:29Z</time>
      </trkpt>
      <trkpt lat="45.64637" lon="6.84894">
        <ele>1911</ele>
        <time>2021-03-26T14:11:30Z</time>
      </trkpt>
      <trkpt lat="45.64637" lon="6.84895">
        <ele>1912.3</ele>
        <time>2021-03-26T14:11:31Z</time>
      </trkpt>
      <trkpt lat="45.64637" lon="6.84896">
        <ele>1912.3</ele>
        <time>2021-03-26T14:11:32Z</time>
      </trkpt>
      <trkpt lat="45.64638" lon="6.84897">
        <ele>1912.3</ele>
        <time>2021-03-26T14:11:33Z</time>
      </trkpt>
      <trkpt lat="45.64638" lon="6.84898">
        <ele>1912.3</ele>
        <time>2021-03-26T14:11:34Z</time>
      </trkpt>
      <trkpt lat="45.64638" lon="6.84899">
        <ele>1913.7</ele>
        <time>2021-03-26T14:11:35Z</time>
      </trkpt>
      <trkpt lat="45.64637" lon="6.849">
        <ele>1913.7</ele>
        <time>2021-03-26T14:11:36Z</time>
      </trkpt>
      <trkpt lat="45.64637" lon="6.84901">
        <ele>1913.7</ele>
        <time>2021-03-26T14:11:37Z</time>
      </trkpt>
      <trkpt lat="45.64638" lon="6.84901">
        <ele>1913.7</ele>
        <time>2021-03-26T14:11:38Z</time>
      </trkpt>
      <trkpt lat="45.64638" lon="6.84902">
        <ele>1913.7</ele>
        <time>2021-03-26T14:11:39Z</time>
      </trkpt>
      <trkpt lat="45.64638" lon="6.84903">
        <ele>1913.7</ele>
        <time>2021-03-26T14:11:40Z</time>
      </trkpt>
      <trkpt lat="45.64638" lon="6.84904">
        <ele>1915.1</ele>
        <time>2021-03-26T14:11:41Z</time>
      </trkpt>
      <trkpt lat="45.64639" lon="6.84906">
        <ele>1915.1</ele>
        <time>2021-03-26T14:11:42Z</time>
      </trkpt>
      <trkpt lat="45.64638" lon="6.84907">
        <ele>1915.1</ele>
        <time>2021-03-26T14:11:43Z</time>
      </trkpt>
      <trkpt lat="45.64638" lon="6.84908">
        <ele>1916.5</ele>
        <time>2021-03-26T14:11:44Z</time>
      </trkpt>
      <trkpt lat="45.64639" lon="6.84909">
        <ele>1916.5</ele>
        <time>2021-03-26T14:11:45Z</time>
      </trkpt>
      <trkpt lat="45.64639" lon="6.8491">
        <ele>1916.5</ele>
        <time>2021-03-26T14:11:46Z</time>
      </trkpt>
      <trkpt lat="45.64638" lon="6.84911">
        <ele>1916.5</ele>
        <time>2021-03-26T14:11:47Z</time>
      </trkpt>
      <trkpt lat="45.64638" lon="6.84912">
        <ele>1916.5</ele>
        <time>2021-03-26T14:11:48Z</time>
      </trkpt>
      <trkpt lat="45.64637" lon="6.84912">
        <ele>1917.9</ele>
        <time>2021-03-26T14:11:49Z</time>
      </trkpt>
      <trkpt lat="45.64637" lon="6.84913">
        <ele>1917.9</ele>
        <time>2021-03-26T14:11:50Z</time>
      </trkpt>
      <trkpt lat="45.64636" lon="6.84914">
        <ele>1917.9</ele>
        <time>2021-03-26T14:11:51Z</time>
      </trkpt>
      <trkpt lat="45.64635" lon="6.84914">
        <ele>1919.2</ele>
        <time>2021-03-26T14:11:52Z</time>
      </trkpt>
      <trkpt lat="45.64635" lon="6.84914">
        <ele>1919.2</ele>
        <time>2021-03-26T14:11:53Z</time>
      </trkpt>
      <trkpt lat="45.64634" lon="6.84914">
        <ele>1919.2</ele>
        <time>2021-03-26T14:11:54Z</time>
      </trkpt>
      <trkpt lat="45.64633" lon="6.84913">
        <ele>1919.2</ele>
        <time>2021-03-26T14:11:55Z</time>
      </trkpt>
      <trkpt lat="45.64632" lon="6.84913">
        <ele>1920.5</ele>
        <time>2021-03-26T14:11:56Z</time>
      </trkpt>
      <trkpt lat="45.64632" lon="6.84913">
        <ele>1920.5</ele>
        <time>2021-03-26T14:11:57Z</time>
      </trkpt>
      <trkpt lat="45.64631" lon="6.84912">
        <ele>1920.5</ele>
        <time>2021-03-26T14:11:58Z</time>
      </trkpt>
      <trkpt lat="45.6463" lon="6.84912">
        <ele>1920.5</ele>
        <time>2021-03-26T14:11:59Z</time>
      </trkpt>
      <trkpt lat="45.64629" lon="6.84912">
        <ele>1921.7</ele>
        <time>2021-03-26T14:12:00Z</time>
      </trkpt>
      <trkpt lat="45.64628" lon="6.84912">
        <ele>1921.7</ele>
        <time>2021-03-26T14:12:01Z</time>
      </trkpt>
      <trkpt lat="45.64628" lon="6.84912">
        <ele>1921.7</ele>
        <time>2021-03-26T14:12:02Z</time>
      </trkpt>
      <trkpt lat="45.64626" lon="6.84911">
        <ele>1921.5</ele>
        <time>2021-03-26T14:12:03Z</time>
      </trkpt>
      <trkpt lat="45.64625" lon="6.84911">
        <ele>1921.5</ele>
        <time>2021-03-26T14:12:04Z</time>
      </trkpt>
      <trkpt lat="45.64624" lon="6.84911">
        <ele>1922.6</ele>
        <time>2021-03-26T14:12:05Z</time>
      </trkpt>
      <trkpt lat="45.64623" lon="6.84911">
        <ele>1922.6</ele>
        <time>2021-03-26T14:12:06Z</time>
      </trkpt>
      <trkpt lat="45.64622" lon="6.8491">
        <ele>1922.6</ele>
        <time>2021-03-26T14:12:07Z</time>
      </trkpt>
      <trkpt lat="45.64621" lon="6.8491">
        <ele>1922.6</ele>
        <time>2021-03-26T14:12:08Z</time>
      </trkpt>
      <trkpt lat="45.6462" lon="6.8491">
        <ele>1923.6</ele>
        <time>2021-03-26T14:12:09Z</time>
      </trkpt>
      <trkpt lat="45.6462" lon="6.84909">
        <ele>1923.6</ele>
        <time>2021-03-26T14:12:10Z</time>
      </trkpt>
      <trkpt lat="45.64619" lon="6.84909">
        <ele>1923.6</ele>
        <time>2021-03-26T14:12:11Z</time>
      </trkpt>
      <trkpt lat="45.64618" lon="6.84908">
        <ele>1923.6</ele>
        <time>2021-03-26T14:12:12Z</time>
      </trkpt>
      <trkpt lat="45.64617" lon="6.84908">
        <ele>1924.7</ele>
        <time>2021-03-26T14:12:13Z</time>
      </trkpt>
      <trkpt lat="45.64617" lon="6.84907">
        <ele>1923.4</ele>
        <time>2021-03-26T14:12:14Z</time>
      </trkpt>
      <trkpt lat="45.64616" lon="6.84907">
        <ele>1923.4</ele>
        <time>2021-03-26T14:12:15Z</time>
      </trkpt>
      <trkpt lat="45.64615" lon="6.84906">
        <ele>1923.4</ele>
        <time>2021-03-26T14:12:16Z</time>
      </trkpt>
      <trkpt lat="45.64615" lon="6.84905">
        <ele>1924.5</ele>
        <time>2021-03-26T14:12:17Z</time>
      </trkpt>
      <trkpt lat="45.64614" lon="6.84904">
        <ele>1924.5</ele>
        <time>2021-03-26T14:12:18Z</time>
      </trkpt>
      <trkpt lat="45.64613" lon="6.84904">
        <ele>1924.5</ele>
        <time>2021-03-26T14:12:19Z</time>
      </trkpt>
      <trkpt lat="45.64612" lon="6.84903">
        <ele>1924.5</ele>
        <time>2021-03-26T14:12:20Z</time>
      </trkpt>
      <trkpt lat="45.64612" lon="6.84903">
        <ele>1924.4</ele>
        <time>2021-03-26T14:12:21Z</time>
      </trkpt>
      <trkpt lat="45.64611" lon="6.84902">
        <ele>1924.4</ele>
        <time>2021-03-26T14:12:22Z</time>
      </trkpt>
      <trkpt lat="45.64611" lon="6.84902">
        <ele>1924.4</ele>
        <time>2021-03-26T14:12:23Z</time>
      </trkpt>
      <trkpt lat="45.6461" lon="6.84901">
        <ele>1924.4</ele>
        <time>2021-03-26T14:12:24Z</time>
      </trkpt>
      <trkpt lat="45.64609" lon="6.84901">
        <ele>1924.4</ele>
        <time>2021-03-26T14:12:25Z</time>
      </trkpt>
      <trkpt lat="45.64608" lon="6.849">
        <ele>1925.6</ele>
        <time>2021-03-26T14:12:26Z</time>
      </trkpt>
      <trkpt lat="45.64607" lon="6.849">
        <ele>1925.6</ele>
        <time>2021-03-26T14:12:27Z</time>
      </trkpt>
      <trkpt lat="45.64606" lon="6.84899">
        <ele>1925.6</ele>
        <time>2021-03-26T14:12:28Z</time>
      </trkpt>
      <trkpt lat="45.64606" lon="6.84899">
        <ele>1926.8</ele>
        <time>2021-03-26T14:12:29Z</time>
      </trkpt>
      <trkpt lat="45.64605" lon="6.84899">
        <ele>1925.4</ele>
        <time>2021-03-26T14:12:30Z</time>
      </trkpt>
      <trkpt lat="45.64604" lon="6.84898">
        <ele>1925.4</ele>
        <time>2021-03-26T14:12:31Z</time>
      </trkpt>
      <trkpt lat="45.64603" lon="6.84898">
        <ele>1925.4</ele>
        <time>2021-03-26T14:12:32Z</time>
      </trkpt>
      <trkpt lat="45.64602" lon="6.84898">
        <ele>1926.5</ele>
        <time>2021-03-26T14:12:33Z</time>
      </trkpt>
      <trkpt lat="45.64601" lon="6.84897">
        <ele>1926.5</ele>
        <time>2021-03-26T14:12:34Z</time>
      </trkpt>
      <trkpt lat="45.64601" lon="6.84897">
        <ele>1926.5</ele>
        <time>2021-03-26T14:12:35Z</time>
      </trkpt>
      <trkpt lat="45.646" lon="6.84896">
        <ele>1926.5</ele>
        <time>2021-03-26T14:12:36Z</time>
      </trkpt>
      <trkpt lat="45.646" lon="6.84896">
        <ele>1927.5</ele>
        <time>2021-03-26T14:12:37Z</time>
      </trkpt>
      <trkpt lat="45.64599" lon="6.84895">
        <ele>1927.5</ele>
        <time>2021-03-26T14:12:38Z</time>
      </trkpt>
      <trkpt lat="45.64599" lon="6.84894">
        <ele>1926.2</ele>
        <time>2021-03-26T14:12:39Z</time>
      </trkpt>
      <trkpt lat="45.64598" lon="6.84893">
        <ele>1926.2</ele>
        <time>2021-03-26T14:12:40Z</time>
      </trkpt>
      <trkpt lat="45.64597" lon="6.84893">
        <ele>1926.2</ele>
        <time>2021-03-26T14:12:41Z</time>
      </trkpt>
      <trkpt lat="45.64596" lon="6.84892">
        <ele>1927.2</ele>
        <time>2021-03-26T14:12:42Z</time>
      </trkpt>
      <trkpt lat="45.64596" lon="6.84891">
        <ele>1927.2</ele>
        <time>2021-03-26T14:12:43Z</time>
      </trkpt>
      <trkpt lat="45.64595" lon="6.84891">
        <ele>1927.2</ele>
        <time>2021-03-26T14:12:44Z</time>
      </trkpt>
      <trkpt lat="45.64595" lon="6.84891">
        <ele>1927.2</ele>
        <time>2021-03-26T14:12:45Z</time>
      </trkpt>
      <trkpt lat="45.64594" lon="6.8489">
        <ele>1927.2</ele>
        <time>2021-03-26T14:12:46Z</time>
      </trkpt>
      <trkpt lat="45.64594" lon="6.8489">
        <ele>1926.9</ele>
        <time>2021-03-26T14:12:47Z</time>
      </trkpt>
      <trkpt lat="45.64593" lon="6.8489">
        <ele>1926.9</ele>
        <time>2021-03-26T14:12:48Z</time>
      </trkpt>
      <trkpt lat="45.64593" lon="6.84889">
        <ele>1926.9</ele>
        <time>2021-03-26T14:12:49Z</time>
      </trkpt>
      <trkpt lat="45.64592" lon="6.84889">
        <ele>1926.9</ele>
        <time>2021-03-26T14:12:50Z</time>
      </trkpt>
      <trkpt lat="45.64592" lon="6.84889">
        <ele>1926.9</ele>
        <time>2021-03-26T14:12:51Z</time>
      </trkpt>
      <trkpt lat="45.64591" lon="6.84889">
        <ele>1926.9</ele>
        <time>2021-03-26T14:12:52Z</time>
      </trkpt>
      <trkpt lat="45.64591" lon="6.84888">
        <ele>1928</ele>
        <time>2021-03-26T14:12:53Z</time>
      </trkpt>
      <trkpt lat="45.6459" lon="6.84888">
        <ele>1928</ele>
        <time>2021-03-26T14:12:54Z</time>
      </trkpt>
      <trkpt lat="45.64589" lon="6.84887">
        <ele>1928</ele>
        <time>2021-03-26T14:12:55Z</time>
      </trkpt>
      <trkpt lat="45.64589" lon="6.84887">
        <ele>1928</ele>
        <time>2021-03-26T14:12:56Z</time>
      </trkpt>
      <trkpt lat="45.64589" lon="6.84887">
        <ele>1928</ele>
        <time>2021-03-26T14:12:57Z</time>
      </trkpt>
      <trkpt lat="45.64588" lon="6.84887">
        <ele>1928</ele>
        <time>2021-03-26T14:12:58Z</time>
      </trkpt>
      <trkpt lat="45.64588" lon="6.84887">
        <ele>1929.2</ele>
        <time>2021-03-26T14:12:59Z</time>
      </trkpt>
      <trkpt lat="45.64587" lon="6.84887">
        <ele>1929.2</ele>
        <time>2021-03-26T14:13:00Z</time>
      </trkpt>
      <trkpt lat="45.64587" lon="6.84887">
        <ele>1929.2</ele>
        <time>2021-03-26T14:13:01Z</time>
      </trkpt>
      <trkpt lat="45.64586" lon="6.84887">
        <ele>1929.2</ele>
        <time>2021-03-26T14:13:02Z</time>
      </trkpt>
      <trkpt lat="45.64586" lon="6.84887">
        <ele>1929.2</ele>
        <time>2021-03-26T14:13:03Z</time>
      </trkpt>
      <trkpt lat="45.64585" lon="6.84887">
        <ele>1929.2</ele>
        <time>2021-03-26T14:13:04Z</time>
      </trkpt>
      <trkpt lat="45.64585" lon="6.84888">
        <ele>1930.5</ele>
        <time>2021-03-26T14:13:05Z</time>
      </trkpt>
      <trkpt lat="45.64584" lon="6.84888">
        <ele>1930.5</ele>
        <time>2021-03-26T14:13:06Z</time>
      </trkpt>
      <trkpt lat="45.64584" lon="6.84888">
        <ele>1930.5</ele>
        <time>2021-03-26T14:13:07Z</time>
      </trkpt>
      <trkpt lat="45.64583" lon="6.84889">
        <ele>1930.5</ele>
        <time>2021-03-26T14:13:08Z</time>
      </trkpt>
      <trkpt lat="45.64583" lon="6.84889">
        <ele>1930.5</ele>
        <time>2021-03-26T14:13:09Z</time>
      </trkpt>
      <trkpt lat="45.64582" lon="6.8489">
        <ele>1930.5</ele>
        <time>2021-03-26T14:13:10Z</time>
      </trkpt>
      <trkpt lat="45.64582" lon="6.8489">
        <ele>1931.8</ele>
        <time>2021-03-26T14:13:11Z</time>
      </trkpt>
      <trkpt lat="45.64581" lon="6.8489">
        <ele>1933</ele>
        <time>2021-03-26T14:13:12Z</time>
      </trkpt>
      <trkpt lat="45.64581" lon="6.8489">
        <ele>1933</ele>
        <time>2021-03-26T14:13:13Z</time>
      </trkpt>
      <trkpt lat="45.6458" lon="6.8489">
        <ele>1931.8</ele>
        <time>2021-03-26T14:13:14Z</time>
      </trkpt>
      <trkpt lat="45.6458" lon="6.8489">
        <ele>1931.8</ele>
        <time>2021-03-26T14:13:15Z</time>
      </trkpt>
      <trkpt lat="45.64579" lon="6.8489">
        <ele>1931.8</ele>
        <time>2021-03-26T14:13:16Z</time>
      </trkpt>
      <trkpt lat="45.64579" lon="6.84891">
        <ele>1933</ele>
        <time>2021-03-26T14:13:17Z</time>
      </trkpt>
      <trkpt lat="45.64579" lon="6.84891">
        <ele>1934.3</ele>
        <time>2021-03-26T14:13:18Z</time>
      </trkpt>
      <trkpt lat="45.64578" lon="6.84891">
        <ele>1934.3</ele>
        <time>2021-03-26T14:13:19Z</time>
      </trkpt>
      <trkpt lat="45.64578" lon="6.84891">
        <ele>1934.3</ele>
        <time>2021-03-26T14:13:20Z</time>
      </trkpt>
      <trkpt lat="45.64577" lon="6.84891">
        <ele>1934.3</ele>
        <time>2021-03-26T14:13:21Z</time>
      </trkpt>
      <trkpt lat="45.64577" lon="6.84891">
        <ele>1934.3</ele>
        <time>2021-03-26T14:13:22Z</time>
      </trkpt>
      <trkpt lat="45.64577" lon="6.84891">
        <ele>1934.3</ele>
        <time>2021-03-26T14:13:23Z</time>
      </trkpt>
      <trkpt lat="45.64576" lon="6.84891">
        <ele>1934.3</ele>
        <time>2021-03-26T14:13:24Z</time>
      </trkpt>
      <trkpt lat="45.64576" lon="6.84891">
        <ele>1935.4</ele>
        <time>2021-03-26T14:13:25Z</time>
      </trkpt>
      <trkpt lat="45.64575" lon="6.8489">
        <ele>1934.1</ele>
        <time>2021-03-26T14:13:26Z</time>
      </trkpt>
      <trkpt lat="45.64575" lon="6.8489">
        <ele>1934.1</ele>
        <time>2021-03-26T14:13:27Z</time>
      </trkpt>
      <trkpt lat="45.64575" lon="6.8489">
        <ele>1934.1</ele>
        <time>2021-03-26T14:13:28Z</time>
      </trkpt>
      <trkpt lat="45.64575" lon="6.8489">
        <ele>1934.1</ele>
        <time>2021-03-26T14:13:29Z</time>
      </trkpt>
      <trkpt lat="45.64575" lon="6.8489">
        <ele>1934.1</ele>
        <time>2021-03-26T14:13:30Z</time>
      </trkpt>
      <trkpt lat="45.64575" lon="6.84889">
        <ele>1934.1</ele>
        <time>2021-03-26T14:13:31Z</time>
      </trkpt>
      <trkpt lat="45.64578" lon="6.84895">
        <ele>1935.6</ele>
        <time>2021-03-26T14:13:41Z</time>
      </trkpt>
      <trkpt lat="45.64578" lon="6.84896">
        <ele>1935.6</ele>
        <time>2021-03-26T14:13:42Z</time>
      </trkpt>
      <trkpt lat="45.64579" lon="6.84897">
        <ele>1935.6</ele>
        <time>2021-03-26T14:13:43Z</time>
      </trkpt>
      <trkpt lat="45.64579" lon="6.84897">
        <ele>1934.4</ele>
        <time>2021-03-26T14:13:44Z</time>
      </trkpt>
      <trkpt lat="45.64579" lon="6.84898">
        <ele>1934.4</ele>
        <time>2021-03-26T14:13:45Z</time>
      </trkpt>
      <trkpt lat="45.6458" lon="6.84899">
        <ele>1935.7</ele>
        <time>2021-03-26T14:13:46Z</time>
      </trkpt>
      <trkpt lat="45.6458" lon="6.849">
        <ele>1935.7</ele>
        <time>2021-03-26T14:13:47Z</time>
      </trkpt>
      <trkpt lat="45.6458" lon="6.84901">
        <ele>1935.7</ele>
        <time>2021-03-26T14:13:48Z</time>
      </trkpt>
      <trkpt lat="45.64581" lon="6.84902">
        <ele>1935.7</ele>
        <time>2021-03-26T14:13:49Z</time>
      </trkpt>
      <trkpt lat="45.64581" lon="6.84903">
        <ele>1935.7</ele>
        <time>2021-03-26T14:13:50Z</time>
      </trkpt>
      <trkpt lat="45.64581" lon="6.84904">
        <ele>1937.1</ele>
        <time>2021-03-26T14:13:51Z</time>
      </trkpt>
      <trkpt lat="45.64582" lon="6.84905">
        <ele>1937.1</ele>
        <time>2021-03-26T14:13:52Z</time>
      </trkpt>
      <trkpt lat="45.64582" lon="6.84906">
        <ele>1935.8</ele>
        <time>2021-03-26T14:13:53Z</time>
      </trkpt>
      <trkpt lat="45.64582" lon="6.84906">
        <ele>1935.8</ele>
        <time>2021-03-26T14:13:54Z</time>
      </trkpt>
      <trkpt lat="45.64583" lon="6.84907">
        <ele>1935.8</ele>
        <time>2021-03-26T14:13:55Z</time>
      </trkpt>
      <trkpt lat="45.64583" lon="6.84908">
        <ele>1937.2</ele>
        <time>2021-03-26T14:13:56Z</time>
      </trkpt>
      <trkpt lat="45.64584" lon="6.84909">
        <ele>1937.2</ele>
        <time>2021-03-26T14:13:57Z</time>
      </trkpt>
      <trkpt lat="45.64584" lon="6.8491">
        <ele>1937.2</ele>
        <time>2021-03-26T14:13:58Z</time>
      </trkpt>
      <trkpt lat="45.64584" lon="6.8491">
        <ele>1937.2</ele>
        <time>2021-03-26T14:13:59Z</time>
      </trkpt>
      <trkpt lat="45.64585" lon="6.84911">
        <ele>1937.2</ele>
        <time>2021-03-26T14:14:00Z</time>
      </trkpt>
      <trkpt lat="45.64585" lon="6.84912">
        <ele>1938.5</ele>
        <time>2021-03-26T14:14:01Z</time>
      </trkpt>
      <trkpt lat="45.64585" lon="6.84912">
        <ele>1938.5</ele>
        <time>2021-03-26T14:14:02Z</time>
      </trkpt>
      <trkpt lat="45.64585" lon="6.84913">
        <ele>1938.5</ele>
        <time>2021-03-26T14:14:03Z</time>
      </trkpt>
      <trkpt lat="45.64585" lon="6.84914">
        <ele>1938.5</ele>
        <time>2021-03-26T14:14:04Z</time>
      </trkpt>
      <trkpt lat="45.64584" lon="6.84915">
        <ele>1938.5</ele>
        <time>2021-03-26T14:14:05Z</time>
      </trkpt>
      <trkpt lat="45.64584" lon="6.84916">
        <ele>1938.5</ele>
        <time>2021-03-26T14:14:06Z</time>
      </trkpt>
      <trkpt lat="45.64583" lon="6.84917">
        <ele>1939.8</ele>
        <time>2021-03-26T14:14:07Z</time>
      </trkpt>
      <trkpt lat="45.64583" lon="6.84918">
        <ele>1939.8</ele>
        <time>2021-03-26T14:14:08Z</time>
      </trkpt>
      <trkpt lat="45.64583" lon="6.84919">
        <ele>1939.8</ele>
        <time>2021-03-26T14:14:09Z</time>
      </trkpt>
      <trkpt lat="45.64583" lon="6.8492">
        <ele>1939.8</ele>
        <time>2021-03-26T14:14:10Z</time>
      </trkpt>
      <trkpt lat="45.64583" lon="6.84921">
        <ele>1941.1</ele>
        <time>2021-03-26T14:14:11Z</time>
      </trkpt>
      <trkpt lat="45.64583" lon="6.84921">
        <ele>1941.1</ele>
        <time>2021-03-26T14:14:12Z</time>
      </trkpt>
      <trkpt lat="45.64583" lon="6.84922">
        <ele>1941.1</ele>
        <time>2021-03-26T14:14:13Z</time>
      </trkpt>
      <trkpt lat="45.64583" lon="6.84923">
        <ele>1941.1</ele>
        <time>2021-03-26T14:14:14Z</time>
      </trkpt>
      <trkpt lat="45.64583" lon="6.84923">
        <ele>1941.1</ele>
        <time>2021-03-26T14:14:15Z</time>
      </trkpt>
      <trkpt lat="45.64583" lon="6.84924">
        <ele>1941.1</ele>
        <time>2021-03-26T14:14:16Z</time>
      </trkpt>
      <trkpt lat="45.64583" lon="6.84924">
        <ele>1941.1</ele>
        <time>2021-03-26T14:14:17Z</time>
      </trkpt>
      <trkpt lat="45.64583" lon="6.84925">
        <ele>1942.4</ele>
        <time>2021-03-26T14:14:18Z</time>
      </trkpt>
      <trkpt lat="45.64583" lon="6.84926">
        <ele>1942.4</ele>
        <time>2021-03-26T14:14:19Z</time>
      </trkpt>
      <trkpt lat="45.64584" lon="6.84927">
        <ele>1942.4</ele>
        <time>2021-03-26T14:14:20Z</time>
      </trkpt>
      <trkpt lat="45.64584" lon="6.84928">
        <ele>1942.4</ele>
        <time>2021-03-26T14:14:21Z</time>
      </trkpt>
      <trkpt lat="45.64584" lon="6.84929">
        <ele>1942.4</ele>
        <time>2021-03-26T14:14:22Z</time>
      </trkpt>
      <trkpt lat="45.64584" lon="6.84929">
        <ele>1943.6</ele>
        <time>2021-03-26T14:14:23Z</time>
      </trkpt>
      <trkpt lat="45.64584" lon="6.8493">
        <ele>1943.6</ele>
        <time>2021-03-26T14:14:24Z</time>
      </trkpt>
      <trkpt lat="45.64584" lon="6.84931">
        <ele>1943.6</ele>
        <time>2021-03-26T14:14:25Z</time>
      </trkpt>
      <trkpt lat="45.64584" lon="6.84932">
        <ele>1943.6</ele>
        <time>2021-03-26T14:14:26Z</time>
      </trkpt>
      <trkpt lat="45.64584" lon="6.84933">
        <ele>1943.6</ele>
        <time>2021-03-26T14:14:27Z</time>
      </trkpt>
      <trkpt lat="45.64584" lon="6.84934">
        <ele>1945</ele>
        <time>2021-03-26T14:14:28Z</time>
      </trkpt>
      <trkpt lat="45.64585" lon="6.84934">
        <ele>1945</ele>
        <time>2021-03-26T14:14:29Z</time>
      </trkpt>
      <trkpt lat="45.64585" lon="6.84935">
        <ele>1945</ele>
        <time>2021-03-26T14:14:30Z</time>
      </trkpt>
      <trkpt lat="45.64585" lon="6.84936">
        <ele>1945</ele>
        <time>2021-03-26T14:14:31Z</time>
      </trkpt>
      <trkpt lat="45.64585" lon="6.84937">
        <ele>1943.7</ele>
        <time>2021-03-26T14:14:32Z</time>
      </trkpt>
      <trkpt lat="45.64585" lon="6.84937">
        <ele>1943.7</ele>
        <time>2021-03-26T14:14:33Z</time>
      </trkpt>
      <trkpt lat="45.64586" lon="6.84938">
        <ele>1945.2</ele>
        <time>2021-03-26T14:14:34Z</time>
      </trkpt>
      <trkpt lat="45.64586" lon="6.84939">
        <ele>1945.2</ele>
        <time>2021-03-26T14:14:35Z</time>
      </trkpt>
      <trkpt lat="45.64586" lon="6.84939">
        <ele>1945.2</ele>
        <time>2021-03-26T14:14:36Z</time>
      </trkpt>
      <trkpt lat="45.64586" lon="6.8494">
        <ele>1945.2</ele>
        <time>2021-03-26T14:14:37Z</time>
      </trkpt>
      <trkpt lat="45.64586" lon="6.84941">
        <ele>1945.2</ele>
        <time>2021-03-26T14:14:38Z</time>
      </trkpt>
      <trkpt lat="45.64586" lon="6.84942">
        <ele>1946.7</ele>
        <time>2021-03-26T14:14:39Z</time>
      </trkpt>
      <trkpt lat="45.64586" lon="6.84943">
        <ele>1946.7</ele>
        <time>2021-03-26T14:14:40Z</time>
      </trkpt>
      <trkpt lat="45.64586" lon="6.84944">
        <ele>1946.7</ele>
        <time>2021-03-26T14:14:41Z</time>
      </trkpt>
      <trkpt lat="45.64586" lon="6.84945">
        <ele>1946.7</ele>
        <time>2021-03-26T14:14:42Z</time>
      </trkpt>
      <trkpt lat="45.64586" lon="6.84946">
        <ele>1946.7</ele>
        <time>2021-03-26T14:14:43Z</time>
      </trkpt>
      <trkpt lat="45.64586" lon="6.84946">
        <ele>1948.3</ele>
        <time>2021-03-26T14:14:44Z</time>
      </trkpt>
      <trkpt lat="45.64586" lon="6.84947">
        <ele>1948.3</ele>
        <time>2021-03-26T14:14:45Z</time>
      </trkpt>
      <trkpt lat="45.64585" lon="6.84947">
        <ele>1948.3</ele>
        <time>2021-03-26T14:14:46Z</time>
      </trkpt>
      <trkpt lat="45.64585" lon="6.84947">
        <ele>1948.3</ele>
        <time>2021-03-26T14:14:47Z</time>
      </trkpt>
      <trkpt lat="45.64585" lon="6.84948">
        <ele>1948.3</ele>
        <time>2021-03-26T14:14:48Z</time>
      </trkpt>
      <trkpt lat="45.64585" lon="6.84948">
        <ele>1948.3</ele>
        <time>2021-03-26T14:14:49Z</time>
      </trkpt>
      <trkpt lat="45.64585" lon="6.84949">
        <ele>1948.3</ele>
        <time>2021-03-26T14:14:50Z</time>
      </trkpt>
      <trkpt lat="45.64585" lon="6.84949">
        <ele>1948.3</ele>
        <time>2021-03-26T14:14:51Z</time>
      </trkpt>
      <trkpt lat="45.64585" lon="6.8495">
        <ele>1948.3</ele>
        <time>2021-03-26T14:14:52Z</time>
      </trkpt>
      <trkpt lat="45.64585" lon="6.8495">
        <ele>1948.3</ele>
        <time>2021-03-26T14:14:53Z</time>
      </trkpt>
      <trkpt lat="45.64585" lon="6.84951">
        <ele>1949.9</ele>
        <time>2021-03-26T14:14:54Z</time>
      </trkpt>
      <trkpt lat="45.64585" lon="6.84951">
        <ele>1949.9</ele>
        <time>2021-03-26T14:14:55Z</time>
      </trkpt>
      <trkpt lat="45.64585" lon="6.84951">
        <ele>1949.9</ele>
        <time>2021-03-26T14:14:56Z</time>
      </trkpt>
      <trkpt lat="45.64585" lon="6.84951">
        <ele>1949.9</ele>
        <time>2021-03-26T14:14:57Z</time>
      </trkpt>
      <trkpt lat="45.64585" lon="6.84951">
        <ele>1949.9</ele>
        <time>2021-03-26T14:14:58Z</time>
      </trkpt>
      <trkpt lat="45.64585" lon="6.84951">
        <ele>1949.9</ele>
        <time>2021-03-26T14:14:59Z</time>
      </trkpt>
      <trkpt lat="45.64585" lon="6.84951">
        <ele>1949.9</ele>
        <time>2021-03-26T14:15:00Z</time>
      </trkpt>
      <trkpt lat="45.64585" lon="6.84951">
        <ele>1949.9</ele>
        <time>2021-03-26T14:15:01Z</time>
      </trkpt>
      <trkpt lat="45.64583" lon="6.84949">
        <ele>1949.5</ele>
        <time>2021-03-26T14:15:02Z</time>
      </trkpt>
      <trkpt lat="45.64582" lon="6.84948">
        <ele>1950.7</ele>
        <time>2021-03-26T14:15:03Z</time>
      </trkpt>
      <trkpt lat="45.64581" lon="6.84948">
        <ele>1950.7</ele>
        <time>2021-03-26T14:15:04Z</time>
      </trkpt>
      <trkpt lat="45.6458" lon="6.84946">
        <ele>1950.7</ele>
        <time>2021-03-26T14:15:05Z</time>
      </trkpt>
      <trkpt lat="45.64579" lon="6.84945">
        <ele>1950.3</ele>
        <time>2021-03-26T14:15:06Z</time>
      </trkpt>
      <trkpt lat="45.64578" lon="6.84944">
        <ele>1950.3</ele>
        <time>2021-03-26T14:15:07Z</time>
      </trkpt>
      <trkpt lat="45.64577" lon="6.84943">
        <ele>1950.3</ele>
        <time>2021-03-26T14:15:08Z</time>
      </trkpt>
      <trkpt lat="45.64576" lon="6.84942">
        <ele>1950.3</ele>
        <time>2021-03-26T14:15:09Z</time>
      </trkpt>
      <trkpt lat="45.64576" lon="6.84942">
        <ele>1949.9</ele>
        <time>2021-03-26T14:15:10Z</time>
      </trkpt>
      <trkpt lat="45.64575" lon="6.84941">
        <ele>1949.9</ele>
        <time>2021-03-26T14:15:11Z</time>
      </trkpt>
      <trkpt lat="45.64574" lon="6.8494">
        <ele>1949.9</ele>
        <time>2021-03-26T14:15:12Z</time>
      </trkpt>
      <trkpt lat="45.64574" lon="6.8494">
        <ele>1949.9</ele>
        <time>2021-03-26T14:15:13Z</time>
      </trkpt>
      <trkpt lat="45.64573" lon="6.84939">
        <ele>1949.9</ele>
        <time>2021-03-26T14:15:14Z</time>
      </trkpt>
      <trkpt lat="45.64572" lon="6.84939">
        <ele>1950.9</ele>
        <time>2021-03-26T14:15:15Z</time>
      </trkpt>
      <trkpt lat="45.64572" lon="6.84938">
        <ele>1950.9</ele>
        <time>2021-03-26T14:15:16Z</time>
      </trkpt>
      <trkpt lat="45.64571" lon="6.84938">
        <ele>1950.9</ele>
        <time>2021-03-26T14:15:17Z</time>
      </trkpt>
      <trkpt lat="45.64571" lon="6.84937">
        <ele>1949.5</ele>
        <time>2021-03-26T14:15:18Z</time>
      </trkpt>
      <trkpt lat="45.6457" lon="6.84937">
        <ele>1949.5</ele>
        <time>2021-03-26T14:15:19Z</time>
      </trkpt>
      <trkpt lat="45.6457" lon="6.84937">
        <ele>1950.5</ele>
        <time>2021-03-26T14:15:20Z</time>
      </trkpt>
      <trkpt lat="45.6457" lon="6.84937">
        <ele>1950.5</ele>
        <time>2021-03-26T14:15:21Z</time>
      </trkpt>
      <trkpt lat="45.6457" lon="6.84937">
        <ele>1950.5</ele>
        <time>2021-03-26T14:15:22Z</time>
      </trkpt>
      <trkpt lat="45.6457" lon="6.84937">
        <ele>1950.5</ele>
        <time>2021-03-26T14:15:23Z</time>
      </trkpt>
      <trkpt lat="45.6457" lon="6.84937">
        <ele>1950.5</ele>
        <time>2021-03-26T14:15:24Z</time>
      </trkpt>
      <trkpt lat="45.6457" lon="6.84937">
        <ele>1950.5</ele>
        <time>2021-03-26T14:15:25Z</time>
      </trkpt>
      <trkpt lat="45.6457" lon="6.84937">
        <ele>1950.5</ele>
        <time>2021-03-26T14:15:26Z</time>
      </trkpt>
      <trkpt lat="45.6457" lon="6.84937">
        <ele>1950.5</ele>
        <time>2021-03-26T14:15:27Z</time>
      </trkpt>
      <trkpt lat="45.64569" lon="6.84937">
        <ele>1950.5</ele>
        <time>2021-03-26T14:15:28Z</time>
      </trkpt>
      <trkpt lat="45.64569" lon="6.84937">
        <ele>1950.5</ele>
        <time>2021-03-26T14:15:29Z</time>
      </trkpt>
      <trkpt lat="45.64561" lon="6.84932">
        <ele>1950</ele>
        <time>2021-03-26T14:18:07Z</time>
      </trkpt>
      <trkpt lat="45.6456" lon="6.84931">
        <ele>1950</ele>
        <time>2021-03-26T14:18:08Z</time>
      </trkpt>
      <trkpt lat="45.64559" lon="6.84931">
        <ele>1949.9</ele>
        <time>2021-03-26T14:18:09Z</time>
      </trkpt>
      <trkpt lat="45.64559" lon="6.8493">
        <ele>1949.9</ele>
        <time>2021-03-26T14:18:10Z</time>
      </trkpt>
      <trkpt lat="45.64558" lon="6.8493">
        <ele>1949.9</ele>
        <time>2021-03-26T14:18:11Z</time>
      </trkpt>
      <trkpt lat="45.64557" lon="6.84929">
        <ele>1949.8</ele>
        <time>2021-03-26T14:18:12Z</time>
      </trkpt>
      <trkpt lat="45.64557" lon="6.84929">
        <ele>1949.8</ele>
        <time>2021-03-26T14:18:13Z</time>
      </trkpt>
      <trkpt lat="45.64557" lon="6.84929">
        <ele>1949.8</ele>
        <time>2021-03-26T14:18:14Z</time>
      </trkpt>
      <trkpt lat="45.64556" lon="6.84929">
        <ele>1949.8</ele>
        <time>2021-03-26T14:18:15Z</time>
      </trkpt>
      <trkpt lat="45.64556" lon="6.84928">
        <ele>1949.7</ele>
        <time>2021-03-26T14:18:16Z</time>
      </trkpt>
      <trkpt lat="45.64555" lon="6.84928">
        <ele>1949.7</ele>
        <time>2021-03-26T14:18:17Z</time>
      </trkpt>
      <trkpt lat="45.64555" lon="6.84928">
        <ele>1949.7</ele>
        <time>2021-03-26T14:18:18Z</time>
      </trkpt>
      <trkpt lat="45.64554" lon="6.84927">
        <ele>1949.7</ele>
        <time>2021-03-26T14:18:19Z</time>
      </trkpt>
      <trkpt lat="45.64553" lon="6.84927">
        <ele>1949.6</ele>
        <time>2021-03-26T14:18:20Z</time>
      </trkpt>
      <trkpt lat="45.64553" lon="6.84926">
        <ele>1949.6</ele>
        <time>2021-03-26T14:18:21Z</time>
      </trkpt>
      <trkpt lat="45.64552" lon="6.84926">
        <ele>1949.6</ele>
        <time>2021-03-26T14:18:22Z</time>
      </trkpt>
      <trkpt lat="45.64551" lon="6.84925">
        <ele>1949.5</ele>
        <time>2021-03-26T14:18:23Z</time>
      </trkpt>
      <trkpt lat="45.6455" lon="6.84924">
        <ele>1949.5</ele>
        <time>2021-03-26T14:18:24Z</time>
      </trkpt>
      <trkpt lat="45.64549" lon="6.84924">
        <ele>1949.4</ele>
        <time>2021-03-26T14:18:25Z</time>
      </trkpt>
      <trkpt lat="45.64548" lon="6.84924">
        <ele>1949.4</ele>
        <time>2021-03-26T14:18:26Z</time>
      </trkpt>
      <trkpt lat="45.64548" lon="6.84923">
        <ele>1949.4</ele>
        <time>2021-03-26T14:18:27Z</time>
      </trkpt>
      <trkpt lat="45.64547" lon="6.84923">
        <ele>1949.4</ele>
        <time>2021-03-26T14:18:28Z</time>
      </trkpt>
      <trkpt lat="45.64547" lon="6.84923">
        <ele>1949.3</ele>
        <time>2021-03-26T14:18:29Z</time>
      </trkpt>
      <trkpt lat="45.64547" lon="6.84923">
        <ele>1949.3</ele>
        <time>2021-03-26T14:18:30Z</time>
      </trkpt>
      <trkpt lat="45.64546" lon="6.84923">
        <ele>1949.3</ele>
        <time>2021-03-26T14:18:31Z</time>
      </trkpt>
      <trkpt lat="45.64546" lon="6.84923">
        <ele>1949.3</ele>
        <time>2021-03-26T14:18:32Z</time>
      </trkpt>
      <trkpt lat="45.64545" lon="6.84923">
        <ele>1949.3</ele>
        <time>2021-03-26T14:18:33Z</time>
      </trkpt>
      <trkpt lat="45.64545" lon="6.84923">
        <ele>1949.3</ele>
        <time>2021-03-26T14:18:34Z</time>
      </trkpt>
      <trkpt lat="45.64544" lon="6.84922">
        <ele>1949.2</ele>
        <time>2021-03-26T14:18:35Z</time>
      </trkpt>
      <trkpt lat="45.64544" lon="6.84922">
        <ele>1949.2</ele>
        <time>2021-03-26T14:18:36Z</time>
      </trkpt>
      <trkpt lat="45.64543" lon="6.84922">
        <ele>1949.2</ele>
        <time>2021-03-26T14:18:37Z</time>
      </trkpt>
      <trkpt lat="45.64542" lon="6.84921">
        <ele>1949.1</ele>
        <time>2021-03-26T14:18:38Z</time>
      </trkpt>
      <trkpt lat="45.64541" lon="6.84921">
        <ele>1949.1</ele>
        <time>2021-03-26T14:18:39Z</time>
      </trkpt>
      <trkpt lat="45.64541" lon="6.8492">
        <ele>1949.1</ele>
        <time>2021-03-26T14:18:40Z</time>
      </trkpt>
      <trkpt lat="45.6454" lon="6.8492">
        <ele>1949.1</ele>
        <time>2021-03-26T14:18:41Z</time>
      </trkpt>
      <trkpt lat="45.6454" lon="6.84919">
        <ele>1949</ele>
        <time>2021-03-26T14:18:42Z</time>
      </trkpt>
      <trkpt lat="45.64539" lon="6.84919">
        <ele>1949</ele>
        <time>2021-03-26T14:18:43Z</time>
      </trkpt>
      <trkpt lat="45.64538" lon="6.84919">
        <ele>1949</ele>
        <time>2021-03-26T14:18:44Z</time>
      </trkpt>
      <trkpt lat="45.64538" lon="6.84918">
        <ele>1948.9</ele>
        <time>2021-03-26T14:18:45Z</time>
      </trkpt>
      <trkpt lat="45.64537" lon="6.84918">
        <ele>1948.9</ele>
        <time>2021-03-26T14:18:46Z</time>
      </trkpt>
      <trkpt lat="45.64537" lon="6.84918">
        <ele>1948.9</ele>
        <time>2021-03-26T14:18:47Z</time>
      </trkpt>
      <trkpt lat="45.64536" lon="6.84917">
        <ele>1948.9</ele>
        <time>2021-03-26T14:18:48Z</time>
      </trkpt>
      <trkpt lat="45.64535" lon="6.84917">
        <ele>1948.8</ele>
        <time>2021-03-26T14:18:49Z</time>
      </trkpt>
      <trkpt lat="45.64535" lon="6.84916">
        <ele>1948.8</ele>
        <time>2021-03-26T14:18:50Z</time>
      </trkpt>
      <trkpt lat="45.64534" lon="6.84916">
        <ele>1948.8</ele>
        <time>2021-03-26T14:18:51Z</time>
      </trkpt>
      <trkpt lat="45.64533" lon="6.84916">
        <ele>1948.8</ele>
        <time>2021-03-26T14:18:52Z</time>
      </trkpt>
      <trkpt lat="45.64533" lon="6.84916">
        <ele>1948.7</ele>
        <time>2021-03-26T14:18:53Z</time>
      </trkpt>
      <trkpt lat="45.64533" lon="6.84916">
        <ele>1948.7</ele>
        <time>2021-03-26T14:18:54Z</time>
      </trkpt>
      <trkpt lat="45.64532" lon="6.84916">
        <ele>1948.7</ele>
        <time>2021-03-26T14:18:55Z</time>
      </trkpt>
      <trkpt lat="45.64532" lon="6.84916">
        <ele>1948.7</ele>
        <time>2021-03-26T14:18:56Z</time>
      </trkpt>
      <trkpt lat="45.64531" lon="6.84916">
        <ele>1948.6</ele>
        <time>2021-03-26T14:18:57Z</time>
      </trkpt>
      <trkpt lat="45.6453" lon="6.84916">
        <ele>1948.6</ele>
        <time>2021-03-26T14:18:58Z</time>
      </trkpt>
      <trkpt lat="45.64529" lon="6.84916">
        <ele>1948.6</ele>
        <time>2021-03-26T14:18:59Z</time>
      </trkpt>
      <trkpt lat="45.64529" lon="6.84916">
        <ele>1948.6</ele>
        <time>2021-03-26T14:19:00Z</time>
      </trkpt>
      <trkpt lat="45.64528" lon="6.84916">
        <ele>1948.5</ele>
        <time>2021-03-26T14:19:01Z</time>
      </trkpt>
      <trkpt lat="45.64527" lon="6.84916">
        <ele>1948.5</ele>
        <time>2021-03-26T14:19:02Z</time>
      </trkpt>
      <trkpt lat="45.64527" lon="6.84916">
        <ele>1948.5</ele>
        <time>2021-03-26T14:19:03Z</time>
      </trkpt>
      <trkpt lat="45.64526" lon="6.84916">
        <ele>1948.4</ele>
        <time>2021-03-26T14:19:04Z</time>
      </trkpt>
      <trkpt lat="45.64525" lon="6.84916">
        <ele>1948.4</ele>
        <time>2021-03-26T14:19:05Z</time>
      </trkpt>
      <trkpt lat="45.64524" lon="6.84915">
        <ele>1948.4</ele>
        <time>2021-03-26T14:19:06Z</time>
      </trkpt>
      <trkpt lat="45.64523" lon="6.84915">
        <ele>1948.3</ele>
        <time>2021-03-26T14:19:07Z</time>
      </trkpt>
      <trkpt lat="45.64523" lon="6.84914">
        <ele>1948.3</ele>
        <time>2021-03-26T14:19:08Z</time>
      </trkpt>
      <trkpt lat="45.64522" lon="6.84914">
        <ele>1948.2</ele>
        <time>2021-03-26T14:19:09Z</time>
      </trkpt>
      <trkpt lat="45.64521" lon="6.84914">
        <ele>1948.2</ele>
        <time>2021-03-26T14:19:10Z</time>
      </trkpt>
      <trkpt lat="45.6452" lon="6.84914">
        <ele>1948.2</ele>
        <time>2021-03-26T14:19:11Z</time>
      </trkpt>
      <trkpt lat="45.6452" lon="6.84915">
        <ele>1948.1</ele>
        <time>2021-03-26T14:19:12Z</time>
      </trkpt>
      <trkpt lat="45.64519" lon="6.84915">
        <ele>1948.1</ele>
        <time>2021-03-26T14:19:13Z</time>
      </trkpt>
      <trkpt lat="45.64518" lon="6.84915">
        <ele>1948.1</ele>
        <time>2021-03-26T14:19:14Z</time>
      </trkpt>
      <trkpt lat="45.64518" lon="6.84914">
        <ele>1948.1</ele>
        <time>2021-03-26T14:19:15Z</time>
      </trkpt>
      <trkpt lat="45.64517" lon="6.84914">
        <ele>1948</ele>
        <time>2021-03-26T14:19:16Z</time>
      </trkpt>
      <trkpt lat="45.64517" lon="6.84914">
        <ele>1948</ele>
        <time>2021-03-26T14:19:17Z</time>
      </trkpt>
      <trkpt lat="45.64516" lon="6.84913">
        <ele>1948</ele>
        <time>2021-03-26T14:19:18Z</time>
      </trkpt>
      <trkpt lat="45.64515" lon="6.84913">
        <ele>1947.9</ele>
        <time>2021-03-26T14:19:19Z</time>
      </trkpt>
      <trkpt lat="45.64515" lon="6.84913">
        <ele>1947.9</ele>
        <time>2021-03-26T14:19:20Z</time>
      </trkpt>
      <trkpt lat="45.64514" lon="6.84913">
        <ele>1947.9</ele>
        <time>2021-03-26T14:19:21Z</time>
      </trkpt>
      <trkpt lat="45.64514" lon="6.84913">
        <ele>1947.9</ele>
        <time>2021-03-26T14:19:22Z</time>
      </trkpt>
      <trkpt lat="45.64513" lon="6.84913">
        <ele>1947.8</ele>
        <time>2021-03-26T14:19:23Z</time>
      </trkpt>
      <trkpt lat="45.64513" lon="6.84913">
        <ele>1947.8</ele>
        <time>2021-03-26T14:19:24Z</time>
      </trkpt>
      <trkpt lat="45.64513" lon="6.84913">
        <ele>1947.8</ele>
        <time>2021-03-26T14:19:25Z</time>
      </trkpt>
      <trkpt lat="45.64512" lon="6.84913">
        <ele>1947.8</ele>
        <time>2021-03-26T14:19:26Z</time>
      </trkpt>
      <trkpt lat="45.64512" lon="6.84913">
        <ele>1947.8</ele>
        <time>2021-03-26T14:19:27Z</time>
      </trkpt>
      <trkpt lat="45.64511" lon="6.84912">
        <ele>1947.7</ele>
        <time>2021-03-26T14:19:28Z</time>
      </trkpt>
      <trkpt lat="45.6451" lon="6.84912">
        <ele>1947.7</ele>
        <time>2021-03-26T14:19:29Z</time>
      </trkpt>
      <trkpt lat="45.64509" lon="6.84911">
        <ele>1947.6</ele>
        <time>2021-03-26T14:19:30Z</time>
      </trkpt>
      <trkpt lat="45.64508" lon="6.8491">
        <ele>1947.6</ele>
        <time>2021-03-26T14:19:31Z</time>
      </trkpt>
      <trkpt lat="45.64507" lon="6.84909">
        <ele>1947.5</ele>
        <time>2021-03-26T14:19:32Z</time>
      </trkpt>
      <trkpt lat="45.64506" lon="6.84909">
        <ele>1947.5</ele>
        <time>2021-03-26T14:19:33Z</time>
      </trkpt>
      <trkpt lat="45.64506" lon="6.84908">
        <ele>1947.4</ele>
        <time>2021-03-26T14:19:34Z</time>
      </trkpt>
      <trkpt lat="45.64505" lon="6.84907">
        <ele>1947.4</ele>
        <time>2021-03-26T14:19:35Z</time>
      </trkpt>
      <trkpt lat="45.64504" lon="6.84906">
        <ele>1947.3</ele>
        <time>2021-03-26T14:19:36Z</time>
      </trkpt>
      <trkpt lat="45.64503" lon="6.84905">
        <ele>1947.2</ele>
        <time>2021-03-26T14:19:37Z</time>
      </trkpt>
      <trkpt lat="45.64502" lon="6.84905">
        <ele>1947.2</ele>
        <time>2021-03-26T14:19:38Z</time>
      </trkpt>
      <trkpt lat="45.64501" lon="6.84904">
        <ele>1947.1</ele>
        <time>2021-03-26T14:19:39Z</time>
      </trkpt>
      <trkpt lat="45.645" lon="6.84904">
        <ele>1947.1</ele>
        <time>2021-03-26T14:19:40Z</time>
      </trkpt>
      <trkpt lat="45.64499" lon="6.84903">
        <ele>1947.1</ele>
        <time>2021-03-26T14:19:41Z</time>
      </trkpt>
      <trkpt lat="45.64499" lon="6.84902">
        <ele>1947</ele>
        <time>2021-03-26T14:19:42Z</time>
      </trkpt>
      <trkpt lat="45.64498" lon="6.84902">
        <ele>1947</ele>
        <time>2021-03-26T14:19:43Z</time>
      </trkpt>
      <trkpt lat="45.64497" lon="6.84901">
        <ele>1946.9</ele>
        <time>2021-03-26T14:19:44Z</time>
      </trkpt>
      <trkpt lat="45.64497" lon="6.849">
        <ele>1946.9</ele>
        <time>2021-03-26T14:19:45Z</time>
      </trkpt>
      <trkpt lat="45.64496" lon="6.84899">
        <ele>1946.8</ele>
        <time>2021-03-26T14:19:46Z</time>
      </trkpt>
      <trkpt lat="45.64495" lon="6.84898">
        <ele>1946.8</ele>
        <time>2021-03-26T14:19:47Z</time>
      </trkpt>
      <trkpt lat="45.64494" lon="6.84897">
        <ele>1946.7</ele>
        <time>2021-03-26T14:19:48Z</time>
      </trkpt>
      <trkpt lat="45.64494" lon="6.84896">
        <ele>1946.7</ele>
        <time>2021-03-26T14:19:49Z</time>
      </trkpt>
      <trkpt lat="45.64493" lon="6.84896">
        <ele>1946.6</ele>
        <time>2021-03-26T14:19:50Z</time>
      </trkpt>
      <trkpt lat="45.64492" lon="6.84895">
        <ele>1946.6</ele>
        <time>2021-03-26T14:19:51Z</time>
      </trkpt>
      <trkpt lat="45.64491" lon="6.84894">
        <ele>1946.5</ele>
        <time>2021-03-26T14:19:52Z</time>
      </trkpt>
      <trkpt lat="45.6449" lon="6.84893">
        <ele>1946.5</ele>
        <time>2021-03-26T14:19:53Z</time>
      </trkpt>
      <trkpt lat="45.6449" lon="6.84893">
        <ele>1946.5</ele>
        <time>2021-03-26T14:19:54Z</time>
      </trkpt>
      <trkpt lat="45.6449" lon="6.84893">
        <ele>1946.5</ele>
        <time>2021-03-26T14:19:55Z</time>
      </trkpt>
      <trkpt lat="45.6449" lon="6.84893">
        <ele>1946.5</ele>
        <time>2021-03-26T14:19:56Z</time>
      </trkpt>
      <trkpt lat="45.6449" lon="6.84893">
        <ele>1946.5</ele>
        <time>2021-03-26T14:19:57Z</time>
      </trkpt>
      <trkpt lat="45.6449" lon="6.84893">
        <ele>1946.5</ele>
        <time>2021-03-26T14:19:58Z</time>
      </trkpt>
      <trkpt lat="45.6449" lon="6.84893">
        <ele>1946.5</ele>
        <time>2021-03-26T14:19:59Z</time>
      </trkpt>
      <trkpt lat="45.6449" lon="6.84893">
        <ele>1946.5</ele>
        <time>2021-03-26T14:20:00Z</time>
      </trkpt>
      <trkpt lat="45.6449" lon="6.84893">
        <ele>1946.5</ele>
        <time>2021-03-26T14:20:01Z</time>
      </trkpt>
      <trkpt lat="45.6449" lon="6.84893">
        <ele>1946.5</ele>
        <time>2021-03-26T14:20:02Z</time>
      </trkpt>
      <trkpt lat="45.6449" lon="6.84893">
        <ele>1946.5</ele>
        <time>2021-03-26T14:20:03Z</time>
      </trkpt>
      <trkpt lat="45.64489" lon="6.84889">
        <ele>1946.4</ele>
        <time>2021-03-26T14:20:06Z</time>
      </trkpt>
      <trkpt lat="45.64488" lon="6.84888">
        <ele>1946.3</ele>
        <time>2021-03-26T14:20:07Z</time>
      </trkpt>
      <trkpt lat="45.64488" lon="6.84887">
        <ele>1946.3</ele>
        <time>2021-03-26T14:20:08Z</time>
      </trkpt>
      <trkpt lat="45.64488" lon="6.84886">
        <ele>1946.2</ele>
        <time>2021-03-26T14:20:09Z</time>
      </trkpt>
      <trkpt lat="45.64487" lon="6.84885">
        <ele>1946.2</ele>
        <time>2021-03-26T14:20:10Z</time>
      </trkpt>
      <trkpt lat="45.64487" lon="6.84884">
        <ele>1946.1</ele>
        <time>2021-03-26T14:20:11Z</time>
      </trkpt>
      <trkpt lat="45.64486" lon="6.84882">
        <ele>1946.1</ele>
        <time>2021-03-26T14:20:12Z</time>
      </trkpt>
      <trkpt lat="45.64486" lon="6.84881">
        <ele>1946.1</ele>
        <time>2021-03-26T14:20:13Z</time>
      </trkpt>
      <trkpt lat="45.64485" lon="6.8488">
        <ele>1946</ele>
        <time>2021-03-26T14:20:14Z</time>
      </trkpt>
      <trkpt lat="45.64485" lon="6.84879">
        <ele>1946</ele>
        <time>2021-03-26T14:20:15Z</time>
      </trkpt>
      <trkpt lat="45.64484" lon="6.84878">
        <ele>1945.9</ele>
        <time>2021-03-26T14:20:16Z</time>
      </trkpt>
      <trkpt lat="45.64484" lon="6.84877">
        <ele>1945.9</ele>
        <time>2021-03-26T14:20:17Z</time>
      </trkpt>
      <trkpt lat="45.64483" lon="6.84875">
        <ele>1945.9</ele>
        <time>2021-03-26T14:20:18Z</time>
      </trkpt>
      <trkpt lat="45.64483" lon="6.84874">
        <ele>1945.8</ele>
        <time>2021-03-26T14:20:19Z</time>
      </trkpt>
      <trkpt lat="45.64482" lon="6.84873">
        <ele>1945.8</ele>
        <time>2021-03-26T14:20:20Z</time>
      </trkpt>
      <trkpt lat="45.64481" lon="6.84871">
        <ele>1945.7</ele>
        <time>2021-03-26T14:20:21Z</time>
      </trkpt>
      <trkpt lat="45.64481" lon="6.8487">
        <ele>1945.7</ele>
        <time>2021-03-26T14:20:22Z</time>
      </trkpt>
      <trkpt lat="45.64481" lon="6.84868">
        <ele>1945.6</ele>
        <time>2021-03-26T14:20:23Z</time>
      </trkpt>
      <trkpt lat="45.6448" lon="6.84867">
        <ele>1945.6</ele>
        <time>2021-03-26T14:20:24Z</time>
      </trkpt>
      <trkpt lat="45.6448" lon="6.84865">
        <ele>1945.5</ele>
        <time>2021-03-26T14:20:25Z</time>
      </trkpt>
      <trkpt lat="45.64479" lon="6.84864">
        <ele>1945.5</ele>
        <time>2021-03-26T14:20:26Z</time>
      </trkpt>
      <trkpt lat="45.64479" lon="6.84862">
        <ele>1945.4</ele>
        <time>2021-03-26T14:20:27Z</time>
      </trkpt>
      <trkpt lat="45.64478" lon="6.84861">
        <ele>1945.4</ele>
        <time>2021-03-26T14:20:28Z</time>
      </trkpt>
      <trkpt lat="45.64477" lon="6.8486">
        <ele>1945.3</ele>
        <time>2021-03-26T14:20:29Z</time>
      </trkpt>
      <trkpt lat="45.64477" lon="6.84858">
        <ele>1945.3</ele>
        <time>2021-03-26T14:20:30Z</time>
      </trkpt>
      <trkpt lat="45.64477" lon="6.84857">
        <ele>1945.3</ele>
        <time>2021-03-26T14:20:31Z</time>
      </trkpt>
      <trkpt lat="45.64476" lon="6.84856">
        <ele>1945.2</ele>
        <time>2021-03-26T14:20:32Z</time>
      </trkpt>
      <trkpt lat="45.64476" lon="6.84855">
        <ele>1945.2</ele>
        <time>2021-03-26T14:20:33Z</time>
      </trkpt>
      <trkpt lat="45.64475" lon="6.84854">
        <ele>1945.1</ele>
        <time>2021-03-26T14:20:34Z</time>
      </trkpt>
      <trkpt lat="45.64475" lon="6.84852">
        <ele>1945.1</ele>
        <time>2021-03-26T14:20:35Z</time>
      </trkpt>
      <trkpt lat="45.64474" lon="6.84851">
        <ele>1945.1</ele>
        <time>2021-03-26T14:20:36Z</time>
      </trkpt>
      <trkpt lat="45.64474" lon="6.8485">
        <ele>1945</ele>
        <time>2021-03-26T14:20:37Z</time>
      </trkpt>
      <trkpt lat="45.64473" lon="6.84848">
        <ele>1945</ele>
        <time>2021-03-26T14:20:38Z</time>
      </trkpt>
      <trkpt lat="45.64472" lon="6.84847">
        <ele>1944.9</ele>
        <time>2021-03-26T14:20:39Z</time>
      </trkpt>
      <trkpt lat="45.64472" lon="6.84846">
        <ele>1944.9</ele>
        <time>2021-03-26T14:20:40Z</time>
      </trkpt>
      <trkpt lat="45.64471" lon="6.84844">
        <ele>1944.8</ele>
        <time>2021-03-26T14:20:41Z</time>
      </trkpt>
      <trkpt lat="45.6447" lon="6.84843">
        <ele>1944.8</ele>
        <time>2021-03-26T14:20:42Z</time>
      </trkpt>
      <trkpt lat="45.6447" lon="6.84842">
        <ele>1944.7</ele>
        <time>2021-03-26T14:20:43Z</time>
      </trkpt>
      <trkpt lat="45.64469" lon="6.8484">
        <ele>1944.7</ele>
        <time>2021-03-26T14:20:44Z</time>
      </trkpt>
      <trkpt lat="45.64469" lon="6.84839">
        <ele>1944.7</ele>
        <time>2021-03-26T14:20:45Z</time>
      </trkpt>
      <trkpt lat="45.64468" lon="6.84837">
        <ele>1944.6</ele>
        <time>2021-03-26T14:20:46Z</time>
      </trkpt>
      <trkpt lat="45.64468" lon="6.84836">
        <ele>1944.6</ele>
        <time>2021-03-26T14:20:47Z</time>
      </trkpt>
      <trkpt lat="45.64468" lon="6.84835">
        <ele>1944.5</ele>
        <time>2021-03-26T14:20:48Z</time>
      </trkpt>
      <trkpt lat="45.64467" lon="6.84834">
        <ele>1944.5</ele>
        <time>2021-03-26T14:20:49Z</time>
      </trkpt>
      <trkpt lat="45.64467" lon="6.84833">
        <ele>1944.5</ele>
        <time>2021-03-26T14:20:50Z</time>
      </trkpt>
      <trkpt lat="45.64466" lon="6.84832">
        <ele>1944.4</ele>
        <time>2021-03-26T14:20:51Z</time>
      </trkpt>
      <trkpt lat="45.64466" lon="6.84831">
        <ele>1944.4</ele>
        <time>2021-03-26T14:20:52Z</time>
      </trkpt>
      <trkpt lat="45.64465" lon="6.8483">
        <ele>1944.4</ele>
        <time>2021-03-26T14:20:53Z</time>
      </trkpt>
      <trkpt lat="45.64464" lon="6.8483">
        <ele>1944.3</ele>
        <time>2021-03-26T14:20:54Z</time>
      </trkpt>
      <trkpt lat="45.64464" lon="6.8483">
        <ele>1944.3</ele>
        <time>2021-03-26T14:20:55Z</time>
      </trkpt>
      <trkpt lat="45.64463" lon="6.8483">
        <ele>1944.3</ele>
        <time>2021-03-26T14:20:56Z</time>
      </trkpt>
      <trkpt lat="45.64463" lon="6.8483">
        <ele>1944.3</ele>
        <time>2021-03-26T14:20:57Z</time>
      </trkpt>
      <trkpt lat="45.64463" lon="6.8483">
        <ele>1944.3</ele>
        <time>2021-03-26T14:20:58Z</time>
      </trkpt>
      <trkpt lat="45.64463" lon="6.8483">
        <ele>1944.3</ele>
        <time>2021-03-26T14:20:59Z</time>
      </trkpt>
      <trkpt lat="45.64462" lon="6.84829">
        <ele>1944.3</ele>
        <time>2021-03-26T14:21:00Z</time>
      </trkpt>
      <trkpt lat="45.64462" lon="6.84829">
        <ele>1944.2</ele>
        <time>2021-03-26T14:21:01Z</time>
      </trkpt>
      <trkpt lat="45.64462" lon="6.84829">
        <ele>1944.2</ele>
        <time>2021-03-26T14:21:02Z</time>
      </trkpt>
      <trkpt lat="45.64462" lon="6.84829">
        <ele>1944.2</ele>
        <time>2021-03-26T14:21:03Z</time>
      </trkpt>
      <trkpt lat="45.64462" lon="6.84829">
        <ele>1944.2</ele>
        <time>2021-03-26T14:21:04Z</time>
      </trkpt>
      <trkpt lat="45.64461" lon="6.84829">
        <ele>1944.2</ele>
        <time>2021-03-26T14:21:05Z</time>
      </trkpt>
      <trkpt lat="45.64461" lon="6.84829">
        <ele>1944.2</ele>
        <time>2021-03-26T14:25:09Z</time>
      </trkpt>
      <trkpt lat="45.64461" lon="6.84829">
        <ele>1944.2</ele>
        <time>2021-03-26T14:25:10Z</time>
      </trkpt>
      <trkpt lat="45.64461" lon="6.84829">
        <ele>1944.2</ele>
        <time>2021-03-26T14:25:11Z</time>
      </trkpt>
      <trkpt lat="45.64461" lon="6.84829">
        <ele>1944.2</ele>
        <time>2021-03-26T14:25:12Z</time>
      </trkpt>
      <trkpt lat="45.6446" lon="6.84829">
        <ele>1944.2</ele>
        <time>2021-03-26T14:25:13Z</time>
      </trkpt>
      <trkpt lat="45.6446" lon="6.84829">
        <ele>1944.2</ele>
        <time>2021-03-26T14:25:14Z</time>
      </trkpt>
      <trkpt lat="45.6446" lon="6.84828">
        <ele>1944.1</ele>
        <time>2021-03-26T14:25:15Z</time>
      </trkpt>
      <trkpt lat="45.6446" lon="6.84828">
        <ele>1944.1</ele>
        <time>2021-03-26T14:25:16Z</time>
      </trkpt>
      <trkpt lat="45.6446" lon="6.84828">
        <ele>1944.1</ele>
        <time>2021-03-26T14:25:17Z</time>
      </trkpt>
      <trkpt lat="45.6446" lon="6.84828">
        <ele>1944.1</ele>
        <time>2021-03-26T14:25:18Z</time>
      </trkpt>
      <trkpt lat="45.64459" lon="6.84828">
        <ele>1944.1</ele>
        <time>2021-03-26T14:25:19Z</time>
      </trkpt>
      <trkpt lat="45.64459" lon="6.84828">
        <ele>1944.1</ele>
        <time>2021-03-26T14:27:01Z</time>
      </trkpt>
      <trkpt lat="45.64459" lon="6.84828">
        <ele>1944.1</ele>
        <time>2021-03-26T14:27:02Z</time>
      </trkpt>
      <trkpt lat="45.64459" lon="6.84828">
        <ele>1944.1</ele>
        <time>2021-03-26T14:27:03Z</time>
      </trkpt>
      <trkpt lat="45.64457" lon="6.84825">
        <ele>1944</ele>
        <time>2021-03-26T14:27:04Z</time>
      </trkpt>
      <trkpt lat="45.64456" lon="6.84824">
        <ele>1943.9</ele>
        <time>2021-03-26T14:27:05Z</time>
      </trkpt>
      <trkpt lat="45.64455" lon="6.84821">
        <ele>1943.8</ele>
        <time>2021-03-26T14:27:06Z</time>
      </trkpt>
      <trkpt lat="45.64454" lon="6.8482">
        <ele>1943.8</ele>
        <time>2021-03-26T14:27:07Z</time>
      </trkpt>
      <trkpt lat="45.64452" lon="6.84816">
        <ele>1943.6</ele>
        <time>2021-03-26T14:27:08Z</time>
      </trkpt>
      <trkpt lat="45.64451" lon="6.84815">
        <ele>1943.6</ele>
        <time>2021-03-26T14:27:09Z</time>
      </trkpt>
      <trkpt lat="45.64449" lon="6.84812">
        <ele>1943.4</ele>
        <time>2021-03-26T14:27:10Z</time>
      </trkpt>
      <trkpt lat="45.64448" lon="6.8481">
        <ele>1943.4</ele>
        <time>2021-03-26T14:27:11Z</time>
      </trkpt>
      <trkpt lat="45.64446" lon="6.84807">
        <ele>1943.2</ele>
        <time>2021-03-26T14:27:12Z</time>
      </trkpt>
      <trkpt lat="45.64445" lon="6.84805">
        <ele>1943.2</ele>
        <time>2021-03-26T14:27:13Z</time>
      </trkpt>
      <trkpt lat="45.64443" lon="6.84801">
        <ele>1943</ele>
        <time>2021-03-26T14:27:14Z</time>
      </trkpt>
      <trkpt lat="45.64443" lon="6.848">
        <ele>1943</ele>
        <time>2021-03-26T14:27:15Z</time>
      </trkpt>
      <trkpt lat="45.6444" lon="6.84796">
        <ele>1942.8</ele>
        <time>2021-03-26T14:27:16Z</time>
      </trkpt>
      <trkpt lat="45.64439" lon="6.84795">
        <ele>1942.8</ele>
        <time>2021-03-26T14:27:17Z</time>
      </trkpt>
      <trkpt lat="45.64437" lon="6.84793">
        <ele>1942.6</ele>
        <time>2021-03-26T14:27:18Z</time>
      </trkpt>
      <trkpt lat="45.64434" lon="6.84789">
        <ele>1942.5</ele>
        <time>2021-03-26T14:27:19Z</time>
      </trkpt>
      <trkpt lat="45.64433" lon="6.84788">
        <ele>1942.4</ele>
        <time>2021-03-26T14:27:20Z</time>
      </trkpt>
      <trkpt lat="45.64429" lon="6.84786">
        <ele>1942.2</ele>
        <time>2021-03-26T14:27:21Z</time>
      </trkpt>
      <trkpt lat="45.64428" lon="6.84785">
        <ele>1942.2</ele>
        <time>2021-03-26T14:27:22Z</time>
      </trkpt>
      <trkpt lat="45.64425" lon="6.84782">
        <ele>1942</ele>
        <time>2021-03-26T14:27:23Z</time>
      </trkpt>
      <trkpt lat="45.64424" lon="6.84782">
        <ele>1942</ele>
        <time>2021-03-26T14:27:24Z</time>
      </trkpt>
      <trkpt lat="45.64421" lon="6.84779">
        <ele>1941.9</ele>
        <time>2021-03-26T14:27:25Z</time>
      </trkpt>
      <trkpt lat="45.6442" lon="6.84778">
        <ele>1941.8</ele>
        <time>2021-03-26T14:27:26Z</time>
      </trkpt>
      <trkpt lat="45.64417" lon="6.84776">
        <ele>1941.7</ele>
        <time>2021-03-26T14:27:27Z</time>
      </trkpt>
      <trkpt lat="45.64416" lon="6.84776">
        <ele>1941.6</ele>
        <time>2021-03-26T14:27:28Z</time>
      </trkpt>
      <trkpt lat="45.64413" lon="6.84774">
        <ele>1941.5</ele>
        <time>2021-03-26T14:27:29Z</time>
      </trkpt>
      <trkpt lat="45.64412" lon="6.84774">
        <ele>1941.5</ele>
        <time>2021-03-26T14:27:30Z</time>
      </trkpt>
      <trkpt lat="45.64409" lon="6.84772">
        <ele>1941.3</ele>
        <time>2021-03-26T14:27:31Z</time>
      </trkpt>
      <trkpt lat="45.64408" lon="6.84771">
        <ele>1941.3</ele>
        <time>2021-03-26T14:27:32Z</time>
      </trkpt>
      <trkpt lat="45.64405" lon="6.8477">
        <ele>1941.1</ele>
        <time>2021-03-26T14:27:33Z</time>
      </trkpt>
      <trkpt lat="45.64403" lon="6.84769">
        <ele>1941.1</ele>
        <time>2021-03-26T14:27:34Z</time>
      </trkpt>
      <trkpt lat="45.64401" lon="6.84768">
        <ele>1941</ele>
        <time>2021-03-26T14:27:35Z</time>
      </trkpt>
      <trkpt lat="45.64398" lon="6.84767">
        <ele>1940.8</ele>
        <time>2021-03-26T14:27:36Z</time>
      </trkpt>
      <trkpt lat="45.64394" lon="6.84766">
        <ele>1940.7</ele>
        <time>2021-03-26T14:27:37Z</time>
      </trkpt>
      <trkpt lat="45.64393" lon="6.84765">
        <ele>1940.6</ele>
        <time>2021-03-26T14:27:38Z</time>
      </trkpt>
      <trkpt lat="45.6439" lon="6.84764">
        <ele>1940.5</ele>
        <time>2021-03-26T14:27:39Z</time>
      </trkpt>
      <trkpt lat="45.64388" lon="6.84763">
        <ele>1940.3</ele>
        <time>2021-03-26T14:27:40Z</time>
      </trkpt>
      <trkpt lat="45.64384" lon="6.84761">
        <ele>1940.1</ele>
        <time>2021-03-26T14:27:41Z</time>
      </trkpt>
      <trkpt lat="45.64383" lon="6.84761">
        <ele>1940.1</ele>
        <time>2021-03-26T14:27:42Z</time>
      </trkpt>
      <trkpt lat="45.64379" lon="6.84759">
        <ele>1939.9</ele>
        <time>2021-03-26T14:27:43Z</time>
      </trkpt>
      <trkpt lat="45.64378" lon="6.84758">
        <ele>1939.8</ele>
        <time>2021-03-26T14:27:44Z</time>
      </trkpt>
      <trkpt lat="45.64375" lon="6.84756">
        <ele>1939.6</ele>
        <time>2021-03-26T14:27:45Z</time>
      </trkpt>
      <trkpt lat="45.64371" lon="6.84754">
        <ele>1939.4</ele>
        <time>2021-03-26T14:27:46Z</time>
      </trkpt>
      <trkpt lat="45.64368" lon="6.84752">
        <ele>1939.1</ele>
        <time>2021-03-26T14:27:47Z</time>
      </trkpt>
      <trkpt lat="45.64366" lon="6.8475">
        <ele>1939</ele>
        <time>2021-03-26T14:27:48Z</time>
      </trkpt>
      <trkpt lat="45.64364" lon="6.84747">
        <ele>1938.8</ele>
        <time>2021-03-26T14:27:49Z</time>
      </trkpt>
      <trkpt lat="45.64361" lon="6.84744">
        <ele>1938.6</ele>
        <time>2021-03-26T14:27:50Z</time>
      </trkpt>
      <trkpt lat="45.64359" lon="6.84741">
        <ele>1938.4</ele>
        <time>2021-03-26T14:27:51Z</time>
      </trkpt>
      <trkpt lat="45.64356" lon="6.84737">
        <ele>1938.2</ele>
        <time>2021-03-26T14:27:52Z</time>
      </trkpt>
      <trkpt lat="45.64353" lon="6.84734">
        <ele>1937.9</ele>
        <time>2021-03-26T14:27:53Z</time>
      </trkpt>
      <trkpt lat="45.64351" lon="6.84732">
        <ele>1937.7</ele>
        <time>2021-03-26T14:27:54Z</time>
      </trkpt>
      <trkpt lat="45.64348" lon="6.8473">
        <ele>1937.6</ele>
        <time>2021-03-26T14:27:55Z</time>
      </trkpt>
      <trkpt lat="45.64346" lon="6.84728">
        <ele>1937.4</ele>
        <time>2021-03-26T14:27:56Z</time>
      </trkpt>
      <trkpt lat="45.64343" lon="6.84725">
        <ele>1937.2</ele>
        <time>2021-03-26T14:27:57Z</time>
      </trkpt>
      <trkpt lat="45.64342" lon="6.84724">
        <ele>1937.1</ele>
        <time>2021-03-26T14:27:58Z</time>
      </trkpt>
      <trkpt lat="45.64339" lon="6.84722">
        <ele>1936.9</ele>
        <time>2021-03-26T14:27:59Z</time>
      </trkpt>
      <trkpt lat="45.64337" lon="6.84721">
        <ele>1936.8</ele>
        <time>2021-03-26T14:28:00Z</time>
      </trkpt>
      <trkpt lat="45.64334" lon="6.84718">
        <ele>1936.6</ele>
        <time>2021-03-26T14:28:01Z</time>
      </trkpt>
      <trkpt lat="45.64333" lon="6.84717">
        <ele>1936.5</ele>
        <time>2021-03-26T14:28:02Z</time>
      </trkpt>
      <trkpt lat="45.6433" lon="6.84714">
        <ele>1936.3</ele>
        <time>2021-03-26T14:28:03Z</time>
      </trkpt>
      <trkpt lat="45.64328" lon="6.84712">
        <ele>1936.2</ele>
        <time>2021-03-26T14:28:04Z</time>
      </trkpt>
      <trkpt lat="45.64326" lon="6.8471">
        <ele>1936</ele>
        <time>2021-03-26T14:28:05Z</time>
      </trkpt>
      <trkpt lat="45.64324" lon="6.84707">
        <ele>1935.8</ele>
        <time>2021-03-26T14:28:06Z</time>
      </trkpt>
      <trkpt lat="45.64321" lon="6.84703">
        <ele>1935.6</ele>
        <time>2021-03-26T14:28:07Z</time>
      </trkpt>
      <trkpt lat="45.64319" lon="6.84699">
        <ele>1935.4</ele>
        <time>2021-03-26T14:28:08Z</time>
      </trkpt>
      <trkpt lat="45.64317" lon="6.84695">
        <ele>1935.2</ele>
        <time>2021-03-26T14:28:09Z</time>
      </trkpt>
      <trkpt lat="45.64314" lon="6.84691">
        <ele>1935</ele>
        <time>2021-03-26T14:28:10Z</time>
      </trkpt>
      <trkpt lat="45.64312" lon="6.84687">
        <ele>1934.8</ele>
        <time>2021-03-26T14:28:11Z</time>
      </trkpt>
      <trkpt lat="45.6431" lon="6.84683">
        <ele>1934.6</ele>
        <time>2021-03-26T14:28:12Z</time>
      </trkpt>
      <trkpt lat="45.64307" lon="6.84679">
        <ele>1934.5</ele>
        <time>2021-03-26T14:28:13Z</time>
      </trkpt>
      <trkpt lat="45.64305" lon="6.84676">
        <ele>1934.3</ele>
        <time>2021-03-26T14:28:14Z</time>
      </trkpt>
      <trkpt lat="45.64303" lon="6.84672">
        <ele>1934.2</ele>
        <time>2021-03-26T14:28:15Z</time>
      </trkpt>
      <trkpt lat="45.64301" lon="6.84669">
        <ele>1934</ele>
        <time>2021-03-26T14:28:16Z</time>
      </trkpt>
      <trkpt lat="45.64298" lon="6.84665">
        <ele>1933.8</ele>
        <time>2021-03-26T14:28:17Z</time>
      </trkpt>
      <trkpt lat="45.64297" lon="6.84664">
        <ele>1933.8</ele>
        <time>2021-03-26T14:28:18Z</time>
      </trkpt>
      <trkpt lat="45.64295" lon="6.84661">
        <ele>1933.6</ele>
        <time>2021-03-26T14:28:19Z</time>
      </trkpt>
      <trkpt lat="45.64292" lon="6.84657">
        <ele>1933.5</ele>
        <time>2021-03-26T14:28:20Z</time>
      </trkpt>
      <trkpt lat="45.64291" lon="6.84655">
        <ele>1933.4</ele>
        <time>2021-03-26T14:28:21Z</time>
      </trkpt>
      <trkpt lat="45.6429" lon="6.84652">
        <ele>1933.3</ele>
        <time>2021-03-26T14:28:22Z</time>
      </trkpt>
      <trkpt lat="45.64288" lon="6.84649">
        <ele>1933.2</ele>
        <time>2021-03-26T14:28:23Z</time>
      </trkpt>
      <trkpt lat="45.64286" lon="6.84646">
        <ele>1933.1</ele>
        <time>2021-03-26T14:28:24Z</time>
      </trkpt>
      <trkpt lat="45.64284" lon="6.84643">
        <ele>1933</ele>
        <time>2021-03-26T14:28:25Z</time>
      </trkpt>
      <trkpt lat="45.64282" lon="6.8464">
        <ele>1932.9</ele>
        <time>2021-03-26T14:28:26Z</time>
      </trkpt>
      <trkpt lat="45.6428" lon="6.84637">
        <ele>1932.8</ele>
        <time>2021-03-26T14:28:27Z</time>
      </trkpt>
      <trkpt lat="45.64278" lon="6.84634">
        <ele>1932.7</ele>
        <time>2021-03-26T14:28:28Z</time>
      </trkpt>
      <trkpt lat="45.64276" lon="6.84631">
        <ele>1932.6</ele>
        <time>2021-03-26T14:28:29Z</time>
      </trkpt>
      <trkpt lat="45.64274" lon="6.84628">
        <ele>1932.5</ele>
        <time>2021-03-26T14:28:30Z</time>
      </trkpt>
      <trkpt lat="45.64272" lon="6.84625">
        <ele>1932.4</ele>
        <time>2021-03-26T14:28:31Z</time>
      </trkpt>
      <trkpt lat="45.6427" lon="6.84622">
        <ele>1932.4</ele>
        <time>2021-03-26T14:28:32Z</time>
      </trkpt>
      <trkpt lat="45.64268" lon="6.84618">
        <ele>1932.2</ele>
        <time>2021-03-26T14:28:33Z</time>
      </trkpt>
      <trkpt lat="45.64267" lon="6.84616">
        <ele>1932.2</ele>
        <time>2021-03-26T14:28:34Z</time>
      </trkpt>
      <trkpt lat="45.64264" lon="6.84612">
        <ele>1932.1</ele>
        <time>2021-03-26T14:28:35Z</time>
      </trkpt>
      <trkpt lat="45.64263" lon="6.84611">
        <ele>1932.1</ele>
        <time>2021-03-26T14:28:36Z</time>
      </trkpt>
      <trkpt lat="45.64261" lon="6.84608">
        <ele>1932</ele>
        <time>2021-03-26T14:28:37Z</time>
      </trkpt>
      <trkpt lat="45.64261" lon="6.84607">
        <ele>1932</ele>
        <time>2021-03-26T14:28:38Z</time>
      </trkpt>
      <trkpt lat="45.64259" lon="6.84604">
        <ele>1931.9</ele>
        <time>2021-03-26T14:28:39Z</time>
      </trkpt>
      <trkpt lat="45.64258" lon="6.84603">
        <ele>1931.9</ele>
        <time>2021-03-26T14:28:40Z</time>
      </trkpt>
      <trkpt lat="45.64257" lon="6.84601">
        <ele>1931.9</ele>
        <time>2021-03-26T14:28:41Z</time>
      </trkpt>
      <trkpt lat="45.64255" lon="6.846">
        <ele>1931.8</ele>
        <time>2021-03-26T14:28:42Z</time>
      </trkpt>
      <trkpt lat="45.64254" lon="6.84598">
        <ele>1931.8</ele>
        <time>2021-03-26T14:28:43Z</time>
      </trkpt>
      <trkpt lat="45.64253" lon="6.84597">
        <ele>1931.8</ele>
        <time>2021-03-26T14:28:44Z</time>
      </trkpt>
      <trkpt lat="45.6425" lon="6.84594">
        <ele>1931.7</ele>
        <time>2021-03-26T14:28:45Z</time>
      </trkpt>
      <trkpt lat="45.64249" lon="6.84593">
        <ele>1931.7</ele>
        <time>2021-03-26T14:28:46Z</time>
      </trkpt>
      <trkpt lat="45.64247" lon="6.8459">
        <ele>1931.7</ele>
        <time>2021-03-26T14:28:47Z</time>
      </trkpt>
      <trkpt lat="45.64246" lon="6.84589">
        <ele>1931.7</ele>
        <time>2021-03-26T14:28:48Z</time>
      </trkpt>
      <trkpt lat="45.64244" lon="6.84586">
        <ele>1931.6</ele>
        <time>2021-03-26T14:28:49Z</time>
      </trkpt>
      <trkpt lat="45.64243" lon="6.84585">
        <ele>1931.6</ele>
        <time>2021-03-26T14:28:50Z</time>
      </trkpt>
      <trkpt lat="45.64241" lon="6.84581">
        <ele>1931.5</ele>
        <time>2021-03-26T14:28:51Z</time>
      </trkpt>
      <trkpt lat="45.6424" lon="6.8458">
        <ele>1931.5</ele>
        <time>2021-03-26T14:28:52Z</time>
      </trkpt>
      <trkpt lat="45.64238" lon="6.84577">
        <ele>1931.5</ele>
        <time>2021-03-26T14:28:53Z</time>
      </trkpt>
      <trkpt lat="45.64238" lon="6.84576">
        <ele>1931.4</ele>
        <time>2021-03-26T14:28:54Z</time>
      </trkpt>
      <trkpt lat="45.64236" lon="6.84573">
        <ele>1931.4</ele>
        <time>2021-03-26T14:28:55Z</time>
      </trkpt>
      <trkpt lat="45.64235" lon="6.84572">
        <ele>1931.4</ele>
        <time>2021-03-26T14:28:56Z</time>
      </trkpt>
      <trkpt lat="45.64232" lon="6.84569">
        <ele>1931.3</ele>
        <time>2021-03-26T14:28:57Z</time>
      </trkpt>
      <trkpt lat="45.64231" lon="6.84568">
        <ele>1931.3</ele>
        <time>2021-03-26T14:28:58Z</time>
      </trkpt>
      <trkpt lat="45.64228" lon="6.84565">
        <ele>1931.2</ele>
        <time>2021-03-26T14:28:59Z</time>
      </trkpt>
      <trkpt lat="45.64227" lon="6.84563">
        <ele>1931.2</ele>
        <time>2021-03-26T14:29:00Z</time>
      </trkpt>
      <trkpt lat="45.64225" lon="6.84559">
        <ele>1931.1</ele>
        <time>2021-03-26T14:29:01Z</time>
      </trkpt>
      <trkpt lat="45.64224" lon="6.84558">
        <ele>1931.1</ele>
        <time>2021-03-26T14:29:02Z</time>
      </trkpt>
      <trkpt lat="45.64222" lon="6.84554">
        <ele>1931</ele>
        <time>2021-03-26T14:29:03Z</time>
      </trkpt>
      <trkpt lat="45.64221" lon="6.84553">
        <ele>1930.9</ele>
        <time>2021-03-26T14:29:04Z</time>
      </trkpt>
      <trkpt lat="45.64219" lon="6.84549">
        <ele>1930.9</ele>
        <time>2021-03-26T14:29:05Z</time>
      </trkpt>
      <trkpt lat="45.64218" lon="6.84548">
        <ele>1930.8</ele>
        <time>2021-03-26T14:29:06Z</time>
      </trkpt>
      <trkpt lat="45.64216" lon="6.84544">
        <ele>1930.7</ele>
        <time>2021-03-26T14:29:07Z</time>
      </trkpt>
      <trkpt lat="45.64216" lon="6.84542">
        <ele>1930.7</ele>
        <time>2021-03-26T14:29:08Z</time>
      </trkpt>
      <trkpt lat="45.64214" lon="6.84538">
        <ele>1930.5</ele>
        <time>2021-03-26T14:29:09Z</time>
      </trkpt>
      <trkpt lat="45.64213" lon="6.84536">
        <ele>1930.5</ele>
        <time>2021-03-26T14:29:10Z</time>
      </trkpt>
      <trkpt lat="45.64211" lon="6.84532">
        <ele>1930.4</ele>
        <time>2021-03-26T14:29:11Z</time>
      </trkpt>
      <trkpt lat="45.64211" lon="6.8453">
        <ele>1930.3</ele>
        <time>2021-03-26T14:29:12Z</time>
      </trkpt>
      <trkpt lat="45.64209" lon="6.84526">
        <ele>1930.2</ele>
        <time>2021-03-26T14:29:13Z</time>
      </trkpt>
      <trkpt lat="45.64208" lon="6.84525">
        <ele>1930.2</ele>
        <time>2021-03-26T14:29:14Z</time>
      </trkpt>
      <trkpt lat="45.64207" lon="6.84522">
        <ele>1930.1</ele>
        <time>2021-03-26T14:29:15Z</time>
      </trkpt>
      <trkpt lat="45.64206" lon="6.84521">
        <ele>1930</ele>
        <time>2021-03-26T14:29:16Z</time>
      </trkpt>
      <trkpt lat="45.64205" lon="6.84517">
        <ele>1929.9</ele>
        <time>2021-03-26T14:29:17Z</time>
      </trkpt>
      <trkpt lat="45.64204" lon="6.84516">
        <ele>1929.9</ele>
        <time>2021-03-26T14:29:18Z</time>
      </trkpt>
      <trkpt lat="45.64202" lon="6.84512">
        <ele>1929.8</ele>
        <time>2021-03-26T14:29:19Z</time>
      </trkpt>
      <trkpt lat="45.64202" lon="6.8451">
        <ele>1929.7</ele>
        <time>2021-03-26T14:29:20Z</time>
      </trkpt>
      <trkpt lat="45.642" lon="6.84506">
        <ele>1929.6</ele>
        <time>2021-03-26T14:29:21Z</time>
      </trkpt>
      <trkpt lat="45.64199" lon="6.84505">
        <ele>1929.5</ele>
        <time>2021-03-26T14:29:22Z</time>
      </trkpt>
      <trkpt lat="45.64197" lon="6.84501">
        <ele>1929.3</ele>
        <time>2021-03-26T14:29:23Z</time>
      </trkpt>
      <trkpt lat="45.64196" lon="6.84499">
        <ele>1929.3</ele>
        <time>2021-03-26T14:29:24Z</time>
      </trkpt>
      <trkpt lat="45.64195" lon="6.84496">
        <ele>1929.2</ele>
        <time>2021-03-26T14:29:25Z</time>
      </trkpt>
      <trkpt lat="45.64194" lon="6.84492">
        <ele>1929</ele>
        <time>2021-03-26T14:29:26Z</time>
      </trkpt>
      <trkpt lat="45.64193" lon="6.84488">
        <ele>1928.9</ele>
        <time>2021-03-26T14:29:27Z</time>
      </trkpt>
      <trkpt lat="45.64191" lon="6.84484">
        <ele>1928.8</ele>
        <time>2021-03-26T14:29:28Z</time>
      </trkpt>
      <trkpt lat="45.6419" lon="6.84479">
        <ele>1928.6</ele>
        <time>2021-03-26T14:29:29Z</time>
      </trkpt>
      <trkpt lat="45.64188" lon="6.84475">
        <ele>1928.5</ele>
        <time>2021-03-26T14:29:30Z</time>
      </trkpt>
      <trkpt lat="45.64186" lon="6.84471">
        <ele>1928.3</ele>
        <time>2021-03-26T14:29:31Z</time>
      </trkpt>
      <trkpt lat="45.64185" lon="6.84467">
        <ele>1928.2</ele>
        <time>2021-03-26T14:29:32Z</time>
      </trkpt>
      <trkpt lat="45.64183" lon="6.84464">
        <ele>1928.1</ele>
        <time>2021-03-26T14:29:33Z</time>
      </trkpt>
      <trkpt lat="45.64182" lon="6.8446">
        <ele>1927.9</ele>
        <time>2021-03-26T14:29:34Z</time>
      </trkpt>
      <trkpt lat="45.64181" lon="6.84459">
        <ele>1927.9</ele>
        <time>2021-03-26T14:29:35Z</time>
      </trkpt>
      <trkpt lat="45.6418" lon="6.84454">
        <ele>1927.7</ele>
        <time>2021-03-26T14:29:36Z</time>
      </trkpt>
      <trkpt lat="45.6418" lon="6.84452">
        <ele>1927.7</ele>
        <time>2021-03-26T14:29:37Z</time>
      </trkpt>
      <trkpt lat="45.64179" lon="6.84447">
        <ele>1927.5</ele>
        <time>2021-03-26T14:29:38Z</time>
      </trkpt>
      <trkpt lat="45.64177" lon="6.84441">
        <ele>1927.4</ele>
        <time>2021-03-26T14:29:39Z</time>
      </trkpt>
      <trkpt lat="45.64175" lon="6.84436">
        <ele>1927.1</ele>
        <time>2021-03-26T14:29:40Z</time>
      </trkpt>
      <trkpt lat="45.64172" lon="6.84432">
        <ele>1926.9</ele>
        <time>2021-03-26T14:29:41Z</time>
      </trkpt>
      <trkpt lat="45.64168" lon="6.84428">
        <ele>1926.6</ele>
        <time>2021-03-26T14:29:42Z</time>
      </trkpt>
      <trkpt lat="45.64165" lon="6.84427">
        <ele>1926.5</ele>
        <time>2021-03-26T14:29:43Z</time>
      </trkpt>
      <trkpt lat="45.64161" lon="6.84426">
        <ele>1926.3</ele>
        <time>2021-03-26T14:29:44Z</time>
      </trkpt>
      <trkpt lat="45.6416" lon="6.84425">
        <ele>1926.2</ele>
        <time>2021-03-26T14:29:45Z</time>
      </trkpt>
      <trkpt lat="45.64157" lon="6.84426">
        <ele>1926</ele>
        <time>2021-03-26T14:29:46Z</time>
      </trkpt>
      <trkpt lat="45.64156" lon="6.84426">
        <ele>1925.9</ele>
        <time>2021-03-26T14:29:47Z</time>
      </trkpt>
      <trkpt lat="45.64153" lon="6.84427">
        <ele>1925.8</ele>
        <time>2021-03-26T14:29:48Z</time>
      </trkpt>
      <trkpt lat="45.6415" lon="6.84429">
        <ele>1925.6</ele>
        <time>2021-03-26T14:29:49Z</time>
      </trkpt>
      <trkpt lat="45.64148" lon="6.84431">
        <ele>1925.5</ele>
        <time>2021-03-26T14:29:50Z</time>
      </trkpt>
      <trkpt lat="45.64145" lon="6.84434">
        <ele>1925.3</ele>
        <time>2021-03-26T14:29:51Z</time>
      </trkpt>
      <trkpt lat="45.64141" lon="6.84437">
        <ele>1925</ele>
        <time>2021-03-26T14:29:52Z</time>
      </trkpt>
      <trkpt lat="45.64139" lon="6.8444">
        <ele>1924.8</ele>
        <time>2021-03-26T14:29:53Z</time>
      </trkpt>
      <trkpt lat="45.64136" lon="6.84443">
        <ele>1924.6</ele>
        <time>2021-03-26T14:29:54Z</time>
      </trkpt>
      <trkpt lat="45.64133" lon="6.84447">
        <ele>1924.4</ele>
        <time>2021-03-26T14:29:55Z</time>
      </trkpt>
      <trkpt lat="45.6413" lon="6.84451">
        <ele>1924.2</ele>
        <time>2021-03-26T14:29:56Z</time>
      </trkpt>
      <trkpt lat="45.64128" lon="6.84454">
        <ele>1924</ele>
        <time>2021-03-26T14:29:57Z</time>
      </trkpt>
      <trkpt lat="45.64125" lon="6.84456">
        <ele>1923.8</ele>
        <time>2021-03-26T14:29:58Z</time>
      </trkpt>
      <trkpt lat="45.64123" lon="6.84458">
        <ele>1923.7</ele>
        <time>2021-03-26T14:29:59Z</time>
      </trkpt>
      <trkpt lat="45.6412" lon="6.84461">
        <ele>1923.5</ele>
        <time>2021-03-26T14:30:00Z</time>
      </trkpt>
      <trkpt lat="45.64118" lon="6.84462">
        <ele>1923.4</ele>
        <time>2021-03-26T14:30:01Z</time>
      </trkpt>
      <trkpt lat="45.64115" lon="6.84464">
        <ele>1923.2</ele>
        <time>2021-03-26T14:30:02Z</time>
      </trkpt>
      <trkpt lat="45.64113" lon="6.84465">
        <ele>1923.1</ele>
        <time>2021-03-26T14:30:03Z</time>
      </trkpt>
      <trkpt lat="45.64111" lon="6.84467">
        <ele>1922.9</ele>
        <time>2021-03-26T14:30:04Z</time>
      </trkpt>
      <trkpt lat="45.64108" lon="6.84469">
        <ele>1922.8</ele>
        <time>2021-03-26T14:30:05Z</time>
      </trkpt>
      <trkpt lat="45.64105" lon="6.8447">
        <ele>1922.6</ele>
        <time>2021-03-26T14:30:06Z</time>
      </trkpt>
      <trkpt lat="45.64103" lon="6.84472">
        <ele>1922.4</ele>
        <time>2021-03-26T14:30:07Z</time>
      </trkpt>
      <trkpt lat="45.641" lon="6.84474">
        <ele>1922.2</ele>
        <time>2021-03-26T14:30:08Z</time>
      </trkpt>
      <trkpt lat="45.64096" lon="6.84476">
        <ele>1922.1</ele>
        <time>2021-03-26T14:30:09Z</time>
      </trkpt>
      <trkpt lat="45.64094" lon="6.84478">
        <ele>1921.9</ele>
        <time>2021-03-26T14:30:10Z</time>
      </trkpt>
      <trkpt lat="45.64091" lon="6.84481">
        <ele>1921.7</ele>
        <time>2021-03-26T14:30:11Z</time>
      </trkpt>
      <trkpt lat="45.64088" lon="6.84483">
        <ele>1921.5</ele>
        <time>2021-03-26T14:30:12Z</time>
      </trkpt>
      <trkpt lat="45.64086" lon="6.84485">
        <ele>1921.4</ele>
        <time>2021-03-26T14:30:13Z</time>
      </trkpt>
      <trkpt lat="45.64083" lon="6.84487">
        <ele>1921.2</ele>
        <time>2021-03-26T14:30:14Z</time>
      </trkpt>
      <trkpt lat="45.64081" lon="6.84489">
        <ele>1921.1</ele>
        <time>2021-03-26T14:30:15Z</time>
      </trkpt>
      <trkpt lat="45.64078" lon="6.84491">
        <ele>1920.9</ele>
        <time>2021-03-26T14:30:16Z</time>
      </trkpt>
      <trkpt lat="45.64076" lon="6.84494">
        <ele>1920.8</ele>
        <time>2021-03-26T14:30:17Z</time>
      </trkpt>
      <trkpt lat="45.64074" lon="6.84497">
        <ele>1920.6</ele>
        <time>2021-03-26T14:30:18Z</time>
      </trkpt>
      <trkpt lat="45.64072" lon="6.845">
        <ele>1920.5</ele>
        <time>2021-03-26T14:30:19Z</time>
      </trkpt>
      <trkpt lat="45.6407" lon="6.84505">
        <ele>1920.3</ele>
        <time>2021-03-26T14:30:20Z</time>
      </trkpt>
      <trkpt lat="45.64069" lon="6.84506">
        <ele>1920.3</ele>
        <time>2021-03-26T14:30:21Z</time>
      </trkpt>
      <trkpt lat="45.64066" lon="6.8451">
        <ele>1920.1</ele>
        <time>2021-03-26T14:30:22Z</time>
      </trkpt>
      <trkpt lat="45.64065" lon="6.84511">
        <ele>1920</ele>
        <time>2021-03-26T14:30:23Z</time>
      </trkpt>
      <trkpt lat="45.64062" lon="6.84515">
        <ele>1919.9</ele>
        <time>2021-03-26T14:30:24Z</time>
      </trkpt>
      <trkpt lat="45.64062" lon="6.84516">
        <ele>1919.8</ele>
        <time>2021-03-26T14:30:25Z</time>
      </trkpt>
      <trkpt lat="45.64059" lon="6.8452">
        <ele>1919.7</ele>
        <time>2021-03-26T14:30:26Z</time>
      </trkpt>
      <trkpt lat="45.64058" lon="6.84521">
        <ele>1919.6</ele>
        <time>2021-03-26T14:30:27Z</time>
      </trkpt>
      <trkpt lat="45.64057" lon="6.84523">
        <ele>1919.5</ele>
        <time>2021-03-26T14:30:28Z</time>
      </trkpt>
      <trkpt lat="45.64055" lon="6.84525">
        <ele>1919.4</ele>
        <time>2021-03-26T14:30:29Z</time>
      </trkpt>
      <trkpt lat="45.64051" lon="6.84526">
        <ele>1919.3</ele>
        <time>2021-03-26T14:30:30Z</time>
      </trkpt>
      <trkpt lat="45.6405" lon="6.84527">
        <ele>1919.2</ele>
        <time>2021-03-26T14:30:31Z</time>
      </trkpt>
      <trkpt lat="45.64047" lon="6.84528">
        <ele>1919.1</ele>
        <time>2021-03-26T14:30:32Z</time>
      </trkpt>
      <trkpt lat="45.64043" lon="6.8453">
        <ele>1918.9</ele>
        <time>2021-03-26T14:30:33Z</time>
      </trkpt>
      <trkpt lat="45.6404" lon="6.84531">
        <ele>1918.8</ele>
        <time>2021-03-26T14:30:34Z</time>
      </trkpt>
      <trkpt lat="45.64037" lon="6.84534">
        <ele>1918.7</ele>
        <time>2021-03-26T14:30:35Z</time>
      </trkpt>
      <trkpt lat="45.64034" lon="6.84536">
        <ele>1918.5</ele>
        <time>2021-03-26T14:30:36Z</time>
      </trkpt>
      <trkpt lat="45.64031" lon="6.84537">
        <ele>1918.4</ele>
        <time>2021-03-26T14:30:37Z</time>
      </trkpt>
      <trkpt lat="45.64027" lon="6.84537">
        <ele>1918.3</ele>
        <time>2021-03-26T14:30:38Z</time>
      </trkpt>
      <trkpt lat="45.64024" lon="6.84538">
        <ele>1918.1</ele>
        <time>2021-03-26T14:30:39Z</time>
      </trkpt>
      <trkpt lat="45.64021" lon="6.8454">
        <ele>1918</ele>
        <time>2021-03-26T14:30:40Z</time>
      </trkpt>
      <trkpt lat="45.64018" lon="6.84541">
        <ele>1917.9</ele>
        <time>2021-03-26T14:30:41Z</time>
      </trkpt>
      <trkpt lat="45.64015" lon="6.84543">
        <ele>1917.7</ele>
        <time>2021-03-26T14:30:42Z</time>
      </trkpt>
      <trkpt lat="45.64012" lon="6.84545">
        <ele>1917.6</ele>
        <time>2021-03-26T14:30:43Z</time>
      </trkpt>
      <trkpt lat="45.6401" lon="6.84547">
        <ele>1917.5</ele>
        <time>2021-03-26T14:30:44Z</time>
      </trkpt>
      <trkpt lat="45.64007" lon="6.84549">
        <ele>1917.4</ele>
        <time>2021-03-26T14:30:45Z</time>
      </trkpt>
      <trkpt lat="45.64005" lon="6.84551">
        <ele>1917.3</ele>
        <time>2021-03-26T14:30:46Z</time>
      </trkpt>
      <trkpt lat="45.64002" lon="6.84553">
        <ele>1917.1</ele>
        <time>2021-03-26T14:30:47Z</time>
      </trkpt>
      <trkpt lat="45.63999" lon="6.84556">
        <ele>1917</ele>
        <time>2021-03-26T14:30:48Z</time>
      </trkpt>
      <trkpt lat="45.63997" lon="6.84559">
        <ele>1916.9</ele>
        <time>2021-03-26T14:30:49Z</time>
      </trkpt>
      <trkpt lat="45.63995" lon="6.84562">
        <ele>1916.8</ele>
        <time>2021-03-26T14:30:50Z</time>
      </trkpt>
      <trkpt lat="45.63993" lon="6.84564">
        <ele>1916.6</ele>
        <time>2021-03-26T14:30:51Z</time>
      </trkpt>
      <trkpt lat="45.6399" lon="6.84566">
        <ele>1916.5</ele>
        <time>2021-03-26T14:30:52Z</time>
      </trkpt>
      <trkpt lat="45.63987" lon="6.84567">
        <ele>1916.4</ele>
        <time>2021-03-26T14:30:53Z</time>
      </trkpt>
      <trkpt lat="45.63984" lon="6.8457">
        <ele>1916.2</ele>
        <time>2021-03-26T14:30:54Z</time>
      </trkpt>
      <trkpt lat="45.63981" lon="6.84572">
        <ele>1916</ele>
        <time>2021-03-26T14:30:55Z</time>
      </trkpt>
      <trkpt lat="45.63979" lon="6.84576">
        <ele>1915.9</ele>
        <time>2021-03-26T14:30:56Z</time>
      </trkpt>
      <trkpt lat="45.63976" lon="6.84578">
        <ele>1915.7</ele>
        <time>2021-03-26T14:30:57Z</time>
      </trkpt>
      <trkpt lat="45.63973" lon="6.84581">
        <ele>1915.5</ele>
        <time>2021-03-26T14:30:58Z</time>
      </trkpt>
      <trkpt lat="45.6397" lon="6.84583">
        <ele>1915.4</ele>
        <time>2021-03-26T14:30:59Z</time>
      </trkpt>
      <trkpt lat="45.63968" lon="6.84585">
        <ele>1915.3</ele>
        <time>2021-03-26T14:31:00Z</time>
      </trkpt>
      <trkpt lat="45.63965" lon="6.84586">
        <ele>1915.2</ele>
        <time>2021-03-26T14:31:01Z</time>
      </trkpt>
      <trkpt lat="45.63963" lon="6.84588">
        <ele>1915.1</ele>
        <time>2021-03-26T14:31:02Z</time>
      </trkpt>
      <trkpt lat="45.6396" lon="6.8459">
        <ele>1914.9</ele>
        <time>2021-03-26T14:31:03Z</time>
      </trkpt>
      <trkpt lat="45.63958" lon="6.84592">
        <ele>1914.8</ele>
        <time>2021-03-26T14:31:04Z</time>
      </trkpt>
      <trkpt lat="45.63956" lon="6.84595">
        <ele>1914.7</ele>
        <time>2021-03-26T14:31:05Z</time>
      </trkpt>
      <trkpt lat="45.63954" lon="6.84598">
        <ele>1914.6</ele>
        <time>2021-03-26T14:31:06Z</time>
      </trkpt>
      <trkpt lat="45.63952" lon="6.846">
        <ele>1914.5</ele>
        <time>2021-03-26T14:31:07Z</time>
      </trkpt>
      <trkpt lat="45.63949" lon="6.84605">
        <ele>1914.4</ele>
        <time>2021-03-26T14:31:08Z</time>
      </trkpt>
      <trkpt lat="45.63948" lon="6.84606">
        <ele>1914.4</ele>
        <time>2021-03-26T14:31:09Z</time>
      </trkpt>
      <trkpt lat="45.63946" lon="6.84609">
        <ele>1914.3</ele>
        <time>2021-03-26T14:31:10Z</time>
      </trkpt>
      <trkpt lat="45.63944" lon="6.84612">
        <ele>1914.2</ele>
        <time>2021-03-26T14:31:11Z</time>
      </trkpt>
      <trkpt lat="45.63943" lon="6.84616">
        <ele>1914.1</ele>
        <time>2021-03-26T14:31:12Z</time>
      </trkpt>
      <trkpt lat="45.63941" lon="6.84618">
        <ele>1914</ele>
        <time>2021-03-26T14:31:13Z</time>
      </trkpt>
      <trkpt lat="45.63939" lon="6.84621">
        <ele>1913.9</ele>
        <time>2021-03-26T14:31:14Z</time>
      </trkpt>
      <trkpt lat="45.63936" lon="6.84624">
        <ele>1913.8</ele>
        <time>2021-03-26T14:31:15Z</time>
      </trkpt>
      <trkpt lat="45.63934" lon="6.84627">
        <ele>1913.7</ele>
        <time>2021-03-26T14:31:16Z</time>
      </trkpt>
      <trkpt lat="45.63932" lon="6.8463">
        <ele>1913.6</ele>
        <time>2021-03-26T14:31:17Z</time>
      </trkpt>
      <trkpt lat="45.6393" lon="6.84632">
        <ele>1913.5</ele>
        <time>2021-03-26T14:31:18Z</time>
      </trkpt>
      <trkpt lat="45.63926" lon="6.84635">
        <ele>1913.4</ele>
        <time>2021-03-26T14:31:19Z</time>
      </trkpt>
      <trkpt lat="45.63925" lon="6.84636">
        <ele>1913.3</ele>
        <time>2021-03-26T14:31:20Z</time>
      </trkpt>
      <trkpt lat="45.63923" lon="6.84638">
        <ele>1913.3</ele>
        <time>2021-03-26T14:31:21Z</time>
      </trkpt>
      <trkpt lat="45.6392" lon="6.84639">
        <ele>1913.2</ele>
        <time>2021-03-26T14:31:22Z</time>
      </trkpt>
      <trkpt lat="45.63917" lon="6.84639">
        <ele>1913.1</ele>
        <time>2021-03-26T14:31:23Z</time>
      </trkpt>
      <trkpt lat="45.63913" lon="6.8464">
        <ele>1912.9</ele>
        <time>2021-03-26T14:31:24Z</time>
      </trkpt>
      <trkpt lat="45.63912" lon="6.8464">
        <ele>1912.9</ele>
        <time>2021-03-26T14:31:25Z</time>
      </trkpt>
      <trkpt lat="45.63909" lon="6.84641">
        <ele>1912.8</ele>
        <time>2021-03-26T14:31:26Z</time>
      </trkpt>
      <trkpt lat="45.63906" lon="6.84642">
        <ele>1912.7</ele>
        <time>2021-03-26T14:31:27Z</time>
      </trkpt>
      <trkpt lat="45.63902" lon="6.84643">
        <ele>1912.6</ele>
        <time>2021-03-26T14:31:28Z</time>
      </trkpt>
      <trkpt lat="45.63901" lon="6.84644">
        <ele>1912.5</ele>
        <time>2021-03-26T14:31:29Z</time>
      </trkpt>
      <trkpt lat="45.63897" lon="6.84645">
        <ele>1912.4</ele>
        <time>2021-03-26T14:31:30Z</time>
      </trkpt>
      <trkpt lat="45.63896" lon="6.84645">
        <ele>1912.3</ele>
        <time>2021-03-26T14:31:31Z</time>
      </trkpt>
      <trkpt lat="45.63893" lon="6.84647">
        <ele>1912.2</ele>
        <time>2021-03-26T14:31:32Z</time>
      </trkpt>
      <trkpt lat="45.63892" lon="6.84647">
        <ele>1912.2</ele>
        <time>2021-03-26T14:31:33Z</time>
      </trkpt>
      <trkpt lat="45.63889" lon="6.84648">
        <ele>1912</ele>
        <time>2021-03-26T14:31:34Z</time>
      </trkpt>
      <trkpt lat="45.63888" lon="6.84649">
        <ele>1912</ele>
        <time>2021-03-26T14:31:35Z</time>
      </trkpt>
      <trkpt lat="45.63886" lon="6.84651">
        <ele>1911.9</ele>
        <time>2021-03-26T14:31:36Z</time>
      </trkpt>
      <trkpt lat="45.63884" lon="6.84651">
        <ele>1911.8</ele>
        <time>2021-03-26T14:31:37Z</time>
      </trkpt>
      <trkpt lat="45.63881" lon="6.84654">
        <ele>1911.7</ele>
        <time>2021-03-26T14:31:38Z</time>
      </trkpt>
      <trkpt lat="45.6388" lon="6.84655">
        <ele>1911.6</ele>
        <time>2021-03-26T14:31:39Z</time>
      </trkpt>
      <trkpt lat="45.63877" lon="6.84659">
        <ele>1911.5</ele>
        <time>2021-03-26T14:31:40Z</time>
      </trkpt>
      <trkpt lat="45.63875" lon="6.8466">
        <ele>1911.4</ele>
        <time>2021-03-26T14:31:41Z</time>
      </trkpt>
      <trkpt lat="45.63873" lon="6.84662">
        <ele>1911.3</ele>
        <time>2021-03-26T14:31:42Z</time>
      </trkpt>
      <trkpt lat="45.6387" lon="6.84664">
        <ele>1911.2</ele>
        <time>2021-03-26T14:31:43Z</time>
      </trkpt>
      <trkpt lat="45.63868" lon="6.84666">
        <ele>1911</ele>
        <time>2021-03-26T14:31:44Z</time>
      </trkpt>
      <trkpt lat="45.63865" lon="6.84667">
        <ele>1910.9</ele>
        <time>2021-03-26T14:31:45Z</time>
      </trkpt>
      <trkpt lat="45.63862" lon="6.84668">
        <ele>1910.8</ele>
        <time>2021-03-26T14:31:46Z</time>
      </trkpt>
      <trkpt lat="45.63858" lon="6.84668">
        <ele>1910.6</ele>
        <time>2021-03-26T14:31:47Z</time>
      </trkpt>
      <trkpt lat="45.63855" lon="6.84669">
        <ele>1910.5</ele>
        <time>2021-03-26T14:31:48Z</time>
      </trkpt>
      <trkpt lat="45.63852" lon="6.84669">
        <ele>1910.3</ele>
        <time>2021-03-26T14:31:49Z</time>
      </trkpt>
      <trkpt lat="45.63849" lon="6.8467">
        <ele>1910.2</ele>
        <time>2021-03-26T14:31:50Z</time>
      </trkpt>
      <trkpt lat="45.63846" lon="6.8467">
        <ele>1910.3</ele>
        <time>2021-03-26T14:31:51Z</time>
      </trkpt>
      <trkpt lat="45.63843" lon="6.84671">
        <ele>1910.3</ele>
        <time>2021-03-26T14:31:52Z</time>
      </trkpt>
      <trkpt lat="45.6384" lon="6.84672">
        <ele>1910.4</ele>
        <time>2021-03-26T14:31:53Z</time>
      </trkpt>
      <trkpt lat="45.63839" lon="6.84672">
        <ele>1910.4</ele>
        <time>2021-03-26T14:31:54Z</time>
      </trkpt>
      <trkpt lat="45.63835" lon="6.84673">
        <ele>1910.2</ele>
        <time>2021-03-26T14:31:55Z</time>
      </trkpt>
      <trkpt lat="45.63834" lon="6.84673">
        <ele>1910.1</ele>
        <time>2021-03-26T14:31:56Z</time>
      </trkpt>
      <trkpt lat="45.6383" lon="6.84674">
        <ele>1909.9</ele>
        <time>2021-03-26T14:31:57Z</time>
      </trkpt>
      <trkpt lat="45.63828" lon="6.84674">
        <ele>1909.8</ele>
        <time>2021-03-26T14:31:58Z</time>
      </trkpt>
      <trkpt lat="45.63825" lon="6.84675">
        <ele>1909.6</ele>
        <time>2021-03-26T14:31:59Z</time>
      </trkpt>
      <trkpt lat="45.63822" lon="6.84675">
        <ele>1909.5</ele>
        <time>2021-03-26T14:32:00Z</time>
      </trkpt>
      <trkpt lat="45.63819" lon="6.84676">
        <ele>1909.3</ele>
        <time>2021-03-26T14:32:01Z</time>
      </trkpt>
      <trkpt lat="45.63816" lon="6.84676">
        <ele>1909.1</ele>
        <time>2021-03-26T14:32:02Z</time>
      </trkpt>
      <trkpt lat="45.63813" lon="6.84676">
        <ele>1909</ele>
        <time>2021-03-26T14:32:03Z</time>
      </trkpt>
      <trkpt lat="45.63809" lon="6.84677">
        <ele>1908.8</ele>
        <time>2021-03-26T14:32:04Z</time>
      </trkpt>
      <trkpt lat="45.63808" lon="6.84677">
        <ele>1908.7</ele>
        <time>2021-03-26T14:32:05Z</time>
      </trkpt>
      <trkpt lat="45.63804" lon="6.84679">
        <ele>1908.5</ele>
        <time>2021-03-26T14:32:06Z</time>
      </trkpt>
      <trkpt lat="45.63803" lon="6.84679">
        <ele>1908.5</ele>
        <time>2021-03-26T14:32:07Z</time>
      </trkpt>
      <trkpt lat="45.63799" lon="6.84681">
        <ele>1908.3</ele>
        <time>2021-03-26T14:32:08Z</time>
      </trkpt>
      <trkpt lat="45.63798" lon="6.84682">
        <ele>1908.2</ele>
        <time>2021-03-26T14:32:09Z</time>
      </trkpt>
      <trkpt lat="45.63795" lon="6.84684">
        <ele>1908</ele>
        <time>2021-03-26T14:32:10Z</time>
      </trkpt>
      <trkpt lat="45.63794" lon="6.84685">
        <ele>1908</ele>
        <time>2021-03-26T14:32:11Z</time>
      </trkpt>
      <trkpt lat="45.6379" lon="6.84687">
        <ele>1907.8</ele>
        <time>2021-03-26T14:32:12Z</time>
      </trkpt>
      <trkpt lat="45.63789" lon="6.84688">
        <ele>1907.8</ele>
        <time>2021-03-26T14:32:13Z</time>
      </trkpt>
      <trkpt lat="45.63786" lon="6.84689">
        <ele>1907.6</ele>
        <time>2021-03-26T14:32:14Z</time>
      </trkpt>
      <trkpt lat="45.63785" lon="6.8469">
        <ele>1907.6</ele>
        <time>2021-03-26T14:32:15Z</time>
      </trkpt>
      <trkpt lat="45.63782" lon="6.84691">
        <ele>1907.5</ele>
        <time>2021-03-26T14:32:16Z</time>
      </trkpt>
      <trkpt lat="45.6378" lon="6.84692">
        <ele>1907.4</ele>
        <time>2021-03-26T14:32:17Z</time>
      </trkpt>
      <trkpt lat="45.63778" lon="6.84693">
        <ele>1907.3</ele>
        <time>2021-03-26T14:32:18Z</time>
      </trkpt>
      <trkpt lat="45.63777" lon="6.84694">
        <ele>1907.2</ele>
        <time>2021-03-26T14:32:19Z</time>
      </trkpt>
      <trkpt lat="45.63774" lon="6.84698">
        <ele>1907.1</ele>
        <time>2021-03-26T14:32:20Z</time>
      </trkpt>
      <trkpt lat="45.63773" lon="6.84699">
        <ele>1907</ele>
        <time>2021-03-26T14:32:21Z</time>
      </trkpt>
      <trkpt lat="45.63772" lon="6.84703">
        <ele>1906.9</ele>
        <time>2021-03-26T14:32:22Z</time>
      </trkpt>
      <trkpt lat="45.6377" lon="6.84707">
        <ele>1906.8</ele>
        <time>2021-03-26T14:32:23Z</time>
      </trkpt>
      <trkpt lat="45.63769" lon="6.84712">
        <ele>1906.6</ele>
        <time>2021-03-26T14:32:24Z</time>
      </trkpt>
      <trkpt lat="45.63768" lon="6.84714">
        <ele>1906.5</ele>
        <time>2021-03-26T14:32:25Z</time>
      </trkpt>
      <trkpt lat="45.63767" lon="6.84718">
        <ele>1906.3</ele>
        <time>2021-03-26T14:32:26Z</time>
      </trkpt>
      <trkpt lat="45.63766" lon="6.84721">
        <ele>1906.2</ele>
        <time>2021-03-26T14:32:27Z</time>
      </trkpt>
      <trkpt lat="45.63766" lon="6.84725">
        <ele>1906.1</ele>
        <time>2021-03-26T14:32:28Z</time>
      </trkpt>
      <trkpt lat="45.63765" lon="6.84729">
        <ele>1905.9</ele>
        <time>2021-03-26T14:32:29Z</time>
      </trkpt>
      <trkpt lat="45.63765" lon="6.84733">
        <ele>1905.8</ele>
        <time>2021-03-26T14:32:30Z</time>
      </trkpt>
      <trkpt lat="45.63764" lon="6.84739">
        <ele>1905.5</ele>
        <time>2021-03-26T14:32:31Z</time>
      </trkpt>
      <trkpt lat="45.63764" lon="6.84742">
        <ele>1905.4</ele>
        <time>2021-03-26T14:32:32Z</time>
      </trkpt>
      <trkpt lat="45.63764" lon="6.84747">
        <ele>1905.2</ele>
        <time>2021-03-26T14:32:33Z</time>
      </trkpt>
      <trkpt lat="45.63763" lon="6.84752">
        <ele>1905</ele>
        <time>2021-03-26T14:32:34Z</time>
      </trkpt>
      <trkpt lat="45.63762" lon="6.84757">
        <ele>1904.8</ele>
        <time>2021-03-26T14:32:35Z</time>
      </trkpt>
      <trkpt lat="45.63762" lon="6.84762">
        <ele>1904.6</ele>
        <time>2021-03-26T14:32:36Z</time>
      </trkpt>
      <trkpt lat="45.63762" lon="6.84768">
        <ele>1904.3</ele>
        <time>2021-03-26T14:32:37Z</time>
      </trkpt>
      <trkpt lat="45.63762" lon="6.84774">
        <ele>1904.1</ele>
        <time>2021-03-26T14:32:38Z</time>
      </trkpt>
      <trkpt lat="45.63761" lon="6.8478">
        <ele>1903.8</ele>
        <time>2021-03-26T14:32:39Z</time>
      </trkpt>
      <trkpt lat="45.6376" lon="6.84785">
        <ele>1903.6</ele>
        <time>2021-03-26T14:32:40Z</time>
      </trkpt>
      <trkpt lat="45.63759" lon="6.84791">
        <ele>1903.4</ele>
        <time>2021-03-26T14:32:41Z</time>
      </trkpt>
      <trkpt lat="45.63758" lon="6.84796">
        <ele>1903.1</ele>
        <time>2021-03-26T14:32:42Z</time>
      </trkpt>
      <trkpt lat="45.63757" lon="6.84802">
        <ele>1902.9</ele>
        <time>2021-03-26T14:32:43Z</time>
      </trkpt>
      <trkpt lat="45.63756" lon="6.84808">
        <ele>1902.7</ele>
        <time>2021-03-26T14:32:44Z</time>
      </trkpt>
      <trkpt lat="45.63755" lon="6.84814">
        <ele>1902.4</ele>
        <time>2021-03-26T14:32:45Z</time>
      </trkpt>
      <trkpt lat="45.63754" lon="6.8482">
        <ele>1902.1</ele>
        <time>2021-03-26T14:32:46Z</time>
      </trkpt>
      <trkpt lat="45.63753" lon="6.84827">
        <ele>1901.9</ele>
        <time>2021-03-26T14:32:47Z</time>
      </trkpt>
      <trkpt lat="45.63752" lon="6.84833">
        <ele>1901.6</ele>
        <time>2021-03-26T14:32:48Z</time>
      </trkpt>
      <trkpt lat="45.6375" lon="6.8484">
        <ele>1901.3</ele>
        <time>2021-03-26T14:32:49Z</time>
      </trkpt>
      <trkpt lat="45.63747" lon="6.84845">
        <ele>1901.1</ele>
        <time>2021-03-26T14:32:50Z</time>
      </trkpt>
      <trkpt lat="45.63744" lon="6.8485">
        <ele>1900.8</ele>
        <time>2021-03-26T14:32:51Z</time>
      </trkpt>
      <trkpt lat="45.63741" lon="6.84856">
        <ele>1900.6</ele>
        <time>2021-03-26T14:32:52Z</time>
      </trkpt>
      <trkpt lat="45.63737" lon="6.8486">
        <ele>1900.4</ele>
        <time>2021-03-26T14:32:53Z</time>
      </trkpt>
      <trkpt lat="45.63735" lon="6.84866">
        <ele>1900.2</ele>
        <time>2021-03-26T14:32:54Z</time>
      </trkpt>
      <trkpt lat="45.63733" lon="6.84872">
        <ele>1900</ele>
        <time>2021-03-26T14:32:55Z</time>
      </trkpt>
      <trkpt lat="45.63731" lon="6.84878">
        <ele>1899.7</ele>
        <time>2021-03-26T14:32:56Z</time>
      </trkpt>
      <trkpt lat="45.63727" lon="6.84882">
        <ele>1899.5</ele>
        <time>2021-03-26T14:32:57Z</time>
      </trkpt>
      <trkpt lat="45.63724" lon="6.84889">
        <ele>1899.2</ele>
        <time>2021-03-26T14:32:58Z</time>
      </trkpt>
      <trkpt lat="45.63721" lon="6.84894">
        <ele>1899</ele>
        <time>2021-03-26T14:32:59Z</time>
      </trkpt>
      <trkpt lat="45.63718" lon="6.84899">
        <ele>1898.8</ele>
        <time>2021-03-26T14:33:00Z</time>
      </trkpt>
      <trkpt lat="45.63715" lon="6.84906">
        <ele>1898.5</ele>
        <time>2021-03-26T14:33:01Z</time>
      </trkpt>
      <trkpt lat="45.63713" lon="6.84912">
        <ele>1898.3</ele>
        <time>2021-03-26T14:33:02Z</time>
      </trkpt>
      <trkpt lat="45.63711" lon="6.84918">
        <ele>1898.1</ele>
        <time>2021-03-26T14:33:03Z</time>
      </trkpt>
      <trkpt lat="45.63709" lon="6.84924">
        <ele>1897.8</ele>
        <time>2021-03-26T14:33:04Z</time>
      </trkpt>
      <trkpt lat="45.637" lon="6.84924">
        <ele>1897.4</ele>
        <time>2021-03-26T14:33:05Z</time>
      </trkpt>
      <trkpt lat="45.63697" lon="6.8493">
        <ele>1897.2</ele>
        <time>2021-03-26T14:33:06Z</time>
      </trkpt>
      <trkpt lat="45.63694" lon="6.84936">
        <ele>1897</ele>
        <time>2021-03-26T14:33:07Z</time>
      </trkpt>
      <trkpt lat="45.6369" lon="6.84939">
        <ele>1896.7</ele>
        <time>2021-03-26T14:33:08Z</time>
      </trkpt>
      <trkpt lat="45.63685" lon="6.84943">
        <ele>1896.5</ele>
        <time>2021-03-26T14:33:09Z</time>
      </trkpt>
      <trkpt lat="45.63683" lon="6.8495">
        <ele>1896.3</ele>
        <time>2021-03-26T14:33:10Z</time>
      </trkpt>
      <trkpt lat="45.6368" lon="6.84956">
        <ele>1896.1</ele>
        <time>2021-03-26T14:33:11Z</time>
      </trkpt>
      <trkpt lat="45.63676" lon="6.84959">
        <ele>1896</ele>
        <time>2021-03-26T14:33:12Z</time>
      </trkpt>
      <trkpt lat="45.63672" lon="6.84963">
        <ele>1895.8</ele>
        <time>2021-03-26T14:33:13Z</time>
      </trkpt>
      <trkpt lat="45.63669" lon="6.84967">
        <ele>1895.6</ele>
        <time>2021-03-26T14:33:14Z</time>
      </trkpt>
      <trkpt lat="45.63665" lon="6.84971">
        <ele>1895.5</ele>
        <time>2021-03-26T14:33:15Z</time>
      </trkpt>
      <trkpt lat="45.63662" lon="6.84977">
        <ele>1895.3</ele>
        <time>2021-03-26T14:33:16Z</time>
      </trkpt>
      <trkpt lat="45.63658" lon="6.84982">
        <ele>1895.1</ele>
        <time>2021-03-26T14:33:17Z</time>
      </trkpt>
      <trkpt lat="45.63654" lon="6.84986">
        <ele>1894.9</ele>
        <time>2021-03-26T14:33:18Z</time>
      </trkpt>
      <trkpt lat="45.63651" lon="6.84988">
        <ele>1894.8</ele>
        <time>2021-03-26T14:33:19Z</time>
      </trkpt>
      <trkpt lat="45.63647" lon="6.84992">
        <ele>1894.6</ele>
        <time>2021-03-26T14:33:20Z</time>
      </trkpt>
      <trkpt lat="45.63643" lon="6.84993">
        <ele>1894.5</ele>
        <time>2021-03-26T14:33:21Z</time>
      </trkpt>
      <trkpt lat="45.63639" lon="6.84995">
        <ele>1894.4</ele>
        <time>2021-03-26T14:33:22Z</time>
      </trkpt>
      <trkpt lat="45.63636" lon="6.84998">
        <ele>1894.2</ele>
        <time>2021-03-26T14:33:23Z</time>
      </trkpt>
      <trkpt lat="45.63632" lon="6.85002">
        <ele>1894.1</ele>
        <time>2021-03-26T14:33:24Z</time>
      </trkpt>
      <trkpt lat="45.63628" lon="6.85005">
        <ele>1894</ele>
        <time>2021-03-26T14:33:25Z</time>
      </trkpt>
      <trkpt lat="45.63625" lon="6.85008">
        <ele>1893.8</ele>
        <time>2021-03-26T14:33:26Z</time>
      </trkpt>
      <trkpt lat="45.63622" lon="6.85011">
        <ele>1893.7</ele>
        <time>2021-03-26T14:33:27Z</time>
      </trkpt>
      <trkpt lat="45.63617" lon="6.85014">
        <ele>1893.5</ele>
        <time>2021-03-26T14:33:28Z</time>
      </trkpt>
      <trkpt lat="45.63614" lon="6.85018">
        <ele>1893.4</ele>
        <time>2021-03-26T14:33:29Z</time>
      </trkpt>
      <trkpt lat="45.63609" lon="6.85019">
        <ele>1893.3</ele>
        <time>2021-03-26T14:33:30Z</time>
      </trkpt>
      <trkpt lat="45.63604" lon="6.85022">
        <ele>1893.1</ele>
        <time>2021-03-26T14:33:31Z</time>
      </trkpt>
      <trkpt lat="45.636" lon="6.85026">
        <ele>1892.9</ele>
        <time>2021-03-26T14:33:32Z</time>
      </trkpt>
      <trkpt lat="45.63595" lon="6.8503">
        <ele>1892.7</ele>
        <time>2021-03-26T14:33:33Z</time>
      </trkpt>
      <trkpt lat="45.63592" lon="6.85036">
        <ele>1892.5</ele>
        <time>2021-03-26T14:33:34Z</time>
      </trkpt>
      <trkpt lat="45.63586" lon="6.85038">
        <ele>1892.2</ele>
        <time>2021-03-26T14:33:35Z</time>
      </trkpt>
      <trkpt lat="45.63581" lon="6.85039">
        <ele>1892</ele>
        <time>2021-03-26T14:33:36Z</time>
      </trkpt>
      <trkpt lat="45.63576" lon="6.85039">
        <ele>1891.8</ele>
        <time>2021-03-26T14:33:37Z</time>
      </trkpt>
      <trkpt lat="45.63573" lon="6.85043">
        <ele>1891.5</ele>
        <time>2021-03-26T14:33:38Z</time>
      </trkpt>
      <trkpt lat="45.63567" lon="6.85037">
        <ele>1891.2</ele>
        <time>2021-03-26T14:33:39Z</time>
      </trkpt>
      <trkpt lat="45.63563" lon="6.85035">
        <ele>1891</ele>
        <time>2021-03-26T14:33:40Z</time>
      </trkpt>
      <trkpt lat="45.63559" lon="6.85032">
        <ele>1890.7</ele>
        <time>2021-03-26T14:33:41Z</time>
      </trkpt>
      <trkpt lat="45.63554" lon="6.85031">
        <ele>1890.5</ele>
        <time>2021-03-26T14:33:42Z</time>
      </trkpt>
      <trkpt lat="45.6355" lon="6.8503">
        <ele>1890.3</ele>
        <time>2021-03-26T14:33:43Z</time>
      </trkpt>
      <trkpt lat="45.63546" lon="6.85029">
        <ele>1890.2</ele>
        <time>2021-03-26T14:33:44Z</time>
      </trkpt>
      <trkpt lat="45.63542" lon="6.85025">
        <ele>1889.9</ele>
        <time>2021-03-26T14:33:45Z</time>
      </trkpt>
      <trkpt lat="45.63538" lon="6.85022">
        <ele>1889.8</ele>
        <time>2021-03-26T14:33:46Z</time>
      </trkpt>
      <trkpt lat="45.63534" lon="6.85021">
        <ele>1889.6</ele>
        <time>2021-03-26T14:33:47Z</time>
      </trkpt>
      <trkpt lat="45.6353" lon="6.85019">
        <ele>1889.4</ele>
        <time>2021-03-26T14:33:48Z</time>
      </trkpt>
      <trkpt lat="45.63526" lon="6.85019">
        <ele>1889.2</ele>
        <time>2021-03-26T14:33:49Z</time>
      </trkpt>
      <trkpt lat="45.63522" lon="6.85017">
        <ele>1889.1</ele>
        <time>2021-03-26T14:33:50Z</time>
      </trkpt>
      <trkpt lat="45.63518" lon="6.85016">
        <ele>1888.9</ele>
        <time>2021-03-26T14:33:51Z</time>
      </trkpt>
      <trkpt lat="45.63514" lon="6.85015">
        <ele>1888.7</ele>
        <time>2021-03-26T14:33:52Z</time>
      </trkpt>
      <trkpt lat="45.63511" lon="6.85014">
        <ele>1888.5</ele>
        <time>2021-03-26T14:33:53Z</time>
      </trkpt>
      <trkpt lat="45.63507" lon="6.85012">
        <ele>1888.4</ele>
        <time>2021-03-26T14:33:54Z</time>
      </trkpt>
      <trkpt lat="45.63504" lon="6.85011">
        <ele>1888.2</ele>
        <time>2021-03-26T14:33:55Z</time>
      </trkpt>
      <trkpt lat="45.635" lon="6.85009">
        <ele>1888</ele>
        <time>2021-03-26T14:33:56Z</time>
      </trkpt>
      <trkpt lat="45.63496" lon="6.85008">
        <ele>1887.8</ele>
        <time>2021-03-26T14:33:57Z</time>
      </trkpt>
      <trkpt lat="45.63493" lon="6.85007">
        <ele>1887.6</ele>
        <time>2021-03-26T14:33:58Z</time>
      </trkpt>
      <trkpt lat="45.63489" lon="6.85004">
        <ele>1887.5</ele>
        <time>2021-03-26T14:33:59Z</time>
      </trkpt>
      <trkpt lat="45.63486" lon="6.85001">
        <ele>1887.3</ele>
        <time>2021-03-26T14:34:00Z</time>
      </trkpt>
      <trkpt lat="45.63483" lon="6.84997">
        <ele>1887.1</ele>
        <time>2021-03-26T14:34:01Z</time>
      </trkpt>
      <trkpt lat="45.6348" lon="6.84994">
        <ele>1886.9</ele>
        <time>2021-03-26T14:34:02Z</time>
      </trkpt>
      <trkpt lat="45.63478" lon="6.8499">
        <ele>1886.7</ele>
        <time>2021-03-26T14:34:03Z</time>
      </trkpt>
      <trkpt lat="45.63475" lon="6.84985">
        <ele>1886.4</ele>
        <time>2021-03-26T14:34:04Z</time>
      </trkpt>
      <trkpt lat="45.63473" lon="6.8498">
        <ele>1886.2</ele>
        <time>2021-03-26T14:34:05Z</time>
      </trkpt>
      <trkpt lat="45.63471" lon="6.84976">
        <ele>1886</ele>
        <time>2021-03-26T14:34:06Z</time>
      </trkpt>
      <trkpt lat="45.63468" lon="6.84972">
        <ele>1885.8</ele>
        <time>2021-03-26T14:34:07Z</time>
      </trkpt>
      <trkpt lat="45.63466" lon="6.84967">
        <ele>1885.6</ele>
        <time>2021-03-26T14:34:08Z</time>
      </trkpt>
      <trkpt lat="45.63464" lon="6.84963">
        <ele>1885.4</ele>
        <time>2021-03-26T14:34:09Z</time>
      </trkpt>
      <trkpt lat="45.63462" lon="6.84959">
        <ele>1885.2</ele>
        <time>2021-03-26T14:34:10Z</time>
      </trkpt>
      <trkpt lat="45.6346" lon="6.84954">
        <ele>1885</ele>
        <time>2021-03-26T14:34:11Z</time>
      </trkpt>
      <trkpt lat="45.63458" lon="6.8495">
        <ele>1884.7</ele>
        <time>2021-03-26T14:34:12Z</time>
      </trkpt>
      <trkpt lat="45.63455" lon="6.84945">
        <ele>1884.5</ele>
        <time>2021-03-26T14:34:13Z</time>
      </trkpt>
      <trkpt lat="45.63453" lon="6.8494">
        <ele>1884.2</ele>
        <time>2021-03-26T14:34:14Z</time>
      </trkpt>
      <trkpt lat="45.6345" lon="6.84935">
        <ele>1884</ele>
        <time>2021-03-26T14:34:15Z</time>
      </trkpt>
      <trkpt lat="45.63447" lon="6.84931">
        <ele>1883.7</ele>
        <time>2021-03-26T14:34:16Z</time>
      </trkpt>
      <trkpt lat="45.63443" lon="6.84927">
        <ele>1883.5</ele>
        <time>2021-03-26T14:34:17Z</time>
      </trkpt>
      <trkpt lat="45.6344" lon="6.84923">
        <ele>1883.3</ele>
        <time>2021-03-26T14:34:18Z</time>
      </trkpt>
      <trkpt lat="45.63437" lon="6.84921">
        <ele>1883</ele>
        <time>2021-03-26T14:34:19Z</time>
      </trkpt>
      <trkpt lat="45.63433" lon="6.84918">
        <ele>1882.8</ele>
        <time>2021-03-26T14:34:20Z</time>
      </trkpt>
      <trkpt lat="45.63429" lon="6.84916">
        <ele>1882.6</ele>
        <time>2021-03-26T14:34:21Z</time>
      </trkpt>
      <trkpt lat="45.63426" lon="6.84913">
        <ele>1882.3</ele>
        <time>2021-03-26T14:34:22Z</time>
      </trkpt>
      <trkpt lat="45.63422" lon="6.84911">
        <ele>1882.1</ele>
        <time>2021-03-26T14:34:23Z</time>
      </trkpt>
      <trkpt lat="45.63418" lon="6.8491">
        <ele>1881.9</ele>
        <time>2021-03-26T14:34:24Z</time>
      </trkpt>
      <trkpt lat="45.63414" lon="6.84909">
        <ele>1881.7</ele>
        <time>2021-03-26T14:34:25Z</time>
      </trkpt>
      <trkpt lat="45.6341" lon="6.84909">
        <ele>1881.5</ele>
        <time>2021-03-26T14:34:26Z</time>
      </trkpt>
      <trkpt lat="45.63406" lon="6.84908">
        <ele>1881.3</ele>
        <time>2021-03-26T14:34:27Z</time>
      </trkpt>
      <trkpt lat="45.63402" lon="6.84907">
        <ele>1881</ele>
        <time>2021-03-26T14:34:28Z</time>
      </trkpt>
      <trkpt lat="45.63398" lon="6.84907">
        <ele>1880.8</ele>
        <time>2021-03-26T14:34:29Z</time>
      </trkpt>
      <trkpt lat="45.63394" lon="6.84907">
        <ele>1880.6</ele>
        <time>2021-03-26T14:34:30Z</time>
      </trkpt>
      <trkpt lat="45.63389" lon="6.84907">
        <ele>1880.3</ele>
        <time>2021-03-26T14:34:31Z</time>
      </trkpt>
      <trkpt lat="45.63385" lon="6.84908">
        <ele>1880.1</ele>
        <time>2021-03-26T14:34:32Z</time>
      </trkpt>
      <trkpt lat="45.63381" lon="6.84908">
        <ele>1879.9</ele>
        <time>2021-03-26T14:34:33Z</time>
      </trkpt>
      <trkpt lat="45.63377" lon="6.84907">
        <ele>1879.7</ele>
        <time>2021-03-26T14:34:34Z</time>
      </trkpt>
      <trkpt lat="45.63373" lon="6.84906">
        <ele>1879.5</ele>
        <time>2021-03-26T14:34:35Z</time>
      </trkpt>
      <trkpt lat="45.6337" lon="6.84905">
        <ele>1879.3</ele>
        <time>2021-03-26T14:34:36Z</time>
      </trkpt>
      <trkpt lat="45.63366" lon="6.84904">
        <ele>1879.1</ele>
        <time>2021-03-26T14:34:37Z</time>
      </trkpt>
      <trkpt lat="45.63362" lon="6.84903">
        <ele>1878.9</ele>
        <time>2021-03-26T14:34:38Z</time>
      </trkpt>
      <trkpt lat="45.63359" lon="6.84907">
        <ele>1878.6</ele>
        <time>2021-03-26T14:34:39Z</time>
      </trkpt>
      <trkpt lat="45.63355" lon="6.84907">
        <ele>1878.5</ele>
        <time>2021-03-26T14:34:40Z</time>
      </trkpt>
      <trkpt lat="45.63351" lon="6.84906">
        <ele>1878.2</ele>
        <time>2021-03-26T14:34:41Z</time>
      </trkpt>
      <trkpt lat="45.63348" lon="6.84904">
        <ele>1878</ele>
        <time>2021-03-26T14:34:42Z</time>
      </trkpt>
      <trkpt lat="45.63343" lon="6.84903">
        <ele>1877.8</ele>
        <time>2021-03-26T14:34:43Z</time>
      </trkpt>
      <trkpt lat="45.63338" lon="6.849">
        <ele>1877.5</ele>
        <time>2021-03-26T14:34:44Z</time>
      </trkpt>
      <trkpt lat="45.63333" lon="6.849">
        <ele>1877.3</ele>
        <time>2021-03-26T14:34:45Z</time>
      </trkpt>
      <trkpt lat="45.63328" lon="6.849">
        <ele>1877</ele>
        <time>2021-03-26T14:34:46Z</time>
      </trkpt>
      <trkpt lat="45.63324" lon="6.849">
        <ele>1876.8</ele>
        <time>2021-03-26T14:34:47Z</time>
      </trkpt>
      <trkpt lat="45.6332" lon="6.84904">
        <ele>1876.5</ele>
        <time>2021-03-26T14:34:48Z</time>
      </trkpt>
      <trkpt lat="45.63316" lon="6.84907">
        <ele>1876.3</ele>
        <time>2021-03-26T14:34:49Z</time>
      </trkpt>
      <trkpt lat="45.63311" lon="6.84908">
        <ele>1876</ele>
        <time>2021-03-26T14:34:50Z</time>
      </trkpt>
      <trkpt lat="45.63307" lon="6.84909">
        <ele>1875.8</ele>
        <time>2021-03-26T14:34:51Z</time>
      </trkpt>
      <trkpt lat="45.63304" lon="6.8491">
        <ele>1875.6</ele>
        <time>2021-03-26T14:34:52Z</time>
      </trkpt>
      <trkpt lat="45.63299" lon="6.84912">
        <ele>1875.4</ele>
        <time>2021-03-26T14:34:53Z</time>
      </trkpt>
      <trkpt lat="45.63295" lon="6.84911">
        <ele>1875.2</ele>
        <time>2021-03-26T14:34:54Z</time>
      </trkpt>
      <trkpt lat="45.6329" lon="6.84907">
        <ele>1874.9</ele>
        <time>2021-03-26T14:34:55Z</time>
      </trkpt>
      <trkpt lat="45.63286" lon="6.84906">
        <ele>1874.6</ele>
        <time>2021-03-26T14:34:56Z</time>
      </trkpt>
      <trkpt lat="45.63281" lon="6.84905">
        <ele>1874.4</ele>
        <time>2021-03-26T14:34:57Z</time>
      </trkpt>
      <trkpt lat="45.63277" lon="6.84904">
        <ele>1874.2</ele>
        <time>2021-03-26T14:34:58Z</time>
      </trkpt>
      <trkpt lat="45.63272" lon="6.84903">
        <ele>1873.9</ele>
        <time>2021-03-26T14:34:59Z</time>
      </trkpt>
      <trkpt lat="45.63268" lon="6.84901">
        <ele>1873.7</ele>
        <time>2021-03-26T14:35:00Z</time>
      </trkpt>
      <trkpt lat="45.63263" lon="6.84899">
        <ele>1873.4</ele>
        <time>2021-03-26T14:35:01Z</time>
      </trkpt>
      <trkpt lat="45.63259" lon="6.84896">
        <ele>1873.1</ele>
        <time>2021-03-26T14:35:02Z</time>
      </trkpt>
      <trkpt lat="45.63255" lon="6.84894">
        <ele>1872.9</ele>
        <time>2021-03-26T14:35:03Z</time>
      </trkpt>
      <trkpt lat="45.63251" lon="6.84892">
        <ele>1872.6</ele>
        <time>2021-03-26T14:35:04Z</time>
      </trkpt>
      <trkpt lat="45.63246" lon="6.84888">
        <ele>1872.4</ele>
        <time>2021-03-26T14:35:05Z</time>
      </trkpt>
      <trkpt lat="45.63243" lon="6.84884">
        <ele>1872.2</ele>
        <time>2021-03-26T14:35:06Z</time>
      </trkpt>
      <trkpt lat="45.63239" lon="6.8488">
        <ele>1871.9</ele>
        <time>2021-03-26T14:35:07Z</time>
      </trkpt>
      <trkpt lat="45.63235" lon="6.84875">
        <ele>1871.7</ele>
        <time>2021-03-26T14:35:08Z</time>
      </trkpt>
      <trkpt lat="45.63231" lon="6.84871">
        <ele>1871.5</ele>
        <time>2021-03-26T14:35:09Z</time>
      </trkpt>
      <trkpt lat="45.63228" lon="6.84867">
        <ele>1871.2</ele>
        <time>2021-03-26T14:35:10Z</time>
      </trkpt>
      <trkpt lat="45.63224" lon="6.84863">
        <ele>1871</ele>
        <time>2021-03-26T14:35:11Z</time>
      </trkpt>
      <trkpt lat="45.63219" lon="6.84859">
        <ele>1870.7</ele>
        <time>2021-03-26T14:35:12Z</time>
      </trkpt>
      <trkpt lat="45.63216" lon="6.84854">
        <ele>1870.4</ele>
        <time>2021-03-26T14:35:13Z</time>
      </trkpt>
      <trkpt lat="45.63213" lon="6.8485">
        <ele>1870.2</ele>
        <time>2021-03-26T14:35:14Z</time>
      </trkpt>
      <trkpt lat="45.6321" lon="6.84846">
        <ele>1870</ele>
        <time>2021-03-26T14:35:15Z</time>
      </trkpt>
      <trkpt lat="45.63205" lon="6.84843">
        <ele>1869.7</ele>
        <time>2021-03-26T14:35:16Z</time>
      </trkpt>
      <trkpt lat="45.63201" lon="6.84839">
        <ele>1869.4</ele>
        <time>2021-03-26T14:35:17Z</time>
      </trkpt>
      <trkpt lat="45.63198" lon="6.84833">
        <ele>1869.1</ele>
        <time>2021-03-26T14:35:18Z</time>
      </trkpt>
      <trkpt lat="45.63197" lon="6.84825">
        <ele>1868.8</ele>
        <time>2021-03-26T14:35:19Z</time>
      </trkpt>
      <trkpt lat="45.63194" lon="6.8482">
        <ele>1868.5</ele>
        <time>2021-03-26T14:35:20Z</time>
      </trkpt>
      <trkpt lat="45.6319" lon="6.84817">
        <ele>1868.2</ele>
        <time>2021-03-26T14:35:21Z</time>
      </trkpt>
      <trkpt lat="45.63189" lon="6.84813">
        <ele>1868.1</ele>
        <time>2021-03-26T14:35:22Z</time>
      </trkpt>
      <trkpt lat="45.63185" lon="6.84809">
        <ele>1867.8</ele>
        <time>2021-03-26T14:35:23Z</time>
      </trkpt>
      <trkpt lat="45.63181" lon="6.84806">
        <ele>1867.5</ele>
        <time>2021-03-26T14:35:24Z</time>
      </trkpt>
      <trkpt lat="45.63178" lon="6.848">
        <ele>1867.3</ele>
        <time>2021-03-26T14:35:25Z</time>
      </trkpt>
      <trkpt lat="45.63174" lon="6.84797">
        <ele>1867</ele>
        <time>2021-03-26T14:35:26Z</time>
      </trkpt>
      <trkpt lat="45.6317" lon="6.84795">
        <ele>1866.8</ele>
        <time>2021-03-26T14:35:27Z</time>
      </trkpt>
      <trkpt lat="45.63166" lon="6.84792">
        <ele>1866.6</ele>
        <time>2021-03-26T14:35:28Z</time>
      </trkpt>
      <trkpt lat="45.63162" lon="6.84789">
        <ele>1866.4</ele>
        <time>2021-03-26T14:35:29Z</time>
      </trkpt>
      <trkpt lat="45.63157" lon="6.84788">
        <ele>1866.2</ele>
        <time>2021-03-26T14:35:30Z</time>
      </trkpt>
      <trkpt lat="45.63153" lon="6.84785">
        <ele>1866</ele>
        <time>2021-03-26T14:35:31Z</time>
      </trkpt>
      <trkpt lat="45.63149" lon="6.84783">
        <ele>1865.8</ele>
        <time>2021-03-26T14:35:32Z</time>
      </trkpt>
      <trkpt lat="45.63144" lon="6.84784">
        <ele>1865.6</ele>
        <time>2021-03-26T14:35:33Z</time>
      </trkpt>
      <trkpt lat="45.63141" lon="6.84778">
        <ele>1865.4</ele>
        <time>2021-03-26T14:35:34Z</time>
      </trkpt>
      <trkpt lat="45.63137" lon="6.84775">
        <ele>1865.1</ele>
        <time>2021-03-26T14:35:35Z</time>
      </trkpt>
      <trkpt lat="45.63133" lon="6.84771">
        <ele>1864.9</ele>
        <time>2021-03-26T14:35:36Z</time>
      </trkpt>
      <trkpt lat="45.6313" lon="6.84764">
        <ele>1864.7</ele>
        <time>2021-03-26T14:35:37Z</time>
      </trkpt>
      <trkpt lat="45.63127" lon="6.84762">
        <ele>1864.5</ele>
        <time>2021-03-26T14:35:38Z</time>
      </trkpt>
      <trkpt lat="45.63123" lon="6.84757">
        <ele>1864.2</ele>
        <time>2021-03-26T14:35:39Z</time>
      </trkpt>
      <trkpt lat="45.6312" lon="6.84753">
        <ele>1864</ele>
        <time>2021-03-26T14:35:40Z</time>
      </trkpt>
      <trkpt lat="45.63116" lon="6.84748">
        <ele>1863.8</ele>
        <time>2021-03-26T14:35:41Z</time>
      </trkpt>
      <trkpt lat="45.63112" lon="6.84741">
        <ele>1863.5</ele>
        <time>2021-03-26T14:35:42Z</time>
      </trkpt>
      <trkpt lat="45.63109" lon="6.84737">
        <ele>1863.2</ele>
        <time>2021-03-26T14:35:43Z</time>
      </trkpt>
      <trkpt lat="45.63104" lon="6.84732">
        <ele>1863</ele>
        <time>2021-03-26T14:35:44Z</time>
      </trkpt>
      <trkpt lat="45.63099" lon="6.8473">
        <ele>1862.7</ele>
        <time>2021-03-26T14:35:45Z</time>
      </trkpt>
      <trkpt lat="45.63094" lon="6.84728">
        <ele>1862.5</ele>
        <time>2021-03-26T14:35:46Z</time>
      </trkpt>
      <trkpt lat="45.63087" lon="6.84728">
        <ele>1862.1</ele>
        <time>2021-03-26T14:35:47Z</time>
      </trkpt>
      <trkpt lat="45.63082" lon="6.84726">
        <ele>1861.9</ele>
        <time>2021-03-26T14:35:48Z</time>
      </trkpt>
      <trkpt lat="45.63079" lon="6.84722">
        <ele>1861.7</ele>
        <time>2021-03-26T14:35:49Z</time>
      </trkpt>
      <trkpt lat="45.63074" lon="6.8472">
        <ele>1861.5</ele>
        <time>2021-03-26T14:35:50Z</time>
      </trkpt>
      <trkpt lat="45.6307" lon="6.84716">
        <ele>1861.2</ele>
        <time>2021-03-26T14:35:51Z</time>
      </trkpt>
      <trkpt lat="45.63066" lon="6.84712">
        <ele>1861</ele>
        <time>2021-03-26T14:35:52Z</time>
      </trkpt>
      <trkpt lat="45.63062" lon="6.84709">
        <ele>1860.8</ele>
        <time>2021-03-26T14:35:53Z</time>
      </trkpt>
      <trkpt lat="45.6306" lon="6.84713">
        <ele>1860.6</ele>
        <time>2021-03-26T14:35:54Z</time>
      </trkpt>
      <trkpt lat="45.63055" lon="6.8471">
        <ele>1860.4</ele>
        <time>2021-03-26T14:35:55Z</time>
      </trkpt>
      <trkpt lat="45.63051" lon="6.84706">
        <ele>1860.2</ele>
        <time>2021-03-26T14:35:56Z</time>
      </trkpt>
      <trkpt lat="45.63047" lon="6.84701">
        <ele>1860</ele>
        <time>2021-03-26T14:35:57Z</time>
      </trkpt>
      <trkpt lat="45.63042" lon="6.84697">
        <ele>1859.7</ele>
        <time>2021-03-26T14:35:58Z</time>
      </trkpt>
      <trkpt lat="45.63039" lon="6.8469">
        <ele>1859.5</ele>
        <time>2021-03-26T14:35:59Z</time>
      </trkpt>
      <trkpt lat="45.63034" lon="6.84684">
        <ele>1859.2</ele>
        <time>2021-03-26T14:36:00Z</time>
      </trkpt>
      <trkpt lat="45.6303" lon="6.8468">
        <ele>1858.9</ele>
        <time>2021-03-26T14:36:01Z</time>
      </trkpt>
      <trkpt lat="45.63025" lon="6.84675">
        <ele>1858.6</ele>
        <time>2021-03-26T14:36:02Z</time>
      </trkpt>
      <trkpt lat="45.6302" lon="6.84672">
        <ele>1858.4</ele>
        <time>2021-03-26T14:36:03Z</time>
      </trkpt>
      <trkpt lat="45.63014" lon="6.84668">
        <ele>1858.1</ele>
        <time>2021-03-26T14:36:04Z</time>
      </trkpt>
      <trkpt lat="45.63011" lon="6.84671">
        <ele>1857.9</ele>
        <time>2021-03-26T14:36:05Z</time>
      </trkpt>
      <trkpt lat="45.63006" lon="6.84671">
        <ele>1857.6</ele>
        <time>2021-03-26T14:36:06Z</time>
      </trkpt>
      <trkpt lat="45.63003" lon="6.84678">
        <ele>1857.4</ele>
        <time>2021-03-26T14:36:07Z</time>
      </trkpt>
      <trkpt lat="45.62999" lon="6.84681">
        <ele>1857.4</ele>
        <time>2021-03-26T14:36:08Z</time>
      </trkpt>
      <trkpt lat="45.62994" lon="6.8468">
        <ele>1857.4</ele>
        <time>2021-03-26T14:36:09Z</time>
      </trkpt>
      <trkpt lat="45.62991" lon="6.84682">
        <ele>1857.5</ele>
        <time>2021-03-26T14:36:10Z</time>
      </trkpt>
      <trkpt lat="45.62988" lon="6.84685">
        <ele>1857.5</ele>
        <time>2021-03-26T14:36:11Z</time>
      </trkpt>
      <trkpt lat="45.62983" lon="6.84687">
        <ele>1857.5</ele>
        <time>2021-03-26T14:36:12Z</time>
      </trkpt>
      <trkpt lat="45.62978" lon="6.84689">
        <ele>1857.5</ele>
        <time>2021-03-26T14:36:13Z</time>
      </trkpt>
      <trkpt lat="45.62974" lon="6.84695">
        <ele>1857.6</ele>
        <time>2021-03-26T14:36:14Z</time>
      </trkpt>
      <trkpt lat="45.62971" lon="6.84702">
        <ele>1857.4</ele>
        <time>2021-03-26T14:36:15Z</time>
      </trkpt>
      <trkpt lat="45.62967" lon="6.84707">
        <ele>1857.3</ele>
        <time>2021-03-26T14:36:16Z</time>
      </trkpt>
      <trkpt lat="45.62963" lon="6.84706">
        <ele>1857.1</ele>
        <time>2021-03-26T14:36:17Z</time>
      </trkpt>
      <trkpt lat="45.6296" lon="6.8471">
        <ele>1856.9</ele>
        <time>2021-03-26T14:36:18Z</time>
      </trkpt>
      <trkpt lat="45.62959" lon="6.84712">
        <ele>1856.8</ele>
        <time>2021-03-26T14:36:19Z</time>
      </trkpt>
      <trkpt lat="45.62957" lon="6.84715">
        <ele>1856.7</ele>
        <time>2021-03-26T14:36:20Z</time>
      </trkpt>
      <trkpt lat="45.62956" lon="6.84716">
        <ele>1856.7</ele>
        <time>2021-03-26T14:36:21Z</time>
      </trkpt>
      <trkpt lat="45.62956" lon="6.84716">
        <ele>1856.7</ele>
        <time>2021-03-26T14:36:22Z</time>
      </trkpt>
      <trkpt lat="45.62956" lon="6.84716">
        <ele>1856.7</ele>
        <time>2021-03-26T14:36:23Z</time>
      </trkpt>
      <trkpt lat="45.62956" lon="6.84716">
        <ele>1856.7</ele>
        <time>2021-03-26T14:36:24Z</time>
      </trkpt>
      <trkpt lat="45.62956" lon="6.84716">
        <ele>1856.7</ele>
        <time>2021-03-26T14:36:25Z</time>
      </trkpt>
      <trkpt lat="45.62956" lon="6.84716">
        <ele>1856.7</ele>
        <time>2021-03-26T14:36:26Z</time>
      </trkpt>
      <trkpt lat="45.62956" lon="6.84716">
        <ele>1856.7</ele>
        <time>2021-03-26T14:36:27Z</time>
      </trkpt>
      <trkpt lat="45.62956" lon="6.84716">
        <ele>1856.7</ele>
        <time>2021-03-26T14:36:28Z</time>
      </trkpt>
      <trkpt lat="45.62956" lon="6.84716">
        <ele>1856.7</ele>
        <time>2021-03-26T14:36:29Z</time>
      </trkpt>
      <trkpt lat="45.62956" lon="6.84716">
        <ele>1856.7</ele>
        <time>2021-03-26T14:36:30Z</time>
      </trkpt>
      <trkpt lat="45.62956" lon="6.84716">
        <ele>1856.7</ele>
        <time>2021-03-26T14:36:31Z</time>
      </trkpt>
    </trkseg>
  </trk>
</gpx>